<?xml version="1.0" encoding="UTF-8" standalone="no" ?>
<gpx xmlns="http://www.topografix.com/GPX/1/1" xmlns:xsi="http://www.w3.org/2001/XMLSchema-instance" xsi:schemaLocation="http://www.topografix.com/GPX/1/1 http://www.topografix.com/GPX/1/1/gpx.xsd" version="1.1" creator="VisuGPX - https://www.visugpx.com">
  <metadata>
    <name>L'Ariegeoise Plasuzat 63km</name>
  </metadata>
  <trk>
    <name><![CDATA[Trace 1782619096000]]></name>
    <trkseg>
      <trkpt lat="42.76304" lon="1.48281">
        <ele>791</ele>
        <time>2026-06-28T03:58:16.000Z</time>
      </trkpt>
      <trkpt lat="42.76301" lon="1.48279">
        <ele>782</ele>
        <time>2026-06-28T03:58:39.000Z</time>
      </trkpt>
      <trkpt lat="42.763" lon="1.4828">
        <ele>781</ele>
        <time>2026-06-28T03:58:40.000Z</time>
      </trkpt>
      <trkpt lat="42.763" lon="1.48281">
        <ele>781</ele>
        <time>2026-06-28T03:58:41.000Z</time>
      </trkpt>
      <trkpt lat="42.763" lon="1.48282">
        <ele>781</ele>
        <time>2026-06-28T03:58:42.000Z</time>
      </trkpt>
      <trkpt lat="42.763" lon="1.48279">
        <ele>783</ele>
        <time>2026-06-28T03:58:58.000Z</time>
      </trkpt>
      <trkpt lat="42.76301" lon="1.48278">
        <ele>784</ele>
        <time>2026-06-28T03:58:59.000Z</time>
      </trkpt>
      <trkpt lat="42.76301" lon="1.48278">
        <ele>785</ele>
        <time>2026-06-28T03:59:00.000Z</time>
      </trkpt>
      <trkpt lat="42.76301" lon="1.48277">
        <ele>785</ele>
        <time>2026-06-28T03:59:01.000Z</time>
      </trkpt>
      <trkpt lat="42.76306" lon="1.48273">
        <ele>791</ele>
        <time>2026-06-28T03:59:19.000Z</time>
      </trkpt>
      <trkpt lat="42.76304" lon="1.48272">
        <ele>790</ele>
        <time>2026-06-28T03:59:20.000Z</time>
      </trkpt>
      <trkpt lat="42.76302" lon="1.4827">
        <ele>789</ele>
        <time>2026-06-28T03:59:21.000Z</time>
      </trkpt>
      <trkpt lat="42.76303" lon="1.4827">
        <ele>788</ele>
        <time>2026-06-28T03:59:58.000Z</time>
      </trkpt>
      <trkpt lat="42.76303" lon="1.48271">
        <ele>788</ele>
        <time>2026-06-28T03:59:59.000Z</time>
      </trkpt>
      <trkpt lat="42.76301" lon="1.48287">
        <ele>783</ele>
        <time>2026-06-28T04:00:04.000Z</time>
      </trkpt>
      <trkpt lat="42.76303" lon="1.48276">
        <ele>779</ele>
        <time>2026-06-28T04:00:05.000Z</time>
      </trkpt>
      <trkpt lat="42.76302" lon="1.48273">
        <ele>779</ele>
        <time>2026-06-28T04:00:06.000Z</time>
      </trkpt>
      <trkpt lat="42.76299" lon="1.48282">
        <ele>783</ele>
        <time>2026-06-28T04:00:07.000Z</time>
      </trkpt>
      <trkpt lat="42.76299" lon="1.48282">
        <ele>783</ele>
        <time>2026-06-28T04:00:08.000Z</time>
      </trkpt>
      <trkpt lat="42.76299" lon="1.48282">
        <ele>783</ele>
        <time>2026-06-28T04:00:09.000Z</time>
      </trkpt>
      <trkpt lat="42.76298" lon="1.48281">
        <ele>783</ele>
        <time>2026-06-28T04:00:11.000Z</time>
      </trkpt>
      <trkpt lat="42.76299" lon="1.48284">
        <ele>785</ele>
        <time>2026-06-28T04:00:12.000Z</time>
      </trkpt>
      <trkpt lat="42.76299" lon="1.48286">
        <ele>786</ele>
        <time>2026-06-28T04:00:13.000Z</time>
      </trkpt>
      <trkpt lat="42.763" lon="1.48285">
        <ele>786</ele>
        <time>2026-06-28T04:00:14.000Z</time>
      </trkpt>
      <trkpt lat="42.76302" lon="1.48286">
        <ele>786</ele>
        <time>2026-06-28T04:00:15.000Z</time>
      </trkpt>
      <trkpt lat="42.76303" lon="1.48287">
        <ele>787</ele>
        <time>2026-06-28T04:00:16.000Z</time>
      </trkpt>
      <trkpt lat="42.76304" lon="1.48286">
        <ele>788</ele>
        <time>2026-06-28T04:00:17.000Z</time>
      </trkpt>
      <trkpt lat="42.76305" lon="1.48286">
        <ele>790</ele>
        <time>2026-06-28T04:00:18.000Z</time>
      </trkpt>
      <trkpt lat="42.76304" lon="1.48285">
        <ele>790</ele>
        <time>2026-06-28T04:00:19.000Z</time>
      </trkpt>
      <trkpt lat="42.76304" lon="1.48284">
        <ele>790</ele>
        <time>2026-06-28T04:00:20.000Z</time>
      </trkpt>
      <trkpt lat="42.76303" lon="1.48283">
        <ele>788</ele>
        <time>2026-06-28T04:00:21.000Z</time>
      </trkpt>
      <trkpt lat="42.76302" lon="1.48283">
        <ele>787</ele>
        <time>2026-06-28T04:00:22.000Z</time>
      </trkpt>
      <trkpt lat="42.763" lon="1.48283">
        <ele>786</ele>
        <time>2026-06-28T04:00:37.000Z</time>
      </trkpt>
      <trkpt lat="42.763" lon="1.48282">
        <ele>785</ele>
        <time>2026-06-28T04:00:38.000Z</time>
      </trkpt>
      <trkpt lat="42.763" lon="1.48281">
        <ele>786</ele>
        <time>2026-06-28T04:00:39.000Z</time>
      </trkpt>
      <trkpt lat="42.763" lon="1.4828">
        <ele>786</ele>
        <time>2026-06-28T04:00:40.000Z</time>
      </trkpt>
      <trkpt lat="42.763" lon="1.4828">
        <ele>787</ele>
        <time>2026-06-28T04:00:41.000Z</time>
      </trkpt>
      <trkpt lat="42.76299" lon="1.4828">
        <ele>787</ele>
        <time>2026-06-28T04:00:42.000Z</time>
      </trkpt>
      <trkpt lat="42.763" lon="1.48278">
        <ele>788</ele>
        <time>2026-06-28T04:00:57.000Z</time>
      </trkpt>
      <trkpt lat="42.763" lon="1.48277">
        <ele>789</ele>
        <time>2026-06-28T04:00:58.000Z</time>
      </trkpt>
      <trkpt lat="42.763" lon="1.48277">
        <ele>790</ele>
        <time>2026-06-28T04:00:59.000Z</time>
      </trkpt>
      <trkpt lat="42.763" lon="1.48276">
        <ele>791</ele>
        <time>2026-06-28T04:01:00.000Z</time>
      </trkpt>
      <trkpt lat="42.763" lon="1.48276">
        <ele>792</ele>
        <time>2026-06-28T04:01:01.000Z</time>
      </trkpt>
      <trkpt lat="42.763" lon="1.48276">
        <ele>792</ele>
        <time>2026-06-28T04:01:02.000Z</time>
      </trkpt>
      <trkpt lat="42.763" lon="1.48276">
        <ele>792</ele>
        <time>2026-06-28T04:01:03.000Z</time>
      </trkpt>
      <trkpt lat="42.763" lon="1.48276">
        <ele>792</ele>
        <time>2026-06-28T04:01:04.000Z</time>
      </trkpt>
      <trkpt lat="42.763" lon="1.48276">
        <ele>793</ele>
        <time>2026-06-28T04:01:05.000Z</time>
      </trkpt>
      <trkpt lat="42.763" lon="1.48277">
        <ele>793</ele>
        <time>2026-06-28T04:01:06.000Z</time>
      </trkpt>
      <trkpt lat="42.76301" lon="1.48278">
        <ele>794</ele>
        <time>2026-06-28T04:01:07.000Z</time>
      </trkpt>
      <trkpt lat="42.76298" lon="1.48277">
        <ele>791</ele>
        <time>2026-06-28T04:01:21.000Z</time>
      </trkpt>
      <trkpt lat="42.76299" lon="1.48278">
        <ele>792</ele>
        <time>2026-06-28T04:01:22.000Z</time>
      </trkpt>
      <trkpt lat="42.76299" lon="1.48279">
        <ele>792</ele>
        <time>2026-06-28T04:01:23.000Z</time>
      </trkpt>
      <trkpt lat="42.76299" lon="1.48279">
        <ele>791</ele>
        <time>2026-06-28T04:01:24.000Z</time>
      </trkpt>
      <trkpt lat="42.76298" lon="1.48279">
        <ele>790</ele>
        <time>2026-06-28T04:01:25.000Z</time>
      </trkpt>
      <trkpt lat="42.76298" lon="1.48279">
        <ele>789</ele>
        <time>2026-06-28T04:01:26.000Z</time>
      </trkpt>
      <trkpt lat="42.76297" lon="1.48278">
        <ele>789</ele>
        <time>2026-06-28T04:01:27.000Z</time>
      </trkpt>
      <trkpt lat="42.76298" lon="1.48278">
        <ele>789</ele>
        <time>2026-06-28T04:01:28.000Z</time>
      </trkpt>
      <trkpt lat="42.76298" lon="1.48279">
        <ele>788</ele>
        <time>2026-06-28T04:01:29.000Z</time>
      </trkpt>
      <trkpt lat="42.76298" lon="1.48279">
        <ele>787</ele>
        <time>2026-06-28T04:01:30.000Z</time>
      </trkpt>
      <trkpt lat="42.76299" lon="1.4828">
        <ele>787</ele>
        <time>2026-06-28T04:01:31.000Z</time>
      </trkpt>
      <trkpt lat="42.76299" lon="1.48281">
        <ele>787</ele>
        <time>2026-06-28T04:01:32.000Z</time>
      </trkpt>
      <trkpt lat="42.76299" lon="1.48281">
        <ele>787</ele>
        <time>2026-06-28T04:01:50.000Z</time>
      </trkpt>
      <trkpt lat="42.763" lon="1.4828">
        <ele>788</ele>
        <time>2026-06-28T04:01:51.000Z</time>
      </trkpt>
      <trkpt lat="42.763" lon="1.4828">
        <ele>787</ele>
        <time>2026-06-28T04:01:52.000Z</time>
      </trkpt>
      <trkpt lat="42.763" lon="1.48279">
        <ele>787</ele>
        <time>2026-06-28T04:01:53.000Z</time>
      </trkpt>
      <trkpt lat="42.763" lon="1.48279">
        <ele>787</ele>
        <time>2026-06-28T04:01:54.000Z</time>
      </trkpt>
      <trkpt lat="42.76301" lon="1.48279">
        <ele>788</ele>
        <time>2026-06-28T04:01:55.000Z</time>
      </trkpt>
      <trkpt lat="42.76301" lon="1.4828">
        <ele>787</ele>
        <time>2026-06-28T04:01:56.000Z</time>
      </trkpt>
      <trkpt lat="42.763" lon="1.48279">
        <ele>788</ele>
        <time>2026-06-28T04:01:57.000Z</time>
      </trkpt>
      <trkpt lat="42.76302" lon="1.4828">
        <ele>789</ele>
        <time>2026-06-28T04:01:58.000Z</time>
      </trkpt>
      <trkpt lat="42.76302" lon="1.48279">
        <ele>788</ele>
        <time>2026-06-28T04:01:59.000Z</time>
      </trkpt>
      <trkpt lat="42.76302" lon="1.48279">
        <ele>789</ele>
        <time>2026-06-28T04:02:00.000Z</time>
      </trkpt>
      <trkpt lat="42.76302" lon="1.48278">
        <ele>789</ele>
        <time>2026-06-28T04:02:01.000Z</time>
      </trkpt>
      <trkpt lat="42.76302" lon="1.48277">
        <ele>788</ele>
        <time>2026-06-28T04:02:02.000Z</time>
      </trkpt>
      <trkpt lat="42.76302" lon="1.48281">
        <ele>786</ele>
        <time>2026-06-28T04:03:18.000Z</time>
      </trkpt>
      <trkpt lat="42.76303" lon="1.48282">
        <ele>785</ele>
        <time>2026-06-28T04:03:19.000Z</time>
      </trkpt>
      <trkpt lat="42.76303" lon="1.48282">
        <ele>785</ele>
        <time>2026-06-28T04:03:20.000Z</time>
      </trkpt>
      <trkpt lat="42.76305" lon="1.48282">
        <ele>786</ele>
        <time>2026-06-28T04:03:21.000Z</time>
      </trkpt>
      <trkpt lat="42.76306" lon="1.48282">
        <ele>786</ele>
        <time>2026-06-28T04:03:22.000Z</time>
      </trkpt>
      <trkpt lat="42.76307" lon="1.48283">
        <ele>786</ele>
        <time>2026-06-28T04:03:23.000Z</time>
      </trkpt>
      <trkpt lat="42.76308" lon="1.48284">
        <ele>786</ele>
        <time>2026-06-28T04:03:24.000Z</time>
      </trkpt>
      <trkpt lat="42.76309" lon="1.48285">
        <ele>785</ele>
        <time>2026-06-28T04:03:25.000Z</time>
      </trkpt>
      <trkpt lat="42.76309" lon="1.48287">
        <ele>785</ele>
        <time>2026-06-28T04:03:26.000Z</time>
      </trkpt>
      <trkpt lat="42.76311" lon="1.48288">
        <ele>784</ele>
        <time>2026-06-28T04:03:27.000Z</time>
      </trkpt>
      <trkpt lat="42.76311" lon="1.48289">
        <ele>785</ele>
        <time>2026-06-28T04:03:28.000Z</time>
      </trkpt>
      <trkpt lat="42.76313" lon="1.4829">
        <ele>784</ele>
        <time>2026-06-28T04:03:29.000Z</time>
      </trkpt>
      <trkpt lat="42.76314" lon="1.48291">
        <ele>785</ele>
        <time>2026-06-28T04:03:30.000Z</time>
      </trkpt>
      <trkpt lat="42.76315" lon="1.48292">
        <ele>785</ele>
        <time>2026-06-28T04:03:31.000Z</time>
      </trkpt>
      <trkpt lat="42.76316" lon="1.48294">
        <ele>784</ele>
        <time>2026-06-28T04:03:32.000Z</time>
      </trkpt>
      <trkpt lat="42.76318" lon="1.48294">
        <ele>785</ele>
        <time>2026-06-28T04:03:33.000Z</time>
      </trkpt>
      <trkpt lat="42.76319" lon="1.48295">
        <ele>785</ele>
        <time>2026-06-28T04:03:34.000Z</time>
      </trkpt>
      <trkpt lat="42.7632" lon="1.48296">
        <ele>784</ele>
        <time>2026-06-28T04:03:35.000Z</time>
      </trkpt>
      <trkpt lat="42.76321" lon="1.48297">
        <ele>784</ele>
        <time>2026-06-28T04:03:36.000Z</time>
      </trkpt>
      <trkpt lat="42.76322" lon="1.48298">
        <ele>784</ele>
        <time>2026-06-28T04:03:37.000Z</time>
      </trkpt>
      <trkpt lat="42.76323" lon="1.48299">
        <ele>784</ele>
        <time>2026-06-28T04:03:38.000Z</time>
      </trkpt>
      <trkpt lat="42.76323" lon="1.483">
        <ele>783</ele>
        <time>2026-06-28T04:03:39.000Z</time>
      </trkpt>
      <trkpt lat="42.76324" lon="1.48301">
        <ele>784</ele>
        <time>2026-06-28T04:03:40.000Z</time>
      </trkpt>
      <trkpt lat="42.76325" lon="1.48302">
        <ele>785</ele>
        <time>2026-06-28T04:03:41.000Z</time>
      </trkpt>
      <trkpt lat="42.76326" lon="1.48302">
        <ele>785</ele>
        <time>2026-06-28T04:03:42.000Z</time>
      </trkpt>
      <trkpt lat="42.76327" lon="1.48303">
        <ele>785</ele>
        <time>2026-06-28T04:03:43.000Z</time>
      </trkpt>
      <trkpt lat="42.76327" lon="1.48303">
        <ele>786</ele>
        <time>2026-06-28T04:03:44.000Z</time>
      </trkpt>
      <trkpt lat="42.76328" lon="1.48304">
        <ele>786</ele>
        <time>2026-06-28T04:03:45.000Z</time>
      </trkpt>
      <trkpt lat="42.76328" lon="1.48305">
        <ele>786</ele>
        <time>2026-06-28T04:03:46.000Z</time>
      </trkpt>
      <trkpt lat="42.76329" lon="1.48306">
        <ele>786</ele>
        <time>2026-06-28T04:03:47.000Z</time>
      </trkpt>
      <trkpt lat="42.7633" lon="1.48306">
        <ele>786</ele>
        <time>2026-06-28T04:03:48.000Z</time>
      </trkpt>
      <trkpt lat="42.76332" lon="1.48306">
        <ele>786</ele>
        <time>2026-06-28T04:03:49.000Z</time>
      </trkpt>
      <trkpt lat="42.76333" lon="1.48305">
        <ele>786</ele>
        <time>2026-06-28T04:03:50.000Z</time>
      </trkpt>
      <trkpt lat="42.76334" lon="1.48303">
        <ele>786</ele>
        <time>2026-06-28T04:03:51.000Z</time>
      </trkpt>
      <trkpt lat="42.76335" lon="1.48303">
        <ele>786</ele>
        <time>2026-06-28T04:03:52.000Z</time>
      </trkpt>
      <trkpt lat="42.76335" lon="1.48301">
        <ele>786</ele>
        <time>2026-06-28T04:03:53.000Z</time>
      </trkpt>
      <trkpt lat="42.76336" lon="1.483">
        <ele>787</ele>
        <time>2026-06-28T04:03:54.000Z</time>
      </trkpt>
      <trkpt lat="42.76337" lon="1.483">
        <ele>787</ele>
        <time>2026-06-28T04:03:55.000Z</time>
      </trkpt>
      <trkpt lat="42.76339" lon="1.48299">
        <ele>787</ele>
        <time>2026-06-28T04:03:56.000Z</time>
      </trkpt>
      <trkpt lat="42.7634" lon="1.48298">
        <ele>787</ele>
        <time>2026-06-28T04:03:57.000Z</time>
      </trkpt>
      <trkpt lat="42.76341" lon="1.48297">
        <ele>788</ele>
        <time>2026-06-28T04:03:58.000Z</time>
      </trkpt>
      <trkpt lat="42.76342" lon="1.48296">
        <ele>788</ele>
        <time>2026-06-28T04:03:59.000Z</time>
      </trkpt>
      <trkpt lat="42.76343" lon="1.48295">
        <ele>788</ele>
        <time>2026-06-28T04:04:00.000Z</time>
      </trkpt>
      <trkpt lat="42.76344" lon="1.48293">
        <ele>789</ele>
        <time>2026-06-28T04:04:01.000Z</time>
      </trkpt>
      <trkpt lat="42.76345" lon="1.48292">
        <ele>790</ele>
        <time>2026-06-28T04:04:02.000Z</time>
      </trkpt>
      <trkpt lat="42.76346" lon="1.48291">
        <ele>790</ele>
        <time>2026-06-28T04:04:03.000Z</time>
      </trkpt>
      <trkpt lat="42.76347" lon="1.4829">
        <ele>789</ele>
        <time>2026-06-28T04:04:04.000Z</time>
      </trkpt>
      <trkpt lat="42.76348" lon="1.48288">
        <ele>789</ele>
        <time>2026-06-28T04:04:05.000Z</time>
      </trkpt>
      <trkpt lat="42.76349" lon="1.48287">
        <ele>789</ele>
        <time>2026-06-28T04:04:06.000Z</time>
      </trkpt>
      <trkpt lat="42.76349" lon="1.48285">
        <ele>790</ele>
        <time>2026-06-28T04:04:07.000Z</time>
      </trkpt>
      <trkpt lat="42.7635" lon="1.48284">
        <ele>790</ele>
        <time>2026-06-28T04:04:08.000Z</time>
      </trkpt>
      <trkpt lat="42.76352" lon="1.48283">
        <ele>790</ele>
        <time>2026-06-28T04:04:09.000Z</time>
      </trkpt>
      <trkpt lat="42.76352" lon="1.48281">
        <ele>790</ele>
        <time>2026-06-28T04:04:10.000Z</time>
      </trkpt>
      <trkpt lat="42.76353" lon="1.48279">
        <ele>791</ele>
        <time>2026-06-28T04:04:11.000Z</time>
      </trkpt>
      <trkpt lat="42.76354" lon="1.48278">
        <ele>790</ele>
        <time>2026-06-28T04:04:12.000Z</time>
      </trkpt>
      <trkpt lat="42.76355" lon="1.48276">
        <ele>790</ele>
        <time>2026-06-28T04:04:13.000Z</time>
      </trkpt>
      <trkpt lat="42.76355" lon="1.48275">
        <ele>790</ele>
        <time>2026-06-28T04:04:14.000Z</time>
      </trkpt>
      <trkpt lat="42.76355" lon="1.48274">
        <ele>790</ele>
        <time>2026-06-28T04:04:15.000Z</time>
      </trkpt>
      <trkpt lat="42.76356" lon="1.48272">
        <ele>789</ele>
        <time>2026-06-28T04:04:16.000Z</time>
      </trkpt>
      <trkpt lat="42.76357" lon="1.48271">
        <ele>790</ele>
        <time>2026-06-28T04:04:17.000Z</time>
      </trkpt>
      <trkpt lat="42.76358" lon="1.48269">
        <ele>789</ele>
        <time>2026-06-28T04:04:18.000Z</time>
      </trkpt>
      <trkpt lat="42.76359" lon="1.48267">
        <ele>789</ele>
        <time>2026-06-28T04:04:19.000Z</time>
      </trkpt>
      <trkpt lat="42.7636" lon="1.48266">
        <ele>789</ele>
        <time>2026-06-28T04:04:20.000Z</time>
      </trkpt>
      <trkpt lat="42.76361" lon="1.48264">
        <ele>790</ele>
        <time>2026-06-28T04:04:21.000Z</time>
      </trkpt>
      <trkpt lat="42.76363" lon="1.48263">
        <ele>790</ele>
        <time>2026-06-28T04:04:22.000Z</time>
      </trkpt>
      <trkpt lat="42.76365" lon="1.48261">
        <ele>790</ele>
        <time>2026-06-28T04:04:23.000Z</time>
      </trkpt>
      <trkpt lat="42.76366" lon="1.48259">
        <ele>790</ele>
        <time>2026-06-28T04:04:24.000Z</time>
      </trkpt>
      <trkpt lat="42.76368" lon="1.48258">
        <ele>790</ele>
        <time>2026-06-28T04:04:25.000Z</time>
      </trkpt>
      <trkpt lat="42.76369" lon="1.48257">
        <ele>791</ele>
        <time>2026-06-28T04:04:26.000Z</time>
      </trkpt>
      <trkpt lat="42.7637" lon="1.48255">
        <ele>791</ele>
        <time>2026-06-28T04:04:27.000Z</time>
      </trkpt>
      <trkpt lat="42.76371" lon="1.48254">
        <ele>791</ele>
        <time>2026-06-28T04:04:28.000Z</time>
      </trkpt>
      <trkpt lat="42.76372" lon="1.48252">
        <ele>791</ele>
        <time>2026-06-28T04:04:29.000Z</time>
      </trkpt>
      <trkpt lat="42.76373" lon="1.48251">
        <ele>791</ele>
        <time>2026-06-28T04:04:30.000Z</time>
      </trkpt>
      <trkpt lat="42.76374" lon="1.4825">
        <ele>791</ele>
        <time>2026-06-28T04:04:31.000Z</time>
      </trkpt>
      <trkpt lat="42.76374" lon="1.48249">
        <ele>791</ele>
        <time>2026-06-28T04:04:32.000Z</time>
      </trkpt>
      <trkpt lat="42.76375" lon="1.48248">
        <ele>790</ele>
        <time>2026-06-28T04:04:33.000Z</time>
      </trkpt>
      <trkpt lat="42.76377" lon="1.48246">
        <ele>791</ele>
        <time>2026-06-28T04:04:34.000Z</time>
      </trkpt>
      <trkpt lat="42.76378" lon="1.48244">
        <ele>791</ele>
        <time>2026-06-28T04:04:35.000Z</time>
      </trkpt>
      <trkpt lat="42.7638" lon="1.48243">
        <ele>791</ele>
        <time>2026-06-28T04:04:36.000Z</time>
      </trkpt>
      <trkpt lat="42.76381" lon="1.48241">
        <ele>790</ele>
        <time>2026-06-28T04:04:37.000Z</time>
      </trkpt>
      <trkpt lat="42.76382" lon="1.4824">
        <ele>790</ele>
        <time>2026-06-28T04:04:38.000Z</time>
      </trkpt>
      <trkpt lat="42.76383" lon="1.48239">
        <ele>791</ele>
        <time>2026-06-28T04:04:39.000Z</time>
      </trkpt>
      <trkpt lat="42.76385" lon="1.48238">
        <ele>791</ele>
        <time>2026-06-28T04:04:40.000Z</time>
      </trkpt>
      <trkpt lat="42.76386" lon="1.48237">
        <ele>791</ele>
        <time>2026-06-28T04:04:41.000Z</time>
      </trkpt>
      <trkpt lat="42.76387" lon="1.48236">
        <ele>791</ele>
        <time>2026-06-28T04:04:42.000Z</time>
      </trkpt>
      <trkpt lat="42.76387" lon="1.48236">
        <ele>791</ele>
        <time>2026-06-28T04:04:43.000Z</time>
      </trkpt>
      <trkpt lat="42.76388" lon="1.48234">
        <ele>790</ele>
        <time>2026-06-28T04:04:44.000Z</time>
      </trkpt>
      <trkpt lat="42.76388" lon="1.48234">
        <ele>790</ele>
        <time>2026-06-28T04:04:45.000Z</time>
      </trkpt>
      <trkpt lat="42.76389" lon="1.48233">
        <ele>789</ele>
        <time>2026-06-28T04:04:46.000Z</time>
      </trkpt>
      <trkpt lat="42.76391" lon="1.48232">
        <ele>789</ele>
        <time>2026-06-28T04:04:47.000Z</time>
      </trkpt>
      <trkpt lat="42.76392" lon="1.48231">
        <ele>790</ele>
        <time>2026-06-28T04:04:48.000Z</time>
      </trkpt>
      <trkpt lat="42.76393" lon="1.48229">
        <ele>790</ele>
        <time>2026-06-28T04:04:49.000Z</time>
      </trkpt>
      <trkpt lat="42.76395" lon="1.48228">
        <ele>790</ele>
        <time>2026-06-28T04:04:50.000Z</time>
      </trkpt>
      <trkpt lat="42.76396" lon="1.48227">
        <ele>790</ele>
        <time>2026-06-28T04:04:51.000Z</time>
      </trkpt>
      <trkpt lat="42.76397" lon="1.48226">
        <ele>790</ele>
        <time>2026-06-28T04:04:52.000Z</time>
      </trkpt>
      <trkpt lat="42.76398" lon="1.48224">
        <ele>790</ele>
        <time>2026-06-28T04:04:53.000Z</time>
      </trkpt>
      <trkpt lat="42.76399" lon="1.48223">
        <ele>790</ele>
        <time>2026-06-28T04:04:54.000Z</time>
      </trkpt>
      <trkpt lat="42.764" lon="1.48221">
        <ele>789</ele>
        <time>2026-06-28T04:04:55.000Z</time>
      </trkpt>
      <trkpt lat="42.76401" lon="1.48219">
        <ele>790</ele>
        <time>2026-06-28T04:04:56.000Z</time>
      </trkpt>
      <trkpt lat="42.764" lon="1.48216">
        <ele>790</ele>
        <time>2026-06-28T04:04:57.000Z</time>
      </trkpt>
      <trkpt lat="42.76399" lon="1.48214">
        <ele>790</ele>
        <time>2026-06-28T04:04:58.000Z</time>
      </trkpt>
      <trkpt lat="42.76398" lon="1.48211">
        <ele>791</ele>
        <time>2026-06-28T04:04:59.000Z</time>
      </trkpt>
      <trkpt lat="42.76397" lon="1.48209">
        <ele>791</ele>
        <time>2026-06-28T04:05:00.000Z</time>
      </trkpt>
      <trkpt lat="42.76397" lon="1.48207">
        <ele>791</ele>
        <time>2026-06-28T04:05:01.000Z</time>
      </trkpt>
      <trkpt lat="42.76395" lon="1.48205">
        <ele>792</ele>
        <time>2026-06-28T04:05:02.000Z</time>
      </trkpt>
      <trkpt lat="42.76394" lon="1.48203">
        <ele>792</ele>
        <time>2026-06-28T04:05:03.000Z</time>
      </trkpt>
      <trkpt lat="42.76392" lon="1.48199">
        <ele>791</ele>
        <time>2026-06-28T04:05:04.000Z</time>
      </trkpt>
      <trkpt lat="42.76391" lon="1.48195">
        <ele>792</ele>
        <time>2026-06-28T04:05:05.000Z</time>
      </trkpt>
      <trkpt lat="42.76389" lon="1.48191">
        <ele>792</ele>
        <time>2026-06-28T04:05:06.000Z</time>
      </trkpt>
      <trkpt lat="42.76388" lon="1.48186">
        <ele>792</ele>
        <time>2026-06-28T04:05:07.000Z</time>
      </trkpt>
      <trkpt lat="42.76388" lon="1.48182">
        <ele>791</ele>
        <time>2026-06-28T04:05:08.000Z</time>
      </trkpt>
      <trkpt lat="42.76387" lon="1.48179">
        <ele>791</ele>
        <time>2026-06-28T04:05:09.000Z</time>
      </trkpt>
      <trkpt lat="42.76387" lon="1.48176">
        <ele>790</ele>
        <time>2026-06-28T04:05:10.000Z</time>
      </trkpt>
      <trkpt lat="42.76387" lon="1.48172">
        <ele>790</ele>
        <time>2026-06-28T04:05:11.000Z</time>
      </trkpt>
      <trkpt lat="42.76387" lon="1.4817">
        <ele>790</ele>
        <time>2026-06-28T04:05:12.000Z</time>
      </trkpt>
      <trkpt lat="42.76387" lon="1.48167">
        <ele>791</ele>
        <time>2026-06-28T04:05:13.000Z</time>
      </trkpt>
      <trkpt lat="42.76387" lon="1.48164">
        <ele>791</ele>
        <time>2026-06-28T04:05:14.000Z</time>
      </trkpt>
      <trkpt lat="42.76386" lon="1.4816">
        <ele>790</ele>
        <time>2026-06-28T04:05:15.000Z</time>
      </trkpt>
      <trkpt lat="42.76387" lon="1.48158">
        <ele>790</ele>
        <time>2026-06-28T04:05:16.000Z</time>
      </trkpt>
      <trkpt lat="42.76387" lon="1.48154">
        <ele>790</ele>
        <time>2026-06-28T04:05:17.000Z</time>
      </trkpt>
      <trkpt lat="42.76387" lon="1.48151">
        <ele>790</ele>
        <time>2026-06-28T04:05:18.000Z</time>
      </trkpt>
      <trkpt lat="42.76386" lon="1.48148">
        <ele>791</ele>
        <time>2026-06-28T04:05:19.000Z</time>
      </trkpt>
      <trkpt lat="42.76386" lon="1.48145">
        <ele>791</ele>
        <time>2026-06-28T04:05:20.000Z</time>
      </trkpt>
      <trkpt lat="42.76385" lon="1.48142">
        <ele>791</ele>
        <time>2026-06-28T04:05:21.000Z</time>
      </trkpt>
      <trkpt lat="42.76385" lon="1.4814">
        <ele>791</ele>
        <time>2026-06-28T04:05:22.000Z</time>
      </trkpt>
      <trkpt lat="42.76384" lon="1.48138">
        <ele>792</ele>
        <time>2026-06-28T04:05:23.000Z</time>
      </trkpt>
      <trkpt lat="42.76382" lon="1.48135">
        <ele>792</ele>
        <time>2026-06-28T04:05:24.000Z</time>
      </trkpt>
      <trkpt lat="42.7638" lon="1.48133">
        <ele>792</ele>
        <time>2026-06-28T04:05:25.000Z</time>
      </trkpt>
      <trkpt lat="42.76378" lon="1.48132">
        <ele>792</ele>
        <time>2026-06-28T04:05:26.000Z</time>
      </trkpt>
      <trkpt lat="42.76377" lon="1.48131">
        <ele>792</ele>
        <time>2026-06-28T04:05:27.000Z</time>
      </trkpt>
      <trkpt lat="42.76376" lon="1.4813">
        <ele>792</ele>
        <time>2026-06-28T04:05:28.000Z</time>
      </trkpt>
      <trkpt lat="42.76373" lon="1.48129">
        <ele>792</ele>
        <time>2026-06-28T04:05:29.000Z</time>
      </trkpt>
      <trkpt lat="42.76371" lon="1.48128">
        <ele>791</ele>
        <time>2026-06-28T04:05:30.000Z</time>
      </trkpt>
      <trkpt lat="42.7637" lon="1.48128">
        <ele>791</ele>
        <time>2026-06-28T04:05:31.000Z</time>
      </trkpt>
      <trkpt lat="42.76368" lon="1.48127">
        <ele>791</ele>
        <time>2026-06-28T04:05:32.000Z</time>
      </trkpt>
      <trkpt lat="42.76365" lon="1.48126">
        <ele>791</ele>
        <time>2026-06-28T04:05:33.000Z</time>
      </trkpt>
      <trkpt lat="42.76363" lon="1.48125">
        <ele>791</ele>
        <time>2026-06-28T04:05:34.000Z</time>
      </trkpt>
      <trkpt lat="42.76361" lon="1.48125">
        <ele>791</ele>
        <time>2026-06-28T04:05:35.000Z</time>
      </trkpt>
      <trkpt lat="42.7636" lon="1.48123">
        <ele>791</ele>
        <time>2026-06-28T04:05:36.000Z</time>
      </trkpt>
      <trkpt lat="42.76359" lon="1.48122">
        <ele>791</ele>
        <time>2026-06-28T04:05:37.000Z</time>
      </trkpt>
      <trkpt lat="42.76357" lon="1.48121">
        <ele>791</ele>
        <time>2026-06-28T04:05:38.000Z</time>
      </trkpt>
      <trkpt lat="42.76356" lon="1.4812">
        <ele>791</ele>
        <time>2026-06-28T04:05:39.000Z</time>
      </trkpt>
      <trkpt lat="42.76355" lon="1.48119">
        <ele>791</ele>
        <time>2026-06-28T04:05:40.000Z</time>
      </trkpt>
      <trkpt lat="42.76355" lon="1.48117">
        <ele>791</ele>
        <time>2026-06-28T04:05:41.000Z</time>
      </trkpt>
      <trkpt lat="42.76354" lon="1.48116">
        <ele>791</ele>
        <time>2026-06-28T04:05:42.000Z</time>
      </trkpt>
      <trkpt lat="42.76354" lon="1.48113">
        <ele>790</ele>
        <time>2026-06-28T04:05:43.000Z</time>
      </trkpt>
      <trkpt lat="42.76354" lon="1.48111">
        <ele>790</ele>
        <time>2026-06-28T04:05:44.000Z</time>
      </trkpt>
      <trkpt lat="42.76354" lon="1.48109">
        <ele>790</ele>
        <time>2026-06-28T04:05:45.000Z</time>
      </trkpt>
      <trkpt lat="42.76354" lon="1.48107">
        <ele>790</ele>
        <time>2026-06-28T04:05:46.000Z</time>
      </trkpt>
      <trkpt lat="42.76354" lon="1.48104">
        <ele>791</ele>
        <time>2026-06-28T04:05:47.000Z</time>
      </trkpt>
      <trkpt lat="42.76354" lon="1.48101">
        <ele>790</ele>
        <time>2026-06-28T04:05:48.000Z</time>
      </trkpt>
      <trkpt lat="42.76354" lon="1.48099">
        <ele>791</ele>
        <time>2026-06-28T04:05:49.000Z</time>
      </trkpt>
      <trkpt lat="42.76354" lon="1.48097">
        <ele>791</ele>
        <time>2026-06-28T04:05:50.000Z</time>
      </trkpt>
      <trkpt lat="42.76354" lon="1.48095">
        <ele>791</ele>
        <time>2026-06-28T04:05:51.000Z</time>
      </trkpt>
      <trkpt lat="42.76354" lon="1.48093">
        <ele>791</ele>
        <time>2026-06-28T04:05:52.000Z</time>
      </trkpt>
      <trkpt lat="42.76354" lon="1.48092">
        <ele>791</ele>
        <time>2026-06-28T04:05:53.000Z</time>
      </trkpt>
      <trkpt lat="42.76354" lon="1.48089">
        <ele>791</ele>
        <time>2026-06-28T04:05:54.000Z</time>
      </trkpt>
      <trkpt lat="42.76354" lon="1.48086">
        <ele>791</ele>
        <time>2026-06-28T04:05:55.000Z</time>
      </trkpt>
      <trkpt lat="42.76353" lon="1.48084">
        <ele>791</ele>
        <time>2026-06-28T04:05:56.000Z</time>
      </trkpt>
      <trkpt lat="42.76353" lon="1.48082">
        <ele>791</ele>
        <time>2026-06-28T04:05:57.000Z</time>
      </trkpt>
      <trkpt lat="42.76353" lon="1.4808">
        <ele>791</ele>
        <time>2026-06-28T04:05:58.000Z</time>
      </trkpt>
      <trkpt lat="42.76353" lon="1.48078">
        <ele>791</ele>
        <time>2026-06-28T04:05:59.000Z</time>
      </trkpt>
      <trkpt lat="42.76353" lon="1.48076">
        <ele>792</ele>
        <time>2026-06-28T04:06:00.000Z</time>
      </trkpt>
      <trkpt lat="42.76352" lon="1.48074">
        <ele>792</ele>
        <time>2026-06-28T04:06:01.000Z</time>
      </trkpt>
      <trkpt lat="42.76352" lon="1.48072">
        <ele>791</ele>
        <time>2026-06-28T04:06:02.000Z</time>
      </trkpt>
      <trkpt lat="42.76351" lon="1.4807">
        <ele>791</ele>
        <time>2026-06-28T04:06:03.000Z</time>
      </trkpt>
      <trkpt lat="42.76351" lon="1.48069">
        <ele>792</ele>
        <time>2026-06-28T04:06:04.000Z</time>
      </trkpt>
      <trkpt lat="42.76351" lon="1.48068">
        <ele>792</ele>
        <time>2026-06-28T04:06:05.000Z</time>
      </trkpt>
      <trkpt lat="42.76351" lon="1.48067">
        <ele>792</ele>
        <time>2026-06-28T04:06:06.000Z</time>
      </trkpt>
      <trkpt lat="42.76351" lon="1.48066">
        <ele>792</ele>
        <time>2026-06-28T04:06:07.000Z</time>
      </trkpt>
      <trkpt lat="42.76349" lon="1.48065">
        <ele>791</ele>
        <time>2026-06-28T04:06:08.000Z</time>
      </trkpt>
      <trkpt lat="42.76349" lon="1.48064">
        <ele>791</ele>
        <time>2026-06-28T04:06:09.000Z</time>
      </trkpt>
      <trkpt lat="42.76349" lon="1.48063">
        <ele>790</ele>
        <time>2026-06-28T04:06:10.000Z</time>
      </trkpt>
      <trkpt lat="42.76348" lon="1.48062">
        <ele>791</ele>
        <time>2026-06-28T04:06:11.000Z</time>
      </trkpt>
      <trkpt lat="42.76347" lon="1.48062">
        <ele>790</ele>
        <time>2026-06-28T04:06:12.000Z</time>
      </trkpt>
      <trkpt lat="42.76345" lon="1.48061">
        <ele>790</ele>
        <time>2026-06-28T04:06:13.000Z</time>
      </trkpt>
      <trkpt lat="42.76343" lon="1.4806">
        <ele>790</ele>
        <time>2026-06-28T04:06:14.000Z</time>
      </trkpt>
      <trkpt lat="42.76342" lon="1.48059">
        <ele>790</ele>
        <time>2026-06-28T04:06:15.000Z</time>
      </trkpt>
      <trkpt lat="42.7634" lon="1.48059">
        <ele>791</ele>
        <time>2026-06-28T04:06:16.000Z</time>
      </trkpt>
      <trkpt lat="42.76339" lon="1.48058">
        <ele>791</ele>
        <time>2026-06-28T04:06:17.000Z</time>
      </trkpt>
      <trkpt lat="42.76337" lon="1.48057">
        <ele>790</ele>
        <time>2026-06-28T04:06:18.000Z</time>
      </trkpt>
      <trkpt lat="42.76335" lon="1.48057">
        <ele>790</ele>
        <time>2026-06-28T04:06:19.000Z</time>
      </trkpt>
      <trkpt lat="42.76333" lon="1.48057">
        <ele>789</ele>
        <time>2026-06-28T04:06:20.000Z</time>
      </trkpt>
      <trkpt lat="42.7633" lon="1.48057">
        <ele>790</ele>
        <time>2026-06-28T04:06:21.000Z</time>
      </trkpt>
      <trkpt lat="42.76329" lon="1.48058">
        <ele>790</ele>
        <time>2026-06-28T04:06:22.000Z</time>
      </trkpt>
      <trkpt lat="42.76327" lon="1.48059">
        <ele>789</ele>
        <time>2026-06-28T04:06:23.000Z</time>
      </trkpt>
      <trkpt lat="42.76326" lon="1.48059">
        <ele>790</ele>
        <time>2026-06-28T04:06:24.000Z</time>
      </trkpt>
      <trkpt lat="42.76325" lon="1.4806">
        <ele>789</ele>
        <time>2026-06-28T04:06:25.000Z</time>
      </trkpt>
      <trkpt lat="42.76324" lon="1.4806">
        <ele>789</ele>
        <time>2026-06-28T04:06:26.000Z</time>
      </trkpt>
      <trkpt lat="42.76323" lon="1.4806">
        <ele>790</ele>
        <time>2026-06-28T04:06:27.000Z</time>
      </trkpt>
      <trkpt lat="42.76322" lon="1.4806">
        <ele>789</ele>
        <time>2026-06-28T04:06:28.000Z</time>
      </trkpt>
      <trkpt lat="42.76321" lon="1.4806">
        <ele>789</ele>
        <time>2026-06-28T04:06:29.000Z</time>
      </trkpt>
      <trkpt lat="42.7632" lon="1.4806">
        <ele>789</ele>
        <time>2026-06-28T04:06:30.000Z</time>
      </trkpt>
      <trkpt lat="42.76319" lon="1.48061">
        <ele>789</ele>
        <time>2026-06-28T04:06:31.000Z</time>
      </trkpt>
      <trkpt lat="42.76319" lon="1.48061">
        <ele>789</ele>
        <time>2026-06-28T04:06:32.000Z</time>
      </trkpt>
      <trkpt lat="42.76318" lon="1.48061">
        <ele>789</ele>
        <time>2026-06-28T04:06:33.000Z</time>
      </trkpt>
      <trkpt lat="42.76318" lon="1.48056">
        <ele>789</ele>
        <time>2026-06-28T04:06:55.000Z</time>
      </trkpt>
      <trkpt lat="42.76317" lon="1.48057">
        <ele>788</ele>
        <time>2026-06-28T04:06:56.000Z</time>
      </trkpt>
      <trkpt lat="42.76317" lon="1.48056">
        <ele>788</ele>
        <time>2026-06-28T04:06:57.000Z</time>
      </trkpt>
      <trkpt lat="42.76318" lon="1.48056">
        <ele>788</ele>
        <time>2026-06-28T04:06:58.000Z</time>
      </trkpt>
      <trkpt lat="42.76318" lon="1.48056">
        <ele>789</ele>
        <time>2026-06-28T04:06:59.000Z</time>
      </trkpt>
      <trkpt lat="42.76318" lon="1.48055">
        <ele>790</ele>
        <time>2026-06-28T04:07:00.000Z</time>
      </trkpt>
      <trkpt lat="42.76318" lon="1.48055">
        <ele>789</ele>
        <time>2026-06-28T04:07:01.000Z</time>
      </trkpt>
      <trkpt lat="42.76318" lon="1.48055">
        <ele>789</ele>
        <time>2026-06-28T04:07:02.000Z</time>
      </trkpt>
      <trkpt lat="42.76318" lon="1.48055">
        <ele>789</ele>
        <time>2026-06-28T04:07:03.000Z</time>
      </trkpt>
      <trkpt lat="42.76319" lon="1.48055">
        <ele>789</ele>
        <time>2026-06-28T04:07:04.000Z</time>
      </trkpt>
      <trkpt lat="42.76319" lon="1.48055">
        <ele>790</ele>
        <time>2026-06-28T04:07:05.000Z</time>
      </trkpt>
      <trkpt lat="42.76319" lon="1.48055">
        <ele>789</ele>
        <time>2026-06-28T04:07:06.000Z</time>
      </trkpt>
      <trkpt lat="42.76319" lon="1.48053">
        <ele>789</ele>
        <time>2026-06-28T04:07:07.000Z</time>
      </trkpt>
      <trkpt lat="42.76319" lon="1.48052">
        <ele>790</ele>
        <time>2026-06-28T04:07:08.000Z</time>
      </trkpt>
      <trkpt lat="42.76319" lon="1.48051">
        <ele>790</ele>
        <time>2026-06-28T04:07:09.000Z</time>
      </trkpt>
      <trkpt lat="42.76319" lon="1.4805">
        <ele>790</ele>
        <time>2026-06-28T04:07:10.000Z</time>
      </trkpt>
      <trkpt lat="42.76319" lon="1.48049">
        <ele>790</ele>
        <time>2026-06-28T04:07:11.000Z</time>
      </trkpt>
      <trkpt lat="42.76319" lon="1.48048">
        <ele>790</ele>
        <time>2026-06-28T04:07:12.000Z</time>
      </trkpt>
      <trkpt lat="42.76318" lon="1.48047">
        <ele>789</ele>
        <time>2026-06-28T04:07:13.000Z</time>
      </trkpt>
      <trkpt lat="42.76317" lon="1.48046">
        <ele>789</ele>
        <time>2026-06-28T04:07:14.000Z</time>
      </trkpt>
      <trkpt lat="42.76317" lon="1.48045">
        <ele>789</ele>
        <time>2026-06-28T04:07:15.000Z</time>
      </trkpt>
      <trkpt lat="42.76317" lon="1.48043">
        <ele>789</ele>
        <time>2026-06-28T04:07:16.000Z</time>
      </trkpt>
      <trkpt lat="42.76316" lon="1.48042">
        <ele>789</ele>
        <time>2026-06-28T04:07:17.000Z</time>
      </trkpt>
      <trkpt lat="42.76316" lon="1.48041">
        <ele>789</ele>
        <time>2026-06-28T04:07:18.000Z</time>
      </trkpt>
      <trkpt lat="42.76315" lon="1.4804">
        <ele>789</ele>
        <time>2026-06-28T04:07:19.000Z</time>
      </trkpt>
      <trkpt lat="42.76315" lon="1.48039">
        <ele>789</ele>
        <time>2026-06-28T04:07:20.000Z</time>
      </trkpt>
      <trkpt lat="42.76314" lon="1.48038">
        <ele>790</ele>
        <time>2026-06-28T04:07:21.000Z</time>
      </trkpt>
      <trkpt lat="42.76313" lon="1.48037">
        <ele>789</ele>
        <time>2026-06-28T04:07:22.000Z</time>
      </trkpt>
      <trkpt lat="42.76313" lon="1.48036">
        <ele>789</ele>
        <time>2026-06-28T04:07:23.000Z</time>
      </trkpt>
      <trkpt lat="42.76312" lon="1.48035">
        <ele>789</ele>
        <time>2026-06-28T04:07:24.000Z</time>
      </trkpt>
      <trkpt lat="42.76312" lon="1.48035">
        <ele>790</ele>
        <time>2026-06-28T04:07:25.000Z</time>
      </trkpt>
      <trkpt lat="42.76311" lon="1.48034">
        <ele>790</ele>
        <time>2026-06-28T04:07:26.000Z</time>
      </trkpt>
      <trkpt lat="42.7631" lon="1.48033">
        <ele>797</ele>
        <time>2026-06-28T04:10:15.000Z</time>
      </trkpt>
      <trkpt lat="42.76311" lon="1.48033">
        <ele>797</ele>
        <time>2026-06-28T04:10:16.000Z</time>
      </trkpt>
      <trkpt lat="42.76311" lon="1.48032">
        <ele>796</ele>
        <time>2026-06-28T04:10:17.000Z</time>
      </trkpt>
      <trkpt lat="42.76311" lon="1.48031">
        <ele>796</ele>
        <time>2026-06-28T04:10:18.000Z</time>
      </trkpt>
      <trkpt lat="42.76312" lon="1.48032">
        <ele>796</ele>
        <time>2026-06-28T04:10:36.000Z</time>
      </trkpt>
      <trkpt lat="42.76313" lon="1.48033">
        <ele>797</ele>
        <time>2026-06-28T04:10:37.000Z</time>
      </trkpt>
      <trkpt lat="42.76312" lon="1.48031">
        <ele>796</ele>
        <time>2026-06-28T04:10:38.000Z</time>
      </trkpt>
      <trkpt lat="42.76311" lon="1.48035">
        <ele>798</ele>
        <time>2026-06-28T04:11:20.000Z</time>
      </trkpt>
      <trkpt lat="42.76311" lon="1.48035">
        <ele>798</ele>
        <time>2026-06-28T04:11:21.000Z</time>
      </trkpt>
      <trkpt lat="42.76312" lon="1.48035">
        <ele>797</ele>
        <time>2026-06-28T04:11:22.000Z</time>
      </trkpt>
      <trkpt lat="42.76312" lon="1.48036">
        <ele>798</ele>
        <time>2026-06-28T04:11:23.000Z</time>
      </trkpt>
      <trkpt lat="42.76314" lon="1.48035">
        <ele>798</ele>
        <time>2026-06-28T04:11:24.000Z</time>
      </trkpt>
      <trkpt lat="42.76315" lon="1.48035">
        <ele>799</ele>
        <time>2026-06-28T04:11:25.000Z</time>
      </trkpt>
      <trkpt lat="42.76317" lon="1.48034">
        <ele>798</ele>
        <time>2026-06-28T04:11:26.000Z</time>
      </trkpt>
      <trkpt lat="42.76318" lon="1.48035">
        <ele>799</ele>
        <time>2026-06-28T04:11:27.000Z</time>
      </trkpt>
      <trkpt lat="42.76318" lon="1.48036">
        <ele>800</ele>
        <time>2026-06-28T04:11:28.000Z</time>
      </trkpt>
      <trkpt lat="42.76318" lon="1.48035">
        <ele>800</ele>
        <time>2026-06-28T04:11:29.000Z</time>
      </trkpt>
      <trkpt lat="42.76319" lon="1.48034">
        <ele>801</ele>
        <time>2026-06-28T04:11:30.000Z</time>
      </trkpt>
      <trkpt lat="42.7632" lon="1.48034">
        <ele>801</ele>
        <time>2026-06-28T04:11:31.000Z</time>
      </trkpt>
      <trkpt lat="42.76321" lon="1.48034">
        <ele>801</ele>
        <time>2026-06-28T04:11:32.000Z</time>
      </trkpt>
      <trkpt lat="42.76322" lon="1.48034">
        <ele>801</ele>
        <time>2026-06-28T04:11:33.000Z</time>
      </trkpt>
      <trkpt lat="42.76323" lon="1.48035">
        <ele>802</ele>
        <time>2026-06-28T04:11:34.000Z</time>
      </trkpt>
      <trkpt lat="42.76324" lon="1.48035">
        <ele>801</ele>
        <time>2026-06-28T04:11:35.000Z</time>
      </trkpt>
      <trkpt lat="42.76325" lon="1.48035">
        <ele>801</ele>
        <time>2026-06-28T04:11:36.000Z</time>
      </trkpt>
      <trkpt lat="42.76326" lon="1.48035">
        <ele>801</ele>
        <time>2026-06-28T04:11:37.000Z</time>
      </trkpt>
      <trkpt lat="42.76327" lon="1.48034">
        <ele>801</ele>
        <time>2026-06-28T04:11:38.000Z</time>
      </trkpt>
      <trkpt lat="42.76327" lon="1.48035">
        <ele>800</ele>
        <time>2026-06-28T04:11:39.000Z</time>
      </trkpt>
      <trkpt lat="42.76328" lon="1.48035">
        <ele>800</ele>
        <time>2026-06-28T04:11:40.000Z</time>
      </trkpt>
      <trkpt lat="42.76329" lon="1.48035">
        <ele>801</ele>
        <time>2026-06-28T04:11:41.000Z</time>
      </trkpt>
      <trkpt lat="42.7633" lon="1.48036">
        <ele>801</ele>
        <time>2026-06-28T04:11:42.000Z</time>
      </trkpt>
      <trkpt lat="42.76331" lon="1.48036">
        <ele>801</ele>
        <time>2026-06-28T04:11:43.000Z</time>
      </trkpt>
      <trkpt lat="42.76332" lon="1.48036">
        <ele>801</ele>
        <time>2026-06-28T04:11:44.000Z</time>
      </trkpt>
      <trkpt lat="42.76332" lon="1.48036">
        <ele>801</ele>
        <time>2026-06-28T04:11:45.000Z</time>
      </trkpt>
      <trkpt lat="42.76333" lon="1.48036">
        <ele>801</ele>
        <time>2026-06-28T04:11:46.000Z</time>
      </trkpt>
      <trkpt lat="42.76334" lon="1.48036">
        <ele>800</ele>
        <time>2026-06-28T04:11:47.000Z</time>
      </trkpt>
      <trkpt lat="42.76334" lon="1.48036">
        <ele>800</ele>
        <time>2026-06-28T04:11:48.000Z</time>
      </trkpt>
      <trkpt lat="42.76335" lon="1.48035">
        <ele>801</ele>
        <time>2026-06-28T04:11:49.000Z</time>
      </trkpt>
      <trkpt lat="42.76335" lon="1.48034">
        <ele>800</ele>
        <time>2026-06-28T04:11:50.000Z</time>
      </trkpt>
      <trkpt lat="42.76336" lon="1.48034">
        <ele>800</ele>
        <time>2026-06-28T04:11:51.000Z</time>
      </trkpt>
      <trkpt lat="42.76336" lon="1.48034">
        <ele>800</ele>
        <time>2026-06-28T04:11:52.000Z</time>
      </trkpt>
      <trkpt lat="42.76336" lon="1.48034">
        <ele>800</ele>
        <time>2026-06-28T04:11:53.000Z</time>
      </trkpt>
      <trkpt lat="42.76335" lon="1.48035">
        <ele>798</ele>
        <time>2026-06-28T04:13:53.000Z</time>
      </trkpt>
      <trkpt lat="42.76335" lon="1.48034">
        <ele>798</ele>
        <time>2026-06-28T04:13:54.000Z</time>
      </trkpt>
      <trkpt lat="42.76335" lon="1.48034">
        <ele>797</ele>
        <time>2026-06-28T04:13:55.000Z</time>
      </trkpt>
      <trkpt lat="42.76337" lon="1.48035">
        <ele>796</ele>
        <time>2026-06-28T04:14:48.000Z</time>
      </trkpt>
      <trkpt lat="42.76337" lon="1.48036">
        <ele>795</ele>
        <time>2026-06-28T04:14:49.000Z</time>
      </trkpt>
      <trkpt lat="42.76337" lon="1.48036">
        <ele>796</ele>
        <time>2026-06-28T04:14:50.000Z</time>
      </trkpt>
      <trkpt lat="42.76337" lon="1.48035">
        <ele>796</ele>
        <time>2026-06-28T04:14:51.000Z</time>
      </trkpt>
      <trkpt lat="42.76337" lon="1.48037">
        <ele>795</ele>
        <time>2026-06-28T04:22:12.000Z</time>
      </trkpt>
      <trkpt lat="42.76338" lon="1.48037">
        <ele>795</ele>
        <time>2026-06-28T04:22:13.000Z</time>
      </trkpt>
      <trkpt lat="42.76338" lon="1.48036">
        <ele>796</ele>
        <time>2026-06-28T04:22:14.000Z</time>
      </trkpt>
      <trkpt lat="42.7634" lon="1.48036">
        <ele>796</ele>
        <time>2026-06-28T04:22:15.000Z</time>
      </trkpt>
      <trkpt lat="42.7634" lon="1.48036">
        <ele>796</ele>
        <time>2026-06-28T04:22:16.000Z</time>
      </trkpt>
      <trkpt lat="42.76341" lon="1.48036">
        <ele>796</ele>
        <time>2026-06-28T04:22:17.000Z</time>
      </trkpt>
      <trkpt lat="42.76341" lon="1.48036">
        <ele>797</ele>
        <time>2026-06-28T04:22:18.000Z</time>
      </trkpt>
      <trkpt lat="42.76341" lon="1.48036">
        <ele>797</ele>
        <time>2026-06-28T04:22:19.000Z</time>
      </trkpt>
      <trkpt lat="42.76342" lon="1.48036">
        <ele>798</ele>
        <time>2026-06-28T04:22:20.000Z</time>
      </trkpt>
      <trkpt lat="42.76343" lon="1.48036">
        <ele>798</ele>
        <time>2026-06-28T04:22:21.000Z</time>
      </trkpt>
      <trkpt lat="42.76344" lon="1.48036">
        <ele>799</ele>
        <time>2026-06-28T04:22:22.000Z</time>
      </trkpt>
      <trkpt lat="42.76345" lon="1.48038">
        <ele>800</ele>
        <time>2026-06-28T04:22:23.000Z</time>
      </trkpt>
      <trkpt lat="42.76345" lon="1.48039">
        <ele>800</ele>
        <time>2026-06-28T04:22:24.000Z</time>
      </trkpt>
      <trkpt lat="42.76345" lon="1.48042">
        <ele>801</ele>
        <time>2026-06-28T04:22:25.000Z</time>
      </trkpt>
      <trkpt lat="42.76346" lon="1.48044">
        <ele>801</ele>
        <time>2026-06-28T04:22:26.000Z</time>
      </trkpt>
      <trkpt lat="42.76346" lon="1.48047">
        <ele>801</ele>
        <time>2026-06-28T04:22:27.000Z</time>
      </trkpt>
      <trkpt lat="42.76346" lon="1.4805">
        <ele>801</ele>
        <time>2026-06-28T04:22:28.000Z</time>
      </trkpt>
      <trkpt lat="42.76346" lon="1.48054">
        <ele>801</ele>
        <time>2026-06-28T04:22:29.000Z</time>
      </trkpt>
      <trkpt lat="42.76346" lon="1.48057">
        <ele>801</ele>
        <time>2026-06-28T04:22:30.000Z</time>
      </trkpt>
      <trkpt lat="42.76346" lon="1.48061">
        <ele>801</ele>
        <time>2026-06-28T04:22:31.000Z</time>
      </trkpt>
      <trkpt lat="42.76346" lon="1.48065">
        <ele>802</ele>
        <time>2026-06-28T04:22:32.000Z</time>
      </trkpt>
      <trkpt lat="42.76347" lon="1.48069">
        <ele>802</ele>
        <time>2026-06-28T04:22:33.000Z</time>
      </trkpt>
      <trkpt lat="42.76347" lon="1.48073">
        <ele>801</ele>
        <time>2026-06-28T04:22:34.000Z</time>
      </trkpt>
      <trkpt lat="42.76346" lon="1.48078">
        <ele>801</ele>
        <time>2026-06-28T04:22:35.000Z</time>
      </trkpt>
      <trkpt lat="42.76347" lon="1.48082">
        <ele>801</ele>
        <time>2026-06-28T04:22:36.000Z</time>
      </trkpt>
      <trkpt lat="42.76347" lon="1.48087">
        <ele>801</ele>
        <time>2026-06-28T04:22:37.000Z</time>
      </trkpt>
      <trkpt lat="42.76347" lon="1.48091">
        <ele>800</ele>
        <time>2026-06-28T04:22:38.000Z</time>
      </trkpt>
      <trkpt lat="42.76347" lon="1.48096">
        <ele>800</ele>
        <time>2026-06-28T04:22:39.000Z</time>
      </trkpt>
      <trkpt lat="42.76347" lon="1.481">
        <ele>800</ele>
        <time>2026-06-28T04:22:40.000Z</time>
      </trkpt>
      <trkpt lat="42.76347" lon="1.48104">
        <ele>800</ele>
        <time>2026-06-28T04:22:41.000Z</time>
      </trkpt>
      <trkpt lat="42.76348" lon="1.48109">
        <ele>801</ele>
        <time>2026-06-28T04:22:42.000Z</time>
      </trkpt>
      <trkpt lat="42.76349" lon="1.48114">
        <ele>801</ele>
        <time>2026-06-28T04:22:43.000Z</time>
      </trkpt>
      <trkpt lat="42.76351" lon="1.48118">
        <ele>800</ele>
        <time>2026-06-28T04:22:44.000Z</time>
      </trkpt>
      <trkpt lat="42.76354" lon="1.48121">
        <ele>801</ele>
        <time>2026-06-28T04:22:45.000Z</time>
      </trkpt>
      <trkpt lat="42.76359" lon="1.48124">
        <ele>800</ele>
        <time>2026-06-28T04:22:46.000Z</time>
      </trkpt>
      <trkpt lat="42.76363" lon="1.48126">
        <ele>800</ele>
        <time>2026-06-28T04:22:47.000Z</time>
      </trkpt>
      <trkpt lat="42.76367" lon="1.48127">
        <ele>799</ele>
        <time>2026-06-28T04:22:48.000Z</time>
      </trkpt>
      <trkpt lat="42.76372" lon="1.48129">
        <ele>799</ele>
        <time>2026-06-28T04:22:49.000Z</time>
      </trkpt>
      <trkpt lat="42.76376" lon="1.48133">
        <ele>799</ele>
        <time>2026-06-28T04:22:50.000Z</time>
      </trkpt>
      <trkpt lat="42.76379" lon="1.48138">
        <ele>799</ele>
        <time>2026-06-28T04:22:51.000Z</time>
      </trkpt>
      <trkpt lat="42.76382" lon="1.48142">
        <ele>799</ele>
        <time>2026-06-28T04:22:52.000Z</time>
      </trkpt>
      <trkpt lat="42.76383" lon="1.4815">
        <ele>799</ele>
        <time>2026-06-28T04:22:53.000Z</time>
      </trkpt>
      <trkpt lat="42.76384" lon="1.48158">
        <ele>799</ele>
        <time>2026-06-28T04:22:54.000Z</time>
      </trkpt>
      <trkpt lat="42.76383" lon="1.48167">
        <ele>798</ele>
        <time>2026-06-28T04:22:55.000Z</time>
      </trkpt>
      <trkpt lat="42.76384" lon="1.48175">
        <ele>798</ele>
        <time>2026-06-28T04:22:56.000Z</time>
      </trkpt>
      <trkpt lat="42.76384" lon="1.48183">
        <ele>798</ele>
        <time>2026-06-28T04:22:57.000Z</time>
      </trkpt>
      <trkpt lat="42.76386" lon="1.48191">
        <ele>798</ele>
        <time>2026-06-28T04:22:58.000Z</time>
      </trkpt>
      <trkpt lat="42.76389" lon="1.48198">
        <ele>798</ele>
        <time>2026-06-28T04:22:59.000Z</time>
      </trkpt>
      <trkpt lat="42.76392" lon="1.48206">
        <ele>798</ele>
        <time>2026-06-28T04:23:00.000Z</time>
      </trkpt>
      <trkpt lat="42.76396" lon="1.48211">
        <ele>797</ele>
        <time>2026-06-28T04:23:01.000Z</time>
      </trkpt>
      <trkpt lat="42.76399" lon="1.48216">
        <ele>797</ele>
        <time>2026-06-28T04:23:02.000Z</time>
      </trkpt>
      <trkpt lat="42.76401" lon="1.4822">
        <ele>797</ele>
        <time>2026-06-28T04:23:03.000Z</time>
      </trkpt>
      <trkpt lat="42.76402" lon="1.48224">
        <ele>796</ele>
        <time>2026-06-28T04:23:04.000Z</time>
      </trkpt>
      <trkpt lat="42.76403" lon="1.48228">
        <ele>796</ele>
        <time>2026-06-28T04:23:05.000Z</time>
      </trkpt>
      <trkpt lat="42.76403" lon="1.48231">
        <ele>796</ele>
        <time>2026-06-28T04:23:06.000Z</time>
      </trkpt>
      <trkpt lat="42.76403" lon="1.48235">
        <ele>796</ele>
        <time>2026-06-28T04:23:07.000Z</time>
      </trkpt>
      <trkpt lat="42.76404" lon="1.48238">
        <ele>796</ele>
        <time>2026-06-28T04:23:08.000Z</time>
      </trkpt>
      <trkpt lat="42.76405" lon="1.48242">
        <ele>796</ele>
        <time>2026-06-28T04:23:09.000Z</time>
      </trkpt>
      <trkpt lat="42.76406" lon="1.48245">
        <ele>796</ele>
        <time>2026-06-28T04:23:10.000Z</time>
      </trkpt>
      <trkpt lat="42.76407" lon="1.48248">
        <ele>796</ele>
        <time>2026-06-28T04:23:11.000Z</time>
      </trkpt>
      <trkpt lat="42.76408" lon="1.48252">
        <ele>796</ele>
        <time>2026-06-28T04:23:12.000Z</time>
      </trkpt>
      <trkpt lat="42.76409" lon="1.48256">
        <ele>795</ele>
        <time>2026-06-28T04:23:13.000Z</time>
      </trkpt>
      <trkpt lat="42.76411" lon="1.4826">
        <ele>795</ele>
        <time>2026-06-28T04:23:14.000Z</time>
      </trkpt>
      <trkpt lat="42.76413" lon="1.48264">
        <ele>795</ele>
        <time>2026-06-28T04:23:15.000Z</time>
      </trkpt>
      <trkpt lat="42.76414" lon="1.48269">
        <ele>795</ele>
        <time>2026-06-28T04:23:16.000Z</time>
      </trkpt>
      <trkpt lat="42.76416" lon="1.48273">
        <ele>795</ele>
        <time>2026-06-28T04:23:17.000Z</time>
      </trkpt>
      <trkpt lat="42.76418" lon="1.48278">
        <ele>795</ele>
        <time>2026-06-28T04:23:18.000Z</time>
      </trkpt>
      <trkpt lat="42.7642" lon="1.48284">
        <ele>795</ele>
        <time>2026-06-28T04:23:19.000Z</time>
      </trkpt>
      <trkpt lat="42.76421" lon="1.48288">
        <ele>795</ele>
        <time>2026-06-28T04:23:20.000Z</time>
      </trkpt>
      <trkpt lat="42.76423" lon="1.48292">
        <ele>795</ele>
        <time>2026-06-28T04:23:21.000Z</time>
      </trkpt>
      <trkpt lat="42.76425" lon="1.48297">
        <ele>796</ele>
        <time>2026-06-28T04:23:22.000Z</time>
      </trkpt>
      <trkpt lat="42.76426" lon="1.48302">
        <ele>796</ele>
        <time>2026-06-28T04:23:23.000Z</time>
      </trkpt>
      <trkpt lat="42.76427" lon="1.48306">
        <ele>796</ele>
        <time>2026-06-28T04:23:24.000Z</time>
      </trkpt>
      <trkpt lat="42.76428" lon="1.48311">
        <ele>796</ele>
        <time>2026-06-28T04:23:25.000Z</time>
      </trkpt>
      <trkpt lat="42.7643" lon="1.48315">
        <ele>796</ele>
        <time>2026-06-28T04:23:26.000Z</time>
      </trkpt>
      <trkpt lat="42.76431" lon="1.4832">
        <ele>796</ele>
        <time>2026-06-28T04:23:27.000Z</time>
      </trkpt>
      <trkpt lat="42.76432" lon="1.48324">
        <ele>796</ele>
        <time>2026-06-28T04:23:28.000Z</time>
      </trkpt>
      <trkpt lat="42.76433" lon="1.48329">
        <ele>796</ele>
        <time>2026-06-28T04:23:29.000Z</time>
      </trkpt>
      <trkpt lat="42.76435" lon="1.48334">
        <ele>796</ele>
        <time>2026-06-28T04:23:30.000Z</time>
      </trkpt>
      <trkpt lat="42.76436" lon="1.48339">
        <ele>795</ele>
        <time>2026-06-28T04:23:31.000Z</time>
      </trkpt>
      <trkpt lat="42.76437" lon="1.48345">
        <ele>795</ele>
        <time>2026-06-28T04:23:32.000Z</time>
      </trkpt>
      <trkpt lat="42.76439" lon="1.4835">
        <ele>794</ele>
        <time>2026-06-28T04:23:33.000Z</time>
      </trkpt>
      <trkpt lat="42.7644" lon="1.48353">
        <ele>794</ele>
        <time>2026-06-28T04:23:34.000Z</time>
      </trkpt>
      <trkpt lat="42.76441" lon="1.48354">
        <ele>794</ele>
        <time>2026-06-28T04:23:35.000Z</time>
      </trkpt>
      <trkpt lat="42.76443" lon="1.48356">
        <ele>794</ele>
        <time>2026-06-28T04:23:36.000Z</time>
      </trkpt>
      <trkpt lat="42.76443" lon="1.48358">
        <ele>794</ele>
        <time>2026-06-28T04:23:37.000Z</time>
      </trkpt>
      <trkpt lat="42.76444" lon="1.48361">
        <ele>795</ele>
        <time>2026-06-28T04:23:38.000Z</time>
      </trkpt>
      <trkpt lat="42.76445" lon="1.48364">
        <ele>795</ele>
        <time>2026-06-28T04:23:39.000Z</time>
      </trkpt>
      <trkpt lat="42.76446" lon="1.48366">
        <ele>795</ele>
        <time>2026-06-28T04:23:40.000Z</time>
      </trkpt>
      <trkpt lat="42.76447" lon="1.48368">
        <ele>795</ele>
        <time>2026-06-28T04:23:41.000Z</time>
      </trkpt>
      <trkpt lat="42.76448" lon="1.48369">
        <ele>795</ele>
        <time>2026-06-28T04:23:42.000Z</time>
      </trkpt>
      <trkpt lat="42.76449" lon="1.48371">
        <ele>795</ele>
        <time>2026-06-28T04:23:43.000Z</time>
      </trkpt>
      <trkpt lat="42.76451" lon="1.48373">
        <ele>796</ele>
        <time>2026-06-28T04:23:44.000Z</time>
      </trkpt>
      <trkpt lat="42.76452" lon="1.48376">
        <ele>796</ele>
        <time>2026-06-28T04:23:45.000Z</time>
      </trkpt>
      <trkpt lat="42.76453" lon="1.48378">
        <ele>796</ele>
        <time>2026-06-28T04:23:46.000Z</time>
      </trkpt>
      <trkpt lat="42.76454" lon="1.48379">
        <ele>796</ele>
        <time>2026-06-28T04:23:47.000Z</time>
      </trkpt>
      <trkpt lat="42.76454" lon="1.48381">
        <ele>795</ele>
        <time>2026-06-28T04:23:48.000Z</time>
      </trkpt>
      <trkpt lat="42.76454" lon="1.48383">
        <ele>796</ele>
        <time>2026-06-28T04:23:49.000Z</time>
      </trkpt>
      <trkpt lat="42.76455" lon="1.48385">
        <ele>796</ele>
        <time>2026-06-28T04:23:50.000Z</time>
      </trkpt>
      <trkpt lat="42.76456" lon="1.48386">
        <ele>796</ele>
        <time>2026-06-28T04:23:51.000Z</time>
      </trkpt>
      <trkpt lat="42.76457" lon="1.48388">
        <ele>797</ele>
        <time>2026-06-28T04:23:52.000Z</time>
      </trkpt>
      <trkpt lat="42.76457" lon="1.48391">
        <ele>797</ele>
        <time>2026-06-28T04:23:53.000Z</time>
      </trkpt>
      <trkpt lat="42.76459" lon="1.48396">
        <ele>796</ele>
        <time>2026-06-28T04:23:54.000Z</time>
      </trkpt>
      <trkpt lat="42.7646" lon="1.48403">
        <ele>795</ele>
        <time>2026-06-28T04:23:55.000Z</time>
      </trkpt>
      <trkpt lat="42.76463" lon="1.48409">
        <ele>794</ele>
        <time>2026-06-28T04:23:56.000Z</time>
      </trkpt>
      <trkpt lat="42.76465" lon="1.48415">
        <ele>794</ele>
        <time>2026-06-28T04:23:57.000Z</time>
      </trkpt>
      <trkpt lat="42.76467" lon="1.48418">
        <ele>794</ele>
        <time>2026-06-28T04:23:58.000Z</time>
      </trkpt>
      <trkpt lat="42.76468" lon="1.48421">
        <ele>793</ele>
        <time>2026-06-28T04:23:59.000Z</time>
      </trkpt>
      <trkpt lat="42.76469" lon="1.48425">
        <ele>793</ele>
        <time>2026-06-28T04:24:00.000Z</time>
      </trkpt>
      <trkpt lat="42.76471" lon="1.48428">
        <ele>793</ele>
        <time>2026-06-28T04:24:01.000Z</time>
      </trkpt>
      <trkpt lat="42.76473" lon="1.48431">
        <ele>793</ele>
        <time>2026-06-28T04:24:02.000Z</time>
      </trkpt>
      <trkpt lat="42.76474" lon="1.48436">
        <ele>792</ele>
        <time>2026-06-28T04:24:03.000Z</time>
      </trkpt>
      <trkpt lat="42.76476" lon="1.48439">
        <ele>793</ele>
        <time>2026-06-28T04:24:04.000Z</time>
      </trkpt>
      <trkpt lat="42.76478" lon="1.48442">
        <ele>793</ele>
        <time>2026-06-28T04:24:05.000Z</time>
      </trkpt>
      <trkpt lat="42.76479" lon="1.48445">
        <ele>792</ele>
        <time>2026-06-28T04:24:06.000Z</time>
      </trkpt>
      <trkpt lat="42.76481" lon="1.48449">
        <ele>792</ele>
        <time>2026-06-28T04:24:07.000Z</time>
      </trkpt>
      <trkpt lat="42.76482" lon="1.48452">
        <ele>792</ele>
        <time>2026-06-28T04:24:08.000Z</time>
      </trkpt>
      <trkpt lat="42.76483" lon="1.48455">
        <ele>792</ele>
        <time>2026-06-28T04:24:09.000Z</time>
      </trkpt>
      <trkpt lat="42.76485" lon="1.48459">
        <ele>792</ele>
        <time>2026-06-28T04:24:10.000Z</time>
      </trkpt>
      <trkpt lat="42.76487" lon="1.48463">
        <ele>791</ele>
        <time>2026-06-28T04:24:11.000Z</time>
      </trkpt>
      <trkpt lat="42.76489" lon="1.48467">
        <ele>791</ele>
        <time>2026-06-28T04:24:12.000Z</time>
      </trkpt>
      <trkpt lat="42.76492" lon="1.48471">
        <ele>791</ele>
        <time>2026-06-28T04:24:13.000Z</time>
      </trkpt>
      <trkpt lat="42.76494" lon="1.48475">
        <ele>791</ele>
        <time>2026-06-28T04:24:14.000Z</time>
      </trkpt>
      <trkpt lat="42.76496" lon="1.48479">
        <ele>791</ele>
        <time>2026-06-28T04:24:15.000Z</time>
      </trkpt>
      <trkpt lat="42.76498" lon="1.48484">
        <ele>790</ele>
        <time>2026-06-28T04:24:16.000Z</time>
      </trkpt>
      <trkpt lat="42.76501" lon="1.48488">
        <ele>789</ele>
        <time>2026-06-28T04:24:17.000Z</time>
      </trkpt>
      <trkpt lat="42.76504" lon="1.48491">
        <ele>789</ele>
        <time>2026-06-28T04:24:18.000Z</time>
      </trkpt>
      <trkpt lat="42.76507" lon="1.48495">
        <ele>789</ele>
        <time>2026-06-28T04:24:19.000Z</time>
      </trkpt>
      <trkpt lat="42.7651" lon="1.48499">
        <ele>789</ele>
        <time>2026-06-28T04:24:20.000Z</time>
      </trkpt>
      <trkpt lat="42.76513" lon="1.48503">
        <ele>789</ele>
        <time>2026-06-28T04:24:21.000Z</time>
      </trkpt>
      <trkpt lat="42.76516" lon="1.48505">
        <ele>788</ele>
        <time>2026-06-28T04:24:22.000Z</time>
      </trkpt>
      <trkpt lat="42.7652" lon="1.48508">
        <ele>788</ele>
        <time>2026-06-28T04:24:23.000Z</time>
      </trkpt>
      <trkpt lat="42.76523" lon="1.48511">
        <ele>788</ele>
        <time>2026-06-28T04:24:24.000Z</time>
      </trkpt>
      <trkpt lat="42.76528" lon="1.48512">
        <ele>788</ele>
        <time>2026-06-28T04:24:25.000Z</time>
      </trkpt>
      <trkpt lat="42.76531" lon="1.48512">
        <ele>788</ele>
        <time>2026-06-28T04:24:26.000Z</time>
      </trkpt>
      <trkpt lat="42.76535" lon="1.48513">
        <ele>788</ele>
        <time>2026-06-28T04:24:27.000Z</time>
      </trkpt>
      <trkpt lat="42.76539" lon="1.48513">
        <ele>789</ele>
        <time>2026-06-28T04:24:28.000Z</time>
      </trkpt>
      <trkpt lat="42.76542" lon="1.48511">
        <ele>789</ele>
        <time>2026-06-28T04:24:29.000Z</time>
      </trkpt>
      <trkpt lat="42.76547" lon="1.48509">
        <ele>789</ele>
        <time>2026-06-28T04:24:30.000Z</time>
      </trkpt>
      <trkpt lat="42.7655" lon="1.48508">
        <ele>789</ele>
        <time>2026-06-28T04:24:31.000Z</time>
      </trkpt>
      <trkpt lat="42.76554" lon="1.48506">
        <ele>789</ele>
        <time>2026-06-28T04:24:32.000Z</time>
      </trkpt>
      <trkpt lat="42.76558" lon="1.48505">
        <ele>789</ele>
        <time>2026-06-28T04:24:33.000Z</time>
      </trkpt>
      <trkpt lat="42.76563" lon="1.48505">
        <ele>789</ele>
        <time>2026-06-28T04:24:34.000Z</time>
      </trkpt>
      <trkpt lat="42.76568" lon="1.48505">
        <ele>788</ele>
        <time>2026-06-28T04:24:35.000Z</time>
      </trkpt>
      <trkpt lat="42.76572" lon="1.48506">
        <ele>788</ele>
        <time>2026-06-28T04:24:36.000Z</time>
      </trkpt>
      <trkpt lat="42.76576" lon="1.48507">
        <ele>788</ele>
        <time>2026-06-28T04:24:37.000Z</time>
      </trkpt>
      <trkpt lat="42.76581" lon="1.48509">
        <ele>788</ele>
        <time>2026-06-28T04:24:38.000Z</time>
      </trkpt>
      <trkpt lat="42.76585" lon="1.48511">
        <ele>788</ele>
        <time>2026-06-28T04:24:39.000Z</time>
      </trkpt>
      <trkpt lat="42.76587" lon="1.48513">
        <ele>788</ele>
        <time>2026-06-28T04:24:40.000Z</time>
      </trkpt>
      <trkpt lat="42.76591" lon="1.48515">
        <ele>787</ele>
        <time>2026-06-28T04:24:41.000Z</time>
      </trkpt>
      <trkpt lat="42.76594" lon="1.48516">
        <ele>787</ele>
        <time>2026-06-28T04:24:42.000Z</time>
      </trkpt>
      <trkpt lat="42.76597" lon="1.48517">
        <ele>787</ele>
        <time>2026-06-28T04:24:43.000Z</time>
      </trkpt>
      <trkpt lat="42.76599" lon="1.48516">
        <ele>788</ele>
        <time>2026-06-28T04:24:44.000Z</time>
      </trkpt>
      <trkpt lat="42.76602" lon="1.48515">
        <ele>788</ele>
        <time>2026-06-28T04:24:45.000Z</time>
      </trkpt>
      <trkpt lat="42.76603" lon="1.48513">
        <ele>788</ele>
        <time>2026-06-28T04:24:46.000Z</time>
      </trkpt>
      <trkpt lat="42.76604" lon="1.48511">
        <ele>788</ele>
        <time>2026-06-28T04:24:47.000Z</time>
      </trkpt>
      <trkpt lat="42.76605" lon="1.48508">
        <ele>788</ele>
        <time>2026-06-28T04:24:48.000Z</time>
      </trkpt>
      <trkpt lat="42.76605" lon="1.48504">
        <ele>788</ele>
        <time>2026-06-28T04:24:49.000Z</time>
      </trkpt>
      <trkpt lat="42.76605" lon="1.48501">
        <ele>788</ele>
        <time>2026-06-28T04:24:50.000Z</time>
      </trkpt>
      <trkpt lat="42.76605" lon="1.48498">
        <ele>788</ele>
        <time>2026-06-28T04:24:51.000Z</time>
      </trkpt>
      <trkpt lat="42.76605" lon="1.48493">
        <ele>788</ele>
        <time>2026-06-28T04:24:52.000Z</time>
      </trkpt>
      <trkpt lat="42.76605" lon="1.48489">
        <ele>788</ele>
        <time>2026-06-28T04:24:53.000Z</time>
      </trkpt>
      <trkpt lat="42.76605" lon="1.48485">
        <ele>788</ele>
        <time>2026-06-28T04:24:54.000Z</time>
      </trkpt>
      <trkpt lat="42.76604" lon="1.48482">
        <ele>788</ele>
        <time>2026-06-28T04:24:55.000Z</time>
      </trkpt>
      <trkpt lat="42.76604" lon="1.48478">
        <ele>788</ele>
        <time>2026-06-28T04:24:56.000Z</time>
      </trkpt>
      <trkpt lat="42.76605" lon="1.48475">
        <ele>788</ele>
        <time>2026-06-28T04:24:57.000Z</time>
      </trkpt>
      <trkpt lat="42.76605" lon="1.48472">
        <ele>788</ele>
        <time>2026-06-28T04:24:58.000Z</time>
      </trkpt>
      <trkpt lat="42.76605" lon="1.48469">
        <ele>788</ele>
        <time>2026-06-28T04:24:59.000Z</time>
      </trkpt>
      <trkpt lat="42.76604" lon="1.48464">
        <ele>788</ele>
        <time>2026-06-28T04:25:00.000Z</time>
      </trkpt>
      <trkpt lat="42.76604" lon="1.48459">
        <ele>788</ele>
        <time>2026-06-28T04:25:01.000Z</time>
      </trkpt>
      <trkpt lat="42.76605" lon="1.48455">
        <ele>787</ele>
        <time>2026-06-28T04:25:02.000Z</time>
      </trkpt>
      <trkpt lat="42.76607" lon="1.4845">
        <ele>787</ele>
        <time>2026-06-28T04:25:03.000Z</time>
      </trkpt>
      <trkpt lat="42.76608" lon="1.48445">
        <ele>787</ele>
        <time>2026-06-28T04:25:04.000Z</time>
      </trkpt>
      <trkpt lat="42.76608" lon="1.48441">
        <ele>787</ele>
        <time>2026-06-28T04:25:05.000Z</time>
      </trkpt>
      <trkpt lat="42.76608" lon="1.48437">
        <ele>787</ele>
        <time>2026-06-28T04:25:06.000Z</time>
      </trkpt>
      <trkpt lat="42.76608" lon="1.48433">
        <ele>787</ele>
        <time>2026-06-28T04:25:07.000Z</time>
      </trkpt>
      <trkpt lat="42.76608" lon="1.48428">
        <ele>788</ele>
        <time>2026-06-28T04:25:08.000Z</time>
      </trkpt>
      <trkpt lat="42.76608" lon="1.48423">
        <ele>788</ele>
        <time>2026-06-28T04:25:09.000Z</time>
      </trkpt>
      <trkpt lat="42.76609" lon="1.48418">
        <ele>788</ele>
        <time>2026-06-28T04:25:10.000Z</time>
      </trkpt>
      <trkpt lat="42.7661" lon="1.48414">
        <ele>788</ele>
        <time>2026-06-28T04:25:11.000Z</time>
      </trkpt>
      <trkpt lat="42.76611" lon="1.4841">
        <ele>788</ele>
        <time>2026-06-28T04:25:12.000Z</time>
      </trkpt>
      <trkpt lat="42.76612" lon="1.48407">
        <ele>788</ele>
        <time>2026-06-28T04:25:13.000Z</time>
      </trkpt>
      <trkpt lat="42.76614" lon="1.48404">
        <ele>789</ele>
        <time>2026-06-28T04:25:14.000Z</time>
      </trkpt>
      <trkpt lat="42.76617" lon="1.48402">
        <ele>789</ele>
        <time>2026-06-28T04:25:15.000Z</time>
      </trkpt>
      <trkpt lat="42.7662" lon="1.48401">
        <ele>790</ele>
        <time>2026-06-28T04:25:16.000Z</time>
      </trkpt>
      <trkpt lat="42.76622" lon="1.48401">
        <ele>790</ele>
        <time>2026-06-28T04:25:17.000Z</time>
      </trkpt>
      <trkpt lat="42.76626" lon="1.48401">
        <ele>790</ele>
        <time>2026-06-28T04:25:18.000Z</time>
      </trkpt>
      <trkpt lat="42.76629" lon="1.48402">
        <ele>791</ele>
        <time>2026-06-28T04:25:19.000Z</time>
      </trkpt>
      <trkpt lat="42.76632" lon="1.48403">
        <ele>792</ele>
        <time>2026-06-28T04:25:20.000Z</time>
      </trkpt>
      <trkpt lat="42.76633" lon="1.48405">
        <ele>795</ele>
        <time>2026-06-28T04:25:21.000Z</time>
      </trkpt>
      <trkpt lat="42.76633" lon="1.4841">
        <ele>797</ele>
        <time>2026-06-28T04:25:22.000Z</time>
      </trkpt>
      <trkpt lat="42.76632" lon="1.48417">
        <ele>797</ele>
        <time>2026-06-28T04:25:23.000Z</time>
      </trkpt>
      <trkpt lat="42.76633" lon="1.48424">
        <ele>795</ele>
        <time>2026-06-28T04:25:24.000Z</time>
      </trkpt>
      <trkpt lat="42.76633" lon="1.48429">
        <ele>793</ele>
        <time>2026-06-28T04:25:25.000Z</time>
      </trkpt>
      <trkpt lat="42.76634" lon="1.48435">
        <ele>792</ele>
        <time>2026-06-28T04:25:26.000Z</time>
      </trkpt>
      <trkpt lat="42.76634" lon="1.48441">
        <ele>792</ele>
        <time>2026-06-28T04:25:27.000Z</time>
      </trkpt>
      <trkpt lat="42.76633" lon="1.48447">
        <ele>791</ele>
        <time>2026-06-28T04:25:28.000Z</time>
      </trkpt>
      <trkpt lat="42.76633" lon="1.48453">
        <ele>791</ele>
        <time>2026-06-28T04:25:29.000Z</time>
      </trkpt>
      <trkpt lat="42.76632" lon="1.48458">
        <ele>790</ele>
        <time>2026-06-28T04:25:30.000Z</time>
      </trkpt>
      <trkpt lat="42.76632" lon="1.48464">
        <ele>790</ele>
        <time>2026-06-28T04:25:31.000Z</time>
      </trkpt>
      <trkpt lat="42.76631" lon="1.48469">
        <ele>790</ele>
        <time>2026-06-28T04:25:32.000Z</time>
      </trkpt>
      <trkpt lat="42.76631" lon="1.48475">
        <ele>789</ele>
        <time>2026-06-28T04:25:33.000Z</time>
      </trkpt>
      <trkpt lat="42.76631" lon="1.4848">
        <ele>789</ele>
        <time>2026-06-28T04:25:34.000Z</time>
      </trkpt>
      <trkpt lat="42.76631" lon="1.48486">
        <ele>789</ele>
        <time>2026-06-28T04:25:35.000Z</time>
      </trkpt>
      <trkpt lat="42.76631" lon="1.48492">
        <ele>788</ele>
        <time>2026-06-28T04:25:36.000Z</time>
      </trkpt>
      <trkpt lat="42.76631" lon="1.48497">
        <ele>788</ele>
        <time>2026-06-28T04:25:37.000Z</time>
      </trkpt>
      <trkpt lat="42.76631" lon="1.48503">
        <ele>788</ele>
        <time>2026-06-28T04:25:38.000Z</time>
      </trkpt>
      <trkpt lat="42.76631" lon="1.48509">
        <ele>788</ele>
        <time>2026-06-28T04:25:39.000Z</time>
      </trkpt>
      <trkpt lat="42.76631" lon="1.48514">
        <ele>788</ele>
        <time>2026-06-28T04:25:40.000Z</time>
      </trkpt>
      <trkpt lat="42.76632" lon="1.48521">
        <ele>789</ele>
        <time>2026-06-28T04:25:41.000Z</time>
      </trkpt>
      <trkpt lat="42.76634" lon="1.48527">
        <ele>789</ele>
        <time>2026-06-28T04:25:42.000Z</time>
      </trkpt>
      <trkpt lat="42.76637" lon="1.48533">
        <ele>789</ele>
        <time>2026-06-28T04:25:43.000Z</time>
      </trkpt>
      <trkpt lat="42.7664" lon="1.48537">
        <ele>789</ele>
        <time>2026-06-28T04:25:44.000Z</time>
      </trkpt>
      <trkpt lat="42.76645" lon="1.48542">
        <ele>789</ele>
        <time>2026-06-28T04:25:45.000Z</time>
      </trkpt>
      <trkpt lat="42.76649" lon="1.48547">
        <ele>789</ele>
        <time>2026-06-28T04:25:46.000Z</time>
      </trkpt>
      <trkpt lat="42.76654" lon="1.48551">
        <ele>789</ele>
        <time>2026-06-28T04:25:47.000Z</time>
      </trkpt>
      <trkpt lat="42.76658" lon="1.48556">
        <ele>789</ele>
        <time>2026-06-28T04:25:48.000Z</time>
      </trkpt>
      <trkpt lat="42.76662" lon="1.4856">
        <ele>789</ele>
        <time>2026-06-28T04:25:49.000Z</time>
      </trkpt>
      <trkpt lat="42.76667" lon="1.48566">
        <ele>788</ele>
        <time>2026-06-28T04:25:50.000Z</time>
      </trkpt>
      <trkpt lat="42.7667" lon="1.48573">
        <ele>788</ele>
        <time>2026-06-28T04:25:51.000Z</time>
      </trkpt>
      <trkpt lat="42.76675" lon="1.48579">
        <ele>787</ele>
        <time>2026-06-28T04:25:52.000Z</time>
      </trkpt>
      <trkpt lat="42.76678" lon="1.48586">
        <ele>787</ele>
        <time>2026-06-28T04:25:53.000Z</time>
      </trkpt>
      <trkpt lat="42.76682" lon="1.48594">
        <ele>787</ele>
        <time>2026-06-28T04:25:54.000Z</time>
      </trkpt>
      <trkpt lat="42.76685" lon="1.48601">
        <ele>787</ele>
        <time>2026-06-28T04:25:55.000Z</time>
      </trkpt>
      <trkpt lat="42.76688" lon="1.48607">
        <ele>787</ele>
        <time>2026-06-28T04:25:56.000Z</time>
      </trkpt>
      <trkpt lat="42.7669" lon="1.48615">
        <ele>787</ele>
        <time>2026-06-28T04:25:57.000Z</time>
      </trkpt>
      <trkpt lat="42.76692" lon="1.48622">
        <ele>787</ele>
        <time>2026-06-28T04:25:58.000Z</time>
      </trkpt>
      <trkpt lat="42.76694" lon="1.4863">
        <ele>787</ele>
        <time>2026-06-28T04:25:59.000Z</time>
      </trkpt>
      <trkpt lat="42.76694" lon="1.48638">
        <ele>788</ele>
        <time>2026-06-28T04:26:00.000Z</time>
      </trkpt>
      <trkpt lat="42.76695" lon="1.48645">
        <ele>787</ele>
        <time>2026-06-28T04:26:01.000Z</time>
      </trkpt>
      <trkpt lat="42.76697" lon="1.48652">
        <ele>787</ele>
        <time>2026-06-28T04:26:02.000Z</time>
      </trkpt>
      <trkpt lat="42.76699" lon="1.48659">
        <ele>787</ele>
        <time>2026-06-28T04:26:03.000Z</time>
      </trkpt>
      <trkpt lat="42.76702" lon="1.48666">
        <ele>787</ele>
        <time>2026-06-28T04:26:04.000Z</time>
      </trkpt>
      <trkpt lat="42.76705" lon="1.48671">
        <ele>787</ele>
        <time>2026-06-28T04:26:05.000Z</time>
      </trkpt>
      <trkpt lat="42.76708" lon="1.48677">
        <ele>787</ele>
        <time>2026-06-28T04:26:06.000Z</time>
      </trkpt>
      <trkpt lat="42.76711" lon="1.48682">
        <ele>787</ele>
        <time>2026-06-28T04:26:07.000Z</time>
      </trkpt>
      <trkpt lat="42.76714" lon="1.48687">
        <ele>787</ele>
        <time>2026-06-28T04:26:08.000Z</time>
      </trkpt>
      <trkpt lat="42.76718" lon="1.48692">
        <ele>787</ele>
        <time>2026-06-28T04:26:09.000Z</time>
      </trkpt>
      <trkpt lat="42.76721" lon="1.48698">
        <ele>787</ele>
        <time>2026-06-28T04:26:10.000Z</time>
      </trkpt>
      <trkpt lat="42.76724" lon="1.48703">
        <ele>787</ele>
        <time>2026-06-28T04:26:11.000Z</time>
      </trkpt>
      <trkpt lat="42.76727" lon="1.48709">
        <ele>787</ele>
        <time>2026-06-28T04:26:12.000Z</time>
      </trkpt>
      <trkpt lat="42.76729" lon="1.48715">
        <ele>786</ele>
        <time>2026-06-28T04:26:13.000Z</time>
      </trkpt>
      <trkpt lat="42.76732" lon="1.48722">
        <ele>786</ele>
        <time>2026-06-28T04:26:14.000Z</time>
      </trkpt>
      <trkpt lat="42.76733" lon="1.48728">
        <ele>786</ele>
        <time>2026-06-28T04:26:15.000Z</time>
      </trkpt>
      <trkpt lat="42.76735" lon="1.48735">
        <ele>786</ele>
        <time>2026-06-28T04:26:16.000Z</time>
      </trkpt>
      <trkpt lat="42.76735" lon="1.48743">
        <ele>786</ele>
        <time>2026-06-28T04:26:17.000Z</time>
      </trkpt>
      <trkpt lat="42.76735" lon="1.48751">
        <ele>785</ele>
        <time>2026-06-28T04:26:18.000Z</time>
      </trkpt>
      <trkpt lat="42.76735" lon="1.48758">
        <ele>785</ele>
        <time>2026-06-28T04:26:19.000Z</time>
      </trkpt>
      <trkpt lat="42.76734" lon="1.48765">
        <ele>785</ele>
        <time>2026-06-28T04:26:20.000Z</time>
      </trkpt>
      <trkpt lat="42.76733" lon="1.48772">
        <ele>786</ele>
        <time>2026-06-28T04:26:21.000Z</time>
      </trkpt>
      <trkpt lat="42.7673" lon="1.48779">
        <ele>785</ele>
        <time>2026-06-28T04:26:22.000Z</time>
      </trkpt>
      <trkpt lat="42.76728" lon="1.48786">
        <ele>785</ele>
        <time>2026-06-28T04:26:23.000Z</time>
      </trkpt>
      <trkpt lat="42.76725" lon="1.48792">
        <ele>785</ele>
        <time>2026-06-28T04:26:24.000Z</time>
      </trkpt>
      <trkpt lat="42.76722" lon="1.48799">
        <ele>786</ele>
        <time>2026-06-28T04:26:25.000Z</time>
      </trkpt>
      <trkpt lat="42.7672" lon="1.48805">
        <ele>786</ele>
        <time>2026-06-28T04:26:26.000Z</time>
      </trkpt>
      <trkpt lat="42.76717" lon="1.48812">
        <ele>786</ele>
        <time>2026-06-28T04:26:27.000Z</time>
      </trkpt>
      <trkpt lat="42.76714" lon="1.48819">
        <ele>786</ele>
        <time>2026-06-28T04:26:28.000Z</time>
      </trkpt>
      <trkpt lat="42.76711" lon="1.48826">
        <ele>786</ele>
        <time>2026-06-28T04:26:29.000Z</time>
      </trkpt>
      <trkpt lat="42.76709" lon="1.48832">
        <ele>787</ele>
        <time>2026-06-28T04:26:30.000Z</time>
      </trkpt>
      <trkpt lat="42.76708" lon="1.4884">
        <ele>787</ele>
        <time>2026-06-28T04:26:31.000Z</time>
      </trkpt>
      <trkpt lat="42.76708" lon="1.48847">
        <ele>787</ele>
        <time>2026-06-28T04:26:32.000Z</time>
      </trkpt>
      <trkpt lat="42.76708" lon="1.48854">
        <ele>787</ele>
        <time>2026-06-28T04:26:33.000Z</time>
      </trkpt>
      <trkpt lat="42.7671" lon="1.48862">
        <ele>787</ele>
        <time>2026-06-28T04:26:34.000Z</time>
      </trkpt>
      <trkpt lat="42.76709" lon="1.48869">
        <ele>787</ele>
        <time>2026-06-28T04:26:35.000Z</time>
      </trkpt>
      <trkpt lat="42.7671" lon="1.48877">
        <ele>787</ele>
        <time>2026-06-28T04:26:36.000Z</time>
      </trkpt>
      <trkpt lat="42.76711" lon="1.48884">
        <ele>787</ele>
        <time>2026-06-28T04:26:37.000Z</time>
      </trkpt>
      <trkpt lat="42.76713" lon="1.48892">
        <ele>787</ele>
        <time>2026-06-28T04:26:38.000Z</time>
      </trkpt>
      <trkpt lat="42.76713" lon="1.489">
        <ele>787</ele>
        <time>2026-06-28T04:26:39.000Z</time>
      </trkpt>
      <trkpt lat="42.76714" lon="1.48909">
        <ele>787</ele>
        <time>2026-06-28T04:26:40.000Z</time>
      </trkpt>
      <trkpt lat="42.76715" lon="1.48918">
        <ele>787</ele>
        <time>2026-06-28T04:26:41.000Z</time>
      </trkpt>
      <trkpt lat="42.76716" lon="1.48927">
        <ele>786</ele>
        <time>2026-06-28T04:26:42.000Z</time>
      </trkpt>
      <trkpt lat="42.76717" lon="1.48935">
        <ele>787</ele>
        <time>2026-06-28T04:26:43.000Z</time>
      </trkpt>
      <trkpt lat="42.76719" lon="1.48944">
        <ele>787</ele>
        <time>2026-06-28T04:26:44.000Z</time>
      </trkpt>
      <trkpt lat="42.7672" lon="1.48952">
        <ele>787</ele>
        <time>2026-06-28T04:26:45.000Z</time>
      </trkpt>
      <trkpt lat="42.76721" lon="1.48959">
        <ele>787</ele>
        <time>2026-06-28T04:26:46.000Z</time>
      </trkpt>
      <trkpt lat="42.76722" lon="1.48967">
        <ele>787</ele>
        <time>2026-06-28T04:26:47.000Z</time>
      </trkpt>
      <trkpt lat="42.76723" lon="1.48975">
        <ele>788</ele>
        <time>2026-06-28T04:26:48.000Z</time>
      </trkpt>
      <trkpt lat="42.76724" lon="1.48984">
        <ele>788</ele>
        <time>2026-06-28T04:26:49.000Z</time>
      </trkpt>
      <trkpt lat="42.76726" lon="1.48993">
        <ele>787</ele>
        <time>2026-06-28T04:26:50.000Z</time>
      </trkpt>
      <trkpt lat="42.76728" lon="1.49001">
        <ele>787</ele>
        <time>2026-06-28T04:26:51.000Z</time>
      </trkpt>
      <trkpt lat="42.7673" lon="1.4901">
        <ele>787</ele>
        <time>2026-06-28T04:26:52.000Z</time>
      </trkpt>
      <trkpt lat="42.76733" lon="1.49019">
        <ele>785</ele>
        <time>2026-06-28T04:26:53.000Z</time>
      </trkpt>
      <trkpt lat="42.76736" lon="1.49028">
        <ele>785</ele>
        <time>2026-06-28T04:26:54.000Z</time>
      </trkpt>
      <trkpt lat="42.76739" lon="1.49035">
        <ele>785</ele>
        <time>2026-06-28T04:26:55.000Z</time>
      </trkpt>
      <trkpt lat="42.76742" lon="1.49044">
        <ele>784</ele>
        <time>2026-06-28T04:26:56.000Z</time>
      </trkpt>
      <trkpt lat="42.76746" lon="1.49051">
        <ele>784</ele>
        <time>2026-06-28T04:26:57.000Z</time>
      </trkpt>
      <trkpt lat="42.7675" lon="1.49059">
        <ele>783</ele>
        <time>2026-06-28T04:26:58.000Z</time>
      </trkpt>
      <trkpt lat="42.76754" lon="1.49067">
        <ele>784</ele>
        <time>2026-06-28T04:26:59.000Z</time>
      </trkpt>
      <trkpt lat="42.76759" lon="1.49075">
        <ele>783</ele>
        <time>2026-06-28T04:27:00.000Z</time>
      </trkpt>
      <trkpt lat="42.76764" lon="1.49081">
        <ele>784</ele>
        <time>2026-06-28T04:27:01.000Z</time>
      </trkpt>
      <trkpt lat="42.76769" lon="1.49088">
        <ele>783</ele>
        <time>2026-06-28T04:27:02.000Z</time>
      </trkpt>
      <trkpt lat="42.76774" lon="1.49095">
        <ele>783</ele>
        <time>2026-06-28T04:27:03.000Z</time>
      </trkpt>
      <trkpt lat="42.76779" lon="1.49102">
        <ele>783</ele>
        <time>2026-06-28T04:27:04.000Z</time>
      </trkpt>
      <trkpt lat="42.76783" lon="1.4911">
        <ele>783</ele>
        <time>2026-06-28T04:27:05.000Z</time>
      </trkpt>
      <trkpt lat="42.76788" lon="1.49117">
        <ele>783</ele>
        <time>2026-06-28T04:27:06.000Z</time>
      </trkpt>
      <trkpt lat="42.76793" lon="1.49125">
        <ele>783</ele>
        <time>2026-06-28T04:27:07.000Z</time>
      </trkpt>
      <trkpt lat="42.76797" lon="1.49133">
        <ele>783</ele>
        <time>2026-06-28T04:27:08.000Z</time>
      </trkpt>
      <trkpt lat="42.76802" lon="1.49142">
        <ele>782</ele>
        <time>2026-06-28T04:27:09.000Z</time>
      </trkpt>
      <trkpt lat="42.76807" lon="1.4915">
        <ele>781</ele>
        <time>2026-06-28T04:27:10.000Z</time>
      </trkpt>
      <trkpt lat="42.76812" lon="1.49159">
        <ele>780</ele>
        <time>2026-06-28T04:27:11.000Z</time>
      </trkpt>
      <trkpt lat="42.76817" lon="1.49168">
        <ele>780</ele>
        <time>2026-06-28T04:27:12.000Z</time>
      </trkpt>
      <trkpt lat="42.76821" lon="1.49175">
        <ele>780</ele>
        <time>2026-06-28T04:27:13.000Z</time>
      </trkpt>
      <trkpt lat="42.76826" lon="1.49184">
        <ele>778</ele>
        <time>2026-06-28T04:27:14.000Z</time>
      </trkpt>
      <trkpt lat="42.7683" lon="1.49192">
        <ele>778</ele>
        <time>2026-06-28T04:27:15.000Z</time>
      </trkpt>
      <trkpt lat="42.76835" lon="1.492">
        <ele>778</ele>
        <time>2026-06-28T04:27:16.000Z</time>
      </trkpt>
      <trkpt lat="42.76838" lon="1.49209">
        <ele>777</ele>
        <time>2026-06-28T04:27:17.000Z</time>
      </trkpt>
      <trkpt lat="42.76841" lon="1.49217">
        <ele>777</ele>
        <time>2026-06-28T04:27:18.000Z</time>
      </trkpt>
      <trkpt lat="42.76844" lon="1.49226">
        <ele>777</ele>
        <time>2026-06-28T04:27:19.000Z</time>
      </trkpt>
      <trkpt lat="42.76847" lon="1.49235">
        <ele>776</ele>
        <time>2026-06-28T04:27:20.000Z</time>
      </trkpt>
      <trkpt lat="42.76849" lon="1.49243">
        <ele>777</ele>
        <time>2026-06-28T04:27:21.000Z</time>
      </trkpt>
      <trkpt lat="42.76851" lon="1.49251">
        <ele>776</ele>
        <time>2026-06-28T04:27:22.000Z</time>
      </trkpt>
      <trkpt lat="42.76852" lon="1.49259">
        <ele>776</ele>
        <time>2026-06-28T04:27:23.000Z</time>
      </trkpt>
      <trkpt lat="42.76852" lon="1.49266">
        <ele>776</ele>
        <time>2026-06-28T04:27:24.000Z</time>
      </trkpt>
      <trkpt lat="42.76851" lon="1.49272">
        <ele>776</ele>
        <time>2026-06-28T04:27:25.000Z</time>
      </trkpt>
      <trkpt lat="42.7685" lon="1.49278">
        <ele>777</ele>
        <time>2026-06-28T04:27:26.000Z</time>
      </trkpt>
      <trkpt lat="42.76849" lon="1.49285">
        <ele>777</ele>
        <time>2026-06-28T04:27:27.000Z</time>
      </trkpt>
      <trkpt lat="42.76851" lon="1.49292">
        <ele>777</ele>
        <time>2026-06-28T04:27:28.000Z</time>
      </trkpt>
      <trkpt lat="42.76854" lon="1.49299">
        <ele>777</ele>
        <time>2026-06-28T04:27:29.000Z</time>
      </trkpt>
      <trkpt lat="42.76858" lon="1.49306">
        <ele>777</ele>
        <time>2026-06-28T04:27:30.000Z</time>
      </trkpt>
      <trkpt lat="42.7686" lon="1.49312">
        <ele>777</ele>
        <time>2026-06-28T04:27:31.000Z</time>
      </trkpt>
      <trkpt lat="42.76863" lon="1.49318">
        <ele>777</ele>
        <time>2026-06-28T04:27:32.000Z</time>
      </trkpt>
      <trkpt lat="42.76865" lon="1.49326">
        <ele>777</ele>
        <time>2026-06-28T04:27:33.000Z</time>
      </trkpt>
      <trkpt lat="42.76866" lon="1.49334">
        <ele>776</ele>
        <time>2026-06-28T04:27:34.000Z</time>
      </trkpt>
      <trkpt lat="42.76868" lon="1.49342">
        <ele>776</ele>
        <time>2026-06-28T04:27:35.000Z</time>
      </trkpt>
      <trkpt lat="42.7687" lon="1.4935">
        <ele>776</ele>
        <time>2026-06-28T04:27:36.000Z</time>
      </trkpt>
      <trkpt lat="42.76871" lon="1.49358">
        <ele>776</ele>
        <time>2026-06-28T04:27:37.000Z</time>
      </trkpt>
      <trkpt lat="42.76873" lon="1.49366">
        <ele>776</ele>
        <time>2026-06-28T04:27:38.000Z</time>
      </trkpt>
      <trkpt lat="42.76874" lon="1.49376">
        <ele>776</ele>
        <time>2026-06-28T04:27:39.000Z</time>
      </trkpt>
      <trkpt lat="42.76876" lon="1.49386">
        <ele>775</ele>
        <time>2026-06-28T04:27:40.000Z</time>
      </trkpt>
      <trkpt lat="42.76876" lon="1.49396">
        <ele>775</ele>
        <time>2026-06-28T04:27:41.000Z</time>
      </trkpt>
      <trkpt lat="42.76878" lon="1.49405">
        <ele>775</ele>
        <time>2026-06-28T04:27:42.000Z</time>
      </trkpt>
      <trkpt lat="42.76878" lon="1.49414">
        <ele>775</ele>
        <time>2026-06-28T04:27:43.000Z</time>
      </trkpt>
      <trkpt lat="42.76879" lon="1.49424">
        <ele>775</ele>
        <time>2026-06-28T04:27:44.000Z</time>
      </trkpt>
      <trkpt lat="42.76878" lon="1.49434">
        <ele>775</ele>
        <time>2026-06-28T04:27:45.000Z</time>
      </trkpt>
      <trkpt lat="42.76878" lon="1.49443">
        <ele>775</ele>
        <time>2026-06-28T04:27:46.000Z</time>
      </trkpt>
      <trkpt lat="42.76877" lon="1.49452">
        <ele>775</ele>
        <time>2026-06-28T04:27:47.000Z</time>
      </trkpt>
      <trkpt lat="42.76876" lon="1.4946">
        <ele>775</ele>
        <time>2026-06-28T04:27:48.000Z</time>
      </trkpt>
      <trkpt lat="42.76873" lon="1.49468">
        <ele>775</ele>
        <time>2026-06-28T04:27:49.000Z</time>
      </trkpt>
      <trkpt lat="42.76871" lon="1.49477">
        <ele>775</ele>
        <time>2026-06-28T04:27:50.000Z</time>
      </trkpt>
      <trkpt lat="42.76866" lon="1.49484">
        <ele>776</ele>
        <time>2026-06-28T04:27:51.000Z</time>
      </trkpt>
      <trkpt lat="42.76863" lon="1.4949">
        <ele>775</ele>
        <time>2026-06-28T04:27:52.000Z</time>
      </trkpt>
      <trkpt lat="42.76859" lon="1.49497">
        <ele>774</ele>
        <time>2026-06-28T04:27:53.000Z</time>
      </trkpt>
      <trkpt lat="42.76854" lon="1.49504">
        <ele>774</ele>
        <time>2026-06-28T04:27:54.000Z</time>
      </trkpt>
      <trkpt lat="42.76851" lon="1.4951">
        <ele>774</ele>
        <time>2026-06-28T04:27:55.000Z</time>
      </trkpt>
      <trkpt lat="42.76847" lon="1.49517">
        <ele>774</ele>
        <time>2026-06-28T04:27:56.000Z</time>
      </trkpt>
      <trkpt lat="42.76843" lon="1.49523">
        <ele>774</ele>
        <time>2026-06-28T04:27:57.000Z</time>
      </trkpt>
      <trkpt lat="42.76839" lon="1.49529">
        <ele>774</ele>
        <time>2026-06-28T04:27:58.000Z</time>
      </trkpt>
      <trkpt lat="42.76834" lon="1.49535">
        <ele>773</ele>
        <time>2026-06-28T04:27:59.000Z</time>
      </trkpt>
      <trkpt lat="42.7683" lon="1.49541">
        <ele>773</ele>
        <time>2026-06-28T04:28:00.000Z</time>
      </trkpt>
      <trkpt lat="42.76826" lon="1.49547">
        <ele>773</ele>
        <time>2026-06-28T04:28:01.000Z</time>
      </trkpt>
      <trkpt lat="42.76824" lon="1.49554">
        <ele>773</ele>
        <time>2026-06-28T04:28:02.000Z</time>
      </trkpt>
      <trkpt lat="42.7682" lon="1.49562">
        <ele>773</ele>
        <time>2026-06-28T04:28:03.000Z</time>
      </trkpt>
      <trkpt lat="42.76817" lon="1.49569">
        <ele>773</ele>
        <time>2026-06-28T04:28:04.000Z</time>
      </trkpt>
      <trkpt lat="42.76814" lon="1.49576">
        <ele>773</ele>
        <time>2026-06-28T04:28:05.000Z</time>
      </trkpt>
      <trkpt lat="42.76811" lon="1.49584">
        <ele>773</ele>
        <time>2026-06-28T04:28:06.000Z</time>
      </trkpt>
      <trkpt lat="42.76808" lon="1.49591">
        <ele>773</ele>
        <time>2026-06-28T04:28:07.000Z</time>
      </trkpt>
      <trkpt lat="42.76806" lon="1.49599">
        <ele>773</ele>
        <time>2026-06-28T04:28:08.000Z</time>
      </trkpt>
      <trkpt lat="42.76805" lon="1.49606">
        <ele>774</ele>
        <time>2026-06-28T04:28:09.000Z</time>
      </trkpt>
      <trkpt lat="42.76803" lon="1.49614">
        <ele>774</ele>
        <time>2026-06-28T04:28:10.000Z</time>
      </trkpt>
      <trkpt lat="42.76802" lon="1.49623">
        <ele>774</ele>
        <time>2026-06-28T04:28:11.000Z</time>
      </trkpt>
      <trkpt lat="42.76801" lon="1.49631">
        <ele>774</ele>
        <time>2026-06-28T04:28:12.000Z</time>
      </trkpt>
      <trkpt lat="42.768" lon="1.49639">
        <ele>774</ele>
        <time>2026-06-28T04:28:13.000Z</time>
      </trkpt>
      <trkpt lat="42.76798" lon="1.49648">
        <ele>774</ele>
        <time>2026-06-28T04:28:14.000Z</time>
      </trkpt>
      <trkpt lat="42.76796" lon="1.49656">
        <ele>774</ele>
        <time>2026-06-28T04:28:15.000Z</time>
      </trkpt>
      <trkpt lat="42.76794" lon="1.49664">
        <ele>774</ele>
        <time>2026-06-28T04:28:16.000Z</time>
      </trkpt>
      <trkpt lat="42.76792" lon="1.49673">
        <ele>774</ele>
        <time>2026-06-28T04:28:17.000Z</time>
      </trkpt>
      <trkpt lat="42.7679" lon="1.49681">
        <ele>774</ele>
        <time>2026-06-28T04:28:18.000Z</time>
      </trkpt>
      <trkpt lat="42.76788" lon="1.49689">
        <ele>774</ele>
        <time>2026-06-28T04:28:19.000Z</time>
      </trkpt>
      <trkpt lat="42.76784" lon="1.49696">
        <ele>774</ele>
        <time>2026-06-28T04:28:20.000Z</time>
      </trkpt>
      <trkpt lat="42.7678" lon="1.49703">
        <ele>774</ele>
        <time>2026-06-28T04:28:21.000Z</time>
      </trkpt>
      <trkpt lat="42.76776" lon="1.4971">
        <ele>774</ele>
        <time>2026-06-28T04:28:22.000Z</time>
      </trkpt>
      <trkpt lat="42.76771" lon="1.49717">
        <ele>774</ele>
        <time>2026-06-28T04:28:23.000Z</time>
      </trkpt>
      <trkpt lat="42.76766" lon="1.49723">
        <ele>774</ele>
        <time>2026-06-28T04:28:24.000Z</time>
      </trkpt>
      <trkpt lat="42.76761" lon="1.49729">
        <ele>774</ele>
        <time>2026-06-28T04:28:25.000Z</time>
      </trkpt>
      <trkpt lat="42.76757" lon="1.49735">
        <ele>773</ele>
        <time>2026-06-28T04:28:26.000Z</time>
      </trkpt>
      <trkpt lat="42.76752" lon="1.49742">
        <ele>774</ele>
        <time>2026-06-28T04:28:27.000Z</time>
      </trkpt>
      <trkpt lat="42.76748" lon="1.49748">
        <ele>774</ele>
        <time>2026-06-28T04:28:28.000Z</time>
      </trkpt>
      <trkpt lat="42.76744" lon="1.49755">
        <ele>774</ele>
        <time>2026-06-28T04:28:29.000Z</time>
      </trkpt>
      <trkpt lat="42.7674" lon="1.49761">
        <ele>773</ele>
        <time>2026-06-28T04:28:30.000Z</time>
      </trkpt>
      <trkpt lat="42.76738" lon="1.49769">
        <ele>774</ele>
        <time>2026-06-28T04:28:31.000Z</time>
      </trkpt>
      <trkpt lat="42.76737" lon="1.49777">
        <ele>774</ele>
        <time>2026-06-28T04:28:32.000Z</time>
      </trkpt>
      <trkpt lat="42.76736" lon="1.49785">
        <ele>774</ele>
        <time>2026-06-28T04:28:33.000Z</time>
      </trkpt>
      <trkpt lat="42.76735" lon="1.49793">
        <ele>774</ele>
        <time>2026-06-28T04:28:34.000Z</time>
      </trkpt>
      <trkpt lat="42.76736" lon="1.49801">
        <ele>774</ele>
        <time>2026-06-28T04:28:35.000Z</time>
      </trkpt>
      <trkpt lat="42.76736" lon="1.4981">
        <ele>773</ele>
        <time>2026-06-28T04:28:36.000Z</time>
      </trkpt>
      <trkpt lat="42.76738" lon="1.49819">
        <ele>773</ele>
        <time>2026-06-28T04:28:37.000Z</time>
      </trkpt>
      <trkpt lat="42.76739" lon="1.49828">
        <ele>773</ele>
        <time>2026-06-28T04:28:38.000Z</time>
      </trkpt>
      <trkpt lat="42.7674" lon="1.49837">
        <ele>773</ele>
        <time>2026-06-28T04:28:39.000Z</time>
      </trkpt>
      <trkpt lat="42.76741" lon="1.49845">
        <ele>773</ele>
        <time>2026-06-28T04:28:40.000Z</time>
      </trkpt>
      <trkpt lat="42.76743" lon="1.49854">
        <ele>773</ele>
        <time>2026-06-28T04:28:41.000Z</time>
      </trkpt>
      <trkpt lat="42.76746" lon="1.49862">
        <ele>773</ele>
        <time>2026-06-28T04:28:42.000Z</time>
      </trkpt>
      <trkpt lat="42.7675" lon="1.4987">
        <ele>772</ele>
        <time>2026-06-28T04:28:43.000Z</time>
      </trkpt>
      <trkpt lat="42.76753" lon="1.49878">
        <ele>772</ele>
        <time>2026-06-28T04:28:44.000Z</time>
      </trkpt>
      <trkpt lat="42.76759" lon="1.49886">
        <ele>772</ele>
        <time>2026-06-28T04:28:45.000Z</time>
      </trkpt>
      <trkpt lat="42.76763" lon="1.49894">
        <ele>771</ele>
        <time>2026-06-28T04:28:46.000Z</time>
      </trkpt>
      <trkpt lat="42.76767" lon="1.49901">
        <ele>771</ele>
        <time>2026-06-28T04:28:47.000Z</time>
      </trkpt>
      <trkpt lat="42.76772" lon="1.49909">
        <ele>770</ele>
        <time>2026-06-28T04:28:48.000Z</time>
      </trkpt>
      <trkpt lat="42.76776" lon="1.49916">
        <ele>770</ele>
        <time>2026-06-28T04:28:49.000Z</time>
      </trkpt>
      <trkpt lat="42.7678" lon="1.49923">
        <ele>770</ele>
        <time>2026-06-28T04:28:50.000Z</time>
      </trkpt>
      <trkpt lat="42.76783" lon="1.49931">
        <ele>769</ele>
        <time>2026-06-28T04:28:51.000Z</time>
      </trkpt>
      <trkpt lat="42.76785" lon="1.49941">
        <ele>769</ele>
        <time>2026-06-28T04:28:52.000Z</time>
      </trkpt>
      <trkpt lat="42.76786" lon="1.4995">
        <ele>769</ele>
        <time>2026-06-28T04:28:53.000Z</time>
      </trkpt>
      <trkpt lat="42.76786" lon="1.49959">
        <ele>769</ele>
        <time>2026-06-28T04:28:54.000Z</time>
      </trkpt>
      <trkpt lat="42.76786" lon="1.49968">
        <ele>768</ele>
        <time>2026-06-28T04:28:55.000Z</time>
      </trkpt>
      <trkpt lat="42.76786" lon="1.49976">
        <ele>768</ele>
        <time>2026-06-28T04:28:56.000Z</time>
      </trkpt>
      <trkpt lat="42.76786" lon="1.49982">
        <ele>768</ele>
        <time>2026-06-28T04:28:57.000Z</time>
      </trkpt>
      <trkpt lat="42.76786" lon="1.49988">
        <ele>767</ele>
        <time>2026-06-28T04:28:58.000Z</time>
      </trkpt>
      <trkpt lat="42.76786" lon="1.49991">
        <ele>767</ele>
        <time>2026-06-28T04:28:59.000Z</time>
      </trkpt>
      <trkpt lat="42.76786" lon="1.49994">
        <ele>768</ele>
        <time>2026-06-28T04:29:00.000Z</time>
      </trkpt>
      <trkpt lat="42.76786" lon="1.49998">
        <ele>768</ele>
        <time>2026-06-28T04:29:01.000Z</time>
      </trkpt>
      <trkpt lat="42.76786" lon="1.50001">
        <ele>769</ele>
        <time>2026-06-28T04:29:02.000Z</time>
      </trkpt>
      <trkpt lat="42.76786" lon="1.50003">
        <ele>769</ele>
        <time>2026-06-28T04:29:03.000Z</time>
      </trkpt>
      <trkpt lat="42.76785" lon="1.50004">
        <ele>769</ele>
        <time>2026-06-28T04:29:04.000Z</time>
      </trkpt>
      <trkpt lat="42.76785" lon="1.50004">
        <ele>770</ele>
        <time>2026-06-28T04:29:05.000Z</time>
      </trkpt>
      <trkpt lat="42.76784" lon="1.50002">
        <ele>770</ele>
        <time>2026-06-28T04:29:06.000Z</time>
      </trkpt>
      <trkpt lat="42.76785" lon="1.49998">
        <ele>771</ele>
        <time>2026-06-28T04:29:07.000Z</time>
      </trkpt>
      <trkpt lat="42.76785" lon="1.49995">
        <ele>771</ele>
        <time>2026-06-28T04:29:08.000Z</time>
      </trkpt>
      <trkpt lat="42.76784" lon="1.49992">
        <ele>772</ele>
        <time>2026-06-28T04:29:09.000Z</time>
      </trkpt>
      <trkpt lat="42.76784" lon="1.49988">
        <ele>772</ele>
        <time>2026-06-28T04:29:10.000Z</time>
      </trkpt>
      <trkpt lat="42.76783" lon="1.49985">
        <ele>773</ele>
        <time>2026-06-28T04:29:11.000Z</time>
      </trkpt>
      <trkpt lat="42.76782" lon="1.49981">
        <ele>774</ele>
        <time>2026-06-28T04:29:12.000Z</time>
      </trkpt>
      <trkpt lat="42.76782" lon="1.49977">
        <ele>774</ele>
        <time>2026-06-28T04:29:13.000Z</time>
      </trkpt>
      <trkpt lat="42.76782" lon="1.49973">
        <ele>774</ele>
        <time>2026-06-28T04:29:14.000Z</time>
      </trkpt>
      <trkpt lat="42.76782" lon="1.49969">
        <ele>775</ele>
        <time>2026-06-28T04:29:15.000Z</time>
      </trkpt>
      <trkpt lat="42.76782" lon="1.49965">
        <ele>775</ele>
        <time>2026-06-28T04:29:16.000Z</time>
      </trkpt>
      <trkpt lat="42.76781" lon="1.49961">
        <ele>776</ele>
        <time>2026-06-28T04:29:17.000Z</time>
      </trkpt>
      <trkpt lat="42.76781" lon="1.49958">
        <ele>777</ele>
        <time>2026-06-28T04:29:18.000Z</time>
      </trkpt>
      <trkpt lat="42.76781" lon="1.49954">
        <ele>777</ele>
        <time>2026-06-28T04:29:19.000Z</time>
      </trkpt>
      <trkpt lat="42.76781" lon="1.4995">
        <ele>777</ele>
        <time>2026-06-28T04:29:20.000Z</time>
      </trkpt>
      <trkpt lat="42.76779" lon="1.49947">
        <ele>778</ele>
        <time>2026-06-28T04:29:21.000Z</time>
      </trkpt>
      <trkpt lat="42.76778" lon="1.49943">
        <ele>778</ele>
        <time>2026-06-28T04:29:22.000Z</time>
      </trkpt>
      <trkpt lat="42.76776" lon="1.4994">
        <ele>778</ele>
        <time>2026-06-28T04:29:23.000Z</time>
      </trkpt>
      <trkpt lat="42.76774" lon="1.49937">
        <ele>778</ele>
        <time>2026-06-28T04:29:24.000Z</time>
      </trkpt>
      <trkpt lat="42.76771" lon="1.49935">
        <ele>778</ele>
        <time>2026-06-28T04:29:25.000Z</time>
      </trkpt>
      <trkpt lat="42.7677" lon="1.49933">
        <ele>778</ele>
        <time>2026-06-28T04:29:26.000Z</time>
      </trkpt>
      <trkpt lat="42.76767" lon="1.49932">
        <ele>779</ele>
        <time>2026-06-28T04:29:27.000Z</time>
      </trkpt>
      <trkpt lat="42.76765" lon="1.4993">
        <ele>779</ele>
        <time>2026-06-28T04:29:28.000Z</time>
      </trkpt>
      <trkpt lat="42.76762" lon="1.49928">
        <ele>780</ele>
        <time>2026-06-28T04:29:29.000Z</time>
      </trkpt>
      <trkpt lat="42.7676" lon="1.49926">
        <ele>780</ele>
        <time>2026-06-28T04:29:30.000Z</time>
      </trkpt>
      <trkpt lat="42.76757" lon="1.49924">
        <ele>781</ele>
        <time>2026-06-28T04:29:31.000Z</time>
      </trkpt>
      <trkpt lat="42.76755" lon="1.49921">
        <ele>781</ele>
        <time>2026-06-28T04:29:32.000Z</time>
      </trkpt>
      <trkpt lat="42.76753" lon="1.49919">
        <ele>781</ele>
        <time>2026-06-28T04:29:33.000Z</time>
      </trkpt>
      <trkpt lat="42.76751" lon="1.49916">
        <ele>780</ele>
        <time>2026-06-28T04:29:34.000Z</time>
      </trkpt>
      <trkpt lat="42.76749" lon="1.49913">
        <ele>781</ele>
        <time>2026-06-28T04:29:35.000Z</time>
      </trkpt>
      <trkpt lat="42.76747" lon="1.49911">
        <ele>781</ele>
        <time>2026-06-28T04:29:36.000Z</time>
      </trkpt>
      <trkpt lat="42.76746" lon="1.49909">
        <ele>782</ele>
        <time>2026-06-28T04:29:37.000Z</time>
      </trkpt>
      <trkpt lat="42.76744" lon="1.49906">
        <ele>783</ele>
        <time>2026-06-28T04:29:38.000Z</time>
      </trkpt>
      <trkpt lat="42.76743" lon="1.49904">
        <ele>784</ele>
        <time>2026-06-28T04:29:39.000Z</time>
      </trkpt>
      <trkpt lat="42.76741" lon="1.49901">
        <ele>785</ele>
        <time>2026-06-28T04:29:40.000Z</time>
      </trkpt>
      <trkpt lat="42.7674" lon="1.49898">
        <ele>786</ele>
        <time>2026-06-28T04:29:41.000Z</time>
      </trkpt>
      <trkpt lat="42.76739" lon="1.49895">
        <ele>786</ele>
        <time>2026-06-28T04:29:42.000Z</time>
      </trkpt>
      <trkpt lat="42.76738" lon="1.49892">
        <ele>786</ele>
        <time>2026-06-28T04:29:43.000Z</time>
      </trkpt>
      <trkpt lat="42.76736" lon="1.49889">
        <ele>786</ele>
        <time>2026-06-28T04:29:44.000Z</time>
      </trkpt>
      <trkpt lat="42.76735" lon="1.49886">
        <ele>786</ele>
        <time>2026-06-28T04:29:45.000Z</time>
      </trkpt>
      <trkpt lat="42.76733" lon="1.49883">
        <ele>786</ele>
        <time>2026-06-28T04:29:46.000Z</time>
      </trkpt>
      <trkpt lat="42.76732" lon="1.4988">
        <ele>787</ele>
        <time>2026-06-28T04:29:47.000Z</time>
      </trkpt>
      <trkpt lat="42.76731" lon="1.49876">
        <ele>787</ele>
        <time>2026-06-28T04:29:48.000Z</time>
      </trkpt>
      <trkpt lat="42.76729" lon="1.49872">
        <ele>787</ele>
        <time>2026-06-28T04:29:49.000Z</time>
      </trkpt>
      <trkpt lat="42.76728" lon="1.49869">
        <ele>787</ele>
        <time>2026-06-28T04:29:50.000Z</time>
      </trkpt>
      <trkpt lat="42.76727" lon="1.49865">
        <ele>788</ele>
        <time>2026-06-28T04:29:51.000Z</time>
      </trkpt>
      <trkpt lat="42.76726" lon="1.49862">
        <ele>788</ele>
        <time>2026-06-28T04:29:52.000Z</time>
      </trkpt>
      <trkpt lat="42.76725" lon="1.49858">
        <ele>788</ele>
        <time>2026-06-28T04:29:53.000Z</time>
      </trkpt>
      <trkpt lat="42.76724" lon="1.49855">
        <ele>788</ele>
        <time>2026-06-28T04:29:54.000Z</time>
      </trkpt>
      <trkpt lat="42.76723" lon="1.49851">
        <ele>788</ele>
        <time>2026-06-28T04:29:55.000Z</time>
      </trkpt>
      <trkpt lat="42.76722" lon="1.49848">
        <ele>789</ele>
        <time>2026-06-28T04:29:56.000Z</time>
      </trkpt>
      <trkpt lat="42.76721" lon="1.49844">
        <ele>789</ele>
        <time>2026-06-28T04:29:57.000Z</time>
      </trkpt>
      <trkpt lat="42.7672" lon="1.49841">
        <ele>789</ele>
        <time>2026-06-28T04:29:58.000Z</time>
      </trkpt>
      <trkpt lat="42.76718" lon="1.49838">
        <ele>790</ele>
        <time>2026-06-28T04:29:59.000Z</time>
      </trkpt>
      <trkpt lat="42.76718" lon="1.49835">
        <ele>791</ele>
        <time>2026-06-28T04:30:00.000Z</time>
      </trkpt>
      <trkpt lat="42.76717" lon="1.49832">
        <ele>791</ele>
        <time>2026-06-28T04:30:01.000Z</time>
      </trkpt>
      <trkpt lat="42.76716" lon="1.4983">
        <ele>792</ele>
        <time>2026-06-28T04:30:02.000Z</time>
      </trkpt>
      <trkpt lat="42.76715" lon="1.49828">
        <ele>792</ele>
        <time>2026-06-28T04:30:03.000Z</time>
      </trkpt>
      <trkpt lat="42.76714" lon="1.49824">
        <ele>792</ele>
        <time>2026-06-28T04:30:04.000Z</time>
      </trkpt>
      <trkpt lat="42.76713" lon="1.49821">
        <ele>792</ele>
        <time>2026-06-28T04:30:05.000Z</time>
      </trkpt>
      <trkpt lat="42.76712" lon="1.49818">
        <ele>793</ele>
        <time>2026-06-28T04:30:06.000Z</time>
      </trkpt>
      <trkpt lat="42.76712" lon="1.49815">
        <ele>793</ele>
        <time>2026-06-28T04:30:07.000Z</time>
      </trkpt>
      <trkpt lat="42.76711" lon="1.49812">
        <ele>793</ele>
        <time>2026-06-28T04:30:08.000Z</time>
      </trkpt>
      <trkpt lat="42.76711" lon="1.49808">
        <ele>793</ele>
        <time>2026-06-28T04:30:09.000Z</time>
      </trkpt>
      <trkpt lat="42.7671" lon="1.49804">
        <ele>793</ele>
        <time>2026-06-28T04:30:10.000Z</time>
      </trkpt>
      <trkpt lat="42.7671" lon="1.498">
        <ele>794</ele>
        <time>2026-06-28T04:30:11.000Z</time>
      </trkpt>
      <trkpt lat="42.7671" lon="1.49797">
        <ele>794</ele>
        <time>2026-06-28T04:30:12.000Z</time>
      </trkpt>
      <trkpt lat="42.7671" lon="1.49792">
        <ele>794</ele>
        <time>2026-06-28T04:30:13.000Z</time>
      </trkpt>
      <trkpt lat="42.7671" lon="1.49789">
        <ele>794</ele>
        <time>2026-06-28T04:30:14.000Z</time>
      </trkpt>
      <trkpt lat="42.7671" lon="1.49785">
        <ele>794</ele>
        <time>2026-06-28T04:30:15.000Z</time>
      </trkpt>
      <trkpt lat="42.76709" lon="1.49781">
        <ele>795</ele>
        <time>2026-06-28T04:30:16.000Z</time>
      </trkpt>
      <trkpt lat="42.76708" lon="1.49777">
        <ele>795</ele>
        <time>2026-06-28T04:30:17.000Z</time>
      </trkpt>
      <trkpt lat="42.76706" lon="1.49773">
        <ele>794</ele>
        <time>2026-06-28T04:30:18.000Z</time>
      </trkpt>
      <trkpt lat="42.76704" lon="1.49771">
        <ele>794</ele>
        <time>2026-06-28T04:30:19.000Z</time>
      </trkpt>
      <trkpt lat="42.76702" lon="1.4977">
        <ele>794</ele>
        <time>2026-06-28T04:30:20.000Z</time>
      </trkpt>
      <trkpt lat="42.767" lon="1.49771">
        <ele>793</ele>
        <time>2026-06-28T04:30:21.000Z</time>
      </trkpt>
      <trkpt lat="42.76698" lon="1.49773">
        <ele>794</ele>
        <time>2026-06-28T04:30:22.000Z</time>
      </trkpt>
      <trkpt lat="42.76698" lon="1.49776">
        <ele>793</ele>
        <time>2026-06-28T04:30:23.000Z</time>
      </trkpt>
      <trkpt lat="42.76698" lon="1.49779">
        <ele>793</ele>
        <time>2026-06-28T04:30:24.000Z</time>
      </trkpt>
      <trkpt lat="42.76698" lon="1.49782">
        <ele>793</ele>
        <time>2026-06-28T04:30:25.000Z</time>
      </trkpt>
      <trkpt lat="42.76698" lon="1.49785">
        <ele>793</ele>
        <time>2026-06-28T04:30:26.000Z</time>
      </trkpt>
      <trkpt lat="42.76698" lon="1.49788">
        <ele>794</ele>
        <time>2026-06-28T04:30:27.000Z</time>
      </trkpt>
      <trkpt lat="42.76699" lon="1.49792">
        <ele>794</ele>
        <time>2026-06-28T04:30:28.000Z</time>
      </trkpt>
      <trkpt lat="42.767" lon="1.49796">
        <ele>795</ele>
        <time>2026-06-28T04:30:29.000Z</time>
      </trkpt>
      <trkpt lat="42.76701" lon="1.49799">
        <ele>795</ele>
        <time>2026-06-28T04:30:30.000Z</time>
      </trkpt>
      <trkpt lat="42.76701" lon="1.49802">
        <ele>794</ele>
        <time>2026-06-28T04:30:31.000Z</time>
      </trkpt>
      <trkpt lat="42.76702" lon="1.49807">
        <ele>794</ele>
        <time>2026-06-28T04:30:32.000Z</time>
      </trkpt>
      <trkpt lat="42.76702" lon="1.49811">
        <ele>795</ele>
        <time>2026-06-28T04:30:33.000Z</time>
      </trkpt>
      <trkpt lat="42.76703" lon="1.49815">
        <ele>795</ele>
        <time>2026-06-28T04:30:34.000Z</time>
      </trkpt>
      <trkpt lat="42.76704" lon="1.4982">
        <ele>795</ele>
        <time>2026-06-28T04:30:35.000Z</time>
      </trkpt>
      <trkpt lat="42.76704" lon="1.49824">
        <ele>795</ele>
        <time>2026-06-28T04:30:36.000Z</time>
      </trkpt>
      <trkpt lat="42.76705" lon="1.49829">
        <ele>795</ele>
        <time>2026-06-28T04:30:37.000Z</time>
      </trkpt>
      <trkpt lat="42.76705" lon="1.49833">
        <ele>795</ele>
        <time>2026-06-28T04:30:38.000Z</time>
      </trkpt>
      <trkpt lat="42.76706" lon="1.49836">
        <ele>796</ele>
        <time>2026-06-28T04:30:39.000Z</time>
      </trkpt>
      <trkpt lat="42.76706" lon="1.4984">
        <ele>796</ele>
        <time>2026-06-28T04:30:40.000Z</time>
      </trkpt>
      <trkpt lat="42.76706" lon="1.49843">
        <ele>796</ele>
        <time>2026-06-28T04:30:41.000Z</time>
      </trkpt>
      <trkpt lat="42.76706" lon="1.49847">
        <ele>796</ele>
        <time>2026-06-28T04:30:42.000Z</time>
      </trkpt>
      <trkpt lat="42.76705" lon="1.49851">
        <ele>796</ele>
        <time>2026-06-28T04:30:43.000Z</time>
      </trkpt>
      <trkpt lat="42.76706" lon="1.49853">
        <ele>796</ele>
        <time>2026-06-28T04:30:44.000Z</time>
      </trkpt>
      <trkpt lat="42.76706" lon="1.49857">
        <ele>796</ele>
        <time>2026-06-28T04:30:45.000Z</time>
      </trkpt>
      <trkpt lat="42.76705" lon="1.4986">
        <ele>796</ele>
        <time>2026-06-28T04:30:46.000Z</time>
      </trkpt>
      <trkpt lat="42.76705" lon="1.49864">
        <ele>796</ele>
        <time>2026-06-28T04:30:47.000Z</time>
      </trkpt>
      <trkpt lat="42.76704" lon="1.49867">
        <ele>796</ele>
        <time>2026-06-28T04:30:48.000Z</time>
      </trkpt>
      <trkpt lat="42.76703" lon="1.49869">
        <ele>796</ele>
        <time>2026-06-28T04:30:49.000Z</time>
      </trkpt>
      <trkpt lat="42.76702" lon="1.49873">
        <ele>797</ele>
        <time>2026-06-28T04:30:50.000Z</time>
      </trkpt>
      <trkpt lat="42.76701" lon="1.49876">
        <ele>797</ele>
        <time>2026-06-28T04:30:51.000Z</time>
      </trkpt>
      <trkpt lat="42.76701" lon="1.49879">
        <ele>797</ele>
        <time>2026-06-28T04:30:52.000Z</time>
      </trkpt>
      <trkpt lat="42.767" lon="1.49882">
        <ele>797</ele>
        <time>2026-06-28T04:30:53.000Z</time>
      </trkpt>
      <trkpt lat="42.76699" lon="1.49886">
        <ele>797</ele>
        <time>2026-06-28T04:30:54.000Z</time>
      </trkpt>
      <trkpt lat="42.76698" lon="1.49889">
        <ele>797</ele>
        <time>2026-06-28T04:30:55.000Z</time>
      </trkpt>
      <trkpt lat="42.76698" lon="1.49893">
        <ele>796</ele>
        <time>2026-06-28T04:30:56.000Z</time>
      </trkpt>
      <trkpt lat="42.76698" lon="1.49896">
        <ele>796</ele>
        <time>2026-06-28T04:30:57.000Z</time>
      </trkpt>
      <trkpt lat="42.76697" lon="1.49899">
        <ele>797</ele>
        <time>2026-06-28T04:30:58.000Z</time>
      </trkpt>
      <trkpt lat="42.76696" lon="1.49902">
        <ele>797</ele>
        <time>2026-06-28T04:30:59.000Z</time>
      </trkpt>
      <trkpt lat="42.76696" lon="1.49905">
        <ele>797</ele>
        <time>2026-06-28T04:31:00.000Z</time>
      </trkpt>
      <trkpt lat="42.76695" lon="1.49909">
        <ele>797</ele>
        <time>2026-06-28T04:31:01.000Z</time>
      </trkpt>
      <trkpt lat="42.76695" lon="1.49912">
        <ele>797</ele>
        <time>2026-06-28T04:31:02.000Z</time>
      </trkpt>
      <trkpt lat="42.76693" lon="1.49915">
        <ele>798</ele>
        <time>2026-06-28T04:31:03.000Z</time>
      </trkpt>
      <trkpt lat="42.76692" lon="1.49918">
        <ele>798</ele>
        <time>2026-06-28T04:31:04.000Z</time>
      </trkpt>
      <trkpt lat="42.76692" lon="1.49921">
        <ele>799</ele>
        <time>2026-06-28T04:31:05.000Z</time>
      </trkpt>
      <trkpt lat="42.76691" lon="1.49924">
        <ele>799</ele>
        <time>2026-06-28T04:31:06.000Z</time>
      </trkpt>
      <trkpt lat="42.7669" lon="1.49928">
        <ele>799</ele>
        <time>2026-06-28T04:31:07.000Z</time>
      </trkpt>
      <trkpt lat="42.76689" lon="1.49931">
        <ele>799</ele>
        <time>2026-06-28T04:31:08.000Z</time>
      </trkpt>
      <trkpt lat="42.76688" lon="1.49935">
        <ele>799</ele>
        <time>2026-06-28T04:31:09.000Z</time>
      </trkpt>
      <trkpt lat="42.76688" lon="1.49939">
        <ele>800</ele>
        <time>2026-06-28T04:31:10.000Z</time>
      </trkpt>
      <trkpt lat="42.76687" lon="1.49942">
        <ele>800</ele>
        <time>2026-06-28T04:31:11.000Z</time>
      </trkpt>
      <trkpt lat="42.76686" lon="1.49945">
        <ele>800</ele>
        <time>2026-06-28T04:31:12.000Z</time>
      </trkpt>
      <trkpt lat="42.76685" lon="1.49948">
        <ele>801</ele>
        <time>2026-06-28T04:31:13.000Z</time>
      </trkpt>
      <trkpt lat="42.76683" lon="1.49951">
        <ele>801</ele>
        <time>2026-06-28T04:31:14.000Z</time>
      </trkpt>
      <trkpt lat="42.76682" lon="1.49954">
        <ele>801</ele>
        <time>2026-06-28T04:31:15.000Z</time>
      </trkpt>
      <trkpt lat="42.7668" lon="1.49957">
        <ele>801</ele>
        <time>2026-06-28T04:31:16.000Z</time>
      </trkpt>
      <trkpt lat="42.76678" lon="1.4996">
        <ele>801</ele>
        <time>2026-06-28T04:31:17.000Z</time>
      </trkpt>
      <trkpt lat="42.76677" lon="1.49964">
        <ele>801</ele>
        <time>2026-06-28T04:31:18.000Z</time>
      </trkpt>
      <trkpt lat="42.76675" lon="1.49966">
        <ele>801</ele>
        <time>2026-06-28T04:31:19.000Z</time>
      </trkpt>
      <trkpt lat="42.76674" lon="1.49968">
        <ele>801</ele>
        <time>2026-06-28T04:31:20.000Z</time>
      </trkpt>
      <trkpt lat="42.76673" lon="1.49971">
        <ele>801</ele>
        <time>2026-06-28T04:31:21.000Z</time>
      </trkpt>
      <trkpt lat="42.76671" lon="1.49973">
        <ele>801</ele>
        <time>2026-06-28T04:31:22.000Z</time>
      </trkpt>
      <trkpt lat="42.76669" lon="1.49976">
        <ele>801</ele>
        <time>2026-06-28T04:31:23.000Z</time>
      </trkpt>
      <trkpt lat="42.76668" lon="1.49978">
        <ele>801</ele>
        <time>2026-06-28T04:31:24.000Z</time>
      </trkpt>
      <trkpt lat="42.76666" lon="1.49981">
        <ele>801</ele>
        <time>2026-06-28T04:31:25.000Z</time>
      </trkpt>
      <trkpt lat="42.76664" lon="1.49983">
        <ele>801</ele>
        <time>2026-06-28T04:31:26.000Z</time>
      </trkpt>
      <trkpt lat="42.76663" lon="1.49986">
        <ele>801</ele>
        <time>2026-06-28T04:31:27.000Z</time>
      </trkpt>
      <trkpt lat="42.76662" lon="1.49989">
        <ele>802</ele>
        <time>2026-06-28T04:31:28.000Z</time>
      </trkpt>
      <trkpt lat="42.76661" lon="1.49992">
        <ele>802</ele>
        <time>2026-06-28T04:31:29.000Z</time>
      </trkpt>
      <trkpt lat="42.7666" lon="1.49995">
        <ele>802</ele>
        <time>2026-06-28T04:31:30.000Z</time>
      </trkpt>
      <trkpt lat="42.7666" lon="1.49998">
        <ele>802</ele>
        <time>2026-06-28T04:31:31.000Z</time>
      </trkpt>
      <trkpt lat="42.76659" lon="1.50001">
        <ele>803</ele>
        <time>2026-06-28T04:31:32.000Z</time>
      </trkpt>
      <trkpt lat="42.76659" lon="1.50004">
        <ele>803</ele>
        <time>2026-06-28T04:31:33.000Z</time>
      </trkpt>
      <trkpt lat="42.76659" lon="1.50008">
        <ele>804</ele>
        <time>2026-06-28T04:31:34.000Z</time>
      </trkpt>
      <trkpt lat="42.76659" lon="1.50011">
        <ele>804</ele>
        <time>2026-06-28T04:31:35.000Z</time>
      </trkpt>
      <trkpt lat="42.76658" lon="1.50013">
        <ele>804</ele>
        <time>2026-06-28T04:31:36.000Z</time>
      </trkpt>
      <trkpt lat="42.76657" lon="1.50016">
        <ele>804</ele>
        <time>2026-06-28T04:31:37.000Z</time>
      </trkpt>
      <trkpt lat="42.76658" lon="1.50018">
        <ele>804</ele>
        <time>2026-06-28T04:31:38.000Z</time>
      </trkpt>
      <trkpt lat="42.76657" lon="1.5002">
        <ele>805</ele>
        <time>2026-06-28T04:31:39.000Z</time>
      </trkpt>
      <trkpt lat="42.76658" lon="1.50023">
        <ele>805</ele>
        <time>2026-06-28T04:31:40.000Z</time>
      </trkpt>
      <trkpt lat="42.76657" lon="1.50026">
        <ele>805</ele>
        <time>2026-06-28T04:31:41.000Z</time>
      </trkpt>
      <trkpt lat="42.76656" lon="1.5003">
        <ele>805</ele>
        <time>2026-06-28T04:31:42.000Z</time>
      </trkpt>
      <trkpt lat="42.76657" lon="1.50033">
        <ele>806</ele>
        <time>2026-06-28T04:31:43.000Z</time>
      </trkpt>
      <trkpt lat="42.76657" lon="1.50036">
        <ele>807</ele>
        <time>2026-06-28T04:31:44.000Z</time>
      </trkpt>
      <trkpt lat="42.76658" lon="1.50039">
        <ele>808</ele>
        <time>2026-06-28T04:31:45.000Z</time>
      </trkpt>
      <trkpt lat="42.76658" lon="1.50041">
        <ele>809</ele>
        <time>2026-06-28T04:31:46.000Z</time>
      </trkpt>
      <trkpt lat="42.76659" lon="1.50043">
        <ele>809</ele>
        <time>2026-06-28T04:31:47.000Z</time>
      </trkpt>
      <trkpt lat="42.76659" lon="1.50046">
        <ele>810</ele>
        <time>2026-06-28T04:31:48.000Z</time>
      </trkpt>
      <trkpt lat="42.7666" lon="1.50048">
        <ele>811</ele>
        <time>2026-06-28T04:31:49.000Z</time>
      </trkpt>
      <trkpt lat="42.7666" lon="1.5005">
        <ele>811</ele>
        <time>2026-06-28T04:31:50.000Z</time>
      </trkpt>
      <trkpt lat="42.76661" lon="1.50052">
        <ele>812</ele>
        <time>2026-06-28T04:31:51.000Z</time>
      </trkpt>
      <trkpt lat="42.76661" lon="1.50055">
        <ele>813</ele>
        <time>2026-06-28T04:31:52.000Z</time>
      </trkpt>
      <trkpt lat="42.76661" lon="1.50057">
        <ele>813</ele>
        <time>2026-06-28T04:31:53.000Z</time>
      </trkpt>
      <trkpt lat="42.76661" lon="1.5006">
        <ele>814</ele>
        <time>2026-06-28T04:31:54.000Z</time>
      </trkpt>
      <trkpt lat="42.76662" lon="1.50062">
        <ele>815</ele>
        <time>2026-06-28T04:31:55.000Z</time>
      </trkpt>
      <trkpt lat="42.76662" lon="1.50065">
        <ele>816</ele>
        <time>2026-06-28T04:31:56.000Z</time>
      </trkpt>
      <trkpt lat="42.76663" lon="1.50067">
        <ele>817</ele>
        <time>2026-06-28T04:31:57.000Z</time>
      </trkpt>
      <trkpt lat="42.76663" lon="1.5007">
        <ele>818</ele>
        <time>2026-06-28T04:31:58.000Z</time>
      </trkpt>
      <trkpt lat="42.76663" lon="1.50073">
        <ele>818</ele>
        <time>2026-06-28T04:31:59.000Z</time>
      </trkpt>
      <trkpt lat="42.76663" lon="1.50076">
        <ele>818</ele>
        <time>2026-06-28T04:32:00.000Z</time>
      </trkpt>
      <trkpt lat="42.76663" lon="1.50079">
        <ele>818</ele>
        <time>2026-06-28T04:32:01.000Z</time>
      </trkpt>
      <trkpt lat="42.76664" lon="1.50083">
        <ele>819</ele>
        <time>2026-06-28T04:32:02.000Z</time>
      </trkpt>
      <trkpt lat="42.76664" lon="1.50086">
        <ele>819</ele>
        <time>2026-06-28T04:32:03.000Z</time>
      </trkpt>
      <trkpt lat="42.76664" lon="1.50089">
        <ele>820</ele>
        <time>2026-06-28T04:32:04.000Z</time>
      </trkpt>
      <trkpt lat="42.76664" lon="1.50091">
        <ele>821</ele>
        <time>2026-06-28T04:32:05.000Z</time>
      </trkpt>
      <trkpt lat="42.76664" lon="1.50094">
        <ele>821</ele>
        <time>2026-06-28T04:32:06.000Z</time>
      </trkpt>
      <trkpt lat="42.76665" lon="1.50097">
        <ele>822</ele>
        <time>2026-06-28T04:32:07.000Z</time>
      </trkpt>
      <trkpt lat="42.76665" lon="1.501">
        <ele>823</ele>
        <time>2026-06-28T04:32:08.000Z</time>
      </trkpt>
      <trkpt lat="42.76666" lon="1.50103">
        <ele>823</ele>
        <time>2026-06-28T04:32:09.000Z</time>
      </trkpt>
      <trkpt lat="42.76666" lon="1.50106">
        <ele>824</ele>
        <time>2026-06-28T04:32:10.000Z</time>
      </trkpt>
      <trkpt lat="42.76666" lon="1.50108">
        <ele>824</ele>
        <time>2026-06-28T04:32:11.000Z</time>
      </trkpt>
      <trkpt lat="42.76666" lon="1.50111">
        <ele>825</ele>
        <time>2026-06-28T04:32:12.000Z</time>
      </trkpt>
      <trkpt lat="42.76667" lon="1.50112">
        <ele>825</ele>
        <time>2026-06-28T04:32:13.000Z</time>
      </trkpt>
      <trkpt lat="42.76667" lon="1.50115">
        <ele>826</ele>
        <time>2026-06-28T04:32:14.000Z</time>
      </trkpt>
      <trkpt lat="42.76668" lon="1.50118">
        <ele>825</ele>
        <time>2026-06-28T04:32:15.000Z</time>
      </trkpt>
      <trkpt lat="42.76669" lon="1.50122">
        <ele>823</ele>
        <time>2026-06-28T04:32:16.000Z</time>
      </trkpt>
      <trkpt lat="42.76669" lon="1.50124">
        <ele>823</ele>
        <time>2026-06-28T04:32:17.000Z</time>
      </trkpt>
      <trkpt lat="42.7667" lon="1.50126">
        <ele>824</ele>
        <time>2026-06-28T04:32:18.000Z</time>
      </trkpt>
      <trkpt lat="42.7667" lon="1.50128">
        <ele>825</ele>
        <time>2026-06-28T04:32:19.000Z</time>
      </trkpt>
      <trkpt lat="42.7667" lon="1.5013">
        <ele>825</ele>
        <time>2026-06-28T04:32:20.000Z</time>
      </trkpt>
      <trkpt lat="42.76671" lon="1.50132">
        <ele>826</ele>
        <time>2026-06-28T04:32:21.000Z</time>
      </trkpt>
      <trkpt lat="42.76672" lon="1.50135">
        <ele>826</ele>
        <time>2026-06-28T04:32:22.000Z</time>
      </trkpt>
      <trkpt lat="42.76673" lon="1.50139">
        <ele>826</ele>
        <time>2026-06-28T04:32:23.000Z</time>
      </trkpt>
      <trkpt lat="42.76673" lon="1.50142">
        <ele>827</ele>
        <time>2026-06-28T04:32:24.000Z</time>
      </trkpt>
      <trkpt lat="42.76673" lon="1.50145">
        <ele>827</ele>
        <time>2026-06-28T04:32:25.000Z</time>
      </trkpt>
      <trkpt lat="42.76674" lon="1.50148">
        <ele>827</ele>
        <time>2026-06-28T04:32:26.000Z</time>
      </trkpt>
      <trkpt lat="42.76674" lon="1.50151">
        <ele>826</ele>
        <time>2026-06-28T04:32:27.000Z</time>
      </trkpt>
      <trkpt lat="42.76674" lon="1.50154">
        <ele>827</ele>
        <time>2026-06-28T04:32:28.000Z</time>
      </trkpt>
      <trkpt lat="42.76674" lon="1.50157">
        <ele>826</ele>
        <time>2026-06-28T04:32:29.000Z</time>
      </trkpt>
      <trkpt lat="42.76674" lon="1.5016">
        <ele>826</ele>
        <time>2026-06-28T04:32:30.000Z</time>
      </trkpt>
      <trkpt lat="42.76674" lon="1.50163">
        <ele>826</ele>
        <time>2026-06-28T04:32:31.000Z</time>
      </trkpt>
      <trkpt lat="42.76674" lon="1.50166">
        <ele>826</ele>
        <time>2026-06-28T04:32:32.000Z</time>
      </trkpt>
      <trkpt lat="42.76675" lon="1.50169">
        <ele>826</ele>
        <time>2026-06-28T04:32:33.000Z</time>
      </trkpt>
      <trkpt lat="42.76676" lon="1.50172">
        <ele>826</ele>
        <time>2026-06-28T04:32:34.000Z</time>
      </trkpt>
      <trkpt lat="42.76676" lon="1.50174">
        <ele>826</ele>
        <time>2026-06-28T04:32:35.000Z</time>
      </trkpt>
      <trkpt lat="42.76677" lon="1.50177">
        <ele>826</ele>
        <time>2026-06-28T04:32:36.000Z</time>
      </trkpt>
      <trkpt lat="42.76678" lon="1.5018">
        <ele>826</ele>
        <time>2026-06-28T04:32:37.000Z</time>
      </trkpt>
      <trkpt lat="42.76679" lon="1.50182">
        <ele>826</ele>
        <time>2026-06-28T04:32:38.000Z</time>
      </trkpt>
      <trkpt lat="42.76679" lon="1.50185">
        <ele>826</ele>
        <time>2026-06-28T04:32:39.000Z</time>
      </trkpt>
      <trkpt lat="42.7668" lon="1.50188">
        <ele>825</ele>
        <time>2026-06-28T04:32:40.000Z</time>
      </trkpt>
      <trkpt lat="42.7668" lon="1.50191">
        <ele>825</ele>
        <time>2026-06-28T04:32:41.000Z</time>
      </trkpt>
      <trkpt lat="42.76681" lon="1.50194">
        <ele>824</ele>
        <time>2026-06-28T04:32:42.000Z</time>
      </trkpt>
      <trkpt lat="42.76683" lon="1.50197">
        <ele>824</ele>
        <time>2026-06-28T04:32:43.000Z</time>
      </trkpt>
      <trkpt lat="42.76683" lon="1.502">
        <ele>824</ele>
        <time>2026-06-28T04:32:44.000Z</time>
      </trkpt>
      <trkpt lat="42.76684" lon="1.50203">
        <ele>824</ele>
        <time>2026-06-28T04:32:45.000Z</time>
      </trkpt>
      <trkpt lat="42.76684" lon="1.50206">
        <ele>824</ele>
        <time>2026-06-28T04:32:46.000Z</time>
      </trkpt>
      <trkpt lat="42.76685" lon="1.50209">
        <ele>824</ele>
        <time>2026-06-28T04:32:47.000Z</time>
      </trkpt>
      <trkpt lat="42.76686" lon="1.50212">
        <ele>823</ele>
        <time>2026-06-28T04:32:48.000Z</time>
      </trkpt>
      <trkpt lat="42.76687" lon="1.50215">
        <ele>823</ele>
        <time>2026-06-28T04:32:49.000Z</time>
      </trkpt>
      <trkpt lat="42.76688" lon="1.50218">
        <ele>822</ele>
        <time>2026-06-28T04:32:50.000Z</time>
      </trkpt>
      <trkpt lat="42.76689" lon="1.50221">
        <ele>822</ele>
        <time>2026-06-28T04:32:51.000Z</time>
      </trkpt>
      <trkpt lat="42.7669" lon="1.50224">
        <ele>821</ele>
        <time>2026-06-28T04:32:52.000Z</time>
      </trkpt>
      <trkpt lat="42.76691" lon="1.50227">
        <ele>820</ele>
        <time>2026-06-28T04:32:53.000Z</time>
      </trkpt>
      <trkpt lat="42.76692" lon="1.5023">
        <ele>820</ele>
        <time>2026-06-28T04:32:54.000Z</time>
      </trkpt>
      <trkpt lat="42.76693" lon="1.50233">
        <ele>820</ele>
        <time>2026-06-28T04:32:55.000Z</time>
      </trkpt>
      <trkpt lat="42.76694" lon="1.50236">
        <ele>820</ele>
        <time>2026-06-28T04:32:56.000Z</time>
      </trkpt>
      <trkpt lat="42.76696" lon="1.50239">
        <ele>820</ele>
        <time>2026-06-28T04:32:57.000Z</time>
      </trkpt>
      <trkpt lat="42.76697" lon="1.50243">
        <ele>820</ele>
        <time>2026-06-28T04:32:58.000Z</time>
      </trkpt>
      <trkpt lat="42.76698" lon="1.50245">
        <ele>820</ele>
        <time>2026-06-28T04:32:59.000Z</time>
      </trkpt>
      <trkpt lat="42.76698" lon="1.50248">
        <ele>820</ele>
        <time>2026-06-28T04:33:00.000Z</time>
      </trkpt>
      <trkpt lat="42.76699" lon="1.50251">
        <ele>820</ele>
        <time>2026-06-28T04:33:01.000Z</time>
      </trkpt>
      <trkpt lat="42.767" lon="1.50254">
        <ele>820</ele>
        <time>2026-06-28T04:33:02.000Z</time>
      </trkpt>
      <trkpt lat="42.767" lon="1.50258">
        <ele>819</ele>
        <time>2026-06-28T04:33:03.000Z</time>
      </trkpt>
      <trkpt lat="42.76699" lon="1.50261">
        <ele>819</ele>
        <time>2026-06-28T04:33:04.000Z</time>
      </trkpt>
      <trkpt lat="42.76699" lon="1.50264">
        <ele>820</ele>
        <time>2026-06-28T04:33:05.000Z</time>
      </trkpt>
      <trkpt lat="42.76697" lon="1.50266">
        <ele>820</ele>
        <time>2026-06-28T04:33:06.000Z</time>
      </trkpt>
      <trkpt lat="42.76695" lon="1.50268">
        <ele>820</ele>
        <time>2026-06-28T04:33:07.000Z</time>
      </trkpt>
      <trkpt lat="42.76694" lon="1.50268">
        <ele>820</ele>
        <time>2026-06-28T04:33:08.000Z</time>
      </trkpt>
      <trkpt lat="42.76692" lon="1.50268">
        <ele>819</ele>
        <time>2026-06-28T04:33:09.000Z</time>
      </trkpt>
      <trkpt lat="42.7669" lon="1.50267">
        <ele>820</ele>
        <time>2026-06-28T04:33:10.000Z</time>
      </trkpt>
      <trkpt lat="42.76689" lon="1.50265">
        <ele>822</ele>
        <time>2026-06-28T04:33:11.000Z</time>
      </trkpt>
      <trkpt lat="42.76688" lon="1.50263">
        <ele>822</ele>
        <time>2026-06-28T04:33:12.000Z</time>
      </trkpt>
      <trkpt lat="42.76688" lon="1.50261">
        <ele>823</ele>
        <time>2026-06-28T04:33:13.000Z</time>
      </trkpt>
      <trkpt lat="42.76688" lon="1.50259">
        <ele>824</ele>
        <time>2026-06-28T04:33:14.000Z</time>
      </trkpt>
      <trkpt lat="42.76688" lon="1.50256">
        <ele>824</ele>
        <time>2026-06-28T04:33:15.000Z</time>
      </trkpt>
      <trkpt lat="42.76687" lon="1.50254">
        <ele>825</ele>
        <time>2026-06-28T04:33:16.000Z</time>
      </trkpt>
      <trkpt lat="42.76687" lon="1.50252">
        <ele>825</ele>
        <time>2026-06-28T04:33:17.000Z</time>
      </trkpt>
      <trkpt lat="42.76686" lon="1.5025">
        <ele>826</ele>
        <time>2026-06-28T04:33:18.000Z</time>
      </trkpt>
      <trkpt lat="42.76686" lon="1.50248">
        <ele>826</ele>
        <time>2026-06-28T04:33:19.000Z</time>
      </trkpt>
      <trkpt lat="42.76686" lon="1.50246">
        <ele>826</ele>
        <time>2026-06-28T04:33:20.000Z</time>
      </trkpt>
      <trkpt lat="42.76685" lon="1.50245">
        <ele>826</ele>
        <time>2026-06-28T04:33:21.000Z</time>
      </trkpt>
      <trkpt lat="42.76685" lon="1.50242">
        <ele>826</ele>
        <time>2026-06-28T04:33:22.000Z</time>
      </trkpt>
      <trkpt lat="42.76684" lon="1.50241">
        <ele>827</ele>
        <time>2026-06-28T04:33:23.000Z</time>
      </trkpt>
      <trkpt lat="42.76684" lon="1.50238">
        <ele>826</ele>
        <time>2026-06-28T04:33:24.000Z</time>
      </trkpt>
      <trkpt lat="42.76683" lon="1.50236">
        <ele>827</ele>
        <time>2026-06-28T04:33:25.000Z</time>
      </trkpt>
      <trkpt lat="42.76683" lon="1.50235">
        <ele>827</ele>
        <time>2026-06-28T04:33:26.000Z</time>
      </trkpt>
      <trkpt lat="42.76682" lon="1.50233">
        <ele>828</ele>
        <time>2026-06-28T04:33:27.000Z</time>
      </trkpt>
      <trkpt lat="42.76682" lon="1.50231">
        <ele>829</ele>
        <time>2026-06-28T04:33:28.000Z</time>
      </trkpt>
      <trkpt lat="42.76681" lon="1.50229">
        <ele>830</ele>
        <time>2026-06-28T04:33:29.000Z</time>
      </trkpt>
      <trkpt lat="42.7668" lon="1.50227">
        <ele>830</ele>
        <time>2026-06-28T04:33:30.000Z</time>
      </trkpt>
      <trkpt lat="42.76679" lon="1.50225">
        <ele>830</ele>
        <time>2026-06-28T04:33:31.000Z</time>
      </trkpt>
      <trkpt lat="42.76679" lon="1.50223">
        <ele>831</ele>
        <time>2026-06-28T04:33:32.000Z</time>
      </trkpt>
      <trkpt lat="42.76678" lon="1.50221">
        <ele>830</ele>
        <time>2026-06-28T04:33:33.000Z</time>
      </trkpt>
      <trkpt lat="42.76677" lon="1.5022">
        <ele>830</ele>
        <time>2026-06-28T04:33:34.000Z</time>
      </trkpt>
      <trkpt lat="42.76676" lon="1.50218">
        <ele>831</ele>
        <time>2026-06-28T04:33:35.000Z</time>
      </trkpt>
      <trkpt lat="42.76675" lon="1.50216">
        <ele>830</ele>
        <time>2026-06-28T04:33:36.000Z</time>
      </trkpt>
      <trkpt lat="42.76675" lon="1.50214">
        <ele>830</ele>
        <time>2026-06-28T04:33:37.000Z</time>
      </trkpt>
      <trkpt lat="42.76674" lon="1.50212">
        <ele>830</ele>
        <time>2026-06-28T04:33:38.000Z</time>
      </trkpt>
      <trkpt lat="42.76673" lon="1.5021">
        <ele>830</ele>
        <time>2026-06-28T04:33:39.000Z</time>
      </trkpt>
      <trkpt lat="42.76672" lon="1.50208">
        <ele>831</ele>
        <time>2026-06-28T04:33:40.000Z</time>
      </trkpt>
      <trkpt lat="42.76671" lon="1.50206">
        <ele>831</ele>
        <time>2026-06-28T04:33:41.000Z</time>
      </trkpt>
      <trkpt lat="42.7667" lon="1.50205">
        <ele>831</ele>
        <time>2026-06-28T04:33:42.000Z</time>
      </trkpt>
      <trkpt lat="42.76669" lon="1.50203">
        <ele>831</ele>
        <time>2026-06-28T04:33:43.000Z</time>
      </trkpt>
      <trkpt lat="42.76669" lon="1.50202">
        <ele>832</ele>
        <time>2026-06-28T04:33:44.000Z</time>
      </trkpt>
      <trkpt lat="42.76667" lon="1.502">
        <ele>832</ele>
        <time>2026-06-28T04:33:45.000Z</time>
      </trkpt>
      <trkpt lat="42.76667" lon="1.50198">
        <ele>832</ele>
        <time>2026-06-28T04:33:46.000Z</time>
      </trkpt>
      <trkpt lat="42.76665" lon="1.50196">
        <ele>831</ele>
        <time>2026-06-28T04:33:47.000Z</time>
      </trkpt>
      <trkpt lat="42.76665" lon="1.50194">
        <ele>832</ele>
        <time>2026-06-28T04:33:48.000Z</time>
      </trkpt>
      <trkpt lat="42.76664" lon="1.50192">
        <ele>832</ele>
        <time>2026-06-28T04:33:49.000Z</time>
      </trkpt>
      <trkpt lat="42.76663" lon="1.50191">
        <ele>832</ele>
        <time>2026-06-28T04:33:50.000Z</time>
      </trkpt>
      <trkpt lat="42.76662" lon="1.50189">
        <ele>832</ele>
        <time>2026-06-28T04:33:51.000Z</time>
      </trkpt>
      <trkpt lat="42.76662" lon="1.50187">
        <ele>833</ele>
        <time>2026-06-28T04:33:52.000Z</time>
      </trkpt>
      <trkpt lat="42.76661" lon="1.50185">
        <ele>833</ele>
        <time>2026-06-28T04:33:53.000Z</time>
      </trkpt>
      <trkpt lat="42.7666" lon="1.50183">
        <ele>834</ele>
        <time>2026-06-28T04:33:54.000Z</time>
      </trkpt>
      <trkpt lat="42.7666" lon="1.50182">
        <ele>834</ele>
        <time>2026-06-28T04:33:55.000Z</time>
      </trkpt>
      <trkpt lat="42.76659" lon="1.5018">
        <ele>835</ele>
        <time>2026-06-28T04:33:56.000Z</time>
      </trkpt>
      <trkpt lat="42.76659" lon="1.50178">
        <ele>835</ele>
        <time>2026-06-28T04:33:57.000Z</time>
      </trkpt>
      <trkpt lat="42.76658" lon="1.50177">
        <ele>835</ele>
        <time>2026-06-28T04:33:58.000Z</time>
      </trkpt>
      <trkpt lat="42.76657" lon="1.50175">
        <ele>835</ele>
        <time>2026-06-28T04:33:59.000Z</time>
      </trkpt>
      <trkpt lat="42.76657" lon="1.50174">
        <ele>835</ele>
        <time>2026-06-28T04:34:00.000Z</time>
      </trkpt>
      <trkpt lat="42.76656" lon="1.50172">
        <ele>836</ele>
        <time>2026-06-28T04:34:01.000Z</time>
      </trkpt>
      <trkpt lat="42.76654" lon="1.5017">
        <ele>836</ele>
        <time>2026-06-28T04:34:02.000Z</time>
      </trkpt>
      <trkpt lat="42.76654" lon="1.50167">
        <ele>836</ele>
        <time>2026-06-28T04:34:03.000Z</time>
      </trkpt>
      <trkpt lat="42.76653" lon="1.50165">
        <ele>837</ele>
        <time>2026-06-28T04:34:04.000Z</time>
      </trkpt>
      <trkpt lat="42.76652" lon="1.50163">
        <ele>837</ele>
        <time>2026-06-28T04:34:05.000Z</time>
      </trkpt>
      <trkpt lat="42.76651" lon="1.50161">
        <ele>837</ele>
        <time>2026-06-28T04:34:06.000Z</time>
      </trkpt>
      <trkpt lat="42.7665" lon="1.50158">
        <ele>837</ele>
        <time>2026-06-28T04:34:07.000Z</time>
      </trkpt>
      <trkpt lat="42.76649" lon="1.50156">
        <ele>837</ele>
        <time>2026-06-28T04:34:08.000Z</time>
      </trkpt>
      <trkpt lat="42.76648" lon="1.50154">
        <ele>838</ele>
        <time>2026-06-28T04:34:09.000Z</time>
      </trkpt>
      <trkpt lat="42.76647" lon="1.50152">
        <ele>838</ele>
        <time>2026-06-28T04:34:10.000Z</time>
      </trkpt>
      <trkpt lat="42.76647" lon="1.50149">
        <ele>838</ele>
        <time>2026-06-28T04:34:11.000Z</time>
      </trkpt>
      <trkpt lat="42.76646" lon="1.50146">
        <ele>839</ele>
        <time>2026-06-28T04:34:12.000Z</time>
      </trkpt>
      <trkpt lat="42.76645" lon="1.50143">
        <ele>838</ele>
        <time>2026-06-28T04:34:13.000Z</time>
      </trkpt>
      <trkpt lat="42.76644" lon="1.50141">
        <ele>839</ele>
        <time>2026-06-28T04:34:14.000Z</time>
      </trkpt>
      <trkpt lat="42.76643" lon="1.50139">
        <ele>840</ele>
        <time>2026-06-28T04:34:15.000Z</time>
      </trkpt>
      <trkpt lat="42.76642" lon="1.50136">
        <ele>840</ele>
        <time>2026-06-28T04:34:16.000Z</time>
      </trkpt>
      <trkpt lat="42.76641" lon="1.50134">
        <ele>840</ele>
        <time>2026-06-28T04:34:17.000Z</time>
      </trkpt>
      <trkpt lat="42.7664" lon="1.50131">
        <ele>840</ele>
        <time>2026-06-28T04:34:18.000Z</time>
      </trkpt>
      <trkpt lat="42.7664" lon="1.50128">
        <ele>840</ele>
        <time>2026-06-28T04:34:19.000Z</time>
      </trkpt>
      <trkpt lat="42.76639" lon="1.50125">
        <ele>840</ele>
        <time>2026-06-28T04:34:20.000Z</time>
      </trkpt>
      <trkpt lat="42.76638" lon="1.50123">
        <ele>841</ele>
        <time>2026-06-28T04:34:21.000Z</time>
      </trkpt>
      <trkpt lat="42.76638" lon="1.5012">
        <ele>840</ele>
        <time>2026-06-28T04:34:22.000Z</time>
      </trkpt>
      <trkpt lat="42.76638" lon="1.50118">
        <ele>841</ele>
        <time>2026-06-28T04:34:23.000Z</time>
      </trkpt>
      <trkpt lat="42.76637" lon="1.50115">
        <ele>841</ele>
        <time>2026-06-28T04:34:24.000Z</time>
      </trkpt>
      <trkpt lat="42.76636" lon="1.50113">
        <ele>842</ele>
        <time>2026-06-28T04:34:25.000Z</time>
      </trkpt>
      <trkpt lat="42.76635" lon="1.5011">
        <ele>842</ele>
        <time>2026-06-28T04:34:26.000Z</time>
      </trkpt>
      <trkpt lat="42.76634" lon="1.50107">
        <ele>842</ele>
        <time>2026-06-28T04:34:27.000Z</time>
      </trkpt>
      <trkpt lat="42.76634" lon="1.50104">
        <ele>842</ele>
        <time>2026-06-28T04:34:28.000Z</time>
      </trkpt>
      <trkpt lat="42.76633" lon="1.50102">
        <ele>843</ele>
        <time>2026-06-28T04:34:29.000Z</time>
      </trkpt>
      <trkpt lat="42.76632" lon="1.501">
        <ele>842</ele>
        <time>2026-06-28T04:34:30.000Z</time>
      </trkpt>
      <trkpt lat="42.76631" lon="1.50098">
        <ele>842</ele>
        <time>2026-06-28T04:34:31.000Z</time>
      </trkpt>
      <trkpt lat="42.7663" lon="1.50095">
        <ele>842</ele>
        <time>2026-06-28T04:34:32.000Z</time>
      </trkpt>
      <trkpt lat="42.76629" lon="1.50092">
        <ele>843</ele>
        <time>2026-06-28T04:34:33.000Z</time>
      </trkpt>
      <trkpt lat="42.76629" lon="1.50089">
        <ele>843</ele>
        <time>2026-06-28T04:34:34.000Z</time>
      </trkpt>
      <trkpt lat="42.76628" lon="1.50087">
        <ele>843</ele>
        <time>2026-06-28T04:34:35.000Z</time>
      </trkpt>
      <trkpt lat="42.76627" lon="1.50085">
        <ele>843</ele>
        <time>2026-06-28T04:34:36.000Z</time>
      </trkpt>
      <trkpt lat="42.76626" lon="1.50083">
        <ele>844</ele>
        <time>2026-06-28T04:34:37.000Z</time>
      </trkpt>
      <trkpt lat="42.76626" lon="1.50082">
        <ele>844</ele>
        <time>2026-06-28T04:34:38.000Z</time>
      </trkpt>
      <trkpt lat="42.76625" lon="1.50079">
        <ele>845</ele>
        <time>2026-06-28T04:34:39.000Z</time>
      </trkpt>
      <trkpt lat="42.76624" lon="1.50077">
        <ele>846</ele>
        <time>2026-06-28T04:34:40.000Z</time>
      </trkpt>
      <trkpt lat="42.76623" lon="1.50075">
        <ele>846</ele>
        <time>2026-06-28T04:34:41.000Z</time>
      </trkpt>
      <trkpt lat="42.76622" lon="1.50073">
        <ele>846</ele>
        <time>2026-06-28T04:34:42.000Z</time>
      </trkpt>
      <trkpt lat="42.76621" lon="1.5007">
        <ele>846</ele>
        <time>2026-06-28T04:34:43.000Z</time>
      </trkpt>
      <trkpt lat="42.76619" lon="1.50068">
        <ele>845</ele>
        <time>2026-06-28T04:34:44.000Z</time>
      </trkpt>
      <trkpt lat="42.76618" lon="1.50066">
        <ele>845</ele>
        <time>2026-06-28T04:34:45.000Z</time>
      </trkpt>
      <trkpt lat="42.76618" lon="1.50063">
        <ele>846</ele>
        <time>2026-06-28T04:34:46.000Z</time>
      </trkpt>
      <trkpt lat="42.76617" lon="1.50061">
        <ele>846</ele>
        <time>2026-06-28T04:34:47.000Z</time>
      </trkpt>
      <trkpt lat="42.76617" lon="1.50059">
        <ele>846</ele>
        <time>2026-06-28T04:34:48.000Z</time>
      </trkpt>
      <trkpt lat="42.76616" lon="1.50057">
        <ele>846</ele>
        <time>2026-06-28T04:34:49.000Z</time>
      </trkpt>
      <trkpt lat="42.76615" lon="1.50054">
        <ele>847</ele>
        <time>2026-06-28T04:34:50.000Z</time>
      </trkpt>
      <trkpt lat="42.76614" lon="1.50052">
        <ele>847</ele>
        <time>2026-06-28T04:34:51.000Z</time>
      </trkpt>
      <trkpt lat="42.76612" lon="1.50049">
        <ele>847</ele>
        <time>2026-06-28T04:34:52.000Z</time>
      </trkpt>
      <trkpt lat="42.76612" lon="1.50046">
        <ele>847</ele>
        <time>2026-06-28T04:34:53.000Z</time>
      </trkpt>
      <trkpt lat="42.76611" lon="1.50043">
        <ele>848</ele>
        <time>2026-06-28T04:34:54.000Z</time>
      </trkpt>
      <trkpt lat="42.76609" lon="1.5004">
        <ele>848</ele>
        <time>2026-06-28T04:34:55.000Z</time>
      </trkpt>
      <trkpt lat="42.76608" lon="1.50038">
        <ele>848</ele>
        <time>2026-06-28T04:34:56.000Z</time>
      </trkpt>
      <trkpt lat="42.76607" lon="1.50035">
        <ele>848</ele>
        <time>2026-06-28T04:34:57.000Z</time>
      </trkpt>
      <trkpt lat="42.76606" lon="1.50032">
        <ele>848</ele>
        <time>2026-06-28T04:34:58.000Z</time>
      </trkpt>
      <trkpt lat="42.76605" lon="1.5003">
        <ele>848</ele>
        <time>2026-06-28T04:34:59.000Z</time>
      </trkpt>
      <trkpt lat="42.76604" lon="1.50028">
        <ele>849</ele>
        <time>2026-06-28T04:35:00.000Z</time>
      </trkpt>
      <trkpt lat="42.76603" lon="1.50025">
        <ele>849</ele>
        <time>2026-06-28T04:35:01.000Z</time>
      </trkpt>
      <trkpt lat="42.76602" lon="1.50023">
        <ele>849</ele>
        <time>2026-06-28T04:35:02.000Z</time>
      </trkpt>
      <trkpt lat="42.76601" lon="1.50021">
        <ele>850</ele>
        <time>2026-06-28T04:35:03.000Z</time>
      </trkpt>
      <trkpt lat="42.766" lon="1.50019">
        <ele>851</ele>
        <time>2026-06-28T04:35:04.000Z</time>
      </trkpt>
      <trkpt lat="42.766" lon="1.50017">
        <ele>852</ele>
        <time>2026-06-28T04:35:05.000Z</time>
      </trkpt>
      <trkpt lat="42.76599" lon="1.50014">
        <ele>852</ele>
        <time>2026-06-28T04:35:06.000Z</time>
      </trkpt>
      <trkpt lat="42.76598" lon="1.50012">
        <ele>852</ele>
        <time>2026-06-28T04:35:07.000Z</time>
      </trkpt>
      <trkpt lat="42.76597" lon="1.50009">
        <ele>852</ele>
        <time>2026-06-28T04:35:08.000Z</time>
      </trkpt>
      <trkpt lat="42.76596" lon="1.50007">
        <ele>853</ele>
        <time>2026-06-28T04:35:09.000Z</time>
      </trkpt>
      <trkpt lat="42.76596" lon="1.50004">
        <ele>853</ele>
        <time>2026-06-28T04:35:10.000Z</time>
      </trkpt>
      <trkpt lat="42.76595" lon="1.50002">
        <ele>853</ele>
        <time>2026-06-28T04:35:11.000Z</time>
      </trkpt>
      <trkpt lat="42.76594" lon="1.49999">
        <ele>853</ele>
        <time>2026-06-28T04:35:12.000Z</time>
      </trkpt>
      <trkpt lat="42.76593" lon="1.49997">
        <ele>854</ele>
        <time>2026-06-28T04:35:13.000Z</time>
      </trkpt>
      <trkpt lat="42.76592" lon="1.49994">
        <ele>854</ele>
        <time>2026-06-28T04:35:14.000Z</time>
      </trkpt>
      <trkpt lat="42.76591" lon="1.49992">
        <ele>855</ele>
        <time>2026-06-28T04:35:15.000Z</time>
      </trkpt>
      <trkpt lat="42.76591" lon="1.49989">
        <ele>855</ele>
        <time>2026-06-28T04:35:16.000Z</time>
      </trkpt>
      <trkpt lat="42.7659" lon="1.49986">
        <ele>856</ele>
        <time>2026-06-28T04:35:17.000Z</time>
      </trkpt>
      <trkpt lat="42.76589" lon="1.49984">
        <ele>855</ele>
        <time>2026-06-28T04:35:18.000Z</time>
      </trkpt>
      <trkpt lat="42.76589" lon="1.49981">
        <ele>855</ele>
        <time>2026-06-28T04:35:19.000Z</time>
      </trkpt>
      <trkpt lat="42.76589" lon="1.49978">
        <ele>855</ele>
        <time>2026-06-28T04:35:20.000Z</time>
      </trkpt>
      <trkpt lat="42.76588" lon="1.49975">
        <ele>855</ele>
        <time>2026-06-28T04:35:21.000Z</time>
      </trkpt>
      <trkpt lat="42.76587" lon="1.49972">
        <ele>856</ele>
        <time>2026-06-28T04:35:22.000Z</time>
      </trkpt>
      <trkpt lat="42.76586" lon="1.4997">
        <ele>856</ele>
        <time>2026-06-28T04:35:23.000Z</time>
      </trkpt>
      <trkpt lat="42.76586" lon="1.49967">
        <ele>857</ele>
        <time>2026-06-28T04:35:24.000Z</time>
      </trkpt>
      <trkpt lat="42.76585" lon="1.49964">
        <ele>858</ele>
        <time>2026-06-28T04:35:25.000Z</time>
      </trkpt>
      <trkpt lat="42.76585" lon="1.49961">
        <ele>858</ele>
        <time>2026-06-28T04:35:26.000Z</time>
      </trkpt>
      <trkpt lat="42.76585" lon="1.49958">
        <ele>858</ele>
        <time>2026-06-28T04:35:27.000Z</time>
      </trkpt>
      <trkpt lat="42.76584" lon="1.49955">
        <ele>859</ele>
        <time>2026-06-28T04:35:28.000Z</time>
      </trkpt>
      <trkpt lat="42.76584" lon="1.49952">
        <ele>859</ele>
        <time>2026-06-28T04:35:29.000Z</time>
      </trkpt>
      <trkpt lat="42.76583" lon="1.49949">
        <ele>859</ele>
        <time>2026-06-28T04:35:30.000Z</time>
      </trkpt>
      <trkpt lat="42.76582" lon="1.49947">
        <ele>860</ele>
        <time>2026-06-28T04:35:31.000Z</time>
      </trkpt>
      <trkpt lat="42.76581" lon="1.49944">
        <ele>860</ele>
        <time>2026-06-28T04:35:32.000Z</time>
      </trkpt>
      <trkpt lat="42.76581" lon="1.49942">
        <ele>860</ele>
        <time>2026-06-28T04:35:33.000Z</time>
      </trkpt>
      <trkpt lat="42.7658" lon="1.49939">
        <ele>860</ele>
        <time>2026-06-28T04:35:34.000Z</time>
      </trkpt>
      <trkpt lat="42.7658" lon="1.49937">
        <ele>861</ele>
        <time>2026-06-28T04:35:35.000Z</time>
      </trkpt>
      <trkpt lat="42.7658" lon="1.49934">
        <ele>861</ele>
        <time>2026-06-28T04:35:36.000Z</time>
      </trkpt>
      <trkpt lat="42.76579" lon="1.49932">
        <ele>863</ele>
        <time>2026-06-28T04:35:37.000Z</time>
      </trkpt>
      <trkpt lat="42.76578" lon="1.4993">
        <ele>863</ele>
        <time>2026-06-28T04:35:38.000Z</time>
      </trkpt>
      <trkpt lat="42.76577" lon="1.49927">
        <ele>863</ele>
        <time>2026-06-28T04:35:39.000Z</time>
      </trkpt>
      <trkpt lat="42.76577" lon="1.49924">
        <ele>863</ele>
        <time>2026-06-28T04:35:40.000Z</time>
      </trkpt>
      <trkpt lat="42.76576" lon="1.49922">
        <ele>863</ele>
        <time>2026-06-28T04:35:41.000Z</time>
      </trkpt>
      <trkpt lat="42.76576" lon="1.49919">
        <ele>863</ele>
        <time>2026-06-28T04:35:42.000Z</time>
      </trkpt>
      <trkpt lat="42.76576" lon="1.49917">
        <ele>864</ele>
        <time>2026-06-28T04:35:43.000Z</time>
      </trkpt>
      <trkpt lat="42.76575" lon="1.49914">
        <ele>864</ele>
        <time>2026-06-28T04:35:44.000Z</time>
      </trkpt>
      <trkpt lat="42.76574" lon="1.49911">
        <ele>865</ele>
        <time>2026-06-28T04:35:45.000Z</time>
      </trkpt>
      <trkpt lat="42.76574" lon="1.49908">
        <ele>864</ele>
        <time>2026-06-28T04:35:46.000Z</time>
      </trkpt>
      <trkpt lat="42.76573" lon="1.49905">
        <ele>865</ele>
        <time>2026-06-28T04:35:47.000Z</time>
      </trkpt>
      <trkpt lat="42.76573" lon="1.49903">
        <ele>866</ele>
        <time>2026-06-28T04:35:48.000Z</time>
      </trkpt>
      <trkpt lat="42.76572" lon="1.499">
        <ele>866</ele>
        <time>2026-06-28T04:35:49.000Z</time>
      </trkpt>
      <trkpt lat="42.76572" lon="1.49897">
        <ele>867</ele>
        <time>2026-06-28T04:35:50.000Z</time>
      </trkpt>
      <trkpt lat="42.76571" lon="1.49893">
        <ele>867</ele>
        <time>2026-06-28T04:35:51.000Z</time>
      </trkpt>
      <trkpt lat="42.76572" lon="1.4989">
        <ele>867</ele>
        <time>2026-06-28T04:35:52.000Z</time>
      </trkpt>
      <trkpt lat="42.76571" lon="1.49887">
        <ele>867</ele>
        <time>2026-06-28T04:35:53.000Z</time>
      </trkpt>
      <trkpt lat="42.76571" lon="1.49884">
        <ele>868</ele>
        <time>2026-06-28T04:35:54.000Z</time>
      </trkpt>
      <trkpt lat="42.7657" lon="1.49882">
        <ele>868</ele>
        <time>2026-06-28T04:35:55.000Z</time>
      </trkpt>
      <trkpt lat="42.7657" lon="1.4988">
        <ele>868</ele>
        <time>2026-06-28T04:35:56.000Z</time>
      </trkpt>
      <trkpt lat="42.76569" lon="1.49877">
        <ele>868</ele>
        <time>2026-06-28T04:35:57.000Z</time>
      </trkpt>
      <trkpt lat="42.76569" lon="1.49875">
        <ele>868</ele>
        <time>2026-06-28T04:35:58.000Z</time>
      </trkpt>
      <trkpt lat="42.76569" lon="1.49872">
        <ele>868</ele>
        <time>2026-06-28T04:35:59.000Z</time>
      </trkpt>
      <trkpt lat="42.76568" lon="1.49869">
        <ele>868</ele>
        <time>2026-06-28T04:36:00.000Z</time>
      </trkpt>
      <trkpt lat="42.76568" lon="1.49867">
        <ele>869</ele>
        <time>2026-06-28T04:36:01.000Z</time>
      </trkpt>
      <trkpt lat="42.76568" lon="1.49864">
        <ele>870</ele>
        <time>2026-06-28T04:36:02.000Z</time>
      </trkpt>
      <trkpt lat="42.76568" lon="1.49862">
        <ele>871</ele>
        <time>2026-06-28T04:36:03.000Z</time>
      </trkpt>
      <trkpt lat="42.76568" lon="1.49859">
        <ele>870</ele>
        <time>2026-06-28T04:36:04.000Z</time>
      </trkpt>
      <trkpt lat="42.76568" lon="1.49856">
        <ele>871</ele>
        <time>2026-06-28T04:36:05.000Z</time>
      </trkpt>
      <trkpt lat="42.76568" lon="1.49853">
        <ele>871</ele>
        <time>2026-06-28T04:36:06.000Z</time>
      </trkpt>
      <trkpt lat="42.76568" lon="1.4985">
        <ele>871</ele>
        <time>2026-06-28T04:36:07.000Z</time>
      </trkpt>
      <trkpt lat="42.76568" lon="1.49847">
        <ele>871</ele>
        <time>2026-06-28T04:36:08.000Z</time>
      </trkpt>
      <trkpt lat="42.76568" lon="1.49845">
        <ele>870</ele>
        <time>2026-06-28T04:36:09.000Z</time>
      </trkpt>
      <trkpt lat="42.76568" lon="1.49842">
        <ele>871</ele>
        <time>2026-06-28T04:36:10.000Z</time>
      </trkpt>
      <trkpt lat="42.76568" lon="1.4984">
        <ele>872</ele>
        <time>2026-06-28T04:36:11.000Z</time>
      </trkpt>
      <trkpt lat="42.76568" lon="1.49836">
        <ele>872</ele>
        <time>2026-06-28T04:36:12.000Z</time>
      </trkpt>
      <trkpt lat="42.76568" lon="1.49834">
        <ele>872</ele>
        <time>2026-06-28T04:36:13.000Z</time>
      </trkpt>
      <trkpt lat="42.76569" lon="1.49831">
        <ele>872</ele>
        <time>2026-06-28T04:36:14.000Z</time>
      </trkpt>
      <trkpt lat="42.76569" lon="1.49828">
        <ele>872</ele>
        <time>2026-06-28T04:36:15.000Z</time>
      </trkpt>
      <trkpt lat="42.76569" lon="1.49825">
        <ele>872</ele>
        <time>2026-06-28T04:36:16.000Z</time>
      </trkpt>
      <trkpt lat="42.7657" lon="1.49823">
        <ele>872</ele>
        <time>2026-06-28T04:36:17.000Z</time>
      </trkpt>
      <trkpt lat="42.76571" lon="1.49821">
        <ele>872</ele>
        <time>2026-06-28T04:36:18.000Z</time>
      </trkpt>
      <trkpt lat="42.76572" lon="1.49818">
        <ele>872</ele>
        <time>2026-06-28T04:36:19.000Z</time>
      </trkpt>
      <trkpt lat="42.76573" lon="1.49816">
        <ele>872</ele>
        <time>2026-06-28T04:36:20.000Z</time>
      </trkpt>
      <trkpt lat="42.76574" lon="1.49812">
        <ele>871</ele>
        <time>2026-06-28T04:36:21.000Z</time>
      </trkpt>
      <trkpt lat="42.76575" lon="1.4981">
        <ele>872</ele>
        <time>2026-06-28T04:36:22.000Z</time>
      </trkpt>
      <trkpt lat="42.76577" lon="1.49809">
        <ele>873</ele>
        <time>2026-06-28T04:36:23.000Z</time>
      </trkpt>
      <trkpt lat="42.76578" lon="1.49807">
        <ele>873</ele>
        <time>2026-06-28T04:36:24.000Z</time>
      </trkpt>
      <trkpt lat="42.7658" lon="1.49806">
        <ele>874</ele>
        <time>2026-06-28T04:36:25.000Z</time>
      </trkpt>
      <trkpt lat="42.76581" lon="1.49803">
        <ele>875</ele>
        <time>2026-06-28T04:36:26.000Z</time>
      </trkpt>
      <trkpt lat="42.76583" lon="1.49801">
        <ele>876</ele>
        <time>2026-06-28T04:36:27.000Z</time>
      </trkpt>
      <trkpt lat="42.76584" lon="1.498">
        <ele>876</ele>
        <time>2026-06-28T04:36:28.000Z</time>
      </trkpt>
      <trkpt lat="42.76586" lon="1.49797">
        <ele>876</ele>
        <time>2026-06-28T04:36:29.000Z</time>
      </trkpt>
      <trkpt lat="42.76588" lon="1.49795">
        <ele>876</ele>
        <time>2026-06-28T04:36:30.000Z</time>
      </trkpt>
      <trkpt lat="42.76589" lon="1.49794">
        <ele>877</ele>
        <time>2026-06-28T04:36:31.000Z</time>
      </trkpt>
      <trkpt lat="42.7659" lon="1.49791">
        <ele>876</ele>
        <time>2026-06-28T04:36:32.000Z</time>
      </trkpt>
      <trkpt lat="42.76592" lon="1.49789">
        <ele>876</ele>
        <time>2026-06-28T04:36:33.000Z</time>
      </trkpt>
      <trkpt lat="42.76593" lon="1.49787">
        <ele>877</ele>
        <time>2026-06-28T04:36:34.000Z</time>
      </trkpt>
      <trkpt lat="42.76595" lon="1.49785">
        <ele>877</ele>
        <time>2026-06-28T04:36:35.000Z</time>
      </trkpt>
      <trkpt lat="42.76597" lon="1.49783">
        <ele>877</ele>
        <time>2026-06-28T04:36:36.000Z</time>
      </trkpt>
      <trkpt lat="42.76599" lon="1.49782">
        <ele>877</ele>
        <time>2026-06-28T04:36:37.000Z</time>
      </trkpt>
      <trkpt lat="42.766" lon="1.4978">
        <ele>877</ele>
        <time>2026-06-28T04:36:38.000Z</time>
      </trkpt>
      <trkpt lat="42.76602" lon="1.49778">
        <ele>876</ele>
        <time>2026-06-28T04:36:39.000Z</time>
      </trkpt>
      <trkpt lat="42.76604" lon="1.49775">
        <ele>876</ele>
        <time>2026-06-28T04:36:40.000Z</time>
      </trkpt>
      <trkpt lat="42.76605" lon="1.49773">
        <ele>876</ele>
        <time>2026-06-28T04:36:41.000Z</time>
      </trkpt>
      <trkpt lat="42.76607" lon="1.4977">
        <ele>876</ele>
        <time>2026-06-28T04:36:42.000Z</time>
      </trkpt>
      <trkpt lat="42.76608" lon="1.49768">
        <ele>875</ele>
        <time>2026-06-28T04:36:43.000Z</time>
      </trkpt>
      <trkpt lat="42.76609" lon="1.49765">
        <ele>874</ele>
        <time>2026-06-28T04:36:44.000Z</time>
      </trkpt>
      <trkpt lat="42.7661" lon="1.49762">
        <ele>874</ele>
        <time>2026-06-28T04:36:45.000Z</time>
      </trkpt>
      <trkpt lat="42.7661" lon="1.49759">
        <ele>874</ele>
        <time>2026-06-28T04:36:46.000Z</time>
      </trkpt>
      <trkpt lat="42.76611" lon="1.49756">
        <ele>873</ele>
        <time>2026-06-28T04:36:47.000Z</time>
      </trkpt>
      <trkpt lat="42.76611" lon="1.49752">
        <ele>874</ele>
        <time>2026-06-28T04:36:48.000Z</time>
      </trkpt>
      <trkpt lat="42.76611" lon="1.49749">
        <ele>874</ele>
        <time>2026-06-28T04:36:49.000Z</time>
      </trkpt>
      <trkpt lat="42.76611" lon="1.49746">
        <ele>874</ele>
        <time>2026-06-28T04:36:50.000Z</time>
      </trkpt>
      <trkpt lat="42.76611" lon="1.49744">
        <ele>874</ele>
        <time>2026-06-28T04:36:51.000Z</time>
      </trkpt>
      <trkpt lat="42.7661" lon="1.49741">
        <ele>874</ele>
        <time>2026-06-28T04:36:52.000Z</time>
      </trkpt>
      <trkpt lat="42.7661" lon="1.49739">
        <ele>874</ele>
        <time>2026-06-28T04:36:53.000Z</time>
      </trkpt>
      <trkpt lat="42.76609" lon="1.49737">
        <ele>873</ele>
        <time>2026-06-28T04:36:54.000Z</time>
      </trkpt>
      <trkpt lat="42.76608" lon="1.49735">
        <ele>874</ele>
        <time>2026-06-28T04:36:55.000Z</time>
      </trkpt>
      <trkpt lat="42.76607" lon="1.49732">
        <ele>874</ele>
        <time>2026-06-28T04:36:56.000Z</time>
      </trkpt>
      <trkpt lat="42.76606" lon="1.49729">
        <ele>873</ele>
        <time>2026-06-28T04:36:57.000Z</time>
      </trkpt>
      <trkpt lat="42.76605" lon="1.49726">
        <ele>874</ele>
        <time>2026-06-28T04:36:58.000Z</time>
      </trkpt>
      <trkpt lat="42.76604" lon="1.49724">
        <ele>874</ele>
        <time>2026-06-28T04:36:59.000Z</time>
      </trkpt>
      <trkpt lat="42.76604" lon="1.49721">
        <ele>874</ele>
        <time>2026-06-28T04:37:00.000Z</time>
      </trkpt>
      <trkpt lat="42.76602" lon="1.49719">
        <ele>874</ele>
        <time>2026-06-28T04:37:01.000Z</time>
      </trkpt>
      <trkpt lat="42.76601" lon="1.49716">
        <ele>874</ele>
        <time>2026-06-28T04:37:02.000Z</time>
      </trkpt>
      <trkpt lat="42.766" lon="1.49713">
        <ele>874</ele>
        <time>2026-06-28T04:37:03.000Z</time>
      </trkpt>
      <trkpt lat="42.76598" lon="1.49711">
        <ele>873</ele>
        <time>2026-06-28T04:37:04.000Z</time>
      </trkpt>
      <trkpt lat="42.76597" lon="1.49708">
        <ele>873</ele>
        <time>2026-06-28T04:37:05.000Z</time>
      </trkpt>
      <trkpt lat="42.76596" lon="1.49706">
        <ele>874</ele>
        <time>2026-06-28T04:37:06.000Z</time>
      </trkpt>
      <trkpt lat="42.76595" lon="1.49704">
        <ele>874</ele>
        <time>2026-06-28T04:37:07.000Z</time>
      </trkpt>
      <trkpt lat="42.76595" lon="1.49702">
        <ele>875</ele>
        <time>2026-06-28T04:37:08.000Z</time>
      </trkpt>
      <trkpt lat="42.76594" lon="1.497">
        <ele>875</ele>
        <time>2026-06-28T04:37:09.000Z</time>
      </trkpt>
      <trkpt lat="42.76593" lon="1.49697">
        <ele>875</ele>
        <time>2026-06-28T04:37:10.000Z</time>
      </trkpt>
      <trkpt lat="42.76592" lon="1.49695">
        <ele>875</ele>
        <time>2026-06-28T04:37:11.000Z</time>
      </trkpt>
      <trkpt lat="42.76591" lon="1.49693">
        <ele>875</ele>
        <time>2026-06-28T04:37:12.000Z</time>
      </trkpt>
      <trkpt lat="42.7659" lon="1.4969">
        <ele>876</ele>
        <time>2026-06-28T04:37:13.000Z</time>
      </trkpt>
      <trkpt lat="42.7659" lon="1.49688">
        <ele>876</ele>
        <time>2026-06-28T04:37:14.000Z</time>
      </trkpt>
      <trkpt lat="42.76589" lon="1.49685">
        <ele>876</ele>
        <time>2026-06-28T04:37:15.000Z</time>
      </trkpt>
      <trkpt lat="42.76588" lon="1.49683">
        <ele>877</ele>
        <time>2026-06-28T04:37:16.000Z</time>
      </trkpt>
      <trkpt lat="42.76588" lon="1.4968">
        <ele>878</ele>
        <time>2026-06-28T04:37:17.000Z</time>
      </trkpt>
      <trkpt lat="42.76587" lon="1.49677">
        <ele>878</ele>
        <time>2026-06-28T04:37:18.000Z</time>
      </trkpt>
      <trkpt lat="42.76587" lon="1.49674">
        <ele>879</ele>
        <time>2026-06-28T04:37:19.000Z</time>
      </trkpt>
      <trkpt lat="42.76586" lon="1.49672">
        <ele>879</ele>
        <time>2026-06-28T04:37:20.000Z</time>
      </trkpt>
      <trkpt lat="42.76585" lon="1.49669">
        <ele>879</ele>
        <time>2026-06-28T04:37:21.000Z</time>
      </trkpt>
      <trkpt lat="42.76584" lon="1.49666">
        <ele>878</ele>
        <time>2026-06-28T04:37:22.000Z</time>
      </trkpt>
      <trkpt lat="42.76583" lon="1.49664">
        <ele>878</ele>
        <time>2026-06-28T04:37:23.000Z</time>
      </trkpt>
      <trkpt lat="42.76582" lon="1.49661">
        <ele>878</ele>
        <time>2026-06-28T04:37:24.000Z</time>
      </trkpt>
      <trkpt lat="42.76582" lon="1.49659">
        <ele>878</ele>
        <time>2026-06-28T04:37:25.000Z</time>
      </trkpt>
      <trkpt lat="42.76581" lon="1.49656">
        <ele>878</ele>
        <time>2026-06-28T04:37:26.000Z</time>
      </trkpt>
      <trkpt lat="42.7658" lon="1.49654">
        <ele>878</ele>
        <time>2026-06-28T04:37:27.000Z</time>
      </trkpt>
      <trkpt lat="42.76579" lon="1.49651">
        <ele>878</ele>
        <time>2026-06-28T04:37:28.000Z</time>
      </trkpt>
      <trkpt lat="42.76577" lon="1.49648">
        <ele>877</ele>
        <time>2026-06-28T04:37:29.000Z</time>
      </trkpt>
      <trkpt lat="42.76576" lon="1.49647">
        <ele>878</ele>
        <time>2026-06-28T04:37:30.000Z</time>
      </trkpt>
      <trkpt lat="42.76575" lon="1.49644">
        <ele>878</ele>
        <time>2026-06-28T04:37:31.000Z</time>
      </trkpt>
      <trkpt lat="42.76573" lon="1.49642">
        <ele>878</ele>
        <time>2026-06-28T04:37:32.000Z</time>
      </trkpt>
      <trkpt lat="42.76572" lon="1.4964">
        <ele>878</ele>
        <time>2026-06-28T04:37:33.000Z</time>
      </trkpt>
      <trkpt lat="42.7657" lon="1.49639">
        <ele>879</ele>
        <time>2026-06-28T04:37:34.000Z</time>
      </trkpt>
      <trkpt lat="42.76569" lon="1.49637">
        <ele>879</ele>
        <time>2026-06-28T04:37:35.000Z</time>
      </trkpt>
      <trkpt lat="42.76568" lon="1.49636">
        <ele>880</ele>
        <time>2026-06-28T04:37:36.000Z</time>
      </trkpt>
      <trkpt lat="42.76566" lon="1.49634">
        <ele>880</ele>
        <time>2026-06-28T04:37:37.000Z</time>
      </trkpt>
      <trkpt lat="42.76565" lon="1.49633">
        <ele>881</ele>
        <time>2026-06-28T04:37:38.000Z</time>
      </trkpt>
      <trkpt lat="42.76564" lon="1.49631">
        <ele>881</ele>
        <time>2026-06-28T04:37:39.000Z</time>
      </trkpt>
      <trkpt lat="42.76563" lon="1.49629">
        <ele>881</ele>
        <time>2026-06-28T04:37:40.000Z</time>
      </trkpt>
      <trkpt lat="42.76561" lon="1.49627">
        <ele>881</ele>
        <time>2026-06-28T04:37:41.000Z</time>
      </trkpt>
      <trkpt lat="42.76558" lon="1.49626">
        <ele>881</ele>
        <time>2026-06-28T04:37:42.000Z</time>
      </trkpt>
      <trkpt lat="42.76557" lon="1.49624">
        <ele>880</ele>
        <time>2026-06-28T04:37:43.000Z</time>
      </trkpt>
      <trkpt lat="42.76555" lon="1.49623">
        <ele>881</ele>
        <time>2026-06-28T04:37:44.000Z</time>
      </trkpt>
      <trkpt lat="42.76553" lon="1.49621">
        <ele>881</ele>
        <time>2026-06-28T04:37:45.000Z</time>
      </trkpt>
      <trkpt lat="42.76552" lon="1.4962">
        <ele>881</ele>
        <time>2026-06-28T04:37:46.000Z</time>
      </trkpt>
      <trkpt lat="42.7655" lon="1.49618">
        <ele>881</ele>
        <time>2026-06-28T04:37:47.000Z</time>
      </trkpt>
      <trkpt lat="42.76548" lon="1.49616">
        <ele>881</ele>
        <time>2026-06-28T04:37:48.000Z</time>
      </trkpt>
      <trkpt lat="42.76547" lon="1.49614">
        <ele>881</ele>
        <time>2026-06-28T04:37:49.000Z</time>
      </trkpt>
      <trkpt lat="42.76546" lon="1.49612">
        <ele>881</ele>
        <time>2026-06-28T04:37:50.000Z</time>
      </trkpt>
      <trkpt lat="42.76544" lon="1.4961">
        <ele>882</ele>
        <time>2026-06-28T04:37:51.000Z</time>
      </trkpt>
      <trkpt lat="42.76543" lon="1.49608">
        <ele>882</ele>
        <time>2026-06-28T04:37:52.000Z</time>
      </trkpt>
      <trkpt lat="42.76542" lon="1.49606">
        <ele>882</ele>
        <time>2026-06-28T04:37:53.000Z</time>
      </trkpt>
      <trkpt lat="42.76541" lon="1.49604">
        <ele>883</ele>
        <time>2026-06-28T04:37:54.000Z</time>
      </trkpt>
      <trkpt lat="42.76539" lon="1.49602">
        <ele>883</ele>
        <time>2026-06-28T04:37:55.000Z</time>
      </trkpt>
      <trkpt lat="42.76538" lon="1.496">
        <ele>883</ele>
        <time>2026-06-28T04:37:56.000Z</time>
      </trkpt>
      <trkpt lat="42.76536" lon="1.49599">
        <ele>883</ele>
        <time>2026-06-28T04:37:57.000Z</time>
      </trkpt>
      <trkpt lat="42.76535" lon="1.49596">
        <ele>883</ele>
        <time>2026-06-28T04:37:58.000Z</time>
      </trkpt>
      <trkpt lat="42.76534" lon="1.49594">
        <ele>884</ele>
        <time>2026-06-28T04:37:59.000Z</time>
      </trkpt>
      <trkpt lat="42.76532" lon="1.49592">
        <ele>884</ele>
        <time>2026-06-28T04:38:00.000Z</time>
      </trkpt>
      <trkpt lat="42.76531" lon="1.4959">
        <ele>885</ele>
        <time>2026-06-28T04:38:01.000Z</time>
      </trkpt>
      <trkpt lat="42.76529" lon="1.49589">
        <ele>885</ele>
        <time>2026-06-28T04:38:02.000Z</time>
      </trkpt>
      <trkpt lat="42.76528" lon="1.49587">
        <ele>886</ele>
        <time>2026-06-28T04:38:03.000Z</time>
      </trkpt>
      <trkpt lat="42.76526" lon="1.49585">
        <ele>886</ele>
        <time>2026-06-28T04:38:04.000Z</time>
      </trkpt>
      <trkpt lat="42.76524" lon="1.49583">
        <ele>886</ele>
        <time>2026-06-28T04:38:05.000Z</time>
      </trkpt>
      <trkpt lat="42.76523" lon="1.49581">
        <ele>886</ele>
        <time>2026-06-28T04:38:06.000Z</time>
      </trkpt>
      <trkpt lat="42.76522" lon="1.49579">
        <ele>886</ele>
        <time>2026-06-28T04:38:07.000Z</time>
      </trkpt>
      <trkpt lat="42.7652" lon="1.49577">
        <ele>886</ele>
        <time>2026-06-28T04:38:08.000Z</time>
      </trkpt>
      <trkpt lat="42.76519" lon="1.49575">
        <ele>886</ele>
        <time>2026-06-28T04:38:09.000Z</time>
      </trkpt>
      <trkpt lat="42.76517" lon="1.49574">
        <ele>886</ele>
        <time>2026-06-28T04:38:10.000Z</time>
      </trkpt>
      <trkpt lat="42.76516" lon="1.49572">
        <ele>886</ele>
        <time>2026-06-28T04:38:11.000Z</time>
      </trkpt>
      <trkpt lat="42.76514" lon="1.49571">
        <ele>887</ele>
        <time>2026-06-28T04:38:12.000Z</time>
      </trkpt>
      <trkpt lat="42.76513" lon="1.49569">
        <ele>887</ele>
        <time>2026-06-28T04:38:13.000Z</time>
      </trkpt>
      <trkpt lat="42.76512" lon="1.49566">
        <ele>888</ele>
        <time>2026-06-28T04:38:14.000Z</time>
      </trkpt>
      <trkpt lat="42.7651" lon="1.49564">
        <ele>888</ele>
        <time>2026-06-28T04:38:15.000Z</time>
      </trkpt>
      <trkpt lat="42.76509" lon="1.49562">
        <ele>887</ele>
        <time>2026-06-28T04:38:16.000Z</time>
      </trkpt>
      <trkpt lat="42.76507" lon="1.49561">
        <ele>888</ele>
        <time>2026-06-28T04:38:17.000Z</time>
      </trkpt>
      <trkpt lat="42.76506" lon="1.49559">
        <ele>887</ele>
        <time>2026-06-28T04:38:18.000Z</time>
      </trkpt>
      <trkpt lat="42.76505" lon="1.49557">
        <ele>888</ele>
        <time>2026-06-28T04:38:19.000Z</time>
      </trkpt>
      <trkpt lat="42.76503" lon="1.49555">
        <ele>888</ele>
        <time>2026-06-28T04:38:20.000Z</time>
      </trkpt>
      <trkpt lat="42.76501" lon="1.49553">
        <ele>888</ele>
        <time>2026-06-28T04:38:21.000Z</time>
      </trkpt>
      <trkpt lat="42.76499" lon="1.49551">
        <ele>888</ele>
        <time>2026-06-28T04:38:22.000Z</time>
      </trkpt>
      <trkpt lat="42.76497" lon="1.49549">
        <ele>888</ele>
        <time>2026-06-28T04:38:23.000Z</time>
      </trkpt>
      <trkpt lat="42.76495" lon="1.49547">
        <ele>887</ele>
        <time>2026-06-28T04:38:24.000Z</time>
      </trkpt>
      <trkpt lat="42.76493" lon="1.49545">
        <ele>887</ele>
        <time>2026-06-28T04:38:25.000Z</time>
      </trkpt>
      <trkpt lat="42.76492" lon="1.49544">
        <ele>888</ele>
        <time>2026-06-28T04:38:26.000Z</time>
      </trkpt>
      <trkpt lat="42.7649" lon="1.49543">
        <ele>888</ele>
        <time>2026-06-28T04:38:27.000Z</time>
      </trkpt>
      <trkpt lat="42.76488" lon="1.49541">
        <ele>888</ele>
        <time>2026-06-28T04:38:28.000Z</time>
      </trkpt>
      <trkpt lat="42.76486" lon="1.49539">
        <ele>888</ele>
        <time>2026-06-28T04:38:29.000Z</time>
      </trkpt>
      <trkpt lat="42.76484" lon="1.49538">
        <ele>888</ele>
        <time>2026-06-28T04:38:30.000Z</time>
      </trkpt>
      <trkpt lat="42.76483" lon="1.49536">
        <ele>888</ele>
        <time>2026-06-28T04:38:31.000Z</time>
      </trkpt>
      <trkpt lat="42.76481" lon="1.49535">
        <ele>888</ele>
        <time>2026-06-28T04:38:32.000Z</time>
      </trkpt>
      <trkpt lat="42.7648" lon="1.49533">
        <ele>889</ele>
        <time>2026-06-28T04:38:33.000Z</time>
      </trkpt>
      <trkpt lat="42.76478" lon="1.49531">
        <ele>889</ele>
        <time>2026-06-28T04:38:34.000Z</time>
      </trkpt>
      <trkpt lat="42.76476" lon="1.4953">
        <ele>889</ele>
        <time>2026-06-28T04:38:35.000Z</time>
      </trkpt>
      <trkpt lat="42.76475" lon="1.49528">
        <ele>890</ele>
        <time>2026-06-28T04:38:36.000Z</time>
      </trkpt>
      <trkpt lat="42.76473" lon="1.49526">
        <ele>889</ele>
        <time>2026-06-28T04:38:37.000Z</time>
      </trkpt>
      <trkpt lat="42.76472" lon="1.49524">
        <ele>889</ele>
        <time>2026-06-28T04:38:38.000Z</time>
      </trkpt>
      <trkpt lat="42.7647" lon="1.49522">
        <ele>889</ele>
        <time>2026-06-28T04:38:39.000Z</time>
      </trkpt>
      <trkpt lat="42.76469" lon="1.4952">
        <ele>889</ele>
        <time>2026-06-28T04:38:40.000Z</time>
      </trkpt>
      <trkpt lat="42.76468" lon="1.49519">
        <ele>890</ele>
        <time>2026-06-28T04:38:41.000Z</time>
      </trkpt>
      <trkpt lat="42.76466" lon="1.49517">
        <ele>890</ele>
        <time>2026-06-28T04:38:42.000Z</time>
      </trkpt>
      <trkpt lat="42.76464" lon="1.49516">
        <ele>890</ele>
        <time>2026-06-28T04:38:43.000Z</time>
      </trkpt>
      <trkpt lat="42.76462" lon="1.49514">
        <ele>891</ele>
        <time>2026-06-28T04:38:44.000Z</time>
      </trkpt>
      <trkpt lat="42.76461" lon="1.49512">
        <ele>891</ele>
        <time>2026-06-28T04:38:45.000Z</time>
      </trkpt>
      <trkpt lat="42.76459" lon="1.4951">
        <ele>891</ele>
        <time>2026-06-28T04:38:46.000Z</time>
      </trkpt>
      <trkpt lat="42.76458" lon="1.49508">
        <ele>891</ele>
        <time>2026-06-28T04:38:47.000Z</time>
      </trkpt>
      <trkpt lat="42.76456" lon="1.49506">
        <ele>891</ele>
        <time>2026-06-28T04:38:48.000Z</time>
      </trkpt>
      <trkpt lat="42.76454" lon="1.49505">
        <ele>891</ele>
        <time>2026-06-28T04:38:49.000Z</time>
      </trkpt>
      <trkpt lat="42.76452" lon="1.49504">
        <ele>891</ele>
        <time>2026-06-28T04:38:50.000Z</time>
      </trkpt>
      <trkpt lat="42.7645" lon="1.49505">
        <ele>891</ele>
        <time>2026-06-28T04:38:51.000Z</time>
      </trkpt>
      <trkpt lat="42.76447" lon="1.49506">
        <ele>891</ele>
        <time>2026-06-28T04:38:52.000Z</time>
      </trkpt>
      <trkpt lat="42.76445" lon="1.49507">
        <ele>890</ele>
        <time>2026-06-28T04:38:53.000Z</time>
      </trkpt>
      <trkpt lat="42.76444" lon="1.49509">
        <ele>890</ele>
        <time>2026-06-28T04:38:54.000Z</time>
      </trkpt>
      <trkpt lat="42.76444" lon="1.49512">
        <ele>889</ele>
        <time>2026-06-28T04:38:55.000Z</time>
      </trkpt>
      <trkpt lat="42.76445" lon="1.49514">
        <ele>889</ele>
        <time>2026-06-28T04:38:56.000Z</time>
      </trkpt>
      <trkpt lat="42.76447" lon="1.49517">
        <ele>889</ele>
        <time>2026-06-28T04:38:57.000Z</time>
      </trkpt>
      <trkpt lat="42.76449" lon="1.49519">
        <ele>889</ele>
        <time>2026-06-28T04:38:58.000Z</time>
      </trkpt>
      <trkpt lat="42.76451" lon="1.4952">
        <ele>888</ele>
        <time>2026-06-28T04:38:59.000Z</time>
      </trkpt>
      <trkpt lat="42.76454" lon="1.49521">
        <ele>888</ele>
        <time>2026-06-28T04:39:00.000Z</time>
      </trkpt>
      <trkpt lat="42.76456" lon="1.49523">
        <ele>888</ele>
        <time>2026-06-28T04:39:01.000Z</time>
      </trkpt>
      <trkpt lat="42.76458" lon="1.49524">
        <ele>888</ele>
        <time>2026-06-28T04:39:02.000Z</time>
      </trkpt>
      <trkpt lat="42.7646" lon="1.49526">
        <ele>888</ele>
        <time>2026-06-28T04:39:03.000Z</time>
      </trkpt>
      <trkpt lat="42.76462" lon="1.49528">
        <ele>888</ele>
        <time>2026-06-28T04:39:04.000Z</time>
      </trkpt>
      <trkpt lat="42.76464" lon="1.4953">
        <ele>888</ele>
        <time>2026-06-28T04:39:05.000Z</time>
      </trkpt>
      <trkpt lat="42.76466" lon="1.49532">
        <ele>888</ele>
        <time>2026-06-28T04:39:06.000Z</time>
      </trkpt>
      <trkpt lat="42.76468" lon="1.49534">
        <ele>889</ele>
        <time>2026-06-28T04:39:07.000Z</time>
      </trkpt>
      <trkpt lat="42.7647" lon="1.49536">
        <ele>889</ele>
        <time>2026-06-28T04:39:08.000Z</time>
      </trkpt>
      <trkpt lat="42.76471" lon="1.49538">
        <ele>889</ele>
        <time>2026-06-28T04:39:09.000Z</time>
      </trkpt>
      <trkpt lat="42.76472" lon="1.4954">
        <ele>889</ele>
        <time>2026-06-28T04:39:10.000Z</time>
      </trkpt>
      <trkpt lat="42.76474" lon="1.49542">
        <ele>889</ele>
        <time>2026-06-28T04:39:11.000Z</time>
      </trkpt>
      <trkpt lat="42.76476" lon="1.49544">
        <ele>890</ele>
        <time>2026-06-28T04:39:12.000Z</time>
      </trkpt>
      <trkpt lat="42.76477" lon="1.49547">
        <ele>890</ele>
        <time>2026-06-28T04:39:13.000Z</time>
      </trkpt>
      <trkpt lat="42.76478" lon="1.49549">
        <ele>890</ele>
        <time>2026-06-28T04:39:14.000Z</time>
      </trkpt>
      <trkpt lat="42.7648" lon="1.49551">
        <ele>890</ele>
        <time>2026-06-28T04:39:15.000Z</time>
      </trkpt>
      <trkpt lat="42.76482" lon="1.49553">
        <ele>890</ele>
        <time>2026-06-28T04:39:16.000Z</time>
      </trkpt>
      <trkpt lat="42.76483" lon="1.49555">
        <ele>891</ele>
        <time>2026-06-28T04:39:17.000Z</time>
      </trkpt>
      <trkpt lat="42.76485" lon="1.49558">
        <ele>891</ele>
        <time>2026-06-28T04:39:18.000Z</time>
      </trkpt>
      <trkpt lat="42.76486" lon="1.49561">
        <ele>891</ele>
        <time>2026-06-28T04:39:19.000Z</time>
      </trkpt>
      <trkpt lat="42.76487" lon="1.49563">
        <ele>891</ele>
        <time>2026-06-28T04:39:20.000Z</time>
      </trkpt>
      <trkpt lat="42.76489" lon="1.49566">
        <ele>891</ele>
        <time>2026-06-28T04:39:21.000Z</time>
      </trkpt>
      <trkpt lat="42.7649" lon="1.49568">
        <ele>890</ele>
        <time>2026-06-28T04:39:22.000Z</time>
      </trkpt>
      <trkpt lat="42.76491" lon="1.4957">
        <ele>891</ele>
        <time>2026-06-28T04:39:23.000Z</time>
      </trkpt>
      <trkpt lat="42.76492" lon="1.49573">
        <ele>891</ele>
        <time>2026-06-28T04:39:24.000Z</time>
      </trkpt>
      <trkpt lat="42.76494" lon="1.49576">
        <ele>891</ele>
        <time>2026-06-28T04:39:25.000Z</time>
      </trkpt>
      <trkpt lat="42.76495" lon="1.49578">
        <ele>891</ele>
        <time>2026-06-28T04:39:26.000Z</time>
      </trkpt>
      <trkpt lat="42.76496" lon="1.49581">
        <ele>892</ele>
        <time>2026-06-28T04:39:27.000Z</time>
      </trkpt>
      <trkpt lat="42.76497" lon="1.49584">
        <ele>893</ele>
        <time>2026-06-28T04:39:28.000Z</time>
      </trkpt>
      <trkpt lat="42.76498" lon="1.49586">
        <ele>893</ele>
        <time>2026-06-28T04:39:29.000Z</time>
      </trkpt>
      <trkpt lat="42.76499" lon="1.49589">
        <ele>894</ele>
        <time>2026-06-28T04:39:30.000Z</time>
      </trkpt>
      <trkpt lat="42.765" lon="1.49591">
        <ele>894</ele>
        <time>2026-06-28T04:39:31.000Z</time>
      </trkpt>
      <trkpt lat="42.76501" lon="1.49594">
        <ele>894</ele>
        <time>2026-06-28T04:39:32.000Z</time>
      </trkpt>
      <trkpt lat="42.76502" lon="1.49597">
        <ele>894</ele>
        <time>2026-06-28T04:39:33.000Z</time>
      </trkpt>
      <trkpt lat="42.76503" lon="1.49601">
        <ele>894</ele>
        <time>2026-06-28T04:39:34.000Z</time>
      </trkpt>
      <trkpt lat="42.76504" lon="1.49603">
        <ele>894</ele>
        <time>2026-06-28T04:39:35.000Z</time>
      </trkpt>
      <trkpt lat="42.76505" lon="1.49606">
        <ele>895</ele>
        <time>2026-06-28T04:39:36.000Z</time>
      </trkpt>
      <trkpt lat="42.76506" lon="1.49609">
        <ele>895</ele>
        <time>2026-06-28T04:39:37.000Z</time>
      </trkpt>
      <trkpt lat="42.76507" lon="1.49611">
        <ele>895</ele>
        <time>2026-06-28T04:39:38.000Z</time>
      </trkpt>
      <trkpt lat="42.76507" lon="1.49614">
        <ele>895</ele>
        <time>2026-06-28T04:39:39.000Z</time>
      </trkpt>
      <trkpt lat="42.76508" lon="1.49616">
        <ele>895</ele>
        <time>2026-06-28T04:39:40.000Z</time>
      </trkpt>
      <trkpt lat="42.76509" lon="1.49619">
        <ele>896</ele>
        <time>2026-06-28T04:39:41.000Z</time>
      </trkpt>
      <trkpt lat="42.7651" lon="1.49622">
        <ele>896</ele>
        <time>2026-06-28T04:39:42.000Z</time>
      </trkpt>
      <trkpt lat="42.76511" lon="1.49625">
        <ele>896</ele>
        <time>2026-06-28T04:39:43.000Z</time>
      </trkpt>
      <trkpt lat="42.76512" lon="1.49627">
        <ele>896</ele>
        <time>2026-06-28T04:39:44.000Z</time>
      </trkpt>
      <trkpt lat="42.76513" lon="1.4963">
        <ele>896</ele>
        <time>2026-06-28T04:39:45.000Z</time>
      </trkpt>
      <trkpt lat="42.76513" lon="1.49633">
        <ele>897</ele>
        <time>2026-06-28T04:39:46.000Z</time>
      </trkpt>
      <trkpt lat="42.76515" lon="1.49635">
        <ele>896</ele>
        <time>2026-06-28T04:39:47.000Z</time>
      </trkpt>
      <trkpt lat="42.76516" lon="1.49637">
        <ele>897</ele>
        <time>2026-06-28T04:39:48.000Z</time>
      </trkpt>
      <trkpt lat="42.76517" lon="1.4964">
        <ele>897</ele>
        <time>2026-06-28T04:39:49.000Z</time>
      </trkpt>
      <trkpt lat="42.76518" lon="1.49642">
        <ele>897</ele>
        <time>2026-06-28T04:39:50.000Z</time>
      </trkpt>
      <trkpt lat="42.76519" lon="1.49645">
        <ele>898</ele>
        <time>2026-06-28T04:39:51.000Z</time>
      </trkpt>
      <trkpt lat="42.7652" lon="1.49648">
        <ele>898</ele>
        <time>2026-06-28T04:39:52.000Z</time>
      </trkpt>
      <trkpt lat="42.76522" lon="1.4965">
        <ele>898</ele>
        <time>2026-06-28T04:39:53.000Z</time>
      </trkpt>
      <trkpt lat="42.76522" lon="1.49653">
        <ele>898</ele>
        <time>2026-06-28T04:39:54.000Z</time>
      </trkpt>
      <trkpt lat="42.76523" lon="1.49655">
        <ele>898</ele>
        <time>2026-06-28T04:39:55.000Z</time>
      </trkpt>
      <trkpt lat="42.76524" lon="1.49659">
        <ele>899</ele>
        <time>2026-06-28T04:39:56.000Z</time>
      </trkpt>
      <trkpt lat="42.76525" lon="1.49662">
        <ele>899</ele>
        <time>2026-06-28T04:39:57.000Z</time>
      </trkpt>
      <trkpt lat="42.76525" lon="1.49665">
        <ele>899</ele>
        <time>2026-06-28T04:39:58.000Z</time>
      </trkpt>
      <trkpt lat="42.76526" lon="1.49669">
        <ele>900</ele>
        <time>2026-06-28T04:39:59.000Z</time>
      </trkpt>
      <trkpt lat="42.76526" lon="1.49672">
        <ele>900</ele>
        <time>2026-06-28T04:40:00.000Z</time>
      </trkpt>
      <trkpt lat="42.76527" lon="1.49674">
        <ele>900</ele>
        <time>2026-06-28T04:40:01.000Z</time>
      </trkpt>
      <trkpt lat="42.76527" lon="1.49677">
        <ele>901</ele>
        <time>2026-06-28T04:40:02.000Z</time>
      </trkpt>
      <trkpt lat="42.76526" lon="1.4968">
        <ele>901</ele>
        <time>2026-06-28T04:40:03.000Z</time>
      </trkpt>
      <trkpt lat="42.76526" lon="1.49683">
        <ele>902</ele>
        <time>2026-06-28T04:40:04.000Z</time>
      </trkpt>
      <trkpt lat="42.76526" lon="1.49685">
        <ele>902</ele>
        <time>2026-06-28T04:40:05.000Z</time>
      </trkpt>
      <trkpt lat="42.76525" lon="1.49689">
        <ele>903</ele>
        <time>2026-06-28T04:40:06.000Z</time>
      </trkpt>
      <trkpt lat="42.76524" lon="1.49692">
        <ele>903</ele>
        <time>2026-06-28T04:40:07.000Z</time>
      </trkpt>
      <trkpt lat="42.76523" lon="1.49694">
        <ele>902</ele>
        <time>2026-06-28T04:40:08.000Z</time>
      </trkpt>
      <trkpt lat="42.76521" lon="1.49697">
        <ele>902</ele>
        <time>2026-06-28T04:40:09.000Z</time>
      </trkpt>
      <trkpt lat="42.76519" lon="1.49699">
        <ele>902</ele>
        <time>2026-06-28T04:40:10.000Z</time>
      </trkpt>
      <trkpt lat="42.76517" lon="1.49701">
        <ele>902</ele>
        <time>2026-06-28T04:40:11.000Z</time>
      </trkpt>
      <trkpt lat="42.76515" lon="1.49702">
        <ele>902</ele>
        <time>2026-06-28T04:40:12.000Z</time>
      </trkpt>
      <trkpt lat="42.76513" lon="1.49702">
        <ele>901</ele>
        <time>2026-06-28T04:40:13.000Z</time>
      </trkpt>
      <trkpt lat="42.76511" lon="1.49703">
        <ele>902</ele>
        <time>2026-06-28T04:40:14.000Z</time>
      </trkpt>
      <trkpt lat="42.76509" lon="1.49703">
        <ele>902</ele>
        <time>2026-06-28T04:40:15.000Z</time>
      </trkpt>
      <trkpt lat="42.76507" lon="1.49702">
        <ele>903</ele>
        <time>2026-06-28T04:40:16.000Z</time>
      </trkpt>
      <trkpt lat="42.76505" lon="1.49701">
        <ele>904</ele>
        <time>2026-06-28T04:40:17.000Z</time>
      </trkpt>
      <trkpt lat="42.76503" lon="1.49699">
        <ele>904</ele>
        <time>2026-06-28T04:40:18.000Z</time>
      </trkpt>
      <trkpt lat="42.76502" lon="1.49698">
        <ele>905</ele>
        <time>2026-06-28T04:40:19.000Z</time>
      </trkpt>
      <trkpt lat="42.76501" lon="1.49695">
        <ele>905</ele>
        <time>2026-06-28T04:40:20.000Z</time>
      </trkpt>
      <trkpt lat="42.765" lon="1.49693">
        <ele>905</ele>
        <time>2026-06-28T04:40:21.000Z</time>
      </trkpt>
      <trkpt lat="42.76499" lon="1.49691">
        <ele>906</ele>
        <time>2026-06-28T04:40:22.000Z</time>
      </trkpt>
      <trkpt lat="42.76498" lon="1.49689">
        <ele>906</ele>
        <time>2026-06-28T04:40:23.000Z</time>
      </trkpt>
      <trkpt lat="42.76497" lon="1.49686">
        <ele>906</ele>
        <time>2026-06-28T04:40:24.000Z</time>
      </trkpt>
      <trkpt lat="42.76496" lon="1.49684">
        <ele>907</ele>
        <time>2026-06-28T04:40:25.000Z</time>
      </trkpt>
      <trkpt lat="42.76496" lon="1.49681">
        <ele>907</ele>
        <time>2026-06-28T04:40:26.000Z</time>
      </trkpt>
      <trkpt lat="42.76495" lon="1.49678">
        <ele>907</ele>
        <time>2026-06-28T04:40:27.000Z</time>
      </trkpt>
      <trkpt lat="42.76494" lon="1.49676">
        <ele>908</ele>
        <time>2026-06-28T04:40:28.000Z</time>
      </trkpt>
      <trkpt lat="42.76493" lon="1.49673">
        <ele>908</ele>
        <time>2026-06-28T04:40:29.000Z</time>
      </trkpt>
      <trkpt lat="42.76492" lon="1.49671">
        <ele>909</ele>
        <time>2026-06-28T04:40:30.000Z</time>
      </trkpt>
      <trkpt lat="42.76491" lon="1.49668">
        <ele>909</ele>
        <time>2026-06-28T04:40:31.000Z</time>
      </trkpt>
      <trkpt lat="42.7649" lon="1.49666">
        <ele>910</ele>
        <time>2026-06-28T04:40:32.000Z</time>
      </trkpt>
      <trkpt lat="42.7649" lon="1.49663">
        <ele>910</ele>
        <time>2026-06-28T04:40:33.000Z</time>
      </trkpt>
      <trkpt lat="42.76489" lon="1.4966">
        <ele>910</ele>
        <time>2026-06-28T04:40:34.000Z</time>
      </trkpt>
      <trkpt lat="42.76488" lon="1.49657">
        <ele>910</ele>
        <time>2026-06-28T04:40:35.000Z</time>
      </trkpt>
      <trkpt lat="42.76487" lon="1.49654">
        <ele>910</ele>
        <time>2026-06-28T04:40:36.000Z</time>
      </trkpt>
      <trkpt lat="42.76486" lon="1.49652">
        <ele>910</ele>
        <time>2026-06-28T04:40:37.000Z</time>
      </trkpt>
      <trkpt lat="42.76485" lon="1.49649">
        <ele>910</ele>
        <time>2026-06-28T04:40:38.000Z</time>
      </trkpt>
      <trkpt lat="42.76484" lon="1.49646">
        <ele>910</ele>
        <time>2026-06-28T04:40:39.000Z</time>
      </trkpt>
      <trkpt lat="42.76483" lon="1.49643">
        <ele>910</ele>
        <time>2026-06-28T04:40:40.000Z</time>
      </trkpt>
      <trkpt lat="42.76483" lon="1.4964">
        <ele>910</ele>
        <time>2026-06-28T04:40:41.000Z</time>
      </trkpt>
      <trkpt lat="42.76482" lon="1.49637">
        <ele>911</ele>
        <time>2026-06-28T04:40:42.000Z</time>
      </trkpt>
      <trkpt lat="42.76481" lon="1.49635">
        <ele>911</ele>
        <time>2026-06-28T04:40:43.000Z</time>
      </trkpt>
      <trkpt lat="42.76481" lon="1.49631">
        <ele>911</ele>
        <time>2026-06-28T04:40:44.000Z</time>
      </trkpt>
      <trkpt lat="42.7648" lon="1.49629">
        <ele>911</ele>
        <time>2026-06-28T04:40:45.000Z</time>
      </trkpt>
      <trkpt lat="42.76479" lon="1.49627">
        <ele>911</ele>
        <time>2026-06-28T04:40:46.000Z</time>
      </trkpt>
      <trkpt lat="42.76477" lon="1.49624">
        <ele>911</ele>
        <time>2026-06-28T04:40:47.000Z</time>
      </trkpt>
      <trkpt lat="42.76476" lon="1.49622">
        <ele>912</ele>
        <time>2026-06-28T04:40:48.000Z</time>
      </trkpt>
      <trkpt lat="42.76474" lon="1.4962">
        <ele>912</ele>
        <time>2026-06-28T04:40:49.000Z</time>
      </trkpt>
      <trkpt lat="42.76472" lon="1.49618">
        <ele>911</ele>
        <time>2026-06-28T04:40:50.000Z</time>
      </trkpt>
      <trkpt lat="42.76471" lon="1.49616">
        <ele>912</ele>
        <time>2026-06-28T04:40:51.000Z</time>
      </trkpt>
      <trkpt lat="42.76469" lon="1.49614">
        <ele>912</ele>
        <time>2026-06-28T04:40:52.000Z</time>
      </trkpt>
      <trkpt lat="42.76468" lon="1.49613">
        <ele>912</ele>
        <time>2026-06-28T04:40:53.000Z</time>
      </trkpt>
      <trkpt lat="42.76466" lon="1.49611">
        <ele>912</ele>
        <time>2026-06-28T04:40:54.000Z</time>
      </trkpt>
      <trkpt lat="42.76465" lon="1.49608">
        <ele>913</ele>
        <time>2026-06-28T04:40:55.000Z</time>
      </trkpt>
      <trkpt lat="42.76463" lon="1.49607">
        <ele>913</ele>
        <time>2026-06-28T04:40:56.000Z</time>
      </trkpt>
      <trkpt lat="42.76462" lon="1.49604">
        <ele>914</ele>
        <time>2026-06-28T04:40:57.000Z</time>
      </trkpt>
      <trkpt lat="42.76461" lon="1.49601">
        <ele>914</ele>
        <time>2026-06-28T04:40:58.000Z</time>
      </trkpt>
      <trkpt lat="42.7646" lon="1.49597">
        <ele>914</ele>
        <time>2026-06-28T04:40:59.000Z</time>
      </trkpt>
      <trkpt lat="42.76459" lon="1.49594">
        <ele>914</ele>
        <time>2026-06-28T04:41:00.000Z</time>
      </trkpt>
      <trkpt lat="42.76458" lon="1.49591">
        <ele>914</ele>
        <time>2026-06-28T04:41:01.000Z</time>
      </trkpt>
      <trkpt lat="42.76457" lon="1.49588">
        <ele>914</ele>
        <time>2026-06-28T04:41:02.000Z</time>
      </trkpt>
      <trkpt lat="42.76457" lon="1.49585">
        <ele>915</ele>
        <time>2026-06-28T04:41:03.000Z</time>
      </trkpt>
      <trkpt lat="42.76456" lon="1.49582">
        <ele>915</ele>
        <time>2026-06-28T04:41:04.000Z</time>
      </trkpt>
      <trkpt lat="42.76455" lon="1.4958">
        <ele>916</ele>
        <time>2026-06-28T04:41:05.000Z</time>
      </trkpt>
      <trkpt lat="42.76454" lon="1.49578">
        <ele>916</ele>
        <time>2026-06-28T04:41:06.000Z</time>
      </trkpt>
      <trkpt lat="42.76453" lon="1.49575">
        <ele>917</ele>
        <time>2026-06-28T04:41:07.000Z</time>
      </trkpt>
      <trkpt lat="42.76452" lon="1.49573">
        <ele>916</ele>
        <time>2026-06-28T04:41:08.000Z</time>
      </trkpt>
      <trkpt lat="42.7645" lon="1.49571">
        <ele>916</ele>
        <time>2026-06-28T04:41:09.000Z</time>
      </trkpt>
      <trkpt lat="42.76449" lon="1.49569">
        <ele>916</ele>
        <time>2026-06-28T04:41:10.000Z</time>
      </trkpt>
      <trkpt lat="42.76447" lon="1.49566">
        <ele>917</ele>
        <time>2026-06-28T04:41:11.000Z</time>
      </trkpt>
      <trkpt lat="42.76446" lon="1.49564">
        <ele>917</ele>
        <time>2026-06-28T04:41:12.000Z</time>
      </trkpt>
      <trkpt lat="42.76444" lon="1.49562">
        <ele>916</ele>
        <time>2026-06-28T04:41:13.000Z</time>
      </trkpt>
      <trkpt lat="42.76442" lon="1.4956">
        <ele>916</ele>
        <time>2026-06-28T04:41:14.000Z</time>
      </trkpt>
      <trkpt lat="42.76441" lon="1.49559">
        <ele>916</ele>
        <time>2026-06-28T04:41:15.000Z</time>
      </trkpt>
      <trkpt lat="42.76439" lon="1.49558">
        <ele>916</ele>
        <time>2026-06-28T04:41:16.000Z</time>
      </trkpt>
      <trkpt lat="42.76437" lon="1.49557">
        <ele>916</ele>
        <time>2026-06-28T04:41:17.000Z</time>
      </trkpt>
      <trkpt lat="42.76435" lon="1.49555">
        <ele>917</ele>
        <time>2026-06-28T04:41:18.000Z</time>
      </trkpt>
      <trkpt lat="42.76434" lon="1.49554">
        <ele>917</ele>
        <time>2026-06-28T04:41:19.000Z</time>
      </trkpt>
      <trkpt lat="42.76432" lon="1.49553">
        <ele>918</ele>
        <time>2026-06-28T04:41:20.000Z</time>
      </trkpt>
      <trkpt lat="42.7643" lon="1.49551">
        <ele>918</ele>
        <time>2026-06-28T04:41:21.000Z</time>
      </trkpt>
      <trkpt lat="42.76427" lon="1.4955">
        <ele>917</ele>
        <time>2026-06-28T04:41:22.000Z</time>
      </trkpt>
      <trkpt lat="42.76425" lon="1.49548">
        <ele>917</ele>
        <time>2026-06-28T04:41:23.000Z</time>
      </trkpt>
      <trkpt lat="42.76423" lon="1.49547">
        <ele>918</ele>
        <time>2026-06-28T04:41:24.000Z</time>
      </trkpt>
      <trkpt lat="42.76422" lon="1.49545">
        <ele>918</ele>
        <time>2026-06-28T04:41:25.000Z</time>
      </trkpt>
      <trkpt lat="42.7642" lon="1.49543">
        <ele>918</ele>
        <time>2026-06-28T04:41:26.000Z</time>
      </trkpt>
      <trkpt lat="42.76418" lon="1.49541">
        <ele>918</ele>
        <time>2026-06-28T04:41:27.000Z</time>
      </trkpt>
      <trkpt lat="42.76416" lon="1.49539">
        <ele>919</ele>
        <time>2026-06-28T04:41:28.000Z</time>
      </trkpt>
      <trkpt lat="42.76415" lon="1.49537">
        <ele>919</ele>
        <time>2026-06-28T04:41:29.000Z</time>
      </trkpt>
      <trkpt lat="42.76413" lon="1.49535">
        <ele>918</ele>
        <time>2026-06-28T04:41:30.000Z</time>
      </trkpt>
      <trkpt lat="42.76411" lon="1.49533">
        <ele>919</ele>
        <time>2026-06-28T04:41:31.000Z</time>
      </trkpt>
      <trkpt lat="42.76409" lon="1.49531">
        <ele>919</ele>
        <time>2026-06-28T04:41:32.000Z</time>
      </trkpt>
      <trkpt lat="42.76408" lon="1.4953">
        <ele>919</ele>
        <time>2026-06-28T04:41:33.000Z</time>
      </trkpt>
      <trkpt lat="42.76406" lon="1.49528">
        <ele>920</ele>
        <time>2026-06-28T04:41:34.000Z</time>
      </trkpt>
      <trkpt lat="42.76405" lon="1.49526">
        <ele>921</ele>
        <time>2026-06-28T04:41:35.000Z</time>
      </trkpt>
      <trkpt lat="42.76403" lon="1.49524">
        <ele>921</ele>
        <time>2026-06-28T04:41:36.000Z</time>
      </trkpt>
      <trkpt lat="42.76401" lon="1.49523">
        <ele>921</ele>
        <time>2026-06-28T04:41:37.000Z</time>
      </trkpt>
      <trkpt lat="42.764" lon="1.49521">
        <ele>921</ele>
        <time>2026-06-28T04:41:38.000Z</time>
      </trkpt>
      <trkpt lat="42.76398" lon="1.4952">
        <ele>921</ele>
        <time>2026-06-28T04:41:39.000Z</time>
      </trkpt>
      <trkpt lat="42.76396" lon="1.49518">
        <ele>922</ele>
        <time>2026-06-28T04:41:40.000Z</time>
      </trkpt>
      <trkpt lat="42.76394" lon="1.49517">
        <ele>922</ele>
        <time>2026-06-28T04:41:41.000Z</time>
      </trkpt>
      <trkpt lat="42.76393" lon="1.49516">
        <ele>922</ele>
        <time>2026-06-28T04:41:42.000Z</time>
      </trkpt>
      <trkpt lat="42.76391" lon="1.49516">
        <ele>922</ele>
        <time>2026-06-28T04:41:43.000Z</time>
      </trkpt>
      <trkpt lat="42.76389" lon="1.49515">
        <ele>921</ele>
        <time>2026-06-28T04:41:44.000Z</time>
      </trkpt>
      <trkpt lat="42.76386" lon="1.49516">
        <ele>921</ele>
        <time>2026-06-28T04:41:45.000Z</time>
      </trkpt>
      <trkpt lat="42.76383" lon="1.49517">
        <ele>921</ele>
        <time>2026-06-28T04:41:46.000Z</time>
      </trkpt>
      <trkpt lat="42.7638" lon="1.4952">
        <ele>921</ele>
        <time>2026-06-28T04:41:47.000Z</time>
      </trkpt>
      <trkpt lat="42.76377" lon="1.49521">
        <ele>921</ele>
        <time>2026-06-28T04:41:48.000Z</time>
      </trkpt>
      <trkpt lat="42.76374" lon="1.49523">
        <ele>921</ele>
        <time>2026-06-28T04:41:49.000Z</time>
      </trkpt>
      <trkpt lat="42.76371" lon="1.49525">
        <ele>921</ele>
        <time>2026-06-28T04:41:50.000Z</time>
      </trkpt>
      <trkpt lat="42.76368" lon="1.49526">
        <ele>920</ele>
        <time>2026-06-28T04:41:51.000Z</time>
      </trkpt>
      <trkpt lat="42.76363" lon="1.49527">
        <ele>920</ele>
        <time>2026-06-28T04:41:52.000Z</time>
      </trkpt>
      <trkpt lat="42.7636" lon="1.49527">
        <ele>920</ele>
        <time>2026-06-28T04:41:53.000Z</time>
      </trkpt>
      <trkpt lat="42.76355" lon="1.49526">
        <ele>920</ele>
        <time>2026-06-28T04:41:54.000Z</time>
      </trkpt>
      <trkpt lat="42.76351" lon="1.49526">
        <ele>920</ele>
        <time>2026-06-28T04:41:55.000Z</time>
      </trkpt>
      <trkpt lat="42.76347" lon="1.49526">
        <ele>920</ele>
        <time>2026-06-28T04:41:56.000Z</time>
      </trkpt>
      <trkpt lat="42.76343" lon="1.49526">
        <ele>920</ele>
        <time>2026-06-28T04:41:57.000Z</time>
      </trkpt>
      <trkpt lat="42.7634" lon="1.49524">
        <ele>920</ele>
        <time>2026-06-28T04:41:58.000Z</time>
      </trkpt>
      <trkpt lat="42.76336" lon="1.49525">
        <ele>920</ele>
        <time>2026-06-28T04:41:59.000Z</time>
      </trkpt>
      <trkpt lat="42.76332" lon="1.49524">
        <ele>920</ele>
        <time>2026-06-28T04:42:00.000Z</time>
      </trkpt>
      <trkpt lat="42.76328" lon="1.49523">
        <ele>920</ele>
        <time>2026-06-28T04:42:01.000Z</time>
      </trkpt>
      <trkpt lat="42.76325" lon="1.49522">
        <ele>920</ele>
        <time>2026-06-28T04:42:02.000Z</time>
      </trkpt>
      <trkpt lat="42.76321" lon="1.49522">
        <ele>920</ele>
        <time>2026-06-28T04:42:03.000Z</time>
      </trkpt>
      <trkpt lat="42.76317" lon="1.49521">
        <ele>920</ele>
        <time>2026-06-28T04:42:04.000Z</time>
      </trkpt>
      <trkpt lat="42.76314" lon="1.4952">
        <ele>920</ele>
        <time>2026-06-28T04:42:05.000Z</time>
      </trkpt>
      <trkpt lat="42.7631" lon="1.49518">
        <ele>921</ele>
        <time>2026-06-28T04:42:06.000Z</time>
      </trkpt>
      <trkpt lat="42.76307" lon="1.49517">
        <ele>921</ele>
        <time>2026-06-28T04:42:07.000Z</time>
      </trkpt>
      <trkpt lat="42.76304" lon="1.49516">
        <ele>921</ele>
        <time>2026-06-28T04:42:08.000Z</time>
      </trkpt>
      <trkpt lat="42.76299" lon="1.49514">
        <ele>920</ele>
        <time>2026-06-28T04:42:09.000Z</time>
      </trkpt>
      <trkpt lat="42.76295" lon="1.49513">
        <ele>920</ele>
        <time>2026-06-28T04:42:10.000Z</time>
      </trkpt>
      <trkpt lat="42.76292" lon="1.49512">
        <ele>921</ele>
        <time>2026-06-28T04:42:11.000Z</time>
      </trkpt>
      <trkpt lat="42.76288" lon="1.49511">
        <ele>921</ele>
        <time>2026-06-28T04:42:12.000Z</time>
      </trkpt>
      <trkpt lat="42.76284" lon="1.49509">
        <ele>921</ele>
        <time>2026-06-28T04:42:13.000Z</time>
      </trkpt>
      <trkpt lat="42.7628" lon="1.49509">
        <ele>921</ele>
        <time>2026-06-28T04:42:14.000Z</time>
      </trkpt>
      <trkpt lat="42.76276" lon="1.4951">
        <ele>921</ele>
        <time>2026-06-28T04:42:15.000Z</time>
      </trkpt>
      <trkpt lat="42.76272" lon="1.49511">
        <ele>921</ele>
        <time>2026-06-28T04:42:16.000Z</time>
      </trkpt>
      <trkpt lat="42.76268" lon="1.49512">
        <ele>922</ele>
        <time>2026-06-28T04:42:17.000Z</time>
      </trkpt>
      <trkpt lat="42.76264" lon="1.49513">
        <ele>922</ele>
        <time>2026-06-28T04:42:18.000Z</time>
      </trkpt>
      <trkpt lat="42.76261" lon="1.49513">
        <ele>922</ele>
        <time>2026-06-28T04:42:19.000Z</time>
      </trkpt>
      <trkpt lat="42.76258" lon="1.49514">
        <ele>922</ele>
        <time>2026-06-28T04:42:20.000Z</time>
      </trkpt>
      <trkpt lat="42.76254" lon="1.49515">
        <ele>922</ele>
        <time>2026-06-28T04:42:21.000Z</time>
      </trkpt>
      <trkpt lat="42.7625" lon="1.49516">
        <ele>922</ele>
        <time>2026-06-28T04:42:22.000Z</time>
      </trkpt>
      <trkpt lat="42.76246" lon="1.49516">
        <ele>922</ele>
        <time>2026-06-28T04:42:23.000Z</time>
      </trkpt>
      <trkpt lat="42.76242" lon="1.49517">
        <ele>922</ele>
        <time>2026-06-28T04:42:24.000Z</time>
      </trkpt>
      <trkpt lat="42.76238" lon="1.49518">
        <ele>922</ele>
        <time>2026-06-28T04:42:25.000Z</time>
      </trkpt>
      <trkpt lat="42.76234" lon="1.49521">
        <ele>922</ele>
        <time>2026-06-28T04:42:26.000Z</time>
      </trkpt>
      <trkpt lat="42.76229" lon="1.49524">
        <ele>923</ele>
        <time>2026-06-28T04:42:27.000Z</time>
      </trkpt>
      <trkpt lat="42.76225" lon="1.49528">
        <ele>923</ele>
        <time>2026-06-28T04:42:28.000Z</time>
      </trkpt>
      <trkpt lat="42.76221" lon="1.49532">
        <ele>922</ele>
        <time>2026-06-28T04:42:29.000Z</time>
      </trkpt>
      <trkpt lat="42.76215" lon="1.49535">
        <ele>922</ele>
        <time>2026-06-28T04:42:30.000Z</time>
      </trkpt>
      <trkpt lat="42.76209" lon="1.49537">
        <ele>922</ele>
        <time>2026-06-28T04:42:31.000Z</time>
      </trkpt>
      <trkpt lat="42.76202" lon="1.49537">
        <ele>922</ele>
        <time>2026-06-28T04:42:32.000Z</time>
      </trkpt>
      <trkpt lat="42.76196" lon="1.49533">
        <ele>922</ele>
        <time>2026-06-28T04:42:33.000Z</time>
      </trkpt>
      <trkpt lat="42.76192" lon="1.49529">
        <ele>922</ele>
        <time>2026-06-28T04:42:34.000Z</time>
      </trkpt>
      <trkpt lat="42.76188" lon="1.49524">
        <ele>922</ele>
        <time>2026-06-28T04:42:35.000Z</time>
      </trkpt>
      <trkpt lat="42.76186" lon="1.49519">
        <ele>922</ele>
        <time>2026-06-28T04:42:36.000Z</time>
      </trkpt>
      <trkpt lat="42.76185" lon="1.49512">
        <ele>922</ele>
        <time>2026-06-28T04:42:37.000Z</time>
      </trkpt>
      <trkpt lat="42.76185" lon="1.49508">
        <ele>923</ele>
        <time>2026-06-28T04:42:38.000Z</time>
      </trkpt>
      <trkpt lat="42.76185" lon="1.49504">
        <ele>923</ele>
        <time>2026-06-28T04:42:39.000Z</time>
      </trkpt>
      <trkpt lat="42.76186" lon="1.495">
        <ele>924</ele>
        <time>2026-06-28T04:42:40.000Z</time>
      </trkpt>
      <trkpt lat="42.76186" lon="1.49497">
        <ele>924</ele>
        <time>2026-06-28T04:42:41.000Z</time>
      </trkpt>
      <trkpt lat="42.76187" lon="1.49494">
        <ele>924</ele>
        <time>2026-06-28T04:42:42.000Z</time>
      </trkpt>
      <trkpt lat="42.76187" lon="1.49491">
        <ele>924</ele>
        <time>2026-06-28T04:42:43.000Z</time>
      </trkpt>
      <trkpt lat="42.76188" lon="1.49488">
        <ele>925</ele>
        <time>2026-06-28T04:42:44.000Z</time>
      </trkpt>
      <trkpt lat="42.76188" lon="1.49485">
        <ele>926</ele>
        <time>2026-06-28T04:42:45.000Z</time>
      </trkpt>
      <trkpt lat="42.76189" lon="1.49483">
        <ele>926</ele>
        <time>2026-06-28T04:42:46.000Z</time>
      </trkpt>
      <trkpt lat="42.76189" lon="1.4948">
        <ele>927</ele>
        <time>2026-06-28T04:42:47.000Z</time>
      </trkpt>
      <trkpt lat="42.7619" lon="1.49478">
        <ele>928</ele>
        <time>2026-06-28T04:42:48.000Z</time>
      </trkpt>
      <trkpt lat="42.76191" lon="1.49474">
        <ele>928</ele>
        <time>2026-06-28T04:42:49.000Z</time>
      </trkpt>
      <trkpt lat="42.76192" lon="1.49471">
        <ele>929</ele>
        <time>2026-06-28T04:42:50.000Z</time>
      </trkpt>
      <trkpt lat="42.76192" lon="1.49468">
        <ele>930</ele>
        <time>2026-06-28T04:42:51.000Z</time>
      </trkpt>
      <trkpt lat="42.76193" lon="1.49466">
        <ele>931</ele>
        <time>2026-06-28T04:42:52.000Z</time>
      </trkpt>
      <trkpt lat="42.76193" lon="1.49463">
        <ele>933</ele>
        <time>2026-06-28T04:42:53.000Z</time>
      </trkpt>
      <trkpt lat="42.76194" lon="1.49461">
        <ele>934</ele>
        <time>2026-06-28T04:42:54.000Z</time>
      </trkpt>
      <trkpt lat="42.76194" lon="1.49458">
        <ele>934</ele>
        <time>2026-06-28T04:42:55.000Z</time>
      </trkpt>
      <trkpt lat="42.76194" lon="1.49455">
        <ele>936</ele>
        <time>2026-06-28T04:42:56.000Z</time>
      </trkpt>
      <trkpt lat="42.76195" lon="1.49451">
        <ele>937</ele>
        <time>2026-06-28T04:42:57.000Z</time>
      </trkpt>
      <trkpt lat="42.76196" lon="1.49448">
        <ele>938</ele>
        <time>2026-06-28T04:42:58.000Z</time>
      </trkpt>
      <trkpt lat="42.76197" lon="1.49445">
        <ele>938</ele>
        <time>2026-06-28T04:42:59.000Z</time>
      </trkpt>
      <trkpt lat="42.76197" lon="1.49441">
        <ele>938</ele>
        <time>2026-06-28T04:43:00.000Z</time>
      </trkpt>
      <trkpt lat="42.76197" lon="1.49438">
        <ele>938</ele>
        <time>2026-06-28T04:43:01.000Z</time>
      </trkpt>
      <trkpt lat="42.76198" lon="1.49434">
        <ele>938</ele>
        <time>2026-06-28T04:43:02.000Z</time>
      </trkpt>
      <trkpt lat="42.76198" lon="1.49431">
        <ele>939</ele>
        <time>2026-06-28T04:43:03.000Z</time>
      </trkpt>
      <trkpt lat="42.76198" lon="1.49427">
        <ele>939</ele>
        <time>2026-06-28T04:43:04.000Z</time>
      </trkpt>
      <trkpt lat="42.76198" lon="1.49423">
        <ele>939</ele>
        <time>2026-06-28T04:43:05.000Z</time>
      </trkpt>
      <trkpt lat="42.76198" lon="1.49419">
        <ele>939</ele>
        <time>2026-06-28T04:43:06.000Z</time>
      </trkpt>
      <trkpt lat="42.76197" lon="1.49415">
        <ele>938</ele>
        <time>2026-06-28T04:43:07.000Z</time>
      </trkpt>
      <trkpt lat="42.76197" lon="1.49412">
        <ele>938</ele>
        <time>2026-06-28T04:43:08.000Z</time>
      </trkpt>
      <trkpt lat="42.76196" lon="1.49408">
        <ele>938</ele>
        <time>2026-06-28T04:43:09.000Z</time>
      </trkpt>
      <trkpt lat="42.76195" lon="1.49404">
        <ele>938</ele>
        <time>2026-06-28T04:43:10.000Z</time>
      </trkpt>
      <trkpt lat="42.76194" lon="1.49401">
        <ele>937</ele>
        <time>2026-06-28T04:43:11.000Z</time>
      </trkpt>
      <trkpt lat="42.76193" lon="1.49397">
        <ele>937</ele>
        <time>2026-06-28T04:43:12.000Z</time>
      </trkpt>
      <trkpt lat="42.76191" lon="1.49394">
        <ele>936</ele>
        <time>2026-06-28T04:43:13.000Z</time>
      </trkpt>
      <trkpt lat="42.7619" lon="1.49391">
        <ele>935</ele>
        <time>2026-06-28T04:43:14.000Z</time>
      </trkpt>
      <trkpt lat="42.76189" lon="1.49388">
        <ele>935</ele>
        <time>2026-06-28T04:43:15.000Z</time>
      </trkpt>
      <trkpt lat="42.76187" lon="1.49384">
        <ele>936</ele>
        <time>2026-06-28T04:43:16.000Z</time>
      </trkpt>
      <trkpt lat="42.76186" lon="1.49381">
        <ele>935</ele>
        <time>2026-06-28T04:43:17.000Z</time>
      </trkpt>
      <trkpt lat="42.76184" lon="1.49378">
        <ele>935</ele>
        <time>2026-06-28T04:43:18.000Z</time>
      </trkpt>
      <trkpt lat="42.76182" lon="1.49376">
        <ele>936</ele>
        <time>2026-06-28T04:43:19.000Z</time>
      </trkpt>
      <trkpt lat="42.76181" lon="1.49372">
        <ele>936</ele>
        <time>2026-06-28T04:43:20.000Z</time>
      </trkpt>
      <trkpt lat="42.7618" lon="1.49369">
        <ele>936</ele>
        <time>2026-06-28T04:43:21.000Z</time>
      </trkpt>
      <trkpt lat="42.76178" lon="1.49366">
        <ele>936</ele>
        <time>2026-06-28T04:43:22.000Z</time>
      </trkpt>
      <trkpt lat="42.76177" lon="1.49363">
        <ele>936</ele>
        <time>2026-06-28T04:43:23.000Z</time>
      </trkpt>
      <trkpt lat="42.76176" lon="1.4936">
        <ele>936</ele>
        <time>2026-06-28T04:43:24.000Z</time>
      </trkpt>
      <trkpt lat="42.76174" lon="1.49356">
        <ele>936</ele>
        <time>2026-06-28T04:43:25.000Z</time>
      </trkpt>
      <trkpt lat="42.76173" lon="1.49353">
        <ele>936</ele>
        <time>2026-06-28T04:43:26.000Z</time>
      </trkpt>
      <trkpt lat="42.76172" lon="1.49349">
        <ele>936</ele>
        <time>2026-06-28T04:43:27.000Z</time>
      </trkpt>
      <trkpt lat="42.76172" lon="1.49346">
        <ele>937</ele>
        <time>2026-06-28T04:43:28.000Z</time>
      </trkpt>
      <trkpt lat="42.76171" lon="1.49343">
        <ele>937</ele>
        <time>2026-06-28T04:43:29.000Z</time>
      </trkpt>
      <trkpt lat="42.76171" lon="1.49339">
        <ele>937</ele>
        <time>2026-06-28T04:43:30.000Z</time>
      </trkpt>
      <trkpt lat="42.7617" lon="1.49335">
        <ele>937</ele>
        <time>2026-06-28T04:43:31.000Z</time>
      </trkpt>
      <trkpt lat="42.76169" lon="1.49331">
        <ele>937</ele>
        <time>2026-06-28T04:43:32.000Z</time>
      </trkpt>
      <trkpt lat="42.76168" lon="1.49327">
        <ele>936</ele>
        <time>2026-06-28T04:43:33.000Z</time>
      </trkpt>
      <trkpt lat="42.76167" lon="1.49323">
        <ele>936</ele>
        <time>2026-06-28T04:43:34.000Z</time>
      </trkpt>
      <trkpt lat="42.76166" lon="1.49319">
        <ele>936</ele>
        <time>2026-06-28T04:43:35.000Z</time>
      </trkpt>
      <trkpt lat="42.76166" lon="1.49316">
        <ele>937</ele>
        <time>2026-06-28T04:43:36.000Z</time>
      </trkpt>
      <trkpt lat="42.76165" lon="1.49312">
        <ele>937</ele>
        <time>2026-06-28T04:43:37.000Z</time>
      </trkpt>
      <trkpt lat="42.76165" lon="1.49309">
        <ele>938</ele>
        <time>2026-06-28T04:43:38.000Z</time>
      </trkpt>
      <trkpt lat="42.76165" lon="1.49306">
        <ele>939</ele>
        <time>2026-06-28T04:43:39.000Z</time>
      </trkpt>
      <trkpt lat="42.76164" lon="1.49302">
        <ele>939</ele>
        <time>2026-06-28T04:43:40.000Z</time>
      </trkpt>
      <trkpt lat="42.76164" lon="1.49299">
        <ele>939</ele>
        <time>2026-06-28T04:43:41.000Z</time>
      </trkpt>
      <trkpt lat="42.76163" lon="1.49296">
        <ele>939</ele>
        <time>2026-06-28T04:43:42.000Z</time>
      </trkpt>
      <trkpt lat="42.76162" lon="1.49293">
        <ele>940</ele>
        <time>2026-06-28T04:43:43.000Z</time>
      </trkpt>
      <trkpt lat="42.76162" lon="1.4929">
        <ele>940</ele>
        <time>2026-06-28T04:43:44.000Z</time>
      </trkpt>
      <trkpt lat="42.76161" lon="1.49286">
        <ele>941</ele>
        <time>2026-06-28T04:43:45.000Z</time>
      </trkpt>
      <trkpt lat="42.76161" lon="1.49283">
        <ele>941</ele>
        <time>2026-06-28T04:43:46.000Z</time>
      </trkpt>
      <trkpt lat="42.76161" lon="1.49279">
        <ele>941</ele>
        <time>2026-06-28T04:43:47.000Z</time>
      </trkpt>
      <trkpt lat="42.76161" lon="1.49276">
        <ele>942</ele>
        <time>2026-06-28T04:43:48.000Z</time>
      </trkpt>
      <trkpt lat="42.7616" lon="1.49273">
        <ele>942</ele>
        <time>2026-06-28T04:43:49.000Z</time>
      </trkpt>
      <trkpt lat="42.7616" lon="1.49269">
        <ele>942</ele>
        <time>2026-06-28T04:43:50.000Z</time>
      </trkpt>
      <trkpt lat="42.7616" lon="1.49266">
        <ele>943</ele>
        <time>2026-06-28T04:43:51.000Z</time>
      </trkpt>
      <trkpt lat="42.7616" lon="1.49263">
        <ele>943</ele>
        <time>2026-06-28T04:43:52.000Z</time>
      </trkpt>
      <trkpt lat="42.7616" lon="1.4926">
        <ele>943</ele>
        <time>2026-06-28T04:43:53.000Z</time>
      </trkpt>
      <trkpt lat="42.7616" lon="1.49256">
        <ele>944</ele>
        <time>2026-06-28T04:43:54.000Z</time>
      </trkpt>
      <trkpt lat="42.7616" lon="1.49253">
        <ele>944</ele>
        <time>2026-06-28T04:43:55.000Z</time>
      </trkpt>
      <trkpt lat="42.76159" lon="1.49249">
        <ele>943</ele>
        <time>2026-06-28T04:43:56.000Z</time>
      </trkpt>
      <trkpt lat="42.7616" lon="1.49246">
        <ele>943</ele>
        <time>2026-06-28T04:43:57.000Z</time>
      </trkpt>
      <trkpt lat="42.76159" lon="1.49243">
        <ele>943</ele>
        <time>2026-06-28T04:43:58.000Z</time>
      </trkpt>
      <trkpt lat="42.76159" lon="1.4924">
        <ele>942</ele>
        <time>2026-06-28T04:43:59.000Z</time>
      </trkpt>
      <trkpt lat="42.76159" lon="1.49236">
        <ele>942</ele>
        <time>2026-06-28T04:44:00.000Z</time>
      </trkpt>
      <trkpt lat="42.76159" lon="1.49233">
        <ele>942</ele>
        <time>2026-06-28T04:44:01.000Z</time>
      </trkpt>
      <trkpt lat="42.76159" lon="1.49229">
        <ele>942</ele>
        <time>2026-06-28T04:44:02.000Z</time>
      </trkpt>
      <trkpt lat="42.76159" lon="1.49226">
        <ele>942</ele>
        <time>2026-06-28T04:44:03.000Z</time>
      </trkpt>
      <trkpt lat="42.76159" lon="1.49223">
        <ele>943</ele>
        <time>2026-06-28T04:44:04.000Z</time>
      </trkpt>
      <trkpt lat="42.76159" lon="1.49219">
        <ele>942</ele>
        <time>2026-06-28T04:44:05.000Z</time>
      </trkpt>
      <trkpt lat="42.7616" lon="1.49215">
        <ele>942</ele>
        <time>2026-06-28T04:44:06.000Z</time>
      </trkpt>
      <trkpt lat="42.7616" lon="1.49212">
        <ele>943</ele>
        <time>2026-06-28T04:44:07.000Z</time>
      </trkpt>
      <trkpt lat="42.7616" lon="1.49209">
        <ele>942</ele>
        <time>2026-06-28T04:44:08.000Z</time>
      </trkpt>
      <trkpt lat="42.7616" lon="1.49205">
        <ele>943</ele>
        <time>2026-06-28T04:44:09.000Z</time>
      </trkpt>
      <trkpt lat="42.7616" lon="1.49201">
        <ele>943</ele>
        <time>2026-06-28T04:44:10.000Z</time>
      </trkpt>
      <trkpt lat="42.7616" lon="1.49197">
        <ele>943</ele>
        <time>2026-06-28T04:44:11.000Z</time>
      </trkpt>
      <trkpt lat="42.7616" lon="1.49193">
        <ele>943</ele>
        <time>2026-06-28T04:44:12.000Z</time>
      </trkpt>
      <trkpt lat="42.76161" lon="1.49189">
        <ele>943</ele>
        <time>2026-06-28T04:44:13.000Z</time>
      </trkpt>
      <trkpt lat="42.76162" lon="1.49185">
        <ele>943</ele>
        <time>2026-06-28T04:44:14.000Z</time>
      </trkpt>
      <trkpt lat="42.76162" lon="1.49181">
        <ele>943</ele>
        <time>2026-06-28T04:44:15.000Z</time>
      </trkpt>
      <trkpt lat="42.76162" lon="1.49177">
        <ele>943</ele>
        <time>2026-06-28T04:44:16.000Z</time>
      </trkpt>
      <trkpt lat="42.76163" lon="1.49173">
        <ele>943</ele>
        <time>2026-06-28T04:44:17.000Z</time>
      </trkpt>
      <trkpt lat="42.76163" lon="1.49169">
        <ele>943</ele>
        <time>2026-06-28T04:44:18.000Z</time>
      </trkpt>
      <trkpt lat="42.76163" lon="1.49165">
        <ele>944</ele>
        <time>2026-06-28T04:44:19.000Z</time>
      </trkpt>
      <trkpt lat="42.76163" lon="1.49162">
        <ele>944</ele>
        <time>2026-06-28T04:44:20.000Z</time>
      </trkpt>
      <trkpt lat="42.76163" lon="1.49158">
        <ele>944</ele>
        <time>2026-06-28T04:44:21.000Z</time>
      </trkpt>
      <trkpt lat="42.76164" lon="1.49154">
        <ele>944</ele>
        <time>2026-06-28T04:44:22.000Z</time>
      </trkpt>
      <trkpt lat="42.76164" lon="1.4915">
        <ele>943</ele>
        <time>2026-06-28T04:44:23.000Z</time>
      </trkpt>
      <trkpt lat="42.76165" lon="1.49146">
        <ele>944</ele>
        <time>2026-06-28T04:44:24.000Z</time>
      </trkpt>
      <trkpt lat="42.76165" lon="1.49143">
        <ele>944</ele>
        <time>2026-06-28T04:44:25.000Z</time>
      </trkpt>
      <trkpt lat="42.76166" lon="1.49139">
        <ele>944</ele>
        <time>2026-06-28T04:44:26.000Z</time>
      </trkpt>
      <trkpt lat="42.76167" lon="1.49135">
        <ele>944</ele>
        <time>2026-06-28T04:44:27.000Z</time>
      </trkpt>
      <trkpt lat="42.76168" lon="1.49132">
        <ele>943</ele>
        <time>2026-06-28T04:44:28.000Z</time>
      </trkpt>
      <trkpt lat="42.76168" lon="1.49128">
        <ele>944</ele>
        <time>2026-06-28T04:44:29.000Z</time>
      </trkpt>
      <trkpt lat="42.76169" lon="1.49125">
        <ele>944</ele>
        <time>2026-06-28T04:44:30.000Z</time>
      </trkpt>
      <trkpt lat="42.7617" lon="1.49121">
        <ele>944</ele>
        <time>2026-06-28T04:44:31.000Z</time>
      </trkpt>
      <trkpt lat="42.76171" lon="1.49118">
        <ele>944</ele>
        <time>2026-06-28T04:44:32.000Z</time>
      </trkpt>
      <trkpt lat="42.76172" lon="1.49115">
        <ele>944</ele>
        <time>2026-06-28T04:44:33.000Z</time>
      </trkpt>
      <trkpt lat="42.76174" lon="1.49112">
        <ele>945</ele>
        <time>2026-06-28T04:44:34.000Z</time>
      </trkpt>
      <trkpt lat="42.76176" lon="1.49109">
        <ele>945</ele>
        <time>2026-06-28T04:44:35.000Z</time>
      </trkpt>
      <trkpt lat="42.76177" lon="1.49105">
        <ele>945</ele>
        <time>2026-06-28T04:44:36.000Z</time>
      </trkpt>
      <trkpt lat="42.76179" lon="1.49102">
        <ele>946</ele>
        <time>2026-06-28T04:44:37.000Z</time>
      </trkpt>
      <trkpt lat="42.7618" lon="1.49099">
        <ele>945</ele>
        <time>2026-06-28T04:44:38.000Z</time>
      </trkpt>
      <trkpt lat="42.76182" lon="1.49096">
        <ele>946</ele>
        <time>2026-06-28T04:44:39.000Z</time>
      </trkpt>
      <trkpt lat="42.76184" lon="1.49093">
        <ele>946</ele>
        <time>2026-06-28T04:44:40.000Z</time>
      </trkpt>
      <trkpt lat="42.76186" lon="1.4909">
        <ele>946</ele>
        <time>2026-06-28T04:44:41.000Z</time>
      </trkpt>
      <trkpt lat="42.76188" lon="1.49088">
        <ele>947</ele>
        <time>2026-06-28T04:44:42.000Z</time>
      </trkpt>
      <trkpt lat="42.7619" lon="1.49085">
        <ele>947</ele>
        <time>2026-06-28T04:44:43.000Z</time>
      </trkpt>
      <trkpt lat="42.76193" lon="1.49082">
        <ele>947</ele>
        <time>2026-06-28T04:44:44.000Z</time>
      </trkpt>
      <trkpt lat="42.76195" lon="1.49079">
        <ele>947</ele>
        <time>2026-06-28T04:44:45.000Z</time>
      </trkpt>
      <trkpt lat="42.76196" lon="1.49076">
        <ele>947</ele>
        <time>2026-06-28T04:44:46.000Z</time>
      </trkpt>
      <trkpt lat="42.76196" lon="1.49072">
        <ele>947</ele>
        <time>2026-06-28T04:44:47.000Z</time>
      </trkpt>
      <trkpt lat="42.76197" lon="1.49069">
        <ele>947</ele>
        <time>2026-06-28T04:44:48.000Z</time>
      </trkpt>
      <trkpt lat="42.76197" lon="1.49065">
        <ele>948</ele>
        <time>2026-06-28T04:44:49.000Z</time>
      </trkpt>
      <trkpt lat="42.76199" lon="1.49061">
        <ele>948</ele>
        <time>2026-06-28T04:44:50.000Z</time>
      </trkpt>
      <trkpt lat="42.76199" lon="1.49057">
        <ele>948</ele>
        <time>2026-06-28T04:44:51.000Z</time>
      </trkpt>
      <trkpt lat="42.762" lon="1.49054">
        <ele>948</ele>
        <time>2026-06-28T04:44:52.000Z</time>
      </trkpt>
      <trkpt lat="42.762" lon="1.49051">
        <ele>948</ele>
        <time>2026-06-28T04:44:53.000Z</time>
      </trkpt>
      <trkpt lat="42.76201" lon="1.49047">
        <ele>948</ele>
        <time>2026-06-28T04:44:54.000Z</time>
      </trkpt>
      <trkpt lat="42.76201" lon="1.49043">
        <ele>949</ele>
        <time>2026-06-28T04:44:55.000Z</time>
      </trkpt>
      <trkpt lat="42.76202" lon="1.49039">
        <ele>949</ele>
        <time>2026-06-28T04:44:56.000Z</time>
      </trkpt>
      <trkpt lat="42.76204" lon="1.49035">
        <ele>949</ele>
        <time>2026-06-28T04:44:57.000Z</time>
      </trkpt>
      <trkpt lat="42.76204" lon="1.49031">
        <ele>950</ele>
        <time>2026-06-28T04:44:58.000Z</time>
      </trkpt>
      <trkpt lat="42.76204" lon="1.49027">
        <ele>950</ele>
        <time>2026-06-28T04:44:59.000Z</time>
      </trkpt>
      <trkpt lat="42.76205" lon="1.49023">
        <ele>950</ele>
        <time>2026-06-28T04:45:00.000Z</time>
      </trkpt>
      <trkpt lat="42.76205" lon="1.49019">
        <ele>950</ele>
        <time>2026-06-28T04:45:01.000Z</time>
      </trkpt>
      <trkpt lat="42.76205" lon="1.49015">
        <ele>951</ele>
        <time>2026-06-28T04:45:02.000Z</time>
      </trkpt>
      <trkpt lat="42.76205" lon="1.49012">
        <ele>951</ele>
        <time>2026-06-28T04:45:03.000Z</time>
      </trkpt>
      <trkpt lat="42.76204" lon="1.49008">
        <ele>952</ele>
        <time>2026-06-28T04:45:04.000Z</time>
      </trkpt>
      <trkpt lat="42.76204" lon="1.49004">
        <ele>952</ele>
        <time>2026-06-28T04:45:05.000Z</time>
      </trkpt>
      <trkpt lat="42.76203" lon="1.49001">
        <ele>952</ele>
        <time>2026-06-28T04:45:06.000Z</time>
      </trkpt>
      <trkpt lat="42.76203" lon="1.48996">
        <ele>952</ele>
        <time>2026-06-28T04:45:07.000Z</time>
      </trkpt>
      <trkpt lat="42.76202" lon="1.48993">
        <ele>952</ele>
        <time>2026-06-28T04:45:08.000Z</time>
      </trkpt>
      <trkpt lat="42.76201" lon="1.4899">
        <ele>952</ele>
        <time>2026-06-28T04:45:09.000Z</time>
      </trkpt>
      <trkpt lat="42.762" lon="1.48986">
        <ele>953</ele>
        <time>2026-06-28T04:45:10.000Z</time>
      </trkpt>
      <trkpt lat="42.76199" lon="1.48983">
        <ele>952</ele>
        <time>2026-06-28T04:45:11.000Z</time>
      </trkpt>
      <trkpt lat="42.76197" lon="1.48979">
        <ele>953</ele>
        <time>2026-06-28T04:45:12.000Z</time>
      </trkpt>
      <trkpt lat="42.76196" lon="1.48975">
        <ele>953</ele>
        <time>2026-06-28T04:45:13.000Z</time>
      </trkpt>
      <trkpt lat="42.76195" lon="1.48972">
        <ele>953</ele>
        <time>2026-06-28T04:45:14.000Z</time>
      </trkpt>
      <trkpt lat="42.76194" lon="1.48968">
        <ele>952</ele>
        <time>2026-06-28T04:45:15.000Z</time>
      </trkpt>
      <trkpt lat="42.76193" lon="1.48966">
        <ele>952</ele>
        <time>2026-06-28T04:45:16.000Z</time>
      </trkpt>
      <trkpt lat="42.76191" lon="1.48963">
        <ele>953</ele>
        <time>2026-06-28T04:45:17.000Z</time>
      </trkpt>
      <trkpt lat="42.76191" lon="1.4896">
        <ele>953</ele>
        <time>2026-06-28T04:45:18.000Z</time>
      </trkpt>
      <trkpt lat="42.7619" lon="1.48958">
        <ele>954</ele>
        <time>2026-06-28T04:45:19.000Z</time>
      </trkpt>
      <trkpt lat="42.76189" lon="1.48954">
        <ele>954</ele>
        <time>2026-06-28T04:45:20.000Z</time>
      </trkpt>
      <trkpt lat="42.76189" lon="1.48952">
        <ele>954</ele>
        <time>2026-06-28T04:45:21.000Z</time>
      </trkpt>
      <trkpt lat="42.76187" lon="1.4895">
        <ele>955</ele>
        <time>2026-06-28T04:45:22.000Z</time>
      </trkpt>
      <trkpt lat="42.76185" lon="1.48948">
        <ele>956</ele>
        <time>2026-06-28T04:45:23.000Z</time>
      </trkpt>
      <trkpt lat="42.76183" lon="1.48948">
        <ele>957</ele>
        <time>2026-06-28T04:45:24.000Z</time>
      </trkpt>
      <trkpt lat="42.76181" lon="1.48948">
        <ele>958</ele>
        <time>2026-06-28T04:45:25.000Z</time>
      </trkpt>
      <trkpt lat="42.76179" lon="1.48947">
        <ele>959</ele>
        <time>2026-06-28T04:45:26.000Z</time>
      </trkpt>
      <trkpt lat="42.76178" lon="1.48946">
        <ele>960</ele>
        <time>2026-06-28T04:45:27.000Z</time>
      </trkpt>
      <trkpt lat="42.76176" lon="1.48945">
        <ele>961</ele>
        <time>2026-06-28T04:45:28.000Z</time>
      </trkpt>
      <trkpt lat="42.76174" lon="1.48944">
        <ele>961</ele>
        <time>2026-06-28T04:45:29.000Z</time>
      </trkpt>
      <trkpt lat="42.76172" lon="1.48943">
        <ele>962</ele>
        <time>2026-06-28T04:45:30.000Z</time>
      </trkpt>
      <trkpt lat="42.7617" lon="1.48942">
        <ele>962</ele>
        <time>2026-06-28T04:45:31.000Z</time>
      </trkpt>
      <trkpt lat="42.76167" lon="1.48941">
        <ele>962</ele>
        <time>2026-06-28T04:45:32.000Z</time>
      </trkpt>
      <trkpt lat="42.76165" lon="1.4894">
        <ele>962</ele>
        <time>2026-06-28T04:45:33.000Z</time>
      </trkpt>
      <trkpt lat="42.76163" lon="1.48938">
        <ele>962</ele>
        <time>2026-06-28T04:45:34.000Z</time>
      </trkpt>
      <trkpt lat="42.7616" lon="1.48936">
        <ele>962</ele>
        <time>2026-06-28T04:45:35.000Z</time>
      </trkpt>
      <trkpt lat="42.76158" lon="1.48936">
        <ele>962</ele>
        <time>2026-06-28T04:45:36.000Z</time>
      </trkpt>
      <trkpt lat="42.76155" lon="1.48938">
        <ele>963</ele>
        <time>2026-06-28T04:45:37.000Z</time>
      </trkpt>
      <trkpt lat="42.76153" lon="1.4894">
        <ele>962</ele>
        <time>2026-06-28T04:45:38.000Z</time>
      </trkpt>
      <trkpt lat="42.76151" lon="1.48943">
        <ele>962</ele>
        <time>2026-06-28T04:45:39.000Z</time>
      </trkpt>
      <trkpt lat="42.7615" lon="1.48945">
        <ele>962</ele>
        <time>2026-06-28T04:45:40.000Z</time>
      </trkpt>
      <trkpt lat="42.76148" lon="1.48948">
        <ele>962</ele>
        <time>2026-06-28T04:45:41.000Z</time>
      </trkpt>
      <trkpt lat="42.76146" lon="1.48951">
        <ele>962</ele>
        <time>2026-06-28T04:45:42.000Z</time>
      </trkpt>
      <trkpt lat="42.76144" lon="1.48954">
        <ele>962</ele>
        <time>2026-06-28T04:45:43.000Z</time>
      </trkpt>
      <trkpt lat="42.76142" lon="1.48957">
        <ele>962</ele>
        <time>2026-06-28T04:45:44.000Z</time>
      </trkpt>
      <trkpt lat="42.76141" lon="1.4896">
        <ele>961</ele>
        <time>2026-06-28T04:45:45.000Z</time>
      </trkpt>
      <trkpt lat="42.7614" lon="1.48963">
        <ele>962</ele>
        <time>2026-06-28T04:45:46.000Z</time>
      </trkpt>
      <trkpt lat="42.76139" lon="1.48966">
        <ele>962</ele>
        <time>2026-06-28T04:45:47.000Z</time>
      </trkpt>
      <trkpt lat="42.76137" lon="1.4897">
        <ele>962</ele>
        <time>2026-06-28T04:45:48.000Z</time>
      </trkpt>
      <trkpt lat="42.76136" lon="1.48974">
        <ele>962</ele>
        <time>2026-06-28T04:45:49.000Z</time>
      </trkpt>
      <trkpt lat="42.76135" lon="1.48977">
        <ele>962</ele>
        <time>2026-06-28T04:45:50.000Z</time>
      </trkpt>
      <trkpt lat="42.76133" lon="1.4898">
        <ele>962</ele>
        <time>2026-06-28T04:45:51.000Z</time>
      </trkpt>
      <trkpt lat="42.76131" lon="1.48984">
        <ele>962</ele>
        <time>2026-06-28T04:45:52.000Z</time>
      </trkpt>
      <trkpt lat="42.76129" lon="1.48986">
        <ele>962</ele>
        <time>2026-06-28T04:45:53.000Z</time>
      </trkpt>
      <trkpt lat="42.76128" lon="1.48989">
        <ele>962</ele>
        <time>2026-06-28T04:45:54.000Z</time>
      </trkpt>
      <trkpt lat="42.76126" lon="1.48992">
        <ele>962</ele>
        <time>2026-06-28T04:45:55.000Z</time>
      </trkpt>
      <trkpt lat="42.76124" lon="1.48995">
        <ele>962</ele>
        <time>2026-06-28T04:45:56.000Z</time>
      </trkpt>
      <trkpt lat="42.76122" lon="1.48997">
        <ele>962</ele>
        <time>2026-06-28T04:45:57.000Z</time>
      </trkpt>
      <trkpt lat="42.7612" lon="1.49">
        <ele>962</ele>
        <time>2026-06-28T04:45:58.000Z</time>
      </trkpt>
      <trkpt lat="42.76118" lon="1.49002">
        <ele>962</ele>
        <time>2026-06-28T04:45:59.000Z</time>
      </trkpt>
      <trkpt lat="42.76116" lon="1.49005">
        <ele>962</ele>
        <time>2026-06-28T04:46:00.000Z</time>
      </trkpt>
      <trkpt lat="42.76114" lon="1.49007">
        <ele>962</ele>
        <time>2026-06-28T04:46:01.000Z</time>
      </trkpt>
      <trkpt lat="42.76111" lon="1.4901">
        <ele>962</ele>
        <time>2026-06-28T04:46:02.000Z</time>
      </trkpt>
      <trkpt lat="42.76109" lon="1.49012">
        <ele>961</ele>
        <time>2026-06-28T04:46:03.000Z</time>
      </trkpt>
      <trkpt lat="42.76107" lon="1.49015">
        <ele>962</ele>
        <time>2026-06-28T04:46:04.000Z</time>
      </trkpt>
      <trkpt lat="42.76105" lon="1.49018">
        <ele>962</ele>
        <time>2026-06-28T04:46:05.000Z</time>
      </trkpt>
      <trkpt lat="42.76102" lon="1.4902">
        <ele>962</ele>
        <time>2026-06-28T04:46:06.000Z</time>
      </trkpt>
      <trkpt lat="42.761" lon="1.49023">
        <ele>961</ele>
        <time>2026-06-28T04:46:07.000Z</time>
      </trkpt>
      <trkpt lat="42.76098" lon="1.49025">
        <ele>962</ele>
        <time>2026-06-28T04:46:08.000Z</time>
      </trkpt>
      <trkpt lat="42.76097" lon="1.49028">
        <ele>962</ele>
        <time>2026-06-28T04:46:09.000Z</time>
      </trkpt>
      <trkpt lat="42.76095" lon="1.4903">
        <ele>962</ele>
        <time>2026-06-28T04:46:10.000Z</time>
      </trkpt>
      <trkpt lat="42.76093" lon="1.49033">
        <ele>963</ele>
        <time>2026-06-28T04:46:11.000Z</time>
      </trkpt>
      <trkpt lat="42.76091" lon="1.49035">
        <ele>963</ele>
        <time>2026-06-28T04:46:12.000Z</time>
      </trkpt>
      <trkpt lat="42.7609" lon="1.49037">
        <ele>963</ele>
        <time>2026-06-28T04:46:13.000Z</time>
      </trkpt>
      <trkpt lat="42.76087" lon="1.49038">
        <ele>963</ele>
        <time>2026-06-28T04:46:14.000Z</time>
      </trkpt>
      <trkpt lat="42.76086" lon="1.4904">
        <ele>963</ele>
        <time>2026-06-28T04:46:15.000Z</time>
      </trkpt>
      <trkpt lat="42.76085" lon="1.49042">
        <ele>964</ele>
        <time>2026-06-28T04:46:16.000Z</time>
      </trkpt>
      <trkpt lat="42.76083" lon="1.49044">
        <ele>964</ele>
        <time>2026-06-28T04:46:17.000Z</time>
      </trkpt>
      <trkpt lat="42.76082" lon="1.49045">
        <ele>964</ele>
        <time>2026-06-28T04:46:18.000Z</time>
      </trkpt>
      <trkpt lat="42.76081" lon="1.49046">
        <ele>964</ele>
        <time>2026-06-28T04:46:19.000Z</time>
      </trkpt>
      <trkpt lat="42.7608" lon="1.49048">
        <ele>965</ele>
        <time>2026-06-28T04:46:20.000Z</time>
      </trkpt>
      <trkpt lat="42.76077" lon="1.49048">
        <ele>965</ele>
        <time>2026-06-28T04:46:21.000Z</time>
      </trkpt>
      <trkpt lat="42.76075" lon="1.49049">
        <ele>965</ele>
        <time>2026-06-28T04:46:22.000Z</time>
      </trkpt>
      <trkpt lat="42.76073" lon="1.49049">
        <ele>966</ele>
        <time>2026-06-28T04:46:23.000Z</time>
      </trkpt>
      <trkpt lat="42.76072" lon="1.4905">
        <ele>966</ele>
        <time>2026-06-28T04:46:24.000Z</time>
      </trkpt>
      <trkpt lat="42.7607" lon="1.4905">
        <ele>966</ele>
        <time>2026-06-28T04:46:25.000Z</time>
      </trkpt>
      <trkpt lat="42.76069" lon="1.4905">
        <ele>965</ele>
        <time>2026-06-28T04:46:26.000Z</time>
      </trkpt>
      <trkpt lat="42.76068" lon="1.49051">
        <ele>966</ele>
        <time>2026-06-28T04:46:27.000Z</time>
      </trkpt>
      <trkpt lat="42.76067" lon="1.49052">
        <ele>967</ele>
        <time>2026-06-28T04:46:28.000Z</time>
      </trkpt>
      <trkpt lat="42.76065" lon="1.49054">
        <ele>967</ele>
        <time>2026-06-28T04:46:29.000Z</time>
      </trkpt>
      <trkpt lat="42.76063" lon="1.49055">
        <ele>966</ele>
        <time>2026-06-28T04:46:30.000Z</time>
      </trkpt>
      <trkpt lat="42.76061" lon="1.49056">
        <ele>967</ele>
        <time>2026-06-28T04:46:31.000Z</time>
      </trkpt>
      <trkpt lat="42.7606" lon="1.49058">
        <ele>967</ele>
        <time>2026-06-28T04:46:32.000Z</time>
      </trkpt>
      <trkpt lat="42.76058" lon="1.49059">
        <ele>968</ele>
        <time>2026-06-28T04:46:33.000Z</time>
      </trkpt>
      <trkpt lat="42.76056" lon="1.4906">
        <ele>969</ele>
        <time>2026-06-28T04:46:34.000Z</time>
      </trkpt>
      <trkpt lat="42.76055" lon="1.49061">
        <ele>970</ele>
        <time>2026-06-28T04:46:35.000Z</time>
      </trkpt>
      <trkpt lat="42.76053" lon="1.49062">
        <ele>970</ele>
        <time>2026-06-28T04:46:36.000Z</time>
      </trkpt>
      <trkpt lat="42.76052" lon="1.49064">
        <ele>971</ele>
        <time>2026-06-28T04:46:37.000Z</time>
      </trkpt>
      <trkpt lat="42.76051" lon="1.49064">
        <ele>973</ele>
        <time>2026-06-28T04:46:38.000Z</time>
      </trkpt>
      <trkpt lat="42.7605" lon="1.49065">
        <ele>974</ele>
        <time>2026-06-28T04:46:39.000Z</time>
      </trkpt>
      <trkpt lat="42.76048" lon="1.49066">
        <ele>975</ele>
        <time>2026-06-28T04:46:40.000Z</time>
      </trkpt>
      <trkpt lat="42.76046" lon="1.49068">
        <ele>976</ele>
        <time>2026-06-28T04:46:41.000Z</time>
      </trkpt>
      <trkpt lat="42.76044" lon="1.49069">
        <ele>975</ele>
        <time>2026-06-28T04:46:42.000Z</time>
      </trkpt>
      <trkpt lat="42.76043" lon="1.49071">
        <ele>976</ele>
        <time>2026-06-28T04:46:43.000Z</time>
      </trkpt>
      <trkpt lat="42.76041" lon="1.49072">
        <ele>976</ele>
        <time>2026-06-28T04:46:44.000Z</time>
      </trkpt>
      <trkpt lat="42.7604" lon="1.49075">
        <ele>977</ele>
        <time>2026-06-28T04:46:45.000Z</time>
      </trkpt>
      <trkpt lat="42.76039" lon="1.49077">
        <ele>978</ele>
        <time>2026-06-28T04:46:46.000Z</time>
      </trkpt>
      <trkpt lat="42.76038" lon="1.49079">
        <ele>978</ele>
        <time>2026-06-28T04:46:47.000Z</time>
      </trkpt>
      <trkpt lat="42.76038" lon="1.49081">
        <ele>979</ele>
        <time>2026-06-28T04:46:48.000Z</time>
      </trkpt>
      <trkpt lat="42.76037" lon="1.49085">
        <ele>980</ele>
        <time>2026-06-28T04:46:49.000Z</time>
      </trkpt>
      <trkpt lat="42.76037" lon="1.49088">
        <ele>980</ele>
        <time>2026-06-28T04:46:50.000Z</time>
      </trkpt>
      <trkpt lat="42.76036" lon="1.4909">
        <ele>980</ele>
        <time>2026-06-28T04:46:51.000Z</time>
      </trkpt>
      <trkpt lat="42.76036" lon="1.49093">
        <ele>980</ele>
        <time>2026-06-28T04:46:52.000Z</time>
      </trkpt>
      <trkpt lat="42.76035" lon="1.49095">
        <ele>980</ele>
        <time>2026-06-28T04:46:53.000Z</time>
      </trkpt>
      <trkpt lat="42.76035" lon="1.49098">
        <ele>980</ele>
        <time>2026-06-28T04:46:54.000Z</time>
      </trkpt>
      <trkpt lat="42.76034" lon="1.491">
        <ele>980</ele>
        <time>2026-06-28T04:46:55.000Z</time>
      </trkpt>
      <trkpt lat="42.76034" lon="1.49102">
        <ele>980</ele>
        <time>2026-06-28T04:46:56.000Z</time>
      </trkpt>
      <trkpt lat="42.76033" lon="1.49104">
        <ele>981</ele>
        <time>2026-06-28T04:46:57.000Z</time>
      </trkpt>
      <trkpt lat="42.76032" lon="1.49106">
        <ele>981</ele>
        <time>2026-06-28T04:46:58.000Z</time>
      </trkpt>
      <trkpt lat="42.76032" lon="1.49108">
        <ele>982</ele>
        <time>2026-06-28T04:46:59.000Z</time>
      </trkpt>
      <trkpt lat="42.76031" lon="1.4911">
        <ele>982</ele>
        <time>2026-06-28T04:47:00.000Z</time>
      </trkpt>
      <trkpt lat="42.7603" lon="1.49112">
        <ele>982</ele>
        <time>2026-06-28T04:47:01.000Z</time>
      </trkpt>
      <trkpt lat="42.76029" lon="1.49114">
        <ele>982</ele>
        <time>2026-06-28T04:47:02.000Z</time>
      </trkpt>
      <trkpt lat="42.76029" lon="1.49116">
        <ele>982</ele>
        <time>2026-06-28T04:47:03.000Z</time>
      </trkpt>
      <trkpt lat="42.76028" lon="1.49118">
        <ele>982</ele>
        <time>2026-06-28T04:47:04.000Z</time>
      </trkpt>
      <trkpt lat="42.76028" lon="1.4912">
        <ele>982</ele>
        <time>2026-06-28T04:47:05.000Z</time>
      </trkpt>
      <trkpt lat="42.76027" lon="1.49122">
        <ele>981</ele>
        <time>2026-06-28T04:47:06.000Z</time>
      </trkpt>
      <trkpt lat="42.76027" lon="1.49125">
        <ele>982</ele>
        <time>2026-06-28T04:47:07.000Z</time>
      </trkpt>
      <trkpt lat="42.76026" lon="1.49126">
        <ele>982</ele>
        <time>2026-06-28T04:47:08.000Z</time>
      </trkpt>
      <trkpt lat="42.76026" lon="1.49129">
        <ele>982</ele>
        <time>2026-06-28T04:47:09.000Z</time>
      </trkpt>
      <trkpt lat="42.76025" lon="1.49131">
        <ele>982</ele>
        <time>2026-06-28T04:47:10.000Z</time>
      </trkpt>
      <trkpt lat="42.76025" lon="1.49133">
        <ele>982</ele>
        <time>2026-06-28T04:47:11.000Z</time>
      </trkpt>
      <trkpt lat="42.76024" lon="1.49135">
        <ele>982</ele>
        <time>2026-06-28T04:47:12.000Z</time>
      </trkpt>
      <trkpt lat="42.76023" lon="1.49136">
        <ele>982</ele>
        <time>2026-06-28T04:47:13.000Z</time>
      </trkpt>
      <trkpt lat="42.76022" lon="1.49137">
        <ele>982</ele>
        <time>2026-06-28T04:47:14.000Z</time>
      </trkpt>
      <trkpt lat="42.76021" lon="1.49138">
        <ele>982</ele>
        <time>2026-06-28T04:47:15.000Z</time>
      </trkpt>
      <trkpt lat="42.76019" lon="1.49139">
        <ele>982</ele>
        <time>2026-06-28T04:47:16.000Z</time>
      </trkpt>
      <trkpt lat="42.76018" lon="1.49141">
        <ele>983</ele>
        <time>2026-06-28T04:47:17.000Z</time>
      </trkpt>
      <trkpt lat="42.76016" lon="1.49141">
        <ele>983</ele>
        <time>2026-06-28T04:47:18.000Z</time>
      </trkpt>
      <trkpt lat="42.76015" lon="1.49142">
        <ele>984</ele>
        <time>2026-06-28T04:47:19.000Z</time>
      </trkpt>
      <trkpt lat="42.76014" lon="1.49143">
        <ele>984</ele>
        <time>2026-06-28T04:47:20.000Z</time>
      </trkpt>
      <trkpt lat="42.76013" lon="1.49145">
        <ele>985</ele>
        <time>2026-06-28T04:47:21.000Z</time>
      </trkpt>
      <trkpt lat="42.76012" lon="1.49147">
        <ele>986</ele>
        <time>2026-06-28T04:47:22.000Z</time>
      </trkpt>
      <trkpt lat="42.76011" lon="1.49149">
        <ele>986</ele>
        <time>2026-06-28T04:47:23.000Z</time>
      </trkpt>
      <trkpt lat="42.76009" lon="1.49151">
        <ele>987</ele>
        <time>2026-06-28T04:47:24.000Z</time>
      </trkpt>
      <trkpt lat="42.76008" lon="1.49153">
        <ele>987</ele>
        <time>2026-06-28T04:47:25.000Z</time>
      </trkpt>
      <trkpt lat="42.76007" lon="1.49155">
        <ele>987</ele>
        <time>2026-06-28T04:47:26.000Z</time>
      </trkpt>
      <trkpt lat="42.76007" lon="1.49158">
        <ele>988</ele>
        <time>2026-06-28T04:47:27.000Z</time>
      </trkpt>
      <trkpt lat="42.76006" lon="1.49159">
        <ele>988</ele>
        <time>2026-06-28T04:47:28.000Z</time>
      </trkpt>
      <trkpt lat="42.76006" lon="1.49161">
        <ele>988</ele>
        <time>2026-06-28T04:47:29.000Z</time>
      </trkpt>
      <trkpt lat="42.76005" lon="1.49162">
        <ele>989</ele>
        <time>2026-06-28T04:47:30.000Z</time>
      </trkpt>
      <trkpt lat="42.76005" lon="1.49164">
        <ele>990</ele>
        <time>2026-06-28T04:47:31.000Z</time>
      </trkpt>
      <trkpt lat="42.76004" lon="1.49166">
        <ele>992</ele>
        <time>2026-06-28T04:47:32.000Z</time>
      </trkpt>
      <trkpt lat="42.76003" lon="1.49167">
        <ele>994</ele>
        <time>2026-06-28T04:47:33.000Z</time>
      </trkpt>
      <trkpt lat="42.76002" lon="1.49169">
        <ele>994</ele>
        <time>2026-06-28T04:47:34.000Z</time>
      </trkpt>
      <trkpt lat="42.76001" lon="1.4917">
        <ele>995</ele>
        <time>2026-06-28T04:47:35.000Z</time>
      </trkpt>
      <trkpt lat="42.76001" lon="1.49171">
        <ele>996</ele>
        <time>2026-06-28T04:47:36.000Z</time>
      </trkpt>
      <trkpt lat="42.76001" lon="1.49173">
        <ele>997</ele>
        <time>2026-06-28T04:47:37.000Z</time>
      </trkpt>
      <trkpt lat="42.76" lon="1.49175">
        <ele>997</ele>
        <time>2026-06-28T04:47:38.000Z</time>
      </trkpt>
      <trkpt lat="42.75999" lon="1.49176">
        <ele>997</ele>
        <time>2026-06-28T04:47:39.000Z</time>
      </trkpt>
      <trkpt lat="42.75999" lon="1.49178">
        <ele>998</ele>
        <time>2026-06-28T04:47:40.000Z</time>
      </trkpt>
      <trkpt lat="42.75998" lon="1.49179">
        <ele>998</ele>
        <time>2026-06-28T04:47:41.000Z</time>
      </trkpt>
      <trkpt lat="42.75997" lon="1.49182">
        <ele>999</ele>
        <time>2026-06-28T04:47:42.000Z</time>
      </trkpt>
      <trkpt lat="42.75996" lon="1.49184">
        <ele>1000</ele>
        <time>2026-06-28T04:47:43.000Z</time>
      </trkpt>
      <trkpt lat="42.75996" lon="1.49185">
        <ele>1001</ele>
        <time>2026-06-28T04:47:44.000Z</time>
      </trkpt>
      <trkpt lat="42.75995" lon="1.49187">
        <ele>1001</ele>
        <time>2026-06-28T04:47:45.000Z</time>
      </trkpt>
      <trkpt lat="42.75995" lon="1.49189">
        <ele>1002</ele>
        <time>2026-06-28T04:47:46.000Z</time>
      </trkpt>
      <trkpt lat="42.75996" lon="1.49191">
        <ele>1003</ele>
        <time>2026-06-28T04:47:47.000Z</time>
      </trkpt>
      <trkpt lat="42.75996" lon="1.49193">
        <ele>1004</ele>
        <time>2026-06-28T04:47:48.000Z</time>
      </trkpt>
      <trkpt lat="42.75997" lon="1.49195">
        <ele>1005</ele>
        <time>2026-06-28T04:47:49.000Z</time>
      </trkpt>
      <trkpt lat="42.75997" lon="1.49197">
        <ele>1006</ele>
        <time>2026-06-28T04:47:50.000Z</time>
      </trkpt>
      <trkpt lat="42.75997" lon="1.492">
        <ele>1007</ele>
        <time>2026-06-28T04:47:51.000Z</time>
      </trkpt>
      <trkpt lat="42.75998" lon="1.49202">
        <ele>1006</ele>
        <time>2026-06-28T04:47:52.000Z</time>
      </trkpt>
      <trkpt lat="42.75998" lon="1.49204">
        <ele>1007</ele>
        <time>2026-06-28T04:47:53.000Z</time>
      </trkpt>
      <trkpt lat="42.75999" lon="1.49207">
        <ele>1007</ele>
        <time>2026-06-28T04:47:54.000Z</time>
      </trkpt>
      <trkpt lat="42.75999" lon="1.49209">
        <ele>1007</ele>
        <time>2026-06-28T04:47:55.000Z</time>
      </trkpt>
      <trkpt lat="42.75999" lon="1.49212">
        <ele>1007</ele>
        <time>2026-06-28T04:47:56.000Z</time>
      </trkpt>
      <trkpt lat="42.75999" lon="1.49215">
        <ele>1007</ele>
        <time>2026-06-28T04:47:57.000Z</time>
      </trkpt>
      <trkpt lat="42.75999" lon="1.49217">
        <ele>1006</ele>
        <time>2026-06-28T04:47:58.000Z</time>
      </trkpt>
      <trkpt lat="42.75999" lon="1.49219">
        <ele>1007</ele>
        <time>2026-06-28T04:47:59.000Z</time>
      </trkpt>
      <trkpt lat="42.75999" lon="1.49222">
        <ele>1006</ele>
        <time>2026-06-28T04:48:00.000Z</time>
      </trkpt>
      <trkpt lat="42.75999" lon="1.49224">
        <ele>1006</ele>
        <time>2026-06-28T04:48:01.000Z</time>
      </trkpt>
      <trkpt lat="42.76" lon="1.49227">
        <ele>1005</ele>
        <time>2026-06-28T04:48:02.000Z</time>
      </trkpt>
      <trkpt lat="42.76" lon="1.49229">
        <ele>1005</ele>
        <time>2026-06-28T04:48:03.000Z</time>
      </trkpt>
      <trkpt lat="42.76" lon="1.49232">
        <ele>1005</ele>
        <time>2026-06-28T04:48:04.000Z</time>
      </trkpt>
      <trkpt lat="42.76" lon="1.49234">
        <ele>1005</ele>
        <time>2026-06-28T04:48:05.000Z</time>
      </trkpt>
      <trkpt lat="42.76" lon="1.49237">
        <ele>1005</ele>
        <time>2026-06-28T04:48:06.000Z</time>
      </trkpt>
      <trkpt lat="42.76" lon="1.4924">
        <ele>1005</ele>
        <time>2026-06-28T04:48:07.000Z</time>
      </trkpt>
      <trkpt lat="42.76" lon="1.49243">
        <ele>1006</ele>
        <time>2026-06-28T04:48:08.000Z</time>
      </trkpt>
      <trkpt lat="42.76" lon="1.49246">
        <ele>1005</ele>
        <time>2026-06-28T04:48:09.000Z</time>
      </trkpt>
      <trkpt lat="42.76" lon="1.49249">
        <ele>1005</ele>
        <time>2026-06-28T04:48:10.000Z</time>
      </trkpt>
      <trkpt lat="42.76001" lon="1.49252">
        <ele>1005</ele>
        <time>2026-06-28T04:48:11.000Z</time>
      </trkpt>
      <trkpt lat="42.76001" lon="1.49255">
        <ele>1005</ele>
        <time>2026-06-28T04:48:12.000Z</time>
      </trkpt>
      <trkpt lat="42.76001" lon="1.49257">
        <ele>1004</ele>
        <time>2026-06-28T04:48:13.000Z</time>
      </trkpt>
      <trkpt lat="42.76001" lon="1.49258">
        <ele>1004</ele>
        <time>2026-06-28T04:48:14.000Z</time>
      </trkpt>
      <trkpt lat="42.76001" lon="1.4926">
        <ele>1005</ele>
        <time>2026-06-28T04:48:15.000Z</time>
      </trkpt>
      <trkpt lat="42.76001" lon="1.49262">
        <ele>1005</ele>
        <time>2026-06-28T04:48:16.000Z</time>
      </trkpt>
      <trkpt lat="42.76001" lon="1.49263">
        <ele>1006</ele>
        <time>2026-06-28T04:48:17.000Z</time>
      </trkpt>
      <trkpt lat="42.76001" lon="1.49265">
        <ele>1006</ele>
        <time>2026-06-28T04:48:18.000Z</time>
      </trkpt>
      <trkpt lat="42.76001" lon="1.49266">
        <ele>1006</ele>
        <time>2026-06-28T04:48:19.000Z</time>
      </trkpt>
      <trkpt lat="42.76001" lon="1.49267">
        <ele>1006</ele>
        <time>2026-06-28T04:48:20.000Z</time>
      </trkpt>
      <trkpt lat="42.76001" lon="1.49269">
        <ele>1006</ele>
        <time>2026-06-28T04:48:21.000Z</time>
      </trkpt>
      <trkpt lat="42.76001" lon="1.49269">
        <ele>1006</ele>
        <time>2026-06-28T04:48:22.000Z</time>
      </trkpt>
      <trkpt lat="42.76001" lon="1.4927">
        <ele>1007</ele>
        <time>2026-06-28T04:48:23.000Z</time>
      </trkpt>
      <trkpt lat="42.76" lon="1.49271">
        <ele>1007</ele>
        <time>2026-06-28T04:48:24.000Z</time>
      </trkpt>
      <trkpt lat="42.76" lon="1.49273">
        <ele>1008</ele>
        <time>2026-06-28T04:48:25.000Z</time>
      </trkpt>
      <trkpt lat="42.76001" lon="1.49274">
        <ele>1008</ele>
        <time>2026-06-28T04:48:26.000Z</time>
      </trkpt>
      <trkpt lat="42.76001" lon="1.49276">
        <ele>1008</ele>
        <time>2026-06-28T04:48:27.000Z</time>
      </trkpt>
      <trkpt lat="42.76001" lon="1.49278">
        <ele>1008</ele>
        <time>2026-06-28T04:48:28.000Z</time>
      </trkpt>
      <trkpt lat="42.76001" lon="1.49279">
        <ele>1009</ele>
        <time>2026-06-28T04:48:29.000Z</time>
      </trkpt>
      <trkpt lat="42.76001" lon="1.4928">
        <ele>1010</ele>
        <time>2026-06-28T04:48:30.000Z</time>
      </trkpt>
      <trkpt lat="42.76001" lon="1.49281">
        <ele>1011</ele>
        <time>2026-06-28T04:48:31.000Z</time>
      </trkpt>
      <trkpt lat="42.76" lon="1.49282">
        <ele>1013</ele>
        <time>2026-06-28T04:48:32.000Z</time>
      </trkpt>
      <trkpt lat="42.76" lon="1.49284">
        <ele>1014</ele>
        <time>2026-06-28T04:48:33.000Z</time>
      </trkpt>
      <trkpt lat="42.76" lon="1.49286">
        <ele>1015</ele>
        <time>2026-06-28T04:48:34.000Z</time>
      </trkpt>
      <trkpt lat="42.76" lon="1.49287">
        <ele>1015</ele>
        <time>2026-06-28T04:48:35.000Z</time>
      </trkpt>
      <trkpt lat="42.76" lon="1.4929">
        <ele>1015</ele>
        <time>2026-06-28T04:48:36.000Z</time>
      </trkpt>
      <trkpt lat="42.76" lon="1.49291">
        <ele>1015</ele>
        <time>2026-06-28T04:48:37.000Z</time>
      </trkpt>
      <trkpt lat="42.76" lon="1.49292">
        <ele>1015</ele>
        <time>2026-06-28T04:48:38.000Z</time>
      </trkpt>
      <trkpt lat="42.76" lon="1.49294">
        <ele>1016</ele>
        <time>2026-06-28T04:48:39.000Z</time>
      </trkpt>
      <trkpt lat="42.76" lon="1.49297">
        <ele>1015</ele>
        <time>2026-06-28T04:48:40.000Z</time>
      </trkpt>
      <trkpt lat="42.75999" lon="1.49299">
        <ele>1016</ele>
        <time>2026-06-28T04:48:41.000Z</time>
      </trkpt>
      <trkpt lat="42.75999" lon="1.49301">
        <ele>1017</ele>
        <time>2026-06-28T04:48:42.000Z</time>
      </trkpt>
      <trkpt lat="42.75999" lon="1.49303">
        <ele>1018</ele>
        <time>2026-06-28T04:48:43.000Z</time>
      </trkpt>
      <trkpt lat="42.75999" lon="1.49305">
        <ele>1020</ele>
        <time>2026-06-28T04:48:44.000Z</time>
      </trkpt>
      <trkpt lat="42.75999" lon="1.49307">
        <ele>1021</ele>
        <time>2026-06-28T04:48:45.000Z</time>
      </trkpt>
      <trkpt lat="42.75999" lon="1.49309">
        <ele>1021</ele>
        <time>2026-06-28T04:48:46.000Z</time>
      </trkpt>
      <trkpt lat="42.75998" lon="1.4931">
        <ele>1021</ele>
        <time>2026-06-28T04:48:47.000Z</time>
      </trkpt>
      <trkpt lat="42.75998" lon="1.49312">
        <ele>1023</ele>
        <time>2026-06-28T04:48:48.000Z</time>
      </trkpt>
      <trkpt lat="42.75997" lon="1.49314">
        <ele>1023</ele>
        <time>2026-06-28T04:48:49.000Z</time>
      </trkpt>
      <trkpt lat="42.75996" lon="1.49315">
        <ele>1022</ele>
        <time>2026-06-28T04:48:50.000Z</time>
      </trkpt>
      <trkpt lat="42.75996" lon="1.49316">
        <ele>1022</ele>
        <time>2026-06-28T04:48:51.000Z</time>
      </trkpt>
      <trkpt lat="42.75995" lon="1.49318">
        <ele>1021</ele>
        <time>2026-06-28T04:48:52.000Z</time>
      </trkpt>
      <trkpt lat="42.75994" lon="1.49319">
        <ele>1021</ele>
        <time>2026-06-28T04:48:53.000Z</time>
      </trkpt>
      <trkpt lat="42.75993" lon="1.49321">
        <ele>1021</ele>
        <time>2026-06-28T04:48:54.000Z</time>
      </trkpt>
      <trkpt lat="42.75992" lon="1.49322">
        <ele>1021</ele>
        <time>2026-06-28T04:48:55.000Z</time>
      </trkpt>
      <trkpt lat="42.75992" lon="1.49324">
        <ele>1020</ele>
        <time>2026-06-28T04:48:56.000Z</time>
      </trkpt>
      <trkpt lat="42.75991" lon="1.49325">
        <ele>1020</ele>
        <time>2026-06-28T04:48:57.000Z</time>
      </trkpt>
      <trkpt lat="42.7599" lon="1.49327">
        <ele>1021</ele>
        <time>2026-06-28T04:48:58.000Z</time>
      </trkpt>
      <trkpt lat="42.7599" lon="1.49329">
        <ele>1021</ele>
        <time>2026-06-28T04:48:59.000Z</time>
      </trkpt>
      <trkpt lat="42.75991" lon="1.49331">
        <ele>1022</ele>
        <time>2026-06-28T04:49:00.000Z</time>
      </trkpt>
      <trkpt lat="42.75991" lon="1.49332">
        <ele>1022</ele>
        <time>2026-06-28T04:49:01.000Z</time>
      </trkpt>
      <trkpt lat="42.7599" lon="1.49334">
        <ele>1023</ele>
        <time>2026-06-28T04:49:02.000Z</time>
      </trkpt>
      <trkpt lat="42.7599" lon="1.49335">
        <ele>1023</ele>
        <time>2026-06-28T04:49:03.000Z</time>
      </trkpt>
      <trkpt lat="42.75989" lon="1.49337">
        <ele>1024</ele>
        <time>2026-06-28T04:49:04.000Z</time>
      </trkpt>
      <trkpt lat="42.75989" lon="1.49339">
        <ele>1025</ele>
        <time>2026-06-28T04:49:05.000Z</time>
      </trkpt>
      <trkpt lat="42.75988" lon="1.4934">
        <ele>1026</ele>
        <time>2026-06-28T04:49:06.000Z</time>
      </trkpt>
      <trkpt lat="42.75988" lon="1.49342">
        <ele>1026</ele>
        <time>2026-06-28T04:49:07.000Z</time>
      </trkpt>
      <trkpt lat="42.75987" lon="1.49343">
        <ele>1027</ele>
        <time>2026-06-28T04:49:08.000Z</time>
      </trkpt>
      <trkpt lat="42.75987" lon="1.49344">
        <ele>1027</ele>
        <time>2026-06-28T04:49:09.000Z</time>
      </trkpt>
      <trkpt lat="42.75987" lon="1.49347">
        <ele>1028</ele>
        <time>2026-06-28T04:49:10.000Z</time>
      </trkpt>
      <trkpt lat="42.75986" lon="1.49349">
        <ele>1028</ele>
        <time>2026-06-28T04:49:11.000Z</time>
      </trkpt>
      <trkpt lat="42.75985" lon="1.49351">
        <ele>1029</ele>
        <time>2026-06-28T04:49:12.000Z</time>
      </trkpt>
      <trkpt lat="42.75985" lon="1.49352">
        <ele>1030</ele>
        <time>2026-06-28T04:49:13.000Z</time>
      </trkpt>
      <trkpt lat="42.75985" lon="1.49353">
        <ele>1029</ele>
        <time>2026-06-28T04:49:14.000Z</time>
      </trkpt>
      <trkpt lat="42.75984" lon="1.49355">
        <ele>1029</ele>
        <time>2026-06-28T04:49:15.000Z</time>
      </trkpt>
      <trkpt lat="42.75984" lon="1.49357">
        <ele>1030</ele>
        <time>2026-06-28T04:49:16.000Z</time>
      </trkpt>
      <trkpt lat="42.75985" lon="1.49359">
        <ele>1030</ele>
        <time>2026-06-28T04:49:17.000Z</time>
      </trkpt>
      <trkpt lat="42.75985" lon="1.4936">
        <ele>1030</ele>
        <time>2026-06-28T04:49:18.000Z</time>
      </trkpt>
      <trkpt lat="42.75985" lon="1.49363">
        <ele>1031</ele>
        <time>2026-06-28T04:49:19.000Z</time>
      </trkpt>
      <trkpt lat="42.75985" lon="1.49364">
        <ele>1031</ele>
        <time>2026-06-28T04:49:20.000Z</time>
      </trkpt>
      <trkpt lat="42.75985" lon="1.49365">
        <ele>1032</ele>
        <time>2026-06-28T04:49:21.000Z</time>
      </trkpt>
      <trkpt lat="42.75985" lon="1.49367">
        <ele>1033</ele>
        <time>2026-06-28T04:49:22.000Z</time>
      </trkpt>
      <trkpt lat="42.75985" lon="1.49368">
        <ele>1033</ele>
        <time>2026-06-28T04:49:23.000Z</time>
      </trkpt>
      <trkpt lat="42.75985" lon="1.4937">
        <ele>1034</ele>
        <time>2026-06-28T04:49:24.000Z</time>
      </trkpt>
      <trkpt lat="42.75984" lon="1.49372">
        <ele>1034</ele>
        <time>2026-06-28T04:49:25.000Z</time>
      </trkpt>
      <trkpt lat="42.75984" lon="1.49375">
        <ele>1035</ele>
        <time>2026-06-28T04:49:26.000Z</time>
      </trkpt>
      <trkpt lat="42.75984" lon="1.49376">
        <ele>1036</ele>
        <time>2026-06-28T04:49:27.000Z</time>
      </trkpt>
      <trkpt lat="42.75983" lon="1.49378">
        <ele>1036</ele>
        <time>2026-06-28T04:49:28.000Z</time>
      </trkpt>
      <trkpt lat="42.75982" lon="1.49379">
        <ele>1037</ele>
        <time>2026-06-28T04:49:29.000Z</time>
      </trkpt>
      <trkpt lat="42.75982" lon="1.4938">
        <ele>1037</ele>
        <time>2026-06-28T04:49:30.000Z</time>
      </trkpt>
      <trkpt lat="42.75982" lon="1.49381">
        <ele>1038</ele>
        <time>2026-06-28T04:49:31.000Z</time>
      </trkpt>
      <trkpt lat="42.75981" lon="1.49382">
        <ele>1038</ele>
        <time>2026-06-28T04:49:32.000Z</time>
      </trkpt>
      <trkpt lat="42.7598" lon="1.49383">
        <ele>1039</ele>
        <time>2026-06-28T04:49:33.000Z</time>
      </trkpt>
      <trkpt lat="42.75979" lon="1.49385">
        <ele>1038</ele>
        <time>2026-06-28T04:49:34.000Z</time>
      </trkpt>
      <trkpt lat="42.75979" lon="1.49386">
        <ele>1039</ele>
        <time>2026-06-28T04:49:35.000Z</time>
      </trkpt>
      <trkpt lat="42.75978" lon="1.49388">
        <ele>1038</ele>
        <time>2026-06-28T04:49:36.000Z</time>
      </trkpt>
      <trkpt lat="42.75977" lon="1.49389">
        <ele>1039</ele>
        <time>2026-06-28T04:49:37.000Z</time>
      </trkpt>
      <trkpt lat="42.75977" lon="1.49391">
        <ele>1040</ele>
        <time>2026-06-28T04:49:38.000Z</time>
      </trkpt>
      <trkpt lat="42.75976" lon="1.49392">
        <ele>1041</ele>
        <time>2026-06-28T04:49:39.000Z</time>
      </trkpt>
      <trkpt lat="42.75976" lon="1.49393">
        <ele>1042</ele>
        <time>2026-06-28T04:49:40.000Z</time>
      </trkpt>
      <trkpt lat="42.75976" lon="1.49395">
        <ele>1042</ele>
        <time>2026-06-28T04:49:41.000Z</time>
      </trkpt>
      <trkpt lat="42.75975" lon="1.49396">
        <ele>1044</ele>
        <time>2026-06-28T04:49:42.000Z</time>
      </trkpt>
      <trkpt lat="42.75974" lon="1.49397">
        <ele>1044</ele>
        <time>2026-06-28T04:49:43.000Z</time>
      </trkpt>
      <trkpt lat="42.75974" lon="1.49398">
        <ele>1045</ele>
        <time>2026-06-28T04:49:44.000Z</time>
      </trkpt>
      <trkpt lat="42.75973" lon="1.494">
        <ele>1044</ele>
        <time>2026-06-28T04:49:45.000Z</time>
      </trkpt>
      <trkpt lat="42.75973" lon="1.49402">
        <ele>1044</ele>
        <time>2026-06-28T04:49:46.000Z</time>
      </trkpt>
      <trkpt lat="42.75972" lon="1.49404">
        <ele>1044</ele>
        <time>2026-06-28T04:49:47.000Z</time>
      </trkpt>
      <trkpt lat="42.75972" lon="1.49405">
        <ele>1044</ele>
        <time>2026-06-28T04:49:48.000Z</time>
      </trkpt>
      <trkpt lat="42.75972" lon="1.49408">
        <ele>1044</ele>
        <time>2026-06-28T04:49:49.000Z</time>
      </trkpt>
      <trkpt lat="42.75972" lon="1.4941">
        <ele>1045</ele>
        <time>2026-06-28T04:49:50.000Z</time>
      </trkpt>
      <trkpt lat="42.75972" lon="1.49411">
        <ele>1046</ele>
        <time>2026-06-28T04:49:51.000Z</time>
      </trkpt>
      <trkpt lat="42.75972" lon="1.49413">
        <ele>1046</ele>
        <time>2026-06-28T04:49:52.000Z</time>
      </trkpt>
      <trkpt lat="42.75972" lon="1.49414">
        <ele>1046</ele>
        <time>2026-06-28T04:49:53.000Z</time>
      </trkpt>
      <trkpt lat="42.75971" lon="1.49416">
        <ele>1046</ele>
        <time>2026-06-28T04:49:54.000Z</time>
      </trkpt>
      <trkpt lat="42.75971" lon="1.49418">
        <ele>1046</ele>
        <time>2026-06-28T04:49:55.000Z</time>
      </trkpt>
      <trkpt lat="42.75971" lon="1.49419">
        <ele>1046</ele>
        <time>2026-06-28T04:49:56.000Z</time>
      </trkpt>
      <trkpt lat="42.7597" lon="1.49421">
        <ele>1046</ele>
        <time>2026-06-28T04:49:57.000Z</time>
      </trkpt>
      <trkpt lat="42.7597" lon="1.49422">
        <ele>1046</ele>
        <time>2026-06-28T04:49:58.000Z</time>
      </trkpt>
      <trkpt lat="42.75969" lon="1.49423">
        <ele>1045</ele>
        <time>2026-06-28T04:49:59.000Z</time>
      </trkpt>
      <trkpt lat="42.75969" lon="1.49425">
        <ele>1045</ele>
        <time>2026-06-28T04:50:00.000Z</time>
      </trkpt>
      <trkpt lat="42.75969" lon="1.49427">
        <ele>1045</ele>
        <time>2026-06-28T04:50:01.000Z</time>
      </trkpt>
      <trkpt lat="42.75968" lon="1.49429">
        <ele>1045</ele>
        <time>2026-06-28T04:50:02.000Z</time>
      </trkpt>
      <trkpt lat="42.75968" lon="1.49431">
        <ele>1044</ele>
        <time>2026-06-28T04:50:03.000Z</time>
      </trkpt>
      <trkpt lat="42.75967" lon="1.49433">
        <ele>1045</ele>
        <time>2026-06-28T04:50:04.000Z</time>
      </trkpt>
      <trkpt lat="42.75967" lon="1.49434">
        <ele>1045</ele>
        <time>2026-06-28T04:50:05.000Z</time>
      </trkpt>
      <trkpt lat="42.75967" lon="1.49437">
        <ele>1045</ele>
        <time>2026-06-28T04:50:06.000Z</time>
      </trkpt>
      <trkpt lat="42.75966" lon="1.49439">
        <ele>1045</ele>
        <time>2026-06-28T04:50:07.000Z</time>
      </trkpt>
      <trkpt lat="42.75965" lon="1.49441">
        <ele>1044</ele>
        <time>2026-06-28T04:50:08.000Z</time>
      </trkpt>
      <trkpt lat="42.75964" lon="1.49444">
        <ele>1045</ele>
        <time>2026-06-28T04:50:09.000Z</time>
      </trkpt>
      <trkpt lat="42.75964" lon="1.49446">
        <ele>1045</ele>
        <time>2026-06-28T04:50:10.000Z</time>
      </trkpt>
      <trkpt lat="42.75964" lon="1.49448">
        <ele>1045</ele>
        <time>2026-06-28T04:50:11.000Z</time>
      </trkpt>
      <trkpt lat="42.75964" lon="1.49449">
        <ele>1044</ele>
        <time>2026-06-28T04:50:12.000Z</time>
      </trkpt>
      <trkpt lat="42.75963" lon="1.49451">
        <ele>1044</ele>
        <time>2026-06-28T04:50:13.000Z</time>
      </trkpt>
      <trkpt lat="42.75962" lon="1.49453">
        <ele>1043</ele>
        <time>2026-06-28T04:50:14.000Z</time>
      </trkpt>
      <trkpt lat="42.75962" lon="1.49454">
        <ele>1044</ele>
        <time>2026-06-28T04:50:15.000Z</time>
      </trkpt>
      <trkpt lat="42.75963" lon="1.49455">
        <ele>1044</ele>
        <time>2026-06-28T04:50:16.000Z</time>
      </trkpt>
      <trkpt lat="42.75962" lon="1.49456">
        <ele>1045</ele>
        <time>2026-06-28T04:50:17.000Z</time>
      </trkpt>
      <trkpt lat="42.75961" lon="1.49458">
        <ele>1045</ele>
        <time>2026-06-28T04:50:18.000Z</time>
      </trkpt>
      <trkpt lat="42.75961" lon="1.49459">
        <ele>1044</ele>
        <time>2026-06-28T04:50:19.000Z</time>
      </trkpt>
      <trkpt lat="42.7596" lon="1.49461">
        <ele>1044</ele>
        <time>2026-06-28T04:50:20.000Z</time>
      </trkpt>
      <trkpt lat="42.75959" lon="1.49463">
        <ele>1044</ele>
        <time>2026-06-28T04:50:21.000Z</time>
      </trkpt>
      <trkpt lat="42.75958" lon="1.49465">
        <ele>1044</ele>
        <time>2026-06-28T04:50:22.000Z</time>
      </trkpt>
      <trkpt lat="42.75958" lon="1.49466">
        <ele>1044</ele>
        <time>2026-06-28T04:50:23.000Z</time>
      </trkpt>
      <trkpt lat="42.75957" lon="1.49467">
        <ele>1045</ele>
        <time>2026-06-28T04:50:24.000Z</time>
      </trkpt>
      <trkpt lat="42.75956" lon="1.49469">
        <ele>1045</ele>
        <time>2026-06-28T04:50:25.000Z</time>
      </trkpt>
      <trkpt lat="42.75956" lon="1.4947">
        <ele>1046</ele>
        <time>2026-06-28T04:50:26.000Z</time>
      </trkpt>
      <trkpt lat="42.75955" lon="1.49472">
        <ele>1046</ele>
        <time>2026-06-28T04:50:27.000Z</time>
      </trkpt>
      <trkpt lat="42.75954" lon="1.49474">
        <ele>1046</ele>
        <time>2026-06-28T04:50:28.000Z</time>
      </trkpt>
      <trkpt lat="42.75954" lon="1.49476">
        <ele>1046</ele>
        <time>2026-06-28T04:50:29.000Z</time>
      </trkpt>
      <trkpt lat="42.75953" lon="1.49478">
        <ele>1047</ele>
        <time>2026-06-28T04:50:30.000Z</time>
      </trkpt>
      <trkpt lat="42.75953" lon="1.4948">
        <ele>1047</ele>
        <time>2026-06-28T04:50:31.000Z</time>
      </trkpt>
      <trkpt lat="42.75952" lon="1.49482">
        <ele>1047</ele>
        <time>2026-06-28T04:50:32.000Z</time>
      </trkpt>
      <trkpt lat="42.75952" lon="1.49483">
        <ele>1047</ele>
        <time>2026-06-28T04:50:33.000Z</time>
      </trkpt>
      <trkpt lat="42.75951" lon="1.49485">
        <ele>1048</ele>
        <time>2026-06-28T04:50:34.000Z</time>
      </trkpt>
      <trkpt lat="42.7595" lon="1.49487">
        <ele>1048</ele>
        <time>2026-06-28T04:50:35.000Z</time>
      </trkpt>
      <trkpt lat="42.7595" lon="1.49489">
        <ele>1049</ele>
        <time>2026-06-28T04:50:36.000Z</time>
      </trkpt>
      <trkpt lat="42.7595" lon="1.49491">
        <ele>1050</ele>
        <time>2026-06-28T04:50:37.000Z</time>
      </trkpt>
      <trkpt lat="42.7595" lon="1.49493">
        <ele>1050</ele>
        <time>2026-06-28T04:50:38.000Z</time>
      </trkpt>
      <trkpt lat="42.75949" lon="1.49494">
        <ele>1051</ele>
        <time>2026-06-28T04:50:39.000Z</time>
      </trkpt>
      <trkpt lat="42.75949" lon="1.49495">
        <ele>1051</ele>
        <time>2026-06-28T04:50:40.000Z</time>
      </trkpt>
      <trkpt lat="42.75948" lon="1.49497">
        <ele>1051</ele>
        <time>2026-06-28T04:50:41.000Z</time>
      </trkpt>
      <trkpt lat="42.75947" lon="1.49498">
        <ele>1051</ele>
        <time>2026-06-28T04:50:42.000Z</time>
      </trkpt>
      <trkpt lat="42.75946" lon="1.49499">
        <ele>1053</ele>
        <time>2026-06-28T04:50:43.000Z</time>
      </trkpt>
      <trkpt lat="42.75945" lon="1.49502">
        <ele>1053</ele>
        <time>2026-06-28T04:50:44.000Z</time>
      </trkpt>
      <trkpt lat="42.75944" lon="1.49503">
        <ele>1055</ele>
        <time>2026-06-28T04:50:45.000Z</time>
      </trkpt>
      <trkpt lat="42.75942" lon="1.49504">
        <ele>1054</ele>
        <time>2026-06-28T04:50:46.000Z</time>
      </trkpt>
      <trkpt lat="42.75941" lon="1.49505">
        <ele>1054</ele>
        <time>2026-06-28T04:50:47.000Z</time>
      </trkpt>
      <trkpt lat="42.7594" lon="1.49508">
        <ele>1054</ele>
        <time>2026-06-28T04:50:48.000Z</time>
      </trkpt>
      <trkpt lat="42.75939" lon="1.4951">
        <ele>1055</ele>
        <time>2026-06-28T04:50:49.000Z</time>
      </trkpt>
      <trkpt lat="42.75938" lon="1.49511">
        <ele>1055</ele>
        <time>2026-06-28T04:50:50.000Z</time>
      </trkpt>
      <trkpt lat="42.75938" lon="1.49513">
        <ele>1055</ele>
        <time>2026-06-28T04:50:51.000Z</time>
      </trkpt>
      <trkpt lat="42.75937" lon="1.49514">
        <ele>1056</ele>
        <time>2026-06-28T04:50:52.000Z</time>
      </trkpt>
      <trkpt lat="42.75936" lon="1.49516">
        <ele>1056</ele>
        <time>2026-06-28T04:50:53.000Z</time>
      </trkpt>
      <trkpt lat="42.75935" lon="1.49517">
        <ele>1056</ele>
        <time>2026-06-28T04:50:54.000Z</time>
      </trkpt>
      <trkpt lat="42.75934" lon="1.49518">
        <ele>1056</ele>
        <time>2026-06-28T04:50:55.000Z</time>
      </trkpt>
      <trkpt lat="42.75933" lon="1.4952">
        <ele>1056</ele>
        <time>2026-06-28T04:50:56.000Z</time>
      </trkpt>
      <trkpt lat="42.75932" lon="1.49522">
        <ele>1057</ele>
        <time>2026-06-28T04:50:57.000Z</time>
      </trkpt>
      <trkpt lat="42.75932" lon="1.49524">
        <ele>1058</ele>
        <time>2026-06-28T04:50:58.000Z</time>
      </trkpt>
      <trkpt lat="42.75931" lon="1.49526">
        <ele>1058</ele>
        <time>2026-06-28T04:50:59.000Z</time>
      </trkpt>
      <trkpt lat="42.75931" lon="1.49527">
        <ele>1058</ele>
        <time>2026-06-28T04:51:00.000Z</time>
      </trkpt>
      <trkpt lat="42.7593" lon="1.49529">
        <ele>1058</ele>
        <time>2026-06-28T04:51:01.000Z</time>
      </trkpt>
      <trkpt lat="42.7593" lon="1.49529">
        <ele>1059</ele>
        <time>2026-06-28T04:51:02.000Z</time>
      </trkpt>
      <trkpt lat="42.7593" lon="1.4953">
        <ele>1058</ele>
        <time>2026-06-28T04:51:03.000Z</time>
      </trkpt>
      <trkpt lat="42.7593" lon="1.49532">
        <ele>1058</ele>
        <time>2026-06-28T04:51:04.000Z</time>
      </trkpt>
      <trkpt lat="42.75929" lon="1.49534">
        <ele>1058</ele>
        <time>2026-06-28T04:51:05.000Z</time>
      </trkpt>
      <trkpt lat="42.75928" lon="1.49536">
        <ele>1058</ele>
        <time>2026-06-28T04:51:06.000Z</time>
      </trkpt>
      <trkpt lat="42.75927" lon="1.49537">
        <ele>1059</ele>
        <time>2026-06-28T04:51:07.000Z</time>
      </trkpt>
      <trkpt lat="42.75926" lon="1.49539">
        <ele>1059</ele>
        <time>2026-06-28T04:51:08.000Z</time>
      </trkpt>
      <trkpt lat="42.75925" lon="1.4954">
        <ele>1059</ele>
        <time>2026-06-28T04:51:09.000Z</time>
      </trkpt>
      <trkpt lat="42.75924" lon="1.49542">
        <ele>1059</ele>
        <time>2026-06-28T04:51:10.000Z</time>
      </trkpt>
      <trkpt lat="42.75922" lon="1.49544">
        <ele>1059</ele>
        <time>2026-06-28T04:51:11.000Z</time>
      </trkpt>
      <trkpt lat="42.75921" lon="1.49545">
        <ele>1060</ele>
        <time>2026-06-28T04:51:12.000Z</time>
      </trkpt>
      <trkpt lat="42.7592" lon="1.49547">
        <ele>1060</ele>
        <time>2026-06-28T04:51:13.000Z</time>
      </trkpt>
      <trkpt lat="42.75918" lon="1.49548">
        <ele>1060</ele>
        <time>2026-06-28T04:51:14.000Z</time>
      </trkpt>
      <trkpt lat="42.75917" lon="1.4955">
        <ele>1060</ele>
        <time>2026-06-28T04:51:15.000Z</time>
      </trkpt>
      <trkpt lat="42.75917" lon="1.49552">
        <ele>1060</ele>
        <time>2026-06-28T04:51:16.000Z</time>
      </trkpt>
      <trkpt lat="42.75916" lon="1.49553">
        <ele>1059</ele>
        <time>2026-06-28T04:51:17.000Z</time>
      </trkpt>
      <trkpt lat="42.75916" lon="1.49553">
        <ele>1059</ele>
        <time>2026-06-28T04:51:18.000Z</time>
      </trkpt>
      <trkpt lat="42.75915" lon="1.49554">
        <ele>1059</ele>
        <time>2026-06-28T04:51:19.000Z</time>
      </trkpt>
      <trkpt lat="42.75915" lon="1.49555">
        <ele>1059</ele>
        <time>2026-06-28T04:51:20.000Z</time>
      </trkpt>
      <trkpt lat="42.75914" lon="1.49556">
        <ele>1059</ele>
        <time>2026-06-28T04:51:21.000Z</time>
      </trkpt>
      <trkpt lat="42.75913" lon="1.49557">
        <ele>1059</ele>
        <time>2026-06-28T04:51:22.000Z</time>
      </trkpt>
      <trkpt lat="42.75912" lon="1.49558">
        <ele>1059</ele>
        <time>2026-06-28T04:51:23.000Z</time>
      </trkpt>
      <trkpt lat="42.75911" lon="1.49558">
        <ele>1059</ele>
        <time>2026-06-28T04:51:24.000Z</time>
      </trkpt>
      <trkpt lat="42.7591" lon="1.4956">
        <ele>1060</ele>
        <time>2026-06-28T04:51:25.000Z</time>
      </trkpt>
      <trkpt lat="42.75908" lon="1.49562">
        <ele>1060</ele>
        <time>2026-06-28T04:51:26.000Z</time>
      </trkpt>
      <trkpt lat="42.75908" lon="1.49564">
        <ele>1060</ele>
        <time>2026-06-28T04:51:27.000Z</time>
      </trkpt>
      <trkpt lat="42.75906" lon="1.49566">
        <ele>1061</ele>
        <time>2026-06-28T04:51:28.000Z</time>
      </trkpt>
      <trkpt lat="42.75905" lon="1.49569">
        <ele>1061</ele>
        <time>2026-06-28T04:51:29.000Z</time>
      </trkpt>
      <trkpt lat="42.75903" lon="1.49571">
        <ele>1062</ele>
        <time>2026-06-28T04:51:30.000Z</time>
      </trkpt>
      <trkpt lat="42.75901" lon="1.49574">
        <ele>1062</ele>
        <time>2026-06-28T04:51:31.000Z</time>
      </trkpt>
      <trkpt lat="42.759" lon="1.49578">
        <ele>1062</ele>
        <time>2026-06-28T04:51:32.000Z</time>
      </trkpt>
      <trkpt lat="42.759" lon="1.4958">
        <ele>1062</ele>
        <time>2026-06-28T04:51:33.000Z</time>
      </trkpt>
      <trkpt lat="42.75899" lon="1.49582">
        <ele>1062</ele>
        <time>2026-06-28T04:51:34.000Z</time>
      </trkpt>
      <trkpt lat="42.75898" lon="1.49585">
        <ele>1064</ele>
        <time>2026-06-28T04:51:35.000Z</time>
      </trkpt>
      <trkpt lat="42.75898" lon="1.49587">
        <ele>1065</ele>
        <time>2026-06-28T04:51:36.000Z</time>
      </trkpt>
      <trkpt lat="42.75898" lon="1.4959">
        <ele>1066</ele>
        <time>2026-06-28T04:51:37.000Z</time>
      </trkpt>
      <trkpt lat="42.75897" lon="1.49592">
        <ele>1067</ele>
        <time>2026-06-28T04:51:38.000Z</time>
      </trkpt>
      <trkpt lat="42.75897" lon="1.49594">
        <ele>1067</ele>
        <time>2026-06-28T04:51:39.000Z</time>
      </trkpt>
      <trkpt lat="42.75897" lon="1.49596">
        <ele>1067</ele>
        <time>2026-06-28T04:51:40.000Z</time>
      </trkpt>
      <trkpt lat="42.75897" lon="1.49598">
        <ele>1067</ele>
        <time>2026-06-28T04:51:41.000Z</time>
      </trkpt>
      <trkpt lat="42.75896" lon="1.496">
        <ele>1067</ele>
        <time>2026-06-28T04:51:42.000Z</time>
      </trkpt>
      <trkpt lat="42.75895" lon="1.49603">
        <ele>1066</ele>
        <time>2026-06-28T04:51:43.000Z</time>
      </trkpt>
      <trkpt lat="42.75895" lon="1.49605">
        <ele>1066</ele>
        <time>2026-06-28T04:51:44.000Z</time>
      </trkpt>
      <trkpt lat="42.75894" lon="1.49608">
        <ele>1065</ele>
        <time>2026-06-28T04:51:45.000Z</time>
      </trkpt>
      <trkpt lat="42.75894" lon="1.4961">
        <ele>1064</ele>
        <time>2026-06-28T04:51:46.000Z</time>
      </trkpt>
      <trkpt lat="42.75893" lon="1.49613">
        <ele>1064</ele>
        <time>2026-06-28T04:51:47.000Z</time>
      </trkpt>
      <trkpt lat="42.75893" lon="1.49616">
        <ele>1063</ele>
        <time>2026-06-28T04:51:48.000Z</time>
      </trkpt>
      <trkpt lat="42.75893" lon="1.49619">
        <ele>1063</ele>
        <time>2026-06-28T04:51:49.000Z</time>
      </trkpt>
      <trkpt lat="42.75892" lon="1.49621">
        <ele>1063</ele>
        <time>2026-06-28T04:51:50.000Z</time>
      </trkpt>
      <trkpt lat="42.75892" lon="1.49624">
        <ele>1063</ele>
        <time>2026-06-28T04:51:51.000Z</time>
      </trkpt>
      <trkpt lat="42.75892" lon="1.49627">
        <ele>1062</ele>
        <time>2026-06-28T04:51:52.000Z</time>
      </trkpt>
      <trkpt lat="42.75892" lon="1.49629">
        <ele>1062</ele>
        <time>2026-06-28T04:51:53.000Z</time>
      </trkpt>
      <trkpt lat="42.75892" lon="1.49632">
        <ele>1063</ele>
        <time>2026-06-28T04:51:54.000Z</time>
      </trkpt>
      <trkpt lat="42.75891" lon="1.49634">
        <ele>1062</ele>
        <time>2026-06-28T04:51:55.000Z</time>
      </trkpt>
      <trkpt lat="42.75891" lon="1.49637">
        <ele>1062</ele>
        <time>2026-06-28T04:51:56.000Z</time>
      </trkpt>
      <trkpt lat="42.7589" lon="1.49639">
        <ele>1062</ele>
        <time>2026-06-28T04:51:57.000Z</time>
      </trkpt>
      <trkpt lat="42.75889" lon="1.49641">
        <ele>1062</ele>
        <time>2026-06-28T04:51:58.000Z</time>
      </trkpt>
      <trkpt lat="42.75888" lon="1.49643">
        <ele>1062</ele>
        <time>2026-06-28T04:51:59.000Z</time>
      </trkpt>
      <trkpt lat="42.75887" lon="1.49645">
        <ele>1061</ele>
        <time>2026-06-28T04:52:00.000Z</time>
      </trkpt>
      <trkpt lat="42.75886" lon="1.49647">
        <ele>1062</ele>
        <time>2026-06-28T04:52:01.000Z</time>
      </trkpt>
      <trkpt lat="42.75885" lon="1.49649">
        <ele>1062</ele>
        <time>2026-06-28T04:52:02.000Z</time>
      </trkpt>
      <trkpt lat="42.75885" lon="1.4965">
        <ele>1062</ele>
        <time>2026-06-28T04:52:03.000Z</time>
      </trkpt>
      <trkpt lat="42.75885" lon="1.49651">
        <ele>1062</ele>
        <time>2026-06-28T04:52:04.000Z</time>
      </trkpt>
      <trkpt lat="42.75884" lon="1.49653">
        <ele>1063</ele>
        <time>2026-06-28T04:52:05.000Z</time>
      </trkpt>
      <trkpt lat="42.75884" lon="1.49655">
        <ele>1063</ele>
        <time>2026-06-28T04:52:06.000Z</time>
      </trkpt>
      <trkpt lat="42.75883" lon="1.49656">
        <ele>1063</ele>
        <time>2026-06-28T04:52:07.000Z</time>
      </trkpt>
      <trkpt lat="42.75883" lon="1.49657">
        <ele>1063</ele>
        <time>2026-06-28T04:52:08.000Z</time>
      </trkpt>
      <trkpt lat="42.75882" lon="1.49659">
        <ele>1063</ele>
        <time>2026-06-28T04:52:09.000Z</time>
      </trkpt>
      <trkpt lat="42.75882" lon="1.4966">
        <ele>1064</ele>
        <time>2026-06-28T04:52:10.000Z</time>
      </trkpt>
      <trkpt lat="42.75881" lon="1.49661">
        <ele>1064</ele>
        <time>2026-06-28T04:52:11.000Z</time>
      </trkpt>
      <trkpt lat="42.7588" lon="1.49662">
        <ele>1065</ele>
        <time>2026-06-28T04:52:12.000Z</time>
      </trkpt>
      <trkpt lat="42.7588" lon="1.49663">
        <ele>1065</ele>
        <time>2026-06-28T04:52:13.000Z</time>
      </trkpt>
      <trkpt lat="42.75879" lon="1.49664">
        <ele>1066</ele>
        <time>2026-06-28T04:52:14.000Z</time>
      </trkpt>
      <trkpt lat="42.75878" lon="1.49664">
        <ele>1066</ele>
        <time>2026-06-28T04:52:15.000Z</time>
      </trkpt>
      <trkpt lat="42.75877" lon="1.49665">
        <ele>1066</ele>
        <time>2026-06-28T04:52:16.000Z</time>
      </trkpt>
      <trkpt lat="42.75876" lon="1.49666">
        <ele>1065</ele>
        <time>2026-06-28T04:52:17.000Z</time>
      </trkpt>
      <trkpt lat="42.75875" lon="1.49666">
        <ele>1064</ele>
        <time>2026-06-28T04:52:18.000Z</time>
      </trkpt>
      <trkpt lat="42.75875" lon="1.49666">
        <ele>1064</ele>
        <time>2026-06-28T04:52:19.000Z</time>
      </trkpt>
      <trkpt lat="42.75874" lon="1.49666">
        <ele>1064</ele>
        <time>2026-06-28T04:52:20.000Z</time>
      </trkpt>
      <trkpt lat="42.75874" lon="1.49667">
        <ele>1064</ele>
        <time>2026-06-28T04:52:21.000Z</time>
      </trkpt>
      <trkpt lat="42.75873" lon="1.49667">
        <ele>1065</ele>
        <time>2026-06-28T04:52:22.000Z</time>
      </trkpt>
      <trkpt lat="42.75873" lon="1.49667">
        <ele>1066</ele>
        <time>2026-06-28T04:52:23.000Z</time>
      </trkpt>
      <trkpt lat="42.75872" lon="1.49667">
        <ele>1065</ele>
        <time>2026-06-28T04:52:24.000Z</time>
      </trkpt>
      <trkpt lat="42.75873" lon="1.49667">
        <ele>1065</ele>
        <time>2026-06-28T04:52:25.000Z</time>
      </trkpt>
      <trkpt lat="42.75872" lon="1.49668">
        <ele>1065</ele>
        <time>2026-06-28T04:52:26.000Z</time>
      </trkpt>
      <trkpt lat="42.75871" lon="1.49669">
        <ele>1065</ele>
        <time>2026-06-28T04:52:27.000Z</time>
      </trkpt>
      <trkpt lat="42.75871" lon="1.49669">
        <ele>1065</ele>
        <time>2026-06-28T04:52:28.000Z</time>
      </trkpt>
      <trkpt lat="42.7587" lon="1.4967">
        <ele>1065</ele>
        <time>2026-06-28T04:52:29.000Z</time>
      </trkpt>
      <trkpt lat="42.7587" lon="1.4967">
        <ele>1064</ele>
        <time>2026-06-28T04:52:30.000Z</time>
      </trkpt>
      <trkpt lat="42.7587" lon="1.49671">
        <ele>1065</ele>
        <time>2026-06-28T04:52:31.000Z</time>
      </trkpt>
      <trkpt lat="42.75869" lon="1.49671">
        <ele>1065</ele>
        <time>2026-06-28T04:52:32.000Z</time>
      </trkpt>
      <trkpt lat="42.75868" lon="1.49671">
        <ele>1064</ele>
        <time>2026-06-28T04:52:33.000Z</time>
      </trkpt>
      <trkpt lat="42.75868" lon="1.49673">
        <ele>1065</ele>
        <time>2026-06-28T04:52:34.000Z</time>
      </trkpt>
      <trkpt lat="42.75867" lon="1.49673">
        <ele>1066</ele>
        <time>2026-06-28T04:52:35.000Z</time>
      </trkpt>
      <trkpt lat="42.75866" lon="1.49674">
        <ele>1065</ele>
        <time>2026-06-28T04:52:36.000Z</time>
      </trkpt>
      <trkpt lat="42.75865" lon="1.49675">
        <ele>1065</ele>
        <time>2026-06-28T04:52:37.000Z</time>
      </trkpt>
      <trkpt lat="42.75864" lon="1.49677">
        <ele>1066</ele>
        <time>2026-06-28T04:52:38.000Z</time>
      </trkpt>
      <trkpt lat="42.75863" lon="1.49678">
        <ele>1067</ele>
        <time>2026-06-28T04:52:39.000Z</time>
      </trkpt>
      <trkpt lat="42.75862" lon="1.49679">
        <ele>1067</ele>
        <time>2026-06-28T04:52:40.000Z</time>
      </trkpt>
      <trkpt lat="42.7586" lon="1.49681">
        <ele>1068</ele>
        <time>2026-06-28T04:52:41.000Z</time>
      </trkpt>
      <trkpt lat="42.75859" lon="1.49683">
        <ele>1069</ele>
        <time>2026-06-28T04:52:42.000Z</time>
      </trkpt>
      <trkpt lat="42.75858" lon="1.49684">
        <ele>1069</ele>
        <time>2026-06-28T04:52:43.000Z</time>
      </trkpt>
      <trkpt lat="42.75856" lon="1.49687">
        <ele>1070</ele>
        <time>2026-06-28T04:52:44.000Z</time>
      </trkpt>
      <trkpt lat="42.75855" lon="1.49689">
        <ele>1070</ele>
        <time>2026-06-28T04:52:45.000Z</time>
      </trkpt>
      <trkpt lat="42.75854" lon="1.49691">
        <ele>1071</ele>
        <time>2026-06-28T04:52:46.000Z</time>
      </trkpt>
      <trkpt lat="42.75852" lon="1.49692">
        <ele>1071</ele>
        <time>2026-06-28T04:52:47.000Z</time>
      </trkpt>
      <trkpt lat="42.75851" lon="1.49694">
        <ele>1071</ele>
        <time>2026-06-28T04:52:48.000Z</time>
      </trkpt>
      <trkpt lat="42.7585" lon="1.49696">
        <ele>1070</ele>
        <time>2026-06-28T04:52:49.000Z</time>
      </trkpt>
      <trkpt lat="42.75849" lon="1.49697">
        <ele>1070</ele>
        <time>2026-06-28T04:52:50.000Z</time>
      </trkpt>
      <trkpt lat="42.75848" lon="1.49699">
        <ele>1070</ele>
        <time>2026-06-28T04:52:51.000Z</time>
      </trkpt>
      <trkpt lat="42.75847" lon="1.49701">
        <ele>1070</ele>
        <time>2026-06-28T04:52:52.000Z</time>
      </trkpt>
      <trkpt lat="42.75846" lon="1.49703">
        <ele>1070</ele>
        <time>2026-06-28T04:52:53.000Z</time>
      </trkpt>
      <trkpt lat="42.75846" lon="1.49704">
        <ele>1071</ele>
        <time>2026-06-28T04:52:54.000Z</time>
      </trkpt>
      <trkpt lat="42.75845" lon="1.49706">
        <ele>1070</ele>
        <time>2026-06-28T04:52:55.000Z</time>
      </trkpt>
      <trkpt lat="42.75845" lon="1.49707">
        <ele>1070</ele>
        <time>2026-06-28T04:52:56.000Z</time>
      </trkpt>
      <trkpt lat="42.75845" lon="1.49708">
        <ele>1070</ele>
        <time>2026-06-28T04:52:57.000Z</time>
      </trkpt>
      <trkpt lat="42.75844" lon="1.49709">
        <ele>1071</ele>
        <time>2026-06-28T04:52:58.000Z</time>
      </trkpt>
      <trkpt lat="42.75843" lon="1.49711">
        <ele>1071</ele>
        <time>2026-06-28T04:52:59.000Z</time>
      </trkpt>
      <trkpt lat="42.75842" lon="1.49712">
        <ele>1071</ele>
        <time>2026-06-28T04:53:00.000Z</time>
      </trkpt>
      <trkpt lat="42.75841" lon="1.49713">
        <ele>1071</ele>
        <time>2026-06-28T04:53:01.000Z</time>
      </trkpt>
      <trkpt lat="42.75841" lon="1.49714">
        <ele>1071</ele>
        <time>2026-06-28T04:53:02.000Z</time>
      </trkpt>
      <trkpt lat="42.7584" lon="1.49715">
        <ele>1071</ele>
        <time>2026-06-28T04:53:03.000Z</time>
      </trkpt>
      <trkpt lat="42.75839" lon="1.49717">
        <ele>1071</ele>
        <time>2026-06-28T04:53:04.000Z</time>
      </trkpt>
      <trkpt lat="42.75839" lon="1.49719">
        <ele>1071</ele>
        <time>2026-06-28T04:53:05.000Z</time>
      </trkpt>
      <trkpt lat="42.75839" lon="1.49721">
        <ele>1072</ele>
        <time>2026-06-28T04:53:06.000Z</time>
      </trkpt>
      <trkpt lat="42.75838" lon="1.49722">
        <ele>1072</ele>
        <time>2026-06-28T04:53:07.000Z</time>
      </trkpt>
      <trkpt lat="42.75838" lon="1.49723">
        <ele>1071</ele>
        <time>2026-06-28T04:53:08.000Z</time>
      </trkpt>
      <trkpt lat="42.75838" lon="1.49725">
        <ele>1072</ele>
        <time>2026-06-28T04:53:09.000Z</time>
      </trkpt>
      <trkpt lat="42.75837" lon="1.49726">
        <ele>1072</ele>
        <time>2026-06-28T04:53:10.000Z</time>
      </trkpt>
      <trkpt lat="42.75837" lon="1.49726">
        <ele>1071</ele>
        <time>2026-06-28T04:53:11.000Z</time>
      </trkpt>
      <trkpt lat="42.75837" lon="1.49726">
        <ele>1070</ele>
        <time>2026-06-28T04:53:12.000Z</time>
      </trkpt>
      <trkpt lat="42.75837" lon="1.49726">
        <ele>1069</ele>
        <time>2026-06-28T04:53:13.000Z</time>
      </trkpt>
      <trkpt lat="42.75836" lon="1.49728">
        <ele>1070</ele>
        <time>2026-06-28T04:53:14.000Z</time>
      </trkpt>
      <trkpt lat="42.75836" lon="1.49728">
        <ele>1070</ele>
        <time>2026-06-28T04:53:15.000Z</time>
      </trkpt>
      <trkpt lat="42.75835" lon="1.4973">
        <ele>1069</ele>
        <time>2026-06-28T04:53:16.000Z</time>
      </trkpt>
      <trkpt lat="42.75835" lon="1.49731">
        <ele>1069</ele>
        <time>2026-06-28T04:53:17.000Z</time>
      </trkpt>
      <trkpt lat="42.75834" lon="1.49731">
        <ele>1070</ele>
        <time>2026-06-28T04:53:18.000Z</time>
      </trkpt>
      <trkpt lat="42.75833" lon="1.49732">
        <ele>1070</ele>
        <time>2026-06-28T04:53:19.000Z</time>
      </trkpt>
      <trkpt lat="42.75832" lon="1.49733">
        <ele>1070</ele>
        <time>2026-06-28T04:53:20.000Z</time>
      </trkpt>
      <trkpt lat="42.75832" lon="1.49733">
        <ele>1070</ele>
        <time>2026-06-28T04:53:21.000Z</time>
      </trkpt>
      <trkpt lat="42.75831" lon="1.49732">
        <ele>1070</ele>
        <time>2026-06-28T04:53:22.000Z</time>
      </trkpt>
      <trkpt lat="42.75831" lon="1.49732">
        <ele>1071</ele>
        <time>2026-06-28T04:53:23.000Z</time>
      </trkpt>
      <trkpt lat="42.75831" lon="1.49734">
        <ele>1071</ele>
        <time>2026-06-28T04:53:24.000Z</time>
      </trkpt>
      <trkpt lat="42.75831" lon="1.49734">
        <ele>1072</ele>
        <time>2026-06-28T04:53:25.000Z</time>
      </trkpt>
      <trkpt lat="42.75831" lon="1.49735">
        <ele>1072</ele>
        <time>2026-06-28T04:53:26.000Z</time>
      </trkpt>
      <trkpt lat="42.7583" lon="1.49736">
        <ele>1071</ele>
        <time>2026-06-28T04:53:27.000Z</time>
      </trkpt>
      <trkpt lat="42.7583" lon="1.49736">
        <ele>1072</ele>
        <time>2026-06-28T04:53:28.000Z</time>
      </trkpt>
      <trkpt lat="42.7583" lon="1.49737">
        <ele>1073</ele>
        <time>2026-06-28T04:53:29.000Z</time>
      </trkpt>
      <trkpt lat="42.75829" lon="1.49738">
        <ele>1073</ele>
        <time>2026-06-28T04:53:30.000Z</time>
      </trkpt>
      <trkpt lat="42.75828" lon="1.49739">
        <ele>1073</ele>
        <time>2026-06-28T04:53:31.000Z</time>
      </trkpt>
      <trkpt lat="42.75829" lon="1.4974">
        <ele>1074</ele>
        <time>2026-06-28T04:53:32.000Z</time>
      </trkpt>
      <trkpt lat="42.75829" lon="1.49742">
        <ele>1074</ele>
        <time>2026-06-28T04:53:33.000Z</time>
      </trkpt>
      <trkpt lat="42.75829" lon="1.49743">
        <ele>1075</ele>
        <time>2026-06-28T04:53:34.000Z</time>
      </trkpt>
      <trkpt lat="42.75829" lon="1.49743">
        <ele>1075</ele>
        <time>2026-06-28T04:53:35.000Z</time>
      </trkpt>
      <trkpt lat="42.75829" lon="1.49743">
        <ele>1075</ele>
        <time>2026-06-28T04:53:36.000Z</time>
      </trkpt>
      <trkpt lat="42.75829" lon="1.49744">
        <ele>1075</ele>
        <time>2026-06-28T04:53:37.000Z</time>
      </trkpt>
      <trkpt lat="42.75829" lon="1.49745">
        <ele>1076</ele>
        <time>2026-06-28T04:53:38.000Z</time>
      </trkpt>
      <trkpt lat="42.75829" lon="1.49748">
        <ele>1075</ele>
        <time>2026-06-28T04:53:39.000Z</time>
      </trkpt>
      <trkpt lat="42.75828" lon="1.4975">
        <ele>1075</ele>
        <time>2026-06-28T04:53:40.000Z</time>
      </trkpt>
      <trkpt lat="42.75828" lon="1.49752">
        <ele>1076</ele>
        <time>2026-06-28T04:53:41.000Z</time>
      </trkpt>
      <trkpt lat="42.75828" lon="1.49755">
        <ele>1076</ele>
        <time>2026-06-28T04:53:42.000Z</time>
      </trkpt>
      <trkpt lat="42.75828" lon="1.49757">
        <ele>1077</ele>
        <time>2026-06-28T04:53:43.000Z</time>
      </trkpt>
      <trkpt lat="42.75828" lon="1.4976">
        <ele>1077</ele>
        <time>2026-06-28T04:53:44.000Z</time>
      </trkpt>
      <trkpt lat="42.75828" lon="1.49762">
        <ele>1077</ele>
        <time>2026-06-28T04:53:45.000Z</time>
      </trkpt>
      <trkpt lat="42.75828" lon="1.49765">
        <ele>1077</ele>
        <time>2026-06-28T04:53:46.000Z</time>
      </trkpt>
      <trkpt lat="42.75828" lon="1.49768">
        <ele>1077</ele>
        <time>2026-06-28T04:53:47.000Z</time>
      </trkpt>
      <trkpt lat="42.75829" lon="1.4977">
        <ele>1079</ele>
        <time>2026-06-28T04:53:48.000Z</time>
      </trkpt>
      <trkpt lat="42.75829" lon="1.49773">
        <ele>1080</ele>
        <time>2026-06-28T04:53:49.000Z</time>
      </trkpt>
      <trkpt lat="42.75829" lon="1.49775">
        <ele>1082</ele>
        <time>2026-06-28T04:53:50.000Z</time>
      </trkpt>
      <trkpt lat="42.75829" lon="1.49778">
        <ele>1083</ele>
        <time>2026-06-28T04:53:51.000Z</time>
      </trkpt>
      <trkpt lat="42.75828" lon="1.4978">
        <ele>1083</ele>
        <time>2026-06-28T04:53:52.000Z</time>
      </trkpt>
      <trkpt lat="42.75827" lon="1.49783">
        <ele>1083</ele>
        <time>2026-06-28T04:53:53.000Z</time>
      </trkpt>
      <trkpt lat="42.75826" lon="1.49787">
        <ele>1083</ele>
        <time>2026-06-28T04:53:54.000Z</time>
      </trkpt>
      <trkpt lat="42.75826" lon="1.49789">
        <ele>1083</ele>
        <time>2026-06-28T04:53:55.000Z</time>
      </trkpt>
      <trkpt lat="42.75825" lon="1.49792">
        <ele>1082</ele>
        <time>2026-06-28T04:53:56.000Z</time>
      </trkpt>
      <trkpt lat="42.75825" lon="1.49794">
        <ele>1083</ele>
        <time>2026-06-28T04:53:57.000Z</time>
      </trkpt>
      <trkpt lat="42.75825" lon="1.49798">
        <ele>1083</ele>
        <time>2026-06-28T04:53:58.000Z</time>
      </trkpt>
      <trkpt lat="42.75824" lon="1.498">
        <ele>1083</ele>
        <time>2026-06-28T04:53:59.000Z</time>
      </trkpt>
      <trkpt lat="42.75824" lon="1.49802">
        <ele>1083</ele>
        <time>2026-06-28T04:54:00.000Z</time>
      </trkpt>
      <trkpt lat="42.75824" lon="1.49804">
        <ele>1082</ele>
        <time>2026-06-28T04:54:01.000Z</time>
      </trkpt>
      <trkpt lat="42.75824" lon="1.49806">
        <ele>1081</ele>
        <time>2026-06-28T04:54:02.000Z</time>
      </trkpt>
      <trkpt lat="42.75823" lon="1.49808">
        <ele>1081</ele>
        <time>2026-06-28T04:54:03.000Z</time>
      </trkpt>
      <trkpt lat="42.75823" lon="1.49809">
        <ele>1081</ele>
        <time>2026-06-28T04:54:04.000Z</time>
      </trkpt>
      <trkpt lat="42.75822" lon="1.49811">
        <ele>1081</ele>
        <time>2026-06-28T04:54:05.000Z</time>
      </trkpt>
      <trkpt lat="42.75822" lon="1.49812">
        <ele>1081</ele>
        <time>2026-06-28T04:54:06.000Z</time>
      </trkpt>
      <trkpt lat="42.75821" lon="1.49814">
        <ele>1081</ele>
        <time>2026-06-28T04:54:07.000Z</time>
      </trkpt>
      <trkpt lat="42.75821" lon="1.49816">
        <ele>1081</ele>
        <time>2026-06-28T04:54:08.000Z</time>
      </trkpt>
      <trkpt lat="42.75821" lon="1.49818">
        <ele>1082</ele>
        <time>2026-06-28T04:54:09.000Z</time>
      </trkpt>
      <trkpt lat="42.75821" lon="1.4982">
        <ele>1083</ele>
        <time>2026-06-28T04:54:10.000Z</time>
      </trkpt>
      <trkpt lat="42.7582" lon="1.49822">
        <ele>1084</ele>
        <time>2026-06-28T04:54:11.000Z</time>
      </trkpt>
      <trkpt lat="42.7582" lon="1.49824">
        <ele>1084</ele>
        <time>2026-06-28T04:54:12.000Z</time>
      </trkpt>
      <trkpt lat="42.75821" lon="1.49827">
        <ele>1084</ele>
        <time>2026-06-28T04:54:13.000Z</time>
      </trkpt>
      <trkpt lat="42.75821" lon="1.49828">
        <ele>1084</ele>
        <time>2026-06-28T04:54:14.000Z</time>
      </trkpt>
      <trkpt lat="42.75821" lon="1.4983">
        <ele>1083</ele>
        <time>2026-06-28T04:54:15.000Z</time>
      </trkpt>
      <trkpt lat="42.75821" lon="1.49832">
        <ele>1083</ele>
        <time>2026-06-28T04:54:16.000Z</time>
      </trkpt>
      <trkpt lat="42.75821" lon="1.49834">
        <ele>1083</ele>
        <time>2026-06-28T04:54:17.000Z</time>
      </trkpt>
      <trkpt lat="42.75821" lon="1.49836">
        <ele>1083</ele>
        <time>2026-06-28T04:54:18.000Z</time>
      </trkpt>
      <trkpt lat="42.7582" lon="1.49839">
        <ele>1083</ele>
        <time>2026-06-28T04:54:19.000Z</time>
      </trkpt>
      <trkpt lat="42.7582" lon="1.49841">
        <ele>1083</ele>
        <time>2026-06-28T04:54:20.000Z</time>
      </trkpt>
      <trkpt lat="42.7582" lon="1.49842">
        <ele>1083</ele>
        <time>2026-06-28T04:54:21.000Z</time>
      </trkpt>
      <trkpt lat="42.75819" lon="1.49844">
        <ele>1084</ele>
        <time>2026-06-28T04:54:22.000Z</time>
      </trkpt>
      <trkpt lat="42.75819" lon="1.49846">
        <ele>1084</ele>
        <time>2026-06-28T04:54:23.000Z</time>
      </trkpt>
      <trkpt lat="42.75819" lon="1.49848">
        <ele>1084</ele>
        <time>2026-06-28T04:54:24.000Z</time>
      </trkpt>
      <trkpt lat="42.75819" lon="1.49849">
        <ele>1085</ele>
        <time>2026-06-28T04:54:25.000Z</time>
      </trkpt>
      <trkpt lat="42.75819" lon="1.49852">
        <ele>1086</ele>
        <time>2026-06-28T04:54:26.000Z</time>
      </trkpt>
      <trkpt lat="42.75819" lon="1.49853">
        <ele>1086</ele>
        <time>2026-06-28T04:54:27.000Z</time>
      </trkpt>
      <trkpt lat="42.75819" lon="1.49855">
        <ele>1087</ele>
        <time>2026-06-28T04:54:28.000Z</time>
      </trkpt>
      <trkpt lat="42.75819" lon="1.49857">
        <ele>1087</ele>
        <time>2026-06-28T04:54:29.000Z</time>
      </trkpt>
      <trkpt lat="42.75819" lon="1.49859">
        <ele>1088</ele>
        <time>2026-06-28T04:54:30.000Z</time>
      </trkpt>
      <trkpt lat="42.75819" lon="1.4986">
        <ele>1089</ele>
        <time>2026-06-28T04:54:31.000Z</time>
      </trkpt>
      <trkpt lat="42.7582" lon="1.49862">
        <ele>1090</ele>
        <time>2026-06-28T04:54:32.000Z</time>
      </trkpt>
      <trkpt lat="42.7582" lon="1.49863">
        <ele>1092</ele>
        <time>2026-06-28T04:54:33.000Z</time>
      </trkpt>
      <trkpt lat="42.7582" lon="1.49865">
        <ele>1093</ele>
        <time>2026-06-28T04:54:34.000Z</time>
      </trkpt>
      <trkpt lat="42.7582" lon="1.49867">
        <ele>1094</ele>
        <time>2026-06-28T04:54:35.000Z</time>
      </trkpt>
      <trkpt lat="42.7582" lon="1.49868">
        <ele>1094</ele>
        <time>2026-06-28T04:54:36.000Z</time>
      </trkpt>
      <trkpt lat="42.75821" lon="1.4987">
        <ele>1094</ele>
        <time>2026-06-28T04:54:37.000Z</time>
      </trkpt>
      <trkpt lat="42.75821" lon="1.4987">
        <ele>1094</ele>
        <time>2026-06-28T04:54:38.000Z</time>
      </trkpt>
      <trkpt lat="42.75822" lon="1.49871">
        <ele>1094</ele>
        <time>2026-06-28T04:54:39.000Z</time>
      </trkpt>
      <trkpt lat="42.75823" lon="1.49873">
        <ele>1094</ele>
        <time>2026-06-28T04:54:40.000Z</time>
      </trkpt>
      <trkpt lat="42.75824" lon="1.49875">
        <ele>1094</ele>
        <time>2026-06-28T04:54:41.000Z</time>
      </trkpt>
      <trkpt lat="42.75824" lon="1.49877">
        <ele>1094</ele>
        <time>2026-06-28T04:54:42.000Z</time>
      </trkpt>
      <trkpt lat="42.75825" lon="1.49879">
        <ele>1093</ele>
        <time>2026-06-28T04:54:43.000Z</time>
      </trkpt>
      <trkpt lat="42.75825" lon="1.49881">
        <ele>1093</ele>
        <time>2026-06-28T04:54:44.000Z</time>
      </trkpt>
      <trkpt lat="42.75825" lon="1.49882">
        <ele>1093</ele>
        <time>2026-06-28T04:54:45.000Z</time>
      </trkpt>
      <trkpt lat="42.75826" lon="1.49884">
        <ele>1092</ele>
        <time>2026-06-28T04:54:46.000Z</time>
      </trkpt>
      <trkpt lat="42.75827" lon="1.49886">
        <ele>1093</ele>
        <time>2026-06-28T04:54:47.000Z</time>
      </trkpt>
      <trkpt lat="42.75828" lon="1.49888">
        <ele>1092</ele>
        <time>2026-06-28T04:54:48.000Z</time>
      </trkpt>
      <trkpt lat="42.75828" lon="1.49889">
        <ele>1092</ele>
        <time>2026-06-28T04:54:49.000Z</time>
      </trkpt>
      <trkpt lat="42.75828" lon="1.49891">
        <ele>1093</ele>
        <time>2026-06-28T04:54:50.000Z</time>
      </trkpt>
      <trkpt lat="42.75829" lon="1.49893">
        <ele>1093</ele>
        <time>2026-06-28T04:54:51.000Z</time>
      </trkpt>
      <trkpt lat="42.75829" lon="1.49893">
        <ele>1094</ele>
        <time>2026-06-28T04:54:52.000Z</time>
      </trkpt>
      <trkpt lat="42.7583" lon="1.49895">
        <ele>1095</ele>
        <time>2026-06-28T04:54:53.000Z</time>
      </trkpt>
      <trkpt lat="42.7583" lon="1.49897">
        <ele>1095</ele>
        <time>2026-06-28T04:54:54.000Z</time>
      </trkpt>
      <trkpt lat="42.7583" lon="1.49898">
        <ele>1096</ele>
        <time>2026-06-28T04:54:55.000Z</time>
      </trkpt>
      <trkpt lat="42.75831" lon="1.499">
        <ele>1096</ele>
        <time>2026-06-28T04:54:56.000Z</time>
      </trkpt>
      <trkpt lat="42.75831" lon="1.49901">
        <ele>1096</ele>
        <time>2026-06-28T04:54:57.000Z</time>
      </trkpt>
      <trkpt lat="42.75832" lon="1.49903">
        <ele>1097</ele>
        <time>2026-06-28T04:54:58.000Z</time>
      </trkpt>
      <trkpt lat="42.75832" lon="1.49904">
        <ele>1097</ele>
        <time>2026-06-28T04:54:59.000Z</time>
      </trkpt>
      <trkpt lat="42.75833" lon="1.49906">
        <ele>1097</ele>
        <time>2026-06-28T04:55:00.000Z</time>
      </trkpt>
      <trkpt lat="42.75833" lon="1.49907">
        <ele>1097</ele>
        <time>2026-06-28T04:55:01.000Z</time>
      </trkpt>
      <trkpt lat="42.75833" lon="1.49909">
        <ele>1098</ele>
        <time>2026-06-28T04:55:02.000Z</time>
      </trkpt>
      <trkpt lat="42.75833" lon="1.49912">
        <ele>1097</ele>
        <time>2026-06-28T04:55:03.000Z</time>
      </trkpt>
      <trkpt lat="42.75833" lon="1.49915">
        <ele>1098</ele>
        <time>2026-06-28T04:55:04.000Z</time>
      </trkpt>
      <trkpt lat="42.75833" lon="1.49917">
        <ele>1098</ele>
        <time>2026-06-28T04:55:05.000Z</time>
      </trkpt>
      <trkpt lat="42.75833" lon="1.49918">
        <ele>1097</ele>
        <time>2026-06-28T04:55:06.000Z</time>
      </trkpt>
      <trkpt lat="42.75833" lon="1.49921">
        <ele>1097</ele>
        <time>2026-06-28T04:55:07.000Z</time>
      </trkpt>
      <trkpt lat="42.75832" lon="1.49922">
        <ele>1097</ele>
        <time>2026-06-28T04:55:08.000Z</time>
      </trkpt>
      <trkpt lat="42.75831" lon="1.49925">
        <ele>1097</ele>
        <time>2026-06-28T04:55:09.000Z</time>
      </trkpt>
      <trkpt lat="42.75831" lon="1.49926">
        <ele>1097</ele>
        <time>2026-06-28T04:55:10.000Z</time>
      </trkpt>
      <trkpt lat="42.7583" lon="1.49928">
        <ele>1096</ele>
        <time>2026-06-28T04:55:11.000Z</time>
      </trkpt>
      <trkpt lat="42.75829" lon="1.4993">
        <ele>1097</ele>
        <time>2026-06-28T04:55:12.000Z</time>
      </trkpt>
      <trkpt lat="42.75828" lon="1.49931">
        <ele>1096</ele>
        <time>2026-06-28T04:55:13.000Z</time>
      </trkpt>
      <trkpt lat="42.75828" lon="1.49933">
        <ele>1096</ele>
        <time>2026-06-28T04:55:14.000Z</time>
      </trkpt>
      <trkpt lat="42.75827" lon="1.49934">
        <ele>1096</ele>
        <time>2026-06-28T04:55:15.000Z</time>
      </trkpt>
      <trkpt lat="42.75827" lon="1.49934">
        <ele>1096</ele>
        <time>2026-06-28T04:55:16.000Z</time>
      </trkpt>
      <trkpt lat="42.75827" lon="1.49934">
        <ele>1096</ele>
        <time>2026-06-28T04:55:17.000Z</time>
      </trkpt>
      <trkpt lat="42.75825" lon="1.49935">
        <ele>1096</ele>
        <time>2026-06-28T04:55:18.000Z</time>
      </trkpt>
      <trkpt lat="42.75824" lon="1.49935">
        <ele>1096</ele>
        <time>2026-06-28T04:55:19.000Z</time>
      </trkpt>
      <trkpt lat="42.75822" lon="1.49936">
        <ele>1096</ele>
        <time>2026-06-28T04:55:20.000Z</time>
      </trkpt>
      <trkpt lat="42.75821" lon="1.49937">
        <ele>1095</ele>
        <time>2026-06-28T04:55:21.000Z</time>
      </trkpt>
      <trkpt lat="42.75819" lon="1.49937">
        <ele>1095</ele>
        <time>2026-06-28T04:55:22.000Z</time>
      </trkpt>
      <trkpt lat="42.75817" lon="1.49939">
        <ele>1095</ele>
        <time>2026-06-28T04:55:23.000Z</time>
      </trkpt>
      <trkpt lat="42.75815" lon="1.4994">
        <ele>1095</ele>
        <time>2026-06-28T04:55:24.000Z</time>
      </trkpt>
      <trkpt lat="42.75813" lon="1.49941">
        <ele>1096</ele>
        <time>2026-06-28T04:55:25.000Z</time>
      </trkpt>
      <trkpt lat="42.75812" lon="1.49942">
        <ele>1096</ele>
        <time>2026-06-28T04:55:26.000Z</time>
      </trkpt>
      <trkpt lat="42.75811" lon="1.49944">
        <ele>1096</ele>
        <time>2026-06-28T04:55:27.000Z</time>
      </trkpt>
      <trkpt lat="42.75809" lon="1.49945">
        <ele>1096</ele>
        <time>2026-06-28T04:55:28.000Z</time>
      </trkpt>
      <trkpt lat="42.75807" lon="1.49946">
        <ele>1096</ele>
        <time>2026-06-28T04:55:29.000Z</time>
      </trkpt>
      <trkpt lat="42.75805" lon="1.49948">
        <ele>1097</ele>
        <time>2026-06-28T04:55:30.000Z</time>
      </trkpt>
      <trkpt lat="42.75804" lon="1.49949">
        <ele>1097</ele>
        <time>2026-06-28T04:55:31.000Z</time>
      </trkpt>
      <trkpt lat="42.75802" lon="1.49951">
        <ele>1098</ele>
        <time>2026-06-28T04:55:32.000Z</time>
      </trkpt>
      <trkpt lat="42.75801" lon="1.49952">
        <ele>1099</ele>
        <time>2026-06-28T04:55:33.000Z</time>
      </trkpt>
      <trkpt lat="42.758" lon="1.49954">
        <ele>1099</ele>
        <time>2026-06-28T04:55:34.000Z</time>
      </trkpt>
      <trkpt lat="42.75798" lon="1.49954">
        <ele>1099</ele>
        <time>2026-06-28T04:55:35.000Z</time>
      </trkpt>
      <trkpt lat="42.75797" lon="1.49956">
        <ele>1100</ele>
        <time>2026-06-28T04:55:36.000Z</time>
      </trkpt>
      <trkpt lat="42.75795" lon="1.49956">
        <ele>1101</ele>
        <time>2026-06-28T04:55:37.000Z</time>
      </trkpt>
      <trkpt lat="42.75793" lon="1.49957">
        <ele>1102</ele>
        <time>2026-06-28T04:55:38.000Z</time>
      </trkpt>
      <trkpt lat="42.75792" lon="1.49958">
        <ele>1102</ele>
        <time>2026-06-28T04:55:39.000Z</time>
      </trkpt>
      <trkpt lat="42.7579" lon="1.49959">
        <ele>1103</ele>
        <time>2026-06-28T04:55:40.000Z</time>
      </trkpt>
      <trkpt lat="42.75788" lon="1.4996">
        <ele>1103</ele>
        <time>2026-06-28T04:55:41.000Z</time>
      </trkpt>
      <trkpt lat="42.75787" lon="1.49961">
        <ele>1103</ele>
        <time>2026-06-28T04:55:42.000Z</time>
      </trkpt>
      <trkpt lat="42.75785" lon="1.49962">
        <ele>1104</ele>
        <time>2026-06-28T04:55:43.000Z</time>
      </trkpt>
      <trkpt lat="42.75783" lon="1.49963">
        <ele>1105</ele>
        <time>2026-06-28T04:55:44.000Z</time>
      </trkpt>
      <trkpt lat="42.75782" lon="1.49964">
        <ele>1105</ele>
        <time>2026-06-28T04:55:45.000Z</time>
      </trkpt>
      <trkpt lat="42.75781" lon="1.49965">
        <ele>1106</ele>
        <time>2026-06-28T04:55:46.000Z</time>
      </trkpt>
      <trkpt lat="42.75779" lon="1.49967">
        <ele>1106</ele>
        <time>2026-06-28T04:55:47.000Z</time>
      </trkpt>
      <trkpt lat="42.75777" lon="1.49968">
        <ele>1107</ele>
        <time>2026-06-28T04:55:48.000Z</time>
      </trkpt>
      <trkpt lat="42.75775" lon="1.49969">
        <ele>1107</ele>
        <time>2026-06-28T04:55:49.000Z</time>
      </trkpt>
      <trkpt lat="42.75775" lon="1.49971">
        <ele>1107</ele>
        <time>2026-06-28T04:55:50.000Z</time>
      </trkpt>
      <trkpt lat="42.75774" lon="1.49972">
        <ele>1108</ele>
        <time>2026-06-28T04:55:51.000Z</time>
      </trkpt>
      <trkpt lat="42.75773" lon="1.49974">
        <ele>1107</ele>
        <time>2026-06-28T04:55:52.000Z</time>
      </trkpt>
      <trkpt lat="42.75772" lon="1.49975">
        <ele>1108</ele>
        <time>2026-06-28T04:55:53.000Z</time>
      </trkpt>
      <trkpt lat="42.75771" lon="1.49976">
        <ele>1108</ele>
        <time>2026-06-28T04:55:54.000Z</time>
      </trkpt>
      <trkpt lat="42.7577" lon="1.49977">
        <ele>1108</ele>
        <time>2026-06-28T04:55:55.000Z</time>
      </trkpt>
      <trkpt lat="42.75769" lon="1.49979">
        <ele>1108</ele>
        <time>2026-06-28T04:55:56.000Z</time>
      </trkpt>
      <trkpt lat="42.75768" lon="1.4998">
        <ele>1109</ele>
        <time>2026-06-28T04:55:57.000Z</time>
      </trkpt>
      <trkpt lat="42.75767" lon="1.49981">
        <ele>1109</ele>
        <time>2026-06-28T04:55:58.000Z</time>
      </trkpt>
      <trkpt lat="42.75766" lon="1.49982">
        <ele>1109</ele>
        <time>2026-06-28T04:55:59.000Z</time>
      </trkpt>
      <trkpt lat="42.75765" lon="1.49984">
        <ele>1109</ele>
        <time>2026-06-28T04:56:00.000Z</time>
      </trkpt>
      <trkpt lat="42.75763" lon="1.49986">
        <ele>1110</ele>
        <time>2026-06-28T04:56:01.000Z</time>
      </trkpt>
      <trkpt lat="42.75762" lon="1.49987">
        <ele>1111</ele>
        <time>2026-06-28T04:56:02.000Z</time>
      </trkpt>
      <trkpt lat="42.75761" lon="1.49988">
        <ele>1111</ele>
        <time>2026-06-28T04:56:03.000Z</time>
      </trkpt>
      <trkpt lat="42.75759" lon="1.4999">
        <ele>1111</ele>
        <time>2026-06-28T04:56:04.000Z</time>
      </trkpt>
      <trkpt lat="42.75758" lon="1.49991">
        <ele>1112</ele>
        <time>2026-06-28T04:56:05.000Z</time>
      </trkpt>
      <trkpt lat="42.75756" lon="1.49992">
        <ele>1112</ele>
        <time>2026-06-28T04:56:06.000Z</time>
      </trkpt>
      <trkpt lat="42.75755" lon="1.49993">
        <ele>1113</ele>
        <time>2026-06-28T04:56:07.000Z</time>
      </trkpt>
      <trkpt lat="42.75755" lon="1.49994">
        <ele>1113</ele>
        <time>2026-06-28T04:56:08.000Z</time>
      </trkpt>
      <trkpt lat="42.75753" lon="1.49995">
        <ele>1113</ele>
        <time>2026-06-28T04:56:09.000Z</time>
      </trkpt>
      <trkpt lat="42.75752" lon="1.49996">
        <ele>1113</ele>
        <time>2026-06-28T04:56:10.000Z</time>
      </trkpt>
      <trkpt lat="42.7575" lon="1.49998">
        <ele>1114</ele>
        <time>2026-06-28T04:56:11.000Z</time>
      </trkpt>
      <trkpt lat="42.75749" lon="1.49999">
        <ele>1114</ele>
        <time>2026-06-28T04:56:12.000Z</time>
      </trkpt>
      <trkpt lat="42.75748" lon="1.50001">
        <ele>1115</ele>
        <time>2026-06-28T04:56:13.000Z</time>
      </trkpt>
      <trkpt lat="42.75746" lon="1.50002">
        <ele>1115</ele>
        <time>2026-06-28T04:56:14.000Z</time>
      </trkpt>
      <trkpt lat="42.75745" lon="1.50003">
        <ele>1116</ele>
        <time>2026-06-28T04:56:15.000Z</time>
      </trkpt>
      <trkpt lat="42.75744" lon="1.50005">
        <ele>1117</ele>
        <time>2026-06-28T04:56:16.000Z</time>
      </trkpt>
      <trkpt lat="42.75743" lon="1.50005">
        <ele>1117</ele>
        <time>2026-06-28T04:56:17.000Z</time>
      </trkpt>
      <trkpt lat="42.75742" lon="1.50007">
        <ele>1118</ele>
        <time>2026-06-28T04:56:18.000Z</time>
      </trkpt>
      <trkpt lat="42.75741" lon="1.50009">
        <ele>1119</ele>
        <time>2026-06-28T04:56:19.000Z</time>
      </trkpt>
      <trkpt lat="42.7574" lon="1.5001">
        <ele>1119</ele>
        <time>2026-06-28T04:56:20.000Z</time>
      </trkpt>
      <trkpt lat="42.75739" lon="1.50012">
        <ele>1119</ele>
        <time>2026-06-28T04:56:21.000Z</time>
      </trkpt>
      <trkpt lat="42.75738" lon="1.50014">
        <ele>1120</ele>
        <time>2026-06-28T04:56:22.000Z</time>
      </trkpt>
      <trkpt lat="42.75736" lon="1.50015">
        <ele>1121</ele>
        <time>2026-06-28T04:56:23.000Z</time>
      </trkpt>
      <trkpt lat="42.75736" lon="1.50018">
        <ele>1121</ele>
        <time>2026-06-28T04:56:24.000Z</time>
      </trkpt>
      <trkpt lat="42.75734" lon="1.50019">
        <ele>1123</ele>
        <time>2026-06-28T04:56:25.000Z</time>
      </trkpt>
      <trkpt lat="42.75733" lon="1.5002">
        <ele>1123</ele>
        <time>2026-06-28T04:56:26.000Z</time>
      </trkpt>
      <trkpt lat="42.75731" lon="1.50022">
        <ele>1123</ele>
        <time>2026-06-28T04:56:27.000Z</time>
      </trkpt>
      <trkpt lat="42.7573" lon="1.50024">
        <ele>1124</ele>
        <time>2026-06-28T04:56:28.000Z</time>
      </trkpt>
      <trkpt lat="42.75729" lon="1.50026">
        <ele>1124</ele>
        <time>2026-06-28T04:56:29.000Z</time>
      </trkpt>
      <trkpt lat="42.75728" lon="1.50028">
        <ele>1123</ele>
        <time>2026-06-28T04:56:30.000Z</time>
      </trkpt>
      <trkpt lat="42.75727" lon="1.5003">
        <ele>1123</ele>
        <time>2026-06-28T04:56:31.000Z</time>
      </trkpt>
      <trkpt lat="42.75726" lon="1.50031">
        <ele>1123</ele>
        <time>2026-06-28T04:56:32.000Z</time>
      </trkpt>
      <trkpt lat="42.75725" lon="1.50033">
        <ele>1123</ele>
        <time>2026-06-28T04:56:33.000Z</time>
      </trkpt>
      <trkpt lat="42.75723" lon="1.50035">
        <ele>1123</ele>
        <time>2026-06-28T04:56:34.000Z</time>
      </trkpt>
      <trkpt lat="42.75722" lon="1.50035">
        <ele>1123</ele>
        <time>2026-06-28T04:56:35.000Z</time>
      </trkpt>
      <trkpt lat="42.7572" lon="1.50037">
        <ele>1123</ele>
        <time>2026-06-28T04:56:36.000Z</time>
      </trkpt>
      <trkpt lat="42.75719" lon="1.50037">
        <ele>1123</ele>
        <time>2026-06-28T04:56:37.000Z</time>
      </trkpt>
      <trkpt lat="42.75718" lon="1.50038">
        <ele>1123</ele>
        <time>2026-06-28T04:56:38.000Z</time>
      </trkpt>
      <trkpt lat="42.75717" lon="1.50039">
        <ele>1123</ele>
        <time>2026-06-28T04:56:39.000Z</time>
      </trkpt>
      <trkpt lat="42.75716" lon="1.5004">
        <ele>1123</ele>
        <time>2026-06-28T04:56:40.000Z</time>
      </trkpt>
      <trkpt lat="42.75715" lon="1.50041">
        <ele>1124</ele>
        <time>2026-06-28T04:56:41.000Z</time>
      </trkpt>
      <trkpt lat="42.75714" lon="1.50042">
        <ele>1125</ele>
        <time>2026-06-28T04:56:42.000Z</time>
      </trkpt>
      <trkpt lat="42.75713" lon="1.50043">
        <ele>1125</ele>
        <time>2026-06-28T04:56:43.000Z</time>
      </trkpt>
      <trkpt lat="42.75712" lon="1.50043">
        <ele>1125</ele>
        <time>2026-06-28T04:56:44.000Z</time>
      </trkpt>
      <trkpt lat="42.7571" lon="1.50043">
        <ele>1125</ele>
        <time>2026-06-28T04:56:45.000Z</time>
      </trkpt>
      <trkpt lat="42.75709" lon="1.50044">
        <ele>1125</ele>
        <time>2026-06-28T04:56:46.000Z</time>
      </trkpt>
      <trkpt lat="42.75707" lon="1.50044">
        <ele>1125</ele>
        <time>2026-06-28T04:56:47.000Z</time>
      </trkpt>
      <trkpt lat="42.75706" lon="1.50044">
        <ele>1125</ele>
        <time>2026-06-28T04:56:48.000Z</time>
      </trkpt>
      <trkpt lat="42.75703" lon="1.50044">
        <ele>1126</ele>
        <time>2026-06-28T04:56:49.000Z</time>
      </trkpt>
      <trkpt lat="42.75701" lon="1.50045">
        <ele>1126</ele>
        <time>2026-06-28T04:56:50.000Z</time>
      </trkpt>
      <trkpt lat="42.757" lon="1.50046">
        <ele>1126</ele>
        <time>2026-06-28T04:56:51.000Z</time>
      </trkpt>
      <trkpt lat="42.75698" lon="1.50046">
        <ele>1126</ele>
        <time>2026-06-28T04:56:52.000Z</time>
      </trkpt>
      <trkpt lat="42.75696" lon="1.50046">
        <ele>1126</ele>
        <time>2026-06-28T04:56:53.000Z</time>
      </trkpt>
      <trkpt lat="42.75694" lon="1.50046">
        <ele>1127</ele>
        <time>2026-06-28T04:56:54.000Z</time>
      </trkpt>
      <trkpt lat="42.75692" lon="1.50046">
        <ele>1126</ele>
        <time>2026-06-28T04:56:55.000Z</time>
      </trkpt>
      <trkpt lat="42.75691" lon="1.50046">
        <ele>1126</ele>
        <time>2026-06-28T04:56:56.000Z</time>
      </trkpt>
      <trkpt lat="42.75689" lon="1.50046">
        <ele>1126</ele>
        <time>2026-06-28T04:56:57.000Z</time>
      </trkpt>
      <trkpt lat="42.75688" lon="1.50046">
        <ele>1126</ele>
        <time>2026-06-28T04:56:58.000Z</time>
      </trkpt>
      <trkpt lat="42.75687" lon="1.50046">
        <ele>1127</ele>
        <time>2026-06-28T04:56:59.000Z</time>
      </trkpt>
      <trkpt lat="42.75686" lon="1.50047">
        <ele>1126</ele>
        <time>2026-06-28T04:57:00.000Z</time>
      </trkpt>
      <trkpt lat="42.75685" lon="1.50047">
        <ele>1127</ele>
        <time>2026-06-28T04:57:01.000Z</time>
      </trkpt>
      <trkpt lat="42.75684" lon="1.50048">
        <ele>1128</ele>
        <time>2026-06-28T04:57:02.000Z</time>
      </trkpt>
      <trkpt lat="42.75683" lon="1.50048">
        <ele>1128</ele>
        <time>2026-06-28T04:57:03.000Z</time>
      </trkpt>
      <trkpt lat="42.75683" lon="1.50049">
        <ele>1129</ele>
        <time>2026-06-28T04:57:04.000Z</time>
      </trkpt>
      <trkpt lat="42.75682" lon="1.50049">
        <ele>1130</ele>
        <time>2026-06-28T04:57:05.000Z</time>
      </trkpt>
      <trkpt lat="42.75681" lon="1.50048">
        <ele>1130</ele>
        <time>2026-06-28T04:57:06.000Z</time>
      </trkpt>
      <trkpt lat="42.7568" lon="1.50048">
        <ele>1131</ele>
        <time>2026-06-28T04:57:07.000Z</time>
      </trkpt>
      <trkpt lat="42.75679" lon="1.50048">
        <ele>1131</ele>
        <time>2026-06-28T04:57:08.000Z</time>
      </trkpt>
      <trkpt lat="42.75678" lon="1.50048">
        <ele>1133</ele>
        <time>2026-06-28T04:57:09.000Z</time>
      </trkpt>
      <trkpt lat="42.75678" lon="1.50048">
        <ele>1133</ele>
        <time>2026-06-28T04:57:10.000Z</time>
      </trkpt>
      <trkpt lat="42.75676" lon="1.50049">
        <ele>1134</ele>
        <time>2026-06-28T04:57:11.000Z</time>
      </trkpt>
      <trkpt lat="42.75675" lon="1.50048">
        <ele>1134</ele>
        <time>2026-06-28T04:57:12.000Z</time>
      </trkpt>
      <trkpt lat="42.75674" lon="1.50049">
        <ele>1135</ele>
        <time>2026-06-28T04:57:13.000Z</time>
      </trkpt>
      <trkpt lat="42.75673" lon="1.5005">
        <ele>1135</ele>
        <time>2026-06-28T04:57:14.000Z</time>
      </trkpt>
      <trkpt lat="42.75672" lon="1.50051">
        <ele>1136</ele>
        <time>2026-06-28T04:57:15.000Z</time>
      </trkpt>
      <trkpt lat="42.75671" lon="1.50051">
        <ele>1136</ele>
        <time>2026-06-28T04:57:16.000Z</time>
      </trkpt>
      <trkpt lat="42.7567" lon="1.50052">
        <ele>1136</ele>
        <time>2026-06-28T04:57:17.000Z</time>
      </trkpt>
      <trkpt lat="42.75669" lon="1.50052">
        <ele>1137</ele>
        <time>2026-06-28T04:57:18.000Z</time>
      </trkpt>
      <trkpt lat="42.75667" lon="1.50052">
        <ele>1137</ele>
        <time>2026-06-28T04:57:19.000Z</time>
      </trkpt>
      <trkpt lat="42.75666" lon="1.50053">
        <ele>1138</ele>
        <time>2026-06-28T04:57:20.000Z</time>
      </trkpt>
      <trkpt lat="42.75665" lon="1.50053">
        <ele>1138</ele>
        <time>2026-06-28T04:57:21.000Z</time>
      </trkpt>
      <trkpt lat="42.75663" lon="1.50053">
        <ele>1139</ele>
        <time>2026-06-28T04:57:22.000Z</time>
      </trkpt>
      <trkpt lat="42.75662" lon="1.50054">
        <ele>1139</ele>
        <time>2026-06-28T04:57:23.000Z</time>
      </trkpt>
      <trkpt lat="42.7566" lon="1.50054">
        <ele>1139</ele>
        <time>2026-06-28T04:57:24.000Z</time>
      </trkpt>
      <trkpt lat="42.75659" lon="1.50054">
        <ele>1139</ele>
        <time>2026-06-28T04:57:25.000Z</time>
      </trkpt>
      <trkpt lat="42.75657" lon="1.50054">
        <ele>1139</ele>
        <time>2026-06-28T04:57:26.000Z</time>
      </trkpt>
      <trkpt lat="42.75656" lon="1.50055">
        <ele>1139</ele>
        <time>2026-06-28T04:57:27.000Z</time>
      </trkpt>
      <trkpt lat="42.75654" lon="1.50055">
        <ele>1139</ele>
        <time>2026-06-28T04:57:28.000Z</time>
      </trkpt>
      <trkpt lat="42.75653" lon="1.50055">
        <ele>1139</ele>
        <time>2026-06-28T04:57:29.000Z</time>
      </trkpt>
      <trkpt lat="42.75652" lon="1.50055">
        <ele>1140</ele>
        <time>2026-06-28T04:57:30.000Z</time>
      </trkpt>
      <trkpt lat="42.7565" lon="1.50055">
        <ele>1140</ele>
        <time>2026-06-28T04:57:31.000Z</time>
      </trkpt>
      <trkpt lat="42.75649" lon="1.50055">
        <ele>1139</ele>
        <time>2026-06-28T04:57:32.000Z</time>
      </trkpt>
      <trkpt lat="42.75648" lon="1.50056">
        <ele>1140</ele>
        <time>2026-06-28T04:57:33.000Z</time>
      </trkpt>
      <trkpt lat="42.75648" lon="1.50056">
        <ele>1140</ele>
        <time>2026-06-28T04:57:34.000Z</time>
      </trkpt>
      <trkpt lat="42.75646" lon="1.50056">
        <ele>1140</ele>
        <time>2026-06-28T04:57:35.000Z</time>
      </trkpt>
      <trkpt lat="42.75645" lon="1.50056">
        <ele>1141</ele>
        <time>2026-06-28T04:57:36.000Z</time>
      </trkpt>
      <trkpt lat="42.75643" lon="1.50057">
        <ele>1141</ele>
        <time>2026-06-28T04:57:37.000Z</time>
      </trkpt>
      <trkpt lat="42.75642" lon="1.50059">
        <ele>1141</ele>
        <time>2026-06-28T04:57:38.000Z</time>
      </trkpt>
      <trkpt lat="42.75641" lon="1.50059">
        <ele>1141</ele>
        <time>2026-06-28T04:57:39.000Z</time>
      </trkpt>
      <trkpt lat="42.75639" lon="1.5006">
        <ele>1141</ele>
        <time>2026-06-28T04:57:40.000Z</time>
      </trkpt>
      <trkpt lat="42.75638" lon="1.50061">
        <ele>1141</ele>
        <time>2026-06-28T04:57:41.000Z</time>
      </trkpt>
      <trkpt lat="42.75637" lon="1.50061">
        <ele>1142</ele>
        <time>2026-06-28T04:57:42.000Z</time>
      </trkpt>
      <trkpt lat="42.75636" lon="1.50061">
        <ele>1143</ele>
        <time>2026-06-28T04:57:43.000Z</time>
      </trkpt>
      <trkpt lat="42.75634" lon="1.50061">
        <ele>1143</ele>
        <time>2026-06-28T04:57:44.000Z</time>
      </trkpt>
      <trkpt lat="42.75631" lon="1.5006">
        <ele>1143</ele>
        <time>2026-06-28T04:57:45.000Z</time>
      </trkpt>
      <trkpt lat="42.75628" lon="1.50059">
        <ele>1143</ele>
        <time>2026-06-28T04:57:46.000Z</time>
      </trkpt>
      <trkpt lat="42.75626" lon="1.50057">
        <ele>1142</ele>
        <time>2026-06-28T04:57:47.000Z</time>
      </trkpt>
      <trkpt lat="42.75623" lon="1.50056">
        <ele>1141</ele>
        <time>2026-06-28T04:57:48.000Z</time>
      </trkpt>
      <trkpt lat="42.7562" lon="1.50054">
        <ele>1140</ele>
        <time>2026-06-28T04:57:49.000Z</time>
      </trkpt>
      <trkpt lat="42.75618" lon="1.50052">
        <ele>1141</ele>
        <time>2026-06-28T04:57:50.000Z</time>
      </trkpt>
      <trkpt lat="42.75616" lon="1.50051">
        <ele>1141</ele>
        <time>2026-06-28T04:57:51.000Z</time>
      </trkpt>
      <trkpt lat="42.75614" lon="1.50049">
        <ele>1141</ele>
        <time>2026-06-28T04:57:52.000Z</time>
      </trkpt>
      <trkpt lat="42.75612" lon="1.50046">
        <ele>1141</ele>
        <time>2026-06-28T04:57:53.000Z</time>
      </trkpt>
      <trkpt lat="42.7561" lon="1.50044">
        <ele>1140</ele>
        <time>2026-06-28T04:57:54.000Z</time>
      </trkpt>
      <trkpt lat="42.75609" lon="1.50042">
        <ele>1140</ele>
        <time>2026-06-28T04:57:55.000Z</time>
      </trkpt>
      <trkpt lat="42.75607" lon="1.5004">
        <ele>1140</ele>
        <time>2026-06-28T04:57:56.000Z</time>
      </trkpt>
      <trkpt lat="42.75605" lon="1.50039">
        <ele>1140</ele>
        <time>2026-06-28T04:57:57.000Z</time>
      </trkpt>
      <trkpt lat="42.75603" lon="1.50038">
        <ele>1140</ele>
        <time>2026-06-28T04:57:58.000Z</time>
      </trkpt>
      <trkpt lat="42.75601" lon="1.50037">
        <ele>1140</ele>
        <time>2026-06-28T04:57:59.000Z</time>
      </trkpt>
      <trkpt lat="42.756" lon="1.50036">
        <ele>1140</ele>
        <time>2026-06-28T04:58:00.000Z</time>
      </trkpt>
      <trkpt lat="42.75598" lon="1.50037">
        <ele>1140</ele>
        <time>2026-06-28T04:58:01.000Z</time>
      </trkpt>
      <trkpt lat="42.75596" lon="1.50037">
        <ele>1140</ele>
        <time>2026-06-28T04:58:02.000Z</time>
      </trkpt>
      <trkpt lat="42.75594" lon="1.50037">
        <ele>1141</ele>
        <time>2026-06-28T04:58:03.000Z</time>
      </trkpt>
      <trkpt lat="42.75592" lon="1.50037">
        <ele>1141</ele>
        <time>2026-06-28T04:58:04.000Z</time>
      </trkpt>
      <trkpt lat="42.7559" lon="1.50037">
        <ele>1141</ele>
        <time>2026-06-28T04:58:05.000Z</time>
      </trkpt>
      <trkpt lat="42.75588" lon="1.50038">
        <ele>1141</ele>
        <time>2026-06-28T04:58:06.000Z</time>
      </trkpt>
      <trkpt lat="42.75586" lon="1.50039">
        <ele>1141</ele>
        <time>2026-06-28T04:58:07.000Z</time>
      </trkpt>
      <trkpt lat="42.75584" lon="1.5004">
        <ele>1141</ele>
        <time>2026-06-28T04:58:08.000Z</time>
      </trkpt>
      <trkpt lat="42.75581" lon="1.50041">
        <ele>1141</ele>
        <time>2026-06-28T04:58:09.000Z</time>
      </trkpt>
      <trkpt lat="42.75579" lon="1.50042">
        <ele>1141</ele>
        <time>2026-06-28T04:58:10.000Z</time>
      </trkpt>
      <trkpt lat="42.75577" lon="1.50044">
        <ele>1141</ele>
        <time>2026-06-28T04:58:11.000Z</time>
      </trkpt>
      <trkpt lat="42.75574" lon="1.50047">
        <ele>1142</ele>
        <time>2026-06-28T04:58:12.000Z</time>
      </trkpt>
      <trkpt lat="42.75572" lon="1.5005">
        <ele>1142</ele>
        <time>2026-06-28T04:58:13.000Z</time>
      </trkpt>
      <trkpt lat="42.75569" lon="1.50052">
        <ele>1142</ele>
        <time>2026-06-28T04:58:14.000Z</time>
      </trkpt>
      <trkpt lat="42.75567" lon="1.50054">
        <ele>1142</ele>
        <time>2026-06-28T04:58:15.000Z</time>
      </trkpt>
      <trkpt lat="42.75566" lon="1.50055">
        <ele>1142</ele>
        <time>2026-06-28T04:58:16.000Z</time>
      </trkpt>
      <trkpt lat="42.75564" lon="1.50056">
        <ele>1142</ele>
        <time>2026-06-28T04:58:17.000Z</time>
      </trkpt>
      <trkpt lat="42.75563" lon="1.50058">
        <ele>1143</ele>
        <time>2026-06-28T04:58:18.000Z</time>
      </trkpt>
      <trkpt lat="42.75561" lon="1.50061">
        <ele>1142</ele>
        <time>2026-06-28T04:58:19.000Z</time>
      </trkpt>
      <trkpt lat="42.75559" lon="1.50063">
        <ele>1142</ele>
        <time>2026-06-28T04:58:20.000Z</time>
      </trkpt>
      <trkpt lat="42.75557" lon="1.50064">
        <ele>1142</ele>
        <time>2026-06-28T04:58:21.000Z</time>
      </trkpt>
      <trkpt lat="42.75556" lon="1.50067">
        <ele>1142</ele>
        <time>2026-06-28T04:58:22.000Z</time>
      </trkpt>
      <trkpt lat="42.75554" lon="1.5007">
        <ele>1142</ele>
        <time>2026-06-28T04:58:23.000Z</time>
      </trkpt>
      <trkpt lat="42.75552" lon="1.50072">
        <ele>1141</ele>
        <time>2026-06-28T04:58:24.000Z</time>
      </trkpt>
      <trkpt lat="42.7555" lon="1.50074">
        <ele>1142</ele>
        <time>2026-06-28T04:58:25.000Z</time>
      </trkpt>
      <trkpt lat="42.75548" lon="1.50077">
        <ele>1142</ele>
        <time>2026-06-28T04:58:26.000Z</time>
      </trkpt>
      <trkpt lat="42.75547" lon="1.5008">
        <ele>1142</ele>
        <time>2026-06-28T04:58:27.000Z</time>
      </trkpt>
      <trkpt lat="42.75545" lon="1.50082">
        <ele>1141</ele>
        <time>2026-06-28T04:58:28.000Z</time>
      </trkpt>
      <trkpt lat="42.75543" lon="1.50084">
        <ele>1142</ele>
        <time>2026-06-28T04:58:29.000Z</time>
      </trkpt>
      <trkpt lat="42.75542" lon="1.50086">
        <ele>1142</ele>
        <time>2026-06-28T04:58:30.000Z</time>
      </trkpt>
      <trkpt lat="42.7554" lon="1.50089">
        <ele>1142</ele>
        <time>2026-06-28T04:58:31.000Z</time>
      </trkpt>
      <trkpt lat="42.75538" lon="1.50092">
        <ele>1142</ele>
        <time>2026-06-28T04:58:32.000Z</time>
      </trkpt>
      <trkpt lat="42.75535" lon="1.50096">
        <ele>1142</ele>
        <time>2026-06-28T04:58:33.000Z</time>
      </trkpt>
      <trkpt lat="42.75532" lon="1.50099">
        <ele>1141</ele>
        <time>2026-06-28T04:58:34.000Z</time>
      </trkpt>
      <trkpt lat="42.7553" lon="1.50102">
        <ele>1140</ele>
        <time>2026-06-28T04:58:35.000Z</time>
      </trkpt>
      <trkpt lat="42.75527" lon="1.50105">
        <ele>1140</ele>
        <time>2026-06-28T04:58:36.000Z</time>
      </trkpt>
      <trkpt lat="42.75523" lon="1.50107">
        <ele>1140</ele>
        <time>2026-06-28T04:58:37.000Z</time>
      </trkpt>
      <trkpt lat="42.75521" lon="1.5011">
        <ele>1140</ele>
        <time>2026-06-28T04:58:38.000Z</time>
      </trkpt>
      <trkpt lat="42.75518" lon="1.50113">
        <ele>1140</ele>
        <time>2026-06-28T04:58:39.000Z</time>
      </trkpt>
      <trkpt lat="42.75515" lon="1.50116">
        <ele>1140</ele>
        <time>2026-06-28T04:58:40.000Z</time>
      </trkpt>
      <trkpt lat="42.75512" lon="1.50119">
        <ele>1139</ele>
        <time>2026-06-28T04:58:41.000Z</time>
      </trkpt>
      <trkpt lat="42.75509" lon="1.50122">
        <ele>1140</ele>
        <time>2026-06-28T04:58:42.000Z</time>
      </trkpt>
      <trkpt lat="42.75507" lon="1.50125">
        <ele>1140</ele>
        <time>2026-06-28T04:58:43.000Z</time>
      </trkpt>
      <trkpt lat="42.75504" lon="1.50127">
        <ele>1140</ele>
        <time>2026-06-28T04:58:44.000Z</time>
      </trkpt>
      <trkpt lat="42.75502" lon="1.50129">
        <ele>1141</ele>
        <time>2026-06-28T04:58:45.000Z</time>
      </trkpt>
      <trkpt lat="42.75499" lon="1.50132">
        <ele>1141</ele>
        <time>2026-06-28T04:58:46.000Z</time>
      </trkpt>
      <trkpt lat="42.75497" lon="1.50135">
        <ele>1142</ele>
        <time>2026-06-28T04:58:47.000Z</time>
      </trkpt>
      <trkpt lat="42.75495" lon="1.50139">
        <ele>1141</ele>
        <time>2026-06-28T04:58:48.000Z</time>
      </trkpt>
      <trkpt lat="42.75493" lon="1.50144">
        <ele>1141</ele>
        <time>2026-06-28T04:58:49.000Z</time>
      </trkpt>
      <trkpt lat="42.7549" lon="1.50149">
        <ele>1141</ele>
        <time>2026-06-28T04:58:50.000Z</time>
      </trkpt>
      <trkpt lat="42.75488" lon="1.50155">
        <ele>1140</ele>
        <time>2026-06-28T04:58:51.000Z</time>
      </trkpt>
      <trkpt lat="42.75485" lon="1.50161">
        <ele>1140</ele>
        <time>2026-06-28T04:58:52.000Z</time>
      </trkpt>
      <trkpt lat="42.75482" lon="1.50167">
        <ele>1140</ele>
        <time>2026-06-28T04:58:53.000Z</time>
      </trkpt>
      <trkpt lat="42.75478" lon="1.50175">
        <ele>1140</ele>
        <time>2026-06-28T04:58:54.000Z</time>
      </trkpt>
      <trkpt lat="42.75473" lon="1.50182">
        <ele>1141</ele>
        <time>2026-06-28T04:58:55.000Z</time>
      </trkpt>
      <trkpt lat="42.75469" lon="1.5019">
        <ele>1141</ele>
        <time>2026-06-28T04:58:56.000Z</time>
      </trkpt>
      <trkpt lat="42.75464" lon="1.50196">
        <ele>1141</ele>
        <time>2026-06-28T04:58:57.000Z</time>
      </trkpt>
      <trkpt lat="42.7546" lon="1.50202">
        <ele>1141</ele>
        <time>2026-06-28T04:58:58.000Z</time>
      </trkpt>
      <trkpt lat="42.75456" lon="1.50207">
        <ele>1141</ele>
        <time>2026-06-28T04:58:59.000Z</time>
      </trkpt>
      <trkpt lat="42.75453" lon="1.50214">
        <ele>1141</ele>
        <time>2026-06-28T04:59:00.000Z</time>
      </trkpt>
      <trkpt lat="42.75454" lon="1.5022">
        <ele>1141</ele>
        <time>2026-06-28T04:59:01.000Z</time>
      </trkpt>
      <trkpt lat="42.75456" lon="1.50225">
        <ele>1141</ele>
        <time>2026-06-28T04:59:02.000Z</time>
      </trkpt>
      <trkpt lat="42.75459" lon="1.5023">
        <ele>1140</ele>
        <time>2026-06-28T04:59:03.000Z</time>
      </trkpt>
      <trkpt lat="42.75462" lon="1.50234">
        <ele>1140</ele>
        <time>2026-06-28T04:59:04.000Z</time>
      </trkpt>
      <trkpt lat="42.75464" lon="1.50238">
        <ele>1139</ele>
        <time>2026-06-28T04:59:05.000Z</time>
      </trkpt>
      <trkpt lat="42.75467" lon="1.50242">
        <ele>1139</ele>
        <time>2026-06-28T04:59:06.000Z</time>
      </trkpt>
      <trkpt lat="42.7547" lon="1.50245">
        <ele>1138</ele>
        <time>2026-06-28T04:59:07.000Z</time>
      </trkpt>
      <trkpt lat="42.75474" lon="1.50246">
        <ele>1137</ele>
        <time>2026-06-28T04:59:08.000Z</time>
      </trkpt>
      <trkpt lat="42.75478" lon="1.50246">
        <ele>1137</ele>
        <time>2026-06-28T04:59:09.000Z</time>
      </trkpt>
      <trkpt lat="42.75482" lon="1.50246">
        <ele>1137</ele>
        <time>2026-06-28T04:59:10.000Z</time>
      </trkpt>
      <trkpt lat="42.75485" lon="1.50247">
        <ele>1137</ele>
        <time>2026-06-28T04:59:11.000Z</time>
      </trkpt>
      <trkpt lat="42.75488" lon="1.50249">
        <ele>1138</ele>
        <time>2026-06-28T04:59:12.000Z</time>
      </trkpt>
      <trkpt lat="42.75491" lon="1.5025">
        <ele>1138</ele>
        <time>2026-06-28T04:59:13.000Z</time>
      </trkpt>
      <trkpt lat="42.75493" lon="1.50252">
        <ele>1138</ele>
        <time>2026-06-28T04:59:14.000Z</time>
      </trkpt>
      <trkpt lat="42.75496" lon="1.50254">
        <ele>1138</ele>
        <time>2026-06-28T04:59:15.000Z</time>
      </trkpt>
      <trkpt lat="42.75498" lon="1.50256">
        <ele>1138</ele>
        <time>2026-06-28T04:59:16.000Z</time>
      </trkpt>
      <trkpt lat="42.755" lon="1.50257">
        <ele>1138</ele>
        <time>2026-06-28T04:59:17.000Z</time>
      </trkpt>
      <trkpt lat="42.75502" lon="1.50259">
        <ele>1138</ele>
        <time>2026-06-28T04:59:18.000Z</time>
      </trkpt>
      <trkpt lat="42.75504" lon="1.50262">
        <ele>1138</ele>
        <time>2026-06-28T04:59:19.000Z</time>
      </trkpt>
      <trkpt lat="42.75506" lon="1.50264">
        <ele>1138</ele>
        <time>2026-06-28T04:59:20.000Z</time>
      </trkpt>
      <trkpt lat="42.75508" lon="1.50266">
        <ele>1138</ele>
        <time>2026-06-28T04:59:21.000Z</time>
      </trkpt>
      <trkpt lat="42.75509" lon="1.50268">
        <ele>1138</ele>
        <time>2026-06-28T04:59:22.000Z</time>
      </trkpt>
      <trkpt lat="42.75511" lon="1.50269">
        <ele>1138</ele>
        <time>2026-06-28T04:59:23.000Z</time>
      </trkpt>
      <trkpt lat="42.75514" lon="1.50271">
        <ele>1138</ele>
        <time>2026-06-28T04:59:24.000Z</time>
      </trkpt>
      <trkpt lat="42.75516" lon="1.50273">
        <ele>1139</ele>
        <time>2026-06-28T04:59:25.000Z</time>
      </trkpt>
      <trkpt lat="42.75518" lon="1.50274">
        <ele>1139</ele>
        <time>2026-06-28T04:59:26.000Z</time>
      </trkpt>
      <trkpt lat="42.7552" lon="1.50275">
        <ele>1139</ele>
        <time>2026-06-28T04:59:27.000Z</time>
      </trkpt>
      <trkpt lat="42.75522" lon="1.50277">
        <ele>1139</ele>
        <time>2026-06-28T04:59:28.000Z</time>
      </trkpt>
      <trkpt lat="42.75524" lon="1.50279">
        <ele>1139</ele>
        <time>2026-06-28T04:59:29.000Z</time>
      </trkpt>
      <trkpt lat="42.75525" lon="1.50279">
        <ele>1139</ele>
        <time>2026-06-28T04:59:30.000Z</time>
      </trkpt>
      <trkpt lat="42.75527" lon="1.50281">
        <ele>1139</ele>
        <time>2026-06-28T04:59:31.000Z</time>
      </trkpt>
      <trkpt lat="42.75529" lon="1.50281">
        <ele>1139</ele>
        <time>2026-06-28T04:59:32.000Z</time>
      </trkpt>
      <trkpt lat="42.75532" lon="1.50282">
        <ele>1139</ele>
        <time>2026-06-28T04:59:33.000Z</time>
      </trkpt>
      <trkpt lat="42.75534" lon="1.50283">
        <ele>1139</ele>
        <time>2026-06-28T04:59:34.000Z</time>
      </trkpt>
      <trkpt lat="42.75536" lon="1.50285">
        <ele>1139</ele>
        <time>2026-06-28T04:59:35.000Z</time>
      </trkpt>
      <trkpt lat="42.75539" lon="1.50286">
        <ele>1139</ele>
        <time>2026-06-28T04:59:36.000Z</time>
      </trkpt>
      <trkpt lat="42.75541" lon="1.50287">
        <ele>1139</ele>
        <time>2026-06-28T04:59:37.000Z</time>
      </trkpt>
      <trkpt lat="42.75543" lon="1.50288">
        <ele>1140</ele>
        <time>2026-06-28T04:59:38.000Z</time>
      </trkpt>
      <trkpt lat="42.75546" lon="1.50288">
        <ele>1140</ele>
        <time>2026-06-28T04:59:39.000Z</time>
      </trkpt>
      <trkpt lat="42.75547" lon="1.50289">
        <ele>1140</ele>
        <time>2026-06-28T04:59:40.000Z</time>
      </trkpt>
      <trkpt lat="42.75548" lon="1.50289">
        <ele>1140</ele>
        <time>2026-06-28T04:59:41.000Z</time>
      </trkpt>
      <trkpt lat="42.7555" lon="1.5029">
        <ele>1141</ele>
        <time>2026-06-28T04:59:42.000Z</time>
      </trkpt>
      <trkpt lat="42.7555" lon="1.50292">
        <ele>1141</ele>
        <time>2026-06-28T04:59:43.000Z</time>
      </trkpt>
      <trkpt lat="42.7555" lon="1.50294">
        <ele>1142</ele>
        <time>2026-06-28T04:59:44.000Z</time>
      </trkpt>
      <trkpt lat="42.7555" lon="1.50297">
        <ele>1143</ele>
        <time>2026-06-28T04:59:45.000Z</time>
      </trkpt>
      <trkpt lat="42.75549" lon="1.50299">
        <ele>1144</ele>
        <time>2026-06-28T04:59:46.000Z</time>
      </trkpt>
      <trkpt lat="42.75549" lon="1.50301">
        <ele>1145</ele>
        <time>2026-06-28T04:59:47.000Z</time>
      </trkpt>
      <trkpt lat="42.75548" lon="1.50304">
        <ele>1146</ele>
        <time>2026-06-28T04:59:48.000Z</time>
      </trkpt>
      <trkpt lat="42.75547" lon="1.50306">
        <ele>1146</ele>
        <time>2026-06-28T04:59:49.000Z</time>
      </trkpt>
      <trkpt lat="42.75547" lon="1.50309">
        <ele>1146</ele>
        <time>2026-06-28T04:59:50.000Z</time>
      </trkpt>
      <trkpt lat="42.75546" lon="1.50312">
        <ele>1146</ele>
        <time>2026-06-28T04:59:51.000Z</time>
      </trkpt>
      <trkpt lat="42.75546" lon="1.50315">
        <ele>1145</ele>
        <time>2026-06-28T04:59:52.000Z</time>
      </trkpt>
      <trkpt lat="42.75546" lon="1.50317">
        <ele>1145</ele>
        <time>2026-06-28T04:59:53.000Z</time>
      </trkpt>
      <trkpt lat="42.75545" lon="1.5032">
        <ele>1146</ele>
        <time>2026-06-28T04:59:54.000Z</time>
      </trkpt>
      <trkpt lat="42.75544" lon="1.50322">
        <ele>1146</ele>
        <time>2026-06-28T04:59:55.000Z</time>
      </trkpt>
      <trkpt lat="42.75544" lon="1.50325">
        <ele>1146</ele>
        <time>2026-06-28T04:59:56.000Z</time>
      </trkpt>
      <trkpt lat="42.75543" lon="1.50328">
        <ele>1146</ele>
        <time>2026-06-28T04:59:57.000Z</time>
      </trkpt>
      <trkpt lat="42.75543" lon="1.50331">
        <ele>1146</ele>
        <time>2026-06-28T04:59:58.000Z</time>
      </trkpt>
      <trkpt lat="42.75543" lon="1.50334">
        <ele>1146</ele>
        <time>2026-06-28T04:59:59.000Z</time>
      </trkpt>
      <trkpt lat="42.75543" lon="1.50336">
        <ele>1146</ele>
        <time>2026-06-28T05:00:00.000Z</time>
      </trkpt>
      <trkpt lat="42.75542" lon="1.50339">
        <ele>1146</ele>
        <time>2026-06-28T05:00:01.000Z</time>
      </trkpt>
      <trkpt lat="42.75543" lon="1.50342">
        <ele>1146</ele>
        <time>2026-06-28T05:00:02.000Z</time>
      </trkpt>
      <trkpt lat="42.75542" lon="1.50344">
        <ele>1147</ele>
        <time>2026-06-28T05:00:03.000Z</time>
      </trkpt>
      <trkpt lat="42.75541" lon="1.50345">
        <ele>1147</ele>
        <time>2026-06-28T05:00:04.000Z</time>
      </trkpt>
      <trkpt lat="42.7554" lon="1.50346">
        <ele>1147</ele>
        <time>2026-06-28T05:00:05.000Z</time>
      </trkpt>
      <trkpt lat="42.75539" lon="1.50346">
        <ele>1147</ele>
        <time>2026-06-28T05:00:06.000Z</time>
      </trkpt>
      <trkpt lat="42.75536" lon="1.50346">
        <ele>1147</ele>
        <time>2026-06-28T05:00:07.000Z</time>
      </trkpt>
      <trkpt lat="42.75534" lon="1.50345">
        <ele>1147</ele>
        <time>2026-06-28T05:00:08.000Z</time>
      </trkpt>
      <trkpt lat="42.75531" lon="1.50346">
        <ele>1148</ele>
        <time>2026-06-28T05:00:09.000Z</time>
      </trkpt>
      <trkpt lat="42.75529" lon="1.50346">
        <ele>1148</ele>
        <time>2026-06-28T05:00:10.000Z</time>
      </trkpt>
      <trkpt lat="42.75527" lon="1.50345">
        <ele>1149</ele>
        <time>2026-06-28T05:00:11.000Z</time>
      </trkpt>
      <trkpt lat="42.75525" lon="1.50345">
        <ele>1150</ele>
        <time>2026-06-28T05:00:12.000Z</time>
      </trkpt>
      <trkpt lat="42.75523" lon="1.50344">
        <ele>1151</ele>
        <time>2026-06-28T05:00:13.000Z</time>
      </trkpt>
      <trkpt lat="42.75521" lon="1.50344">
        <ele>1151</ele>
        <time>2026-06-28T05:00:14.000Z</time>
      </trkpt>
      <trkpt lat="42.75518" lon="1.50343">
        <ele>1151</ele>
        <time>2026-06-28T05:00:15.000Z</time>
      </trkpt>
      <trkpt lat="42.75515" lon="1.50342">
        <ele>1150</ele>
        <time>2026-06-28T05:00:16.000Z</time>
      </trkpt>
      <trkpt lat="42.75513" lon="1.50342">
        <ele>1150</ele>
        <time>2026-06-28T05:00:17.000Z</time>
      </trkpt>
      <trkpt lat="42.7551" lon="1.50342">
        <ele>1150</ele>
        <time>2026-06-28T05:00:18.000Z</time>
      </trkpt>
      <trkpt lat="42.75508" lon="1.50343">
        <ele>1151</ele>
        <time>2026-06-28T05:00:19.000Z</time>
      </trkpt>
      <trkpt lat="42.75506" lon="1.50344">
        <ele>1150</ele>
        <time>2026-06-28T05:00:20.000Z</time>
      </trkpt>
      <trkpt lat="42.75503" lon="1.50344">
        <ele>1150</ele>
        <time>2026-06-28T05:00:21.000Z</time>
      </trkpt>
      <trkpt lat="42.75501" lon="1.50344">
        <ele>1150</ele>
        <time>2026-06-28T05:00:22.000Z</time>
      </trkpt>
      <trkpt lat="42.75498" lon="1.50343">
        <ele>1151</ele>
        <time>2026-06-28T05:00:23.000Z</time>
      </trkpt>
      <trkpt lat="42.75497" lon="1.50342">
        <ele>1150</ele>
        <time>2026-06-28T05:00:24.000Z</time>
      </trkpt>
      <trkpt lat="42.75494" lon="1.50341">
        <ele>1151</ele>
        <time>2026-06-28T05:00:25.000Z</time>
      </trkpt>
      <trkpt lat="42.75492" lon="1.5034">
        <ele>1151</ele>
        <time>2026-06-28T05:00:26.000Z</time>
      </trkpt>
      <trkpt lat="42.75489" lon="1.50338">
        <ele>1151</ele>
        <time>2026-06-28T05:00:27.000Z</time>
      </trkpt>
      <trkpt lat="42.75487" lon="1.50338">
        <ele>1151</ele>
        <time>2026-06-28T05:00:28.000Z</time>
      </trkpt>
      <trkpt lat="42.75484" lon="1.50338">
        <ele>1150</ele>
        <time>2026-06-28T05:00:29.000Z</time>
      </trkpt>
      <trkpt lat="42.75482" lon="1.50339">
        <ele>1151</ele>
        <time>2026-06-28T05:00:30.000Z</time>
      </trkpt>
      <trkpt lat="42.7548" lon="1.50339">
        <ele>1151</ele>
        <time>2026-06-28T05:00:31.000Z</time>
      </trkpt>
      <trkpt lat="42.75477" lon="1.50339">
        <ele>1151</ele>
        <time>2026-06-28T05:00:32.000Z</time>
      </trkpt>
      <trkpt lat="42.75475" lon="1.50339">
        <ele>1151</ele>
        <time>2026-06-28T05:00:33.000Z</time>
      </trkpt>
      <trkpt lat="42.75472" lon="1.50339">
        <ele>1151</ele>
        <time>2026-06-28T05:00:34.000Z</time>
      </trkpt>
      <trkpt lat="42.75469" lon="1.50338">
        <ele>1151</ele>
        <time>2026-06-28T05:00:35.000Z</time>
      </trkpt>
      <trkpt lat="42.75467" lon="1.50338">
        <ele>1151</ele>
        <time>2026-06-28T05:00:36.000Z</time>
      </trkpt>
      <trkpt lat="42.75464" lon="1.50338">
        <ele>1151</ele>
        <time>2026-06-28T05:00:37.000Z</time>
      </trkpt>
      <trkpt lat="42.75462" lon="1.5034">
        <ele>1151</ele>
        <time>2026-06-28T05:00:38.000Z</time>
      </trkpt>
      <trkpt lat="42.75459" lon="1.50341">
        <ele>1152</ele>
        <time>2026-06-28T05:00:39.000Z</time>
      </trkpt>
      <trkpt lat="42.75456" lon="1.50342">
        <ele>1152</ele>
        <time>2026-06-28T05:00:40.000Z</time>
      </trkpt>
      <trkpt lat="42.75454" lon="1.50343">
        <ele>1153</ele>
        <time>2026-06-28T05:00:41.000Z</time>
      </trkpt>
      <trkpt lat="42.75451" lon="1.50343">
        <ele>1153</ele>
        <time>2026-06-28T05:00:42.000Z</time>
      </trkpt>
      <trkpt lat="42.75448" lon="1.50345">
        <ele>1154</ele>
        <time>2026-06-28T05:00:43.000Z</time>
      </trkpt>
      <trkpt lat="42.75445" lon="1.50346">
        <ele>1154</ele>
        <time>2026-06-28T05:00:44.000Z</time>
      </trkpt>
      <trkpt lat="42.75442" lon="1.50348">
        <ele>1154</ele>
        <time>2026-06-28T05:00:45.000Z</time>
      </trkpt>
      <trkpt lat="42.75439" lon="1.50348">
        <ele>1154</ele>
        <time>2026-06-28T05:00:46.000Z</time>
      </trkpt>
      <trkpt lat="42.75436" lon="1.50349">
        <ele>1154</ele>
        <time>2026-06-28T05:00:47.000Z</time>
      </trkpt>
      <trkpt lat="42.75433" lon="1.50349">
        <ele>1154</ele>
        <time>2026-06-28T05:00:48.000Z</time>
      </trkpt>
      <trkpt lat="42.75429" lon="1.5035">
        <ele>1154</ele>
        <time>2026-06-28T05:00:49.000Z</time>
      </trkpt>
      <trkpt lat="42.75426" lon="1.5035">
        <ele>1153</ele>
        <time>2026-06-28T05:00:50.000Z</time>
      </trkpt>
      <trkpt lat="42.75422" lon="1.50351">
        <ele>1153</ele>
        <time>2026-06-28T05:00:51.000Z</time>
      </trkpt>
      <trkpt lat="42.75418" lon="1.5035">
        <ele>1154</ele>
        <time>2026-06-28T05:00:52.000Z</time>
      </trkpt>
      <trkpt lat="42.75414" lon="1.50348">
        <ele>1156</ele>
        <time>2026-06-28T05:00:53.000Z</time>
      </trkpt>
      <trkpt lat="42.75411" lon="1.50346">
        <ele>1156</ele>
        <time>2026-06-28T05:00:54.000Z</time>
      </trkpt>
      <trkpt lat="42.75408" lon="1.50344">
        <ele>1157</ele>
        <time>2026-06-28T05:00:55.000Z</time>
      </trkpt>
      <trkpt lat="42.75406" lon="1.50342">
        <ele>1157</ele>
        <time>2026-06-28T05:00:56.000Z</time>
      </trkpt>
      <trkpt lat="42.75404" lon="1.50341">
        <ele>1157</ele>
        <time>2026-06-28T05:00:57.000Z</time>
      </trkpt>
      <trkpt lat="42.75401" lon="1.50341">
        <ele>1158</ele>
        <time>2026-06-28T05:00:58.000Z</time>
      </trkpt>
      <trkpt lat="42.75398" lon="1.5034">
        <ele>1159</ele>
        <time>2026-06-28T05:00:59.000Z</time>
      </trkpt>
      <trkpt lat="42.75396" lon="1.50339">
        <ele>1159</ele>
        <time>2026-06-28T05:01:00.000Z</time>
      </trkpt>
      <trkpt lat="42.75393" lon="1.50337">
        <ele>1159</ele>
        <time>2026-06-28T05:01:01.000Z</time>
      </trkpt>
      <trkpt lat="42.75391" lon="1.50336">
        <ele>1159</ele>
        <time>2026-06-28T05:01:02.000Z</time>
      </trkpt>
      <trkpt lat="42.75388" lon="1.50335">
        <ele>1159</ele>
        <time>2026-06-28T05:01:03.000Z</time>
      </trkpt>
      <trkpt lat="42.75385" lon="1.50335">
        <ele>1159</ele>
        <time>2026-06-28T05:01:04.000Z</time>
      </trkpt>
      <trkpt lat="42.75383" lon="1.50334">
        <ele>1159</ele>
        <time>2026-06-28T05:01:05.000Z</time>
      </trkpt>
      <trkpt lat="42.7538" lon="1.50333">
        <ele>1159</ele>
        <time>2026-06-28T05:01:06.000Z</time>
      </trkpt>
      <trkpt lat="42.75377" lon="1.50333">
        <ele>1159</ele>
        <time>2026-06-28T05:01:07.000Z</time>
      </trkpt>
      <trkpt lat="42.75375" lon="1.50334">
        <ele>1160</ele>
        <time>2026-06-28T05:01:08.000Z</time>
      </trkpt>
      <trkpt lat="42.75372" lon="1.50335">
        <ele>1161</ele>
        <time>2026-06-28T05:01:09.000Z</time>
      </trkpt>
      <trkpt lat="42.75368" lon="1.50335">
        <ele>1160</ele>
        <time>2026-06-28T05:01:10.000Z</time>
      </trkpt>
      <trkpt lat="42.75365" lon="1.50336">
        <ele>1161</ele>
        <time>2026-06-28T05:01:11.000Z</time>
      </trkpt>
      <trkpt lat="42.75363" lon="1.50336">
        <ele>1160</ele>
        <time>2026-06-28T05:01:12.000Z</time>
      </trkpt>
      <trkpt lat="42.7536" lon="1.50335">
        <ele>1161</ele>
        <time>2026-06-28T05:01:13.000Z</time>
      </trkpt>
      <trkpt lat="42.75358" lon="1.50335">
        <ele>1161</ele>
        <time>2026-06-28T05:01:14.000Z</time>
      </trkpt>
      <trkpt lat="42.75355" lon="1.50334">
        <ele>1161</ele>
        <time>2026-06-28T05:01:15.000Z</time>
      </trkpt>
      <trkpt lat="42.75352" lon="1.50334">
        <ele>1161</ele>
        <time>2026-06-28T05:01:16.000Z</time>
      </trkpt>
      <trkpt lat="42.75349" lon="1.50333">
        <ele>1161</ele>
        <time>2026-06-28T05:01:17.000Z</time>
      </trkpt>
      <trkpt lat="42.75346" lon="1.50332">
        <ele>1161</ele>
        <time>2026-06-28T05:01:18.000Z</time>
      </trkpt>
      <trkpt lat="42.75344" lon="1.50331">
        <ele>1161</ele>
        <time>2026-06-28T05:01:19.000Z</time>
      </trkpt>
      <trkpt lat="42.75341" lon="1.50331">
        <ele>1160</ele>
        <time>2026-06-28T05:01:20.000Z</time>
      </trkpt>
      <trkpt lat="42.75338" lon="1.5033">
        <ele>1160</ele>
        <time>2026-06-28T05:01:21.000Z</time>
      </trkpt>
      <trkpt lat="42.75336" lon="1.50329">
        <ele>1160</ele>
        <time>2026-06-28T05:01:22.000Z</time>
      </trkpt>
      <trkpt lat="42.75334" lon="1.50329">
        <ele>1161</ele>
        <time>2026-06-28T05:01:23.000Z</time>
      </trkpt>
      <trkpt lat="42.75331" lon="1.50329">
        <ele>1160</ele>
        <time>2026-06-28T05:01:24.000Z</time>
      </trkpt>
      <trkpt lat="42.75329" lon="1.50329">
        <ele>1160</ele>
        <time>2026-06-28T05:01:25.000Z</time>
      </trkpt>
      <trkpt lat="42.75327" lon="1.50328">
        <ele>1160</ele>
        <time>2026-06-28T05:01:26.000Z</time>
      </trkpt>
      <trkpt lat="42.75324" lon="1.50328">
        <ele>1161</ele>
        <time>2026-06-28T05:01:27.000Z</time>
      </trkpt>
      <trkpt lat="42.75322" lon="1.50327">
        <ele>1161</ele>
        <time>2026-06-28T05:01:28.000Z</time>
      </trkpt>
      <trkpt lat="42.75319" lon="1.50327">
        <ele>1161</ele>
        <time>2026-06-28T05:01:29.000Z</time>
      </trkpt>
      <trkpt lat="42.75317" lon="1.50326">
        <ele>1162</ele>
        <time>2026-06-28T05:01:30.000Z</time>
      </trkpt>
      <trkpt lat="42.75315" lon="1.50326">
        <ele>1162</ele>
        <time>2026-06-28T05:01:31.000Z</time>
      </trkpt>
      <trkpt lat="42.75312" lon="1.50326">
        <ele>1163</ele>
        <time>2026-06-28T05:01:32.000Z</time>
      </trkpt>
      <trkpt lat="42.7531" lon="1.50325">
        <ele>1162</ele>
        <time>2026-06-28T05:01:33.000Z</time>
      </trkpt>
      <trkpt lat="42.75308" lon="1.50325">
        <ele>1163</ele>
        <time>2026-06-28T05:01:34.000Z</time>
      </trkpt>
      <trkpt lat="42.75305" lon="1.50325">
        <ele>1163</ele>
        <time>2026-06-28T05:01:35.000Z</time>
      </trkpt>
      <trkpt lat="42.75303" lon="1.50324">
        <ele>1162</ele>
        <time>2026-06-28T05:01:36.000Z</time>
      </trkpt>
      <trkpt lat="42.753" lon="1.50323">
        <ele>1162</ele>
        <time>2026-06-28T05:01:37.000Z</time>
      </trkpt>
      <trkpt lat="42.75297" lon="1.50323">
        <ele>1162</ele>
        <time>2026-06-28T05:01:38.000Z</time>
      </trkpt>
      <trkpt lat="42.75294" lon="1.50323">
        <ele>1162</ele>
        <time>2026-06-28T05:01:39.000Z</time>
      </trkpt>
      <trkpt lat="42.75292" lon="1.50323">
        <ele>1161</ele>
        <time>2026-06-28T05:01:40.000Z</time>
      </trkpt>
      <trkpt lat="42.7529" lon="1.50322">
        <ele>1162</ele>
        <time>2026-06-28T05:01:41.000Z</time>
      </trkpt>
      <trkpt lat="42.75287" lon="1.50322">
        <ele>1162</ele>
        <time>2026-06-28T05:01:42.000Z</time>
      </trkpt>
      <trkpt lat="42.75284" lon="1.50321">
        <ele>1162</ele>
        <time>2026-06-28T05:01:43.000Z</time>
      </trkpt>
      <trkpt lat="42.75282" lon="1.50322">
        <ele>1162</ele>
        <time>2026-06-28T05:01:44.000Z</time>
      </trkpt>
      <trkpt lat="42.75279" lon="1.50322">
        <ele>1163</ele>
        <time>2026-06-28T05:01:45.000Z</time>
      </trkpt>
      <trkpt lat="42.75277" lon="1.50321">
        <ele>1163</ele>
        <time>2026-06-28T05:01:46.000Z</time>
      </trkpt>
      <trkpt lat="42.75275" lon="1.50321">
        <ele>1164</ele>
        <time>2026-06-28T05:01:47.000Z</time>
      </trkpt>
      <trkpt lat="42.75273" lon="1.50321">
        <ele>1164</ele>
        <time>2026-06-28T05:01:48.000Z</time>
      </trkpt>
      <trkpt lat="42.7527" lon="1.50322">
        <ele>1165</ele>
        <time>2026-06-28T05:01:49.000Z</time>
      </trkpt>
      <trkpt lat="42.75268" lon="1.50322">
        <ele>1165</ele>
        <time>2026-06-28T05:01:50.000Z</time>
      </trkpt>
      <trkpt lat="42.75266" lon="1.50322">
        <ele>1166</ele>
        <time>2026-06-28T05:01:51.000Z</time>
      </trkpt>
      <trkpt lat="42.75264" lon="1.50322">
        <ele>1166</ele>
        <time>2026-06-28T05:01:52.000Z</time>
      </trkpt>
      <trkpt lat="42.75262" lon="1.50322">
        <ele>1166</ele>
        <time>2026-06-28T05:01:53.000Z</time>
      </trkpt>
      <trkpt lat="42.7526" lon="1.50322">
        <ele>1166</ele>
        <time>2026-06-28T05:01:54.000Z</time>
      </trkpt>
      <trkpt lat="42.75257" lon="1.50322">
        <ele>1166</ele>
        <time>2026-06-28T05:01:55.000Z</time>
      </trkpt>
      <trkpt lat="42.75255" lon="1.50322">
        <ele>1166</ele>
        <time>2026-06-28T05:01:56.000Z</time>
      </trkpt>
      <trkpt lat="42.75253" lon="1.50322">
        <ele>1167</ele>
        <time>2026-06-28T05:01:57.000Z</time>
      </trkpt>
      <trkpt lat="42.75251" lon="1.50322">
        <ele>1167</ele>
        <time>2026-06-28T05:01:58.000Z</time>
      </trkpt>
      <trkpt lat="42.75249" lon="1.50322">
        <ele>1168</ele>
        <time>2026-06-28T05:01:59.000Z</time>
      </trkpt>
      <trkpt lat="42.75247" lon="1.50322">
        <ele>1168</ele>
        <time>2026-06-28T05:02:00.000Z</time>
      </trkpt>
      <trkpt lat="42.75245" lon="1.50323">
        <ele>1169</ele>
        <time>2026-06-28T05:02:01.000Z</time>
      </trkpt>
      <trkpt lat="42.75242" lon="1.50322">
        <ele>1169</ele>
        <time>2026-06-28T05:02:02.000Z</time>
      </trkpt>
      <trkpt lat="42.7524" lon="1.50322">
        <ele>1170</ele>
        <time>2026-06-28T05:02:03.000Z</time>
      </trkpt>
      <trkpt lat="42.75237" lon="1.50323">
        <ele>1170</ele>
        <time>2026-06-28T05:02:04.000Z</time>
      </trkpt>
      <trkpt lat="42.75235" lon="1.50324">
        <ele>1171</ele>
        <time>2026-06-28T05:02:05.000Z</time>
      </trkpt>
      <trkpt lat="42.75234" lon="1.50325">
        <ele>1171</ele>
        <time>2026-06-28T05:02:06.000Z</time>
      </trkpt>
      <trkpt lat="42.75231" lon="1.50326">
        <ele>1171</ele>
        <time>2026-06-28T05:02:07.000Z</time>
      </trkpt>
      <trkpt lat="42.75229" lon="1.50327">
        <ele>1171</ele>
        <time>2026-06-28T05:02:08.000Z</time>
      </trkpt>
      <trkpt lat="42.75227" lon="1.50329">
        <ele>1171</ele>
        <time>2026-06-28T05:02:09.000Z</time>
      </trkpt>
      <trkpt lat="42.75225" lon="1.50331">
        <ele>1172</ele>
        <time>2026-06-28T05:02:10.000Z</time>
      </trkpt>
      <trkpt lat="42.75222" lon="1.50332">
        <ele>1171</ele>
        <time>2026-06-28T05:02:11.000Z</time>
      </trkpt>
      <trkpt lat="42.7522" lon="1.50334">
        <ele>1171</ele>
        <time>2026-06-28T05:02:12.000Z</time>
      </trkpt>
      <trkpt lat="42.75219" lon="1.50335">
        <ele>1171</ele>
        <time>2026-06-28T05:02:13.000Z</time>
      </trkpt>
      <trkpt lat="42.75217" lon="1.50337">
        <ele>1171</ele>
        <time>2026-06-28T05:02:14.000Z</time>
      </trkpt>
      <trkpt lat="42.75215" lon="1.50338">
        <ele>1171</ele>
        <time>2026-06-28T05:02:15.000Z</time>
      </trkpt>
      <trkpt lat="42.75213" lon="1.50339">
        <ele>1171</ele>
        <time>2026-06-28T05:02:16.000Z</time>
      </trkpt>
      <trkpt lat="42.7521" lon="1.5034">
        <ele>1171</ele>
        <time>2026-06-28T05:02:17.000Z</time>
      </trkpt>
      <trkpt lat="42.75208" lon="1.5034">
        <ele>1171</ele>
        <time>2026-06-28T05:02:18.000Z</time>
      </trkpt>
      <trkpt lat="42.75206" lon="1.5034">
        <ele>1171</ele>
        <time>2026-06-28T05:02:19.000Z</time>
      </trkpt>
      <trkpt lat="42.75204" lon="1.50341">
        <ele>1171</ele>
        <time>2026-06-28T05:02:20.000Z</time>
      </trkpt>
      <trkpt lat="42.75202" lon="1.50342">
        <ele>1171</ele>
        <time>2026-06-28T05:02:21.000Z</time>
      </trkpt>
      <trkpt lat="42.752" lon="1.50342">
        <ele>1172</ele>
        <time>2026-06-28T05:02:22.000Z</time>
      </trkpt>
      <trkpt lat="42.75198" lon="1.50342">
        <ele>1172</ele>
        <time>2026-06-28T05:02:23.000Z</time>
      </trkpt>
      <trkpt lat="42.75196" lon="1.50343">
        <ele>1172</ele>
        <time>2026-06-28T05:02:24.000Z</time>
      </trkpt>
      <trkpt lat="42.75193" lon="1.50343">
        <ele>1173</ele>
        <time>2026-06-28T05:02:25.000Z</time>
      </trkpt>
      <trkpt lat="42.75191" lon="1.50343">
        <ele>1173</ele>
        <time>2026-06-28T05:02:26.000Z</time>
      </trkpt>
      <trkpt lat="42.75189" lon="1.50343">
        <ele>1174</ele>
        <time>2026-06-28T05:02:27.000Z</time>
      </trkpt>
      <trkpt lat="42.75187" lon="1.50344">
        <ele>1174</ele>
        <time>2026-06-28T05:02:28.000Z</time>
      </trkpt>
      <trkpt lat="42.75184" lon="1.50344">
        <ele>1174</ele>
        <time>2026-06-28T05:02:29.000Z</time>
      </trkpt>
      <trkpt lat="42.75182" lon="1.50345">
        <ele>1174</ele>
        <time>2026-06-28T05:02:30.000Z</time>
      </trkpt>
      <trkpt lat="42.7518" lon="1.50345">
        <ele>1174</ele>
        <time>2026-06-28T05:02:31.000Z</time>
      </trkpt>
      <trkpt lat="42.75177" lon="1.50346">
        <ele>1174</ele>
        <time>2026-06-28T05:02:32.000Z</time>
      </trkpt>
      <trkpt lat="42.75175" lon="1.50346">
        <ele>1175</ele>
        <time>2026-06-28T05:02:33.000Z</time>
      </trkpt>
      <trkpt lat="42.75173" lon="1.50347">
        <ele>1174</ele>
        <time>2026-06-28T05:02:34.000Z</time>
      </trkpt>
      <trkpt lat="42.75171" lon="1.50348">
        <ele>1174</ele>
        <time>2026-06-28T05:02:35.000Z</time>
      </trkpt>
      <trkpt lat="42.75169" lon="1.50348">
        <ele>1175</ele>
        <time>2026-06-28T05:02:36.000Z</time>
      </trkpt>
      <trkpt lat="42.75167" lon="1.50349">
        <ele>1175</ele>
        <time>2026-06-28T05:02:37.000Z</time>
      </trkpt>
      <trkpt lat="42.75164" lon="1.50349">
        <ele>1176</ele>
        <time>2026-06-28T05:02:38.000Z</time>
      </trkpt>
      <trkpt lat="42.75162" lon="1.5035">
        <ele>1176</ele>
        <time>2026-06-28T05:02:39.000Z</time>
      </trkpt>
      <trkpt lat="42.7516" lon="1.50349">
        <ele>1176</ele>
        <time>2026-06-28T05:02:40.000Z</time>
      </trkpt>
      <trkpt lat="42.75157" lon="1.5035">
        <ele>1177</ele>
        <time>2026-06-28T05:02:41.000Z</time>
      </trkpt>
      <trkpt lat="42.75155" lon="1.5035">
        <ele>1177</ele>
        <time>2026-06-28T05:02:42.000Z</time>
      </trkpt>
      <trkpt lat="42.75153" lon="1.50351">
        <ele>1177</ele>
        <time>2026-06-28T05:02:43.000Z</time>
      </trkpt>
      <trkpt lat="42.7515" lon="1.50352">
        <ele>1178</ele>
        <time>2026-06-28T05:02:44.000Z</time>
      </trkpt>
      <trkpt lat="42.75148" lon="1.50353">
        <ele>1178</ele>
        <time>2026-06-28T05:02:45.000Z</time>
      </trkpt>
      <trkpt lat="42.75146" lon="1.50354">
        <ele>1178</ele>
        <time>2026-06-28T05:02:46.000Z</time>
      </trkpt>
      <trkpt lat="42.75144" lon="1.50355">
        <ele>1179</ele>
        <time>2026-06-28T05:02:47.000Z</time>
      </trkpt>
      <trkpt lat="42.75143" lon="1.50356">
        <ele>1179</ele>
        <time>2026-06-28T05:02:48.000Z</time>
      </trkpt>
      <trkpt lat="42.7514" lon="1.50358">
        <ele>1179</ele>
        <time>2026-06-28T05:02:49.000Z</time>
      </trkpt>
      <trkpt lat="42.75138" lon="1.50359">
        <ele>1180</ele>
        <time>2026-06-28T05:02:50.000Z</time>
      </trkpt>
      <trkpt lat="42.75136" lon="1.5036">
        <ele>1181</ele>
        <time>2026-06-28T05:02:51.000Z</time>
      </trkpt>
      <trkpt lat="42.75135" lon="1.50361">
        <ele>1181</ele>
        <time>2026-06-28T05:02:52.000Z</time>
      </trkpt>
      <trkpt lat="42.75133" lon="1.50362">
        <ele>1182</ele>
        <time>2026-06-28T05:02:53.000Z</time>
      </trkpt>
      <trkpt lat="42.75132" lon="1.50363">
        <ele>1182</ele>
        <time>2026-06-28T05:02:54.000Z</time>
      </trkpt>
      <trkpt lat="42.75131" lon="1.50364">
        <ele>1182</ele>
        <time>2026-06-28T05:02:55.000Z</time>
      </trkpt>
      <trkpt lat="42.7513" lon="1.50366">
        <ele>1183</ele>
        <time>2026-06-28T05:02:56.000Z</time>
      </trkpt>
      <trkpt lat="42.75128" lon="1.50366">
        <ele>1183</ele>
        <time>2026-06-28T05:02:57.000Z</time>
      </trkpt>
      <trkpt lat="42.75128" lon="1.50368">
        <ele>1184</ele>
        <time>2026-06-28T05:02:58.000Z</time>
      </trkpt>
      <trkpt lat="42.75127" lon="1.5037">
        <ele>1184</ele>
        <time>2026-06-28T05:02:59.000Z</time>
      </trkpt>
      <trkpt lat="42.75126" lon="1.50371">
        <ele>1183</ele>
        <time>2026-06-28T05:03:00.000Z</time>
      </trkpt>
      <trkpt lat="42.75125" lon="1.50373">
        <ele>1183</ele>
        <time>2026-06-28T05:03:01.000Z</time>
      </trkpt>
      <trkpt lat="42.75124" lon="1.50374">
        <ele>1182</ele>
        <time>2026-06-28T05:03:02.000Z</time>
      </trkpt>
      <trkpt lat="42.75123" lon="1.50376">
        <ele>1182</ele>
        <time>2026-06-28T05:03:03.000Z</time>
      </trkpt>
      <trkpt lat="42.75122" lon="1.50377">
        <ele>1183</ele>
        <time>2026-06-28T05:03:04.000Z</time>
      </trkpt>
      <trkpt lat="42.75121" lon="1.50378">
        <ele>1183</ele>
        <time>2026-06-28T05:03:05.000Z</time>
      </trkpt>
      <trkpt lat="42.75121" lon="1.50379">
        <ele>1183</ele>
        <time>2026-06-28T05:03:06.000Z</time>
      </trkpt>
      <trkpt lat="42.7512" lon="1.50381">
        <ele>1184</ele>
        <time>2026-06-28T05:03:07.000Z</time>
      </trkpt>
      <trkpt lat="42.7512" lon="1.50383">
        <ele>1184</ele>
        <time>2026-06-28T05:03:08.000Z</time>
      </trkpt>
      <trkpt lat="42.7512" lon="1.50385">
        <ele>1184</ele>
        <time>2026-06-28T05:03:09.000Z</time>
      </trkpt>
      <trkpt lat="42.75119" lon="1.50386">
        <ele>1184</ele>
        <time>2026-06-28T05:03:10.000Z</time>
      </trkpt>
      <trkpt lat="42.75119" lon="1.50387">
        <ele>1183</ele>
        <time>2026-06-28T05:03:11.000Z</time>
      </trkpt>
      <trkpt lat="42.75117" lon="1.50388">
        <ele>1183</ele>
        <time>2026-06-28T05:03:12.000Z</time>
      </trkpt>
      <trkpt lat="42.75116" lon="1.5039">
        <ele>1183</ele>
        <time>2026-06-28T05:03:13.000Z</time>
      </trkpt>
      <trkpt lat="42.75115" lon="1.50393">
        <ele>1184</ele>
        <time>2026-06-28T05:03:14.000Z</time>
      </trkpt>
      <trkpt lat="42.75114" lon="1.50394">
        <ele>1185</ele>
        <time>2026-06-28T05:03:15.000Z</time>
      </trkpt>
      <trkpt lat="42.75113" lon="1.50397">
        <ele>1185</ele>
        <time>2026-06-28T05:03:16.000Z</time>
      </trkpt>
      <trkpt lat="42.75112" lon="1.50399">
        <ele>1185</ele>
        <time>2026-06-28T05:03:17.000Z</time>
      </trkpt>
      <trkpt lat="42.75111" lon="1.50401">
        <ele>1186</ele>
        <time>2026-06-28T05:03:18.000Z</time>
      </trkpt>
      <trkpt lat="42.7511" lon="1.50403">
        <ele>1186</ele>
        <time>2026-06-28T05:03:19.000Z</time>
      </trkpt>
      <trkpt lat="42.75108" lon="1.50405">
        <ele>1186</ele>
        <time>2026-06-28T05:03:20.000Z</time>
      </trkpt>
      <trkpt lat="42.75108" lon="1.50407">
        <ele>1186</ele>
        <time>2026-06-28T05:03:21.000Z</time>
      </trkpt>
      <trkpt lat="42.75106" lon="1.50409">
        <ele>1186</ele>
        <time>2026-06-28T05:03:22.000Z</time>
      </trkpt>
      <trkpt lat="42.75105" lon="1.50411">
        <ele>1186</ele>
        <time>2026-06-28T05:03:23.000Z</time>
      </trkpt>
      <trkpt lat="42.75103" lon="1.50413">
        <ele>1186</ele>
        <time>2026-06-28T05:03:24.000Z</time>
      </trkpt>
      <trkpt lat="42.75103" lon="1.50415">
        <ele>1186</ele>
        <time>2026-06-28T05:03:25.000Z</time>
      </trkpt>
      <trkpt lat="42.75101" lon="1.50417">
        <ele>1186</ele>
        <time>2026-06-28T05:03:26.000Z</time>
      </trkpt>
      <trkpt lat="42.751" lon="1.50419">
        <ele>1186</ele>
        <time>2026-06-28T05:03:27.000Z</time>
      </trkpt>
      <trkpt lat="42.75097" lon="1.5042">
        <ele>1186</ele>
        <time>2026-06-28T05:03:28.000Z</time>
      </trkpt>
      <trkpt lat="42.75095" lon="1.50422">
        <ele>1187</ele>
        <time>2026-06-28T05:03:29.000Z</time>
      </trkpt>
      <trkpt lat="42.75093" lon="1.50423">
        <ele>1187</ele>
        <time>2026-06-28T05:03:30.000Z</time>
      </trkpt>
      <trkpt lat="42.75091" lon="1.50425">
        <ele>1188</ele>
        <time>2026-06-28T05:03:31.000Z</time>
      </trkpt>
      <trkpt lat="42.75089" lon="1.50426">
        <ele>1187</ele>
        <time>2026-06-28T05:03:32.000Z</time>
      </trkpt>
      <trkpt lat="42.75087" lon="1.50427">
        <ele>1188</ele>
        <time>2026-06-28T05:03:33.000Z</time>
      </trkpt>
      <trkpt lat="42.75086" lon="1.50428">
        <ele>1187</ele>
        <time>2026-06-28T05:03:34.000Z</time>
      </trkpt>
      <trkpt lat="42.75083" lon="1.50429">
        <ele>1187</ele>
        <time>2026-06-28T05:03:35.000Z</time>
      </trkpt>
      <trkpt lat="42.75081" lon="1.5043">
        <ele>1187</ele>
        <time>2026-06-28T05:03:36.000Z</time>
      </trkpt>
      <trkpt lat="42.7508" lon="1.50431">
        <ele>1187</ele>
        <time>2026-06-28T05:03:37.000Z</time>
      </trkpt>
      <trkpt lat="42.75077" lon="1.50432">
        <ele>1187</ele>
        <time>2026-06-28T05:03:38.000Z</time>
      </trkpt>
      <trkpt lat="42.75075" lon="1.50432">
        <ele>1187</ele>
        <time>2026-06-28T05:03:39.000Z</time>
      </trkpt>
      <trkpt lat="42.75073" lon="1.50432">
        <ele>1187</ele>
        <time>2026-06-28T05:03:40.000Z</time>
      </trkpt>
      <trkpt lat="42.75071" lon="1.50431">
        <ele>1188</ele>
        <time>2026-06-28T05:03:41.000Z</time>
      </trkpt>
      <trkpt lat="42.75069" lon="1.50432">
        <ele>1188</ele>
        <time>2026-06-28T05:03:42.000Z</time>
      </trkpt>
      <trkpt lat="42.75067" lon="1.50433">
        <ele>1188</ele>
        <time>2026-06-28T05:03:43.000Z</time>
      </trkpt>
      <trkpt lat="42.75065" lon="1.50433">
        <ele>1188</ele>
        <time>2026-06-28T05:03:44.000Z</time>
      </trkpt>
      <trkpt lat="42.75063" lon="1.50433">
        <ele>1188</ele>
        <time>2026-06-28T05:03:45.000Z</time>
      </trkpt>
      <trkpt lat="42.75061" lon="1.50433">
        <ele>1189</ele>
        <time>2026-06-28T05:03:46.000Z</time>
      </trkpt>
      <trkpt lat="42.75059" lon="1.50433">
        <ele>1189</ele>
        <time>2026-06-28T05:03:47.000Z</time>
      </trkpt>
      <trkpt lat="42.75057" lon="1.50433">
        <ele>1190</ele>
        <time>2026-06-28T05:03:48.000Z</time>
      </trkpt>
      <trkpt lat="42.75055" lon="1.50433">
        <ele>1190</ele>
        <time>2026-06-28T05:03:49.000Z</time>
      </trkpt>
      <trkpt lat="42.75052" lon="1.50433">
        <ele>1190</ele>
        <time>2026-06-28T05:03:50.000Z</time>
      </trkpt>
      <trkpt lat="42.7505" lon="1.50432">
        <ele>1190</ele>
        <time>2026-06-28T05:03:51.000Z</time>
      </trkpt>
      <trkpt lat="42.75048" lon="1.50433">
        <ele>1191</ele>
        <time>2026-06-28T05:03:52.000Z</time>
      </trkpt>
      <trkpt lat="42.75045" lon="1.50433">
        <ele>1191</ele>
        <time>2026-06-28T05:03:53.000Z</time>
      </trkpt>
      <trkpt lat="42.75043" lon="1.50433">
        <ele>1191</ele>
        <time>2026-06-28T05:03:54.000Z</time>
      </trkpt>
      <trkpt lat="42.75041" lon="1.50433">
        <ele>1191</ele>
        <time>2026-06-28T05:03:55.000Z</time>
      </trkpt>
      <trkpt lat="42.75039" lon="1.50434">
        <ele>1191</ele>
        <time>2026-06-28T05:03:56.000Z</time>
      </trkpt>
      <trkpt lat="42.75037" lon="1.50435">
        <ele>1192</ele>
        <time>2026-06-28T05:03:57.000Z</time>
      </trkpt>
      <trkpt lat="42.75035" lon="1.50436">
        <ele>1192</ele>
        <time>2026-06-28T05:03:58.000Z</time>
      </trkpt>
      <trkpt lat="42.75033" lon="1.50436">
        <ele>1192</ele>
        <time>2026-06-28T05:03:59.000Z</time>
      </trkpt>
      <trkpt lat="42.75031" lon="1.50437">
        <ele>1192</ele>
        <time>2026-06-28T05:04:00.000Z</time>
      </trkpt>
      <trkpt lat="42.75029" lon="1.50437">
        <ele>1192</ele>
        <time>2026-06-28T05:04:01.000Z</time>
      </trkpt>
      <trkpt lat="42.75028" lon="1.50438">
        <ele>1192</ele>
        <time>2026-06-28T05:04:02.000Z</time>
      </trkpt>
      <trkpt lat="42.75026" lon="1.50439">
        <ele>1193</ele>
        <time>2026-06-28T05:04:03.000Z</time>
      </trkpt>
      <trkpt lat="42.75024" lon="1.5044">
        <ele>1193</ele>
        <time>2026-06-28T05:04:04.000Z</time>
      </trkpt>
      <trkpt lat="42.75022" lon="1.5044">
        <ele>1193</ele>
        <time>2026-06-28T05:04:05.000Z</time>
      </trkpt>
      <trkpt lat="42.75021" lon="1.50442">
        <ele>1194</ele>
        <time>2026-06-28T05:04:06.000Z</time>
      </trkpt>
      <trkpt lat="42.75019" lon="1.50444">
        <ele>1194</ele>
        <time>2026-06-28T05:04:07.000Z</time>
      </trkpt>
      <trkpt lat="42.75017" lon="1.50446">
        <ele>1195</ele>
        <time>2026-06-28T05:04:08.000Z</time>
      </trkpt>
      <trkpt lat="42.75016" lon="1.50448">
        <ele>1196</ele>
        <time>2026-06-28T05:04:09.000Z</time>
      </trkpt>
      <trkpt lat="42.75014" lon="1.5045">
        <ele>1196</ele>
        <time>2026-06-28T05:04:10.000Z</time>
      </trkpt>
      <trkpt lat="42.75013" lon="1.50452">
        <ele>1197</ele>
        <time>2026-06-28T05:04:11.000Z</time>
      </trkpt>
      <trkpt lat="42.75012" lon="1.50454">
        <ele>1198</ele>
        <time>2026-06-28T05:04:12.000Z</time>
      </trkpt>
      <trkpt lat="42.7501" lon="1.50455">
        <ele>1199</ele>
        <time>2026-06-28T05:04:13.000Z</time>
      </trkpt>
      <trkpt lat="42.7501" lon="1.50458">
        <ele>1199</ele>
        <time>2026-06-28T05:04:14.000Z</time>
      </trkpt>
      <trkpt lat="42.75008" lon="1.5046">
        <ele>1200</ele>
        <time>2026-06-28T05:04:15.000Z</time>
      </trkpt>
      <trkpt lat="42.75006" lon="1.50463">
        <ele>1200</ele>
        <time>2026-06-28T05:04:16.000Z</time>
      </trkpt>
      <trkpt lat="42.75004" lon="1.50465">
        <ele>1201</ele>
        <time>2026-06-28T05:04:17.000Z</time>
      </trkpt>
      <trkpt lat="42.75003" lon="1.50466">
        <ele>1201</ele>
        <time>2026-06-28T05:04:18.000Z</time>
      </trkpt>
      <trkpt lat="42.75001" lon="1.50466">
        <ele>1201</ele>
        <time>2026-06-28T05:04:19.000Z</time>
      </trkpt>
      <trkpt lat="42.74999" lon="1.50467">
        <ele>1201</ele>
        <time>2026-06-28T05:04:20.000Z</time>
      </trkpt>
      <trkpt lat="42.74998" lon="1.50466">
        <ele>1201</ele>
        <time>2026-06-28T05:04:21.000Z</time>
      </trkpt>
      <trkpt lat="42.74996" lon="1.50464">
        <ele>1201</ele>
        <time>2026-06-28T05:04:22.000Z</time>
      </trkpt>
      <trkpt lat="42.74994" lon="1.50462">
        <ele>1201</ele>
        <time>2026-06-28T05:04:23.000Z</time>
      </trkpt>
      <trkpt lat="42.74993" lon="1.5046">
        <ele>1201</ele>
        <time>2026-06-28T05:04:24.000Z</time>
      </trkpt>
      <trkpt lat="42.74992" lon="1.50458">
        <ele>1200</ele>
        <time>2026-06-28T05:04:25.000Z</time>
      </trkpt>
      <trkpt lat="42.74991" lon="1.50455">
        <ele>1200</ele>
        <time>2026-06-28T05:04:26.000Z</time>
      </trkpt>
      <trkpt lat="42.74991" lon="1.50453">
        <ele>1200</ele>
        <time>2026-06-28T05:04:27.000Z</time>
      </trkpt>
      <trkpt lat="42.74992" lon="1.50451">
        <ele>1199</ele>
        <time>2026-06-28T05:04:28.000Z</time>
      </trkpt>
      <trkpt lat="42.74991" lon="1.50449">
        <ele>1198</ele>
        <time>2026-06-28T05:04:29.000Z</time>
      </trkpt>
      <trkpt lat="42.74991" lon="1.50447">
        <ele>1198</ele>
        <time>2026-06-28T05:04:30.000Z</time>
      </trkpt>
      <trkpt lat="42.74992" lon="1.50444">
        <ele>1199</ele>
        <time>2026-06-28T05:04:31.000Z</time>
      </trkpt>
      <trkpt lat="42.74993" lon="1.50442">
        <ele>1199</ele>
        <time>2026-06-28T05:04:32.000Z</time>
      </trkpt>
      <trkpt lat="42.74994" lon="1.50438">
        <ele>1198</ele>
        <time>2026-06-28T05:04:33.000Z</time>
      </trkpt>
      <trkpt lat="42.74995" lon="1.50435">
        <ele>1199</ele>
        <time>2026-06-28T05:04:34.000Z</time>
      </trkpt>
      <trkpt lat="42.74996" lon="1.50432">
        <ele>1199</ele>
        <time>2026-06-28T05:04:35.000Z</time>
      </trkpt>
      <trkpt lat="42.74997" lon="1.50429">
        <ele>1200</ele>
        <time>2026-06-28T05:04:36.000Z</time>
      </trkpt>
      <trkpt lat="42.74997" lon="1.50427">
        <ele>1200</ele>
        <time>2026-06-28T05:04:37.000Z</time>
      </trkpt>
      <trkpt lat="42.74999" lon="1.50424">
        <ele>1200</ele>
        <time>2026-06-28T05:04:38.000Z</time>
      </trkpt>
      <trkpt lat="42.75" lon="1.50422">
        <ele>1200</ele>
        <time>2026-06-28T05:04:39.000Z</time>
      </trkpt>
      <trkpt lat="42.75" lon="1.50418">
        <ele>1200</ele>
        <time>2026-06-28T05:04:40.000Z</time>
      </trkpt>
      <trkpt lat="42.75001" lon="1.50416">
        <ele>1201</ele>
        <time>2026-06-28T05:04:41.000Z</time>
      </trkpt>
      <trkpt lat="42.75002" lon="1.50413">
        <ele>1201</ele>
        <time>2026-06-28T05:04:42.000Z</time>
      </trkpt>
      <trkpt lat="42.75002" lon="1.5041">
        <ele>1202</ele>
        <time>2026-06-28T05:04:43.000Z</time>
      </trkpt>
      <trkpt lat="42.75003" lon="1.50407">
        <ele>1202</ele>
        <time>2026-06-28T05:04:44.000Z</time>
      </trkpt>
      <trkpt lat="42.75002" lon="1.50405">
        <ele>1201</ele>
        <time>2026-06-28T05:04:45.000Z</time>
      </trkpt>
      <trkpt lat="42.75002" lon="1.50402">
        <ele>1202</ele>
        <time>2026-06-28T05:04:46.000Z</time>
      </trkpt>
      <trkpt lat="42.75002" lon="1.50399">
        <ele>1202</ele>
        <time>2026-06-28T05:04:47.000Z</time>
      </trkpt>
      <trkpt lat="42.75003" lon="1.50396">
        <ele>1202</ele>
        <time>2026-06-28T05:04:48.000Z</time>
      </trkpt>
      <trkpt lat="42.75002" lon="1.50393">
        <ele>1202</ele>
        <time>2026-06-28T05:04:49.000Z</time>
      </trkpt>
      <trkpt lat="42.75002" lon="1.5039">
        <ele>1202</ele>
        <time>2026-06-28T05:04:50.000Z</time>
      </trkpt>
      <trkpt lat="42.75001" lon="1.50387">
        <ele>1201</ele>
        <time>2026-06-28T05:04:51.000Z</time>
      </trkpt>
      <trkpt lat="42.75001" lon="1.50385">
        <ele>1202</ele>
        <time>2026-06-28T05:04:52.000Z</time>
      </trkpt>
      <trkpt lat="42.75" lon="1.50382">
        <ele>1201</ele>
        <time>2026-06-28T05:04:53.000Z</time>
      </trkpt>
      <trkpt lat="42.75" lon="1.50379">
        <ele>1201</ele>
        <time>2026-06-28T05:04:54.000Z</time>
      </trkpt>
      <trkpt lat="42.74999" lon="1.50376">
        <ele>1201</ele>
        <time>2026-06-28T05:04:55.000Z</time>
      </trkpt>
      <trkpt lat="42.74998" lon="1.50373">
        <ele>1201</ele>
        <time>2026-06-28T05:04:56.000Z</time>
      </trkpt>
      <trkpt lat="42.74997" lon="1.50371">
        <ele>1201</ele>
        <time>2026-06-28T05:04:57.000Z</time>
      </trkpt>
      <trkpt lat="42.74996" lon="1.50369">
        <ele>1201</ele>
        <time>2026-06-28T05:04:58.000Z</time>
      </trkpt>
      <trkpt lat="42.74995" lon="1.50366">
        <ele>1201</ele>
        <time>2026-06-28T05:04:59.000Z</time>
      </trkpt>
      <trkpt lat="42.74994" lon="1.50364">
        <ele>1201</ele>
        <time>2026-06-28T05:05:00.000Z</time>
      </trkpt>
      <trkpt lat="42.74993" lon="1.50362">
        <ele>1202</ele>
        <time>2026-06-28T05:05:01.000Z</time>
      </trkpt>
      <trkpt lat="42.74992" lon="1.5036">
        <ele>1203</ele>
        <time>2026-06-28T05:05:02.000Z</time>
      </trkpt>
      <trkpt lat="42.74991" lon="1.50358">
        <ele>1203</ele>
        <time>2026-06-28T05:05:03.000Z</time>
      </trkpt>
      <trkpt lat="42.74991" lon="1.50356">
        <ele>1203</ele>
        <time>2026-06-28T05:05:04.000Z</time>
      </trkpt>
      <trkpt lat="42.7499" lon="1.50354">
        <ele>1203</ele>
        <time>2026-06-28T05:05:05.000Z</time>
      </trkpt>
      <trkpt lat="42.74989" lon="1.50353">
        <ele>1202</ele>
        <time>2026-06-28T05:05:06.000Z</time>
      </trkpt>
      <trkpt lat="42.74987" lon="1.50351">
        <ele>1202</ele>
        <time>2026-06-28T05:05:07.000Z</time>
      </trkpt>
      <trkpt lat="42.74986" lon="1.50349">
        <ele>1202</ele>
        <time>2026-06-28T05:05:08.000Z</time>
      </trkpt>
      <trkpt lat="42.74984" lon="1.50347">
        <ele>1203</ele>
        <time>2026-06-28T05:05:09.000Z</time>
      </trkpt>
      <trkpt lat="42.74983" lon="1.50344">
        <ele>1203</ele>
        <time>2026-06-28T05:05:10.000Z</time>
      </trkpt>
      <trkpt lat="42.74982" lon="1.50342">
        <ele>1203</ele>
        <time>2026-06-28T05:05:11.000Z</time>
      </trkpt>
      <trkpt lat="42.74981" lon="1.5034">
        <ele>1203</ele>
        <time>2026-06-28T05:05:12.000Z</time>
      </trkpt>
      <trkpt lat="42.7498" lon="1.50338">
        <ele>1203</ele>
        <time>2026-06-28T05:05:13.000Z</time>
      </trkpt>
      <trkpt lat="42.74979" lon="1.50336">
        <ele>1204</ele>
        <time>2026-06-28T05:05:14.000Z</time>
      </trkpt>
      <trkpt lat="42.74977" lon="1.50334">
        <ele>1204</ele>
        <time>2026-06-28T05:05:15.000Z</time>
      </trkpt>
      <trkpt lat="42.74976" lon="1.50332">
        <ele>1205</ele>
        <time>2026-06-28T05:05:16.000Z</time>
      </trkpt>
      <trkpt lat="42.74976" lon="1.5033">
        <ele>1205</ele>
        <time>2026-06-28T05:05:17.000Z</time>
      </trkpt>
      <trkpt lat="42.74974" lon="1.50328">
        <ele>1205</ele>
        <time>2026-06-28T05:05:18.000Z</time>
      </trkpt>
      <trkpt lat="42.74973" lon="1.50326">
        <ele>1205</ele>
        <time>2026-06-28T05:05:19.000Z</time>
      </trkpt>
      <trkpt lat="42.74973" lon="1.50324">
        <ele>1205</ele>
        <time>2026-06-28T05:05:20.000Z</time>
      </trkpt>
      <trkpt lat="42.74972" lon="1.50322">
        <ele>1206</ele>
        <time>2026-06-28T05:05:21.000Z</time>
      </trkpt>
      <trkpt lat="42.74971" lon="1.50319">
        <ele>1205</ele>
        <time>2026-06-28T05:05:22.000Z</time>
      </trkpt>
      <trkpt lat="42.74971" lon="1.50317">
        <ele>1206</ele>
        <time>2026-06-28T05:05:23.000Z</time>
      </trkpt>
      <trkpt lat="42.7497" lon="1.50315">
        <ele>1206</ele>
        <time>2026-06-28T05:05:24.000Z</time>
      </trkpt>
      <trkpt lat="42.74969" lon="1.50313">
        <ele>1207</ele>
        <time>2026-06-28T05:05:25.000Z</time>
      </trkpt>
      <trkpt lat="42.74969" lon="1.5031">
        <ele>1207</ele>
        <time>2026-06-28T05:05:26.000Z</time>
      </trkpt>
      <trkpt lat="42.74968" lon="1.50308">
        <ele>1208</ele>
        <time>2026-06-28T05:05:27.000Z</time>
      </trkpt>
      <trkpt lat="42.74967" lon="1.50306">
        <ele>1207</ele>
        <time>2026-06-28T05:05:28.000Z</time>
      </trkpt>
      <trkpt lat="42.74966" lon="1.50305">
        <ele>1208</ele>
        <time>2026-06-28T05:05:29.000Z</time>
      </trkpt>
      <trkpt lat="42.74965" lon="1.50303">
        <ele>1208</ele>
        <time>2026-06-28T05:05:30.000Z</time>
      </trkpt>
      <trkpt lat="42.74964" lon="1.503">
        <ele>1209</ele>
        <time>2026-06-28T05:05:31.000Z</time>
      </trkpt>
      <trkpt lat="42.74964" lon="1.50299">
        <ele>1208</ele>
        <time>2026-06-28T05:05:32.000Z</time>
      </trkpt>
      <trkpt lat="42.74964" lon="1.50298">
        <ele>1209</ele>
        <time>2026-06-28T05:05:33.000Z</time>
      </trkpt>
      <trkpt lat="42.74963" lon="1.50295">
        <ele>1209</ele>
        <time>2026-06-28T05:05:34.000Z</time>
      </trkpt>
      <trkpt lat="42.74962" lon="1.50293">
        <ele>1209</ele>
        <time>2026-06-28T05:05:35.000Z</time>
      </trkpt>
      <trkpt lat="42.74962" lon="1.5029">
        <ele>1209</ele>
        <time>2026-06-28T05:05:36.000Z</time>
      </trkpt>
      <trkpt lat="42.74961" lon="1.50288">
        <ele>1210</ele>
        <time>2026-06-28T05:05:37.000Z</time>
      </trkpt>
      <trkpt lat="42.74961" lon="1.50286">
        <ele>1210</ele>
        <time>2026-06-28T05:05:38.000Z</time>
      </trkpt>
      <trkpt lat="42.7496" lon="1.50284">
        <ele>1210</ele>
        <time>2026-06-28T05:05:39.000Z</time>
      </trkpt>
      <trkpt lat="42.74961" lon="1.50281">
        <ele>1210</ele>
        <time>2026-06-28T05:05:40.000Z</time>
      </trkpt>
      <trkpt lat="42.7496" lon="1.50279">
        <ele>1211</ele>
        <time>2026-06-28T05:05:41.000Z</time>
      </trkpt>
      <trkpt lat="42.7496" lon="1.50277">
        <ele>1211</ele>
        <time>2026-06-28T05:05:42.000Z</time>
      </trkpt>
      <trkpt lat="42.74961" lon="1.50274">
        <ele>1211</ele>
        <time>2026-06-28T05:05:43.000Z</time>
      </trkpt>
      <trkpt lat="42.74961" lon="1.50272">
        <ele>1212</ele>
        <time>2026-06-28T05:05:44.000Z</time>
      </trkpt>
      <trkpt lat="42.74962" lon="1.5027">
        <ele>1212</ele>
        <time>2026-06-28T05:05:45.000Z</time>
      </trkpt>
      <trkpt lat="42.74963" lon="1.50268">
        <ele>1213</ele>
        <time>2026-06-28T05:05:46.000Z</time>
      </trkpt>
      <trkpt lat="42.74963" lon="1.50266">
        <ele>1213</ele>
        <time>2026-06-28T05:05:47.000Z</time>
      </trkpt>
      <trkpt lat="42.74964" lon="1.50264">
        <ele>1214</ele>
        <time>2026-06-28T05:05:48.000Z</time>
      </trkpt>
      <trkpt lat="42.74964" lon="1.50262">
        <ele>1214</ele>
        <time>2026-06-28T05:05:49.000Z</time>
      </trkpt>
      <trkpt lat="42.74965" lon="1.50259">
        <ele>1214</ele>
        <time>2026-06-28T05:05:50.000Z</time>
      </trkpt>
      <trkpt lat="42.74965" lon="1.50257">
        <ele>1215</ele>
        <time>2026-06-28T05:05:51.000Z</time>
      </trkpt>
      <trkpt lat="42.74965" lon="1.50254">
        <ele>1215</ele>
        <time>2026-06-28T05:05:52.000Z</time>
      </trkpt>
      <trkpt lat="42.74966" lon="1.50252">
        <ele>1216</ele>
        <time>2026-06-28T05:05:53.000Z</time>
      </trkpt>
      <trkpt lat="42.74967" lon="1.5025">
        <ele>1216</ele>
        <time>2026-06-28T05:05:54.000Z</time>
      </trkpt>
      <trkpt lat="42.74968" lon="1.50248">
        <ele>1217</ele>
        <time>2026-06-28T05:05:55.000Z</time>
      </trkpt>
      <trkpt lat="42.74969" lon="1.50247">
        <ele>1216</ele>
        <time>2026-06-28T05:05:56.000Z</time>
      </trkpt>
      <trkpt lat="42.7497" lon="1.50245">
        <ele>1217</ele>
        <time>2026-06-28T05:05:57.000Z</time>
      </trkpt>
      <trkpt lat="42.7497" lon="1.50243">
        <ele>1217</ele>
        <time>2026-06-28T05:05:58.000Z</time>
      </trkpt>
      <trkpt lat="42.74971" lon="1.50241">
        <ele>1218</ele>
        <time>2026-06-28T05:05:59.000Z</time>
      </trkpt>
      <trkpt lat="42.74972" lon="1.50238">
        <ele>1218</ele>
        <time>2026-06-28T05:06:00.000Z</time>
      </trkpt>
      <trkpt lat="42.74973" lon="1.50236">
        <ele>1218</ele>
        <time>2026-06-28T05:06:01.000Z</time>
      </trkpt>
      <trkpt lat="42.74974" lon="1.50234">
        <ele>1218</ele>
        <time>2026-06-28T05:06:02.000Z</time>
      </trkpt>
      <trkpt lat="42.74975" lon="1.50232">
        <ele>1218</ele>
        <time>2026-06-28T05:06:03.000Z</time>
      </trkpt>
      <trkpt lat="42.74975" lon="1.50229">
        <ele>1218</ele>
        <time>2026-06-28T05:06:04.000Z</time>
      </trkpt>
      <trkpt lat="42.74976" lon="1.50227">
        <ele>1218</ele>
        <time>2026-06-28T05:06:05.000Z</time>
      </trkpt>
      <trkpt lat="42.74977" lon="1.50225">
        <ele>1218</ele>
        <time>2026-06-28T05:06:06.000Z</time>
      </trkpt>
      <trkpt lat="42.74977" lon="1.50223">
        <ele>1218</ele>
        <time>2026-06-28T05:06:07.000Z</time>
      </trkpt>
      <trkpt lat="42.74978" lon="1.50221">
        <ele>1218</ele>
        <time>2026-06-28T05:06:08.000Z</time>
      </trkpt>
      <trkpt lat="42.74979" lon="1.50219">
        <ele>1219</ele>
        <time>2026-06-28T05:06:09.000Z</time>
      </trkpt>
      <trkpt lat="42.7498" lon="1.50217">
        <ele>1220</ele>
        <time>2026-06-28T05:06:10.000Z</time>
      </trkpt>
      <trkpt lat="42.7498" lon="1.50214">
        <ele>1220</ele>
        <time>2026-06-28T05:06:11.000Z</time>
      </trkpt>
      <trkpt lat="42.74981" lon="1.50213">
        <ele>1220</ele>
        <time>2026-06-28T05:06:12.000Z</time>
      </trkpt>
      <trkpt lat="42.74981" lon="1.5021">
        <ele>1220</ele>
        <time>2026-06-28T05:06:13.000Z</time>
      </trkpt>
      <trkpt lat="42.74982" lon="1.50208">
        <ele>1221</ele>
        <time>2026-06-28T05:06:14.000Z</time>
      </trkpt>
      <trkpt lat="42.74983" lon="1.50206">
        <ele>1221</ele>
        <time>2026-06-28T05:06:15.000Z</time>
      </trkpt>
      <trkpt lat="42.74984" lon="1.50204">
        <ele>1222</ele>
        <time>2026-06-28T05:06:16.000Z</time>
      </trkpt>
      <trkpt lat="42.74985" lon="1.50202">
        <ele>1222</ele>
        <time>2026-06-28T05:06:17.000Z</time>
      </trkpt>
      <trkpt lat="42.74986" lon="1.502">
        <ele>1222</ele>
        <time>2026-06-28T05:06:18.000Z</time>
      </trkpt>
      <trkpt lat="42.74987" lon="1.50198">
        <ele>1222</ele>
        <time>2026-06-28T05:06:19.000Z</time>
      </trkpt>
      <trkpt lat="42.74988" lon="1.50195">
        <ele>1222</ele>
        <time>2026-06-28T05:06:20.000Z</time>
      </trkpt>
      <trkpt lat="42.74989" lon="1.50193">
        <ele>1222</ele>
        <time>2026-06-28T05:06:21.000Z</time>
      </trkpt>
      <trkpt lat="42.74989" lon="1.50191">
        <ele>1221</ele>
        <time>2026-06-28T05:06:22.000Z</time>
      </trkpt>
      <trkpt lat="42.74989" lon="1.50189">
        <ele>1221</ele>
        <time>2026-06-28T05:06:23.000Z</time>
      </trkpt>
      <trkpt lat="42.7499" lon="1.50187">
        <ele>1222</ele>
        <time>2026-06-28T05:06:24.000Z</time>
      </trkpt>
      <trkpt lat="42.74991" lon="1.50184">
        <ele>1222</ele>
        <time>2026-06-28T05:06:25.000Z</time>
      </trkpt>
      <trkpt lat="42.74992" lon="1.50182">
        <ele>1221</ele>
        <time>2026-06-28T05:06:26.000Z</time>
      </trkpt>
      <trkpt lat="42.74993" lon="1.50179">
        <ele>1222</ele>
        <time>2026-06-28T05:06:27.000Z</time>
      </trkpt>
      <trkpt lat="42.74993" lon="1.50178">
        <ele>1223</ele>
        <time>2026-06-28T05:06:28.000Z</time>
      </trkpt>
      <trkpt lat="42.74994" lon="1.50175">
        <ele>1223</ele>
        <time>2026-06-28T05:06:29.000Z</time>
      </trkpt>
      <trkpt lat="42.74995" lon="1.50174">
        <ele>1223</ele>
        <time>2026-06-28T05:06:30.000Z</time>
      </trkpt>
      <trkpt lat="42.74996" lon="1.50172">
        <ele>1224</ele>
        <time>2026-06-28T05:06:31.000Z</time>
      </trkpt>
      <trkpt lat="42.74998" lon="1.5017">
        <ele>1225</ele>
        <time>2026-06-28T05:06:32.000Z</time>
      </trkpt>
      <trkpt lat="42.74999" lon="1.50167">
        <ele>1225</ele>
        <time>2026-06-28T05:06:33.000Z</time>
      </trkpt>
      <trkpt lat="42.75" lon="1.50165">
        <ele>1226</ele>
        <time>2026-06-28T05:06:34.000Z</time>
      </trkpt>
      <trkpt lat="42.75" lon="1.50164">
        <ele>1226</ele>
        <time>2026-06-28T05:06:35.000Z</time>
      </trkpt>
      <trkpt lat="42.75001" lon="1.50162">
        <ele>1227</ele>
        <time>2026-06-28T05:06:36.000Z</time>
      </trkpt>
      <trkpt lat="42.75002" lon="1.50161">
        <ele>1228</ele>
        <time>2026-06-28T05:06:37.000Z</time>
      </trkpt>
      <trkpt lat="42.75003" lon="1.50159">
        <ele>1227</ele>
        <time>2026-06-28T05:06:38.000Z</time>
      </trkpt>
      <trkpt lat="42.75005" lon="1.50156">
        <ele>1227</ele>
        <time>2026-06-28T05:06:39.000Z</time>
      </trkpt>
      <trkpt lat="42.75006" lon="1.50154">
        <ele>1228</ele>
        <time>2026-06-28T05:06:40.000Z</time>
      </trkpt>
      <trkpt lat="42.75007" lon="1.50152">
        <ele>1228</ele>
        <time>2026-06-28T05:06:41.000Z</time>
      </trkpt>
      <trkpt lat="42.75008" lon="1.5015">
        <ele>1228</ele>
        <time>2026-06-28T05:06:42.000Z</time>
      </trkpt>
      <trkpt lat="42.75009" lon="1.50149">
        <ele>1229</ele>
        <time>2026-06-28T05:06:43.000Z</time>
      </trkpt>
      <trkpt lat="42.75011" lon="1.50147">
        <ele>1228</ele>
        <time>2026-06-28T05:06:44.000Z</time>
      </trkpt>
      <trkpt lat="42.75012" lon="1.50145">
        <ele>1229</ele>
        <time>2026-06-28T05:06:45.000Z</time>
      </trkpt>
      <trkpt lat="42.75013" lon="1.50144">
        <ele>1229</ele>
        <time>2026-06-28T05:06:46.000Z</time>
      </trkpt>
      <trkpt lat="42.75014" lon="1.50143">
        <ele>1229</ele>
        <time>2026-06-28T05:06:47.000Z</time>
      </trkpt>
      <trkpt lat="42.75015" lon="1.50141">
        <ele>1230</ele>
        <time>2026-06-28T05:06:48.000Z</time>
      </trkpt>
      <trkpt lat="42.75017" lon="1.50139">
        <ele>1230</ele>
        <time>2026-06-28T05:06:49.000Z</time>
      </trkpt>
      <trkpt lat="42.75018" lon="1.50138">
        <ele>1231</ele>
        <time>2026-06-28T05:06:50.000Z</time>
      </trkpt>
      <trkpt lat="42.75019" lon="1.50136">
        <ele>1232</ele>
        <time>2026-06-28T05:06:51.000Z</time>
      </trkpt>
      <trkpt lat="42.7502" lon="1.50134">
        <ele>1232</ele>
        <time>2026-06-28T05:06:52.000Z</time>
      </trkpt>
      <trkpt lat="42.75021" lon="1.50132">
        <ele>1232</ele>
        <time>2026-06-28T05:06:53.000Z</time>
      </trkpt>
      <trkpt lat="42.75022" lon="1.5013">
        <ele>1232</ele>
        <time>2026-06-28T05:06:54.000Z</time>
      </trkpt>
      <trkpt lat="42.75023" lon="1.50128">
        <ele>1233</ele>
        <time>2026-06-28T05:06:55.000Z</time>
      </trkpt>
      <trkpt lat="42.75024" lon="1.50126">
        <ele>1234</ele>
        <time>2026-06-28T05:06:56.000Z</time>
      </trkpt>
      <trkpt lat="42.75025" lon="1.50125">
        <ele>1234</ele>
        <time>2026-06-28T05:06:57.000Z</time>
      </trkpt>
      <trkpt lat="42.75026" lon="1.50123">
        <ele>1234</ele>
        <time>2026-06-28T05:06:58.000Z</time>
      </trkpt>
      <trkpt lat="42.75028" lon="1.50121">
        <ele>1234</ele>
        <time>2026-06-28T05:06:59.000Z</time>
      </trkpt>
      <trkpt lat="42.75029" lon="1.50119">
        <ele>1235</ele>
        <time>2026-06-28T05:07:00.000Z</time>
      </trkpt>
      <trkpt lat="42.75029" lon="1.50117">
        <ele>1235</ele>
        <time>2026-06-28T05:07:01.000Z</time>
      </trkpt>
      <trkpt lat="42.75031" lon="1.50115">
        <ele>1235</ele>
        <time>2026-06-28T05:07:02.000Z</time>
      </trkpt>
      <trkpt lat="42.75032" lon="1.50112">
        <ele>1235</ele>
        <time>2026-06-28T05:07:03.000Z</time>
      </trkpt>
      <trkpt lat="42.75033" lon="1.5011">
        <ele>1236</ele>
        <time>2026-06-28T05:07:04.000Z</time>
      </trkpt>
      <trkpt lat="42.75034" lon="1.50108">
        <ele>1235</ele>
        <time>2026-06-28T05:07:05.000Z</time>
      </trkpt>
      <trkpt lat="42.75035" lon="1.50106">
        <ele>1235</ele>
        <time>2026-06-28T05:07:06.000Z</time>
      </trkpt>
      <trkpt lat="42.75036" lon="1.50104">
        <ele>1236</ele>
        <time>2026-06-28T05:07:07.000Z</time>
      </trkpt>
      <trkpt lat="42.75037" lon="1.50102">
        <ele>1236</ele>
        <time>2026-06-28T05:07:08.000Z</time>
      </trkpt>
      <trkpt lat="42.75037" lon="1.501">
        <ele>1236</ele>
        <time>2026-06-28T05:07:09.000Z</time>
      </trkpt>
      <trkpt lat="42.75038" lon="1.50098">
        <ele>1236</ele>
        <time>2026-06-28T05:07:10.000Z</time>
      </trkpt>
      <trkpt lat="42.75039" lon="1.50096">
        <ele>1236</ele>
        <time>2026-06-28T05:07:11.000Z</time>
      </trkpt>
      <trkpt lat="42.75039" lon="1.50094">
        <ele>1236</ele>
        <time>2026-06-28T05:07:12.000Z</time>
      </trkpt>
      <trkpt lat="42.7504" lon="1.50092">
        <ele>1237</ele>
        <time>2026-06-28T05:07:13.000Z</time>
      </trkpt>
      <trkpt lat="42.75041" lon="1.50089">
        <ele>1237</ele>
        <time>2026-06-28T05:07:14.000Z</time>
      </trkpt>
      <trkpt lat="42.75042" lon="1.50087">
        <ele>1236</ele>
        <time>2026-06-28T05:07:15.000Z</time>
      </trkpt>
      <trkpt lat="42.75043" lon="1.50084">
        <ele>1236</ele>
        <time>2026-06-28T05:07:16.000Z</time>
      </trkpt>
      <trkpt lat="42.75044" lon="1.50082">
        <ele>1236</ele>
        <time>2026-06-28T05:07:17.000Z</time>
      </trkpt>
      <trkpt lat="42.75045" lon="1.50081">
        <ele>1236</ele>
        <time>2026-06-28T05:07:18.000Z</time>
      </trkpt>
      <trkpt lat="42.75046" lon="1.50079">
        <ele>1237</ele>
        <time>2026-06-28T05:07:19.000Z</time>
      </trkpt>
      <trkpt lat="42.75046" lon="1.50077">
        <ele>1237</ele>
        <time>2026-06-28T05:07:20.000Z</time>
      </trkpt>
      <trkpt lat="42.75047" lon="1.50075">
        <ele>1237</ele>
        <time>2026-06-28T05:07:21.000Z</time>
      </trkpt>
      <trkpt lat="42.75048" lon="1.50072">
        <ele>1238</ele>
        <time>2026-06-28T05:07:22.000Z</time>
      </trkpt>
      <trkpt lat="42.7505" lon="1.5007">
        <ele>1238</ele>
        <time>2026-06-28T05:07:23.000Z</time>
      </trkpt>
      <trkpt lat="42.75051" lon="1.50068">
        <ele>1239</ele>
        <time>2026-06-28T05:07:24.000Z</time>
      </trkpt>
      <trkpt lat="42.75053" lon="1.50067">
        <ele>1240</ele>
        <time>2026-06-28T05:07:25.000Z</time>
      </trkpt>
      <trkpt lat="42.75054" lon="1.50066">
        <ele>1240</ele>
        <time>2026-06-28T05:07:26.000Z</time>
      </trkpt>
      <trkpt lat="42.75056" lon="1.50064">
        <ele>1241</ele>
        <time>2026-06-28T05:07:27.000Z</time>
      </trkpt>
      <trkpt lat="42.75057" lon="1.50063">
        <ele>1242</ele>
        <time>2026-06-28T05:07:28.000Z</time>
      </trkpt>
      <trkpt lat="42.75059" lon="1.50062">
        <ele>1243</ele>
        <time>2026-06-28T05:07:29.000Z</time>
      </trkpt>
      <trkpt lat="42.7506" lon="1.5006">
        <ele>1244</ele>
        <time>2026-06-28T05:07:30.000Z</time>
      </trkpt>
      <trkpt lat="42.75062" lon="1.50059">
        <ele>1244</ele>
        <time>2026-06-28T05:07:31.000Z</time>
      </trkpt>
      <trkpt lat="42.75063" lon="1.50058">
        <ele>1245</ele>
        <time>2026-06-28T05:07:32.000Z</time>
      </trkpt>
      <trkpt lat="42.75065" lon="1.50057">
        <ele>1245</ele>
        <time>2026-06-28T05:07:33.000Z</time>
      </trkpt>
      <trkpt lat="42.75067" lon="1.50055">
        <ele>1245</ele>
        <time>2026-06-28T05:07:34.000Z</time>
      </trkpt>
      <trkpt lat="42.75068" lon="1.50054">
        <ele>1245</ele>
        <time>2026-06-28T05:07:35.000Z</time>
      </trkpt>
      <trkpt lat="42.75069" lon="1.50053">
        <ele>1245</ele>
        <time>2026-06-28T05:07:36.000Z</time>
      </trkpt>
      <trkpt lat="42.75071" lon="1.50051">
        <ele>1245</ele>
        <time>2026-06-28T05:07:37.000Z</time>
      </trkpt>
      <trkpt lat="42.75072" lon="1.5005">
        <ele>1245</ele>
        <time>2026-06-28T05:07:38.000Z</time>
      </trkpt>
      <trkpt lat="42.75073" lon="1.50048">
        <ele>1245</ele>
        <time>2026-06-28T05:07:39.000Z</time>
      </trkpt>
      <trkpt lat="42.75074" lon="1.50047">
        <ele>1245</ele>
        <time>2026-06-28T05:07:40.000Z</time>
      </trkpt>
      <trkpt lat="42.75076" lon="1.50045">
        <ele>1245</ele>
        <time>2026-06-28T05:07:41.000Z</time>
      </trkpt>
      <trkpt lat="42.75077" lon="1.50044">
        <ele>1245</ele>
        <time>2026-06-28T05:07:42.000Z</time>
      </trkpt>
      <trkpt lat="42.75078" lon="1.50042">
        <ele>1246</ele>
        <time>2026-06-28T05:07:43.000Z</time>
      </trkpt>
      <trkpt lat="42.7508" lon="1.50041">
        <ele>1246</ele>
        <time>2026-06-28T05:07:44.000Z</time>
      </trkpt>
      <trkpt lat="42.75081" lon="1.5004">
        <ele>1246</ele>
        <time>2026-06-28T05:07:45.000Z</time>
      </trkpt>
      <trkpt lat="42.75083" lon="1.50038">
        <ele>1246</ele>
        <time>2026-06-28T05:07:46.000Z</time>
      </trkpt>
      <trkpt lat="42.75085" lon="1.50036">
        <ele>1246</ele>
        <time>2026-06-28T05:07:47.000Z</time>
      </trkpt>
      <trkpt lat="42.75086" lon="1.50035">
        <ele>1246</ele>
        <time>2026-06-28T05:07:48.000Z</time>
      </trkpt>
      <trkpt lat="42.75088" lon="1.50033">
        <ele>1245</ele>
        <time>2026-06-28T05:07:49.000Z</time>
      </trkpt>
      <trkpt lat="42.7509" lon="1.50032">
        <ele>1246</ele>
        <time>2026-06-28T05:07:50.000Z</time>
      </trkpt>
      <trkpt lat="42.75091" lon="1.5003">
        <ele>1246</ele>
        <time>2026-06-28T05:07:51.000Z</time>
      </trkpt>
      <trkpt lat="42.75093" lon="1.50029">
        <ele>1246</ele>
        <time>2026-06-28T05:07:52.000Z</time>
      </trkpt>
      <trkpt lat="42.75094" lon="1.50028">
        <ele>1246</ele>
        <time>2026-06-28T05:07:53.000Z</time>
      </trkpt>
      <trkpt lat="42.75096" lon="1.50028">
        <ele>1247</ele>
        <time>2026-06-28T05:07:54.000Z</time>
      </trkpt>
      <trkpt lat="42.75097" lon="1.50026">
        <ele>1248</ele>
        <time>2026-06-28T05:07:55.000Z</time>
      </trkpt>
      <trkpt lat="42.75098" lon="1.50025">
        <ele>1248</ele>
        <time>2026-06-28T05:07:56.000Z</time>
      </trkpt>
      <trkpt lat="42.751" lon="1.50023">
        <ele>1248</ele>
        <time>2026-06-28T05:07:57.000Z</time>
      </trkpt>
      <trkpt lat="42.75101" lon="1.50023">
        <ele>1249</ele>
        <time>2026-06-28T05:07:58.000Z</time>
      </trkpt>
      <trkpt lat="42.75103" lon="1.50021">
        <ele>1248</ele>
        <time>2026-06-28T05:07:59.000Z</time>
      </trkpt>
      <trkpt lat="42.75105" lon="1.5002">
        <ele>1248</ele>
        <time>2026-06-28T05:08:00.000Z</time>
      </trkpt>
      <trkpt lat="42.75106" lon="1.50019">
        <ele>1248</ele>
        <time>2026-06-28T05:08:01.000Z</time>
      </trkpt>
      <trkpt lat="42.75108" lon="1.50017">
        <ele>1249</ele>
        <time>2026-06-28T05:08:02.000Z</time>
      </trkpt>
      <trkpt lat="42.75109" lon="1.50015">
        <ele>1249</ele>
        <time>2026-06-28T05:08:03.000Z</time>
      </trkpt>
      <trkpt lat="42.75111" lon="1.50013">
        <ele>1249</ele>
        <time>2026-06-28T05:08:04.000Z</time>
      </trkpt>
      <trkpt lat="42.75112" lon="1.50011">
        <ele>1249</ele>
        <time>2026-06-28T05:08:05.000Z</time>
      </trkpt>
      <trkpt lat="42.75113" lon="1.5001">
        <ele>1249</ele>
        <time>2026-06-28T05:08:06.000Z</time>
      </trkpt>
      <trkpt lat="42.75115" lon="1.50009">
        <ele>1250</ele>
        <time>2026-06-28T05:08:07.000Z</time>
      </trkpt>
      <trkpt lat="42.75117" lon="1.50007">
        <ele>1250</ele>
        <time>2026-06-28T05:08:08.000Z</time>
      </trkpt>
      <trkpt lat="42.75118" lon="1.50006">
        <ele>1250</ele>
        <time>2026-06-28T05:08:09.000Z</time>
      </trkpt>
      <trkpt lat="42.75119" lon="1.50005">
        <ele>1250</ele>
        <time>2026-06-28T05:08:10.000Z</time>
      </trkpt>
      <trkpt lat="42.75121" lon="1.50004">
        <ele>1250</ele>
        <time>2026-06-28T05:08:11.000Z</time>
      </trkpt>
      <trkpt lat="42.75122" lon="1.50001">
        <ele>1250</ele>
        <time>2026-06-28T05:08:12.000Z</time>
      </trkpt>
      <trkpt lat="42.75123" lon="1.5">
        <ele>1250</ele>
        <time>2026-06-28T05:08:13.000Z</time>
      </trkpt>
      <trkpt lat="42.75124" lon="1.49998">
        <ele>1251</ele>
        <time>2026-06-28T05:08:14.000Z</time>
      </trkpt>
      <trkpt lat="42.75125" lon="1.49997">
        <ele>1251</ele>
        <time>2026-06-28T05:08:15.000Z</time>
      </trkpt>
      <trkpt lat="42.75127" lon="1.49996">
        <ele>1251</ele>
        <time>2026-06-28T05:08:16.000Z</time>
      </trkpt>
      <trkpt lat="42.75128" lon="1.49994">
        <ele>1251</ele>
        <time>2026-06-28T05:08:17.000Z</time>
      </trkpt>
      <trkpt lat="42.7513" lon="1.49992">
        <ele>1251</ele>
        <time>2026-06-28T05:08:18.000Z</time>
      </trkpt>
      <trkpt lat="42.75131" lon="1.4999">
        <ele>1250</ele>
        <time>2026-06-28T05:08:19.000Z</time>
      </trkpt>
      <trkpt lat="42.75132" lon="1.49989">
        <ele>1251</ele>
        <time>2026-06-28T05:08:20.000Z</time>
      </trkpt>
      <trkpt lat="42.75133" lon="1.49987">
        <ele>1251</ele>
        <time>2026-06-28T05:08:21.000Z</time>
      </trkpt>
      <trkpt lat="42.75135" lon="1.49986">
        <ele>1251</ele>
        <time>2026-06-28T05:08:22.000Z</time>
      </trkpt>
      <trkpt lat="42.75136" lon="1.49985">
        <ele>1251</ele>
        <time>2026-06-28T05:08:23.000Z</time>
      </trkpt>
      <trkpt lat="42.75138" lon="1.49983">
        <ele>1251</ele>
        <time>2026-06-28T05:08:24.000Z</time>
      </trkpt>
      <trkpt lat="42.75139" lon="1.49981">
        <ele>1252</ele>
        <time>2026-06-28T05:08:25.000Z</time>
      </trkpt>
      <trkpt lat="42.7514" lon="1.4998">
        <ele>1253</ele>
        <time>2026-06-28T05:08:26.000Z</time>
      </trkpt>
      <trkpt lat="42.75141" lon="1.49978">
        <ele>1253</ele>
        <time>2026-06-28T05:08:27.000Z</time>
      </trkpt>
      <trkpt lat="42.75143" lon="1.49976">
        <ele>1254</ele>
        <time>2026-06-28T05:08:28.000Z</time>
      </trkpt>
      <trkpt lat="42.75144" lon="1.49975">
        <ele>1254</ele>
        <time>2026-06-28T05:08:29.000Z</time>
      </trkpt>
      <trkpt lat="42.75145" lon="1.49974">
        <ele>1254</ele>
        <time>2026-06-28T05:08:30.000Z</time>
      </trkpt>
      <trkpt lat="42.75147" lon="1.49973">
        <ele>1254</ele>
        <time>2026-06-28T05:08:31.000Z</time>
      </trkpt>
      <trkpt lat="42.75148" lon="1.49971">
        <ele>1254</ele>
        <time>2026-06-28T05:08:32.000Z</time>
      </trkpt>
      <trkpt lat="42.75149" lon="1.49969">
        <ele>1255</ele>
        <time>2026-06-28T05:08:33.000Z</time>
      </trkpt>
      <trkpt lat="42.75151" lon="1.49968">
        <ele>1255</ele>
        <time>2026-06-28T05:08:34.000Z</time>
      </trkpt>
      <trkpt lat="42.75152" lon="1.49965">
        <ele>1255</ele>
        <time>2026-06-28T05:08:35.000Z</time>
      </trkpt>
      <trkpt lat="42.75153" lon="1.49964">
        <ele>1255</ele>
        <time>2026-06-28T05:08:36.000Z</time>
      </trkpt>
      <trkpt lat="42.75154" lon="1.49961">
        <ele>1256</ele>
        <time>2026-06-28T05:08:37.000Z</time>
      </trkpt>
      <trkpt lat="42.75156" lon="1.49959">
        <ele>1256</ele>
        <time>2026-06-28T05:08:38.000Z</time>
      </trkpt>
      <trkpt lat="42.75157" lon="1.49957">
        <ele>1256</ele>
        <time>2026-06-28T05:08:39.000Z</time>
      </trkpt>
      <trkpt lat="42.75158" lon="1.49955">
        <ele>1256</ele>
        <time>2026-06-28T05:08:40.000Z</time>
      </trkpt>
      <trkpt lat="42.75159" lon="1.49953">
        <ele>1256</ele>
        <time>2026-06-28T05:08:41.000Z</time>
      </trkpt>
      <trkpt lat="42.7516" lon="1.4995">
        <ele>1255</ele>
        <time>2026-06-28T05:08:42.000Z</time>
      </trkpt>
      <trkpt lat="42.75161" lon="1.49948">
        <ele>1255</ele>
        <time>2026-06-28T05:08:43.000Z</time>
      </trkpt>
      <trkpt lat="42.75162" lon="1.49946">
        <ele>1256</ele>
        <time>2026-06-28T05:08:44.000Z</time>
      </trkpt>
      <trkpt lat="42.75163" lon="1.49944">
        <ele>1256</ele>
        <time>2026-06-28T05:08:45.000Z</time>
      </trkpt>
      <trkpt lat="42.75164" lon="1.49942">
        <ele>1257</ele>
        <time>2026-06-28T05:08:46.000Z</time>
      </trkpt>
      <trkpt lat="42.75165" lon="1.4994">
        <ele>1257</ele>
        <time>2026-06-28T05:08:47.000Z</time>
      </trkpt>
      <trkpt lat="42.75166" lon="1.49938">
        <ele>1257</ele>
        <time>2026-06-28T05:08:48.000Z</time>
      </trkpt>
      <trkpt lat="42.75167" lon="1.49937">
        <ele>1258</ele>
        <time>2026-06-28T05:08:49.000Z</time>
      </trkpt>
      <trkpt lat="42.75168" lon="1.49935">
        <ele>1258</ele>
        <time>2026-06-28T05:08:50.000Z</time>
      </trkpt>
      <trkpt lat="42.75169" lon="1.49933">
        <ele>1259</ele>
        <time>2026-06-28T05:08:51.000Z</time>
      </trkpt>
      <trkpt lat="42.7517" lon="1.49931">
        <ele>1259</ele>
        <time>2026-06-28T05:08:52.000Z</time>
      </trkpt>
      <trkpt lat="42.75171" lon="1.49929">
        <ele>1260</ele>
        <time>2026-06-28T05:08:53.000Z</time>
      </trkpt>
      <trkpt lat="42.75171" lon="1.49927">
        <ele>1260</ele>
        <time>2026-06-28T05:08:54.000Z</time>
      </trkpt>
      <trkpt lat="42.75173" lon="1.49926">
        <ele>1260</ele>
        <time>2026-06-28T05:08:55.000Z</time>
      </trkpt>
      <trkpt lat="42.75174" lon="1.49924">
        <ele>1261</ele>
        <time>2026-06-28T05:08:56.000Z</time>
      </trkpt>
      <trkpt lat="42.75175" lon="1.49921">
        <ele>1261</ele>
        <time>2026-06-28T05:08:57.000Z</time>
      </trkpt>
      <trkpt lat="42.75176" lon="1.49919">
        <ele>1261</ele>
        <time>2026-06-28T05:08:58.000Z</time>
      </trkpt>
      <trkpt lat="42.75177" lon="1.49917">
        <ele>1261</ele>
        <time>2026-06-28T05:08:59.000Z</time>
      </trkpt>
      <trkpt lat="42.75178" lon="1.49915">
        <ele>1261</ele>
        <time>2026-06-28T05:09:00.000Z</time>
      </trkpt>
      <trkpt lat="42.7518" lon="1.49913">
        <ele>1262</ele>
        <time>2026-06-28T05:09:01.000Z</time>
      </trkpt>
      <trkpt lat="42.75181" lon="1.49911">
        <ele>1262</ele>
        <time>2026-06-28T05:09:02.000Z</time>
      </trkpt>
      <trkpt lat="42.75181" lon="1.49909">
        <ele>1263</ele>
        <time>2026-06-28T05:09:03.000Z</time>
      </trkpt>
      <trkpt lat="42.75183" lon="1.49907">
        <ele>1263</ele>
        <time>2026-06-28T05:09:04.000Z</time>
      </trkpt>
      <trkpt lat="42.75184" lon="1.49906">
        <ele>1263</ele>
        <time>2026-06-28T05:09:05.000Z</time>
      </trkpt>
      <trkpt lat="42.75186" lon="1.49904">
        <ele>1263</ele>
        <time>2026-06-28T05:09:06.000Z</time>
      </trkpt>
      <trkpt lat="42.75187" lon="1.49903">
        <ele>1263</ele>
        <time>2026-06-28T05:09:07.000Z</time>
      </trkpt>
      <trkpt lat="42.75188" lon="1.499">
        <ele>1263</ele>
        <time>2026-06-28T05:09:08.000Z</time>
      </trkpt>
      <trkpt lat="42.7519" lon="1.49898">
        <ele>1263</ele>
        <time>2026-06-28T05:09:09.000Z</time>
      </trkpt>
      <trkpt lat="42.75191" lon="1.49896">
        <ele>1263</ele>
        <time>2026-06-28T05:09:10.000Z</time>
      </trkpt>
      <trkpt lat="42.75192" lon="1.49893">
        <ele>1264</ele>
        <time>2026-06-28T05:09:11.000Z</time>
      </trkpt>
      <trkpt lat="42.75193" lon="1.49891">
        <ele>1263</ele>
        <time>2026-06-28T05:09:12.000Z</time>
      </trkpt>
      <trkpt lat="42.75195" lon="1.4989">
        <ele>1264</ele>
        <time>2026-06-28T05:09:13.000Z</time>
      </trkpt>
      <trkpt lat="42.75196" lon="1.49888">
        <ele>1264</ele>
        <time>2026-06-28T05:09:14.000Z</time>
      </trkpt>
      <trkpt lat="42.75197" lon="1.49886">
        <ele>1264</ele>
        <time>2026-06-28T05:09:15.000Z</time>
      </trkpt>
      <trkpt lat="42.75199" lon="1.49885">
        <ele>1265</ele>
        <time>2026-06-28T05:09:16.000Z</time>
      </trkpt>
      <trkpt lat="42.752" lon="1.49883">
        <ele>1265</ele>
        <time>2026-06-28T05:09:17.000Z</time>
      </trkpt>
      <trkpt lat="42.75201" lon="1.49882">
        <ele>1266</ele>
        <time>2026-06-28T05:09:18.000Z</time>
      </trkpt>
      <trkpt lat="42.75202" lon="1.4988">
        <ele>1265</ele>
        <time>2026-06-28T05:09:19.000Z</time>
      </trkpt>
      <trkpt lat="42.75203" lon="1.49878">
        <ele>1266</ele>
        <time>2026-06-28T05:09:20.000Z</time>
      </trkpt>
      <trkpt lat="42.75204" lon="1.49876">
        <ele>1266</ele>
        <time>2026-06-28T05:09:21.000Z</time>
      </trkpt>
      <trkpt lat="42.75206" lon="1.49875">
        <ele>1266</ele>
        <time>2026-06-28T05:09:22.000Z</time>
      </trkpt>
      <trkpt lat="42.75207" lon="1.49873">
        <ele>1267</ele>
        <time>2026-06-28T05:09:23.000Z</time>
      </trkpt>
      <trkpt lat="42.75208" lon="1.49872">
        <ele>1267</ele>
        <time>2026-06-28T05:09:24.000Z</time>
      </trkpt>
      <trkpt lat="42.75209" lon="1.49869">
        <ele>1268</ele>
        <time>2026-06-28T05:09:25.000Z</time>
      </trkpt>
      <trkpt lat="42.75211" lon="1.49868">
        <ele>1268</ele>
        <time>2026-06-28T05:09:26.000Z</time>
      </trkpt>
      <trkpt lat="42.75212" lon="1.49866">
        <ele>1267</ele>
        <time>2026-06-28T05:09:27.000Z</time>
      </trkpt>
      <trkpt lat="42.75213" lon="1.49864">
        <ele>1268</ele>
        <time>2026-06-28T05:09:28.000Z</time>
      </trkpt>
      <trkpt lat="42.75215" lon="1.49862">
        <ele>1268</ele>
        <time>2026-06-28T05:09:29.000Z</time>
      </trkpt>
      <trkpt lat="42.75216" lon="1.4986">
        <ele>1268</ele>
        <time>2026-06-28T05:09:30.000Z</time>
      </trkpt>
      <trkpt lat="42.75217" lon="1.49859">
        <ele>1269</ele>
        <time>2026-06-28T05:09:31.000Z</time>
      </trkpt>
      <trkpt lat="42.75219" lon="1.49857">
        <ele>1270</ele>
        <time>2026-06-28T05:09:32.000Z</time>
      </trkpt>
      <trkpt lat="42.7522" lon="1.49855">
        <ele>1270</ele>
        <time>2026-06-28T05:09:33.000Z</time>
      </trkpt>
      <trkpt lat="42.75221" lon="1.49853">
        <ele>1270</ele>
        <time>2026-06-28T05:09:34.000Z</time>
      </trkpt>
      <trkpt lat="42.75222" lon="1.49851">
        <ele>1270</ele>
        <time>2026-06-28T05:09:35.000Z</time>
      </trkpt>
      <trkpt lat="42.75223" lon="1.49849">
        <ele>1270</ele>
        <time>2026-06-28T05:09:36.000Z</time>
      </trkpt>
      <trkpt lat="42.75224" lon="1.49847">
        <ele>1271</ele>
        <time>2026-06-28T05:09:37.000Z</time>
      </trkpt>
      <trkpt lat="42.75225" lon="1.49845">
        <ele>1271</ele>
        <time>2026-06-28T05:09:38.000Z</time>
      </trkpt>
      <trkpt lat="42.75226" lon="1.49844">
        <ele>1271</ele>
        <time>2026-06-28T05:09:39.000Z</time>
      </trkpt>
      <trkpt lat="42.75228" lon="1.49843">
        <ele>1271</ele>
        <time>2026-06-28T05:09:40.000Z</time>
      </trkpt>
      <trkpt lat="42.75229" lon="1.49841">
        <ele>1271</ele>
        <time>2026-06-28T05:09:41.000Z</time>
      </trkpt>
      <trkpt lat="42.7523" lon="1.49839">
        <ele>1271</ele>
        <time>2026-06-28T05:09:42.000Z</time>
      </trkpt>
      <trkpt lat="42.75231" lon="1.49838">
        <ele>1271</ele>
        <time>2026-06-28T05:09:43.000Z</time>
      </trkpt>
      <trkpt lat="42.75232" lon="1.49836">
        <ele>1272</ele>
        <time>2026-06-28T05:09:44.000Z</time>
      </trkpt>
      <trkpt lat="42.75234" lon="1.49835">
        <ele>1271</ele>
        <time>2026-06-28T05:09:45.000Z</time>
      </trkpt>
      <trkpt lat="42.75235" lon="1.49833">
        <ele>1272</ele>
        <time>2026-06-28T05:09:46.000Z</time>
      </trkpt>
      <trkpt lat="42.75236" lon="1.49831">
        <ele>1271</ele>
        <time>2026-06-28T05:09:47.000Z</time>
      </trkpt>
      <trkpt lat="42.75238" lon="1.49829">
        <ele>1272</ele>
        <time>2026-06-28T05:09:48.000Z</time>
      </trkpt>
      <trkpt lat="42.75239" lon="1.49827">
        <ele>1272</ele>
        <time>2026-06-28T05:09:49.000Z</time>
      </trkpt>
      <trkpt lat="42.7524" lon="1.49825">
        <ele>1272</ele>
        <time>2026-06-28T05:09:50.000Z</time>
      </trkpt>
      <trkpt lat="42.75242" lon="1.49824">
        <ele>1272</ele>
        <time>2026-06-28T05:09:51.000Z</time>
      </trkpt>
      <trkpt lat="42.75243" lon="1.49822">
        <ele>1272</ele>
        <time>2026-06-28T05:09:52.000Z</time>
      </trkpt>
      <trkpt lat="42.75244" lon="1.4982">
        <ele>1272</ele>
        <time>2026-06-28T05:09:53.000Z</time>
      </trkpt>
      <trkpt lat="42.75246" lon="1.49818">
        <ele>1273</ele>
        <time>2026-06-28T05:09:54.000Z</time>
      </trkpt>
      <trkpt lat="42.75247" lon="1.49816">
        <ele>1273</ele>
        <time>2026-06-28T05:09:55.000Z</time>
      </trkpt>
      <trkpt lat="42.75248" lon="1.49814">
        <ele>1273</ele>
        <time>2026-06-28T05:09:56.000Z</time>
      </trkpt>
      <trkpt lat="42.7525" lon="1.49812">
        <ele>1272</ele>
        <time>2026-06-28T05:09:57.000Z</time>
      </trkpt>
      <trkpt lat="42.75251" lon="1.4981">
        <ele>1272</ele>
        <time>2026-06-28T05:09:58.000Z</time>
      </trkpt>
      <trkpt lat="42.75252" lon="1.49807">
        <ele>1272</ele>
        <time>2026-06-28T05:09:59.000Z</time>
      </trkpt>
      <trkpt lat="42.75253" lon="1.49805">
        <ele>1272</ele>
        <time>2026-06-28T05:10:00.000Z</time>
      </trkpt>
      <trkpt lat="42.75254" lon="1.49801">
        <ele>1272</ele>
        <time>2026-06-28T05:10:01.000Z</time>
      </trkpt>
      <trkpt lat="42.75255" lon="1.49798">
        <ele>1272</ele>
        <time>2026-06-28T05:10:02.000Z</time>
      </trkpt>
      <trkpt lat="42.75256" lon="1.49795">
        <ele>1272</ele>
        <time>2026-06-28T05:10:03.000Z</time>
      </trkpt>
      <trkpt lat="42.75256" lon="1.49792">
        <ele>1272</ele>
        <time>2026-06-28T05:10:04.000Z</time>
      </trkpt>
      <trkpt lat="42.75257" lon="1.49789">
        <ele>1272</ele>
        <time>2026-06-28T05:10:05.000Z</time>
      </trkpt>
      <trkpt lat="42.75257" lon="1.49785">
        <ele>1272</ele>
        <time>2026-06-28T05:10:06.000Z</time>
      </trkpt>
      <trkpt lat="42.75258" lon="1.49782">
        <ele>1272</ele>
        <time>2026-06-28T05:10:07.000Z</time>
      </trkpt>
      <trkpt lat="42.75258" lon="1.49779">
        <ele>1272</ele>
        <time>2026-06-28T05:10:08.000Z</time>
      </trkpt>
      <trkpt lat="42.75258" lon="1.49775">
        <ele>1272</ele>
        <time>2026-06-28T05:10:09.000Z</time>
      </trkpt>
      <trkpt lat="42.75259" lon="1.49772">
        <ele>1272</ele>
        <time>2026-06-28T05:10:10.000Z</time>
      </trkpt>
      <trkpt lat="42.7526" lon="1.49768">
        <ele>1273</ele>
        <time>2026-06-28T05:10:11.000Z</time>
      </trkpt>
      <trkpt lat="42.75261" lon="1.49765">
        <ele>1273</ele>
        <time>2026-06-28T05:10:12.000Z</time>
      </trkpt>
      <trkpt lat="42.75261" lon="1.49761">
        <ele>1273</ele>
        <time>2026-06-28T05:10:13.000Z</time>
      </trkpt>
      <trkpt lat="42.75262" lon="1.49757">
        <ele>1273</ele>
        <time>2026-06-28T05:10:14.000Z</time>
      </trkpt>
      <trkpt lat="42.75262" lon="1.49754">
        <ele>1273</ele>
        <time>2026-06-28T05:10:15.000Z</time>
      </trkpt>
      <trkpt lat="42.75262" lon="1.49752">
        <ele>1273</ele>
        <time>2026-06-28T05:10:16.000Z</time>
      </trkpt>
      <trkpt lat="42.75262" lon="1.49749">
        <ele>1273</ele>
        <time>2026-06-28T05:10:17.000Z</time>
      </trkpt>
      <trkpt lat="42.75263" lon="1.49746">
        <ele>1273</ele>
        <time>2026-06-28T05:10:18.000Z</time>
      </trkpt>
      <trkpt lat="42.75263" lon="1.49743">
        <ele>1273</ele>
        <time>2026-06-28T05:10:19.000Z</time>
      </trkpt>
      <trkpt lat="42.75264" lon="1.4974">
        <ele>1273</ele>
        <time>2026-06-28T05:10:20.000Z</time>
      </trkpt>
      <trkpt lat="42.75265" lon="1.49737">
        <ele>1273</ele>
        <time>2026-06-28T05:10:21.000Z</time>
      </trkpt>
      <trkpt lat="42.75266" lon="1.49734">
        <ele>1273</ele>
        <time>2026-06-28T05:10:22.000Z</time>
      </trkpt>
      <trkpt lat="42.75267" lon="1.4973">
        <ele>1274</ele>
        <time>2026-06-28T05:10:23.000Z</time>
      </trkpt>
      <trkpt lat="42.75267" lon="1.49726">
        <ele>1273</ele>
        <time>2026-06-28T05:10:24.000Z</time>
      </trkpt>
      <trkpt lat="42.75268" lon="1.49723">
        <ele>1273</ele>
        <time>2026-06-28T05:10:25.000Z</time>
      </trkpt>
      <trkpt lat="42.75269" lon="1.49719">
        <ele>1273</ele>
        <time>2026-06-28T05:10:26.000Z</time>
      </trkpt>
      <trkpt lat="42.7527" lon="1.49716">
        <ele>1274</ele>
        <time>2026-06-28T05:10:27.000Z</time>
      </trkpt>
      <trkpt lat="42.75271" lon="1.49712">
        <ele>1274</ele>
        <time>2026-06-28T05:10:28.000Z</time>
      </trkpt>
      <trkpt lat="42.75272" lon="1.49708">
        <ele>1274</ele>
        <time>2026-06-28T05:10:29.000Z</time>
      </trkpt>
      <trkpt lat="42.75274" lon="1.49704">
        <ele>1274</ele>
        <time>2026-06-28T05:10:30.000Z</time>
      </trkpt>
      <trkpt lat="42.75275" lon="1.497">
        <ele>1274</ele>
        <time>2026-06-28T05:10:31.000Z</time>
      </trkpt>
      <trkpt lat="42.75276" lon="1.49696">
        <ele>1274</ele>
        <time>2026-06-28T05:10:32.000Z</time>
      </trkpt>
      <trkpt lat="42.75277" lon="1.49692">
        <ele>1274</ele>
        <time>2026-06-28T05:10:33.000Z</time>
      </trkpt>
      <trkpt lat="42.75278" lon="1.49688">
        <ele>1274</ele>
        <time>2026-06-28T05:10:34.000Z</time>
      </trkpt>
      <trkpt lat="42.75279" lon="1.49683">
        <ele>1274</ele>
        <time>2026-06-28T05:10:35.000Z</time>
      </trkpt>
      <trkpt lat="42.7528" lon="1.49679">
        <ele>1274</ele>
        <time>2026-06-28T05:10:36.000Z</time>
      </trkpt>
      <trkpt lat="42.75281" lon="1.49676">
        <ele>1274</ele>
        <time>2026-06-28T05:10:37.000Z</time>
      </trkpt>
      <trkpt lat="42.75282" lon="1.49673">
        <ele>1275</ele>
        <time>2026-06-28T05:10:38.000Z</time>
      </trkpt>
      <trkpt lat="42.75283" lon="1.49669">
        <ele>1275</ele>
        <time>2026-06-28T05:10:39.000Z</time>
      </trkpt>
      <trkpt lat="42.75284" lon="1.49665">
        <ele>1275</ele>
        <time>2026-06-28T05:10:40.000Z</time>
      </trkpt>
      <trkpt lat="42.75285" lon="1.49661">
        <ele>1275</ele>
        <time>2026-06-28T05:10:41.000Z</time>
      </trkpt>
      <trkpt lat="42.75286" lon="1.49657">
        <ele>1274</ele>
        <time>2026-06-28T05:10:42.000Z</time>
      </trkpt>
      <trkpt lat="42.75287" lon="1.49653">
        <ele>1275</ele>
        <time>2026-06-28T05:10:43.000Z</time>
      </trkpt>
      <trkpt lat="42.75287" lon="1.49649">
        <ele>1275</ele>
        <time>2026-06-28T05:10:44.000Z</time>
      </trkpt>
      <trkpt lat="42.75288" lon="1.49645">
        <ele>1275</ele>
        <time>2026-06-28T05:10:45.000Z</time>
      </trkpt>
      <trkpt lat="42.75288" lon="1.49641">
        <ele>1275</ele>
        <time>2026-06-28T05:10:46.000Z</time>
      </trkpt>
      <trkpt lat="42.75288" lon="1.49637">
        <ele>1275</ele>
        <time>2026-06-28T05:10:47.000Z</time>
      </trkpt>
      <trkpt lat="42.75288" lon="1.49633">
        <ele>1275</ele>
        <time>2026-06-28T05:10:48.000Z</time>
      </trkpt>
      <trkpt lat="42.75289" lon="1.49629">
        <ele>1275</ele>
        <time>2026-06-28T05:10:49.000Z</time>
      </trkpt>
      <trkpt lat="42.7529" lon="1.49624">
        <ele>1276</ele>
        <time>2026-06-28T05:10:50.000Z</time>
      </trkpt>
      <trkpt lat="42.7529" lon="1.4962">
        <ele>1276</ele>
        <time>2026-06-28T05:10:51.000Z</time>
      </trkpt>
      <trkpt lat="42.75291" lon="1.49615">
        <ele>1277</ele>
        <time>2026-06-28T05:10:52.000Z</time>
      </trkpt>
      <trkpt lat="42.75292" lon="1.49611">
        <ele>1277</ele>
        <time>2026-06-28T05:10:53.000Z</time>
      </trkpt>
      <trkpt lat="42.75293" lon="1.49608">
        <ele>1277</ele>
        <time>2026-06-28T05:10:54.000Z</time>
      </trkpt>
      <trkpt lat="42.75294" lon="1.49604">
        <ele>1278</ele>
        <time>2026-06-28T05:10:55.000Z</time>
      </trkpt>
      <trkpt lat="42.75295" lon="1.496">
        <ele>1278</ele>
        <time>2026-06-28T05:10:56.000Z</time>
      </trkpt>
      <trkpt lat="42.75296" lon="1.49596">
        <ele>1277</ele>
        <time>2026-06-28T05:10:57.000Z</time>
      </trkpt>
      <trkpt lat="42.75296" lon="1.49592">
        <ele>1278</ele>
        <time>2026-06-28T05:10:58.000Z</time>
      </trkpt>
      <trkpt lat="42.75297" lon="1.49589">
        <ele>1278</ele>
        <time>2026-06-28T05:10:59.000Z</time>
      </trkpt>
      <trkpt lat="42.75298" lon="1.49585">
        <ele>1279</ele>
        <time>2026-06-28T05:11:00.000Z</time>
      </trkpt>
      <trkpt lat="42.75299" lon="1.49581">
        <ele>1279</ele>
        <time>2026-06-28T05:11:01.000Z</time>
      </trkpt>
      <trkpt lat="42.75301" lon="1.49578">
        <ele>1279</ele>
        <time>2026-06-28T05:11:02.000Z</time>
      </trkpt>
      <trkpt lat="42.75302" lon="1.49574">
        <ele>1279</ele>
        <time>2026-06-28T05:11:03.000Z</time>
      </trkpt>
      <trkpt lat="42.75304" lon="1.49571">
        <ele>1278</ele>
        <time>2026-06-28T05:11:04.000Z</time>
      </trkpt>
      <trkpt lat="42.75305" lon="1.49568">
        <ele>1278</ele>
        <time>2026-06-28T05:11:05.000Z</time>
      </trkpt>
      <trkpt lat="42.75306" lon="1.49564">
        <ele>1278</ele>
        <time>2026-06-28T05:11:06.000Z</time>
      </trkpt>
      <trkpt lat="42.75308" lon="1.49561">
        <ele>1279</ele>
        <time>2026-06-28T05:11:07.000Z</time>
      </trkpt>
      <trkpt lat="42.75309" lon="1.49557">
        <ele>1279</ele>
        <time>2026-06-28T05:11:08.000Z</time>
      </trkpt>
      <trkpt lat="42.7531" lon="1.49553">
        <ele>1279</ele>
        <time>2026-06-28T05:11:09.000Z</time>
      </trkpt>
      <trkpt lat="42.75311" lon="1.49549">
        <ele>1279</ele>
        <time>2026-06-28T05:11:10.000Z</time>
      </trkpt>
      <trkpt lat="42.75313" lon="1.49546">
        <ele>1279</ele>
        <time>2026-06-28T05:11:11.000Z</time>
      </trkpt>
      <trkpt lat="42.75314" lon="1.49542">
        <ele>1279</ele>
        <time>2026-06-28T05:11:12.000Z</time>
      </trkpt>
      <trkpt lat="42.75316" lon="1.49539">
        <ele>1279</ele>
        <time>2026-06-28T05:11:13.000Z</time>
      </trkpt>
      <trkpt lat="42.75318" lon="1.49535">
        <ele>1278</ele>
        <time>2026-06-28T05:11:14.000Z</time>
      </trkpt>
      <trkpt lat="42.75319" lon="1.49531">
        <ele>1278</ele>
        <time>2026-06-28T05:11:15.000Z</time>
      </trkpt>
      <trkpt lat="42.75321" lon="1.49528">
        <ele>1278</ele>
        <time>2026-06-28T05:11:16.000Z</time>
      </trkpt>
      <trkpt lat="42.75323" lon="1.49525">
        <ele>1278</ele>
        <time>2026-06-28T05:11:17.000Z</time>
      </trkpt>
      <trkpt lat="42.75324" lon="1.49522">
        <ele>1279</ele>
        <time>2026-06-28T05:11:18.000Z</time>
      </trkpt>
      <trkpt lat="42.75325" lon="1.49519">
        <ele>1278</ele>
        <time>2026-06-28T05:11:19.000Z</time>
      </trkpt>
      <trkpt lat="42.75327" lon="1.49515">
        <ele>1278</ele>
        <time>2026-06-28T05:11:20.000Z</time>
      </trkpt>
      <trkpt lat="42.75328" lon="1.49512">
        <ele>1279</ele>
        <time>2026-06-28T05:11:21.000Z</time>
      </trkpt>
      <trkpt lat="42.7533" lon="1.49509">
        <ele>1279</ele>
        <time>2026-06-28T05:11:22.000Z</time>
      </trkpt>
      <trkpt lat="42.75331" lon="1.49505">
        <ele>1279</ele>
        <time>2026-06-28T05:11:23.000Z</time>
      </trkpt>
      <trkpt lat="42.75332" lon="1.49502">
        <ele>1279</ele>
        <time>2026-06-28T05:11:24.000Z</time>
      </trkpt>
      <trkpt lat="42.75334" lon="1.49498">
        <ele>1279</ele>
        <time>2026-06-28T05:11:25.000Z</time>
      </trkpt>
      <trkpt lat="42.75335" lon="1.49494">
        <ele>1280</ele>
        <time>2026-06-28T05:11:26.000Z</time>
      </trkpt>
      <trkpt lat="42.75336" lon="1.4949">
        <ele>1280</ele>
        <time>2026-06-28T05:11:27.000Z</time>
      </trkpt>
      <trkpt lat="42.75337" lon="1.49487">
        <ele>1280</ele>
        <time>2026-06-28T05:11:28.000Z</time>
      </trkpt>
      <trkpt lat="42.75338" lon="1.49483">
        <ele>1280</ele>
        <time>2026-06-28T05:11:29.000Z</time>
      </trkpt>
      <trkpt lat="42.75339" lon="1.4948">
        <ele>1281</ele>
        <time>2026-06-28T05:11:30.000Z</time>
      </trkpt>
      <trkpt lat="42.7534" lon="1.49477">
        <ele>1281</ele>
        <time>2026-06-28T05:11:31.000Z</time>
      </trkpt>
      <trkpt lat="42.75341" lon="1.49474">
        <ele>1282</ele>
        <time>2026-06-28T05:11:32.000Z</time>
      </trkpt>
      <trkpt lat="42.75342" lon="1.49471">
        <ele>1282</ele>
        <time>2026-06-28T05:11:33.000Z</time>
      </trkpt>
      <trkpt lat="42.75343" lon="1.49468">
        <ele>1282</ele>
        <time>2026-06-28T05:11:34.000Z</time>
      </trkpt>
      <trkpt lat="42.75344" lon="1.49465">
        <ele>1282</ele>
        <time>2026-06-28T05:11:35.000Z</time>
      </trkpt>
      <trkpt lat="42.75345" lon="1.49463">
        <ele>1282</ele>
        <time>2026-06-28T05:11:36.000Z</time>
      </trkpt>
      <trkpt lat="42.75346" lon="1.4946">
        <ele>1282</ele>
        <time>2026-06-28T05:11:37.000Z</time>
      </trkpt>
      <trkpt lat="42.75348" lon="1.49457">
        <ele>1282</ele>
        <time>2026-06-28T05:11:38.000Z</time>
      </trkpt>
      <trkpt lat="42.75349" lon="1.49454">
        <ele>1282</ele>
        <time>2026-06-28T05:11:39.000Z</time>
      </trkpt>
      <trkpt lat="42.7535" lon="1.49451">
        <ele>1283</ele>
        <time>2026-06-28T05:11:40.000Z</time>
      </trkpt>
      <trkpt lat="42.75351" lon="1.49448">
        <ele>1283</ele>
        <time>2026-06-28T05:11:41.000Z</time>
      </trkpt>
      <trkpt lat="42.75353" lon="1.49446">
        <ele>1283</ele>
        <time>2026-06-28T05:11:42.000Z</time>
      </trkpt>
      <trkpt lat="42.75354" lon="1.49444">
        <ele>1283</ele>
        <time>2026-06-28T05:11:43.000Z</time>
      </trkpt>
      <trkpt lat="42.75355" lon="1.49442">
        <ele>1284</ele>
        <time>2026-06-28T05:11:44.000Z</time>
      </trkpt>
      <trkpt lat="42.75357" lon="1.4944">
        <ele>1284</ele>
        <time>2026-06-28T05:11:45.000Z</time>
      </trkpt>
      <trkpt lat="42.75358" lon="1.49437">
        <ele>1284</ele>
        <time>2026-06-28T05:11:46.000Z</time>
      </trkpt>
      <trkpt lat="42.7536" lon="1.49435">
        <ele>1284</ele>
        <time>2026-06-28T05:11:47.000Z</time>
      </trkpt>
      <trkpt lat="42.75362" lon="1.49432">
        <ele>1284</ele>
        <time>2026-06-28T05:11:48.000Z</time>
      </trkpt>
      <trkpt lat="42.75363" lon="1.4943">
        <ele>1285</ele>
        <time>2026-06-28T05:11:49.000Z</time>
      </trkpt>
      <trkpt lat="42.75365" lon="1.49428">
        <ele>1285</ele>
        <time>2026-06-28T05:11:50.000Z</time>
      </trkpt>
      <trkpt lat="42.75367" lon="1.49426">
        <ele>1285</ele>
        <time>2026-06-28T05:11:51.000Z</time>
      </trkpt>
      <trkpt lat="42.75369" lon="1.49424">
        <ele>1286</ele>
        <time>2026-06-28T05:11:52.000Z</time>
      </trkpt>
      <trkpt lat="42.75371" lon="1.49422">
        <ele>1286</ele>
        <time>2026-06-28T05:11:53.000Z</time>
      </trkpt>
      <trkpt lat="42.75373" lon="1.4942">
        <ele>1286</ele>
        <time>2026-06-28T05:11:54.000Z</time>
      </trkpt>
      <trkpt lat="42.75375" lon="1.49417">
        <ele>1286</ele>
        <time>2026-06-28T05:11:55.000Z</time>
      </trkpt>
      <trkpt lat="42.75377" lon="1.49415">
        <ele>1286</ele>
        <time>2026-06-28T05:11:56.000Z</time>
      </trkpt>
      <trkpt lat="42.75379" lon="1.49414">
        <ele>1287</ele>
        <time>2026-06-28T05:11:57.000Z</time>
      </trkpt>
      <trkpt lat="42.75381" lon="1.49413">
        <ele>1287</ele>
        <time>2026-06-28T05:11:58.000Z</time>
      </trkpt>
      <trkpt lat="42.75382" lon="1.49411">
        <ele>1287</ele>
        <time>2026-06-28T05:11:59.000Z</time>
      </trkpt>
      <trkpt lat="42.75384" lon="1.4941">
        <ele>1288</ele>
        <time>2026-06-28T05:12:00.000Z</time>
      </trkpt>
      <trkpt lat="42.75386" lon="1.49407">
        <ele>1288</ele>
        <time>2026-06-28T05:12:01.000Z</time>
      </trkpt>
      <trkpt lat="42.75388" lon="1.49405">
        <ele>1288</ele>
        <time>2026-06-28T05:12:02.000Z</time>
      </trkpt>
      <trkpt lat="42.75389" lon="1.49403">
        <ele>1289</ele>
        <time>2026-06-28T05:12:03.000Z</time>
      </trkpt>
      <trkpt lat="42.75391" lon="1.49401">
        <ele>1290</ele>
        <time>2026-06-28T05:12:04.000Z</time>
      </trkpt>
      <trkpt lat="42.75393" lon="1.49399">
        <ele>1290</ele>
        <time>2026-06-28T05:12:05.000Z</time>
      </trkpt>
      <trkpt lat="42.75394" lon="1.49396">
        <ele>1290</ele>
        <time>2026-06-28T05:12:06.000Z</time>
      </trkpt>
      <trkpt lat="42.75395" lon="1.49394">
        <ele>1291</ele>
        <time>2026-06-28T05:12:07.000Z</time>
      </trkpt>
      <trkpt lat="42.75397" lon="1.49392">
        <ele>1291</ele>
        <time>2026-06-28T05:12:08.000Z</time>
      </trkpt>
      <trkpt lat="42.75398" lon="1.49389">
        <ele>1291</ele>
        <time>2026-06-28T05:12:09.000Z</time>
      </trkpt>
      <trkpt lat="42.75399" lon="1.49386">
        <ele>1291</ele>
        <time>2026-06-28T05:12:10.000Z</time>
      </trkpt>
      <trkpt lat="42.754" lon="1.49383">
        <ele>1292</ele>
        <time>2026-06-28T05:12:11.000Z</time>
      </trkpt>
      <trkpt lat="42.75401" lon="1.49381">
        <ele>1293</ele>
        <time>2026-06-28T05:12:12.000Z</time>
      </trkpt>
      <trkpt lat="42.75402" lon="1.49378">
        <ele>1293</ele>
        <time>2026-06-28T05:12:13.000Z</time>
      </trkpt>
      <trkpt lat="42.75404" lon="1.49375">
        <ele>1294</ele>
        <time>2026-06-28T05:12:14.000Z</time>
      </trkpt>
      <trkpt lat="42.75405" lon="1.49372">
        <ele>1294</ele>
        <time>2026-06-28T05:12:15.000Z</time>
      </trkpt>
      <trkpt lat="42.75406" lon="1.49369">
        <ele>1294</ele>
        <time>2026-06-28T05:12:16.000Z</time>
      </trkpt>
      <trkpt lat="42.75407" lon="1.49367">
        <ele>1294</ele>
        <time>2026-06-28T05:12:17.000Z</time>
      </trkpt>
      <trkpt lat="42.75409" lon="1.49364">
        <ele>1293</ele>
        <time>2026-06-28T05:12:18.000Z</time>
      </trkpt>
      <trkpt lat="42.75409" lon="1.49362">
        <ele>1293</ele>
        <time>2026-06-28T05:12:19.000Z</time>
      </trkpt>
      <trkpt lat="42.75411" lon="1.49359">
        <ele>1293</ele>
        <time>2026-06-28T05:12:20.000Z</time>
      </trkpt>
      <trkpt lat="42.75412" lon="1.49355">
        <ele>1293</ele>
        <time>2026-06-28T05:12:21.000Z</time>
      </trkpt>
      <trkpt lat="42.75413" lon="1.49353">
        <ele>1294</ele>
        <time>2026-06-28T05:12:22.000Z</time>
      </trkpt>
      <trkpt lat="42.75414" lon="1.4935">
        <ele>1294</ele>
        <time>2026-06-28T05:12:23.000Z</time>
      </trkpt>
      <trkpt lat="42.75415" lon="1.49347">
        <ele>1294</ele>
        <time>2026-06-28T05:12:24.000Z</time>
      </trkpt>
      <trkpt lat="42.75416" lon="1.49345">
        <ele>1294</ele>
        <time>2026-06-28T05:12:25.000Z</time>
      </trkpt>
      <trkpt lat="42.75417" lon="1.49342">
        <ele>1295</ele>
        <time>2026-06-28T05:12:26.000Z</time>
      </trkpt>
      <trkpt lat="42.75419" lon="1.4934">
        <ele>1295</ele>
        <time>2026-06-28T05:12:27.000Z</time>
      </trkpt>
      <trkpt lat="42.7542" lon="1.49337">
        <ele>1295</ele>
        <time>2026-06-28T05:12:28.000Z</time>
      </trkpt>
      <trkpt lat="42.75421" lon="1.49335">
        <ele>1295</ele>
        <time>2026-06-28T05:12:29.000Z</time>
      </trkpt>
      <trkpt lat="42.75423" lon="1.49332">
        <ele>1295</ele>
        <time>2026-06-28T05:12:30.000Z</time>
      </trkpt>
      <trkpt lat="42.75424" lon="1.4933">
        <ele>1296</ele>
        <time>2026-06-28T05:12:31.000Z</time>
      </trkpt>
      <trkpt lat="42.75426" lon="1.49328">
        <ele>1296</ele>
        <time>2026-06-28T05:12:32.000Z</time>
      </trkpt>
      <trkpt lat="42.75427" lon="1.49325">
        <ele>1296</ele>
        <time>2026-06-28T05:12:33.000Z</time>
      </trkpt>
      <trkpt lat="42.75428" lon="1.49323">
        <ele>1296</ele>
        <time>2026-06-28T05:12:34.000Z</time>
      </trkpt>
      <trkpt lat="42.7543" lon="1.4932">
        <ele>1296</ele>
        <time>2026-06-28T05:12:35.000Z</time>
      </trkpt>
      <trkpt lat="42.75432" lon="1.49318">
        <ele>1297</ele>
        <time>2026-06-28T05:12:36.000Z</time>
      </trkpt>
      <trkpt lat="42.75433" lon="1.49315">
        <ele>1297</ele>
        <time>2026-06-28T05:12:37.000Z</time>
      </trkpt>
      <trkpt lat="42.75435" lon="1.49313">
        <ele>1297</ele>
        <time>2026-06-28T05:12:38.000Z</time>
      </trkpt>
      <trkpt lat="42.75436" lon="1.4931">
        <ele>1297</ele>
        <time>2026-06-28T05:12:39.000Z</time>
      </trkpt>
      <trkpt lat="42.75437" lon="1.49307">
        <ele>1297</ele>
        <time>2026-06-28T05:12:40.000Z</time>
      </trkpt>
      <trkpt lat="42.75439" lon="1.49305">
        <ele>1296</ele>
        <time>2026-06-28T05:12:41.000Z</time>
      </trkpt>
      <trkpt lat="42.7544" lon="1.49302">
        <ele>1297</ele>
        <time>2026-06-28T05:12:42.000Z</time>
      </trkpt>
      <trkpt lat="42.75441" lon="1.493">
        <ele>1297</ele>
        <time>2026-06-28T05:12:43.000Z</time>
      </trkpt>
      <trkpt lat="42.75443" lon="1.49298">
        <ele>1297</ele>
        <time>2026-06-28T05:12:44.000Z</time>
      </trkpt>
      <trkpt lat="42.75444" lon="1.49295">
        <ele>1297</ele>
        <time>2026-06-28T05:12:45.000Z</time>
      </trkpt>
      <trkpt lat="42.75445" lon="1.49293">
        <ele>1298</ele>
        <time>2026-06-28T05:12:46.000Z</time>
      </trkpt>
      <trkpt lat="42.75447" lon="1.49291">
        <ele>1298</ele>
        <time>2026-06-28T05:12:47.000Z</time>
      </trkpt>
      <trkpt lat="42.75448" lon="1.49288">
        <ele>1299</ele>
        <time>2026-06-28T05:12:48.000Z</time>
      </trkpt>
      <trkpt lat="42.75449" lon="1.49285">
        <ele>1299</ele>
        <time>2026-06-28T05:12:49.000Z</time>
      </trkpt>
      <trkpt lat="42.75451" lon="1.49283">
        <ele>1299</ele>
        <time>2026-06-28T05:12:50.000Z</time>
      </trkpt>
      <trkpt lat="42.75452" lon="1.49281">
        <ele>1299</ele>
        <time>2026-06-28T05:12:51.000Z</time>
      </trkpt>
      <trkpt lat="42.75453" lon="1.49278">
        <ele>1299</ele>
        <time>2026-06-28T05:12:52.000Z</time>
      </trkpt>
      <trkpt lat="42.75455" lon="1.49276">
        <ele>1299</ele>
        <time>2026-06-28T05:12:53.000Z</time>
      </trkpt>
      <trkpt lat="42.75456" lon="1.49274">
        <ele>1299</ele>
        <time>2026-06-28T05:12:54.000Z</time>
      </trkpt>
      <trkpt lat="42.75457" lon="1.49271">
        <ele>1300</ele>
        <time>2026-06-28T05:12:55.000Z</time>
      </trkpt>
      <trkpt lat="42.75458" lon="1.49268">
        <ele>1300</ele>
        <time>2026-06-28T05:12:56.000Z</time>
      </trkpt>
      <trkpt lat="42.75459" lon="1.49265">
        <ele>1300</ele>
        <time>2026-06-28T05:12:57.000Z</time>
      </trkpt>
      <trkpt lat="42.7546" lon="1.49263">
        <ele>1300</ele>
        <time>2026-06-28T05:12:58.000Z</time>
      </trkpt>
      <trkpt lat="42.75461" lon="1.4926">
        <ele>1300</ele>
        <time>2026-06-28T05:12:59.000Z</time>
      </trkpt>
      <trkpt lat="42.75462" lon="1.49257">
        <ele>1300</ele>
        <time>2026-06-28T05:13:00.000Z</time>
      </trkpt>
      <trkpt lat="42.75463" lon="1.49254">
        <ele>1301</ele>
        <time>2026-06-28T05:13:01.000Z</time>
      </trkpt>
      <trkpt lat="42.75463" lon="1.49251">
        <ele>1301</ele>
        <time>2026-06-28T05:13:02.000Z</time>
      </trkpt>
      <trkpt lat="42.75464" lon="1.49248">
        <ele>1301</ele>
        <time>2026-06-28T05:13:03.000Z</time>
      </trkpt>
      <trkpt lat="42.75465" lon="1.49245">
        <ele>1301</ele>
        <time>2026-06-28T05:13:04.000Z</time>
      </trkpt>
      <trkpt lat="42.75465" lon="1.49243">
        <ele>1302</ele>
        <time>2026-06-28T05:13:05.000Z</time>
      </trkpt>
      <trkpt lat="42.75465" lon="1.49239">
        <ele>1302</ele>
        <time>2026-06-28T05:13:06.000Z</time>
      </trkpt>
      <trkpt lat="42.75466" lon="1.49236">
        <ele>1302</ele>
        <time>2026-06-28T05:13:07.000Z</time>
      </trkpt>
      <trkpt lat="42.75467" lon="1.49232">
        <ele>1302</ele>
        <time>2026-06-28T05:13:08.000Z</time>
      </trkpt>
      <trkpt lat="42.75467" lon="1.4923">
        <ele>1303</ele>
        <time>2026-06-28T05:13:09.000Z</time>
      </trkpt>
      <trkpt lat="42.75468" lon="1.49226">
        <ele>1303</ele>
        <time>2026-06-28T05:13:10.000Z</time>
      </trkpt>
      <trkpt lat="42.75468" lon="1.49223">
        <ele>1303</ele>
        <time>2026-06-28T05:13:11.000Z</time>
      </trkpt>
      <trkpt lat="42.75467" lon="1.4922">
        <ele>1304</ele>
        <time>2026-06-28T05:13:12.000Z</time>
      </trkpt>
      <trkpt lat="42.75467" lon="1.49217">
        <ele>1304</ele>
        <time>2026-06-28T05:13:13.000Z</time>
      </trkpt>
      <trkpt lat="42.75466" lon="1.49214">
        <ele>1304</ele>
        <time>2026-06-28T05:13:14.000Z</time>
      </trkpt>
      <trkpt lat="42.75466" lon="1.49211">
        <ele>1305</ele>
        <time>2026-06-28T05:13:15.000Z</time>
      </trkpt>
      <trkpt lat="42.75466" lon="1.49208">
        <ele>1305</ele>
        <time>2026-06-28T05:13:16.000Z</time>
      </trkpt>
      <trkpt lat="42.75465" lon="1.49206">
        <ele>1305</ele>
        <time>2026-06-28T05:13:17.000Z</time>
      </trkpt>
      <trkpt lat="42.75464" lon="1.49203">
        <ele>1305</ele>
        <time>2026-06-28T05:13:18.000Z</time>
      </trkpt>
      <trkpt lat="42.75464" lon="1.492">
        <ele>1305</ele>
        <time>2026-06-28T05:13:19.000Z</time>
      </trkpt>
      <trkpt lat="42.75464" lon="1.49198">
        <ele>1305</ele>
        <time>2026-06-28T05:13:20.000Z</time>
      </trkpt>
      <trkpt lat="42.75463" lon="1.49195">
        <ele>1305</ele>
        <time>2026-06-28T05:13:21.000Z</time>
      </trkpt>
      <trkpt lat="42.75463" lon="1.49193">
        <ele>1306</ele>
        <time>2026-06-28T05:13:22.000Z</time>
      </trkpt>
      <trkpt lat="42.75463" lon="1.4919">
        <ele>1306</ele>
        <time>2026-06-28T05:13:23.000Z</time>
      </trkpt>
      <trkpt lat="42.75462" lon="1.49188">
        <ele>1306</ele>
        <time>2026-06-28T05:13:24.000Z</time>
      </trkpt>
      <trkpt lat="42.75461" lon="1.49185">
        <ele>1307</ele>
        <time>2026-06-28T05:13:25.000Z</time>
      </trkpt>
      <trkpt lat="42.75461" lon="1.49182">
        <ele>1307</ele>
        <time>2026-06-28T05:13:26.000Z</time>
      </trkpt>
      <trkpt lat="42.75461" lon="1.49179">
        <ele>1308</ele>
        <time>2026-06-28T05:13:27.000Z</time>
      </trkpt>
      <trkpt lat="42.7546" lon="1.49177">
        <ele>1308</ele>
        <time>2026-06-28T05:13:28.000Z</time>
      </trkpt>
      <trkpt lat="42.75459" lon="1.49175">
        <ele>1309</ele>
        <time>2026-06-28T05:13:29.000Z</time>
      </trkpt>
      <trkpt lat="42.75459" lon="1.49173">
        <ele>1309</ele>
        <time>2026-06-28T05:13:30.000Z</time>
      </trkpt>
      <trkpt lat="42.75458" lon="1.49171">
        <ele>1310</ele>
        <time>2026-06-28T05:13:31.000Z</time>
      </trkpt>
      <trkpt lat="42.75458" lon="1.49167">
        <ele>1310</ele>
        <time>2026-06-28T05:13:32.000Z</time>
      </trkpt>
      <trkpt lat="42.75459" lon="1.49164">
        <ele>1311</ele>
        <time>2026-06-28T05:13:33.000Z</time>
      </trkpt>
      <trkpt lat="42.75458" lon="1.49161">
        <ele>1311</ele>
        <time>2026-06-28T05:13:34.000Z</time>
      </trkpt>
      <trkpt lat="42.75458" lon="1.49159">
        <ele>1312</ele>
        <time>2026-06-28T05:13:35.000Z</time>
      </trkpt>
      <trkpt lat="42.75458" lon="1.49156">
        <ele>1312</ele>
        <time>2026-06-28T05:13:36.000Z</time>
      </trkpt>
      <trkpt lat="42.75458" lon="1.49154">
        <ele>1312</ele>
        <time>2026-06-28T05:13:37.000Z</time>
      </trkpt>
      <trkpt lat="42.75458" lon="1.49152">
        <ele>1313</ele>
        <time>2026-06-28T05:13:38.000Z</time>
      </trkpt>
      <trkpt lat="42.75458" lon="1.49149">
        <ele>1313</ele>
        <time>2026-06-28T05:13:39.000Z</time>
      </trkpt>
      <trkpt lat="42.75458" lon="1.49146">
        <ele>1313</ele>
        <time>2026-06-28T05:13:40.000Z</time>
      </trkpt>
      <trkpt lat="42.75458" lon="1.49143">
        <ele>1313</ele>
        <time>2026-06-28T05:13:41.000Z</time>
      </trkpt>
      <trkpt lat="42.75459" lon="1.49141">
        <ele>1313</ele>
        <time>2026-06-28T05:13:42.000Z</time>
      </trkpt>
      <trkpt lat="42.75459" lon="1.49138">
        <ele>1313</ele>
        <time>2026-06-28T05:13:43.000Z</time>
      </trkpt>
      <trkpt lat="42.7546" lon="1.49135">
        <ele>1313</ele>
        <time>2026-06-28T05:13:44.000Z</time>
      </trkpt>
      <trkpt lat="42.7546" lon="1.49133">
        <ele>1313</ele>
        <time>2026-06-28T05:13:45.000Z</time>
      </trkpt>
      <trkpt lat="42.7546" lon="1.49131">
        <ele>1313</ele>
        <time>2026-06-28T05:13:46.000Z</time>
      </trkpt>
      <trkpt lat="42.7546" lon="1.49129">
        <ele>1313</ele>
        <time>2026-06-28T05:13:47.000Z</time>
      </trkpt>
      <trkpt lat="42.7546" lon="1.49125">
        <ele>1313</ele>
        <time>2026-06-28T05:13:48.000Z</time>
      </trkpt>
      <trkpt lat="42.75461" lon="1.49123">
        <ele>1314</ele>
        <time>2026-06-28T05:13:49.000Z</time>
      </trkpt>
      <trkpt lat="42.7546" lon="1.4912">
        <ele>1314</ele>
        <time>2026-06-28T05:13:50.000Z</time>
      </trkpt>
      <trkpt lat="42.7546" lon="1.49118">
        <ele>1315</ele>
        <time>2026-06-28T05:13:51.000Z</time>
      </trkpt>
      <trkpt lat="42.75461" lon="1.49115">
        <ele>1315</ele>
        <time>2026-06-28T05:13:52.000Z</time>
      </trkpt>
      <trkpt lat="42.75461" lon="1.49113">
        <ele>1316</ele>
        <time>2026-06-28T05:13:53.000Z</time>
      </trkpt>
      <trkpt lat="42.75461" lon="1.4911">
        <ele>1316</ele>
        <time>2026-06-28T05:13:54.000Z</time>
      </trkpt>
      <trkpt lat="42.75461" lon="1.49107">
        <ele>1316</ele>
        <time>2026-06-28T05:13:55.000Z</time>
      </trkpt>
      <trkpt lat="42.75461" lon="1.49105">
        <ele>1316</ele>
        <time>2026-06-28T05:13:56.000Z</time>
      </trkpt>
      <trkpt lat="42.75461" lon="1.49102">
        <ele>1316</ele>
        <time>2026-06-28T05:13:57.000Z</time>
      </trkpt>
      <trkpt lat="42.75461" lon="1.491">
        <ele>1317</ele>
        <time>2026-06-28T05:13:58.000Z</time>
      </trkpt>
      <trkpt lat="42.75461" lon="1.49097">
        <ele>1317</ele>
        <time>2026-06-28T05:13:59.000Z</time>
      </trkpt>
      <trkpt lat="42.75461" lon="1.49095">
        <ele>1318</ele>
        <time>2026-06-28T05:14:00.000Z</time>
      </trkpt>
      <trkpt lat="42.75461" lon="1.49093">
        <ele>1318</ele>
        <time>2026-06-28T05:14:01.000Z</time>
      </trkpt>
      <trkpt lat="42.75461" lon="1.4909">
        <ele>1319</ele>
        <time>2026-06-28T05:14:02.000Z</time>
      </trkpt>
      <trkpt lat="42.75462" lon="1.49088">
        <ele>1319</ele>
        <time>2026-06-28T05:14:03.000Z</time>
      </trkpt>
      <trkpt lat="42.75462" lon="1.49086">
        <ele>1319</ele>
        <time>2026-06-28T05:14:04.000Z</time>
      </trkpt>
      <trkpt lat="42.75462" lon="1.49082">
        <ele>1319</ele>
        <time>2026-06-28T05:14:05.000Z</time>
      </trkpt>
      <trkpt lat="42.75463" lon="1.4908">
        <ele>1319</ele>
        <time>2026-06-28T05:14:06.000Z</time>
      </trkpt>
      <trkpt lat="42.75463" lon="1.49077">
        <ele>1319</ele>
        <time>2026-06-28T05:14:07.000Z</time>
      </trkpt>
      <trkpt lat="42.75463" lon="1.49074">
        <ele>1320</ele>
        <time>2026-06-28T05:14:08.000Z</time>
      </trkpt>
      <trkpt lat="42.75463" lon="1.49072">
        <ele>1319</ele>
        <time>2026-06-28T05:14:09.000Z</time>
      </trkpt>
      <trkpt lat="42.75462" lon="1.4907">
        <ele>1320</ele>
        <time>2026-06-28T05:14:10.000Z</time>
      </trkpt>
      <trkpt lat="42.75462" lon="1.49068">
        <ele>1319</ele>
        <time>2026-06-28T05:14:11.000Z</time>
      </trkpt>
      <trkpt lat="42.75462" lon="1.49065">
        <ele>1320</ele>
        <time>2026-06-28T05:14:12.000Z</time>
      </trkpt>
      <trkpt lat="42.75462" lon="1.49063">
        <ele>1320</ele>
        <time>2026-06-28T05:14:13.000Z</time>
      </trkpt>
      <trkpt lat="42.75463" lon="1.4906">
        <ele>1320</ele>
        <time>2026-06-28T05:14:14.000Z</time>
      </trkpt>
      <trkpt lat="42.75463" lon="1.49058">
        <ele>1320</ele>
        <time>2026-06-28T05:14:15.000Z</time>
      </trkpt>
      <trkpt lat="42.75463" lon="1.49055">
        <ele>1320</ele>
        <time>2026-06-28T05:14:16.000Z</time>
      </trkpt>
      <trkpt lat="42.75464" lon="1.49052">
        <ele>1320</ele>
        <time>2026-06-28T05:14:17.000Z</time>
      </trkpt>
      <trkpt lat="42.75464" lon="1.49049">
        <ele>1320</ele>
        <time>2026-06-28T05:14:18.000Z</time>
      </trkpt>
      <trkpt lat="42.75464" lon="1.49047">
        <ele>1321</ele>
        <time>2026-06-28T05:14:19.000Z</time>
      </trkpt>
      <trkpt lat="42.75464" lon="1.49045">
        <ele>1321</ele>
        <time>2026-06-28T05:14:20.000Z</time>
      </trkpt>
      <trkpt lat="42.75464" lon="1.49042">
        <ele>1321</ele>
        <time>2026-06-28T05:14:21.000Z</time>
      </trkpt>
      <trkpt lat="42.75464" lon="1.4904">
        <ele>1321</ele>
        <time>2026-06-28T05:14:22.000Z</time>
      </trkpt>
      <trkpt lat="42.75465" lon="1.49037">
        <ele>1320</ele>
        <time>2026-06-28T05:14:23.000Z</time>
      </trkpt>
      <trkpt lat="42.75465" lon="1.49034">
        <ele>1321</ele>
        <time>2026-06-28T05:14:24.000Z</time>
      </trkpt>
      <trkpt lat="42.75465" lon="1.49032">
        <ele>1321</ele>
        <time>2026-06-28T05:14:25.000Z</time>
      </trkpt>
      <trkpt lat="42.75465" lon="1.49029">
        <ele>1322</ele>
        <time>2026-06-28T05:14:26.000Z</time>
      </trkpt>
      <trkpt lat="42.75465" lon="1.49027">
        <ele>1322</ele>
        <time>2026-06-28T05:14:27.000Z</time>
      </trkpt>
      <trkpt lat="42.75465" lon="1.49023">
        <ele>1322</ele>
        <time>2026-06-28T05:14:28.000Z</time>
      </trkpt>
      <trkpt lat="42.75466" lon="1.4902">
        <ele>1321</ele>
        <time>2026-06-28T05:14:29.000Z</time>
      </trkpt>
      <trkpt lat="42.75466" lon="1.49018">
        <ele>1322</ele>
        <time>2026-06-28T05:14:30.000Z</time>
      </trkpt>
      <trkpt lat="42.75466" lon="1.49016">
        <ele>1322</ele>
        <time>2026-06-28T05:14:31.000Z</time>
      </trkpt>
      <trkpt lat="42.75466" lon="1.49014">
        <ele>1322</ele>
        <time>2026-06-28T05:14:32.000Z</time>
      </trkpt>
      <trkpt lat="42.75467" lon="1.49012">
        <ele>1323</ele>
        <time>2026-06-28T05:14:33.000Z</time>
      </trkpt>
      <trkpt lat="42.75467" lon="1.4901">
        <ele>1323</ele>
        <time>2026-06-28T05:14:34.000Z</time>
      </trkpt>
      <trkpt lat="42.75467" lon="1.49008">
        <ele>1324</ele>
        <time>2026-06-28T05:14:35.000Z</time>
      </trkpt>
      <trkpt lat="42.75467" lon="1.49005">
        <ele>1324</ele>
        <time>2026-06-28T05:14:36.000Z</time>
      </trkpt>
      <trkpt lat="42.75467" lon="1.49003">
        <ele>1324</ele>
        <time>2026-06-28T05:14:37.000Z</time>
      </trkpt>
      <trkpt lat="42.75468" lon="1.49001">
        <ele>1324</ele>
        <time>2026-06-28T05:14:38.000Z</time>
      </trkpt>
      <trkpt lat="42.75468" lon="1.48999">
        <ele>1325</ele>
        <time>2026-06-28T05:14:39.000Z</time>
      </trkpt>
      <trkpt lat="42.75468" lon="1.48997">
        <ele>1325</ele>
        <time>2026-06-28T05:14:40.000Z</time>
      </trkpt>
      <trkpt lat="42.75469" lon="1.48994">
        <ele>1326</ele>
        <time>2026-06-28T05:14:41.000Z</time>
      </trkpt>
      <trkpt lat="42.75469" lon="1.48991">
        <ele>1326</ele>
        <time>2026-06-28T05:14:42.000Z</time>
      </trkpt>
      <trkpt lat="42.75469" lon="1.48989">
        <ele>1326</ele>
        <time>2026-06-28T05:14:43.000Z</time>
      </trkpt>
      <trkpt lat="42.75469" lon="1.48986">
        <ele>1325</ele>
        <time>2026-06-28T05:14:44.000Z</time>
      </trkpt>
      <trkpt lat="42.75469" lon="1.48984">
        <ele>1325</ele>
        <time>2026-06-28T05:14:45.000Z</time>
      </trkpt>
      <trkpt lat="42.75469" lon="1.48981">
        <ele>1325</ele>
        <time>2026-06-28T05:14:46.000Z</time>
      </trkpt>
      <trkpt lat="42.7547" lon="1.48979">
        <ele>1325</ele>
        <time>2026-06-28T05:14:47.000Z</time>
      </trkpt>
      <trkpt lat="42.7547" lon="1.48977">
        <ele>1325</ele>
        <time>2026-06-28T05:14:48.000Z</time>
      </trkpt>
      <trkpt lat="42.75471" lon="1.48975">
        <ele>1325</ele>
        <time>2026-06-28T05:14:49.000Z</time>
      </trkpt>
      <trkpt lat="42.75471" lon="1.48972">
        <ele>1325</ele>
        <time>2026-06-28T05:14:50.000Z</time>
      </trkpt>
      <trkpt lat="42.75471" lon="1.48969">
        <ele>1325</ele>
        <time>2026-06-28T05:14:51.000Z</time>
      </trkpt>
      <trkpt lat="42.75471" lon="1.48967">
        <ele>1326</ele>
        <time>2026-06-28T05:14:52.000Z</time>
      </trkpt>
      <trkpt lat="42.75471" lon="1.48965">
        <ele>1326</ele>
        <time>2026-06-28T05:14:53.000Z</time>
      </trkpt>
      <trkpt lat="42.75472" lon="1.48963">
        <ele>1327</ele>
        <time>2026-06-28T05:14:54.000Z</time>
      </trkpt>
      <trkpt lat="42.75472" lon="1.48961">
        <ele>1327</ele>
        <time>2026-06-28T05:14:55.000Z</time>
      </trkpt>
      <trkpt lat="42.75473" lon="1.48958">
        <ele>1327</ele>
        <time>2026-06-28T05:14:56.000Z</time>
      </trkpt>
      <trkpt lat="42.75473" lon="1.48956">
        <ele>1327</ele>
        <time>2026-06-28T05:14:57.000Z</time>
      </trkpt>
      <trkpt lat="42.75473" lon="1.48953">
        <ele>1327</ele>
        <time>2026-06-28T05:14:58.000Z</time>
      </trkpt>
      <trkpt lat="42.75473" lon="1.48951">
        <ele>1327</ele>
        <time>2026-06-28T05:14:59.000Z</time>
      </trkpt>
      <trkpt lat="42.75474" lon="1.48949">
        <ele>1328</ele>
        <time>2026-06-28T05:15:00.000Z</time>
      </trkpt>
      <trkpt lat="42.75474" lon="1.48946">
        <ele>1328</ele>
        <time>2026-06-28T05:15:01.000Z</time>
      </trkpt>
      <trkpt lat="42.75475" lon="1.48943">
        <ele>1328</ele>
        <time>2026-06-28T05:15:02.000Z</time>
      </trkpt>
      <trkpt lat="42.75475" lon="1.48941">
        <ele>1328</ele>
        <time>2026-06-28T05:15:03.000Z</time>
      </trkpt>
      <trkpt lat="42.75476" lon="1.48938">
        <ele>1328</ele>
        <time>2026-06-28T05:15:04.000Z</time>
      </trkpt>
      <trkpt lat="42.75476" lon="1.48936">
        <ele>1328</ele>
        <time>2026-06-28T05:15:05.000Z</time>
      </trkpt>
      <trkpt lat="42.75476" lon="1.48933">
        <ele>1329</ele>
        <time>2026-06-28T05:15:06.000Z</time>
      </trkpt>
      <trkpt lat="42.75476" lon="1.48932">
        <ele>1329</ele>
        <time>2026-06-28T05:15:07.000Z</time>
      </trkpt>
      <trkpt lat="42.75477" lon="1.48929">
        <ele>1329</ele>
        <time>2026-06-28T05:15:08.000Z</time>
      </trkpt>
      <trkpt lat="42.75477" lon="1.48927">
        <ele>1329</ele>
        <time>2026-06-28T05:15:09.000Z</time>
      </trkpt>
      <trkpt lat="42.75477" lon="1.48924">
        <ele>1329</ele>
        <time>2026-06-28T05:15:10.000Z</time>
      </trkpt>
      <trkpt lat="42.75478" lon="1.48921">
        <ele>1330</ele>
        <time>2026-06-28T05:15:11.000Z</time>
      </trkpt>
      <trkpt lat="42.75478" lon="1.48919">
        <ele>1330</ele>
        <time>2026-06-28T05:15:12.000Z</time>
      </trkpt>
      <trkpt lat="42.75478" lon="1.48917">
        <ele>1329</ele>
        <time>2026-06-28T05:15:13.000Z</time>
      </trkpt>
      <trkpt lat="42.75478" lon="1.48915">
        <ele>1329</ele>
        <time>2026-06-28T05:15:14.000Z</time>
      </trkpt>
      <trkpt lat="42.75478" lon="1.48912">
        <ele>1329</ele>
        <time>2026-06-28T05:15:15.000Z</time>
      </trkpt>
      <trkpt lat="42.75479" lon="1.4891">
        <ele>1329</ele>
        <time>2026-06-28T05:15:16.000Z</time>
      </trkpt>
      <trkpt lat="42.75479" lon="1.48907">
        <ele>1329</ele>
        <time>2026-06-28T05:15:17.000Z</time>
      </trkpt>
      <trkpt lat="42.7548" lon="1.48905">
        <ele>1330</ele>
        <time>2026-06-28T05:15:18.000Z</time>
      </trkpt>
      <trkpt lat="42.7548" lon="1.48903">
        <ele>1329</ele>
        <time>2026-06-28T05:15:19.000Z</time>
      </trkpt>
      <trkpt lat="42.75479" lon="1.489">
        <ele>1329</ele>
        <time>2026-06-28T05:15:20.000Z</time>
      </trkpt>
      <trkpt lat="42.7548" lon="1.48897">
        <ele>1329</ele>
        <time>2026-06-28T05:15:21.000Z</time>
      </trkpt>
      <trkpt lat="42.7548" lon="1.48894">
        <ele>1328</ele>
        <time>2026-06-28T05:15:22.000Z</time>
      </trkpt>
      <trkpt lat="42.7548" lon="1.48892">
        <ele>1328</ele>
        <time>2026-06-28T05:15:23.000Z</time>
      </trkpt>
      <trkpt lat="42.7548" lon="1.48889">
        <ele>1328</ele>
        <time>2026-06-28T05:15:24.000Z</time>
      </trkpt>
      <trkpt lat="42.7548" lon="1.48887">
        <ele>1329</ele>
        <time>2026-06-28T05:15:25.000Z</time>
      </trkpt>
      <trkpt lat="42.7548" lon="1.48885">
        <ele>1329</ele>
        <time>2026-06-28T05:15:26.000Z</time>
      </trkpt>
      <trkpt lat="42.7548" lon="1.48882">
        <ele>1329</ele>
        <time>2026-06-28T05:15:27.000Z</time>
      </trkpt>
      <trkpt lat="42.7548" lon="1.4888">
        <ele>1329</ele>
        <time>2026-06-28T05:15:28.000Z</time>
      </trkpt>
      <trkpt lat="42.7548" lon="1.48878">
        <ele>1329</ele>
        <time>2026-06-28T05:15:29.000Z</time>
      </trkpt>
      <trkpt lat="42.75479" lon="1.48876">
        <ele>1330</ele>
        <time>2026-06-28T05:15:30.000Z</time>
      </trkpt>
      <trkpt lat="42.7548" lon="1.48873">
        <ele>1329</ele>
        <time>2026-06-28T05:15:31.000Z</time>
      </trkpt>
      <trkpt lat="42.7548" lon="1.4887">
        <ele>1330</ele>
        <time>2026-06-28T05:15:32.000Z</time>
      </trkpt>
      <trkpt lat="42.75479" lon="1.48868">
        <ele>1331</ele>
        <time>2026-06-28T05:15:33.000Z</time>
      </trkpt>
      <trkpt lat="42.75479" lon="1.48866">
        <ele>1331</ele>
        <time>2026-06-28T05:15:34.000Z</time>
      </trkpt>
      <trkpt lat="42.75479" lon="1.48863">
        <ele>1331</ele>
        <time>2026-06-28T05:15:35.000Z</time>
      </trkpt>
      <trkpt lat="42.75479" lon="1.4886">
        <ele>1331</ele>
        <time>2026-06-28T05:15:36.000Z</time>
      </trkpt>
      <trkpt lat="42.75479" lon="1.48858">
        <ele>1331</ele>
        <time>2026-06-28T05:15:37.000Z</time>
      </trkpt>
      <trkpt lat="42.75479" lon="1.48856">
        <ele>1331</ele>
        <time>2026-06-28T05:15:38.000Z</time>
      </trkpt>
      <trkpt lat="42.75478" lon="1.48853">
        <ele>1331</ele>
        <time>2026-06-28T05:15:39.000Z</time>
      </trkpt>
      <trkpt lat="42.75478" lon="1.48851">
        <ele>1331</ele>
        <time>2026-06-28T05:15:40.000Z</time>
      </trkpt>
      <trkpt lat="42.75478" lon="1.48848">
        <ele>1332</ele>
        <time>2026-06-28T05:15:41.000Z</time>
      </trkpt>
      <trkpt lat="42.75478" lon="1.48846">
        <ele>1333</ele>
        <time>2026-06-28T05:15:42.000Z</time>
      </trkpt>
      <trkpt lat="42.75478" lon="1.48844">
        <ele>1333</ele>
        <time>2026-06-28T05:15:43.000Z</time>
      </trkpt>
      <trkpt lat="42.75477" lon="1.48841">
        <ele>1333</ele>
        <time>2026-06-28T05:15:44.000Z</time>
      </trkpt>
      <trkpt lat="42.75477" lon="1.48838">
        <ele>1334</ele>
        <time>2026-06-28T05:15:45.000Z</time>
      </trkpt>
      <trkpt lat="42.75477" lon="1.48835">
        <ele>1334</ele>
        <time>2026-06-28T05:15:46.000Z</time>
      </trkpt>
      <trkpt lat="42.75476" lon="1.48832">
        <ele>1334</ele>
        <time>2026-06-28T05:15:47.000Z</time>
      </trkpt>
      <trkpt lat="42.75475" lon="1.4883">
        <ele>1335</ele>
        <time>2026-06-28T05:15:48.000Z</time>
      </trkpt>
      <trkpt lat="42.75475" lon="1.48827">
        <ele>1335</ele>
        <time>2026-06-28T05:15:49.000Z</time>
      </trkpt>
      <trkpt lat="42.75474" lon="1.48825">
        <ele>1336</ele>
        <time>2026-06-28T05:15:50.000Z</time>
      </trkpt>
      <trkpt lat="42.75474" lon="1.48823">
        <ele>1335</ele>
        <time>2026-06-28T05:15:51.000Z</time>
      </trkpt>
      <trkpt lat="42.75473" lon="1.4882">
        <ele>1335</ele>
        <time>2026-06-28T05:15:52.000Z</time>
      </trkpt>
      <trkpt lat="42.75473" lon="1.48818">
        <ele>1336</ele>
        <time>2026-06-28T05:15:53.000Z</time>
      </trkpt>
      <trkpt lat="42.75472" lon="1.48815">
        <ele>1336</ele>
        <time>2026-06-28T05:15:54.000Z</time>
      </trkpt>
      <trkpt lat="42.75472" lon="1.48813">
        <ele>1337</ele>
        <time>2026-06-28T05:15:55.000Z</time>
      </trkpt>
      <trkpt lat="42.75471" lon="1.48811">
        <ele>1337</ele>
        <time>2026-06-28T05:15:56.000Z</time>
      </trkpt>
      <trkpt lat="42.75471" lon="1.48808">
        <ele>1337</ele>
        <time>2026-06-28T05:15:57.000Z</time>
      </trkpt>
      <trkpt lat="42.75471" lon="1.48805">
        <ele>1338</ele>
        <time>2026-06-28T05:15:58.000Z</time>
      </trkpt>
      <trkpt lat="42.7547" lon="1.48804">
        <ele>1339</ele>
        <time>2026-06-28T05:15:59.000Z</time>
      </trkpt>
      <trkpt lat="42.75469" lon="1.48801">
        <ele>1339</ele>
        <time>2026-06-28T05:16:00.000Z</time>
      </trkpt>
      <trkpt lat="42.75469" lon="1.48799">
        <ele>1339</ele>
        <time>2026-06-28T05:16:01.000Z</time>
      </trkpt>
      <trkpt lat="42.75468" lon="1.48797">
        <ele>1340</ele>
        <time>2026-06-28T05:16:02.000Z</time>
      </trkpt>
      <trkpt lat="42.75467" lon="1.48795">
        <ele>1340</ele>
        <time>2026-06-28T05:16:03.000Z</time>
      </trkpt>
      <trkpt lat="42.75466" lon="1.48793">
        <ele>1340</ele>
        <time>2026-06-28T05:16:04.000Z</time>
      </trkpt>
      <trkpt lat="42.75466" lon="1.4879">
        <ele>1340</ele>
        <time>2026-06-28T05:16:05.000Z</time>
      </trkpt>
      <trkpt lat="42.75465" lon="1.48788">
        <ele>1340</ele>
        <time>2026-06-28T05:16:06.000Z</time>
      </trkpt>
      <trkpt lat="42.75464" lon="1.48786">
        <ele>1340</ele>
        <time>2026-06-28T05:16:07.000Z</time>
      </trkpt>
      <trkpt lat="42.75464" lon="1.48783">
        <ele>1340</ele>
        <time>2026-06-28T05:16:08.000Z</time>
      </trkpt>
      <trkpt lat="42.75463" lon="1.4878">
        <ele>1340</ele>
        <time>2026-06-28T05:16:09.000Z</time>
      </trkpt>
      <trkpt lat="42.75462" lon="1.48778">
        <ele>1340</ele>
        <time>2026-06-28T05:16:10.000Z</time>
      </trkpt>
      <trkpt lat="42.75461" lon="1.48775">
        <ele>1341</ele>
        <time>2026-06-28T05:16:11.000Z</time>
      </trkpt>
      <trkpt lat="42.7546" lon="1.48773">
        <ele>1341</ele>
        <time>2026-06-28T05:16:12.000Z</time>
      </trkpt>
      <trkpt lat="42.7546" lon="1.48771">
        <ele>1341</ele>
        <time>2026-06-28T05:16:13.000Z</time>
      </trkpt>
      <trkpt lat="42.75459" lon="1.48769">
        <ele>1340</ele>
        <time>2026-06-28T05:16:14.000Z</time>
      </trkpt>
      <trkpt lat="42.75458" lon="1.48767">
        <ele>1341</ele>
        <time>2026-06-28T05:16:15.000Z</time>
      </trkpt>
      <trkpt lat="42.75457" lon="1.48765">
        <ele>1341</ele>
        <time>2026-06-28T05:16:16.000Z</time>
      </trkpt>
      <trkpt lat="42.75456" lon="1.48763">
        <ele>1342</ele>
        <time>2026-06-28T05:16:17.000Z</time>
      </trkpt>
      <trkpt lat="42.75455" lon="1.4876">
        <ele>1342</ele>
        <time>2026-06-28T05:16:18.000Z</time>
      </trkpt>
      <trkpt lat="42.75454" lon="1.48758">
        <ele>1342</ele>
        <time>2026-06-28T05:16:19.000Z</time>
      </trkpt>
      <trkpt lat="42.75454" lon="1.48756">
        <ele>1342</ele>
        <time>2026-06-28T05:16:20.000Z</time>
      </trkpt>
      <trkpt lat="42.75453" lon="1.48754">
        <ele>1342</ele>
        <time>2026-06-28T05:16:21.000Z</time>
      </trkpt>
      <trkpt lat="42.75452" lon="1.48751">
        <ele>1342</ele>
        <time>2026-06-28T05:16:22.000Z</time>
      </trkpt>
      <trkpt lat="42.75451" lon="1.48749">
        <ele>1343</ele>
        <time>2026-06-28T05:16:23.000Z</time>
      </trkpt>
      <trkpt lat="42.7545" lon="1.48747">
        <ele>1343</ele>
        <time>2026-06-28T05:16:24.000Z</time>
      </trkpt>
      <trkpt lat="42.75448" lon="1.48744">
        <ele>1343</ele>
        <time>2026-06-28T05:16:25.000Z</time>
      </trkpt>
      <trkpt lat="42.75448" lon="1.48742">
        <ele>1343</ele>
        <time>2026-06-28T05:16:26.000Z</time>
      </trkpt>
      <trkpt lat="42.75448" lon="1.48739">
        <ele>1344</ele>
        <time>2026-06-28T05:16:27.000Z</time>
      </trkpt>
      <trkpt lat="42.75447" lon="1.48738">
        <ele>1344</ele>
        <time>2026-06-28T05:16:28.000Z</time>
      </trkpt>
      <trkpt lat="42.75447" lon="1.48735">
        <ele>1344</ele>
        <time>2026-06-28T05:16:29.000Z</time>
      </trkpt>
      <trkpt lat="42.75446" lon="1.48733">
        <ele>1345</ele>
        <time>2026-06-28T05:16:30.000Z</time>
      </trkpt>
      <trkpt lat="42.75444" lon="1.4873">
        <ele>1345</ele>
        <time>2026-06-28T05:16:31.000Z</time>
      </trkpt>
      <trkpt lat="42.75444" lon="1.48728">
        <ele>1345</ele>
        <time>2026-06-28T05:16:32.000Z</time>
      </trkpt>
      <trkpt lat="42.75443" lon="1.48726">
        <ele>1345</ele>
        <time>2026-06-28T05:16:33.000Z</time>
      </trkpt>
      <trkpt lat="42.75443" lon="1.48724">
        <ele>1345</ele>
        <time>2026-06-28T05:16:34.000Z</time>
      </trkpt>
      <trkpt lat="42.75442" lon="1.48722">
        <ele>1345</ele>
        <time>2026-06-28T05:16:35.000Z</time>
      </trkpt>
      <trkpt lat="42.75441" lon="1.4872">
        <ele>1345</ele>
        <time>2026-06-28T05:16:36.000Z</time>
      </trkpt>
      <trkpt lat="42.7544" lon="1.48718">
        <ele>1345</ele>
        <time>2026-06-28T05:16:37.000Z</time>
      </trkpt>
      <trkpt lat="42.75439" lon="1.48715">
        <ele>1345</ele>
        <time>2026-06-28T05:16:38.000Z</time>
      </trkpt>
      <trkpt lat="42.75437" lon="1.48713">
        <ele>1345</ele>
        <time>2026-06-28T05:16:39.000Z</time>
      </trkpt>
      <trkpt lat="42.75436" lon="1.48711">
        <ele>1345</ele>
        <time>2026-06-28T05:16:40.000Z</time>
      </trkpt>
      <trkpt lat="42.75435" lon="1.48709">
        <ele>1345</ele>
        <time>2026-06-28T05:16:41.000Z</time>
      </trkpt>
      <trkpt lat="42.75434" lon="1.48707">
        <ele>1345</ele>
        <time>2026-06-28T05:16:42.000Z</time>
      </trkpt>
      <trkpt lat="42.75432" lon="1.48705">
        <ele>1344</ele>
        <time>2026-06-28T05:16:43.000Z</time>
      </trkpt>
      <trkpt lat="42.75431" lon="1.48703">
        <ele>1344</ele>
        <time>2026-06-28T05:16:44.000Z</time>
      </trkpt>
      <trkpt lat="42.75429" lon="1.48701">
        <ele>1344</ele>
        <time>2026-06-28T05:16:45.000Z</time>
      </trkpt>
      <trkpt lat="42.75427" lon="1.48698">
        <ele>1344</ele>
        <time>2026-06-28T05:16:46.000Z</time>
      </trkpt>
      <trkpt lat="42.75425" lon="1.48696">
        <ele>1344</ele>
        <time>2026-06-28T05:16:47.000Z</time>
      </trkpt>
      <trkpt lat="42.75423" lon="1.48694">
        <ele>1344</ele>
        <time>2026-06-28T05:16:48.000Z</time>
      </trkpt>
      <trkpt lat="42.75422" lon="1.48692">
        <ele>1344</ele>
        <time>2026-06-28T05:16:49.000Z</time>
      </trkpt>
      <trkpt lat="42.7542" lon="1.4869">
        <ele>1344</ele>
        <time>2026-06-28T05:16:50.000Z</time>
      </trkpt>
      <trkpt lat="42.75419" lon="1.48688">
        <ele>1345</ele>
        <time>2026-06-28T05:16:51.000Z</time>
      </trkpt>
      <trkpt lat="42.75417" lon="1.48686">
        <ele>1345</ele>
        <time>2026-06-28T05:16:52.000Z</time>
      </trkpt>
      <trkpt lat="42.75415" lon="1.48684">
        <ele>1345</ele>
        <time>2026-06-28T05:16:53.000Z</time>
      </trkpt>
      <trkpt lat="42.75413" lon="1.48681">
        <ele>1345</ele>
        <time>2026-06-28T05:16:54.000Z</time>
      </trkpt>
      <trkpt lat="42.75412" lon="1.48678">
        <ele>1344</ele>
        <time>2026-06-28T05:16:55.000Z</time>
      </trkpt>
      <trkpt lat="42.75411" lon="1.48676">
        <ele>1344</ele>
        <time>2026-06-28T05:16:56.000Z</time>
      </trkpt>
      <trkpt lat="42.75409" lon="1.48674">
        <ele>1344</ele>
        <time>2026-06-28T05:16:57.000Z</time>
      </trkpt>
      <trkpt lat="42.75407" lon="1.48671">
        <ele>1344</ele>
        <time>2026-06-28T05:16:58.000Z</time>
      </trkpt>
      <trkpt lat="42.75406" lon="1.48669">
        <ele>1343</ele>
        <time>2026-06-28T05:16:59.000Z</time>
      </trkpt>
      <trkpt lat="42.75404" lon="1.48668">
        <ele>1344</ele>
        <time>2026-06-28T05:17:00.000Z</time>
      </trkpt>
      <trkpt lat="42.75402" lon="1.48668">
        <ele>1344</ele>
        <time>2026-06-28T05:17:01.000Z</time>
      </trkpt>
      <trkpt lat="42.754" lon="1.48669">
        <ele>1345</ele>
        <time>2026-06-28T05:17:02.000Z</time>
      </trkpt>
      <trkpt lat="42.75399" lon="1.48671">
        <ele>1345</ele>
        <time>2026-06-28T05:17:03.000Z</time>
      </trkpt>
      <trkpt lat="42.75398" lon="1.48673">
        <ele>1345</ele>
        <time>2026-06-28T05:17:04.000Z</time>
      </trkpt>
      <trkpt lat="42.75399" lon="1.48675">
        <ele>1345</ele>
        <time>2026-06-28T05:17:05.000Z</time>
      </trkpt>
      <trkpt lat="42.75399" lon="1.48678">
        <ele>1345</ele>
        <time>2026-06-28T05:17:06.000Z</time>
      </trkpt>
      <trkpt lat="42.754" lon="1.48681">
        <ele>1345</ele>
        <time>2026-06-28T05:17:07.000Z</time>
      </trkpt>
      <trkpt lat="42.75401" lon="1.48683">
        <ele>1345</ele>
        <time>2026-06-28T05:17:08.000Z</time>
      </trkpt>
      <trkpt lat="42.75401" lon="1.48685">
        <ele>1345</ele>
        <time>2026-06-28T05:17:09.000Z</time>
      </trkpt>
      <trkpt lat="42.75403" lon="1.48687">
        <ele>1346</ele>
        <time>2026-06-28T05:17:10.000Z</time>
      </trkpt>
      <trkpt lat="42.75404" lon="1.48689">
        <ele>1346</ele>
        <time>2026-06-28T05:17:11.000Z</time>
      </trkpt>
      <trkpt lat="42.75405" lon="1.4869">
        <ele>1346</ele>
        <time>2026-06-28T05:17:12.000Z</time>
      </trkpt>
      <trkpt lat="42.75406" lon="1.48692">
        <ele>1346</ele>
        <time>2026-06-28T05:17:13.000Z</time>
      </trkpt>
      <trkpt lat="42.75408" lon="1.48694">
        <ele>1346</ele>
        <time>2026-06-28T05:17:14.000Z</time>
      </trkpt>
      <trkpt lat="42.75409" lon="1.48696">
        <ele>1346</ele>
        <time>2026-06-28T05:17:15.000Z</time>
      </trkpt>
      <trkpt lat="42.7541" lon="1.48698">
        <ele>1346</ele>
        <time>2026-06-28T05:17:16.000Z</time>
      </trkpt>
      <trkpt lat="42.75411" lon="1.487">
        <ele>1347</ele>
        <time>2026-06-28T05:17:17.000Z</time>
      </trkpt>
      <trkpt lat="42.75413" lon="1.48701">
        <ele>1347</ele>
        <time>2026-06-28T05:17:18.000Z</time>
      </trkpt>
      <trkpt lat="42.75414" lon="1.48703">
        <ele>1347</ele>
        <time>2026-06-28T05:17:19.000Z</time>
      </trkpt>
      <trkpt lat="42.75416" lon="1.48705">
        <ele>1347</ele>
        <time>2026-06-28T05:17:20.000Z</time>
      </trkpt>
      <trkpt lat="42.75417" lon="1.48707">
        <ele>1347</ele>
        <time>2026-06-28T05:17:21.000Z</time>
      </trkpt>
      <trkpt lat="42.75419" lon="1.4871">
        <ele>1347</ele>
        <time>2026-06-28T05:17:22.000Z</time>
      </trkpt>
      <trkpt lat="42.7542" lon="1.48712">
        <ele>1347</ele>
        <time>2026-06-28T05:17:23.000Z</time>
      </trkpt>
      <trkpt lat="42.75421" lon="1.48714">
        <ele>1347</ele>
        <time>2026-06-28T05:17:24.000Z</time>
      </trkpt>
      <trkpt lat="42.75422" lon="1.48716">
        <ele>1347</ele>
        <time>2026-06-28T05:17:25.000Z</time>
      </trkpt>
      <trkpt lat="42.75424" lon="1.48718">
        <ele>1347</ele>
        <time>2026-06-28T05:17:26.000Z</time>
      </trkpt>
      <trkpt lat="42.75425" lon="1.48721">
        <ele>1347</ele>
        <time>2026-06-28T05:17:27.000Z</time>
      </trkpt>
      <trkpt lat="42.75425" lon="1.48723">
        <ele>1347</ele>
        <time>2026-06-28T05:17:28.000Z</time>
      </trkpt>
      <trkpt lat="42.75426" lon="1.48726">
        <ele>1348</ele>
        <time>2026-06-28T05:17:29.000Z</time>
      </trkpt>
      <trkpt lat="42.75427" lon="1.48728">
        <ele>1348</ele>
        <time>2026-06-28T05:17:30.000Z</time>
      </trkpt>
      <trkpt lat="42.75427" lon="1.4873">
        <ele>1348</ele>
        <time>2026-06-28T05:17:31.000Z</time>
      </trkpt>
      <trkpt lat="42.75428" lon="1.48733">
        <ele>1348</ele>
        <time>2026-06-28T05:17:32.000Z</time>
      </trkpt>
      <trkpt lat="42.75429" lon="1.48735">
        <ele>1348</ele>
        <time>2026-06-28T05:17:33.000Z</time>
      </trkpt>
      <trkpt lat="42.7543" lon="1.48737">
        <ele>1349</ele>
        <time>2026-06-28T05:17:34.000Z</time>
      </trkpt>
      <trkpt lat="42.75431" lon="1.4874">
        <ele>1349</ele>
        <time>2026-06-28T05:17:35.000Z</time>
      </trkpt>
      <trkpt lat="42.75432" lon="1.48742">
        <ele>1349</ele>
        <time>2026-06-28T05:17:36.000Z</time>
      </trkpt>
      <trkpt lat="42.75432" lon="1.48744">
        <ele>1349</ele>
        <time>2026-06-28T05:17:37.000Z</time>
      </trkpt>
      <trkpt lat="42.75433" lon="1.48747">
        <ele>1349</ele>
        <time>2026-06-28T05:17:38.000Z</time>
      </trkpt>
      <trkpt lat="42.75433" lon="1.48749">
        <ele>1350</ele>
        <time>2026-06-28T05:17:39.000Z</time>
      </trkpt>
      <trkpt lat="42.75434" lon="1.48752">
        <ele>1350</ele>
        <time>2026-06-28T05:17:40.000Z</time>
      </trkpt>
      <trkpt lat="42.75435" lon="1.48754">
        <ele>1350</ele>
        <time>2026-06-28T05:17:41.000Z</time>
      </trkpt>
      <trkpt lat="42.75435" lon="1.48757">
        <ele>1351</ele>
        <time>2026-06-28T05:17:42.000Z</time>
      </trkpt>
      <trkpt lat="42.75436" lon="1.4876">
        <ele>1351</ele>
        <time>2026-06-28T05:17:43.000Z</time>
      </trkpt>
      <trkpt lat="42.75436" lon="1.48763">
        <ele>1352</ele>
        <time>2026-06-28T05:17:44.000Z</time>
      </trkpt>
      <trkpt lat="42.75436" lon="1.48765">
        <ele>1352</ele>
        <time>2026-06-28T05:17:45.000Z</time>
      </trkpt>
      <trkpt lat="42.75437" lon="1.48768">
        <ele>1352</ele>
        <time>2026-06-28T05:17:46.000Z</time>
      </trkpt>
      <trkpt lat="42.75437" lon="1.4877">
        <ele>1353</ele>
        <time>2026-06-28T05:17:47.000Z</time>
      </trkpt>
      <trkpt lat="42.75438" lon="1.48773">
        <ele>1353</ele>
        <time>2026-06-28T05:17:48.000Z</time>
      </trkpt>
      <trkpt lat="42.75438" lon="1.48775">
        <ele>1354</ele>
        <time>2026-06-28T05:17:49.000Z</time>
      </trkpt>
      <trkpt lat="42.75439" lon="1.48778">
        <ele>1354</ele>
        <time>2026-06-28T05:17:50.000Z</time>
      </trkpt>
      <trkpt lat="42.75439" lon="1.48781">
        <ele>1354</ele>
        <time>2026-06-28T05:17:51.000Z</time>
      </trkpt>
      <trkpt lat="42.75439" lon="1.48783">
        <ele>1354</ele>
        <time>2026-06-28T05:17:52.000Z</time>
      </trkpt>
      <trkpt lat="42.75439" lon="1.48785">
        <ele>1354</ele>
        <time>2026-06-28T05:17:53.000Z</time>
      </trkpt>
      <trkpt lat="42.7544" lon="1.48788">
        <ele>1355</ele>
        <time>2026-06-28T05:17:54.000Z</time>
      </trkpt>
      <trkpt lat="42.7544" lon="1.4879">
        <ele>1355</ele>
        <time>2026-06-28T05:17:55.000Z</time>
      </trkpt>
      <trkpt lat="42.75441" lon="1.48792">
        <ele>1355</ele>
        <time>2026-06-28T05:17:56.000Z</time>
      </trkpt>
      <trkpt lat="42.75441" lon="1.48795">
        <ele>1355</ele>
        <time>2026-06-28T05:17:57.000Z</time>
      </trkpt>
      <trkpt lat="42.75442" lon="1.48797">
        <ele>1355</ele>
        <time>2026-06-28T05:17:58.000Z</time>
      </trkpt>
      <trkpt lat="42.75443" lon="1.48799">
        <ele>1354</ele>
        <time>2026-06-28T05:17:59.000Z</time>
      </trkpt>
      <trkpt lat="42.75444" lon="1.48802">
        <ele>1354</ele>
        <time>2026-06-28T05:18:00.000Z</time>
      </trkpt>
      <trkpt lat="42.75444" lon="1.48805">
        <ele>1354</ele>
        <time>2026-06-28T05:18:01.000Z</time>
      </trkpt>
      <trkpt lat="42.75444" lon="1.48807">
        <ele>1354</ele>
        <time>2026-06-28T05:18:02.000Z</time>
      </trkpt>
      <trkpt lat="42.75445" lon="1.48809">
        <ele>1354</ele>
        <time>2026-06-28T05:18:03.000Z</time>
      </trkpt>
      <trkpt lat="42.75445" lon="1.48812">
        <ele>1355</ele>
        <time>2026-06-28T05:18:04.000Z</time>
      </trkpt>
      <trkpt lat="42.75445" lon="1.48814">
        <ele>1355</ele>
        <time>2026-06-28T05:18:05.000Z</time>
      </trkpt>
      <trkpt lat="42.75445" lon="1.48817">
        <ele>1355</ele>
        <time>2026-06-28T05:18:06.000Z</time>
      </trkpt>
      <trkpt lat="42.75445" lon="1.48819">
        <ele>1355</ele>
        <time>2026-06-28T05:18:07.000Z</time>
      </trkpt>
      <trkpt lat="42.75445" lon="1.48822">
        <ele>1355</ele>
        <time>2026-06-28T05:18:08.000Z</time>
      </trkpt>
      <trkpt lat="42.75444" lon="1.48824">
        <ele>1355</ele>
        <time>2026-06-28T05:18:09.000Z</time>
      </trkpt>
      <trkpt lat="42.75444" lon="1.48826">
        <ele>1356</ele>
        <time>2026-06-28T05:18:10.000Z</time>
      </trkpt>
      <trkpt lat="42.75444" lon="1.48829">
        <ele>1356</ele>
        <time>2026-06-28T05:18:11.000Z</time>
      </trkpt>
      <trkpt lat="42.75443" lon="1.48831">
        <ele>1356</ele>
        <time>2026-06-28T05:18:12.000Z</time>
      </trkpt>
      <trkpt lat="42.75442" lon="1.48834">
        <ele>1357</ele>
        <time>2026-06-28T05:18:13.000Z</time>
      </trkpt>
      <trkpt lat="42.75441" lon="1.48836">
        <ele>1357</ele>
        <time>2026-06-28T05:18:14.000Z</time>
      </trkpt>
      <trkpt lat="42.7544" lon="1.48838">
        <ele>1358</ele>
        <time>2026-06-28T05:18:15.000Z</time>
      </trkpt>
      <trkpt lat="42.75439" lon="1.4884">
        <ele>1359</ele>
        <time>2026-06-28T05:18:16.000Z</time>
      </trkpt>
      <trkpt lat="42.75438" lon="1.48843">
        <ele>1359</ele>
        <time>2026-06-28T05:18:17.000Z</time>
      </trkpt>
      <trkpt lat="42.75437" lon="1.48845">
        <ele>1359</ele>
        <time>2026-06-28T05:18:18.000Z</time>
      </trkpt>
      <trkpt lat="42.75436" lon="1.48847">
        <ele>1360</ele>
        <time>2026-06-28T05:18:19.000Z</time>
      </trkpt>
      <trkpt lat="42.75435" lon="1.48849">
        <ele>1359</ele>
        <time>2026-06-28T05:18:20.000Z</time>
      </trkpt>
      <trkpt lat="42.75434" lon="1.4885">
        <ele>1359</ele>
        <time>2026-06-28T05:18:21.000Z</time>
      </trkpt>
      <trkpt lat="42.75433" lon="1.48852">
        <ele>1359</ele>
        <time>2026-06-28T05:18:22.000Z</time>
      </trkpt>
      <trkpt lat="42.75432" lon="1.48854">
        <ele>1359</ele>
        <time>2026-06-28T05:18:23.000Z</time>
      </trkpt>
      <trkpt lat="42.75431" lon="1.48856">
        <ele>1359</ele>
        <time>2026-06-28T05:18:24.000Z</time>
      </trkpt>
      <trkpt lat="42.7543" lon="1.48857">
        <ele>1359</ele>
        <time>2026-06-28T05:18:25.000Z</time>
      </trkpt>
      <trkpt lat="42.75428" lon="1.48859">
        <ele>1360</ele>
        <time>2026-06-28T05:18:26.000Z</time>
      </trkpt>
      <trkpt lat="42.75427" lon="1.48861">
        <ele>1361</ele>
        <time>2026-06-28T05:18:27.000Z</time>
      </trkpt>
      <trkpt lat="42.75426" lon="1.48863">
        <ele>1361</ele>
        <time>2026-06-28T05:18:28.000Z</time>
      </trkpt>
      <trkpt lat="42.75426" lon="1.48865">
        <ele>1362</ele>
        <time>2026-06-28T05:18:29.000Z</time>
      </trkpt>
      <trkpt lat="42.75424" lon="1.48868">
        <ele>1362</ele>
        <time>2026-06-28T05:18:30.000Z</time>
      </trkpt>
      <trkpt lat="42.75423" lon="1.4887">
        <ele>1363</ele>
        <time>2026-06-28T05:18:31.000Z</time>
      </trkpt>
      <trkpt lat="42.75422" lon="1.48872">
        <ele>1363</ele>
        <time>2026-06-28T05:18:32.000Z</time>
      </trkpt>
      <trkpt lat="42.75422" lon="1.48874">
        <ele>1364</ele>
        <time>2026-06-28T05:18:33.000Z</time>
      </trkpt>
      <trkpt lat="42.75421" lon="1.48876">
        <ele>1365</ele>
        <time>2026-06-28T05:18:34.000Z</time>
      </trkpt>
      <trkpt lat="42.7542" lon="1.48879">
        <ele>1365</ele>
        <time>2026-06-28T05:18:35.000Z</time>
      </trkpt>
      <trkpt lat="42.75419" lon="1.48881">
        <ele>1365</ele>
        <time>2026-06-28T05:18:36.000Z</time>
      </trkpt>
      <trkpt lat="42.75418" lon="1.48883">
        <ele>1366</ele>
        <time>2026-06-28T05:18:37.000Z</time>
      </trkpt>
      <trkpt lat="42.75417" lon="1.48885">
        <ele>1366</ele>
        <time>2026-06-28T05:18:38.000Z</time>
      </trkpt>
      <trkpt lat="42.75416" lon="1.48887">
        <ele>1366</ele>
        <time>2026-06-28T05:18:39.000Z</time>
      </trkpt>
      <trkpt lat="42.75415" lon="1.48889">
        <ele>1366</ele>
        <time>2026-06-28T05:18:40.000Z</time>
      </trkpt>
      <trkpt lat="42.75413" lon="1.4889">
        <ele>1367</ele>
        <time>2026-06-28T05:18:41.000Z</time>
      </trkpt>
      <trkpt lat="42.75412" lon="1.48892">
        <ele>1367</ele>
        <time>2026-06-28T05:18:42.000Z</time>
      </trkpt>
      <trkpt lat="42.75411" lon="1.48894">
        <ele>1367</ele>
        <time>2026-06-28T05:18:43.000Z</time>
      </trkpt>
      <trkpt lat="42.7541" lon="1.48896">
        <ele>1367</ele>
        <time>2026-06-28T05:18:44.000Z</time>
      </trkpt>
      <trkpt lat="42.75409" lon="1.48898">
        <ele>1367</ele>
        <time>2026-06-28T05:18:45.000Z</time>
      </trkpt>
      <trkpt lat="42.75408" lon="1.489">
        <ele>1368</ele>
        <time>2026-06-28T05:18:46.000Z</time>
      </trkpt>
      <trkpt lat="42.75407" lon="1.48902">
        <ele>1368</ele>
        <time>2026-06-28T05:18:47.000Z</time>
      </trkpt>
      <trkpt lat="42.75405" lon="1.48904">
        <ele>1369</ele>
        <time>2026-06-28T05:18:48.000Z</time>
      </trkpt>
      <trkpt lat="42.75404" lon="1.48906">
        <ele>1369</ele>
        <time>2026-06-28T05:18:49.000Z</time>
      </trkpt>
      <trkpt lat="42.75403" lon="1.48909">
        <ele>1369</ele>
        <time>2026-06-28T05:18:50.000Z</time>
      </trkpt>
      <trkpt lat="42.75403" lon="1.48911">
        <ele>1370</ele>
        <time>2026-06-28T05:18:51.000Z</time>
      </trkpt>
      <trkpt lat="42.75401" lon="1.48912">
        <ele>1370</ele>
        <time>2026-06-28T05:18:52.000Z</time>
      </trkpt>
      <trkpt lat="42.754" lon="1.48914">
        <ele>1370</ele>
        <time>2026-06-28T05:18:53.000Z</time>
      </trkpt>
      <trkpt lat="42.75399" lon="1.48916">
        <ele>1371</ele>
        <time>2026-06-28T05:18:54.000Z</time>
      </trkpt>
      <trkpt lat="42.75398" lon="1.48918">
        <ele>1371</ele>
        <time>2026-06-28T05:18:55.000Z</time>
      </trkpt>
      <trkpt lat="42.75397" lon="1.4892">
        <ele>1371</ele>
        <time>2026-06-28T05:18:56.000Z</time>
      </trkpt>
      <trkpt lat="42.75396" lon="1.48922">
        <ele>1371</ele>
        <time>2026-06-28T05:18:57.000Z</time>
      </trkpt>
      <trkpt lat="42.75395" lon="1.48924">
        <ele>1372</ele>
        <time>2026-06-28T05:18:58.000Z</time>
      </trkpt>
      <trkpt lat="42.75394" lon="1.48927">
        <ele>1372</ele>
        <time>2026-06-28T05:18:59.000Z</time>
      </trkpt>
      <trkpt lat="42.75393" lon="1.48929">
        <ele>1372</ele>
        <time>2026-06-28T05:19:00.000Z</time>
      </trkpt>
      <trkpt lat="42.75392" lon="1.48932">
        <ele>1372</ele>
        <time>2026-06-28T05:19:01.000Z</time>
      </trkpt>
      <trkpt lat="42.7539" lon="1.48934">
        <ele>1372</ele>
        <time>2026-06-28T05:19:02.000Z</time>
      </trkpt>
      <trkpt lat="42.75389" lon="1.48936">
        <ele>1372</ele>
        <time>2026-06-28T05:19:03.000Z</time>
      </trkpt>
      <trkpt lat="42.75388" lon="1.48938">
        <ele>1373</ele>
        <time>2026-06-28T05:19:04.000Z</time>
      </trkpt>
      <trkpt lat="42.75387" lon="1.4894">
        <ele>1373</ele>
        <time>2026-06-28T05:19:05.000Z</time>
      </trkpt>
      <trkpt lat="42.75387" lon="1.48943">
        <ele>1373</ele>
        <time>2026-06-28T05:19:06.000Z</time>
      </trkpt>
      <trkpt lat="42.75386" lon="1.48945">
        <ele>1373</ele>
        <time>2026-06-28T05:19:07.000Z</time>
      </trkpt>
      <trkpt lat="42.75385" lon="1.48948">
        <ele>1373</ele>
        <time>2026-06-28T05:19:08.000Z</time>
      </trkpt>
      <trkpt lat="42.75384" lon="1.48951">
        <ele>1373</ele>
        <time>2026-06-28T05:19:09.000Z</time>
      </trkpt>
      <trkpt lat="42.75383" lon="1.48953">
        <ele>1373</ele>
        <time>2026-06-28T05:19:10.000Z</time>
      </trkpt>
      <trkpt lat="42.75383" lon="1.48955">
        <ele>1373</ele>
        <time>2026-06-28T05:19:11.000Z</time>
      </trkpt>
      <trkpt lat="42.75382" lon="1.48957">
        <ele>1373</ele>
        <time>2026-06-28T05:19:12.000Z</time>
      </trkpt>
      <trkpt lat="42.75381" lon="1.48959">
        <ele>1374</ele>
        <time>2026-06-28T05:19:13.000Z</time>
      </trkpt>
      <trkpt lat="42.7538" lon="1.48961">
        <ele>1374</ele>
        <time>2026-06-28T05:19:14.000Z</time>
      </trkpt>
      <trkpt lat="42.75379" lon="1.48964">
        <ele>1374</ele>
        <time>2026-06-28T05:19:15.000Z</time>
      </trkpt>
      <trkpt lat="42.75379" lon="1.48966">
        <ele>1375</ele>
        <time>2026-06-28T05:19:16.000Z</time>
      </trkpt>
      <trkpt lat="42.75378" lon="1.48968">
        <ele>1375</ele>
        <time>2026-06-28T05:19:17.000Z</time>
      </trkpt>
      <trkpt lat="42.75377" lon="1.48971">
        <ele>1376</ele>
        <time>2026-06-28T05:19:18.000Z</time>
      </trkpt>
      <trkpt lat="42.75376" lon="1.48973">
        <ele>1376</ele>
        <time>2026-06-28T05:19:19.000Z</time>
      </trkpt>
      <trkpt lat="42.75376" lon="1.48975">
        <ele>1377</ele>
        <time>2026-06-28T05:19:20.000Z</time>
      </trkpt>
      <trkpt lat="42.75376" lon="1.48978">
        <ele>1377</ele>
        <time>2026-06-28T05:19:21.000Z</time>
      </trkpt>
      <trkpt lat="42.75375" lon="1.4898">
        <ele>1377</ele>
        <time>2026-06-28T05:19:22.000Z</time>
      </trkpt>
      <trkpt lat="42.75375" lon="1.48983">
        <ele>1377</ele>
        <time>2026-06-28T05:19:23.000Z</time>
      </trkpt>
      <trkpt lat="42.75375" lon="1.48986">
        <ele>1377</ele>
        <time>2026-06-28T05:19:24.000Z</time>
      </trkpt>
      <trkpt lat="42.75375" lon="1.48988">
        <ele>1377</ele>
        <time>2026-06-28T05:19:25.000Z</time>
      </trkpt>
      <trkpt lat="42.75374" lon="1.48991">
        <ele>1377</ele>
        <time>2026-06-28T05:19:26.000Z</time>
      </trkpt>
      <trkpt lat="42.75374" lon="1.48994">
        <ele>1377</ele>
        <time>2026-06-28T05:19:27.000Z</time>
      </trkpt>
      <trkpt lat="42.75374" lon="1.48996">
        <ele>1378</ele>
        <time>2026-06-28T05:19:28.000Z</time>
      </trkpt>
      <trkpt lat="42.75373" lon="1.48999">
        <ele>1377</ele>
        <time>2026-06-28T05:19:29.000Z</time>
      </trkpt>
      <trkpt lat="42.75373" lon="1.49001">
        <ele>1377</ele>
        <time>2026-06-28T05:19:30.000Z</time>
      </trkpt>
      <trkpt lat="42.75372" lon="1.49004">
        <ele>1377</ele>
        <time>2026-06-28T05:19:31.000Z</time>
      </trkpt>
      <trkpt lat="42.75372" lon="1.49007">
        <ele>1377</ele>
        <time>2026-06-28T05:19:32.000Z</time>
      </trkpt>
      <trkpt lat="42.75371" lon="1.49009">
        <ele>1377</ele>
        <time>2026-06-28T05:19:33.000Z</time>
      </trkpt>
      <trkpt lat="42.75371" lon="1.49012">
        <ele>1377</ele>
        <time>2026-06-28T05:19:34.000Z</time>
      </trkpt>
      <trkpt lat="42.75371" lon="1.49014">
        <ele>1377</ele>
        <time>2026-06-28T05:19:35.000Z</time>
      </trkpt>
      <trkpt lat="42.75371" lon="1.49017">
        <ele>1377</ele>
        <time>2026-06-28T05:19:36.000Z</time>
      </trkpt>
      <trkpt lat="42.7537" lon="1.49019">
        <ele>1377</ele>
        <time>2026-06-28T05:19:37.000Z</time>
      </trkpt>
      <trkpt lat="42.7537" lon="1.49022">
        <ele>1378</ele>
        <time>2026-06-28T05:19:38.000Z</time>
      </trkpt>
      <trkpt lat="42.7537" lon="1.49024">
        <ele>1378</ele>
        <time>2026-06-28T05:19:39.000Z</time>
      </trkpt>
      <trkpt lat="42.7537" lon="1.49026">
        <ele>1378</ele>
        <time>2026-06-28T05:19:40.000Z</time>
      </trkpt>
      <trkpt lat="42.75369" lon="1.49029">
        <ele>1379</ele>
        <time>2026-06-28T05:19:41.000Z</time>
      </trkpt>
      <trkpt lat="42.75369" lon="1.49031">
        <ele>1379</ele>
        <time>2026-06-28T05:19:42.000Z</time>
      </trkpt>
      <trkpt lat="42.75369" lon="1.49034">
        <ele>1379</ele>
        <time>2026-06-28T05:19:43.000Z</time>
      </trkpt>
      <trkpt lat="42.75368" lon="1.49037">
        <ele>1379</ele>
        <time>2026-06-28T05:19:44.000Z</time>
      </trkpt>
      <trkpt lat="42.75368" lon="1.49039">
        <ele>1379</ele>
        <time>2026-06-28T05:19:45.000Z</time>
      </trkpt>
      <trkpt lat="42.75367" lon="1.49041">
        <ele>1380</ele>
        <time>2026-06-28T05:19:46.000Z</time>
      </trkpt>
      <trkpt lat="42.75366" lon="1.49044">
        <ele>1380</ele>
        <time>2026-06-28T05:19:47.000Z</time>
      </trkpt>
      <trkpt lat="42.75366" lon="1.49047">
        <ele>1379</ele>
        <time>2026-06-28T05:19:48.000Z</time>
      </trkpt>
      <trkpt lat="42.75366" lon="1.49049">
        <ele>1380</ele>
        <time>2026-06-28T05:19:49.000Z</time>
      </trkpt>
      <trkpt lat="42.75365" lon="1.49052">
        <ele>1380</ele>
        <time>2026-06-28T05:19:50.000Z</time>
      </trkpt>
      <trkpt lat="42.75364" lon="1.49054">
        <ele>1380</ele>
        <time>2026-06-28T05:19:51.000Z</time>
      </trkpt>
      <trkpt lat="42.75364" lon="1.49057">
        <ele>1381</ele>
        <time>2026-06-28T05:19:52.000Z</time>
      </trkpt>
      <trkpt lat="42.75363" lon="1.49059">
        <ele>1381</ele>
        <time>2026-06-28T05:19:53.000Z</time>
      </trkpt>
      <trkpt lat="42.75363" lon="1.49062">
        <ele>1381</ele>
        <time>2026-06-28T05:19:54.000Z</time>
      </trkpt>
      <trkpt lat="42.75363" lon="1.49064">
        <ele>1381</ele>
        <time>2026-06-28T05:19:55.000Z</time>
      </trkpt>
      <trkpt lat="42.75362" lon="1.49067">
        <ele>1381</ele>
        <time>2026-06-28T05:19:56.000Z</time>
      </trkpt>
      <trkpt lat="42.75362" lon="1.4907">
        <ele>1381</ele>
        <time>2026-06-28T05:19:57.000Z</time>
      </trkpt>
      <trkpt lat="42.75361" lon="1.49072">
        <ele>1381</ele>
        <time>2026-06-28T05:19:58.000Z</time>
      </trkpt>
      <trkpt lat="42.75361" lon="1.49074">
        <ele>1381</ele>
        <time>2026-06-28T05:19:59.000Z</time>
      </trkpt>
      <trkpt lat="42.7536" lon="1.49077">
        <ele>1381</ele>
        <time>2026-06-28T05:20:00.000Z</time>
      </trkpt>
      <trkpt lat="42.75359" lon="1.4908">
        <ele>1381</ele>
        <time>2026-06-28T05:20:01.000Z</time>
      </trkpt>
      <trkpt lat="42.75359" lon="1.49082">
        <ele>1381</ele>
        <time>2026-06-28T05:20:02.000Z</time>
      </trkpt>
      <trkpt lat="42.75358" lon="1.49085">
        <ele>1382</ele>
        <time>2026-06-28T05:20:03.000Z</time>
      </trkpt>
      <trkpt lat="42.75358" lon="1.49087">
        <ele>1382</ele>
        <time>2026-06-28T05:20:04.000Z</time>
      </trkpt>
      <trkpt lat="42.75357" lon="1.49089">
        <ele>1381</ele>
        <time>2026-06-28T05:20:05.000Z</time>
      </trkpt>
      <trkpt lat="42.75356" lon="1.49092">
        <ele>1381</ele>
        <time>2026-06-28T05:20:06.000Z</time>
      </trkpt>
      <trkpt lat="42.75355" lon="1.49095">
        <ele>1382</ele>
        <time>2026-06-28T05:20:07.000Z</time>
      </trkpt>
      <trkpt lat="42.75355" lon="1.49097">
        <ele>1382</ele>
        <time>2026-06-28T05:20:08.000Z</time>
      </trkpt>
      <trkpt lat="42.75355" lon="1.491">
        <ele>1382</ele>
        <time>2026-06-28T05:20:09.000Z</time>
      </trkpt>
      <trkpt lat="42.75354" lon="1.49102">
        <ele>1382</ele>
        <time>2026-06-28T05:20:10.000Z</time>
      </trkpt>
      <trkpt lat="42.75353" lon="1.49105">
        <ele>1382</ele>
        <time>2026-06-28T05:20:11.000Z</time>
      </trkpt>
      <trkpt lat="42.75352" lon="1.49107">
        <ele>1382</ele>
        <time>2026-06-28T05:20:12.000Z</time>
      </trkpt>
      <trkpt lat="42.75351" lon="1.49109">
        <ele>1382</ele>
        <time>2026-06-28T05:20:13.000Z</time>
      </trkpt>
      <trkpt lat="42.75351" lon="1.49111">
        <ele>1383</ele>
        <time>2026-06-28T05:20:14.000Z</time>
      </trkpt>
      <trkpt lat="42.7535" lon="1.49114">
        <ele>1382</ele>
        <time>2026-06-28T05:20:15.000Z</time>
      </trkpt>
      <trkpt lat="42.75349" lon="1.49117">
        <ele>1382</ele>
        <time>2026-06-28T05:20:16.000Z</time>
      </trkpt>
      <trkpt lat="42.75349" lon="1.49119">
        <ele>1382</ele>
        <time>2026-06-28T05:20:17.000Z</time>
      </trkpt>
      <trkpt lat="42.75348" lon="1.49122">
        <ele>1382</ele>
        <time>2026-06-28T05:20:18.000Z</time>
      </trkpt>
      <trkpt lat="42.75348" lon="1.49125">
        <ele>1382</ele>
        <time>2026-06-28T05:20:19.000Z</time>
      </trkpt>
      <trkpt lat="42.75347" lon="1.49127">
        <ele>1382</ele>
        <time>2026-06-28T05:20:20.000Z</time>
      </trkpt>
      <trkpt lat="42.75346" lon="1.4913">
        <ele>1383</ele>
        <time>2026-06-28T05:20:21.000Z</time>
      </trkpt>
      <trkpt lat="42.75346" lon="1.49132">
        <ele>1383</ele>
        <time>2026-06-28T05:20:22.000Z</time>
      </trkpt>
      <trkpt lat="42.75345" lon="1.49134">
        <ele>1384</ele>
        <time>2026-06-28T05:20:23.000Z</time>
      </trkpt>
      <trkpt lat="42.75345" lon="1.49136">
        <ele>1384</ele>
        <time>2026-06-28T05:20:24.000Z</time>
      </trkpt>
      <trkpt lat="42.75344" lon="1.49139">
        <ele>1385</ele>
        <time>2026-06-28T05:20:25.000Z</time>
      </trkpt>
      <trkpt lat="42.75344" lon="1.49142">
        <ele>1385</ele>
        <time>2026-06-28T05:20:26.000Z</time>
      </trkpt>
      <trkpt lat="42.75343" lon="1.49144">
        <ele>1386</ele>
        <time>2026-06-28T05:20:27.000Z</time>
      </trkpt>
      <trkpt lat="42.75343" lon="1.49147">
        <ele>1386</ele>
        <time>2026-06-28T05:20:28.000Z</time>
      </trkpt>
      <trkpt lat="42.75342" lon="1.49149">
        <ele>1386</ele>
        <time>2026-06-28T05:20:29.000Z</time>
      </trkpt>
      <trkpt lat="42.75342" lon="1.49152">
        <ele>1386</ele>
        <time>2026-06-28T05:20:30.000Z</time>
      </trkpt>
      <trkpt lat="42.75341" lon="1.49154">
        <ele>1386</ele>
        <time>2026-06-28T05:20:31.000Z</time>
      </trkpt>
      <trkpt lat="42.75341" lon="1.49157">
        <ele>1386</ele>
        <time>2026-06-28T05:20:32.000Z</time>
      </trkpt>
      <trkpt lat="42.7534" lon="1.49159">
        <ele>1386</ele>
        <time>2026-06-28T05:20:33.000Z</time>
      </trkpt>
      <trkpt lat="42.7534" lon="1.49162">
        <ele>1386</ele>
        <time>2026-06-28T05:20:34.000Z</time>
      </trkpt>
      <trkpt lat="42.75339" lon="1.49164">
        <ele>1386</ele>
        <time>2026-06-28T05:20:35.000Z</time>
      </trkpt>
      <trkpt lat="42.75339" lon="1.49167">
        <ele>1386</ele>
        <time>2026-06-28T05:20:36.000Z</time>
      </trkpt>
      <trkpt lat="42.75338" lon="1.49169">
        <ele>1386</ele>
        <time>2026-06-28T05:20:37.000Z</time>
      </trkpt>
      <trkpt lat="42.75338" lon="1.49172">
        <ele>1387</ele>
        <time>2026-06-28T05:20:38.000Z</time>
      </trkpt>
      <trkpt lat="42.75337" lon="1.49174">
        <ele>1387</ele>
        <time>2026-06-28T05:20:39.000Z</time>
      </trkpt>
      <trkpt lat="42.75337" lon="1.49177">
        <ele>1387</ele>
        <time>2026-06-28T05:20:40.000Z</time>
      </trkpt>
      <trkpt lat="42.75335" lon="1.49179">
        <ele>1388</ele>
        <time>2026-06-28T05:20:41.000Z</time>
      </trkpt>
      <trkpt lat="42.75334" lon="1.49182">
        <ele>1387</ele>
        <time>2026-06-28T05:20:42.000Z</time>
      </trkpt>
      <trkpt lat="42.75333" lon="1.49185">
        <ele>1388</ele>
        <time>2026-06-28T05:20:43.000Z</time>
      </trkpt>
      <trkpt lat="42.75332" lon="1.49186">
        <ele>1388</ele>
        <time>2026-06-28T05:20:44.000Z</time>
      </trkpt>
      <trkpt lat="42.75331" lon="1.49188">
        <ele>1388</ele>
        <time>2026-06-28T05:20:45.000Z</time>
      </trkpt>
      <trkpt lat="42.7533" lon="1.4919">
        <ele>1388</ele>
        <time>2026-06-28T05:20:46.000Z</time>
      </trkpt>
      <trkpt lat="42.75328" lon="1.49193">
        <ele>1389</ele>
        <time>2026-06-28T05:20:47.000Z</time>
      </trkpt>
      <trkpt lat="42.75327" lon="1.49194">
        <ele>1390</ele>
        <time>2026-06-28T05:20:48.000Z</time>
      </trkpt>
      <trkpt lat="42.75326" lon="1.49197">
        <ele>1390</ele>
        <time>2026-06-28T05:20:49.000Z</time>
      </trkpt>
      <trkpt lat="42.75324" lon="1.49198">
        <ele>1391</ele>
        <time>2026-06-28T05:20:50.000Z</time>
      </trkpt>
      <trkpt lat="42.75323" lon="1.49199">
        <ele>1391</ele>
        <time>2026-06-28T05:20:51.000Z</time>
      </trkpt>
      <trkpt lat="42.75322" lon="1.49201">
        <ele>1391</ele>
        <time>2026-06-28T05:20:52.000Z</time>
      </trkpt>
      <trkpt lat="42.7532" lon="1.49202">
        <ele>1391</ele>
        <time>2026-06-28T05:20:53.000Z</time>
      </trkpt>
      <trkpt lat="42.75318" lon="1.49203">
        <ele>1392</ele>
        <time>2026-06-28T05:20:54.000Z</time>
      </trkpt>
      <trkpt lat="42.75317" lon="1.49203">
        <ele>1392</ele>
        <time>2026-06-28T05:20:55.000Z</time>
      </trkpt>
      <trkpt lat="42.75316" lon="1.49204">
        <ele>1393</ele>
        <time>2026-06-28T05:20:56.000Z</time>
      </trkpt>
      <trkpt lat="42.75314" lon="1.49206">
        <ele>1393</ele>
        <time>2026-06-28T05:20:57.000Z</time>
      </trkpt>
      <trkpt lat="42.75312" lon="1.49207">
        <ele>1394</ele>
        <time>2026-06-28T05:20:58.000Z</time>
      </trkpt>
      <trkpt lat="42.75311" lon="1.49208">
        <ele>1394</ele>
        <time>2026-06-28T05:20:59.000Z</time>
      </trkpt>
      <trkpt lat="42.75309" lon="1.49209">
        <ele>1394</ele>
        <time>2026-06-28T05:21:00.000Z</time>
      </trkpt>
      <trkpt lat="42.75308" lon="1.4921">
        <ele>1395</ele>
        <time>2026-06-28T05:21:01.000Z</time>
      </trkpt>
      <trkpt lat="42.75306" lon="1.49211">
        <ele>1395</ele>
        <time>2026-06-28T05:21:02.000Z</time>
      </trkpt>
      <trkpt lat="42.75305" lon="1.49212">
        <ele>1395</ele>
        <time>2026-06-28T05:21:03.000Z</time>
      </trkpt>
      <trkpt lat="42.75303" lon="1.49213">
        <ele>1396</ele>
        <time>2026-06-28T05:21:04.000Z</time>
      </trkpt>
      <trkpt lat="42.75302" lon="1.49214">
        <ele>1396</ele>
        <time>2026-06-28T05:21:05.000Z</time>
      </trkpt>
      <trkpt lat="42.75301" lon="1.49215">
        <ele>1397</ele>
        <time>2026-06-28T05:21:06.000Z</time>
      </trkpt>
      <trkpt lat="42.75299" lon="1.49216">
        <ele>1397</ele>
        <time>2026-06-28T05:21:07.000Z</time>
      </trkpt>
      <trkpt lat="42.75297" lon="1.49218">
        <ele>1396</ele>
        <time>2026-06-28T05:21:08.000Z</time>
      </trkpt>
      <trkpt lat="42.75296" lon="1.49219">
        <ele>1397</ele>
        <time>2026-06-28T05:21:09.000Z</time>
      </trkpt>
      <trkpt lat="42.75294" lon="1.49221">
        <ele>1397</ele>
        <time>2026-06-28T05:21:10.000Z</time>
      </trkpt>
      <trkpt lat="42.75292" lon="1.49222">
        <ele>1398</ele>
        <time>2026-06-28T05:21:11.000Z</time>
      </trkpt>
      <trkpt lat="42.75291" lon="1.49223">
        <ele>1398</ele>
        <time>2026-06-28T05:21:12.000Z</time>
      </trkpt>
      <trkpt lat="42.75289" lon="1.49225">
        <ele>1398</ele>
        <time>2026-06-28T05:21:13.000Z</time>
      </trkpt>
      <trkpt lat="42.75288" lon="1.49226">
        <ele>1398</ele>
        <time>2026-06-28T05:21:14.000Z</time>
      </trkpt>
      <trkpt lat="42.75286" lon="1.49227">
        <ele>1398</ele>
        <time>2026-06-28T05:21:15.000Z</time>
      </trkpt>
      <trkpt lat="42.75285" lon="1.49229">
        <ele>1399</ele>
        <time>2026-06-28T05:21:16.000Z</time>
      </trkpt>
      <trkpt lat="42.75283" lon="1.4923">
        <ele>1399</ele>
        <time>2026-06-28T05:21:17.000Z</time>
      </trkpt>
      <trkpt lat="42.75282" lon="1.49232">
        <ele>1399</ele>
        <time>2026-06-28T05:21:18.000Z</time>
      </trkpt>
      <trkpt lat="42.7528" lon="1.49233">
        <ele>1399</ele>
        <time>2026-06-28T05:21:19.000Z</time>
      </trkpt>
      <trkpt lat="42.75279" lon="1.49234">
        <ele>1399</ele>
        <time>2026-06-28T05:21:20.000Z</time>
      </trkpt>
      <trkpt lat="42.75277" lon="1.49235">
        <ele>1399</ele>
        <time>2026-06-28T05:21:21.000Z</time>
      </trkpt>
      <trkpt lat="42.75275" lon="1.49236">
        <ele>1400</ele>
        <time>2026-06-28T05:21:22.000Z</time>
      </trkpt>
      <trkpt lat="42.75274" lon="1.49237">
        <ele>1400</ele>
        <time>2026-06-28T05:21:23.000Z</time>
      </trkpt>
      <trkpt lat="42.75272" lon="1.49238">
        <ele>1400</ele>
        <time>2026-06-28T05:21:24.000Z</time>
      </trkpt>
      <trkpt lat="42.75271" lon="1.49239">
        <ele>1401</ele>
        <time>2026-06-28T05:21:25.000Z</time>
      </trkpt>
      <trkpt lat="42.75269" lon="1.4924">
        <ele>1401</ele>
        <time>2026-06-28T05:21:26.000Z</time>
      </trkpt>
      <trkpt lat="42.75268" lon="1.49242">
        <ele>1401</ele>
        <time>2026-06-28T05:21:27.000Z</time>
      </trkpt>
      <trkpt lat="42.75267" lon="1.49243">
        <ele>1401</ele>
        <time>2026-06-28T05:21:28.000Z</time>
      </trkpt>
      <trkpt lat="42.75265" lon="1.49245">
        <ele>1401</ele>
        <time>2026-06-28T05:21:29.000Z</time>
      </trkpt>
      <trkpt lat="42.75263" lon="1.49245">
        <ele>1402</ele>
        <time>2026-06-28T05:21:30.000Z</time>
      </trkpt>
      <trkpt lat="42.75261" lon="1.49246">
        <ele>1402</ele>
        <time>2026-06-28T05:21:31.000Z</time>
      </trkpt>
      <trkpt lat="42.75259" lon="1.49247">
        <ele>1402</ele>
        <time>2026-06-28T05:21:32.000Z</time>
      </trkpt>
      <trkpt lat="42.75258" lon="1.49247">
        <ele>1403</ele>
        <time>2026-06-28T05:21:33.000Z</time>
      </trkpt>
      <trkpt lat="42.75256" lon="1.49248">
        <ele>1403</ele>
        <time>2026-06-28T05:21:34.000Z</time>
      </trkpt>
      <trkpt lat="42.75255" lon="1.49249">
        <ele>1403</ele>
        <time>2026-06-28T05:21:35.000Z</time>
      </trkpt>
      <trkpt lat="42.75253" lon="1.49249">
        <ele>1404</ele>
        <time>2026-06-28T05:21:36.000Z</time>
      </trkpt>
      <trkpt lat="42.75253" lon="1.49249">
        <ele>1404</ele>
        <time>2026-06-28T05:21:37.000Z</time>
      </trkpt>
      <trkpt lat="42.75251" lon="1.49249">
        <ele>1405</ele>
        <time>2026-06-28T05:21:38.000Z</time>
      </trkpt>
      <trkpt lat="42.7525" lon="1.4925">
        <ele>1405</ele>
        <time>2026-06-28T05:21:39.000Z</time>
      </trkpt>
      <trkpt lat="42.75248" lon="1.49251">
        <ele>1405</ele>
        <time>2026-06-28T05:21:40.000Z</time>
      </trkpt>
      <trkpt lat="42.75246" lon="1.49252">
        <ele>1405</ele>
        <time>2026-06-28T05:21:41.000Z</time>
      </trkpt>
      <trkpt lat="42.75244" lon="1.49253">
        <ele>1405</ele>
        <time>2026-06-28T05:21:42.000Z</time>
      </trkpt>
      <trkpt lat="42.75243" lon="1.49254">
        <ele>1405</ele>
        <time>2026-06-28T05:21:43.000Z</time>
      </trkpt>
      <trkpt lat="42.75241" lon="1.49255">
        <ele>1406</ele>
        <time>2026-06-28T05:21:44.000Z</time>
      </trkpt>
      <trkpt lat="42.75239" lon="1.49256">
        <ele>1406</ele>
        <time>2026-06-28T05:21:45.000Z</time>
      </trkpt>
      <trkpt lat="42.75238" lon="1.49256">
        <ele>1406</ele>
        <time>2026-06-28T05:21:46.000Z</time>
      </trkpt>
      <trkpt lat="42.75236" lon="1.49257">
        <ele>1406</ele>
        <time>2026-06-28T05:21:47.000Z</time>
      </trkpt>
      <trkpt lat="42.75234" lon="1.49258">
        <ele>1406</ele>
        <time>2026-06-28T05:21:48.000Z</time>
      </trkpt>
      <trkpt lat="42.75233" lon="1.49259">
        <ele>1406</ele>
        <time>2026-06-28T05:21:49.000Z</time>
      </trkpt>
      <trkpt lat="42.75231" lon="1.49259">
        <ele>1406</ele>
        <time>2026-06-28T05:21:50.000Z</time>
      </trkpt>
      <trkpt lat="42.7523" lon="1.49259">
        <ele>1407</ele>
        <time>2026-06-28T05:21:51.000Z</time>
      </trkpt>
      <trkpt lat="42.75229" lon="1.4926">
        <ele>1407</ele>
        <time>2026-06-28T05:21:52.000Z</time>
      </trkpt>
      <trkpt lat="42.75227" lon="1.49262">
        <ele>1408</ele>
        <time>2026-06-28T05:21:53.000Z</time>
      </trkpt>
      <trkpt lat="42.75226" lon="1.49263">
        <ele>1407</ele>
        <time>2026-06-28T05:21:54.000Z</time>
      </trkpt>
      <trkpt lat="42.75224" lon="1.49264">
        <ele>1408</ele>
        <time>2026-06-28T05:21:55.000Z</time>
      </trkpt>
      <trkpt lat="42.75223" lon="1.49265">
        <ele>1409</ele>
        <time>2026-06-28T05:21:56.000Z</time>
      </trkpt>
      <trkpt lat="42.75221" lon="1.49266">
        <ele>1409</ele>
        <time>2026-06-28T05:21:57.000Z</time>
      </trkpt>
      <trkpt lat="42.75219" lon="1.49267">
        <ele>1409</ele>
        <time>2026-06-28T05:21:58.000Z</time>
      </trkpt>
      <trkpt lat="42.75217" lon="1.49268">
        <ele>1410</ele>
        <time>2026-06-28T05:21:59.000Z</time>
      </trkpt>
      <trkpt lat="42.75216" lon="1.49269">
        <ele>1410</ele>
        <time>2026-06-28T05:22:00.000Z</time>
      </trkpt>
      <trkpt lat="42.75214" lon="1.4927">
        <ele>1411</ele>
        <time>2026-06-28T05:22:01.000Z</time>
      </trkpt>
      <trkpt lat="42.75212" lon="1.49271">
        <ele>1411</ele>
        <time>2026-06-28T05:22:02.000Z</time>
      </trkpt>
      <trkpt lat="42.7521" lon="1.49272">
        <ele>1412</ele>
        <time>2026-06-28T05:22:03.000Z</time>
      </trkpt>
      <trkpt lat="42.75209" lon="1.49273">
        <ele>1412</ele>
        <time>2026-06-28T05:22:04.000Z</time>
      </trkpt>
      <trkpt lat="42.75207" lon="1.49273">
        <ele>1413</ele>
        <time>2026-06-28T05:22:05.000Z</time>
      </trkpt>
      <trkpt lat="42.75205" lon="1.49274">
        <ele>1413</ele>
        <time>2026-06-28T05:22:06.000Z</time>
      </trkpt>
      <trkpt lat="42.75204" lon="1.49275">
        <ele>1414</ele>
        <time>2026-06-28T05:22:07.000Z</time>
      </trkpt>
      <trkpt lat="42.75202" lon="1.49275">
        <ele>1413</ele>
        <time>2026-06-28T05:22:08.000Z</time>
      </trkpt>
      <trkpt lat="42.752" lon="1.49276">
        <ele>1413</ele>
        <time>2026-06-28T05:22:09.000Z</time>
      </trkpt>
      <trkpt lat="42.75198" lon="1.49277">
        <ele>1413</ele>
        <time>2026-06-28T05:22:10.000Z</time>
      </trkpt>
      <trkpt lat="42.75197" lon="1.49277">
        <ele>1413</ele>
        <time>2026-06-28T05:22:11.000Z</time>
      </trkpt>
      <trkpt lat="42.75195" lon="1.49278">
        <ele>1413</ele>
        <time>2026-06-28T05:22:12.000Z</time>
      </trkpt>
      <trkpt lat="42.75193" lon="1.49279">
        <ele>1414</ele>
        <time>2026-06-28T05:22:13.000Z</time>
      </trkpt>
      <trkpt lat="42.75192" lon="1.4928">
        <ele>1414</ele>
        <time>2026-06-28T05:22:14.000Z</time>
      </trkpt>
      <trkpt lat="42.7519" lon="1.49282">
        <ele>1414</ele>
        <time>2026-06-28T05:22:15.000Z</time>
      </trkpt>
      <trkpt lat="42.75189" lon="1.49283">
        <ele>1415</ele>
        <time>2026-06-28T05:22:16.000Z</time>
      </trkpt>
      <trkpt lat="42.75187" lon="1.49284">
        <ele>1415</ele>
        <time>2026-06-28T05:22:17.000Z</time>
      </trkpt>
      <trkpt lat="42.75186" lon="1.49286">
        <ele>1416</ele>
        <time>2026-06-28T05:22:18.000Z</time>
      </trkpt>
      <trkpt lat="42.75185" lon="1.49287">
        <ele>1416</ele>
        <time>2026-06-28T05:22:19.000Z</time>
      </trkpt>
      <trkpt lat="42.75183" lon="1.49288">
        <ele>1416</ele>
        <time>2026-06-28T05:22:20.000Z</time>
      </trkpt>
      <trkpt lat="42.75183" lon="1.49289">
        <ele>1416</ele>
        <time>2026-06-28T05:22:21.000Z</time>
      </trkpt>
      <trkpt lat="42.75182" lon="1.49291">
        <ele>1416</ele>
        <time>2026-06-28T05:22:22.000Z</time>
      </trkpt>
      <trkpt lat="42.75181" lon="1.49294">
        <ele>1416</ele>
        <time>2026-06-28T05:22:23.000Z</time>
      </trkpt>
      <trkpt lat="42.7518" lon="1.49296">
        <ele>1416</ele>
        <time>2026-06-28T05:22:24.000Z</time>
      </trkpt>
      <trkpt lat="42.75179" lon="1.49297">
        <ele>1416</ele>
        <time>2026-06-28T05:22:25.000Z</time>
      </trkpt>
      <trkpt lat="42.75178" lon="1.49299">
        <ele>1416</ele>
        <time>2026-06-28T05:22:26.000Z</time>
      </trkpt>
      <trkpt lat="42.75178" lon="1.49301">
        <ele>1416</ele>
        <time>2026-06-28T05:22:27.000Z</time>
      </trkpt>
      <trkpt lat="42.75177" lon="1.49303">
        <ele>1415</ele>
        <time>2026-06-28T05:22:28.000Z</time>
      </trkpt>
      <trkpt lat="42.75176" lon="1.49305">
        <ele>1415</ele>
        <time>2026-06-28T05:22:29.000Z</time>
      </trkpt>
      <trkpt lat="42.75175" lon="1.49307">
        <ele>1415</ele>
        <time>2026-06-28T05:22:30.000Z</time>
      </trkpt>
      <trkpt lat="42.75174" lon="1.49309">
        <ele>1415</ele>
        <time>2026-06-28T05:22:31.000Z</time>
      </trkpt>
      <trkpt lat="42.75173" lon="1.49311">
        <ele>1416</ele>
        <time>2026-06-28T05:22:32.000Z</time>
      </trkpt>
      <trkpt lat="42.75172" lon="1.49313">
        <ele>1416</ele>
        <time>2026-06-28T05:22:33.000Z</time>
      </trkpt>
      <trkpt lat="42.75172" lon="1.49315">
        <ele>1415</ele>
        <time>2026-06-28T05:22:34.000Z</time>
      </trkpt>
      <trkpt lat="42.75171" lon="1.49317">
        <ele>1416</ele>
        <time>2026-06-28T05:22:35.000Z</time>
      </trkpt>
      <trkpt lat="42.7517" lon="1.49319">
        <ele>1416</ele>
        <time>2026-06-28T05:22:36.000Z</time>
      </trkpt>
      <trkpt lat="42.75169" lon="1.49321">
        <ele>1416</ele>
        <time>2026-06-28T05:22:37.000Z</time>
      </trkpt>
      <trkpt lat="42.75169" lon="1.49323">
        <ele>1416</ele>
        <time>2026-06-28T05:22:38.000Z</time>
      </trkpt>
      <trkpt lat="42.75167" lon="1.49325">
        <ele>1417</ele>
        <time>2026-06-28T05:22:39.000Z</time>
      </trkpt>
      <trkpt lat="42.75167" lon="1.49327">
        <ele>1417</ele>
        <time>2026-06-28T05:22:40.000Z</time>
      </trkpt>
      <trkpt lat="42.75166" lon="1.49329">
        <ele>1417</ele>
        <time>2026-06-28T05:22:41.000Z</time>
      </trkpt>
      <trkpt lat="42.75165" lon="1.49331">
        <ele>1417</ele>
        <time>2026-06-28T05:22:42.000Z</time>
      </trkpt>
      <trkpt lat="42.75164" lon="1.49333">
        <ele>1418</ele>
        <time>2026-06-28T05:22:43.000Z</time>
      </trkpt>
      <trkpt lat="42.75164" lon="1.49335">
        <ele>1418</ele>
        <time>2026-06-28T05:22:44.000Z</time>
      </trkpt>
      <trkpt lat="42.75163" lon="1.49337">
        <ele>1418</ele>
        <time>2026-06-28T05:22:45.000Z</time>
      </trkpt>
      <trkpt lat="42.75162" lon="1.49339">
        <ele>1419</ele>
        <time>2026-06-28T05:22:46.000Z</time>
      </trkpt>
      <trkpt lat="42.75161" lon="1.4934">
        <ele>1419</ele>
        <time>2026-06-28T05:22:47.000Z</time>
      </trkpt>
      <trkpt lat="42.7516" lon="1.49342">
        <ele>1419</ele>
        <time>2026-06-28T05:22:48.000Z</time>
      </trkpt>
      <trkpt lat="42.7516" lon="1.49344">
        <ele>1419</ele>
        <time>2026-06-28T05:22:49.000Z</time>
      </trkpt>
      <trkpt lat="42.7516" lon="1.49345">
        <ele>1420</ele>
        <time>2026-06-28T05:22:50.000Z</time>
      </trkpt>
      <trkpt lat="42.75159" lon="1.49348">
        <ele>1420</ele>
        <time>2026-06-28T05:22:51.000Z</time>
      </trkpt>
      <trkpt lat="42.75158" lon="1.49351">
        <ele>1420</ele>
        <time>2026-06-28T05:22:52.000Z</time>
      </trkpt>
      <trkpt lat="42.75157" lon="1.49353">
        <ele>1420</ele>
        <time>2026-06-28T05:22:53.000Z</time>
      </trkpt>
      <trkpt lat="42.75156" lon="1.49355">
        <ele>1420</ele>
        <time>2026-06-28T05:22:54.000Z</time>
      </trkpt>
      <trkpt lat="42.75156" lon="1.49357">
        <ele>1420</ele>
        <time>2026-06-28T05:22:55.000Z</time>
      </trkpt>
      <trkpt lat="42.75155" lon="1.49359">
        <ele>1420</ele>
        <time>2026-06-28T05:22:56.000Z</time>
      </trkpt>
      <trkpt lat="42.75154" lon="1.49361">
        <ele>1420</ele>
        <time>2026-06-28T05:22:57.000Z</time>
      </trkpt>
      <trkpt lat="42.75153" lon="1.49363">
        <ele>1420</ele>
        <time>2026-06-28T05:22:58.000Z</time>
      </trkpt>
      <trkpt lat="42.75152" lon="1.49365">
        <ele>1421</ele>
        <time>2026-06-28T05:22:59.000Z</time>
      </trkpt>
      <trkpt lat="42.75151" lon="1.49367">
        <ele>1421</ele>
        <time>2026-06-28T05:23:00.000Z</time>
      </trkpt>
      <trkpt lat="42.7515" lon="1.49369">
        <ele>1422</ele>
        <time>2026-06-28T05:23:01.000Z</time>
      </trkpt>
      <trkpt lat="42.7515" lon="1.49371">
        <ele>1422</ele>
        <time>2026-06-28T05:23:02.000Z</time>
      </trkpt>
      <trkpt lat="42.75149" lon="1.49372">
        <ele>1422</ele>
        <time>2026-06-28T05:23:03.000Z</time>
      </trkpt>
      <trkpt lat="42.75148" lon="1.49374">
        <ele>1423</ele>
        <time>2026-06-28T05:23:04.000Z</time>
      </trkpt>
      <trkpt lat="42.75146" lon="1.49376">
        <ele>1423</ele>
        <time>2026-06-28T05:23:05.000Z</time>
      </trkpt>
      <trkpt lat="42.75146" lon="1.49378">
        <ele>1424</ele>
        <time>2026-06-28T05:23:06.000Z</time>
      </trkpt>
      <trkpt lat="42.75145" lon="1.4938">
        <ele>1423</ele>
        <time>2026-06-28T05:23:07.000Z</time>
      </trkpt>
      <trkpt lat="42.75144" lon="1.49382">
        <ele>1423</ele>
        <time>2026-06-28T05:23:08.000Z</time>
      </trkpt>
      <trkpt lat="42.75143" lon="1.49384">
        <ele>1423</ele>
        <time>2026-06-28T05:23:09.000Z</time>
      </trkpt>
      <trkpt lat="42.75142" lon="1.49387">
        <ele>1423</ele>
        <time>2026-06-28T05:23:10.000Z</time>
      </trkpt>
      <trkpt lat="42.75141" lon="1.49389">
        <ele>1423</ele>
        <time>2026-06-28T05:23:11.000Z</time>
      </trkpt>
      <trkpt lat="42.75141" lon="1.49392">
        <ele>1424</ele>
        <time>2026-06-28T05:23:12.000Z</time>
      </trkpt>
      <trkpt lat="42.7514" lon="1.49394">
        <ele>1424</ele>
        <time>2026-06-28T05:23:13.000Z</time>
      </trkpt>
      <trkpt lat="42.75139" lon="1.49396">
        <ele>1424</ele>
        <time>2026-06-28T05:23:14.000Z</time>
      </trkpt>
      <trkpt lat="42.75138" lon="1.49398">
        <ele>1424</ele>
        <time>2026-06-28T05:23:15.000Z</time>
      </trkpt>
      <trkpt lat="42.75137" lon="1.49401">
        <ele>1424</ele>
        <time>2026-06-28T05:23:16.000Z</time>
      </trkpt>
      <trkpt lat="42.75135" lon="1.49403">
        <ele>1425</ele>
        <time>2026-06-28T05:23:17.000Z</time>
      </trkpt>
      <trkpt lat="42.75134" lon="1.49406">
        <ele>1425</ele>
        <time>2026-06-28T05:23:18.000Z</time>
      </trkpt>
      <trkpt lat="42.75132" lon="1.49408">
        <ele>1425</ele>
        <time>2026-06-28T05:23:19.000Z</time>
      </trkpt>
      <trkpt lat="42.75131" lon="1.4941">
        <ele>1425</ele>
        <time>2026-06-28T05:23:20.000Z</time>
      </trkpt>
      <trkpt lat="42.7513" lon="1.49412">
        <ele>1425</ele>
        <time>2026-06-28T05:23:21.000Z</time>
      </trkpt>
      <trkpt lat="42.75129" lon="1.49414">
        <ele>1425</ele>
        <time>2026-06-28T05:23:22.000Z</time>
      </trkpt>
      <trkpt lat="42.75129" lon="1.49416">
        <ele>1425</ele>
        <time>2026-06-28T05:23:23.000Z</time>
      </trkpt>
      <trkpt lat="42.75127" lon="1.49417">
        <ele>1425</ele>
        <time>2026-06-28T05:23:24.000Z</time>
      </trkpt>
      <trkpt lat="42.75126" lon="1.4942">
        <ele>1426</ele>
        <time>2026-06-28T05:23:25.000Z</time>
      </trkpt>
      <trkpt lat="42.75126" lon="1.49421">
        <ele>1426</ele>
        <time>2026-06-28T05:23:26.000Z</time>
      </trkpt>
      <trkpt lat="42.75125" lon="1.49423">
        <ele>1427</ele>
        <time>2026-06-28T05:23:27.000Z</time>
      </trkpt>
      <trkpt lat="42.75124" lon="1.49425">
        <ele>1427</ele>
        <time>2026-06-28T05:23:28.000Z</time>
      </trkpt>
      <trkpt lat="42.75123" lon="1.49427">
        <ele>1428</ele>
        <time>2026-06-28T05:23:29.000Z</time>
      </trkpt>
      <trkpt lat="42.75123" lon="1.49429">
        <ele>1428</ele>
        <time>2026-06-28T05:23:30.000Z</time>
      </trkpt>
      <trkpt lat="42.75121" lon="1.49431">
        <ele>1429</ele>
        <time>2026-06-28T05:23:31.000Z</time>
      </trkpt>
      <trkpt lat="42.7512" lon="1.49432">
        <ele>1429</ele>
        <time>2026-06-28T05:23:32.000Z</time>
      </trkpt>
      <trkpt lat="42.75119" lon="1.49435">
        <ele>1428</ele>
        <time>2026-06-28T05:23:33.000Z</time>
      </trkpt>
      <trkpt lat="42.75118" lon="1.49437">
        <ele>1428</ele>
        <time>2026-06-28T05:23:34.000Z</time>
      </trkpt>
      <trkpt lat="42.75117" lon="1.49439">
        <ele>1428</ele>
        <time>2026-06-28T05:23:35.000Z</time>
      </trkpt>
      <trkpt lat="42.75116" lon="1.49441">
        <ele>1429</ele>
        <time>2026-06-28T05:23:36.000Z</time>
      </trkpt>
      <trkpt lat="42.75115" lon="1.49443">
        <ele>1429</ele>
        <time>2026-06-28T05:23:37.000Z</time>
      </trkpt>
      <trkpt lat="42.75114" lon="1.49445">
        <ele>1429</ele>
        <time>2026-06-28T05:23:38.000Z</time>
      </trkpt>
      <trkpt lat="42.75113" lon="1.49447">
        <ele>1429</ele>
        <time>2026-06-28T05:23:39.000Z</time>
      </trkpt>
      <trkpt lat="42.75112" lon="1.49449">
        <ele>1428</ele>
        <time>2026-06-28T05:23:40.000Z</time>
      </trkpt>
      <trkpt lat="42.75111" lon="1.49451">
        <ele>1429</ele>
        <time>2026-06-28T05:23:41.000Z</time>
      </trkpt>
      <trkpt lat="42.7511" lon="1.49452">
        <ele>1429</ele>
        <time>2026-06-28T05:23:42.000Z</time>
      </trkpt>
      <trkpt lat="42.75109" lon="1.49453">
        <ele>1429</ele>
        <time>2026-06-28T05:23:43.000Z</time>
      </trkpt>
      <trkpt lat="42.75108" lon="1.49455">
        <ele>1430</ele>
        <time>2026-06-28T05:23:44.000Z</time>
      </trkpt>
      <trkpt lat="42.75107" lon="1.49457">
        <ele>1430</ele>
        <time>2026-06-28T05:23:45.000Z</time>
      </trkpt>
      <trkpt lat="42.75107" lon="1.49459">
        <ele>1430</ele>
        <time>2026-06-28T05:23:46.000Z</time>
      </trkpt>
      <trkpt lat="42.75106" lon="1.49461">
        <ele>1429</ele>
        <time>2026-06-28T05:23:47.000Z</time>
      </trkpt>
      <trkpt lat="42.75105" lon="1.49464">
        <ele>1429</ele>
        <time>2026-06-28T05:23:48.000Z</time>
      </trkpt>
      <trkpt lat="42.75104" lon="1.49465">
        <ele>1429</ele>
        <time>2026-06-28T05:23:49.000Z</time>
      </trkpt>
      <trkpt lat="42.75103" lon="1.49467">
        <ele>1430</ele>
        <time>2026-06-28T05:23:50.000Z</time>
      </trkpt>
      <trkpt lat="42.75102" lon="1.4947">
        <ele>1430</ele>
        <time>2026-06-28T05:23:51.000Z</time>
      </trkpt>
      <trkpt lat="42.75101" lon="1.49471">
        <ele>1430</ele>
        <time>2026-06-28T05:23:52.000Z</time>
      </trkpt>
      <trkpt lat="42.751" lon="1.49473">
        <ele>1431</ele>
        <time>2026-06-28T05:23:53.000Z</time>
      </trkpt>
      <trkpt lat="42.751" lon="1.49474">
        <ele>1431</ele>
        <time>2026-06-28T05:23:54.000Z</time>
      </trkpt>
      <trkpt lat="42.75099" lon="1.49477">
        <ele>1431</ele>
        <time>2026-06-28T05:23:55.000Z</time>
      </trkpt>
      <trkpt lat="42.75098" lon="1.49478">
        <ele>1431</ele>
        <time>2026-06-28T05:23:56.000Z</time>
      </trkpt>
      <trkpt lat="42.75097" lon="1.49481">
        <ele>1431</ele>
        <time>2026-06-28T05:23:57.000Z</time>
      </trkpt>
      <trkpt lat="42.75097" lon="1.49483">
        <ele>1431</ele>
        <time>2026-06-28T05:23:58.000Z</time>
      </trkpt>
      <trkpt lat="42.75096" lon="1.49485">
        <ele>1431</ele>
        <time>2026-06-28T05:23:59.000Z</time>
      </trkpt>
      <trkpt lat="42.75095" lon="1.49487">
        <ele>1432</ele>
        <time>2026-06-28T05:24:00.000Z</time>
      </trkpt>
      <trkpt lat="42.75094" lon="1.49489">
        <ele>1432</ele>
        <time>2026-06-28T05:24:01.000Z</time>
      </trkpt>
      <trkpt lat="42.75093" lon="1.49491">
        <ele>1433</ele>
        <time>2026-06-28T05:24:02.000Z</time>
      </trkpt>
      <trkpt lat="42.75092" lon="1.49493">
        <ele>1433</ele>
        <time>2026-06-28T05:24:03.000Z</time>
      </trkpt>
      <trkpt lat="42.75091" lon="1.49494">
        <ele>1433</ele>
        <time>2026-06-28T05:24:04.000Z</time>
      </trkpt>
      <trkpt lat="42.75091" lon="1.49496">
        <ele>1433</ele>
        <time>2026-06-28T05:24:05.000Z</time>
      </trkpt>
      <trkpt lat="42.75089" lon="1.49498">
        <ele>1433</ele>
        <time>2026-06-28T05:24:06.000Z</time>
      </trkpt>
      <trkpt lat="42.75089" lon="1.49501">
        <ele>1433</ele>
        <time>2026-06-28T05:24:07.000Z</time>
      </trkpt>
      <trkpt lat="42.75088" lon="1.49503">
        <ele>1433</ele>
        <time>2026-06-28T05:24:08.000Z</time>
      </trkpt>
      <trkpt lat="42.75088" lon="1.49505">
        <ele>1434</ele>
        <time>2026-06-28T05:24:09.000Z</time>
      </trkpt>
      <trkpt lat="42.75087" lon="1.49507">
        <ele>1434</ele>
        <time>2026-06-28T05:24:10.000Z</time>
      </trkpt>
      <trkpt lat="42.75087" lon="1.4951">
        <ele>1434</ele>
        <time>2026-06-28T05:24:11.000Z</time>
      </trkpt>
      <trkpt lat="42.75086" lon="1.49512">
        <ele>1434</ele>
        <time>2026-06-28T05:24:12.000Z</time>
      </trkpt>
      <trkpt lat="42.75086" lon="1.49514">
        <ele>1434</ele>
        <time>2026-06-28T05:24:13.000Z</time>
      </trkpt>
      <trkpt lat="42.75086" lon="1.49516">
        <ele>1435</ele>
        <time>2026-06-28T05:24:14.000Z</time>
      </trkpt>
      <trkpt lat="42.75085" lon="1.49518">
        <ele>1434</ele>
        <time>2026-06-28T05:24:15.000Z</time>
      </trkpt>
      <trkpt lat="42.75084" lon="1.49521">
        <ele>1435</ele>
        <time>2026-06-28T05:24:16.000Z</time>
      </trkpt>
      <trkpt lat="42.75084" lon="1.49523">
        <ele>1435</ele>
        <time>2026-06-28T05:24:17.000Z</time>
      </trkpt>
      <trkpt lat="42.75083" lon="1.49525">
        <ele>1436</ele>
        <time>2026-06-28T05:24:18.000Z</time>
      </trkpt>
      <trkpt lat="42.75082" lon="1.49527">
        <ele>1436</ele>
        <time>2026-06-28T05:24:19.000Z</time>
      </trkpt>
      <trkpt lat="42.75081" lon="1.49529">
        <ele>1437</ele>
        <time>2026-06-28T05:24:20.000Z</time>
      </trkpt>
      <trkpt lat="42.7508" lon="1.49531">
        <ele>1437</ele>
        <time>2026-06-28T05:24:21.000Z</time>
      </trkpt>
      <trkpt lat="42.7508" lon="1.49533">
        <ele>1438</ele>
        <time>2026-06-28T05:24:22.000Z</time>
      </trkpt>
      <trkpt lat="42.75079" lon="1.49535">
        <ele>1439</ele>
        <time>2026-06-28T05:24:23.000Z</time>
      </trkpt>
      <trkpt lat="42.75078" lon="1.49536">
        <ele>1439</ele>
        <time>2026-06-28T05:24:24.000Z</time>
      </trkpt>
      <trkpt lat="42.75077" lon="1.49538">
        <ele>1440</ele>
        <time>2026-06-28T05:24:25.000Z</time>
      </trkpt>
      <trkpt lat="42.75077" lon="1.49541">
        <ele>1440</ele>
        <time>2026-06-28T05:24:26.000Z</time>
      </trkpt>
      <trkpt lat="42.75076" lon="1.49543">
        <ele>1439</ele>
        <time>2026-06-28T05:24:27.000Z</time>
      </trkpt>
      <trkpt lat="42.75075" lon="1.49546">
        <ele>1439</ele>
        <time>2026-06-28T05:24:28.000Z</time>
      </trkpt>
      <trkpt lat="42.75074" lon="1.49548">
        <ele>1440</ele>
        <time>2026-06-28T05:24:29.000Z</time>
      </trkpt>
      <trkpt lat="42.75073" lon="1.4955">
        <ele>1440</ele>
        <time>2026-06-28T05:24:30.000Z</time>
      </trkpt>
      <trkpt lat="42.75072" lon="1.49553">
        <ele>1440</ele>
        <time>2026-06-28T05:24:31.000Z</time>
      </trkpt>
      <trkpt lat="42.75071" lon="1.49555">
        <ele>1440</ele>
        <time>2026-06-28T05:24:32.000Z</time>
      </trkpt>
      <trkpt lat="42.7507" lon="1.49557">
        <ele>1440</ele>
        <time>2026-06-28T05:24:33.000Z</time>
      </trkpt>
      <trkpt lat="42.7507" lon="1.49559">
        <ele>1441</ele>
        <time>2026-06-28T05:24:34.000Z</time>
      </trkpt>
      <trkpt lat="42.75069" lon="1.49561">
        <ele>1440</ele>
        <time>2026-06-28T05:24:35.000Z</time>
      </trkpt>
      <trkpt lat="42.75068" lon="1.49563">
        <ele>1441</ele>
        <time>2026-06-28T05:24:36.000Z</time>
      </trkpt>
      <trkpt lat="42.75068" lon="1.49565">
        <ele>1441</ele>
        <time>2026-06-28T05:24:37.000Z</time>
      </trkpt>
      <trkpt lat="42.75067" lon="1.49567">
        <ele>1441</ele>
        <time>2026-06-28T05:24:38.000Z</time>
      </trkpt>
      <trkpt lat="42.75066" lon="1.4957">
        <ele>1442</ele>
        <time>2026-06-28T05:24:39.000Z</time>
      </trkpt>
      <trkpt lat="42.75065" lon="1.49572">
        <ele>1442</ele>
        <time>2026-06-28T05:24:40.000Z</time>
      </trkpt>
      <trkpt lat="42.75064" lon="1.49574">
        <ele>1443</ele>
        <time>2026-06-28T05:24:41.000Z</time>
      </trkpt>
      <trkpt lat="42.75062" lon="1.49576">
        <ele>1443</ele>
        <time>2026-06-28T05:24:42.000Z</time>
      </trkpt>
      <trkpt lat="42.75061" lon="1.49577">
        <ele>1444</ele>
        <time>2026-06-28T05:24:43.000Z</time>
      </trkpt>
      <trkpt lat="42.75059" lon="1.49578">
        <ele>1443</ele>
        <time>2026-06-28T05:24:44.000Z</time>
      </trkpt>
      <trkpt lat="42.75057" lon="1.49579">
        <ele>1444</ele>
        <time>2026-06-28T05:24:45.000Z</time>
      </trkpt>
      <trkpt lat="42.75056" lon="1.4958">
        <ele>1443</ele>
        <time>2026-06-28T05:24:46.000Z</time>
      </trkpt>
      <trkpt lat="42.75053" lon="1.4958">
        <ele>1443</ele>
        <time>2026-06-28T05:24:47.000Z</time>
      </trkpt>
      <trkpt lat="42.75051" lon="1.49581">
        <ele>1443</ele>
        <time>2026-06-28T05:24:48.000Z</time>
      </trkpt>
      <trkpt lat="42.75049" lon="1.49581">
        <ele>1443</ele>
        <time>2026-06-28T05:24:49.000Z</time>
      </trkpt>
      <trkpt lat="42.75047" lon="1.49581">
        <ele>1443</ele>
        <time>2026-06-28T05:24:50.000Z</time>
      </trkpt>
      <trkpt lat="42.75045" lon="1.49581">
        <ele>1443</ele>
        <time>2026-06-28T05:24:51.000Z</time>
      </trkpt>
      <trkpt lat="42.75043" lon="1.4958">
        <ele>1443</ele>
        <time>2026-06-28T05:24:52.000Z</time>
      </trkpt>
      <trkpt lat="42.75042" lon="1.4958">
        <ele>1444</ele>
        <time>2026-06-28T05:24:53.000Z</time>
      </trkpt>
      <trkpt lat="42.7504" lon="1.49579">
        <ele>1443</ele>
        <time>2026-06-28T05:24:54.000Z</time>
      </trkpt>
      <trkpt lat="42.75039" lon="1.49578">
        <ele>1444</ele>
        <time>2026-06-28T05:24:55.000Z</time>
      </trkpt>
      <trkpt lat="42.75037" lon="1.49578">
        <ele>1443</ele>
        <time>2026-06-28T05:24:56.000Z</time>
      </trkpt>
      <trkpt lat="42.75035" lon="1.49577">
        <ele>1444</ele>
        <time>2026-06-28T05:24:57.000Z</time>
      </trkpt>
      <trkpt lat="42.75034" lon="1.49577">
        <ele>1444</ele>
        <time>2026-06-28T05:24:58.000Z</time>
      </trkpt>
      <trkpt lat="42.75032" lon="1.49576">
        <ele>1444</ele>
        <time>2026-06-28T05:24:59.000Z</time>
      </trkpt>
      <trkpt lat="42.7503" lon="1.49575">
        <ele>1444</ele>
        <time>2026-06-28T05:25:00.000Z</time>
      </trkpt>
      <trkpt lat="42.75028" lon="1.49574">
        <ele>1444</ele>
        <time>2026-06-28T05:25:01.000Z</time>
      </trkpt>
      <trkpt lat="42.75026" lon="1.49574">
        <ele>1444</ele>
        <time>2026-06-28T05:25:02.000Z</time>
      </trkpt>
      <trkpt lat="42.75024" lon="1.49573">
        <ele>1445</ele>
        <time>2026-06-28T05:25:03.000Z</time>
      </trkpt>
      <trkpt lat="42.75022" lon="1.49572">
        <ele>1445</ele>
        <time>2026-06-28T05:25:04.000Z</time>
      </trkpt>
      <trkpt lat="42.75021" lon="1.49572">
        <ele>1445</ele>
        <time>2026-06-28T05:25:05.000Z</time>
      </trkpt>
      <trkpt lat="42.75019" lon="1.49572">
        <ele>1445</ele>
        <time>2026-06-28T05:25:06.000Z</time>
      </trkpt>
      <trkpt lat="42.75017" lon="1.49571">
        <ele>1446</ele>
        <time>2026-06-28T05:25:07.000Z</time>
      </trkpt>
      <trkpt lat="42.75015" lon="1.49571">
        <ele>1446</ele>
        <time>2026-06-28T05:25:08.000Z</time>
      </trkpt>
      <trkpt lat="42.75013" lon="1.4957">
        <ele>1446</ele>
        <time>2026-06-28T05:25:09.000Z</time>
      </trkpt>
      <trkpt lat="42.75012" lon="1.4957">
        <ele>1446</ele>
        <time>2026-06-28T05:25:10.000Z</time>
      </trkpt>
      <trkpt lat="42.7501" lon="1.49569">
        <ele>1446</ele>
        <time>2026-06-28T05:25:11.000Z</time>
      </trkpt>
      <trkpt lat="42.75008" lon="1.49569">
        <ele>1446</ele>
        <time>2026-06-28T05:25:12.000Z</time>
      </trkpt>
      <trkpt lat="42.75006" lon="1.49569">
        <ele>1446</ele>
        <time>2026-06-28T05:25:13.000Z</time>
      </trkpt>
      <trkpt lat="42.75004" lon="1.49568">
        <ele>1446</ele>
        <time>2026-06-28T05:25:14.000Z</time>
      </trkpt>
      <trkpt lat="42.75002" lon="1.49568">
        <ele>1447</ele>
        <time>2026-06-28T05:25:15.000Z</time>
      </trkpt>
      <trkpt lat="42.75001" lon="1.49567">
        <ele>1447</ele>
        <time>2026-06-28T05:25:16.000Z</time>
      </trkpt>
      <trkpt lat="42.74999" lon="1.49566">
        <ele>1448</ele>
        <time>2026-06-28T05:25:17.000Z</time>
      </trkpt>
      <trkpt lat="42.74997" lon="1.49566">
        <ele>1448</ele>
        <time>2026-06-28T05:25:18.000Z</time>
      </trkpt>
      <trkpt lat="42.74996" lon="1.49565">
        <ele>1448</ele>
        <time>2026-06-28T05:25:19.000Z</time>
      </trkpt>
      <trkpt lat="42.74994" lon="1.49565">
        <ele>1448</ele>
        <time>2026-06-28T05:25:20.000Z</time>
      </trkpt>
      <trkpt lat="42.74991" lon="1.49565">
        <ele>1448</ele>
        <time>2026-06-28T05:25:21.000Z</time>
      </trkpt>
      <trkpt lat="42.74989" lon="1.49564">
        <ele>1448</ele>
        <time>2026-06-28T05:25:22.000Z</time>
      </trkpt>
      <trkpt lat="42.74988" lon="1.49564">
        <ele>1448</ele>
        <time>2026-06-28T05:25:23.000Z</time>
      </trkpt>
      <trkpt lat="42.74986" lon="1.49564">
        <ele>1448</ele>
        <time>2026-06-28T05:25:24.000Z</time>
      </trkpt>
      <trkpt lat="42.74984" lon="1.49563">
        <ele>1448</ele>
        <time>2026-06-28T05:25:25.000Z</time>
      </trkpt>
      <trkpt lat="42.74982" lon="1.49563">
        <ele>1448</ele>
        <time>2026-06-28T05:25:26.000Z</time>
      </trkpt>
      <trkpt lat="42.7498" lon="1.49563">
        <ele>1448</ele>
        <time>2026-06-28T05:25:27.000Z</time>
      </trkpt>
      <trkpt lat="42.74979" lon="1.49562">
        <ele>1449</ele>
        <time>2026-06-28T05:25:28.000Z</time>
      </trkpt>
      <trkpt lat="42.74977" lon="1.49562">
        <ele>1448</ele>
        <time>2026-06-28T05:25:29.000Z</time>
      </trkpt>
      <trkpt lat="42.74975" lon="1.49561">
        <ele>1448</ele>
        <time>2026-06-28T05:25:30.000Z</time>
      </trkpt>
      <trkpt lat="42.74973" lon="1.49561">
        <ele>1449</ele>
        <time>2026-06-28T05:25:31.000Z</time>
      </trkpt>
      <trkpt lat="42.74971" lon="1.49561">
        <ele>1449</ele>
        <time>2026-06-28T05:25:32.000Z</time>
      </trkpt>
      <trkpt lat="42.74969" lon="1.49561">
        <ele>1449</ele>
        <time>2026-06-28T05:25:33.000Z</time>
      </trkpt>
      <trkpt lat="42.74967" lon="1.49561">
        <ele>1449</ele>
        <time>2026-06-28T05:25:34.000Z</time>
      </trkpt>
      <trkpt lat="42.74965" lon="1.49562">
        <ele>1449</ele>
        <time>2026-06-28T05:25:35.000Z</time>
      </trkpt>
      <trkpt lat="42.74963" lon="1.49561">
        <ele>1449</ele>
        <time>2026-06-28T05:25:36.000Z</time>
      </trkpt>
      <trkpt lat="42.74961" lon="1.49561">
        <ele>1449</ele>
        <time>2026-06-28T05:25:37.000Z</time>
      </trkpt>
      <trkpt lat="42.74959" lon="1.49562">
        <ele>1450</ele>
        <time>2026-06-28T05:25:38.000Z</time>
      </trkpt>
      <trkpt lat="42.74957" lon="1.49562">
        <ele>1450</ele>
        <time>2026-06-28T05:25:39.000Z</time>
      </trkpt>
      <trkpt lat="42.74955" lon="1.49562">
        <ele>1450</ele>
        <time>2026-06-28T05:25:40.000Z</time>
      </trkpt>
      <trkpt lat="42.74953" lon="1.49562">
        <ele>1450</ele>
        <time>2026-06-28T05:25:41.000Z</time>
      </trkpt>
      <trkpt lat="42.74952" lon="1.49562">
        <ele>1450</ele>
        <time>2026-06-28T05:25:42.000Z</time>
      </trkpt>
      <trkpt lat="42.7495" lon="1.49562">
        <ele>1451</ele>
        <time>2026-06-28T05:25:43.000Z</time>
      </trkpt>
      <trkpt lat="42.74948" lon="1.49562">
        <ele>1451</ele>
        <time>2026-06-28T05:25:44.000Z</time>
      </trkpt>
      <trkpt lat="42.74946" lon="1.49563">
        <ele>1451</ele>
        <time>2026-06-28T05:25:45.000Z</time>
      </trkpt>
      <trkpt lat="42.74944" lon="1.49564">
        <ele>1451</ele>
        <time>2026-06-28T05:25:46.000Z</time>
      </trkpt>
      <trkpt lat="42.74942" lon="1.49565">
        <ele>1452</ele>
        <time>2026-06-28T05:25:47.000Z</time>
      </trkpt>
      <trkpt lat="42.7494" lon="1.49565">
        <ele>1452</ele>
        <time>2026-06-28T05:25:48.000Z</time>
      </trkpt>
      <trkpt lat="42.74938" lon="1.49566">
        <ele>1452</ele>
        <time>2026-06-28T05:25:49.000Z</time>
      </trkpt>
      <trkpt lat="42.74937" lon="1.49567">
        <ele>1452</ele>
        <time>2026-06-28T05:25:50.000Z</time>
      </trkpt>
      <trkpt lat="42.74935" lon="1.49568">
        <ele>1452</ele>
        <time>2026-06-28T05:25:51.000Z</time>
      </trkpt>
      <trkpt lat="42.74933" lon="1.49569">
        <ele>1452</ele>
        <time>2026-06-28T05:25:52.000Z</time>
      </trkpt>
      <trkpt lat="42.74931" lon="1.49569">
        <ele>1451</ele>
        <time>2026-06-28T05:25:53.000Z</time>
      </trkpt>
      <trkpt lat="42.74929" lon="1.49571">
        <ele>1451</ele>
        <time>2026-06-28T05:25:54.000Z</time>
      </trkpt>
      <trkpt lat="42.74928" lon="1.49572">
        <ele>1452</ele>
        <time>2026-06-28T05:25:55.000Z</time>
      </trkpt>
      <trkpt lat="42.74925" lon="1.49573">
        <ele>1452</ele>
        <time>2026-06-28T05:25:56.000Z</time>
      </trkpt>
      <trkpt lat="42.74923" lon="1.49574">
        <ele>1452</ele>
        <time>2026-06-28T05:25:57.000Z</time>
      </trkpt>
      <trkpt lat="42.74921" lon="1.49574">
        <ele>1452</ele>
        <time>2026-06-28T05:25:58.000Z</time>
      </trkpt>
      <trkpt lat="42.74919" lon="1.49576">
        <ele>1452</ele>
        <time>2026-06-28T05:25:59.000Z</time>
      </trkpt>
      <trkpt lat="42.74918" lon="1.49577">
        <ele>1451</ele>
        <time>2026-06-28T05:26:00.000Z</time>
      </trkpt>
      <trkpt lat="42.74916" lon="1.49578">
        <ele>1451</ele>
        <time>2026-06-28T05:26:01.000Z</time>
      </trkpt>
      <trkpt lat="42.74914" lon="1.49578">
        <ele>1451</ele>
        <time>2026-06-28T05:26:02.000Z</time>
      </trkpt>
      <trkpt lat="42.74912" lon="1.4958">
        <ele>1451</ele>
        <time>2026-06-28T05:26:03.000Z</time>
      </trkpt>
      <trkpt lat="42.74911" lon="1.49581">
        <ele>1451</ele>
        <time>2026-06-28T05:26:04.000Z</time>
      </trkpt>
      <trkpt lat="42.74909" lon="1.49582">
        <ele>1451</ele>
        <time>2026-06-28T05:26:05.000Z</time>
      </trkpt>
      <trkpt lat="42.74908" lon="1.49584">
        <ele>1451</ele>
        <time>2026-06-28T05:26:06.000Z</time>
      </trkpt>
      <trkpt lat="42.74906" lon="1.49584">
        <ele>1451</ele>
        <time>2026-06-28T05:26:07.000Z</time>
      </trkpt>
      <trkpt lat="42.74904" lon="1.49586">
        <ele>1451</ele>
        <time>2026-06-28T05:26:08.000Z</time>
      </trkpt>
      <trkpt lat="42.74903" lon="1.49587">
        <ele>1451</ele>
        <time>2026-06-28T05:26:09.000Z</time>
      </trkpt>
      <trkpt lat="42.74901" lon="1.49588">
        <ele>1452</ele>
        <time>2026-06-28T05:26:10.000Z</time>
      </trkpt>
      <trkpt lat="42.749" lon="1.4959">
        <ele>1452</ele>
        <time>2026-06-28T05:26:11.000Z</time>
      </trkpt>
      <trkpt lat="42.74898" lon="1.4959">
        <ele>1452</ele>
        <time>2026-06-28T05:26:12.000Z</time>
      </trkpt>
      <trkpt lat="42.74896" lon="1.49591">
        <ele>1452</ele>
        <time>2026-06-28T05:26:13.000Z</time>
      </trkpt>
      <trkpt lat="42.74894" lon="1.49592">
        <ele>1452</ele>
        <time>2026-06-28T05:26:14.000Z</time>
      </trkpt>
      <trkpt lat="42.74893" lon="1.49593">
        <ele>1452</ele>
        <time>2026-06-28T05:26:15.000Z</time>
      </trkpt>
      <trkpt lat="42.74891" lon="1.49594">
        <ele>1453</ele>
        <time>2026-06-28T05:26:16.000Z</time>
      </trkpt>
      <trkpt lat="42.74889" lon="1.49595">
        <ele>1453</ele>
        <time>2026-06-28T05:26:17.000Z</time>
      </trkpt>
      <trkpt lat="42.74887" lon="1.49595">
        <ele>1452</ele>
        <time>2026-06-28T05:26:18.000Z</time>
      </trkpt>
      <trkpt lat="42.74886" lon="1.49596">
        <ele>1452</ele>
        <time>2026-06-28T05:26:19.000Z</time>
      </trkpt>
      <trkpt lat="42.74884" lon="1.49597">
        <ele>1452</ele>
        <time>2026-06-28T05:26:20.000Z</time>
      </trkpt>
      <trkpt lat="42.74881" lon="1.49598">
        <ele>1453</ele>
        <time>2026-06-28T05:26:21.000Z</time>
      </trkpt>
      <trkpt lat="42.7488" lon="1.49599">
        <ele>1453</ele>
        <time>2026-06-28T05:26:22.000Z</time>
      </trkpt>
      <trkpt lat="42.74878" lon="1.49599">
        <ele>1454</ele>
        <time>2026-06-28T05:26:23.000Z</time>
      </trkpt>
      <trkpt lat="42.74876" lon="1.496">
        <ele>1454</ele>
        <time>2026-06-28T05:26:24.000Z</time>
      </trkpt>
      <trkpt lat="42.74875" lon="1.49601">
        <ele>1454</ele>
        <time>2026-06-28T05:26:25.000Z</time>
      </trkpt>
      <trkpt lat="42.74873" lon="1.49601">
        <ele>1455</ele>
        <time>2026-06-28T05:26:26.000Z</time>
      </trkpt>
      <trkpt lat="42.74872" lon="1.49602">
        <ele>1455</ele>
        <time>2026-06-28T05:26:27.000Z</time>
      </trkpt>
      <trkpt lat="42.7487" lon="1.49602">
        <ele>1455</ele>
        <time>2026-06-28T05:26:28.000Z</time>
      </trkpt>
      <trkpt lat="42.74868" lon="1.49602">
        <ele>1455</ele>
        <time>2026-06-28T05:26:29.000Z</time>
      </trkpt>
      <trkpt lat="42.74866" lon="1.49603">
        <ele>1456</ele>
        <time>2026-06-28T05:26:30.000Z</time>
      </trkpt>
      <trkpt lat="42.74864" lon="1.49604">
        <ele>1456</ele>
        <time>2026-06-28T05:26:31.000Z</time>
      </trkpt>
      <trkpt lat="42.74863" lon="1.49605">
        <ele>1456</ele>
        <time>2026-06-28T05:26:32.000Z</time>
      </trkpt>
      <trkpt lat="42.74861" lon="1.49605">
        <ele>1457</ele>
        <time>2026-06-28T05:26:33.000Z</time>
      </trkpt>
      <trkpt lat="42.74859" lon="1.49605">
        <ele>1457</ele>
        <time>2026-06-28T05:26:34.000Z</time>
      </trkpt>
      <trkpt lat="42.74857" lon="1.49606">
        <ele>1457</ele>
        <time>2026-06-28T05:26:35.000Z</time>
      </trkpt>
      <trkpt lat="42.74855" lon="1.49606">
        <ele>1457</ele>
        <time>2026-06-28T05:26:36.000Z</time>
      </trkpt>
      <trkpt lat="42.74853" lon="1.49606">
        <ele>1457</ele>
        <time>2026-06-28T05:26:37.000Z</time>
      </trkpt>
      <trkpt lat="42.74852" lon="1.49606">
        <ele>1458</ele>
        <time>2026-06-28T05:26:38.000Z</time>
      </trkpt>
      <trkpt lat="42.7485" lon="1.49606">
        <ele>1458</ele>
        <time>2026-06-28T05:26:39.000Z</time>
      </trkpt>
      <trkpt lat="42.74848" lon="1.49607">
        <ele>1458</ele>
        <time>2026-06-28T05:26:40.000Z</time>
      </trkpt>
      <trkpt lat="42.74846" lon="1.49607">
        <ele>1458</ele>
        <time>2026-06-28T05:26:41.000Z</time>
      </trkpt>
      <trkpt lat="42.74844" lon="1.49609">
        <ele>1459</ele>
        <time>2026-06-28T05:26:42.000Z</time>
      </trkpt>
      <trkpt lat="42.74843" lon="1.49609">
        <ele>1458</ele>
        <time>2026-06-28T05:26:43.000Z</time>
      </trkpt>
      <trkpt lat="42.74841" lon="1.49611">
        <ele>1459</ele>
        <time>2026-06-28T05:26:44.000Z</time>
      </trkpt>
      <trkpt lat="42.74839" lon="1.49612">
        <ele>1459</ele>
        <time>2026-06-28T05:26:45.000Z</time>
      </trkpt>
      <trkpt lat="42.74837" lon="1.49613">
        <ele>1459</ele>
        <time>2026-06-28T05:26:46.000Z</time>
      </trkpt>
      <trkpt lat="42.74836" lon="1.49615">
        <ele>1459</ele>
        <time>2026-06-28T05:26:47.000Z</time>
      </trkpt>
      <trkpt lat="42.74835" lon="1.49618">
        <ele>1459</ele>
        <time>2026-06-28T05:26:48.000Z</time>
      </trkpt>
      <trkpt lat="42.74834" lon="1.49621">
        <ele>1459</ele>
        <time>2026-06-28T05:26:49.000Z</time>
      </trkpt>
      <trkpt lat="42.74832" lon="1.49624">
        <ele>1459</ele>
        <time>2026-06-28T05:26:50.000Z</time>
      </trkpt>
      <trkpt lat="42.74831" lon="1.49626">
        <ele>1460</ele>
        <time>2026-06-28T05:26:51.000Z</time>
      </trkpt>
      <trkpt lat="42.7483" lon="1.49629">
        <ele>1460</ele>
        <time>2026-06-28T05:26:52.000Z</time>
      </trkpt>
      <trkpt lat="42.7483" lon="1.49631">
        <ele>1460</ele>
        <time>2026-06-28T05:26:53.000Z</time>
      </trkpt>
      <trkpt lat="42.74829" lon="1.49633">
        <ele>1460</ele>
        <time>2026-06-28T05:26:54.000Z</time>
      </trkpt>
      <trkpt lat="42.74829" lon="1.49635">
        <ele>1461</ele>
        <time>2026-06-28T05:26:55.000Z</time>
      </trkpt>
      <trkpt lat="42.74828" lon="1.49638">
        <ele>1461</ele>
        <time>2026-06-28T05:26:56.000Z</time>
      </trkpt>
      <trkpt lat="42.74828" lon="1.4964">
        <ele>1461</ele>
        <time>2026-06-28T05:26:57.000Z</time>
      </trkpt>
      <trkpt lat="42.74827" lon="1.49643">
        <ele>1462</ele>
        <time>2026-06-28T05:26:58.000Z</time>
      </trkpt>
      <trkpt lat="42.74826" lon="1.49645">
        <ele>1462</ele>
        <time>2026-06-28T05:26:59.000Z</time>
      </trkpt>
      <trkpt lat="42.74825" lon="1.49647">
        <ele>1462</ele>
        <time>2026-06-28T05:27:00.000Z</time>
      </trkpt>
      <trkpt lat="42.74824" lon="1.49649">
        <ele>1462</ele>
        <time>2026-06-28T05:27:01.000Z</time>
      </trkpt>
      <trkpt lat="42.74823" lon="1.49651">
        <ele>1462</ele>
        <time>2026-06-28T05:27:02.000Z</time>
      </trkpt>
      <trkpt lat="42.74822" lon="1.49653">
        <ele>1462</ele>
        <time>2026-06-28T05:27:03.000Z</time>
      </trkpt>
      <trkpt lat="42.74822" lon="1.49656">
        <ele>1463</ele>
        <time>2026-06-28T05:27:04.000Z</time>
      </trkpt>
      <trkpt lat="42.74821" lon="1.49658">
        <ele>1463</ele>
        <time>2026-06-28T05:27:05.000Z</time>
      </trkpt>
      <trkpt lat="42.7482" lon="1.4966">
        <ele>1463</ele>
        <time>2026-06-28T05:27:06.000Z</time>
      </trkpt>
      <trkpt lat="42.74819" lon="1.49662">
        <ele>1464</ele>
        <time>2026-06-28T05:27:07.000Z</time>
      </trkpt>
      <trkpt lat="42.74818" lon="1.49664">
        <ele>1464</ele>
        <time>2026-06-28T05:27:08.000Z</time>
      </trkpt>
      <trkpt lat="42.74817" lon="1.49666">
        <ele>1464</ele>
        <time>2026-06-28T05:27:09.000Z</time>
      </trkpt>
      <trkpt lat="42.74815" lon="1.49667">
        <ele>1465</ele>
        <time>2026-06-28T05:27:10.000Z</time>
      </trkpt>
      <trkpt lat="42.74814" lon="1.4967">
        <ele>1465</ele>
        <time>2026-06-28T05:27:11.000Z</time>
      </trkpt>
      <trkpt lat="42.74813" lon="1.49672">
        <ele>1464</ele>
        <time>2026-06-28T05:27:12.000Z</time>
      </trkpt>
      <trkpt lat="42.74812" lon="1.49674">
        <ele>1465</ele>
        <time>2026-06-28T05:27:13.000Z</time>
      </trkpt>
      <trkpt lat="42.74811" lon="1.49676">
        <ele>1465</ele>
        <time>2026-06-28T05:27:14.000Z</time>
      </trkpt>
      <trkpt lat="42.7481" lon="1.49677">
        <ele>1464</ele>
        <time>2026-06-28T05:27:15.000Z</time>
      </trkpt>
      <trkpt lat="42.74809" lon="1.4968">
        <ele>1464</ele>
        <time>2026-06-28T05:27:16.000Z</time>
      </trkpt>
      <trkpt lat="42.74807" lon="1.49682">
        <ele>1464</ele>
        <time>2026-06-28T05:27:17.000Z</time>
      </trkpt>
      <trkpt lat="42.74806" lon="1.49684">
        <ele>1465</ele>
        <time>2026-06-28T05:27:18.000Z</time>
      </trkpt>
      <trkpt lat="42.74805" lon="1.49685">
        <ele>1465</ele>
        <time>2026-06-28T05:27:19.000Z</time>
      </trkpt>
      <trkpt lat="42.74804" lon="1.49687">
        <ele>1465</ele>
        <time>2026-06-28T05:27:20.000Z</time>
      </trkpt>
      <trkpt lat="42.74803" lon="1.49688">
        <ele>1465</ele>
        <time>2026-06-28T05:27:21.000Z</time>
      </trkpt>
      <trkpt lat="42.74802" lon="1.4969">
        <ele>1465</ele>
        <time>2026-06-28T05:27:22.000Z</time>
      </trkpt>
      <trkpt lat="42.74801" lon="1.49692">
        <ele>1464</ele>
        <time>2026-06-28T05:27:23.000Z</time>
      </trkpt>
      <trkpt lat="42.748" lon="1.49695">
        <ele>1464</ele>
        <time>2026-06-28T05:27:24.000Z</time>
      </trkpt>
      <trkpt lat="42.74799" lon="1.49697">
        <ele>1464</ele>
        <time>2026-06-28T05:27:25.000Z</time>
      </trkpt>
      <trkpt lat="42.74797" lon="1.49699">
        <ele>1464</ele>
        <time>2026-06-28T05:27:26.000Z</time>
      </trkpt>
      <trkpt lat="42.74796" lon="1.49701">
        <ele>1464</ele>
        <time>2026-06-28T05:27:27.000Z</time>
      </trkpt>
      <trkpt lat="42.74795" lon="1.49703">
        <ele>1464</ele>
        <time>2026-06-28T05:27:28.000Z</time>
      </trkpt>
      <trkpt lat="42.74794" lon="1.49704">
        <ele>1464</ele>
        <time>2026-06-28T05:27:29.000Z</time>
      </trkpt>
      <trkpt lat="42.74792" lon="1.49706">
        <ele>1464</ele>
        <time>2026-06-28T05:27:30.000Z</time>
      </trkpt>
      <trkpt lat="42.74791" lon="1.49708">
        <ele>1464</ele>
        <time>2026-06-28T05:27:31.000Z</time>
      </trkpt>
      <trkpt lat="42.7479" lon="1.49709">
        <ele>1464</ele>
        <time>2026-06-28T05:27:32.000Z</time>
      </trkpt>
      <trkpt lat="42.74789" lon="1.49711">
        <ele>1464</ele>
        <time>2026-06-28T05:27:33.000Z</time>
      </trkpt>
      <trkpt lat="42.74787" lon="1.49713">
        <ele>1463</ele>
        <time>2026-06-28T05:27:34.000Z</time>
      </trkpt>
      <trkpt lat="42.74786" lon="1.49715">
        <ele>1464</ele>
        <time>2026-06-28T05:27:35.000Z</time>
      </trkpt>
      <trkpt lat="42.74785" lon="1.49718">
        <ele>1463</ele>
        <time>2026-06-28T05:27:36.000Z</time>
      </trkpt>
      <trkpt lat="42.74783" lon="1.49719">
        <ele>1464</ele>
        <time>2026-06-28T05:27:37.000Z</time>
      </trkpt>
      <trkpt lat="42.74782" lon="1.49721">
        <ele>1464</ele>
        <time>2026-06-28T05:27:38.000Z</time>
      </trkpt>
      <trkpt lat="42.74781" lon="1.49723">
        <ele>1464</ele>
        <time>2026-06-28T05:27:39.000Z</time>
      </trkpt>
      <trkpt lat="42.7478" lon="1.49725">
        <ele>1464</ele>
        <time>2026-06-28T05:27:40.000Z</time>
      </trkpt>
      <trkpt lat="42.74778" lon="1.49727">
        <ele>1465</ele>
        <time>2026-06-28T05:27:41.000Z</time>
      </trkpt>
      <trkpt lat="42.74777" lon="1.49728">
        <ele>1465</ele>
        <time>2026-06-28T05:27:42.000Z</time>
      </trkpt>
      <trkpt lat="42.74776" lon="1.4973">
        <ele>1466</ele>
        <time>2026-06-28T05:27:43.000Z</time>
      </trkpt>
      <trkpt lat="42.74774" lon="1.49732">
        <ele>1466</ele>
        <time>2026-06-28T05:27:44.000Z</time>
      </trkpt>
      <trkpt lat="42.74773" lon="1.49734">
        <ele>1466</ele>
        <time>2026-06-28T05:27:45.000Z</time>
      </trkpt>
      <trkpt lat="42.74772" lon="1.49735">
        <ele>1466</ele>
        <time>2026-06-28T05:27:46.000Z</time>
      </trkpt>
      <trkpt lat="42.7477" lon="1.49735">
        <ele>1466</ele>
        <time>2026-06-28T05:27:47.000Z</time>
      </trkpt>
      <trkpt lat="42.74769" lon="1.49737">
        <ele>1466</ele>
        <time>2026-06-28T05:27:48.000Z</time>
      </trkpt>
      <trkpt lat="42.74767" lon="1.49739">
        <ele>1466</ele>
        <time>2026-06-28T05:27:49.000Z</time>
      </trkpt>
      <trkpt lat="42.74766" lon="1.4974">
        <ele>1466</ele>
        <time>2026-06-28T05:27:50.000Z</time>
      </trkpt>
      <trkpt lat="42.74765" lon="1.49742">
        <ele>1466</ele>
        <time>2026-06-28T05:27:51.000Z</time>
      </trkpt>
      <trkpt lat="42.74764" lon="1.49744">
        <ele>1467</ele>
        <time>2026-06-28T05:27:52.000Z</time>
      </trkpt>
      <trkpt lat="42.74762" lon="1.49745">
        <ele>1467</ele>
        <time>2026-06-28T05:27:53.000Z</time>
      </trkpt>
      <trkpt lat="42.74761" lon="1.49746">
        <ele>1467</ele>
        <time>2026-06-28T05:27:54.000Z</time>
      </trkpt>
      <trkpt lat="42.7476" lon="1.49748">
        <ele>1468</ele>
        <time>2026-06-28T05:27:55.000Z</time>
      </trkpt>
      <trkpt lat="42.74758" lon="1.49751">
        <ele>1468</ele>
        <time>2026-06-28T05:27:56.000Z</time>
      </trkpt>
      <trkpt lat="42.74757" lon="1.49752">
        <ele>1469</ele>
        <time>2026-06-28T05:27:57.000Z</time>
      </trkpt>
      <trkpt lat="42.74756" lon="1.49754">
        <ele>1470</ele>
        <time>2026-06-28T05:27:58.000Z</time>
      </trkpt>
      <trkpt lat="42.74755" lon="1.49756">
        <ele>1470</ele>
        <time>2026-06-28T05:27:59.000Z</time>
      </trkpt>
      <trkpt lat="42.74754" lon="1.49757">
        <ele>1470</ele>
        <time>2026-06-28T05:28:00.000Z</time>
      </trkpt>
      <trkpt lat="42.74753" lon="1.49759">
        <ele>1470</ele>
        <time>2026-06-28T05:28:01.000Z</time>
      </trkpt>
      <trkpt lat="42.74751" lon="1.4976">
        <ele>1470</ele>
        <time>2026-06-28T05:28:02.000Z</time>
      </trkpt>
      <trkpt lat="42.7475" lon="1.49762">
        <ele>1471</ele>
        <time>2026-06-28T05:28:03.000Z</time>
      </trkpt>
      <trkpt lat="42.74749" lon="1.49763">
        <ele>1471</ele>
        <time>2026-06-28T05:28:04.000Z</time>
      </trkpt>
      <trkpt lat="42.74747" lon="1.49765">
        <ele>1471</ele>
        <time>2026-06-28T05:28:05.000Z</time>
      </trkpt>
      <trkpt lat="42.74746" lon="1.49767">
        <ele>1471</ele>
        <time>2026-06-28T05:28:06.000Z</time>
      </trkpt>
      <trkpt lat="42.74744" lon="1.49768">
        <ele>1472</ele>
        <time>2026-06-28T05:28:07.000Z</time>
      </trkpt>
      <trkpt lat="42.74744" lon="1.49771">
        <ele>1472</ele>
        <time>2026-06-28T05:28:08.000Z</time>
      </trkpt>
      <trkpt lat="42.74742" lon="1.49772">
        <ele>1472</ele>
        <time>2026-06-28T05:28:09.000Z</time>
      </trkpt>
      <trkpt lat="42.7474" lon="1.49774">
        <ele>1473</ele>
        <time>2026-06-28T05:28:10.000Z</time>
      </trkpt>
      <trkpt lat="42.74739" lon="1.49775">
        <ele>1473</ele>
        <time>2026-06-28T05:28:11.000Z</time>
      </trkpt>
      <trkpt lat="42.74737" lon="1.49777">
        <ele>1473</ele>
        <time>2026-06-28T05:28:12.000Z</time>
      </trkpt>
      <trkpt lat="42.74736" lon="1.49779">
        <ele>1473</ele>
        <time>2026-06-28T05:28:13.000Z</time>
      </trkpt>
      <trkpt lat="42.74734" lon="1.49781">
        <ele>1473</ele>
        <time>2026-06-28T05:28:14.000Z</time>
      </trkpt>
      <trkpt lat="42.74732" lon="1.49782">
        <ele>1474</ele>
        <time>2026-06-28T05:28:15.000Z</time>
      </trkpt>
      <trkpt lat="42.74731" lon="1.49783">
        <ele>1474</ele>
        <time>2026-06-28T05:28:16.000Z</time>
      </trkpt>
      <trkpt lat="42.74728" lon="1.49784">
        <ele>1475</ele>
        <time>2026-06-28T05:28:17.000Z</time>
      </trkpt>
      <trkpt lat="42.74726" lon="1.49786">
        <ele>1476</ele>
        <time>2026-06-28T05:28:18.000Z</time>
      </trkpt>
      <trkpt lat="42.74724" lon="1.49788">
        <ele>1476</ele>
        <time>2026-06-28T05:28:19.000Z</time>
      </trkpt>
      <trkpt lat="42.74721" lon="1.4979">
        <ele>1477</ele>
        <time>2026-06-28T05:28:20.000Z</time>
      </trkpt>
      <trkpt lat="42.74719" lon="1.49793">
        <ele>1477</ele>
        <time>2026-06-28T05:28:21.000Z</time>
      </trkpt>
      <trkpt lat="42.74717" lon="1.49796">
        <ele>1477</ele>
        <time>2026-06-28T05:28:22.000Z</time>
      </trkpt>
      <trkpt lat="42.74715" lon="1.49798">
        <ele>1478</ele>
        <time>2026-06-28T05:28:23.000Z</time>
      </trkpt>
      <trkpt lat="42.74713" lon="1.49801">
        <ele>1477</ele>
        <time>2026-06-28T05:28:24.000Z</time>
      </trkpt>
      <trkpt lat="42.74712" lon="1.49803">
        <ele>1477</ele>
        <time>2026-06-28T05:28:25.000Z</time>
      </trkpt>
      <trkpt lat="42.74711" lon="1.49806">
        <ele>1477</ele>
        <time>2026-06-28T05:28:26.000Z</time>
      </trkpt>
      <trkpt lat="42.74709" lon="1.49808">
        <ele>1477</ele>
        <time>2026-06-28T05:28:27.000Z</time>
      </trkpt>
      <trkpt lat="42.74708" lon="1.4981">
        <ele>1477</ele>
        <time>2026-06-28T05:28:28.000Z</time>
      </trkpt>
      <trkpt lat="42.74706" lon="1.49812">
        <ele>1477</ele>
        <time>2026-06-28T05:28:29.000Z</time>
      </trkpt>
      <trkpt lat="42.74704" lon="1.49814">
        <ele>1477</ele>
        <time>2026-06-28T05:28:30.000Z</time>
      </trkpt>
      <trkpt lat="42.74702" lon="1.49815">
        <ele>1477</ele>
        <time>2026-06-28T05:28:31.000Z</time>
      </trkpt>
      <trkpt lat="42.747" lon="1.49817">
        <ele>1477</ele>
        <time>2026-06-28T05:28:32.000Z</time>
      </trkpt>
      <trkpt lat="42.74698" lon="1.4982">
        <ele>1476</ele>
        <time>2026-06-28T05:28:33.000Z</time>
      </trkpt>
      <trkpt lat="42.74695" lon="1.49821">
        <ele>1476</ele>
        <time>2026-06-28T05:28:34.000Z</time>
      </trkpt>
      <trkpt lat="42.74692" lon="1.49822">
        <ele>1476</ele>
        <time>2026-06-28T05:28:35.000Z</time>
      </trkpt>
      <trkpt lat="42.74689" lon="1.49823">
        <ele>1477</ele>
        <time>2026-06-28T05:28:36.000Z</time>
      </trkpt>
      <trkpt lat="42.74687" lon="1.49823">
        <ele>1477</ele>
        <time>2026-06-28T05:28:37.000Z</time>
      </trkpt>
      <trkpt lat="42.74684" lon="1.49823">
        <ele>1477</ele>
        <time>2026-06-28T05:28:38.000Z</time>
      </trkpt>
      <trkpt lat="42.74682" lon="1.49824">
        <ele>1476</ele>
        <time>2026-06-28T05:28:39.000Z</time>
      </trkpt>
      <trkpt lat="42.74679" lon="1.49824">
        <ele>1476</ele>
        <time>2026-06-28T05:28:40.000Z</time>
      </trkpt>
      <trkpt lat="42.74677" lon="1.49825">
        <ele>1476</ele>
        <time>2026-06-28T05:28:41.000Z</time>
      </trkpt>
      <trkpt lat="42.74673" lon="1.49825">
        <ele>1476</ele>
        <time>2026-06-28T05:28:42.000Z</time>
      </trkpt>
      <trkpt lat="42.7467" lon="1.49824">
        <ele>1477</ele>
        <time>2026-06-28T05:28:43.000Z</time>
      </trkpt>
      <trkpt lat="42.74666" lon="1.49823">
        <ele>1476</ele>
        <time>2026-06-28T05:28:44.000Z</time>
      </trkpt>
      <trkpt lat="42.74663" lon="1.4982">
        <ele>1476</ele>
        <time>2026-06-28T05:28:45.000Z</time>
      </trkpt>
      <trkpt lat="42.74659" lon="1.49818">
        <ele>1475</ele>
        <time>2026-06-28T05:28:46.000Z</time>
      </trkpt>
      <trkpt lat="42.74655" lon="1.49815">
        <ele>1475</ele>
        <time>2026-06-28T05:28:47.000Z</time>
      </trkpt>
      <trkpt lat="42.74651" lon="1.49813">
        <ele>1475</ele>
        <time>2026-06-28T05:28:48.000Z</time>
      </trkpt>
      <trkpt lat="42.74648" lon="1.49811">
        <ele>1476</ele>
        <time>2026-06-28T05:28:49.000Z</time>
      </trkpt>
      <trkpt lat="42.74645" lon="1.49808">
        <ele>1476</ele>
        <time>2026-06-28T05:28:50.000Z</time>
      </trkpt>
      <trkpt lat="42.74643" lon="1.49805">
        <ele>1477</ele>
        <time>2026-06-28T05:28:51.000Z</time>
      </trkpt>
      <trkpt lat="42.7464" lon="1.49803">
        <ele>1477</ele>
        <time>2026-06-28T05:28:52.000Z</time>
      </trkpt>
      <trkpt lat="42.74638" lon="1.49801">
        <ele>1477</ele>
        <time>2026-06-28T05:28:53.000Z</time>
      </trkpt>
      <trkpt lat="42.74635" lon="1.49799">
        <ele>1477</ele>
        <time>2026-06-28T05:28:54.000Z</time>
      </trkpt>
      <trkpt lat="42.74632" lon="1.49797">
        <ele>1477</ele>
        <time>2026-06-28T05:28:55.000Z</time>
      </trkpt>
      <trkpt lat="42.74629" lon="1.49796">
        <ele>1477</ele>
        <time>2026-06-28T05:28:56.000Z</time>
      </trkpt>
      <trkpt lat="42.74626" lon="1.49794">
        <ele>1477</ele>
        <time>2026-06-28T05:28:57.000Z</time>
      </trkpt>
      <trkpt lat="42.74622" lon="1.49792">
        <ele>1477</ele>
        <time>2026-06-28T05:28:58.000Z</time>
      </trkpt>
      <trkpt lat="42.74618" lon="1.49791">
        <ele>1477</ele>
        <time>2026-06-28T05:28:59.000Z</time>
      </trkpt>
      <trkpt lat="42.74615" lon="1.49789">
        <ele>1477</ele>
        <time>2026-06-28T05:29:00.000Z</time>
      </trkpt>
      <trkpt lat="42.74611" lon="1.49787">
        <ele>1477</ele>
        <time>2026-06-28T05:29:01.000Z</time>
      </trkpt>
      <trkpt lat="42.74608" lon="1.49785">
        <ele>1477</ele>
        <time>2026-06-28T05:29:02.000Z</time>
      </trkpt>
      <trkpt lat="42.74604" lon="1.49782">
        <ele>1477</ele>
        <time>2026-06-28T05:29:03.000Z</time>
      </trkpt>
      <trkpt lat="42.74601" lon="1.4978">
        <ele>1477</ele>
        <time>2026-06-28T05:29:04.000Z</time>
      </trkpt>
      <trkpt lat="42.74598" lon="1.49778">
        <ele>1477</ele>
        <time>2026-06-28T05:29:05.000Z</time>
      </trkpt>
      <trkpt lat="42.74594" lon="1.49777">
        <ele>1477</ele>
        <time>2026-06-28T05:29:06.000Z</time>
      </trkpt>
      <trkpt lat="42.7459" lon="1.49776">
        <ele>1477</ele>
        <time>2026-06-28T05:29:07.000Z</time>
      </trkpt>
      <trkpt lat="42.74586" lon="1.49774">
        <ele>1477</ele>
        <time>2026-06-28T05:29:08.000Z</time>
      </trkpt>
      <trkpt lat="42.74583" lon="1.49773">
        <ele>1477</ele>
        <time>2026-06-28T05:29:09.000Z</time>
      </trkpt>
      <trkpt lat="42.74579" lon="1.49772">
        <ele>1478</ele>
        <time>2026-06-28T05:29:10.000Z</time>
      </trkpt>
      <trkpt lat="42.74574" lon="1.49771">
        <ele>1478</ele>
        <time>2026-06-28T05:29:11.000Z</time>
      </trkpt>
      <trkpt lat="42.7457" lon="1.4977">
        <ele>1478</ele>
        <time>2026-06-28T05:29:12.000Z</time>
      </trkpt>
      <trkpt lat="42.74566" lon="1.49769">
        <ele>1479</ele>
        <time>2026-06-28T05:29:13.000Z</time>
      </trkpt>
      <trkpt lat="42.74562" lon="1.49768">
        <ele>1478</ele>
        <time>2026-06-28T05:29:14.000Z</time>
      </trkpt>
      <trkpt lat="42.74557" lon="1.49768">
        <ele>1478</ele>
        <time>2026-06-28T05:29:15.000Z</time>
      </trkpt>
      <trkpt lat="42.74553" lon="1.49769">
        <ele>1478</ele>
        <time>2026-06-28T05:29:16.000Z</time>
      </trkpt>
      <trkpt lat="42.7455" lon="1.49773">
        <ele>1478</ele>
        <time>2026-06-28T05:29:17.000Z</time>
      </trkpt>
      <trkpt lat="42.74547" lon="1.49778">
        <ele>1478</ele>
        <time>2026-06-28T05:29:18.000Z</time>
      </trkpt>
      <trkpt lat="42.74546" lon="1.49782">
        <ele>1478</ele>
        <time>2026-06-28T05:29:19.000Z</time>
      </trkpt>
      <trkpt lat="42.74544" lon="1.49787">
        <ele>1478</ele>
        <time>2026-06-28T05:29:20.000Z</time>
      </trkpt>
      <trkpt lat="42.74543" lon="1.49792">
        <ele>1478</ele>
        <time>2026-06-28T05:29:21.000Z</time>
      </trkpt>
      <trkpt lat="42.74542" lon="1.49798">
        <ele>1478</ele>
        <time>2026-06-28T05:29:22.000Z</time>
      </trkpt>
      <trkpt lat="42.74539" lon="1.49803">
        <ele>1478</ele>
        <time>2026-06-28T05:29:23.000Z</time>
      </trkpt>
      <trkpt lat="42.74537" lon="1.49808">
        <ele>1478</ele>
        <time>2026-06-28T05:29:24.000Z</time>
      </trkpt>
      <trkpt lat="42.74533" lon="1.49812">
        <ele>1478</ele>
        <time>2026-06-28T05:29:25.000Z</time>
      </trkpt>
      <trkpt lat="42.7453" lon="1.49817">
        <ele>1478</ele>
        <time>2026-06-28T05:29:26.000Z</time>
      </trkpt>
      <trkpt lat="42.74526" lon="1.49822">
        <ele>1478</ele>
        <time>2026-06-28T05:29:27.000Z</time>
      </trkpt>
      <trkpt lat="42.74523" lon="1.49827">
        <ele>1477</ele>
        <time>2026-06-28T05:29:28.000Z</time>
      </trkpt>
      <trkpt lat="42.74519" lon="1.49832">
        <ele>1477</ele>
        <time>2026-06-28T05:29:29.000Z</time>
      </trkpt>
      <trkpt lat="42.74516" lon="1.49837">
        <ele>1477</ele>
        <time>2026-06-28T05:29:30.000Z</time>
      </trkpt>
      <trkpt lat="42.74513" lon="1.49842">
        <ele>1477</ele>
        <time>2026-06-28T05:29:31.000Z</time>
      </trkpt>
      <trkpt lat="42.7451" lon="1.49847">
        <ele>1477</ele>
        <time>2026-06-28T05:29:32.000Z</time>
      </trkpt>
      <trkpt lat="42.74508" lon="1.49853">
        <ele>1478</ele>
        <time>2026-06-28T05:29:33.000Z</time>
      </trkpt>
      <trkpt lat="42.74505" lon="1.49859">
        <ele>1478</ele>
        <time>2026-06-28T05:29:34.000Z</time>
      </trkpt>
      <trkpt lat="42.74502" lon="1.49864">
        <ele>1478</ele>
        <time>2026-06-28T05:29:35.000Z</time>
      </trkpt>
      <trkpt lat="42.74499" lon="1.4987">
        <ele>1477</ele>
        <time>2026-06-28T05:29:36.000Z</time>
      </trkpt>
      <trkpt lat="42.74496" lon="1.49875">
        <ele>1477</ele>
        <time>2026-06-28T05:29:37.000Z</time>
      </trkpt>
      <trkpt lat="42.74494" lon="1.4988">
        <ele>1477</ele>
        <time>2026-06-28T05:29:38.000Z</time>
      </trkpt>
      <trkpt lat="42.74492" lon="1.49886">
        <ele>1477</ele>
        <time>2026-06-28T05:29:39.000Z</time>
      </trkpt>
      <trkpt lat="42.7449" lon="1.49893">
        <ele>1477</ele>
        <time>2026-06-28T05:29:40.000Z</time>
      </trkpt>
      <trkpt lat="42.74488" lon="1.49899">
        <ele>1477</ele>
        <time>2026-06-28T05:29:41.000Z</time>
      </trkpt>
      <trkpt lat="42.74486" lon="1.49904">
        <ele>1477</ele>
        <time>2026-06-28T05:29:42.000Z</time>
      </trkpt>
      <trkpt lat="42.74483" lon="1.4991">
        <ele>1477</ele>
        <time>2026-06-28T05:29:43.000Z</time>
      </trkpt>
      <trkpt lat="42.74481" lon="1.49914">
        <ele>1477</ele>
        <time>2026-06-28T05:29:44.000Z</time>
      </trkpt>
      <trkpt lat="42.74479" lon="1.49917">
        <ele>1476</ele>
        <time>2026-06-28T05:29:45.000Z</time>
      </trkpt>
      <trkpt lat="42.74477" lon="1.49922">
        <ele>1477</ele>
        <time>2026-06-28T05:29:46.000Z</time>
      </trkpt>
      <trkpt lat="42.74475" lon="1.49926">
        <ele>1477</ele>
        <time>2026-06-28T05:29:47.000Z</time>
      </trkpt>
      <trkpt lat="42.74473" lon="1.4993">
        <ele>1477</ele>
        <time>2026-06-28T05:29:48.000Z</time>
      </trkpt>
      <trkpt lat="42.74471" lon="1.49934">
        <ele>1477</ele>
        <time>2026-06-28T05:29:49.000Z</time>
      </trkpt>
      <trkpt lat="42.74468" lon="1.49938">
        <ele>1476</ele>
        <time>2026-06-28T05:29:50.000Z</time>
      </trkpt>
      <trkpt lat="42.74466" lon="1.49942">
        <ele>1476</ele>
        <time>2026-06-28T05:29:51.000Z</time>
      </trkpt>
      <trkpt lat="42.74464" lon="1.49946">
        <ele>1477</ele>
        <time>2026-06-28T05:29:52.000Z</time>
      </trkpt>
      <trkpt lat="42.74462" lon="1.4995">
        <ele>1477</ele>
        <time>2026-06-28T05:29:53.000Z</time>
      </trkpt>
      <trkpt lat="42.74461" lon="1.49954">
        <ele>1477</ele>
        <time>2026-06-28T05:29:54.000Z</time>
      </trkpt>
      <trkpt lat="42.74459" lon="1.49958">
        <ele>1477</ele>
        <time>2026-06-28T05:29:55.000Z</time>
      </trkpt>
      <trkpt lat="42.74457" lon="1.49962">
        <ele>1477</ele>
        <time>2026-06-28T05:29:56.000Z</time>
      </trkpt>
      <trkpt lat="42.74455" lon="1.49967">
        <ele>1477</ele>
        <time>2026-06-28T05:29:57.000Z</time>
      </trkpt>
      <trkpt lat="42.74453" lon="1.49971">
        <ele>1477</ele>
        <time>2026-06-28T05:29:58.000Z</time>
      </trkpt>
      <trkpt lat="42.74452" lon="1.49975">
        <ele>1477</ele>
        <time>2026-06-28T05:29:59.000Z</time>
      </trkpt>
      <trkpt lat="42.74449" lon="1.49979">
        <ele>1477</ele>
        <time>2026-06-28T05:30:00.000Z</time>
      </trkpt>
      <trkpt lat="42.74448" lon="1.49984">
        <ele>1477</ele>
        <time>2026-06-28T05:30:01.000Z</time>
      </trkpt>
      <trkpt lat="42.74446" lon="1.49989">
        <ele>1477</ele>
        <time>2026-06-28T05:30:02.000Z</time>
      </trkpt>
      <trkpt lat="42.74443" lon="1.49992">
        <ele>1477</ele>
        <time>2026-06-28T05:30:03.000Z</time>
      </trkpt>
      <trkpt lat="42.74441" lon="1.49997">
        <ele>1477</ele>
        <time>2026-06-28T05:30:04.000Z</time>
      </trkpt>
      <trkpt lat="42.74438" lon="1.50003">
        <ele>1477</ele>
        <time>2026-06-28T05:30:05.000Z</time>
      </trkpt>
      <trkpt lat="42.74435" lon="1.50009">
        <ele>1477</ele>
        <time>2026-06-28T05:30:06.000Z</time>
      </trkpt>
      <trkpt lat="42.74434" lon="1.50013">
        <ele>1477</ele>
        <time>2026-06-28T05:30:07.000Z</time>
      </trkpt>
      <trkpt lat="42.74432" lon="1.50018">
        <ele>1477</ele>
        <time>2026-06-28T05:30:08.000Z</time>
      </trkpt>
      <trkpt lat="42.7443" lon="1.50024">
        <ele>1477</ele>
        <time>2026-06-28T05:30:09.000Z</time>
      </trkpt>
      <trkpt lat="42.74428" lon="1.50029">
        <ele>1478</ele>
        <time>2026-06-28T05:30:10.000Z</time>
      </trkpt>
      <trkpt lat="42.74427" lon="1.50035">
        <ele>1478</ele>
        <time>2026-06-28T05:30:11.000Z</time>
      </trkpt>
      <trkpt lat="42.74425" lon="1.50039">
        <ele>1479</ele>
        <time>2026-06-28T05:30:12.000Z</time>
      </trkpt>
      <trkpt lat="42.74423" lon="1.50044">
        <ele>1479</ele>
        <time>2026-06-28T05:30:13.000Z</time>
      </trkpt>
      <trkpt lat="42.74421" lon="1.50048">
        <ele>1479</ele>
        <time>2026-06-28T05:30:14.000Z</time>
      </trkpt>
      <trkpt lat="42.74419" lon="1.50053">
        <ele>1479</ele>
        <time>2026-06-28T05:30:15.000Z</time>
      </trkpt>
      <trkpt lat="42.74417" lon="1.50059">
        <ele>1478</ele>
        <time>2026-06-28T05:30:16.000Z</time>
      </trkpt>
      <trkpt lat="42.74416" lon="1.50064">
        <ele>1479</ele>
        <time>2026-06-28T05:30:17.000Z</time>
      </trkpt>
      <trkpt lat="42.74414" lon="1.50068">
        <ele>1479</ele>
        <time>2026-06-28T05:30:18.000Z</time>
      </trkpt>
      <trkpt lat="42.74412" lon="1.50072">
        <ele>1479</ele>
        <time>2026-06-28T05:30:19.000Z</time>
      </trkpt>
      <trkpt lat="42.7441" lon="1.50076">
        <ele>1479</ele>
        <time>2026-06-28T05:30:20.000Z</time>
      </trkpt>
      <trkpt lat="42.74408" lon="1.5008">
        <ele>1480</ele>
        <time>2026-06-28T05:30:21.000Z</time>
      </trkpt>
      <trkpt lat="42.74406" lon="1.50085">
        <ele>1480</ele>
        <time>2026-06-28T05:30:22.000Z</time>
      </trkpt>
      <trkpt lat="42.74404" lon="1.5009">
        <ele>1480</ele>
        <time>2026-06-28T05:30:23.000Z</time>
      </trkpt>
      <trkpt lat="42.74402" lon="1.50093">
        <ele>1480</ele>
        <time>2026-06-28T05:30:24.000Z</time>
      </trkpt>
      <trkpt lat="42.744" lon="1.50098">
        <ele>1481</ele>
        <time>2026-06-28T05:30:25.000Z</time>
      </trkpt>
      <trkpt lat="42.74397" lon="1.50103">
        <ele>1481</ele>
        <time>2026-06-28T05:30:26.000Z</time>
      </trkpt>
      <trkpt lat="42.74394" lon="1.50108">
        <ele>1480</ele>
        <time>2026-06-28T05:30:27.000Z</time>
      </trkpt>
      <trkpt lat="42.74391" lon="1.50112">
        <ele>1480</ele>
        <time>2026-06-28T05:30:28.000Z</time>
      </trkpt>
      <trkpt lat="42.74388" lon="1.50116">
        <ele>1480</ele>
        <time>2026-06-28T05:30:29.000Z</time>
      </trkpt>
      <trkpt lat="42.74385" lon="1.50119">
        <ele>1479</ele>
        <time>2026-06-28T05:30:30.000Z</time>
      </trkpt>
      <trkpt lat="42.74381" lon="1.50123">
        <ele>1479</ele>
        <time>2026-06-28T05:30:31.000Z</time>
      </trkpt>
      <trkpt lat="42.74378" lon="1.50128">
        <ele>1478</ele>
        <time>2026-06-28T05:30:32.000Z</time>
      </trkpt>
      <trkpt lat="42.74375" lon="1.50131">
        <ele>1478</ele>
        <time>2026-06-28T05:30:33.000Z</time>
      </trkpt>
      <trkpt lat="42.74372" lon="1.50133">
        <ele>1478</ele>
        <time>2026-06-28T05:30:34.000Z</time>
      </trkpt>
      <trkpt lat="42.7437" lon="1.50134">
        <ele>1478</ele>
        <time>2026-06-28T05:30:35.000Z</time>
      </trkpt>
      <trkpt lat="42.74367" lon="1.50135">
        <ele>1478</ele>
        <time>2026-06-28T05:30:36.000Z</time>
      </trkpt>
      <trkpt lat="42.74365" lon="1.50136">
        <ele>1478</ele>
        <time>2026-06-28T05:30:37.000Z</time>
      </trkpt>
      <trkpt lat="42.74362" lon="1.50138">
        <ele>1478</ele>
        <time>2026-06-28T05:30:38.000Z</time>
      </trkpt>
      <trkpt lat="42.7436" lon="1.50139">
        <ele>1479</ele>
        <time>2026-06-28T05:30:39.000Z</time>
      </trkpt>
      <trkpt lat="42.74358" lon="1.50142">
        <ele>1479</ele>
        <time>2026-06-28T05:30:40.000Z</time>
      </trkpt>
      <trkpt lat="42.74355" lon="1.50144">
        <ele>1479</ele>
        <time>2026-06-28T05:30:41.000Z</time>
      </trkpt>
      <trkpt lat="42.74351" lon="1.50144">
        <ele>1479</ele>
        <time>2026-06-28T05:30:42.000Z</time>
      </trkpt>
      <trkpt lat="42.74347" lon="1.50145">
        <ele>1479</ele>
        <time>2026-06-28T05:30:43.000Z</time>
      </trkpt>
      <trkpt lat="42.74343" lon="1.50145">
        <ele>1479</ele>
        <time>2026-06-28T05:30:44.000Z</time>
      </trkpt>
      <trkpt lat="42.74339" lon="1.50144">
        <ele>1478</ele>
        <time>2026-06-28T05:30:45.000Z</time>
      </trkpt>
      <trkpt lat="42.74335" lon="1.50143">
        <ele>1478</ele>
        <time>2026-06-28T05:30:46.000Z</time>
      </trkpt>
      <trkpt lat="42.74331" lon="1.50142">
        <ele>1478</ele>
        <time>2026-06-28T05:30:47.000Z</time>
      </trkpt>
      <trkpt lat="42.74328" lon="1.50141">
        <ele>1478</ele>
        <time>2026-06-28T05:30:48.000Z</time>
      </trkpt>
      <trkpt lat="42.74324" lon="1.50141">
        <ele>1477</ele>
        <time>2026-06-28T05:30:49.000Z</time>
      </trkpt>
      <trkpt lat="42.74321" lon="1.50142">
        <ele>1477</ele>
        <time>2026-06-28T05:30:50.000Z</time>
      </trkpt>
      <trkpt lat="42.74318" lon="1.50144">
        <ele>1477</ele>
        <time>2026-06-28T05:30:51.000Z</time>
      </trkpt>
      <trkpt lat="42.74315" lon="1.50147">
        <ele>1477</ele>
        <time>2026-06-28T05:30:52.000Z</time>
      </trkpt>
      <trkpt lat="42.74313" lon="1.5015">
        <ele>1477</ele>
        <time>2026-06-28T05:30:53.000Z</time>
      </trkpt>
      <trkpt lat="42.74312" lon="1.50152">
        <ele>1477</ele>
        <time>2026-06-28T05:30:54.000Z</time>
      </trkpt>
      <trkpt lat="42.74309" lon="1.50154">
        <ele>1477</ele>
        <time>2026-06-28T05:30:55.000Z</time>
      </trkpt>
      <trkpt lat="42.74305" lon="1.50155">
        <ele>1478</ele>
        <time>2026-06-28T05:30:56.000Z</time>
      </trkpt>
      <trkpt lat="42.74301" lon="1.50155">
        <ele>1478</ele>
        <time>2026-06-28T05:30:57.000Z</time>
      </trkpt>
      <trkpt lat="42.74298" lon="1.50155">
        <ele>1478</ele>
        <time>2026-06-28T05:30:58.000Z</time>
      </trkpt>
      <trkpt lat="42.74295" lon="1.50155">
        <ele>1478</ele>
        <time>2026-06-28T05:30:59.000Z</time>
      </trkpt>
      <trkpt lat="42.74292" lon="1.50154">
        <ele>1477</ele>
        <time>2026-06-28T05:31:00.000Z</time>
      </trkpt>
      <trkpt lat="42.7429" lon="1.50153">
        <ele>1476</ele>
        <time>2026-06-28T05:31:01.000Z</time>
      </trkpt>
      <trkpt lat="42.74288" lon="1.50151">
        <ele>1476</ele>
        <time>2026-06-28T05:31:02.000Z</time>
      </trkpt>
      <trkpt lat="42.74285" lon="1.50149">
        <ele>1476</ele>
        <time>2026-06-28T05:31:03.000Z</time>
      </trkpt>
      <trkpt lat="42.74282" lon="1.50148">
        <ele>1476</ele>
        <time>2026-06-28T05:31:04.000Z</time>
      </trkpt>
      <trkpt lat="42.74279" lon="1.50147">
        <ele>1476</ele>
        <time>2026-06-28T05:31:05.000Z</time>
      </trkpt>
      <trkpt lat="42.74276" lon="1.50147">
        <ele>1477</ele>
        <time>2026-06-28T05:31:06.000Z</time>
      </trkpt>
      <trkpt lat="42.74274" lon="1.50146">
        <ele>1477</ele>
        <time>2026-06-28T05:31:07.000Z</time>
      </trkpt>
      <trkpt lat="42.74272" lon="1.50144">
        <ele>1477</ele>
        <time>2026-06-28T05:31:08.000Z</time>
      </trkpt>
      <trkpt lat="42.74271" lon="1.50143">
        <ele>1477</ele>
        <time>2026-06-28T05:31:09.000Z</time>
      </trkpt>
      <trkpt lat="42.7427" lon="1.50143">
        <ele>1476</ele>
        <time>2026-06-28T05:31:10.000Z</time>
      </trkpt>
      <trkpt lat="42.74268" lon="1.50142">
        <ele>1476</ele>
        <time>2026-06-28T05:31:11.000Z</time>
      </trkpt>
      <trkpt lat="42.74266" lon="1.50141">
        <ele>1476</ele>
        <time>2026-06-28T05:31:12.000Z</time>
      </trkpt>
      <trkpt lat="42.74264" lon="1.50141">
        <ele>1476</ele>
        <time>2026-06-28T05:31:13.000Z</time>
      </trkpt>
      <trkpt lat="42.74262" lon="1.5014">
        <ele>1476</ele>
        <time>2026-06-28T05:31:14.000Z</time>
      </trkpt>
      <trkpt lat="42.74261" lon="1.5014">
        <ele>1476</ele>
        <time>2026-06-28T05:31:15.000Z</time>
      </trkpt>
      <trkpt lat="42.7426" lon="1.5014">
        <ele>1476</ele>
        <time>2026-06-28T05:31:16.000Z</time>
      </trkpt>
      <trkpt lat="42.74259" lon="1.50139">
        <ele>1476</ele>
        <time>2026-06-28T05:31:17.000Z</time>
      </trkpt>
      <trkpt lat="42.74258" lon="1.50139">
        <ele>1475</ele>
        <time>2026-06-28T05:31:18.000Z</time>
      </trkpt>
      <trkpt lat="42.74257" lon="1.50139">
        <ele>1476</ele>
        <time>2026-06-28T05:31:19.000Z</time>
      </trkpt>
      <trkpt lat="42.74255" lon="1.50139">
        <ele>1476</ele>
        <time>2026-06-28T05:31:20.000Z</time>
      </trkpt>
      <trkpt lat="42.74254" lon="1.50139">
        <ele>1476</ele>
        <time>2026-06-28T05:31:21.000Z</time>
      </trkpt>
      <trkpt lat="42.74252" lon="1.50139">
        <ele>1476</ele>
        <time>2026-06-28T05:31:22.000Z</time>
      </trkpt>
      <trkpt lat="42.7425" lon="1.50141">
        <ele>1476</ele>
        <time>2026-06-28T05:31:23.000Z</time>
      </trkpt>
      <trkpt lat="42.74247" lon="1.50143">
        <ele>1476</ele>
        <time>2026-06-28T05:31:24.000Z</time>
      </trkpt>
      <trkpt lat="42.74245" lon="1.50146">
        <ele>1477</ele>
        <time>2026-06-28T05:31:25.000Z</time>
      </trkpt>
      <trkpt lat="42.74243" lon="1.50149">
        <ele>1477</ele>
        <time>2026-06-28T05:31:26.000Z</time>
      </trkpt>
      <trkpt lat="42.74241" lon="1.50152">
        <ele>1477</ele>
        <time>2026-06-28T05:31:27.000Z</time>
      </trkpt>
      <trkpt lat="42.74238" lon="1.50156">
        <ele>1477</ele>
        <time>2026-06-28T05:31:28.000Z</time>
      </trkpt>
      <trkpt lat="42.74236" lon="1.50159">
        <ele>1477</ele>
        <time>2026-06-28T05:31:29.000Z</time>
      </trkpt>
      <trkpt lat="42.74235" lon="1.50162">
        <ele>1476</ele>
        <time>2026-06-28T05:31:30.000Z</time>
      </trkpt>
      <trkpt lat="42.74233" lon="1.50165">
        <ele>1476</ele>
        <time>2026-06-28T05:31:31.000Z</time>
      </trkpt>
      <trkpt lat="42.74231" lon="1.50167">
        <ele>1476</ele>
        <time>2026-06-28T05:31:32.000Z</time>
      </trkpt>
      <trkpt lat="42.74229" lon="1.50168">
        <ele>1475</ele>
        <time>2026-06-28T05:31:33.000Z</time>
      </trkpt>
      <trkpt lat="42.74227" lon="1.50169">
        <ele>1474</ele>
        <time>2026-06-28T05:31:34.000Z</time>
      </trkpt>
      <trkpt lat="42.74226" lon="1.50169">
        <ele>1474</ele>
        <time>2026-06-28T05:31:35.000Z</time>
      </trkpt>
      <trkpt lat="42.74224" lon="1.50168">
        <ele>1474</ele>
        <time>2026-06-28T05:31:36.000Z</time>
      </trkpt>
      <trkpt lat="42.74222" lon="1.50167">
        <ele>1473</ele>
        <time>2026-06-28T05:31:37.000Z</time>
      </trkpt>
      <trkpt lat="42.74221" lon="1.50166">
        <ele>1472</ele>
        <time>2026-06-28T05:31:38.000Z</time>
      </trkpt>
      <trkpt lat="42.74219" lon="1.50165">
        <ele>1473</ele>
        <time>2026-06-28T05:31:39.000Z</time>
      </trkpt>
      <trkpt lat="42.74218" lon="1.50163">
        <ele>1474</ele>
        <time>2026-06-28T05:31:40.000Z</time>
      </trkpt>
      <trkpt lat="42.74216" lon="1.50162">
        <ele>1474</ele>
        <time>2026-06-28T05:31:41.000Z</time>
      </trkpt>
      <trkpt lat="42.74214" lon="1.5016">
        <ele>1474</ele>
        <time>2026-06-28T05:31:42.000Z</time>
      </trkpt>
      <trkpt lat="42.74213" lon="1.50158">
        <ele>1474</ele>
        <time>2026-06-28T05:31:43.000Z</time>
      </trkpt>
      <trkpt lat="42.74211" lon="1.50157">
        <ele>1473</ele>
        <time>2026-06-28T05:31:44.000Z</time>
      </trkpt>
      <trkpt lat="42.74209" lon="1.50155">
        <ele>1473</ele>
        <time>2026-06-28T05:31:45.000Z</time>
      </trkpt>
      <trkpt lat="42.74207" lon="1.50153">
        <ele>1474</ele>
        <time>2026-06-28T05:31:46.000Z</time>
      </trkpt>
      <trkpt lat="42.74205" lon="1.50152">
        <ele>1473</ele>
        <time>2026-06-28T05:31:47.000Z</time>
      </trkpt>
      <trkpt lat="42.74202" lon="1.5015">
        <ele>1474</ele>
        <time>2026-06-28T05:31:48.000Z</time>
      </trkpt>
      <trkpt lat="42.74201" lon="1.50149">
        <ele>1474</ele>
        <time>2026-06-28T05:31:49.000Z</time>
      </trkpt>
      <trkpt lat="42.74199" lon="1.50149">
        <ele>1474</ele>
        <time>2026-06-28T05:31:50.000Z</time>
      </trkpt>
      <trkpt lat="42.74197" lon="1.50148">
        <ele>1474</ele>
        <time>2026-06-28T05:31:51.000Z</time>
      </trkpt>
      <trkpt lat="42.74195" lon="1.50148">
        <ele>1474</ele>
        <time>2026-06-28T05:31:52.000Z</time>
      </trkpt>
      <trkpt lat="42.74192" lon="1.50147">
        <ele>1474</ele>
        <time>2026-06-28T05:31:53.000Z</time>
      </trkpt>
      <trkpt lat="42.74189" lon="1.50146">
        <ele>1474</ele>
        <time>2026-06-28T05:31:54.000Z</time>
      </trkpt>
      <trkpt lat="42.74187" lon="1.50146">
        <ele>1474</ele>
        <time>2026-06-28T05:31:55.000Z</time>
      </trkpt>
      <trkpt lat="42.74186" lon="1.50145">
        <ele>1473</ele>
        <time>2026-06-28T05:31:56.000Z</time>
      </trkpt>
      <trkpt lat="42.74185" lon="1.50145">
        <ele>1473</ele>
        <time>2026-06-28T05:31:57.000Z</time>
      </trkpt>
      <trkpt lat="42.74185" lon="1.50145">
        <ele>1474</ele>
        <time>2026-06-28T05:31:58.000Z</time>
      </trkpt>
      <trkpt lat="42.74184" lon="1.50145">
        <ele>1474</ele>
        <time>2026-06-28T05:31:59.000Z</time>
      </trkpt>
      <trkpt lat="42.74184" lon="1.50145">
        <ele>1474</ele>
        <time>2026-06-28T05:32:00.000Z</time>
      </trkpt>
      <trkpt lat="42.74183" lon="1.50145">
        <ele>1474</ele>
        <time>2026-06-28T05:32:01.000Z</time>
      </trkpt>
      <trkpt lat="42.74182" lon="1.50145">
        <ele>1474</ele>
        <time>2026-06-28T05:32:02.000Z</time>
      </trkpt>
      <trkpt lat="42.74181" lon="1.50146">
        <ele>1474</ele>
        <time>2026-06-28T05:32:03.000Z</time>
      </trkpt>
      <trkpt lat="42.7418" lon="1.50145">
        <ele>1473</ele>
        <time>2026-06-28T05:32:04.000Z</time>
      </trkpt>
      <trkpt lat="42.74179" lon="1.50145">
        <ele>1473</ele>
        <time>2026-06-28T05:32:05.000Z</time>
      </trkpt>
      <trkpt lat="42.74179" lon="1.50145">
        <ele>1473</ele>
        <time>2026-06-28T05:32:06.000Z</time>
      </trkpt>
      <trkpt lat="42.74178" lon="1.50145">
        <ele>1472</ele>
        <time>2026-06-28T05:32:07.000Z</time>
      </trkpt>
      <trkpt lat="42.74177" lon="1.50145">
        <ele>1472</ele>
        <time>2026-06-28T05:32:08.000Z</time>
      </trkpt>
      <trkpt lat="42.74177" lon="1.50145">
        <ele>1472</ele>
        <time>2026-06-28T05:32:09.000Z</time>
      </trkpt>
      <trkpt lat="42.74176" lon="1.50145">
        <ele>1472</ele>
        <time>2026-06-28T05:32:10.000Z</time>
      </trkpt>
      <trkpt lat="42.74175" lon="1.50147">
        <ele>1472</ele>
        <time>2026-06-28T05:32:11.000Z</time>
      </trkpt>
      <trkpt lat="42.74175" lon="1.50148">
        <ele>1472</ele>
        <time>2026-06-28T05:32:12.000Z</time>
      </trkpt>
      <trkpt lat="42.74175" lon="1.50148">
        <ele>1472</ele>
        <time>2026-06-28T05:32:13.000Z</time>
      </trkpt>
      <trkpt lat="42.74175" lon="1.50149">
        <ele>1472</ele>
        <time>2026-06-28T05:32:14.000Z</time>
      </trkpt>
      <trkpt lat="42.74174" lon="1.50149">
        <ele>1472</ele>
        <time>2026-06-28T05:32:15.000Z</time>
      </trkpt>
      <trkpt lat="42.74174" lon="1.5015">
        <ele>1472</ele>
        <time>2026-06-28T05:32:16.000Z</time>
      </trkpt>
      <trkpt lat="42.74173" lon="1.50151">
        <ele>1472</ele>
        <time>2026-06-28T05:32:17.000Z</time>
      </trkpt>
      <trkpt lat="42.74173" lon="1.50152">
        <ele>1473</ele>
        <time>2026-06-28T05:32:18.000Z</time>
      </trkpt>
      <trkpt lat="42.74172" lon="1.50155">
        <ele>1475</ele>
        <time>2026-06-28T05:32:19.000Z</time>
      </trkpt>
      <trkpt lat="42.7417" lon="1.50157">
        <ele>1476</ele>
        <time>2026-06-28T05:32:20.000Z</time>
      </trkpt>
      <trkpt lat="42.74169" lon="1.50159">
        <ele>1476</ele>
        <time>2026-06-28T05:32:21.000Z</time>
      </trkpt>
      <trkpt lat="42.74167" lon="1.5016">
        <ele>1476</ele>
        <time>2026-06-28T05:32:22.000Z</time>
      </trkpt>
      <trkpt lat="42.74166" lon="1.50161">
        <ele>1476</ele>
        <time>2026-06-28T05:32:23.000Z</time>
      </trkpt>
      <trkpt lat="42.74164" lon="1.50163">
        <ele>1476</ele>
        <time>2026-06-28T05:32:24.000Z</time>
      </trkpt>
      <trkpt lat="42.74163" lon="1.50165">
        <ele>1476</ele>
        <time>2026-06-28T05:32:25.000Z</time>
      </trkpt>
      <trkpt lat="42.74162" lon="1.50167">
        <ele>1475</ele>
        <time>2026-06-28T05:32:26.000Z</time>
      </trkpt>
      <trkpt lat="42.7416" lon="1.5017">
        <ele>1476</ele>
        <time>2026-06-28T05:32:27.000Z</time>
      </trkpt>
      <trkpt lat="42.7416" lon="1.50174">
        <ele>1478</ele>
        <time>2026-06-28T05:32:28.000Z</time>
      </trkpt>
      <trkpt lat="42.74159" lon="1.50177">
        <ele>1480</ele>
        <time>2026-06-28T05:32:29.000Z</time>
      </trkpt>
      <trkpt lat="42.74158" lon="1.50181">
        <ele>1480</ele>
        <time>2026-06-28T05:32:30.000Z</time>
      </trkpt>
      <trkpt lat="42.74157" lon="1.50184">
        <ele>1482</ele>
        <time>2026-06-28T05:32:31.000Z</time>
      </trkpt>
      <trkpt lat="42.74155" lon="1.50186">
        <ele>1483</ele>
        <time>2026-06-28T05:32:32.000Z</time>
      </trkpt>
      <trkpt lat="42.74153" lon="1.50188">
        <ele>1485</ele>
        <time>2026-06-28T05:32:33.000Z</time>
      </trkpt>
      <trkpt lat="42.74151" lon="1.50192">
        <ele>1486</ele>
        <time>2026-06-28T05:32:34.000Z</time>
      </trkpt>
      <trkpt lat="42.74148" lon="1.50195">
        <ele>1485</ele>
        <time>2026-06-28T05:32:35.000Z</time>
      </trkpt>
      <trkpt lat="42.74144" lon="1.50197">
        <ele>1484</ele>
        <time>2026-06-28T05:32:36.000Z</time>
      </trkpt>
      <trkpt lat="42.74141" lon="1.50198">
        <ele>1484</ele>
        <time>2026-06-28T05:32:37.000Z</time>
      </trkpt>
      <trkpt lat="42.74139" lon="1.50199">
        <ele>1483</ele>
        <time>2026-06-28T05:32:38.000Z</time>
      </trkpt>
      <trkpt lat="42.74137" lon="1.502">
        <ele>1483</ele>
        <time>2026-06-28T05:32:39.000Z</time>
      </trkpt>
      <trkpt lat="42.74136" lon="1.50201">
        <ele>1482</ele>
        <time>2026-06-28T05:32:40.000Z</time>
      </trkpt>
      <trkpt lat="42.74134" lon="1.50203">
        <ele>1482</ele>
        <time>2026-06-28T05:32:41.000Z</time>
      </trkpt>
      <trkpt lat="42.74133" lon="1.50206">
        <ele>1482</ele>
        <time>2026-06-28T05:32:42.000Z</time>
      </trkpt>
      <trkpt lat="42.74133" lon="1.50208">
        <ele>1482</ele>
        <time>2026-06-28T05:32:43.000Z</time>
      </trkpt>
      <trkpt lat="42.74134" lon="1.50211">
        <ele>1481</ele>
        <time>2026-06-28T05:32:44.000Z</time>
      </trkpt>
      <trkpt lat="42.74134" lon="1.50216">
        <ele>1482</ele>
        <time>2026-06-28T05:32:45.000Z</time>
      </trkpt>
      <trkpt lat="42.74135" lon="1.50222">
        <ele>1481</ele>
        <time>2026-06-28T05:32:46.000Z</time>
      </trkpt>
      <trkpt lat="42.74135" lon="1.50227">
        <ele>1481</ele>
        <time>2026-06-28T05:32:47.000Z</time>
      </trkpt>
      <trkpt lat="42.74135" lon="1.50234">
        <ele>1481</ele>
        <time>2026-06-28T05:32:48.000Z</time>
      </trkpt>
      <trkpt lat="42.74135" lon="1.50239">
        <ele>1480</ele>
        <time>2026-06-28T05:32:49.000Z</time>
      </trkpt>
      <trkpt lat="42.74134" lon="1.50244">
        <ele>1481</ele>
        <time>2026-06-28T05:32:50.000Z</time>
      </trkpt>
      <trkpt lat="42.74134" lon="1.5025">
        <ele>1481</ele>
        <time>2026-06-28T05:32:51.000Z</time>
      </trkpt>
      <trkpt lat="42.74134" lon="1.50254">
        <ele>1481</ele>
        <time>2026-06-28T05:32:52.000Z</time>
      </trkpt>
      <trkpt lat="42.74132" lon="1.5026">
        <ele>1480</ele>
        <time>2026-06-28T05:32:53.000Z</time>
      </trkpt>
      <trkpt lat="42.74131" lon="1.50265">
        <ele>1480</ele>
        <time>2026-06-28T05:32:54.000Z</time>
      </trkpt>
      <trkpt lat="42.74128" lon="1.5027">
        <ele>1480</ele>
        <time>2026-06-28T05:32:55.000Z</time>
      </trkpt>
      <trkpt lat="42.74126" lon="1.50274">
        <ele>1479</ele>
        <time>2026-06-28T05:32:56.000Z</time>
      </trkpt>
      <trkpt lat="42.74124" lon="1.50279">
        <ele>1479</ele>
        <time>2026-06-28T05:32:57.000Z</time>
      </trkpt>
      <trkpt lat="42.74122" lon="1.50282">
        <ele>1478</ele>
        <time>2026-06-28T05:32:58.000Z</time>
      </trkpt>
      <trkpt lat="42.7412" lon="1.50286">
        <ele>1478</ele>
        <time>2026-06-28T05:32:59.000Z</time>
      </trkpt>
      <trkpt lat="42.74118" lon="1.50289">
        <ele>1478</ele>
        <time>2026-06-28T05:33:00.000Z</time>
      </trkpt>
      <trkpt lat="42.74117" lon="1.50294">
        <ele>1478</ele>
        <time>2026-06-28T05:33:01.000Z</time>
      </trkpt>
      <trkpt lat="42.74115" lon="1.50298">
        <ele>1478</ele>
        <time>2026-06-28T05:33:02.000Z</time>
      </trkpt>
      <trkpt lat="42.74114" lon="1.50303">
        <ele>1478</ele>
        <time>2026-06-28T05:33:03.000Z</time>
      </trkpt>
      <trkpt lat="42.74112" lon="1.50307">
        <ele>1478</ele>
        <time>2026-06-28T05:33:04.000Z</time>
      </trkpt>
      <trkpt lat="42.7411" lon="1.50311">
        <ele>1478</ele>
        <time>2026-06-28T05:33:05.000Z</time>
      </trkpt>
      <trkpt lat="42.74108" lon="1.50313">
        <ele>1477</ele>
        <time>2026-06-28T05:33:06.000Z</time>
      </trkpt>
      <trkpt lat="42.74107" lon="1.50315">
        <ele>1477</ele>
        <time>2026-06-28T05:33:07.000Z</time>
      </trkpt>
      <trkpt lat="42.74105" lon="1.50317">
        <ele>1477</ele>
        <time>2026-06-28T05:33:08.000Z</time>
      </trkpt>
      <trkpt lat="42.74103" lon="1.50318">
        <ele>1477</ele>
        <time>2026-06-28T05:33:09.000Z</time>
      </trkpt>
      <trkpt lat="42.741" lon="1.5032">
        <ele>1477</ele>
        <time>2026-06-28T05:33:10.000Z</time>
      </trkpt>
      <trkpt lat="42.74097" lon="1.50321">
        <ele>1477</ele>
        <time>2026-06-28T05:33:11.000Z</time>
      </trkpt>
      <trkpt lat="42.74093" lon="1.50322">
        <ele>1477</ele>
        <time>2026-06-28T05:33:12.000Z</time>
      </trkpt>
      <trkpt lat="42.7409" lon="1.50323">
        <ele>1477</ele>
        <time>2026-06-28T05:33:13.000Z</time>
      </trkpt>
      <trkpt lat="42.74086" lon="1.50324">
        <ele>1477</ele>
        <time>2026-06-28T05:33:14.000Z</time>
      </trkpt>
      <trkpt lat="42.74083" lon="1.50324">
        <ele>1476</ele>
        <time>2026-06-28T05:33:15.000Z</time>
      </trkpt>
      <trkpt lat="42.7408" lon="1.50325">
        <ele>1476</ele>
        <time>2026-06-28T05:33:16.000Z</time>
      </trkpt>
      <trkpt lat="42.74076" lon="1.50327">
        <ele>1476</ele>
        <time>2026-06-28T05:33:17.000Z</time>
      </trkpt>
      <trkpt lat="42.74073" lon="1.50329">
        <ele>1477</ele>
        <time>2026-06-28T05:33:18.000Z</time>
      </trkpt>
      <trkpt lat="42.7407" lon="1.50331">
        <ele>1476</ele>
        <time>2026-06-28T05:33:19.000Z</time>
      </trkpt>
      <trkpt lat="42.74067" lon="1.50333">
        <ele>1475</ele>
        <time>2026-06-28T05:33:20.000Z</time>
      </trkpt>
      <trkpt lat="42.74063" lon="1.50335">
        <ele>1476</ele>
        <time>2026-06-28T05:33:21.000Z</time>
      </trkpt>
      <trkpt lat="42.7406" lon="1.50338">
        <ele>1476</ele>
        <time>2026-06-28T05:33:22.000Z</time>
      </trkpt>
      <trkpt lat="42.74057" lon="1.5034">
        <ele>1476</ele>
        <time>2026-06-28T05:33:23.000Z</time>
      </trkpt>
      <trkpt lat="42.74055" lon="1.50342">
        <ele>1476</ele>
        <time>2026-06-28T05:33:24.000Z</time>
      </trkpt>
      <trkpt lat="42.74052" lon="1.50345">
        <ele>1476</ele>
        <time>2026-06-28T05:33:25.000Z</time>
      </trkpt>
      <trkpt lat="42.7405" lon="1.50349">
        <ele>1477</ele>
        <time>2026-06-28T05:33:26.000Z</time>
      </trkpt>
      <trkpt lat="42.74047" lon="1.50352">
        <ele>1477</ele>
        <time>2026-06-28T05:33:27.000Z</time>
      </trkpt>
      <trkpt lat="42.74044" lon="1.50355">
        <ele>1477</ele>
        <time>2026-06-28T05:33:28.000Z</time>
      </trkpt>
      <trkpt lat="42.74041" lon="1.50358">
        <ele>1476</ele>
        <time>2026-06-28T05:33:29.000Z</time>
      </trkpt>
      <trkpt lat="42.74039" lon="1.50362">
        <ele>1476</ele>
        <time>2026-06-28T05:33:30.000Z</time>
      </trkpt>
      <trkpt lat="42.74037" lon="1.50364">
        <ele>1476</ele>
        <time>2026-06-28T05:33:31.000Z</time>
      </trkpt>
      <trkpt lat="42.74035" lon="1.50365">
        <ele>1477</ele>
        <time>2026-06-28T05:33:32.000Z</time>
      </trkpt>
      <trkpt lat="42.74032" lon="1.50367">
        <ele>1477</ele>
        <time>2026-06-28T05:33:33.000Z</time>
      </trkpt>
      <trkpt lat="42.74029" lon="1.50369">
        <ele>1477</ele>
        <time>2026-06-28T05:33:34.000Z</time>
      </trkpt>
      <trkpt lat="42.74026" lon="1.50371">
        <ele>1477</ele>
        <time>2026-06-28T05:33:35.000Z</time>
      </trkpt>
      <trkpt lat="42.74023" lon="1.50373">
        <ele>1476</ele>
        <time>2026-06-28T05:33:36.000Z</time>
      </trkpt>
      <trkpt lat="42.74019" lon="1.50375">
        <ele>1476</ele>
        <time>2026-06-28T05:33:37.000Z</time>
      </trkpt>
      <trkpt lat="42.74016" lon="1.50375">
        <ele>1476</ele>
        <time>2026-06-28T05:33:38.000Z</time>
      </trkpt>
      <trkpt lat="42.74013" lon="1.50376">
        <ele>1476</ele>
        <time>2026-06-28T05:33:39.000Z</time>
      </trkpt>
      <trkpt lat="42.7401" lon="1.50376">
        <ele>1476</ele>
        <time>2026-06-28T05:33:40.000Z</time>
      </trkpt>
      <trkpt lat="42.74007" lon="1.50376">
        <ele>1476</ele>
        <time>2026-06-28T05:33:41.000Z</time>
      </trkpt>
      <trkpt lat="42.74003" lon="1.50376">
        <ele>1476</ele>
        <time>2026-06-28T05:33:42.000Z</time>
      </trkpt>
      <trkpt lat="42.73999" lon="1.50376">
        <ele>1476</ele>
        <time>2026-06-28T05:33:43.000Z</time>
      </trkpt>
      <trkpt lat="42.73994" lon="1.50377">
        <ele>1475</ele>
        <time>2026-06-28T05:33:44.000Z</time>
      </trkpt>
      <trkpt lat="42.73991" lon="1.50377">
        <ele>1475</ele>
        <time>2026-06-28T05:33:45.000Z</time>
      </trkpt>
      <trkpt lat="42.73988" lon="1.50377">
        <ele>1475</ele>
        <time>2026-06-28T05:33:46.000Z</time>
      </trkpt>
      <trkpt lat="42.73984" lon="1.50377">
        <ele>1475</ele>
        <time>2026-06-28T05:33:47.000Z</time>
      </trkpt>
      <trkpt lat="42.7398" lon="1.50377">
        <ele>1475</ele>
        <time>2026-06-28T05:33:48.000Z</time>
      </trkpt>
      <trkpt lat="42.73977" lon="1.50379">
        <ele>1475</ele>
        <time>2026-06-28T05:33:49.000Z</time>
      </trkpt>
      <trkpt lat="42.73974" lon="1.50381">
        <ele>1475</ele>
        <time>2026-06-28T05:33:50.000Z</time>
      </trkpt>
      <trkpt lat="42.73972" lon="1.50383">
        <ele>1475</ele>
        <time>2026-06-28T05:33:51.000Z</time>
      </trkpt>
      <trkpt lat="42.73969" lon="1.50386">
        <ele>1476</ele>
        <time>2026-06-28T05:33:52.000Z</time>
      </trkpt>
      <trkpt lat="42.73966" lon="1.50387">
        <ele>1475</ele>
        <time>2026-06-28T05:33:53.000Z</time>
      </trkpt>
      <trkpt lat="42.73964" lon="1.50389">
        <ele>1475</ele>
        <time>2026-06-28T05:33:54.000Z</time>
      </trkpt>
      <trkpt lat="42.73963" lon="1.50391">
        <ele>1475</ele>
        <time>2026-06-28T05:33:55.000Z</time>
      </trkpt>
      <trkpt lat="42.73961" lon="1.50393">
        <ele>1475</ele>
        <time>2026-06-28T05:33:56.000Z</time>
      </trkpt>
      <trkpt lat="42.73959" lon="1.50396">
        <ele>1475</ele>
        <time>2026-06-28T05:33:57.000Z</time>
      </trkpt>
      <trkpt lat="42.73957" lon="1.50398">
        <ele>1475</ele>
        <time>2026-06-28T05:33:58.000Z</time>
      </trkpt>
      <trkpt lat="42.73955" lon="1.504">
        <ele>1475</ele>
        <time>2026-06-28T05:33:59.000Z</time>
      </trkpt>
      <trkpt lat="42.73953" lon="1.50401">
        <ele>1475</ele>
        <time>2026-06-28T05:34:00.000Z</time>
      </trkpt>
      <trkpt lat="42.73951" lon="1.50403">
        <ele>1475</ele>
        <time>2026-06-28T05:34:01.000Z</time>
      </trkpt>
      <trkpt lat="42.7395" lon="1.50404">
        <ele>1475</ele>
        <time>2026-06-28T05:34:02.000Z</time>
      </trkpt>
      <trkpt lat="42.73949" lon="1.50404">
        <ele>1475</ele>
        <time>2026-06-28T05:34:03.000Z</time>
      </trkpt>
      <trkpt lat="42.73949" lon="1.50404">
        <ele>1475</ele>
        <time>2026-06-28T05:34:04.000Z</time>
      </trkpt>
      <trkpt lat="42.73948" lon="1.50405">
        <ele>1475</ele>
        <time>2026-06-28T05:34:05.000Z</time>
      </trkpt>
      <trkpt lat="42.73948" lon="1.50406">
        <ele>1475</ele>
        <time>2026-06-28T05:34:06.000Z</time>
      </trkpt>
      <trkpt lat="42.73948" lon="1.50406">
        <ele>1475</ele>
        <time>2026-06-28T05:34:07.000Z</time>
      </trkpt>
      <trkpt lat="42.73947" lon="1.50406">
        <ele>1475</ele>
        <time>2026-06-28T05:34:08.000Z</time>
      </trkpt>
      <trkpt lat="42.73947" lon="1.50407">
        <ele>1475</ele>
        <time>2026-06-28T05:34:09.000Z</time>
      </trkpt>
      <trkpt lat="42.73946" lon="1.50408">
        <ele>1475</ele>
        <time>2026-06-28T05:34:10.000Z</time>
      </trkpt>
      <trkpt lat="42.73946" lon="1.50409">
        <ele>1475</ele>
        <time>2026-06-28T05:34:11.000Z</time>
      </trkpt>
      <trkpt lat="42.73946" lon="1.5041">
        <ele>1475</ele>
        <time>2026-06-28T05:34:12.000Z</time>
      </trkpt>
      <trkpt lat="42.73945" lon="1.50413">
        <ele>1475</ele>
        <time>2026-06-28T05:34:13.000Z</time>
      </trkpt>
      <trkpt lat="42.73944" lon="1.50414">
        <ele>1475</ele>
        <time>2026-06-28T05:34:14.000Z</time>
      </trkpt>
      <trkpt lat="42.73944" lon="1.50414">
        <ele>1474</ele>
        <time>2026-06-28T05:34:15.000Z</time>
      </trkpt>
      <trkpt lat="42.73944" lon="1.50415">
        <ele>1474</ele>
        <time>2026-06-28T05:34:16.000Z</time>
      </trkpt>
      <trkpt lat="42.73943" lon="1.50416">
        <ele>1474</ele>
        <time>2026-06-28T05:34:17.000Z</time>
      </trkpt>
      <trkpt lat="42.73943" lon="1.50417">
        <ele>1474</ele>
        <time>2026-06-28T05:34:18.000Z</time>
      </trkpt>
      <trkpt lat="42.73942" lon="1.50419">
        <ele>1475</ele>
        <time>2026-06-28T05:34:19.000Z</time>
      </trkpt>
      <trkpt lat="42.73941" lon="1.50421">
        <ele>1475</ele>
        <time>2026-06-28T05:34:20.000Z</time>
      </trkpt>
      <trkpt lat="42.7394" lon="1.50424">
        <ele>1476</ele>
        <time>2026-06-28T05:34:21.000Z</time>
      </trkpt>
      <trkpt lat="42.73939" lon="1.50426">
        <ele>1476</ele>
        <time>2026-06-28T05:34:22.000Z</time>
      </trkpt>
      <trkpt lat="42.73937" lon="1.50428">
        <ele>1476</ele>
        <time>2026-06-28T05:34:23.000Z</time>
      </trkpt>
      <trkpt lat="42.73936" lon="1.50429">
        <ele>1476</ele>
        <time>2026-06-28T05:34:24.000Z</time>
      </trkpt>
      <trkpt lat="42.73935" lon="1.50429">
        <ele>1476</ele>
        <time>2026-06-28T05:34:25.000Z</time>
      </trkpt>
      <trkpt lat="42.73935" lon="1.5043">
        <ele>1475</ele>
        <time>2026-06-28T05:34:26.000Z</time>
      </trkpt>
      <trkpt lat="42.73934" lon="1.5043">
        <ele>1475</ele>
        <time>2026-06-28T05:34:27.000Z</time>
      </trkpt>
      <trkpt lat="42.73933" lon="1.5043">
        <ele>1475</ele>
        <time>2026-06-28T05:34:28.000Z</time>
      </trkpt>
      <trkpt lat="42.73933" lon="1.5043">
        <ele>1475</ele>
        <time>2026-06-28T05:34:29.000Z</time>
      </trkpt>
      <trkpt lat="42.73932" lon="1.50431">
        <ele>1475</ele>
        <time>2026-06-28T05:34:30.000Z</time>
      </trkpt>
      <trkpt lat="42.73932" lon="1.50431">
        <ele>1476</ele>
        <time>2026-06-28T05:34:31.000Z</time>
      </trkpt>
      <trkpt lat="42.73932" lon="1.50432">
        <ele>1476</ele>
        <time>2026-06-28T05:34:32.000Z</time>
      </trkpt>
      <trkpt lat="42.73932" lon="1.50432">
        <ele>1476</ele>
        <time>2026-06-28T05:34:33.000Z</time>
      </trkpt>
      <trkpt lat="42.73932" lon="1.50433">
        <ele>1476</ele>
        <time>2026-06-28T05:34:34.000Z</time>
      </trkpt>
      <trkpt lat="42.73932" lon="1.50434">
        <ele>1476</ele>
        <time>2026-06-28T05:34:35.000Z</time>
      </trkpt>
      <trkpt lat="42.7393" lon="1.50436">
        <ele>1477</ele>
        <time>2026-06-28T05:34:36.000Z</time>
      </trkpt>
      <trkpt lat="42.73929" lon="1.50437">
        <ele>1476</ele>
        <time>2026-06-28T05:34:37.000Z</time>
      </trkpt>
      <trkpt lat="42.73928" lon="1.50438">
        <ele>1476</ele>
        <time>2026-06-28T05:34:38.000Z</time>
      </trkpt>
      <trkpt lat="42.73927" lon="1.5044">
        <ele>1477</ele>
        <time>2026-06-28T05:34:39.000Z</time>
      </trkpt>
      <trkpt lat="42.73925" lon="1.50443">
        <ele>1477</ele>
        <time>2026-06-28T05:34:40.000Z</time>
      </trkpt>
      <trkpt lat="42.73923" lon="1.50446">
        <ele>1477</ele>
        <time>2026-06-28T05:34:41.000Z</time>
      </trkpt>
      <trkpt lat="42.7392" lon="1.5045">
        <ele>1477</ele>
        <time>2026-06-28T05:34:42.000Z</time>
      </trkpt>
      <trkpt lat="42.73917" lon="1.50453">
        <ele>1478</ele>
        <time>2026-06-28T05:34:43.000Z</time>
      </trkpt>
      <trkpt lat="42.73912" lon="1.50457">
        <ele>1478</ele>
        <time>2026-06-28T05:34:44.000Z</time>
      </trkpt>
      <trkpt lat="42.73909" lon="1.50461">
        <ele>1478</ele>
        <time>2026-06-28T05:34:45.000Z</time>
      </trkpt>
      <trkpt lat="42.73906" lon="1.50464">
        <ele>1478</ele>
        <time>2026-06-28T05:34:46.000Z</time>
      </trkpt>
      <trkpt lat="42.73904" lon="1.50467">
        <ele>1478</ele>
        <time>2026-06-28T05:34:47.000Z</time>
      </trkpt>
      <trkpt lat="42.73902" lon="1.5047">
        <ele>1478</ele>
        <time>2026-06-28T05:34:48.000Z</time>
      </trkpt>
      <trkpt lat="42.73899" lon="1.50474">
        <ele>1478</ele>
        <time>2026-06-28T05:34:49.000Z</time>
      </trkpt>
      <trkpt lat="42.73897" lon="1.50476">
        <ele>1478</ele>
        <time>2026-06-28T05:34:50.000Z</time>
      </trkpt>
      <trkpt lat="42.73894" lon="1.50479">
        <ele>1477</ele>
        <time>2026-06-28T05:34:51.000Z</time>
      </trkpt>
      <trkpt lat="42.73893" lon="1.50482">
        <ele>1477</ele>
        <time>2026-06-28T05:34:52.000Z</time>
      </trkpt>
      <trkpt lat="42.73892" lon="1.50485">
        <ele>1477</ele>
        <time>2026-06-28T05:34:53.000Z</time>
      </trkpt>
      <trkpt lat="42.7389" lon="1.50488">
        <ele>1478</ele>
        <time>2026-06-28T05:34:54.000Z</time>
      </trkpt>
      <trkpt lat="42.73888" lon="1.50493">
        <ele>1478</ele>
        <time>2026-06-28T05:34:55.000Z</time>
      </trkpt>
      <trkpt lat="42.73885" lon="1.50496">
        <ele>1478</ele>
        <time>2026-06-28T05:34:56.000Z</time>
      </trkpt>
      <trkpt lat="42.73882" lon="1.50499">
        <ele>1479</ele>
        <time>2026-06-28T05:34:57.000Z</time>
      </trkpt>
      <trkpt lat="42.7388" lon="1.50501">
        <ele>1478</ele>
        <time>2026-06-28T05:34:58.000Z</time>
      </trkpt>
      <trkpt lat="42.73878" lon="1.50504">
        <ele>1479</ele>
        <time>2026-06-28T05:34:59.000Z</time>
      </trkpt>
      <trkpt lat="42.73877" lon="1.50508">
        <ele>1479</ele>
        <time>2026-06-28T05:35:00.000Z</time>
      </trkpt>
      <trkpt lat="42.73875" lon="1.50512">
        <ele>1479</ele>
        <time>2026-06-28T05:35:01.000Z</time>
      </trkpt>
      <trkpt lat="42.73873" lon="1.50515">
        <ele>1479</ele>
        <time>2026-06-28T05:35:02.000Z</time>
      </trkpt>
      <trkpt lat="42.73871" lon="1.50518">
        <ele>1480</ele>
        <time>2026-06-28T05:35:03.000Z</time>
      </trkpt>
      <trkpt lat="42.73868" lon="1.50521">
        <ele>1480</ele>
        <time>2026-06-28T05:35:04.000Z</time>
      </trkpt>
      <trkpt lat="42.73864" lon="1.50524">
        <ele>1480</ele>
        <time>2026-06-28T05:35:05.000Z</time>
      </trkpt>
      <trkpt lat="42.73861" lon="1.50526">
        <ele>1479</ele>
        <time>2026-06-28T05:35:06.000Z</time>
      </trkpt>
      <trkpt lat="42.73857" lon="1.5053">
        <ele>1480</ele>
        <time>2026-06-28T05:35:07.000Z</time>
      </trkpt>
      <trkpt lat="42.73855" lon="1.50531">
        <ele>1480</ele>
        <time>2026-06-28T05:35:08.000Z</time>
      </trkpt>
      <trkpt lat="42.73852" lon="1.50533">
        <ele>1480</ele>
        <time>2026-06-28T05:35:09.000Z</time>
      </trkpt>
      <trkpt lat="42.7385" lon="1.50535">
        <ele>1480</ele>
        <time>2026-06-28T05:35:10.000Z</time>
      </trkpt>
      <trkpt lat="42.73849" lon="1.50538">
        <ele>1481</ele>
        <time>2026-06-28T05:35:11.000Z</time>
      </trkpt>
      <trkpt lat="42.73847" lon="1.50539">
        <ele>1481</ele>
        <time>2026-06-28T05:35:12.000Z</time>
      </trkpt>
      <trkpt lat="42.73846" lon="1.50541">
        <ele>1481</ele>
        <time>2026-06-28T05:35:13.000Z</time>
      </trkpt>
      <trkpt lat="42.73844" lon="1.50543">
        <ele>1481</ele>
        <time>2026-06-28T05:35:14.000Z</time>
      </trkpt>
      <trkpt lat="42.73842" lon="1.50545">
        <ele>1481</ele>
        <time>2026-06-28T05:35:15.000Z</time>
      </trkpt>
      <trkpt lat="42.7384" lon="1.50548">
        <ele>1481</ele>
        <time>2026-06-28T05:35:16.000Z</time>
      </trkpt>
      <trkpt lat="42.73838" lon="1.5055">
        <ele>1482</ele>
        <time>2026-06-28T05:35:17.000Z</time>
      </trkpt>
      <trkpt lat="42.73835" lon="1.50552">
        <ele>1482</ele>
        <time>2026-06-28T05:35:18.000Z</time>
      </trkpt>
      <trkpt lat="42.73833" lon="1.50554">
        <ele>1482</ele>
        <time>2026-06-28T05:35:19.000Z</time>
      </trkpt>
      <trkpt lat="42.73831" lon="1.50557">
        <ele>1482</ele>
        <time>2026-06-28T05:35:20.000Z</time>
      </trkpt>
      <trkpt lat="42.73829" lon="1.50559">
        <ele>1482</ele>
        <time>2026-06-28T05:35:21.000Z</time>
      </trkpt>
      <trkpt lat="42.73827" lon="1.50562">
        <ele>1482</ele>
        <time>2026-06-28T05:35:22.000Z</time>
      </trkpt>
      <trkpt lat="42.73826" lon="1.50565">
        <ele>1482</ele>
        <time>2026-06-28T05:35:23.000Z</time>
      </trkpt>
      <trkpt lat="42.73824" lon="1.50567">
        <ele>1483</ele>
        <time>2026-06-28T05:35:24.000Z</time>
      </trkpt>
      <trkpt lat="42.73822" lon="1.50568">
        <ele>1483</ele>
        <time>2026-06-28T05:35:25.000Z</time>
      </trkpt>
      <trkpt lat="42.73821" lon="1.50569">
        <ele>1483</ele>
        <time>2026-06-28T05:35:26.000Z</time>
      </trkpt>
      <trkpt lat="42.7382" lon="1.5057">
        <ele>1483</ele>
        <time>2026-06-28T05:35:27.000Z</time>
      </trkpt>
      <trkpt lat="42.73819" lon="1.50572">
        <ele>1483</ele>
        <time>2026-06-28T05:35:28.000Z</time>
      </trkpt>
      <trkpt lat="42.73819" lon="1.50572">
        <ele>1483</ele>
        <time>2026-06-28T05:35:29.000Z</time>
      </trkpt>
      <trkpt lat="42.73818" lon="1.50573">
        <ele>1483</ele>
        <time>2026-06-28T05:35:30.000Z</time>
      </trkpt>
      <trkpt lat="42.73816" lon="1.50576">
        <ele>1482</ele>
        <time>2026-06-28T05:35:31.000Z</time>
      </trkpt>
      <trkpt lat="42.73814" lon="1.50577">
        <ele>1482</ele>
        <time>2026-06-28T05:35:32.000Z</time>
      </trkpt>
      <trkpt lat="42.73812" lon="1.50579">
        <ele>1482</ele>
        <time>2026-06-28T05:35:33.000Z</time>
      </trkpt>
      <trkpt lat="42.73811" lon="1.5058">
        <ele>1482</ele>
        <time>2026-06-28T05:35:34.000Z</time>
      </trkpt>
      <trkpt lat="42.73811" lon="1.50581">
        <ele>1481</ele>
        <time>2026-06-28T05:35:35.000Z</time>
      </trkpt>
      <trkpt lat="42.73811" lon="1.50583">
        <ele>1481</ele>
        <time>2026-06-28T05:35:36.000Z</time>
      </trkpt>
      <trkpt lat="42.73811" lon="1.50584">
        <ele>1482</ele>
        <time>2026-06-28T05:35:37.000Z</time>
      </trkpt>
      <trkpt lat="42.73811" lon="1.50585">
        <ele>1481</ele>
        <time>2026-06-28T05:35:38.000Z</time>
      </trkpt>
      <trkpt lat="42.7381" lon="1.50586">
        <ele>1480</ele>
        <time>2026-06-28T05:35:39.000Z</time>
      </trkpt>
      <trkpt lat="42.73809" lon="1.50587">
        <ele>1480</ele>
        <time>2026-06-28T05:35:40.000Z</time>
      </trkpt>
      <trkpt lat="42.73808" lon="1.50587">
        <ele>1480</ele>
        <time>2026-06-28T05:35:41.000Z</time>
      </trkpt>
      <trkpt lat="42.73808" lon="1.50587">
        <ele>1479</ele>
        <time>2026-06-28T05:35:42.000Z</time>
      </trkpt>
      <trkpt lat="42.73807" lon="1.50587">
        <ele>1479</ele>
        <time>2026-06-28T05:35:43.000Z</time>
      </trkpt>
      <trkpt lat="42.73807" lon="1.50587">
        <ele>1479</ele>
        <time>2026-06-28T05:35:44.000Z</time>
      </trkpt>
      <trkpt lat="42.73806" lon="1.50588">
        <ele>1478</ele>
        <time>2026-06-28T05:35:45.000Z</time>
      </trkpt>
      <trkpt lat="42.73806" lon="1.50589">
        <ele>1479</ele>
        <time>2026-06-28T05:35:46.000Z</time>
      </trkpt>
      <trkpt lat="42.73805" lon="1.5059">
        <ele>1479</ele>
        <time>2026-06-28T05:35:47.000Z</time>
      </trkpt>
      <trkpt lat="42.73805" lon="1.5059">
        <ele>1479</ele>
        <time>2026-06-28T05:35:48.000Z</time>
      </trkpt>
      <trkpt lat="42.73805" lon="1.5059">
        <ele>1479</ele>
        <time>2026-06-28T05:35:49.000Z</time>
      </trkpt>
      <trkpt lat="42.73805" lon="1.50592">
        <ele>1478</ele>
        <time>2026-06-28T05:35:50.000Z</time>
      </trkpt>
      <trkpt lat="42.73804" lon="1.50592">
        <ele>1478</ele>
        <time>2026-06-28T05:35:51.000Z</time>
      </trkpt>
      <trkpt lat="42.73804" lon="1.50592">
        <ele>1478</ele>
        <time>2026-06-28T05:35:52.000Z</time>
      </trkpt>
      <trkpt lat="42.73803" lon="1.50593">
        <ele>1478</ele>
        <time>2026-06-28T05:35:53.000Z</time>
      </trkpt>
      <trkpt lat="42.73803" lon="1.50594">
        <ele>1478</ele>
        <time>2026-06-28T05:35:54.000Z</time>
      </trkpt>
      <trkpt lat="42.73803" lon="1.50595">
        <ele>1479</ele>
        <time>2026-06-28T05:35:55.000Z</time>
      </trkpt>
      <trkpt lat="42.73802" lon="1.50596">
        <ele>1478</ele>
        <time>2026-06-28T05:35:56.000Z</time>
      </trkpt>
      <trkpt lat="42.73801" lon="1.50596">
        <ele>1479</ele>
        <time>2026-06-28T05:35:57.000Z</time>
      </trkpt>
      <trkpt lat="42.738" lon="1.50597">
        <ele>1479</ele>
        <time>2026-06-28T05:35:58.000Z</time>
      </trkpt>
      <trkpt lat="42.73799" lon="1.50597">
        <ele>1479</ele>
        <time>2026-06-28T05:35:59.000Z</time>
      </trkpt>
      <trkpt lat="42.73798" lon="1.50599">
        <ele>1479</ele>
        <time>2026-06-28T05:36:00.000Z</time>
      </trkpt>
      <trkpt lat="42.73797" lon="1.506">
        <ele>1479</ele>
        <time>2026-06-28T05:36:01.000Z</time>
      </trkpt>
      <trkpt lat="42.73796" lon="1.50601">
        <ele>1479</ele>
        <time>2026-06-28T05:36:02.000Z</time>
      </trkpt>
      <trkpt lat="42.73795" lon="1.50602">
        <ele>1479</ele>
        <time>2026-06-28T05:36:03.000Z</time>
      </trkpt>
      <trkpt lat="42.73793" lon="1.50604">
        <ele>1479</ele>
        <time>2026-06-28T05:36:04.000Z</time>
      </trkpt>
      <trkpt lat="42.73792" lon="1.50606">
        <ele>1480</ele>
        <time>2026-06-28T05:36:05.000Z</time>
      </trkpt>
      <trkpt lat="42.73792" lon="1.50605">
        <ele>1480</ele>
        <time>2026-06-28T05:36:06.000Z</time>
      </trkpt>
      <trkpt lat="42.73792" lon="1.50606">
        <ele>1480</ele>
        <time>2026-06-28T05:36:07.000Z</time>
      </trkpt>
      <trkpt lat="42.73792" lon="1.50607">
        <ele>1480</ele>
        <time>2026-06-28T05:36:08.000Z</time>
      </trkpt>
      <trkpt lat="42.73791" lon="1.50609">
        <ele>1480</ele>
        <time>2026-06-28T05:36:09.000Z</time>
      </trkpt>
      <trkpt lat="42.7379" lon="1.50611">
        <ele>1480</ele>
        <time>2026-06-28T05:36:10.000Z</time>
      </trkpt>
      <trkpt lat="42.73788" lon="1.50614">
        <ele>1481</ele>
        <time>2026-06-28T05:36:11.000Z</time>
      </trkpt>
      <trkpt lat="42.73785" lon="1.50617">
        <ele>1481</ele>
        <time>2026-06-28T05:36:12.000Z</time>
      </trkpt>
      <trkpt lat="42.73783" lon="1.50621">
        <ele>1481</ele>
        <time>2026-06-28T05:36:13.000Z</time>
      </trkpt>
      <trkpt lat="42.73781" lon="1.50623">
        <ele>1481</ele>
        <time>2026-06-28T05:36:14.000Z</time>
      </trkpt>
      <trkpt lat="42.73779" lon="1.50626">
        <ele>1482</ele>
        <time>2026-06-28T05:36:15.000Z</time>
      </trkpt>
      <trkpt lat="42.73778" lon="1.50627">
        <ele>1481</ele>
        <time>2026-06-28T05:36:16.000Z</time>
      </trkpt>
      <trkpt lat="42.73776" lon="1.50628">
        <ele>1481</ele>
        <time>2026-06-28T05:36:17.000Z</time>
      </trkpt>
      <trkpt lat="42.73774" lon="1.50628">
        <ele>1481</ele>
        <time>2026-06-28T05:36:18.000Z</time>
      </trkpt>
      <trkpt lat="42.73771" lon="1.50629">
        <ele>1481</ele>
        <time>2026-06-28T05:36:19.000Z</time>
      </trkpt>
      <trkpt lat="42.7377" lon="1.50631">
        <ele>1481</ele>
        <time>2026-06-28T05:36:20.000Z</time>
      </trkpt>
      <trkpt lat="42.7377" lon="1.50631">
        <ele>1481</ele>
        <time>2026-06-28T05:36:21.000Z</time>
      </trkpt>
      <trkpt lat="42.73768" lon="1.50632">
        <ele>1480</ele>
        <time>2026-06-28T05:36:22.000Z</time>
      </trkpt>
      <trkpt lat="42.73768" lon="1.50632">
        <ele>1481</ele>
        <time>2026-06-28T05:36:23.000Z</time>
      </trkpt>
      <trkpt lat="42.73768" lon="1.50632">
        <ele>1481</ele>
        <time>2026-06-28T05:36:24.000Z</time>
      </trkpt>
      <trkpt lat="42.73768" lon="1.50633">
        <ele>1481</ele>
        <time>2026-06-28T05:36:25.000Z</time>
      </trkpt>
      <trkpt lat="42.73767" lon="1.50635">
        <ele>1481</ele>
        <time>2026-06-28T05:36:26.000Z</time>
      </trkpt>
      <trkpt lat="42.73765" lon="1.50636">
        <ele>1481</ele>
        <time>2026-06-28T05:36:27.000Z</time>
      </trkpt>
      <trkpt lat="42.73764" lon="1.50637">
        <ele>1481</ele>
        <time>2026-06-28T05:36:28.000Z</time>
      </trkpt>
      <trkpt lat="42.73763" lon="1.50639">
        <ele>1480</ele>
        <time>2026-06-28T05:36:29.000Z</time>
      </trkpt>
      <trkpt lat="42.73763" lon="1.50641">
        <ele>1481</ele>
        <time>2026-06-28T05:36:30.000Z</time>
      </trkpt>
      <trkpt lat="42.73762" lon="1.50643">
        <ele>1482</ele>
        <time>2026-06-28T05:36:31.000Z</time>
      </trkpt>
      <trkpt lat="42.7376" lon="1.50647">
        <ele>1482</ele>
        <time>2026-06-28T05:36:32.000Z</time>
      </trkpt>
      <trkpt lat="42.73758" lon="1.5065">
        <ele>1483</ele>
        <time>2026-06-28T05:36:33.000Z</time>
      </trkpt>
      <trkpt lat="42.73757" lon="1.50655">
        <ele>1484</ele>
        <time>2026-06-28T05:36:34.000Z</time>
      </trkpt>
      <trkpt lat="42.73755" lon="1.50659">
        <ele>1485</ele>
        <time>2026-06-28T05:36:35.000Z</time>
      </trkpt>
      <trkpt lat="42.73753" lon="1.50662">
        <ele>1484</ele>
        <time>2026-06-28T05:36:36.000Z</time>
      </trkpt>
      <trkpt lat="42.73752" lon="1.50664">
        <ele>1484</ele>
        <time>2026-06-28T05:36:37.000Z</time>
      </trkpt>
      <trkpt lat="42.7375" lon="1.50668">
        <ele>1482</ele>
        <time>2026-06-28T05:36:38.000Z</time>
      </trkpt>
      <trkpt lat="42.73748" lon="1.5067">
        <ele>1482</ele>
        <time>2026-06-28T05:36:39.000Z</time>
      </trkpt>
      <trkpt lat="42.73746" lon="1.50672">
        <ele>1482</ele>
        <time>2026-06-28T05:36:40.000Z</time>
      </trkpt>
      <trkpt lat="42.73743" lon="1.50675">
        <ele>1482</ele>
        <time>2026-06-28T05:36:41.000Z</time>
      </trkpt>
      <trkpt lat="42.73741" lon="1.50676">
        <ele>1481</ele>
        <time>2026-06-28T05:36:42.000Z</time>
      </trkpt>
      <trkpt lat="42.73739" lon="1.50678">
        <ele>1480</ele>
        <time>2026-06-28T05:36:43.000Z</time>
      </trkpt>
      <trkpt lat="42.73737" lon="1.50679">
        <ele>1480</ele>
        <time>2026-06-28T05:36:44.000Z</time>
      </trkpt>
      <trkpt lat="42.73735" lon="1.50681">
        <ele>1480</ele>
        <time>2026-06-28T05:36:45.000Z</time>
      </trkpt>
      <trkpt lat="42.73732" lon="1.50684">
        <ele>1479</ele>
        <time>2026-06-28T05:36:46.000Z</time>
      </trkpt>
      <trkpt lat="42.73729" lon="1.50687">
        <ele>1479</ele>
        <time>2026-06-28T05:36:47.000Z</time>
      </trkpt>
      <trkpt lat="42.73726" lon="1.5069">
        <ele>1479</ele>
        <time>2026-06-28T05:36:48.000Z</time>
      </trkpt>
      <trkpt lat="42.73723" lon="1.50693">
        <ele>1480</ele>
        <time>2026-06-28T05:36:49.000Z</time>
      </trkpt>
      <trkpt lat="42.73719" lon="1.50695">
        <ele>1481</ele>
        <time>2026-06-28T05:36:50.000Z</time>
      </trkpt>
      <trkpt lat="42.73716" lon="1.50698">
        <ele>1482</ele>
        <time>2026-06-28T05:36:51.000Z</time>
      </trkpt>
      <trkpt lat="42.73713" lon="1.507">
        <ele>1482</ele>
        <time>2026-06-28T05:36:52.000Z</time>
      </trkpt>
      <trkpt lat="42.73709" lon="1.50703">
        <ele>1482</ele>
        <time>2026-06-28T05:36:53.000Z</time>
      </trkpt>
      <trkpt lat="42.73705" lon="1.50705">
        <ele>1481</ele>
        <time>2026-06-28T05:36:54.000Z</time>
      </trkpt>
      <trkpt lat="42.73703" lon="1.50707">
        <ele>1481</ele>
        <time>2026-06-28T05:36:55.000Z</time>
      </trkpt>
      <trkpt lat="42.73702" lon="1.5071">
        <ele>1481</ele>
        <time>2026-06-28T05:36:56.000Z</time>
      </trkpt>
      <trkpt lat="42.73699" lon="1.50713">
        <ele>1481</ele>
        <time>2026-06-28T05:36:57.000Z</time>
      </trkpt>
      <trkpt lat="42.73698" lon="1.50717">
        <ele>1481</ele>
        <time>2026-06-28T05:36:58.000Z</time>
      </trkpt>
      <trkpt lat="42.73696" lon="1.50721">
        <ele>1482</ele>
        <time>2026-06-28T05:36:59.000Z</time>
      </trkpt>
      <trkpt lat="42.73695" lon="1.50724">
        <ele>1482</ele>
        <time>2026-06-28T05:37:00.000Z</time>
      </trkpt>
      <trkpt lat="42.73693" lon="1.50728">
        <ele>1482</ele>
        <time>2026-06-28T05:37:01.000Z</time>
      </trkpt>
      <trkpt lat="42.7369" lon="1.50732">
        <ele>1482</ele>
        <time>2026-06-28T05:37:02.000Z</time>
      </trkpt>
      <trkpt lat="42.73688" lon="1.50736">
        <ele>1482</ele>
        <time>2026-06-28T05:37:03.000Z</time>
      </trkpt>
      <trkpt lat="42.73685" lon="1.50738">
        <ele>1482</ele>
        <time>2026-06-28T05:37:04.000Z</time>
      </trkpt>
      <trkpt lat="42.73681" lon="1.50742">
        <ele>1482</ele>
        <time>2026-06-28T05:37:05.000Z</time>
      </trkpt>
      <trkpt lat="42.73678" lon="1.50745">
        <ele>1481</ele>
        <time>2026-06-28T05:37:06.000Z</time>
      </trkpt>
      <trkpt lat="42.73675" lon="1.50748">
        <ele>1481</ele>
        <time>2026-06-28T05:37:07.000Z</time>
      </trkpt>
      <trkpt lat="42.73671" lon="1.50751">
        <ele>1481</ele>
        <time>2026-06-28T05:37:08.000Z</time>
      </trkpt>
      <trkpt lat="42.7367" lon="1.50755">
        <ele>1481</ele>
        <time>2026-06-28T05:37:09.000Z</time>
      </trkpt>
      <trkpt lat="42.73669" lon="1.50757">
        <ele>1481</ele>
        <time>2026-06-28T05:37:10.000Z</time>
      </trkpt>
      <trkpt lat="42.73669" lon="1.50759">
        <ele>1481</ele>
        <time>2026-06-28T05:37:11.000Z</time>
      </trkpt>
      <trkpt lat="42.73666" lon="1.50761">
        <ele>1481</ele>
        <time>2026-06-28T05:37:12.000Z</time>
      </trkpt>
      <trkpt lat="42.73665" lon="1.50763">
        <ele>1481</ele>
        <time>2026-06-28T05:37:13.000Z</time>
      </trkpt>
      <trkpt lat="42.73663" lon="1.50766">
        <ele>1481</ele>
        <time>2026-06-28T05:37:14.000Z</time>
      </trkpt>
      <trkpt lat="42.73661" lon="1.50769">
        <ele>1482</ele>
        <time>2026-06-28T05:37:15.000Z</time>
      </trkpt>
      <trkpt lat="42.73658" lon="1.50773">
        <ele>1481</ele>
        <time>2026-06-28T05:37:16.000Z</time>
      </trkpt>
      <trkpt lat="42.73656" lon="1.50776">
        <ele>1480</ele>
        <time>2026-06-28T05:37:17.000Z</time>
      </trkpt>
      <trkpt lat="42.73654" lon="1.50781">
        <ele>1480</ele>
        <time>2026-06-28T05:37:18.000Z</time>
      </trkpt>
      <trkpt lat="42.73651" lon="1.50785">
        <ele>1480</ele>
        <time>2026-06-28T05:37:19.000Z</time>
      </trkpt>
      <trkpt lat="42.73649" lon="1.5079">
        <ele>1480</ele>
        <time>2026-06-28T05:37:20.000Z</time>
      </trkpt>
      <trkpt lat="42.73647" lon="1.50794">
        <ele>1479</ele>
        <time>2026-06-28T05:37:21.000Z</time>
      </trkpt>
      <trkpt lat="42.73644" lon="1.50798">
        <ele>1479</ele>
        <time>2026-06-28T05:37:22.000Z</time>
      </trkpt>
      <trkpt lat="42.73641" lon="1.50804">
        <ele>1478</ele>
        <time>2026-06-28T05:37:23.000Z</time>
      </trkpt>
      <trkpt lat="42.73639" lon="1.50808">
        <ele>1477</ele>
        <time>2026-06-28T05:37:24.000Z</time>
      </trkpt>
      <trkpt lat="42.73637" lon="1.50813">
        <ele>1476</ele>
        <time>2026-06-28T05:37:25.000Z</time>
      </trkpt>
      <trkpt lat="42.73636" lon="1.50818">
        <ele>1475</ele>
        <time>2026-06-28T05:37:26.000Z</time>
      </trkpt>
      <trkpt lat="42.73635" lon="1.50823">
        <ele>1475</ele>
        <time>2026-06-28T05:37:27.000Z</time>
      </trkpt>
      <trkpt lat="42.73634" lon="1.50827">
        <ele>1475</ele>
        <time>2026-06-28T05:37:28.000Z</time>
      </trkpt>
      <trkpt lat="42.73634" lon="1.50831">
        <ele>1475</ele>
        <time>2026-06-28T05:37:29.000Z</time>
      </trkpt>
      <trkpt lat="42.73633" lon="1.50835">
        <ele>1474</ele>
        <time>2026-06-28T05:37:30.000Z</time>
      </trkpt>
      <trkpt lat="42.73633" lon="1.50839">
        <ele>1474</ele>
        <time>2026-06-28T05:37:31.000Z</time>
      </trkpt>
      <trkpt lat="42.73634" lon="1.50843">
        <ele>1474</ele>
        <time>2026-06-28T05:37:32.000Z</time>
      </trkpt>
      <trkpt lat="42.73633" lon="1.50847">
        <ele>1474</ele>
        <time>2026-06-28T05:37:33.000Z</time>
      </trkpt>
      <trkpt lat="42.73634" lon="1.50851">
        <ele>1474</ele>
        <time>2026-06-28T05:37:34.000Z</time>
      </trkpt>
      <trkpt lat="42.73635" lon="1.50855">
        <ele>1474</ele>
        <time>2026-06-28T05:37:35.000Z</time>
      </trkpt>
      <trkpt lat="42.73635" lon="1.50858">
        <ele>1473</ele>
        <time>2026-06-28T05:37:36.000Z</time>
      </trkpt>
      <trkpt lat="42.73635" lon="1.50862">
        <ele>1473</ele>
        <time>2026-06-28T05:37:37.000Z</time>
      </trkpt>
      <trkpt lat="42.73635" lon="1.50866">
        <ele>1473</ele>
        <time>2026-06-28T05:37:38.000Z</time>
      </trkpt>
      <trkpt lat="42.73634" lon="1.5087">
        <ele>1473</ele>
        <time>2026-06-28T05:37:39.000Z</time>
      </trkpt>
      <trkpt lat="42.73632" lon="1.50873">
        <ele>1473</ele>
        <time>2026-06-28T05:37:40.000Z</time>
      </trkpt>
      <trkpt lat="42.7363" lon="1.50876">
        <ele>1472</ele>
        <time>2026-06-28T05:37:41.000Z</time>
      </trkpt>
      <trkpt lat="42.73629" lon="1.50877">
        <ele>1472</ele>
        <time>2026-06-28T05:37:42.000Z</time>
      </trkpt>
      <trkpt lat="42.73628" lon="1.50878">
        <ele>1472</ele>
        <time>2026-06-28T05:37:43.000Z</time>
      </trkpt>
      <trkpt lat="42.73628" lon="1.50878">
        <ele>1471</ele>
        <time>2026-06-28T05:37:44.000Z</time>
      </trkpt>
      <trkpt lat="42.73628" lon="1.50878">
        <ele>1471</ele>
        <time>2026-06-28T05:37:45.000Z</time>
      </trkpt>
      <trkpt lat="42.73627" lon="1.50879">
        <ele>1471</ele>
        <time>2026-06-28T05:37:46.000Z</time>
      </trkpt>
      <trkpt lat="42.73627" lon="1.50879">
        <ele>1471</ele>
        <time>2026-06-28T05:37:47.000Z</time>
      </trkpt>
      <trkpt lat="42.73627" lon="1.5088">
        <ele>1470</ele>
        <time>2026-06-28T05:37:48.000Z</time>
      </trkpt>
      <trkpt lat="42.73627" lon="1.50881">
        <ele>1470</ele>
        <time>2026-06-28T05:37:49.000Z</time>
      </trkpt>
      <trkpt lat="42.73626" lon="1.50881">
        <ele>1470</ele>
        <time>2026-06-28T05:37:50.000Z</time>
      </trkpt>
      <trkpt lat="42.73626" lon="1.50882">
        <ele>1470</ele>
        <time>2026-06-28T05:37:51.000Z</time>
      </trkpt>
      <trkpt lat="42.73625" lon="1.50883">
        <ele>1470</ele>
        <time>2026-06-28T05:37:52.000Z</time>
      </trkpt>
      <trkpt lat="42.73625" lon="1.50883">
        <ele>1470</ele>
        <time>2026-06-28T05:37:53.000Z</time>
      </trkpt>
      <trkpt lat="42.73625" lon="1.50884">
        <ele>1469</ele>
        <time>2026-06-28T05:37:54.000Z</time>
      </trkpt>
      <trkpt lat="42.73624" lon="1.50885">
        <ele>1469</ele>
        <time>2026-06-28T05:37:55.000Z</time>
      </trkpt>
      <trkpt lat="42.73625" lon="1.50886">
        <ele>1469</ele>
        <time>2026-06-28T05:37:56.000Z</time>
      </trkpt>
      <trkpt lat="42.73625" lon="1.50887">
        <ele>1469</ele>
        <time>2026-06-28T05:37:57.000Z</time>
      </trkpt>
      <trkpt lat="42.73624" lon="1.50888">
        <ele>1469</ele>
        <time>2026-06-28T05:37:58.000Z</time>
      </trkpt>
      <trkpt lat="42.73624" lon="1.50888">
        <ele>1469</ele>
        <time>2026-06-28T05:37:59.000Z</time>
      </trkpt>
      <trkpt lat="42.73624" lon="1.50889">
        <ele>1468</ele>
        <time>2026-06-28T05:38:00.000Z</time>
      </trkpt>
      <trkpt lat="42.73623" lon="1.5089">
        <ele>1468</ele>
        <time>2026-06-28T05:38:01.000Z</time>
      </trkpt>
      <trkpt lat="42.73624" lon="1.50891">
        <ele>1468</ele>
        <time>2026-06-28T05:38:02.000Z</time>
      </trkpt>
      <trkpt lat="42.73624" lon="1.50891">
        <ele>1467</ele>
        <time>2026-06-28T05:38:03.000Z</time>
      </trkpt>
      <trkpt lat="42.73624" lon="1.50891">
        <ele>1467</ele>
        <time>2026-06-28T05:38:04.000Z</time>
      </trkpt>
      <trkpt lat="42.73624" lon="1.50891">
        <ele>1467</ele>
        <time>2026-06-28T05:38:05.000Z</time>
      </trkpt>
      <trkpt lat="42.73624" lon="1.50892">
        <ele>1467</ele>
        <time>2026-06-28T05:38:06.000Z</time>
      </trkpt>
      <trkpt lat="42.73625" lon="1.50893">
        <ele>1467</ele>
        <time>2026-06-28T05:38:07.000Z</time>
      </trkpt>
      <trkpt lat="42.73625" lon="1.50893">
        <ele>1467</ele>
        <time>2026-06-28T05:38:08.000Z</time>
      </trkpt>
      <trkpt lat="42.73626" lon="1.50894">
        <ele>1467</ele>
        <time>2026-06-28T05:38:09.000Z</time>
      </trkpt>
      <trkpt lat="42.73626" lon="1.50895">
        <ele>1467</ele>
        <time>2026-06-28T05:38:10.000Z</time>
      </trkpt>
      <trkpt lat="42.73628" lon="1.50896">
        <ele>1467</ele>
        <time>2026-06-28T05:38:11.000Z</time>
      </trkpt>
      <trkpt lat="42.73629" lon="1.50897">
        <ele>1467</ele>
        <time>2026-06-28T05:38:12.000Z</time>
      </trkpt>
      <trkpt lat="42.7363" lon="1.50897">
        <ele>1467</ele>
        <time>2026-06-28T05:38:13.000Z</time>
      </trkpt>
      <trkpt lat="42.7363" lon="1.50897">
        <ele>1467</ele>
        <time>2026-06-28T05:38:14.000Z</time>
      </trkpt>
      <trkpt lat="42.73631" lon="1.50899">
        <ele>1467</ele>
        <time>2026-06-28T05:38:15.000Z</time>
      </trkpt>
      <trkpt lat="42.73631" lon="1.50899">
        <ele>1466</ele>
        <time>2026-06-28T05:38:16.000Z</time>
      </trkpt>
      <trkpt lat="42.73632" lon="1.50899">
        <ele>1466</ele>
        <time>2026-06-28T05:38:17.000Z</time>
      </trkpt>
      <trkpt lat="42.73632" lon="1.50899">
        <ele>1466</ele>
        <time>2026-06-28T05:38:18.000Z</time>
      </trkpt>
      <trkpt lat="42.73632" lon="1.509">
        <ele>1466</ele>
        <time>2026-06-28T05:38:19.000Z</time>
      </trkpt>
      <trkpt lat="42.73632" lon="1.50899">
        <ele>1467</ele>
        <time>2026-06-28T05:38:20.000Z</time>
      </trkpt>
      <trkpt lat="42.73633" lon="1.50899">
        <ele>1467</ele>
        <time>2026-06-28T05:38:21.000Z</time>
      </trkpt>
      <trkpt lat="42.73633" lon="1.50899">
        <ele>1467</ele>
        <time>2026-06-28T05:38:22.000Z</time>
      </trkpt>
      <trkpt lat="42.73635" lon="1.50899">
        <ele>1467</ele>
        <time>2026-06-28T05:38:23.000Z</time>
      </trkpt>
      <trkpt lat="42.73636" lon="1.509">
        <ele>1467</ele>
        <time>2026-06-28T05:38:24.000Z</time>
      </trkpt>
      <trkpt lat="42.73637" lon="1.509">
        <ele>1467</ele>
        <time>2026-06-28T05:38:25.000Z</time>
      </trkpt>
      <trkpt lat="42.73637" lon="1.50899">
        <ele>1467</ele>
        <time>2026-06-28T05:38:26.000Z</time>
      </trkpt>
      <trkpt lat="42.73639" lon="1.50898">
        <ele>1467</ele>
        <time>2026-06-28T05:38:27.000Z</time>
      </trkpt>
      <trkpt lat="42.73642" lon="1.50898">
        <ele>1467</ele>
        <time>2026-06-28T05:38:28.000Z</time>
      </trkpt>
      <trkpt lat="42.73645" lon="1.50898">
        <ele>1467</ele>
        <time>2026-06-28T05:38:29.000Z</time>
      </trkpt>
      <trkpt lat="42.73648" lon="1.50898">
        <ele>1467</ele>
        <time>2026-06-28T05:38:30.000Z</time>
      </trkpt>
      <trkpt lat="42.73649" lon="1.50901">
        <ele>1467</ele>
        <time>2026-06-28T05:38:31.000Z</time>
      </trkpt>
      <trkpt lat="42.73649" lon="1.50902">
        <ele>1466</ele>
        <time>2026-06-28T05:38:32.000Z</time>
      </trkpt>
      <trkpt lat="42.73649" lon="1.50902">
        <ele>1467</ele>
        <time>2026-06-28T05:38:33.000Z</time>
      </trkpt>
      <trkpt lat="42.7365" lon="1.50901">
        <ele>1467</ele>
        <time>2026-06-28T05:38:34.000Z</time>
      </trkpt>
      <trkpt lat="42.73651" lon="1.50901">
        <ele>1467</ele>
        <time>2026-06-28T05:38:35.000Z</time>
      </trkpt>
      <trkpt lat="42.73653" lon="1.50901">
        <ele>1467</ele>
        <time>2026-06-28T05:38:36.000Z</time>
      </trkpt>
      <trkpt lat="42.73655" lon="1.509">
        <ele>1467</ele>
        <time>2026-06-28T05:38:37.000Z</time>
      </trkpt>
      <trkpt lat="42.73656" lon="1.509">
        <ele>1467</ele>
        <time>2026-06-28T05:38:38.000Z</time>
      </trkpt>
      <trkpt lat="42.73658" lon="1.50899">
        <ele>1467</ele>
        <time>2026-06-28T05:38:39.000Z</time>
      </trkpt>
      <trkpt lat="42.7366" lon="1.509">
        <ele>1468</ele>
        <time>2026-06-28T05:38:40.000Z</time>
      </trkpt>
      <trkpt lat="42.73661" lon="1.50899">
        <ele>1468</ele>
        <time>2026-06-28T05:38:41.000Z</time>
      </trkpt>
      <trkpt lat="42.73663" lon="1.509">
        <ele>1468</ele>
        <time>2026-06-28T05:38:42.000Z</time>
      </trkpt>
      <trkpt lat="42.73665" lon="1.50899">
        <ele>1468</ele>
        <time>2026-06-28T05:38:43.000Z</time>
      </trkpt>
      <trkpt lat="42.73666" lon="1.50899">
        <ele>1468</ele>
        <time>2026-06-28T05:38:44.000Z</time>
      </trkpt>
      <trkpt lat="42.73667" lon="1.50899">
        <ele>1469</ele>
        <time>2026-06-28T05:38:45.000Z</time>
      </trkpt>
      <trkpt lat="42.73669" lon="1.50898">
        <ele>1469</ele>
        <time>2026-06-28T05:38:46.000Z</time>
      </trkpt>
      <trkpt lat="42.73671" lon="1.50898">
        <ele>1470</ele>
        <time>2026-06-28T05:38:47.000Z</time>
      </trkpt>
      <trkpt lat="42.73674" lon="1.50897">
        <ele>1470</ele>
        <time>2026-06-28T05:38:48.000Z</time>
      </trkpt>
      <trkpt lat="42.73677" lon="1.50896">
        <ele>1470</ele>
        <time>2026-06-28T05:38:49.000Z</time>
      </trkpt>
      <trkpt lat="42.7368" lon="1.50895">
        <ele>1470</ele>
        <time>2026-06-28T05:38:50.000Z</time>
      </trkpt>
      <trkpt lat="42.73682" lon="1.50894">
        <ele>1470</ele>
        <time>2026-06-28T05:38:51.000Z</time>
      </trkpt>
      <trkpt lat="42.73684" lon="1.50894">
        <ele>1470</ele>
        <time>2026-06-28T05:38:52.000Z</time>
      </trkpt>
      <trkpt lat="42.73686" lon="1.50893">
        <ele>1469</ele>
        <time>2026-06-28T05:38:53.000Z</time>
      </trkpt>
      <trkpt lat="42.73689" lon="1.50892">
        <ele>1469</ele>
        <time>2026-06-28T05:38:54.000Z</time>
      </trkpt>
      <trkpt lat="42.73692" lon="1.50892">
        <ele>1469</ele>
        <time>2026-06-28T05:38:55.000Z</time>
      </trkpt>
      <trkpt lat="42.73695" lon="1.50891">
        <ele>1469</ele>
        <time>2026-06-28T05:38:56.000Z</time>
      </trkpt>
      <trkpt lat="42.73698" lon="1.5089">
        <ele>1470</ele>
        <time>2026-06-28T05:38:57.000Z</time>
      </trkpt>
      <trkpt lat="42.73702" lon="1.50888">
        <ele>1470</ele>
        <time>2026-06-28T05:38:58.000Z</time>
      </trkpt>
      <trkpt lat="42.73705" lon="1.50889">
        <ele>1470</ele>
        <time>2026-06-28T05:38:59.000Z</time>
      </trkpt>
      <trkpt lat="42.73708" lon="1.50888">
        <ele>1471</ele>
        <time>2026-06-28T05:39:00.000Z</time>
      </trkpt>
      <trkpt lat="42.7371" lon="1.50887">
        <ele>1471</ele>
        <time>2026-06-28T05:39:01.000Z</time>
      </trkpt>
      <trkpt lat="42.73712" lon="1.50887">
        <ele>1471</ele>
        <time>2026-06-28T05:39:02.000Z</time>
      </trkpt>
      <trkpt lat="42.73714" lon="1.50887">
        <ele>1471</ele>
        <time>2026-06-28T05:39:03.000Z</time>
      </trkpt>
      <trkpt lat="42.73716" lon="1.50887">
        <ele>1471</ele>
        <time>2026-06-28T05:39:04.000Z</time>
      </trkpt>
      <trkpt lat="42.73717" lon="1.50888">
        <ele>1471</ele>
        <time>2026-06-28T05:39:05.000Z</time>
      </trkpt>
      <trkpt lat="42.73719" lon="1.50889">
        <ele>1471</ele>
        <time>2026-06-28T05:39:06.000Z</time>
      </trkpt>
      <trkpt lat="42.73722" lon="1.5089">
        <ele>1471</ele>
        <time>2026-06-28T05:39:07.000Z</time>
      </trkpt>
      <trkpt lat="42.73724" lon="1.50891">
        <ele>1471</ele>
        <time>2026-06-28T05:39:08.000Z</time>
      </trkpt>
      <trkpt lat="42.73725" lon="1.50891">
        <ele>1472</ele>
        <time>2026-06-28T05:39:09.000Z</time>
      </trkpt>
      <trkpt lat="42.73728" lon="1.50891">
        <ele>1472</ele>
        <time>2026-06-28T05:39:10.000Z</time>
      </trkpt>
      <trkpt lat="42.7373" lon="1.50891">
        <ele>1472</ele>
        <time>2026-06-28T05:39:11.000Z</time>
      </trkpt>
      <trkpt lat="42.73733" lon="1.50889">
        <ele>1473</ele>
        <time>2026-06-28T05:39:12.000Z</time>
      </trkpt>
      <trkpt lat="42.73736" lon="1.50889">
        <ele>1473</ele>
        <time>2026-06-28T05:39:13.000Z</time>
      </trkpt>
      <trkpt lat="42.73737" lon="1.50888">
        <ele>1474</ele>
        <time>2026-06-28T05:39:14.000Z</time>
      </trkpt>
      <trkpt lat="42.73739" lon="1.50888">
        <ele>1474</ele>
        <time>2026-06-28T05:39:15.000Z</time>
      </trkpt>
      <trkpt lat="42.7374" lon="1.50889">
        <ele>1474</ele>
        <time>2026-06-28T05:39:16.000Z</time>
      </trkpt>
      <trkpt lat="42.73742" lon="1.50888">
        <ele>1474</ele>
        <time>2026-06-28T05:39:17.000Z</time>
      </trkpt>
      <trkpt lat="42.73744" lon="1.50888">
        <ele>1475</ele>
        <time>2026-06-28T05:39:18.000Z</time>
      </trkpt>
      <trkpt lat="42.73745" lon="1.50887">
        <ele>1474</ele>
        <time>2026-06-28T05:39:19.000Z</time>
      </trkpt>
      <trkpt lat="42.73747" lon="1.50886">
        <ele>1475</ele>
        <time>2026-06-28T05:39:20.000Z</time>
      </trkpt>
      <trkpt lat="42.73749" lon="1.50884">
        <ele>1475</ele>
        <time>2026-06-28T05:39:21.000Z</time>
      </trkpt>
      <trkpt lat="42.7375" lon="1.50883">
        <ele>1475</ele>
        <time>2026-06-28T05:39:22.000Z</time>
      </trkpt>
      <trkpt lat="42.73752" lon="1.50882">
        <ele>1475</ele>
        <time>2026-06-28T05:39:23.000Z</time>
      </trkpt>
      <trkpt lat="42.73753" lon="1.50882">
        <ele>1476</ele>
        <time>2026-06-28T05:39:24.000Z</time>
      </trkpt>
      <trkpt lat="42.73756" lon="1.50881">
        <ele>1476</ele>
        <time>2026-06-28T05:39:25.000Z</time>
      </trkpt>
      <trkpt lat="42.73759" lon="1.5088">
        <ele>1476</ele>
        <time>2026-06-28T05:39:26.000Z</time>
      </trkpt>
      <trkpt lat="42.73761" lon="1.50878">
        <ele>1476</ele>
        <time>2026-06-28T05:39:27.000Z</time>
      </trkpt>
      <trkpt lat="42.73764" lon="1.50877">
        <ele>1476</ele>
        <time>2026-06-28T05:39:28.000Z</time>
      </trkpt>
      <trkpt lat="42.73766" lon="1.50875">
        <ele>1477</ele>
        <time>2026-06-28T05:39:29.000Z</time>
      </trkpt>
      <trkpt lat="42.73769" lon="1.50874">
        <ele>1477</ele>
        <time>2026-06-28T05:39:30.000Z</time>
      </trkpt>
      <trkpt lat="42.73773" lon="1.50873">
        <ele>1478</ele>
        <time>2026-06-28T05:39:31.000Z</time>
      </trkpt>
      <trkpt lat="42.73775" lon="1.50873">
        <ele>1478</ele>
        <time>2026-06-28T05:39:32.000Z</time>
      </trkpt>
      <trkpt lat="42.73778" lon="1.50874">
        <ele>1478</ele>
        <time>2026-06-28T05:39:33.000Z</time>
      </trkpt>
      <trkpt lat="42.7378" lon="1.50873">
        <ele>1479</ele>
        <time>2026-06-28T05:39:34.000Z</time>
      </trkpt>
      <trkpt lat="42.73782" lon="1.50873">
        <ele>1479</ele>
        <time>2026-06-28T05:39:35.000Z</time>
      </trkpt>
      <trkpt lat="42.73784" lon="1.50873">
        <ele>1479</ele>
        <time>2026-06-28T05:39:36.000Z</time>
      </trkpt>
      <trkpt lat="42.73786" lon="1.50869">
        <ele>1479</ele>
        <time>2026-06-28T05:39:37.000Z</time>
      </trkpt>
      <trkpt lat="42.73787" lon="1.50866">
        <ele>1480</ele>
        <time>2026-06-28T05:39:38.000Z</time>
      </trkpt>
      <trkpt lat="42.73789" lon="1.50863">
        <ele>1480</ele>
        <time>2026-06-28T05:39:39.000Z</time>
      </trkpt>
      <trkpt lat="42.73792" lon="1.50861">
        <ele>1480</ele>
        <time>2026-06-28T05:39:40.000Z</time>
      </trkpt>
      <trkpt lat="42.73795" lon="1.50858">
        <ele>1480</ele>
        <time>2026-06-28T05:39:41.000Z</time>
      </trkpt>
      <trkpt lat="42.73798" lon="1.50857">
        <ele>1481</ele>
        <time>2026-06-28T05:39:42.000Z</time>
      </trkpt>
      <trkpt lat="42.738" lon="1.50856">
        <ele>1480</ele>
        <time>2026-06-28T05:39:43.000Z</time>
      </trkpt>
      <trkpt lat="42.73802" lon="1.50856">
        <ele>1481</ele>
        <time>2026-06-28T05:39:44.000Z</time>
      </trkpt>
      <trkpt lat="42.73804" lon="1.50857">
        <ele>1481</ele>
        <time>2026-06-28T05:39:45.000Z</time>
      </trkpt>
      <trkpt lat="42.73806" lon="1.50856">
        <ele>1481</ele>
        <time>2026-06-28T05:39:46.000Z</time>
      </trkpt>
      <trkpt lat="42.73808" lon="1.50855">
        <ele>1481</ele>
        <time>2026-06-28T05:39:47.000Z</time>
      </trkpt>
      <trkpt lat="42.7381" lon="1.50854">
        <ele>1481</ele>
        <time>2026-06-28T05:39:48.000Z</time>
      </trkpt>
      <trkpt lat="42.73812" lon="1.50852">
        <ele>1481</ele>
        <time>2026-06-28T05:39:49.000Z</time>
      </trkpt>
      <trkpt lat="42.73813" lon="1.5085">
        <ele>1481</ele>
        <time>2026-06-28T05:39:50.000Z</time>
      </trkpt>
      <trkpt lat="42.73814" lon="1.5085">
        <ele>1480</ele>
        <time>2026-06-28T05:39:51.000Z</time>
      </trkpt>
      <trkpt lat="42.73815" lon="1.50849">
        <ele>1479</ele>
        <time>2026-06-28T05:39:52.000Z</time>
      </trkpt>
      <trkpt lat="42.73816" lon="1.50849">
        <ele>1479</ele>
        <time>2026-06-28T05:39:53.000Z</time>
      </trkpt>
      <trkpt lat="42.73817" lon="1.50847">
        <ele>1479</ele>
        <time>2026-06-28T05:39:54.000Z</time>
      </trkpt>
      <trkpt lat="42.73818" lon="1.50846">
        <ele>1479</ele>
        <time>2026-06-28T05:39:55.000Z</time>
      </trkpt>
      <trkpt lat="42.73818" lon="1.50845">
        <ele>1479</ele>
        <time>2026-06-28T05:39:56.000Z</time>
      </trkpt>
      <trkpt lat="42.73819" lon="1.50845">
        <ele>1479</ele>
        <time>2026-06-28T05:39:57.000Z</time>
      </trkpt>
      <trkpt lat="42.7382" lon="1.50846">
        <ele>1478</ele>
        <time>2026-06-28T05:39:58.000Z</time>
      </trkpt>
      <trkpt lat="42.73821" lon="1.50846">
        <ele>1477</ele>
        <time>2026-06-28T05:39:59.000Z</time>
      </trkpt>
      <trkpt lat="42.73821" lon="1.50845">
        <ele>1477</ele>
        <time>2026-06-28T05:40:00.000Z</time>
      </trkpt>
      <trkpt lat="42.73822" lon="1.50845">
        <ele>1476</ele>
        <time>2026-06-28T05:40:01.000Z</time>
      </trkpt>
      <trkpt lat="42.73823" lon="1.50844">
        <ele>1476</ele>
        <time>2026-06-28T05:40:02.000Z</time>
      </trkpt>
      <trkpt lat="42.73824" lon="1.50842">
        <ele>1476</ele>
        <time>2026-06-28T05:40:03.000Z</time>
      </trkpt>
      <trkpt lat="42.73824" lon="1.50841">
        <ele>1476</ele>
        <time>2026-06-28T05:40:04.000Z</time>
      </trkpt>
      <trkpt lat="42.73825" lon="1.5084">
        <ele>1475</ele>
        <time>2026-06-28T05:40:05.000Z</time>
      </trkpt>
      <trkpt lat="42.73824" lon="1.50839">
        <ele>1472</ele>
        <time>2026-06-28T05:40:06.000Z</time>
      </trkpt>
      <trkpt lat="42.73824" lon="1.50839">
        <ele>1472</ele>
        <time>2026-06-28T05:40:07.000Z</time>
      </trkpt>
      <trkpt lat="42.73825" lon="1.50838">
        <ele>1472</ele>
        <time>2026-06-28T05:40:08.000Z</time>
      </trkpt>
      <trkpt lat="42.73826" lon="1.50838">
        <ele>1472</ele>
        <time>2026-06-28T05:40:09.000Z</time>
      </trkpt>
      <trkpt lat="42.73827" lon="1.50837">
        <ele>1473</ele>
        <time>2026-06-28T05:40:10.000Z</time>
      </trkpt>
      <trkpt lat="42.73828" lon="1.50836">
        <ele>1473</ele>
        <time>2026-06-28T05:40:11.000Z</time>
      </trkpt>
      <trkpt lat="42.7383" lon="1.50836">
        <ele>1473</ele>
        <time>2026-06-28T05:40:12.000Z</time>
      </trkpt>
      <trkpt lat="42.73832" lon="1.50835">
        <ele>1473</ele>
        <time>2026-06-28T05:40:13.000Z</time>
      </trkpt>
      <trkpt lat="42.73835" lon="1.50834">
        <ele>1473</ele>
        <time>2026-06-28T05:40:14.000Z</time>
      </trkpt>
      <trkpt lat="42.73836" lon="1.50834">
        <ele>1473</ele>
        <time>2026-06-28T05:40:15.000Z</time>
      </trkpt>
      <trkpt lat="42.73838" lon="1.50835">
        <ele>1473</ele>
        <time>2026-06-28T05:40:16.000Z</time>
      </trkpt>
      <trkpt lat="42.73839" lon="1.50836">
        <ele>1473</ele>
        <time>2026-06-28T05:40:17.000Z</time>
      </trkpt>
      <trkpt lat="42.7384" lon="1.50836">
        <ele>1472</ele>
        <time>2026-06-28T05:40:18.000Z</time>
      </trkpt>
      <trkpt lat="42.7384" lon="1.50836">
        <ele>1471</ele>
        <time>2026-06-28T05:40:19.000Z</time>
      </trkpt>
      <trkpt lat="42.73841" lon="1.50836">
        <ele>1471</ele>
        <time>2026-06-28T05:40:20.000Z</time>
      </trkpt>
      <trkpt lat="42.73844" lon="1.50834">
        <ele>1471</ele>
        <time>2026-06-28T05:40:21.000Z</time>
      </trkpt>
      <trkpt lat="42.73846" lon="1.50834">
        <ele>1470</ele>
        <time>2026-06-28T05:40:22.000Z</time>
      </trkpt>
      <trkpt lat="42.73848" lon="1.50836">
        <ele>1470</ele>
        <time>2026-06-28T05:40:23.000Z</time>
      </trkpt>
      <trkpt lat="42.7385" lon="1.50837">
        <ele>1470</ele>
        <time>2026-06-28T05:40:24.000Z</time>
      </trkpt>
      <trkpt lat="42.73851" lon="1.50838">
        <ele>1471</ele>
        <time>2026-06-28T05:40:25.000Z</time>
      </trkpt>
      <trkpt lat="42.73853" lon="1.50839">
        <ele>1471</ele>
        <time>2026-06-28T05:40:26.000Z</time>
      </trkpt>
      <trkpt lat="42.73854" lon="1.50839">
        <ele>1471</ele>
        <time>2026-06-28T05:40:27.000Z</time>
      </trkpt>
      <trkpt lat="42.73856" lon="1.50841">
        <ele>1471</ele>
        <time>2026-06-28T05:40:28.000Z</time>
      </trkpt>
      <trkpt lat="42.73858" lon="1.50842">
        <ele>1471</ele>
        <time>2026-06-28T05:40:29.000Z</time>
      </trkpt>
      <trkpt lat="42.73859" lon="1.50843">
        <ele>1471</ele>
        <time>2026-06-28T05:40:30.000Z</time>
      </trkpt>
      <trkpt lat="42.7386" lon="1.50844">
        <ele>1470</ele>
        <time>2026-06-28T05:40:31.000Z</time>
      </trkpt>
      <trkpt lat="42.73862" lon="1.50846">
        <ele>1471</ele>
        <time>2026-06-28T05:40:32.000Z</time>
      </trkpt>
      <trkpt lat="42.73863" lon="1.50847">
        <ele>1471</ele>
        <time>2026-06-28T05:40:33.000Z</time>
      </trkpt>
      <trkpt lat="42.73864" lon="1.50848">
        <ele>1471</ele>
        <time>2026-06-28T05:40:34.000Z</time>
      </trkpt>
      <trkpt lat="42.73866" lon="1.50849">
        <ele>1472</ele>
        <time>2026-06-28T05:40:35.000Z</time>
      </trkpt>
      <trkpt lat="42.73869" lon="1.5085">
        <ele>1472</ele>
        <time>2026-06-28T05:40:36.000Z</time>
      </trkpt>
      <trkpt lat="42.73871" lon="1.5085">
        <ele>1472</ele>
        <time>2026-06-28T05:40:37.000Z</time>
      </trkpt>
      <trkpt lat="42.73874" lon="1.5085">
        <ele>1472</ele>
        <time>2026-06-28T05:40:38.000Z</time>
      </trkpt>
      <trkpt lat="42.73877" lon="1.5085">
        <ele>1472</ele>
        <time>2026-06-28T05:40:39.000Z</time>
      </trkpt>
      <trkpt lat="42.7388" lon="1.50849">
        <ele>1472</ele>
        <time>2026-06-28T05:40:40.000Z</time>
      </trkpt>
      <trkpt lat="42.73883" lon="1.5085">
        <ele>1472</ele>
        <time>2026-06-28T05:40:41.000Z</time>
      </trkpt>
      <trkpt lat="42.73885" lon="1.5085">
        <ele>1472</ele>
        <time>2026-06-28T05:40:42.000Z</time>
      </trkpt>
      <trkpt lat="42.73887" lon="1.5085">
        <ele>1471</ele>
        <time>2026-06-28T05:40:43.000Z</time>
      </trkpt>
      <trkpt lat="42.73888" lon="1.50851">
        <ele>1471</ele>
        <time>2026-06-28T05:40:44.000Z</time>
      </trkpt>
      <trkpt lat="42.73889" lon="1.50852">
        <ele>1471</ele>
        <time>2026-06-28T05:40:45.000Z</time>
      </trkpt>
      <trkpt lat="42.73891" lon="1.50852">
        <ele>1472</ele>
        <time>2026-06-28T05:40:46.000Z</time>
      </trkpt>
      <trkpt lat="42.73893" lon="1.50852">
        <ele>1473</ele>
        <time>2026-06-28T05:40:47.000Z</time>
      </trkpt>
      <trkpt lat="42.73896" lon="1.50854">
        <ele>1473</ele>
        <time>2026-06-28T05:40:48.000Z</time>
      </trkpt>
      <trkpt lat="42.739" lon="1.50854">
        <ele>1473</ele>
        <time>2026-06-28T05:40:49.000Z</time>
      </trkpt>
      <trkpt lat="42.73902" lon="1.50854">
        <ele>1473</ele>
        <time>2026-06-28T05:40:50.000Z</time>
      </trkpt>
      <trkpt lat="42.73904" lon="1.50854">
        <ele>1473</ele>
        <time>2026-06-28T05:40:51.000Z</time>
      </trkpt>
      <trkpt lat="42.73906" lon="1.50854">
        <ele>1474</ele>
        <time>2026-06-28T05:40:52.000Z</time>
      </trkpt>
      <trkpt lat="42.73909" lon="1.50855">
        <ele>1474</ele>
        <time>2026-06-28T05:40:53.000Z</time>
      </trkpt>
      <trkpt lat="42.73911" lon="1.50855">
        <ele>1474</ele>
        <time>2026-06-28T05:40:54.000Z</time>
      </trkpt>
      <trkpt lat="42.73913" lon="1.50856">
        <ele>1473</ele>
        <time>2026-06-28T05:40:55.000Z</time>
      </trkpt>
      <trkpt lat="42.73916" lon="1.50856">
        <ele>1473</ele>
        <time>2026-06-28T05:40:56.000Z</time>
      </trkpt>
      <trkpt lat="42.73918" lon="1.50857">
        <ele>1473</ele>
        <time>2026-06-28T05:40:57.000Z</time>
      </trkpt>
      <trkpt lat="42.73919" lon="1.50858">
        <ele>1473</ele>
        <time>2026-06-28T05:40:58.000Z</time>
      </trkpt>
      <trkpt lat="42.73921" lon="1.50858">
        <ele>1473</ele>
        <time>2026-06-28T05:40:59.000Z</time>
      </trkpt>
      <trkpt lat="42.73923" lon="1.5086">
        <ele>1473</ele>
        <time>2026-06-28T05:41:00.000Z</time>
      </trkpt>
      <trkpt lat="42.73926" lon="1.5086">
        <ele>1473</ele>
        <time>2026-06-28T05:41:01.000Z</time>
      </trkpt>
      <trkpt lat="42.73929" lon="1.50862">
        <ele>1474</ele>
        <time>2026-06-28T05:41:02.000Z</time>
      </trkpt>
      <trkpt lat="42.73932" lon="1.50862">
        <ele>1474</ele>
        <time>2026-06-28T05:41:03.000Z</time>
      </trkpt>
      <trkpt lat="42.73936" lon="1.50863">
        <ele>1473</ele>
        <time>2026-06-28T05:41:04.000Z</time>
      </trkpt>
      <trkpt lat="42.73939" lon="1.50863">
        <ele>1473</ele>
        <time>2026-06-28T05:41:05.000Z</time>
      </trkpt>
      <trkpt lat="42.73942" lon="1.50863">
        <ele>1473</ele>
        <time>2026-06-28T05:41:06.000Z</time>
      </trkpt>
      <trkpt lat="42.73945" lon="1.50863">
        <ele>1473</ele>
        <time>2026-06-28T05:41:07.000Z</time>
      </trkpt>
      <trkpt lat="42.73948" lon="1.50864">
        <ele>1474</ele>
        <time>2026-06-28T05:41:08.000Z</time>
      </trkpt>
      <trkpt lat="42.73951" lon="1.50864">
        <ele>1474</ele>
        <time>2026-06-28T05:41:09.000Z</time>
      </trkpt>
      <trkpt lat="42.73953" lon="1.50865">
        <ele>1474</ele>
        <time>2026-06-28T05:41:10.000Z</time>
      </trkpt>
      <trkpt lat="42.73956" lon="1.50865">
        <ele>1473</ele>
        <time>2026-06-28T05:41:11.000Z</time>
      </trkpt>
      <trkpt lat="42.73959" lon="1.50864">
        <ele>1473</ele>
        <time>2026-06-28T05:41:12.000Z</time>
      </trkpt>
      <trkpt lat="42.73962" lon="1.50865">
        <ele>1473</ele>
        <time>2026-06-28T05:41:13.000Z</time>
      </trkpt>
      <trkpt lat="42.73964" lon="1.50864">
        <ele>1473</ele>
        <time>2026-06-28T05:41:14.000Z</time>
      </trkpt>
      <trkpt lat="42.73967" lon="1.50864">
        <ele>1473</ele>
        <time>2026-06-28T05:41:15.000Z</time>
      </trkpt>
      <trkpt lat="42.73969" lon="1.50863">
        <ele>1473</ele>
        <time>2026-06-28T05:41:16.000Z</time>
      </trkpt>
      <trkpt lat="42.73971" lon="1.50862">
        <ele>1473</ele>
        <time>2026-06-28T05:41:17.000Z</time>
      </trkpt>
      <trkpt lat="42.73972" lon="1.50861">
        <ele>1473</ele>
        <time>2026-06-28T05:41:18.000Z</time>
      </trkpt>
      <trkpt lat="42.73975" lon="1.5086">
        <ele>1473</ele>
        <time>2026-06-28T05:41:19.000Z</time>
      </trkpt>
      <trkpt lat="42.73977" lon="1.50859">
        <ele>1473</ele>
        <time>2026-06-28T05:41:20.000Z</time>
      </trkpt>
      <trkpt lat="42.73979" lon="1.50858">
        <ele>1473</ele>
        <time>2026-06-28T05:41:21.000Z</time>
      </trkpt>
      <trkpt lat="42.73982" lon="1.50858">
        <ele>1472</ele>
        <time>2026-06-28T05:41:22.000Z</time>
      </trkpt>
      <trkpt lat="42.73984" lon="1.50858">
        <ele>1471</ele>
        <time>2026-06-28T05:41:23.000Z</time>
      </trkpt>
      <trkpt lat="42.73987" lon="1.50858">
        <ele>1471</ele>
        <time>2026-06-28T05:41:24.000Z</time>
      </trkpt>
      <trkpt lat="42.73989" lon="1.50857">
        <ele>1472</ele>
        <time>2026-06-28T05:41:25.000Z</time>
      </trkpt>
      <trkpt lat="42.73992" lon="1.50857">
        <ele>1472</ele>
        <time>2026-06-28T05:41:26.000Z</time>
      </trkpt>
      <trkpt lat="42.73993" lon="1.50856">
        <ele>1472</ele>
        <time>2026-06-28T05:41:27.000Z</time>
      </trkpt>
      <trkpt lat="42.73996" lon="1.50854">
        <ele>1473</ele>
        <time>2026-06-28T05:41:28.000Z</time>
      </trkpt>
      <trkpt lat="42.73997" lon="1.50853">
        <ele>1473</ele>
        <time>2026-06-28T05:41:29.000Z</time>
      </trkpt>
      <trkpt lat="42.74" lon="1.50852">
        <ele>1473</ele>
        <time>2026-06-28T05:41:30.000Z</time>
      </trkpt>
      <trkpt lat="42.74001" lon="1.50851">
        <ele>1473</ele>
        <time>2026-06-28T05:41:31.000Z</time>
      </trkpt>
      <trkpt lat="42.74004" lon="1.50851">
        <ele>1473</ele>
        <time>2026-06-28T05:41:32.000Z</time>
      </trkpt>
      <trkpt lat="42.74006" lon="1.50851">
        <ele>1473</ele>
        <time>2026-06-28T05:41:33.000Z</time>
      </trkpt>
      <trkpt lat="42.7401" lon="1.50851">
        <ele>1473</ele>
        <time>2026-06-28T05:41:34.000Z</time>
      </trkpt>
      <trkpt lat="42.74013" lon="1.50851">
        <ele>1473</ele>
        <time>2026-06-28T05:41:35.000Z</time>
      </trkpt>
      <trkpt lat="42.74016" lon="1.5085">
        <ele>1473</ele>
        <time>2026-06-28T05:41:36.000Z</time>
      </trkpt>
      <trkpt lat="42.7402" lon="1.50851">
        <ele>1473</ele>
        <time>2026-06-28T05:41:37.000Z</time>
      </trkpt>
      <trkpt lat="42.74022" lon="1.50851">
        <ele>1472</ele>
        <time>2026-06-28T05:41:38.000Z</time>
      </trkpt>
      <trkpt lat="42.74024" lon="1.5085">
        <ele>1472</ele>
        <time>2026-06-28T05:41:39.000Z</time>
      </trkpt>
      <trkpt lat="42.74026" lon="1.50849">
        <ele>1472</ele>
        <time>2026-06-28T05:41:40.000Z</time>
      </trkpt>
      <trkpt lat="42.74028" lon="1.50848">
        <ele>1472</ele>
        <time>2026-06-28T05:41:41.000Z</time>
      </trkpt>
      <trkpt lat="42.74031" lon="1.50848">
        <ele>1472</ele>
        <time>2026-06-28T05:41:42.000Z</time>
      </trkpt>
      <trkpt lat="42.74034" lon="1.50847">
        <ele>1472</ele>
        <time>2026-06-28T05:41:43.000Z</time>
      </trkpt>
      <trkpt lat="42.74037" lon="1.50847">
        <ele>1471</ele>
        <time>2026-06-28T05:41:44.000Z</time>
      </trkpt>
      <trkpt lat="42.7404" lon="1.50847">
        <ele>1471</ele>
        <time>2026-06-28T05:41:45.000Z</time>
      </trkpt>
      <trkpt lat="42.74042" lon="1.50847">
        <ele>1471</ele>
        <time>2026-06-28T05:41:46.000Z</time>
      </trkpt>
      <trkpt lat="42.74044" lon="1.50847">
        <ele>1471</ele>
        <time>2026-06-28T05:41:47.000Z</time>
      </trkpt>
      <trkpt lat="42.74046" lon="1.50848">
        <ele>1471</ele>
        <time>2026-06-28T05:41:48.000Z</time>
      </trkpt>
      <trkpt lat="42.74049" lon="1.50848">
        <ele>1471</ele>
        <time>2026-06-28T05:41:49.000Z</time>
      </trkpt>
      <trkpt lat="42.7405" lon="1.50848">
        <ele>1471</ele>
        <time>2026-06-28T05:41:50.000Z</time>
      </trkpt>
      <trkpt lat="42.74053" lon="1.50849">
        <ele>1472</ele>
        <time>2026-06-28T05:41:51.000Z</time>
      </trkpt>
      <trkpt lat="42.74056" lon="1.50849">
        <ele>1472</ele>
        <time>2026-06-28T05:41:52.000Z</time>
      </trkpt>
      <trkpt lat="42.74059" lon="1.50849">
        <ele>1472</ele>
        <time>2026-06-28T05:41:53.000Z</time>
      </trkpt>
      <trkpt lat="42.74063" lon="1.50849">
        <ele>1472</ele>
        <time>2026-06-28T05:41:54.000Z</time>
      </trkpt>
      <trkpt lat="42.74066" lon="1.50849">
        <ele>1472</ele>
        <time>2026-06-28T05:41:55.000Z</time>
      </trkpt>
      <trkpt lat="42.74069" lon="1.5085">
        <ele>1472</ele>
        <time>2026-06-28T05:41:56.000Z</time>
      </trkpt>
      <trkpt lat="42.74072" lon="1.50849">
        <ele>1473</ele>
        <time>2026-06-28T05:41:57.000Z</time>
      </trkpt>
      <trkpt lat="42.74074" lon="1.5085">
        <ele>1473</ele>
        <time>2026-06-28T05:41:58.000Z</time>
      </trkpt>
      <trkpt lat="42.74077" lon="1.50851">
        <ele>1472</ele>
        <time>2026-06-28T05:41:59.000Z</time>
      </trkpt>
      <trkpt lat="42.74081" lon="1.50852">
        <ele>1471</ele>
        <time>2026-06-28T05:42:00.000Z</time>
      </trkpt>
      <trkpt lat="42.74084" lon="1.50853">
        <ele>1471</ele>
        <time>2026-06-28T05:42:01.000Z</time>
      </trkpt>
      <trkpt lat="42.74087" lon="1.50852">
        <ele>1472</ele>
        <time>2026-06-28T05:42:02.000Z</time>
      </trkpt>
      <trkpt lat="42.74091" lon="1.50852">
        <ele>1473</ele>
        <time>2026-06-28T05:42:03.000Z</time>
      </trkpt>
      <trkpt lat="42.74094" lon="1.50853">
        <ele>1473</ele>
        <time>2026-06-28T05:42:04.000Z</time>
      </trkpt>
      <trkpt lat="42.74099" lon="1.50854">
        <ele>1473</ele>
        <time>2026-06-28T05:42:05.000Z</time>
      </trkpt>
      <trkpt lat="42.74103" lon="1.50855">
        <ele>1473</ele>
        <time>2026-06-28T05:42:06.000Z</time>
      </trkpt>
      <trkpt lat="42.74106" lon="1.50854">
        <ele>1473</ele>
        <time>2026-06-28T05:42:07.000Z</time>
      </trkpt>
      <trkpt lat="42.7411" lon="1.50854">
        <ele>1474</ele>
        <time>2026-06-28T05:42:08.000Z</time>
      </trkpt>
      <trkpt lat="42.74112" lon="1.50854">
        <ele>1474</ele>
        <time>2026-06-28T05:42:09.000Z</time>
      </trkpt>
      <trkpt lat="42.74115" lon="1.50855">
        <ele>1474</ele>
        <time>2026-06-28T05:42:10.000Z</time>
      </trkpt>
      <trkpt lat="42.74117" lon="1.50855">
        <ele>1474</ele>
        <time>2026-06-28T05:42:11.000Z</time>
      </trkpt>
      <trkpt lat="42.7412" lon="1.50857">
        <ele>1474</ele>
        <time>2026-06-28T05:42:12.000Z</time>
      </trkpt>
      <trkpt lat="42.74123" lon="1.50858">
        <ele>1473</ele>
        <time>2026-06-28T05:42:13.000Z</time>
      </trkpt>
      <trkpt lat="42.74125" lon="1.50859">
        <ele>1473</ele>
        <time>2026-06-28T05:42:14.000Z</time>
      </trkpt>
      <trkpt lat="42.74127" lon="1.5086">
        <ele>1473</ele>
        <time>2026-06-28T05:42:15.000Z</time>
      </trkpt>
      <trkpt lat="42.74129" lon="1.50861">
        <ele>1474</ele>
        <time>2026-06-28T05:42:16.000Z</time>
      </trkpt>
      <trkpt lat="42.74131" lon="1.50862">
        <ele>1473</ele>
        <time>2026-06-28T05:42:17.000Z</time>
      </trkpt>
      <trkpt lat="42.74132" lon="1.50863">
        <ele>1473</ele>
        <time>2026-06-28T05:42:18.000Z</time>
      </trkpt>
      <trkpt lat="42.74133" lon="1.50865">
        <ele>1473</ele>
        <time>2026-06-28T05:42:19.000Z</time>
      </trkpt>
      <trkpt lat="42.74133" lon="1.50865">
        <ele>1473</ele>
        <time>2026-06-28T05:42:20.000Z</time>
      </trkpt>
      <trkpt lat="42.74132" lon="1.50865">
        <ele>1473</ele>
        <time>2026-06-28T05:42:21.000Z</time>
      </trkpt>
      <trkpt lat="42.74132" lon="1.50865">
        <ele>1473</ele>
        <time>2026-06-28T05:42:22.000Z</time>
      </trkpt>
      <trkpt lat="42.74132" lon="1.50864">
        <ele>1473</ele>
        <time>2026-06-28T05:42:23.000Z</time>
      </trkpt>
      <trkpt lat="42.74133" lon="1.50865">
        <ele>1472</ele>
        <time>2026-06-28T05:42:24.000Z</time>
      </trkpt>
      <trkpt lat="42.74133" lon="1.50864">
        <ele>1472</ele>
        <time>2026-06-28T05:42:25.000Z</time>
      </trkpt>
      <trkpt lat="42.74134" lon="1.50865">
        <ele>1472</ele>
        <time>2026-06-28T05:42:26.000Z</time>
      </trkpt>
      <trkpt lat="42.74136" lon="1.50866">
        <ele>1473</ele>
        <time>2026-06-28T05:42:27.000Z</time>
      </trkpt>
      <trkpt lat="42.74138" lon="1.50868">
        <ele>1473</ele>
        <time>2026-06-28T05:42:28.000Z</time>
      </trkpt>
      <trkpt lat="42.74139" lon="1.50871">
        <ele>1474</ele>
        <time>2026-06-28T05:42:29.000Z</time>
      </trkpt>
      <trkpt lat="42.74139" lon="1.50874">
        <ele>1474</ele>
        <time>2026-06-28T05:42:30.000Z</time>
      </trkpt>
      <trkpt lat="42.74139" lon="1.50876">
        <ele>1475</ele>
        <time>2026-06-28T05:42:31.000Z</time>
      </trkpt>
      <trkpt lat="42.74139" lon="1.50879">
        <ele>1475</ele>
        <time>2026-06-28T05:42:32.000Z</time>
      </trkpt>
      <trkpt lat="42.74139" lon="1.50883">
        <ele>1475</ele>
        <time>2026-06-28T05:42:33.000Z</time>
      </trkpt>
      <trkpt lat="42.74139" lon="1.50886">
        <ele>1476</ele>
        <time>2026-06-28T05:42:34.000Z</time>
      </trkpt>
      <trkpt lat="42.74138" lon="1.5089">
        <ele>1476</ele>
        <time>2026-06-28T05:42:35.000Z</time>
      </trkpt>
      <trkpt lat="42.74137" lon="1.50894">
        <ele>1476</ele>
        <time>2026-06-28T05:42:36.000Z</time>
      </trkpt>
      <trkpt lat="42.74137" lon="1.50897">
        <ele>1477</ele>
        <time>2026-06-28T05:42:37.000Z</time>
      </trkpt>
      <trkpt lat="42.74136" lon="1.509">
        <ele>1477</ele>
        <time>2026-06-28T05:42:38.000Z</time>
      </trkpt>
      <trkpt lat="42.74136" lon="1.50903">
        <ele>1476</ele>
        <time>2026-06-28T05:42:39.000Z</time>
      </trkpt>
      <trkpt lat="42.74135" lon="1.50906">
        <ele>1477</ele>
        <time>2026-06-28T05:42:40.000Z</time>
      </trkpt>
      <trkpt lat="42.74135" lon="1.50908">
        <ele>1476</ele>
        <time>2026-06-28T05:42:41.000Z</time>
      </trkpt>
      <trkpt lat="42.74134" lon="1.5091">
        <ele>1476</ele>
        <time>2026-06-28T05:42:42.000Z</time>
      </trkpt>
      <trkpt lat="42.74133" lon="1.50912">
        <ele>1476</ele>
        <time>2026-06-28T05:42:43.000Z</time>
      </trkpt>
      <trkpt lat="42.74132" lon="1.50915">
        <ele>1477</ele>
        <time>2026-06-28T05:42:44.000Z</time>
      </trkpt>
      <trkpt lat="42.7413" lon="1.50917">
        <ele>1476</ele>
        <time>2026-06-28T05:42:45.000Z</time>
      </trkpt>
      <trkpt lat="42.74128" lon="1.50921">
        <ele>1476</ele>
        <time>2026-06-28T05:42:46.000Z</time>
      </trkpt>
      <trkpt lat="42.74127" lon="1.50925">
        <ele>1476</ele>
        <time>2026-06-28T05:42:47.000Z</time>
      </trkpt>
      <trkpt lat="42.74125" lon="1.50929">
        <ele>1476</ele>
        <time>2026-06-28T05:42:48.000Z</time>
      </trkpt>
      <trkpt lat="42.74124" lon="1.50934">
        <ele>1476</ele>
        <time>2026-06-28T05:42:49.000Z</time>
      </trkpt>
      <trkpt lat="42.74122" lon="1.50939">
        <ele>1476</ele>
        <time>2026-06-28T05:42:50.000Z</time>
      </trkpt>
      <trkpt lat="42.74119" lon="1.50944">
        <ele>1475</ele>
        <time>2026-06-28T05:42:51.000Z</time>
      </trkpt>
      <trkpt lat="42.74117" lon="1.50946">
        <ele>1475</ele>
        <time>2026-06-28T05:42:52.000Z</time>
      </trkpt>
      <trkpt lat="42.74115" lon="1.50948">
        <ele>1475</ele>
        <time>2026-06-28T05:42:53.000Z</time>
      </trkpt>
      <trkpt lat="42.74113" lon="1.50951">
        <ele>1475</ele>
        <time>2026-06-28T05:42:54.000Z</time>
      </trkpt>
      <trkpt lat="42.74112" lon="1.50953">
        <ele>1476</ele>
        <time>2026-06-28T05:42:55.000Z</time>
      </trkpt>
      <trkpt lat="42.74111" lon="1.50955">
        <ele>1476</ele>
        <time>2026-06-28T05:42:56.000Z</time>
      </trkpt>
      <trkpt lat="42.7411" lon="1.50957">
        <ele>1477</ele>
        <time>2026-06-28T05:42:57.000Z</time>
      </trkpt>
      <trkpt lat="42.74108" lon="1.50959">
        <ele>1477</ele>
        <time>2026-06-28T05:42:58.000Z</time>
      </trkpt>
      <trkpt lat="42.74106" lon="1.50962">
        <ele>1477</ele>
        <time>2026-06-28T05:42:59.000Z</time>
      </trkpt>
      <trkpt lat="42.74104" lon="1.50964">
        <ele>1477</ele>
        <time>2026-06-28T05:43:00.000Z</time>
      </trkpt>
      <trkpt lat="42.74102" lon="1.50966">
        <ele>1477</ele>
        <time>2026-06-28T05:43:01.000Z</time>
      </trkpt>
      <trkpt lat="42.74101" lon="1.50969">
        <ele>1478</ele>
        <time>2026-06-28T05:43:02.000Z</time>
      </trkpt>
      <trkpt lat="42.741" lon="1.50971">
        <ele>1479</ele>
        <time>2026-06-28T05:43:03.000Z</time>
      </trkpt>
      <trkpt lat="42.74098" lon="1.50973">
        <ele>1480</ele>
        <time>2026-06-28T05:43:04.000Z</time>
      </trkpt>
      <trkpt lat="42.74097" lon="1.50975">
        <ele>1480</ele>
        <time>2026-06-28T05:43:05.000Z</time>
      </trkpt>
      <trkpt lat="42.74096" lon="1.50977">
        <ele>1481</ele>
        <time>2026-06-28T05:43:06.000Z</time>
      </trkpt>
      <trkpt lat="42.74094" lon="1.5098">
        <ele>1481</ele>
        <time>2026-06-28T05:43:07.000Z</time>
      </trkpt>
      <trkpt lat="42.74094" lon="1.50983">
        <ele>1481</ele>
        <time>2026-06-28T05:43:08.000Z</time>
      </trkpt>
      <trkpt lat="42.74093" lon="1.50985">
        <ele>1481</ele>
        <time>2026-06-28T05:43:09.000Z</time>
      </trkpt>
      <trkpt lat="42.74092" lon="1.50987">
        <ele>1481</ele>
        <time>2026-06-28T05:43:10.000Z</time>
      </trkpt>
      <trkpt lat="42.74091" lon="1.50988">
        <ele>1481</ele>
        <time>2026-06-28T05:43:11.000Z</time>
      </trkpt>
      <trkpt lat="42.74089" lon="1.5099">
        <ele>1481</ele>
        <time>2026-06-28T05:43:12.000Z</time>
      </trkpt>
      <trkpt lat="42.74087" lon="1.50993">
        <ele>1481</ele>
        <time>2026-06-28T05:43:13.000Z</time>
      </trkpt>
      <trkpt lat="42.74086" lon="1.50995">
        <ele>1481</ele>
        <time>2026-06-28T05:43:14.000Z</time>
      </trkpt>
      <trkpt lat="42.74084" lon="1.50997">
        <ele>1481</ele>
        <time>2026-06-28T05:43:15.000Z</time>
      </trkpt>
      <trkpt lat="42.74083" lon="1.50999">
        <ele>1482</ele>
        <time>2026-06-28T05:43:16.000Z</time>
      </trkpt>
      <trkpt lat="42.74083" lon="1.51">
        <ele>1482</ele>
        <time>2026-06-28T05:43:17.000Z</time>
      </trkpt>
      <trkpt lat="42.74081" lon="1.51002">
        <ele>1483</ele>
        <time>2026-06-28T05:43:18.000Z</time>
      </trkpt>
      <trkpt lat="42.7408" lon="1.51004">
        <ele>1483</ele>
        <time>2026-06-28T05:43:19.000Z</time>
      </trkpt>
      <trkpt lat="42.74078" lon="1.51006">
        <ele>1483</ele>
        <time>2026-06-28T05:43:20.000Z</time>
      </trkpt>
      <trkpt lat="42.74077" lon="1.51008">
        <ele>1483</ele>
        <time>2026-06-28T05:43:21.000Z</time>
      </trkpt>
      <trkpt lat="42.74075" lon="1.51011">
        <ele>1483</ele>
        <time>2026-06-28T05:43:22.000Z</time>
      </trkpt>
      <trkpt lat="42.74074" lon="1.51013">
        <ele>1484</ele>
        <time>2026-06-28T05:43:23.000Z</time>
      </trkpt>
      <trkpt lat="42.74073" lon="1.51016">
        <ele>1484</ele>
        <time>2026-06-28T05:43:24.000Z</time>
      </trkpt>
      <trkpt lat="42.74072" lon="1.51019">
        <ele>1484</ele>
        <time>2026-06-28T05:43:25.000Z</time>
      </trkpt>
      <trkpt lat="42.74071" lon="1.51022">
        <ele>1484</ele>
        <time>2026-06-28T05:43:26.000Z</time>
      </trkpt>
      <trkpt lat="42.7407" lon="1.51025">
        <ele>1485</ele>
        <time>2026-06-28T05:43:27.000Z</time>
      </trkpt>
      <trkpt lat="42.74069" lon="1.51027">
        <ele>1485</ele>
        <time>2026-06-28T05:43:28.000Z</time>
      </trkpt>
      <trkpt lat="42.74069" lon="1.51029">
        <ele>1485</ele>
        <time>2026-06-28T05:43:29.000Z</time>
      </trkpt>
      <trkpt lat="42.74067" lon="1.51031">
        <ele>1485</ele>
        <time>2026-06-28T05:43:30.000Z</time>
      </trkpt>
      <trkpt lat="42.74066" lon="1.51033">
        <ele>1485</ele>
        <time>2026-06-28T05:43:31.000Z</time>
      </trkpt>
      <trkpt lat="42.74064" lon="1.51035">
        <ele>1486</ele>
        <time>2026-06-28T05:43:32.000Z</time>
      </trkpt>
      <trkpt lat="42.74063" lon="1.51037">
        <ele>1486</ele>
        <time>2026-06-28T05:43:33.000Z</time>
      </trkpt>
      <trkpt lat="42.74063" lon="1.51039">
        <ele>1486</ele>
        <time>2026-06-28T05:43:34.000Z</time>
      </trkpt>
      <trkpt lat="42.74062" lon="1.51041">
        <ele>1487</ele>
        <time>2026-06-28T05:43:35.000Z</time>
      </trkpt>
      <trkpt lat="42.7406" lon="1.51043">
        <ele>1487</ele>
        <time>2026-06-28T05:43:36.000Z</time>
      </trkpt>
      <trkpt lat="42.74058" lon="1.51045">
        <ele>1488</ele>
        <time>2026-06-28T05:43:37.000Z</time>
      </trkpt>
      <trkpt lat="42.74057" lon="1.51048">
        <ele>1489</ele>
        <time>2026-06-28T05:43:38.000Z</time>
      </trkpt>
      <trkpt lat="42.74056" lon="1.5105">
        <ele>1489</ele>
        <time>2026-06-28T05:43:39.000Z</time>
      </trkpt>
      <trkpt lat="42.74054" lon="1.51053">
        <ele>1489</ele>
        <time>2026-06-28T05:43:40.000Z</time>
      </trkpt>
      <trkpt lat="42.74053" lon="1.51056">
        <ele>1489</ele>
        <time>2026-06-28T05:43:41.000Z</time>
      </trkpt>
      <trkpt lat="42.74052" lon="1.51059">
        <ele>1490</ele>
        <time>2026-06-28T05:43:42.000Z</time>
      </trkpt>
      <trkpt lat="42.74052" lon="1.51062">
        <ele>1490</ele>
        <time>2026-06-28T05:43:43.000Z</time>
      </trkpt>
      <trkpt lat="42.74051" lon="1.51065">
        <ele>1491</ele>
        <time>2026-06-28T05:43:44.000Z</time>
      </trkpt>
      <trkpt lat="42.7405" lon="1.51067">
        <ele>1490</ele>
        <time>2026-06-28T05:43:45.000Z</time>
      </trkpt>
      <trkpt lat="42.74049" lon="1.51069">
        <ele>1490</ele>
        <time>2026-06-28T05:43:46.000Z</time>
      </trkpt>
      <trkpt lat="42.74048" lon="1.51071">
        <ele>1490</ele>
        <time>2026-06-28T05:43:47.000Z</time>
      </trkpt>
      <trkpt lat="42.74047" lon="1.51073">
        <ele>1491</ele>
        <time>2026-06-28T05:43:48.000Z</time>
      </trkpt>
      <trkpt lat="42.74046" lon="1.51074">
        <ele>1491</ele>
        <time>2026-06-28T05:43:49.000Z</time>
      </trkpt>
      <trkpt lat="42.74045" lon="1.51076">
        <ele>1491</ele>
        <time>2026-06-28T05:43:50.000Z</time>
      </trkpt>
      <trkpt lat="42.74044" lon="1.51077">
        <ele>1491</ele>
        <time>2026-06-28T05:43:51.000Z</time>
      </trkpt>
      <trkpt lat="42.74043" lon="1.51079">
        <ele>1491</ele>
        <time>2026-06-28T05:43:52.000Z</time>
      </trkpt>
      <trkpt lat="42.74043" lon="1.5108">
        <ele>1492</ele>
        <time>2026-06-28T05:43:53.000Z</time>
      </trkpt>
      <trkpt lat="42.74043" lon="1.51081">
        <ele>1493</ele>
        <time>2026-06-28T05:43:54.000Z</time>
      </trkpt>
      <trkpt lat="42.74042" lon="1.51083">
        <ele>1494</ele>
        <time>2026-06-28T05:43:55.000Z</time>
      </trkpt>
      <trkpt lat="42.74042" lon="1.51084">
        <ele>1494</ele>
        <time>2026-06-28T05:43:56.000Z</time>
      </trkpt>
      <trkpt lat="42.74041" lon="1.51086">
        <ele>1495</ele>
        <time>2026-06-28T05:43:57.000Z</time>
      </trkpt>
      <trkpt lat="42.74041" lon="1.51088">
        <ele>1495</ele>
        <time>2026-06-28T05:43:58.000Z</time>
      </trkpt>
      <trkpt lat="42.74041" lon="1.5109">
        <ele>1495</ele>
        <time>2026-06-28T05:43:59.000Z</time>
      </trkpt>
      <trkpt lat="42.74041" lon="1.5109">
        <ele>1496</ele>
        <time>2026-06-28T05:44:00.000Z</time>
      </trkpt>
      <trkpt lat="42.7404" lon="1.51091">
        <ele>1496</ele>
        <time>2026-06-28T05:44:01.000Z</time>
      </trkpt>
      <trkpt lat="42.74039" lon="1.51093">
        <ele>1496</ele>
        <time>2026-06-28T05:44:02.000Z</time>
      </trkpt>
      <trkpt lat="42.74039" lon="1.51094">
        <ele>1495</ele>
        <time>2026-06-28T05:44:03.000Z</time>
      </trkpt>
      <trkpt lat="42.74038" lon="1.51096">
        <ele>1495</ele>
        <time>2026-06-28T05:44:04.000Z</time>
      </trkpt>
      <trkpt lat="42.74038" lon="1.51097">
        <ele>1496</ele>
        <time>2026-06-28T05:44:05.000Z</time>
      </trkpt>
      <trkpt lat="42.74036" lon="1.51099">
        <ele>1496</ele>
        <time>2026-06-28T05:44:06.000Z</time>
      </trkpt>
      <trkpt lat="42.74036" lon="1.511">
        <ele>1497</ele>
        <time>2026-06-28T05:44:07.000Z</time>
      </trkpt>
      <trkpt lat="42.74035" lon="1.51102">
        <ele>1498</ele>
        <time>2026-06-28T05:44:08.000Z</time>
      </trkpt>
      <trkpt lat="42.74034" lon="1.51103">
        <ele>1499</ele>
        <time>2026-06-28T05:44:09.000Z</time>
      </trkpt>
      <trkpt lat="42.74034" lon="1.51105">
        <ele>1500</ele>
        <time>2026-06-28T05:44:10.000Z</time>
      </trkpt>
      <trkpt lat="42.74033" lon="1.51106">
        <ele>1501</ele>
        <time>2026-06-28T05:44:11.000Z</time>
      </trkpt>
      <trkpt lat="42.74033" lon="1.51107">
        <ele>1502</ele>
        <time>2026-06-28T05:44:12.000Z</time>
      </trkpt>
      <trkpt lat="42.74032" lon="1.51108">
        <ele>1501</ele>
        <time>2026-06-28T05:44:13.000Z</time>
      </trkpt>
      <trkpt lat="42.74032" lon="1.51108">
        <ele>1501</ele>
        <time>2026-06-28T05:44:14.000Z</time>
      </trkpt>
      <trkpt lat="42.74032" lon="1.51109">
        <ele>1501</ele>
        <time>2026-06-28T05:44:15.000Z</time>
      </trkpt>
      <trkpt lat="42.74032" lon="1.51109">
        <ele>1501</ele>
        <time>2026-06-28T05:44:16.000Z</time>
      </trkpt>
      <trkpt lat="42.74033" lon="1.5111">
        <ele>1501</ele>
        <time>2026-06-28T05:44:17.000Z</time>
      </trkpt>
      <trkpt lat="42.74033" lon="1.51111">
        <ele>1502</ele>
        <time>2026-06-28T05:44:18.000Z</time>
      </trkpt>
      <trkpt lat="42.74033" lon="1.51113">
        <ele>1501</ele>
        <time>2026-06-28T05:44:19.000Z</time>
      </trkpt>
      <trkpt lat="42.74033" lon="1.51114">
        <ele>1501</ele>
        <time>2026-06-28T05:44:20.000Z</time>
      </trkpt>
      <trkpt lat="42.74033" lon="1.51116">
        <ele>1502</ele>
        <time>2026-06-28T05:44:21.000Z</time>
      </trkpt>
      <trkpt lat="42.74032" lon="1.51117">
        <ele>1502</ele>
        <time>2026-06-28T05:44:22.000Z</time>
      </trkpt>
      <trkpt lat="42.74032" lon="1.51118">
        <ele>1503</ele>
        <time>2026-06-28T05:44:23.000Z</time>
      </trkpt>
      <trkpt lat="42.74031" lon="1.51119">
        <ele>1503</ele>
        <time>2026-06-28T05:44:24.000Z</time>
      </trkpt>
      <trkpt lat="42.7403" lon="1.5112">
        <ele>1503</ele>
        <time>2026-06-28T05:44:25.000Z</time>
      </trkpt>
      <trkpt lat="42.7403" lon="1.5112">
        <ele>1503</ele>
        <time>2026-06-28T05:44:26.000Z</time>
      </trkpt>
      <trkpt lat="42.7403" lon="1.51121">
        <ele>1504</ele>
        <time>2026-06-28T05:44:27.000Z</time>
      </trkpt>
      <trkpt lat="42.7403" lon="1.51121">
        <ele>1503</ele>
        <time>2026-06-28T05:44:28.000Z</time>
      </trkpt>
      <trkpt lat="42.7403" lon="1.51121">
        <ele>1503</ele>
        <time>2026-06-28T05:44:29.000Z</time>
      </trkpt>
      <trkpt lat="42.7403" lon="1.51121">
        <ele>1503</ele>
        <time>2026-06-28T05:44:30.000Z</time>
      </trkpt>
      <trkpt lat="42.7403" lon="1.51122">
        <ele>1503</ele>
        <time>2026-06-28T05:44:31.000Z</time>
      </trkpt>
      <trkpt lat="42.7403" lon="1.51123">
        <ele>1503</ele>
        <time>2026-06-28T05:44:32.000Z</time>
      </trkpt>
      <trkpt lat="42.74029" lon="1.51124">
        <ele>1504</ele>
        <time>2026-06-28T05:44:33.000Z</time>
      </trkpt>
      <trkpt lat="42.74029" lon="1.51124">
        <ele>1504</ele>
        <time>2026-06-28T05:44:34.000Z</time>
      </trkpt>
      <trkpt lat="42.74029" lon="1.51125">
        <ele>1504</ele>
        <time>2026-06-28T05:44:35.000Z</time>
      </trkpt>
      <trkpt lat="42.74029" lon="1.51125">
        <ele>1504</ele>
        <time>2026-06-28T05:44:36.000Z</time>
      </trkpt>
      <trkpt lat="42.74028" lon="1.51126">
        <ele>1506</ele>
        <time>2026-06-28T05:44:37.000Z</time>
      </trkpt>
      <trkpt lat="42.74027" lon="1.51127">
        <ele>1505</ele>
        <time>2026-06-28T05:44:38.000Z</time>
      </trkpt>
      <trkpt lat="42.74027" lon="1.51128">
        <ele>1504</ele>
        <time>2026-06-28T05:44:39.000Z</time>
      </trkpt>
      <trkpt lat="42.74026" lon="1.51128">
        <ele>1505</ele>
        <time>2026-06-28T05:44:40.000Z</time>
      </trkpt>
      <trkpt lat="42.74025" lon="1.51129">
        <ele>1505</ele>
        <time>2026-06-28T05:44:41.000Z</time>
      </trkpt>
      <trkpt lat="42.74024" lon="1.5113">
        <ele>1505</ele>
        <time>2026-06-28T05:44:42.000Z</time>
      </trkpt>
      <trkpt lat="42.74023" lon="1.51131">
        <ele>1505</ele>
        <time>2026-06-28T05:44:43.000Z</time>
      </trkpt>
      <trkpt lat="42.74023" lon="1.51131">
        <ele>1505</ele>
        <time>2026-06-28T05:44:44.000Z</time>
      </trkpt>
      <trkpt lat="42.74023" lon="1.51131">
        <ele>1506</ele>
        <time>2026-06-28T05:44:45.000Z</time>
      </trkpt>
      <trkpt lat="42.74023" lon="1.51132">
        <ele>1506</ele>
        <time>2026-06-28T05:44:46.000Z</time>
      </trkpt>
      <trkpt lat="42.74023" lon="1.51132">
        <ele>1506</ele>
        <time>2026-06-28T05:44:47.000Z</time>
      </trkpt>
      <trkpt lat="42.74023" lon="1.51132">
        <ele>1506</ele>
        <time>2026-06-28T05:44:48.000Z</time>
      </trkpt>
      <trkpt lat="42.74023" lon="1.51132">
        <ele>1506</ele>
        <time>2026-06-28T05:44:49.000Z</time>
      </trkpt>
      <trkpt lat="42.74023" lon="1.51132">
        <ele>1506</ele>
        <time>2026-06-28T05:44:50.000Z</time>
      </trkpt>
      <trkpt lat="42.74023" lon="1.51132">
        <ele>1506</ele>
        <time>2026-06-28T05:44:51.000Z</time>
      </trkpt>
      <trkpt lat="42.74023" lon="1.51132">
        <ele>1506</ele>
        <time>2026-06-28T05:44:52.000Z</time>
      </trkpt>
      <trkpt lat="42.74023" lon="1.51132">
        <ele>1506</ele>
        <time>2026-06-28T05:44:53.000Z</time>
      </trkpt>
      <trkpt lat="42.74023" lon="1.51133">
        <ele>1507</ele>
        <time>2026-06-28T05:44:54.000Z</time>
      </trkpt>
      <trkpt lat="42.74022" lon="1.51133">
        <ele>1507</ele>
        <time>2026-06-28T05:44:55.000Z</time>
      </trkpt>
      <trkpt lat="42.74021" lon="1.51135">
        <ele>1507</ele>
        <time>2026-06-28T05:44:56.000Z</time>
      </trkpt>
      <trkpt lat="42.7402" lon="1.51136">
        <ele>1507</ele>
        <time>2026-06-28T05:44:57.000Z</time>
      </trkpt>
      <trkpt lat="42.74019" lon="1.51137">
        <ele>1507</ele>
        <time>2026-06-28T05:44:58.000Z</time>
      </trkpt>
      <trkpt lat="42.74018" lon="1.5114">
        <ele>1508</ele>
        <time>2026-06-28T05:44:59.000Z</time>
      </trkpt>
      <trkpt lat="42.74017" lon="1.51141">
        <ele>1507</ele>
        <time>2026-06-28T05:45:00.000Z</time>
      </trkpt>
      <trkpt lat="42.74016" lon="1.51144">
        <ele>1508</ele>
        <time>2026-06-28T05:45:01.000Z</time>
      </trkpt>
      <trkpt lat="42.74016" lon="1.51145">
        <ele>1508</ele>
        <time>2026-06-28T05:45:02.000Z</time>
      </trkpt>
      <trkpt lat="42.74015" lon="1.51147">
        <ele>1508</ele>
        <time>2026-06-28T05:45:03.000Z</time>
      </trkpt>
      <trkpt lat="42.74014" lon="1.51148">
        <ele>1509</ele>
        <time>2026-06-28T05:45:04.000Z</time>
      </trkpt>
      <trkpt lat="42.74012" lon="1.5115">
        <ele>1509</ele>
        <time>2026-06-28T05:45:05.000Z</time>
      </trkpt>
      <trkpt lat="42.74011" lon="1.51151">
        <ele>1509</ele>
        <time>2026-06-28T05:45:06.000Z</time>
      </trkpt>
      <trkpt lat="42.74009" lon="1.51152">
        <ele>1509</ele>
        <time>2026-06-28T05:45:07.000Z</time>
      </trkpt>
      <trkpt lat="42.74009" lon="1.51153">
        <ele>1509</ele>
        <time>2026-06-28T05:45:08.000Z</time>
      </trkpt>
      <trkpt lat="42.74009" lon="1.51155">
        <ele>1510</ele>
        <time>2026-06-28T05:45:09.000Z</time>
      </trkpt>
      <trkpt lat="42.74008" lon="1.51157">
        <ele>1510</ele>
        <time>2026-06-28T05:45:10.000Z</time>
      </trkpt>
      <trkpt lat="42.74008" lon="1.51158">
        <ele>1510</ele>
        <time>2026-06-28T05:45:11.000Z</time>
      </trkpt>
      <trkpt lat="42.74007" lon="1.5116">
        <ele>1510</ele>
        <time>2026-06-28T05:45:12.000Z</time>
      </trkpt>
      <trkpt lat="42.74007" lon="1.51161">
        <ele>1511</ele>
        <time>2026-06-28T05:45:13.000Z</time>
      </trkpt>
      <trkpt lat="42.74005" lon="1.51162">
        <ele>1512</ele>
        <time>2026-06-28T05:45:14.000Z</time>
      </trkpt>
      <trkpt lat="42.74004" lon="1.51163">
        <ele>1513</ele>
        <time>2026-06-28T05:45:15.000Z</time>
      </trkpt>
      <trkpt lat="42.74004" lon="1.51164">
        <ele>1514</ele>
        <time>2026-06-28T05:45:16.000Z</time>
      </trkpt>
      <trkpt lat="42.74003" lon="1.51166">
        <ele>1514</ele>
        <time>2026-06-28T05:45:17.000Z</time>
      </trkpt>
      <trkpt lat="42.74003" lon="1.51167">
        <ele>1514</ele>
        <time>2026-06-28T05:45:18.000Z</time>
      </trkpt>
      <trkpt lat="42.74002" lon="1.51169">
        <ele>1514</ele>
        <time>2026-06-28T05:45:19.000Z</time>
      </trkpt>
      <trkpt lat="42.74002" lon="1.51171">
        <ele>1514</ele>
        <time>2026-06-28T05:45:20.000Z</time>
      </trkpt>
      <trkpt lat="42.74002" lon="1.51174">
        <ele>1513</ele>
        <time>2026-06-28T05:45:21.000Z</time>
      </trkpt>
      <trkpt lat="42.74002" lon="1.51176">
        <ele>1514</ele>
        <time>2026-06-28T05:45:22.000Z</time>
      </trkpt>
      <trkpt lat="42.74001" lon="1.51179">
        <ele>1515</ele>
        <time>2026-06-28T05:45:23.000Z</time>
      </trkpt>
      <trkpt lat="42.74001" lon="1.51182">
        <ele>1515</ele>
        <time>2026-06-28T05:45:24.000Z</time>
      </trkpt>
      <trkpt lat="42.74001" lon="1.51185">
        <ele>1515</ele>
        <time>2026-06-28T05:45:25.000Z</time>
      </trkpt>
      <trkpt lat="42.74001" lon="1.51187">
        <ele>1514</ele>
        <time>2026-06-28T05:45:26.000Z</time>
      </trkpt>
      <trkpt lat="42.74001" lon="1.5119">
        <ele>1514</ele>
        <time>2026-06-28T05:45:27.000Z</time>
      </trkpt>
      <trkpt lat="42.74001" lon="1.51191">
        <ele>1514</ele>
        <time>2026-06-28T05:45:28.000Z</time>
      </trkpt>
      <trkpt lat="42.74" lon="1.51193">
        <ele>1514</ele>
        <time>2026-06-28T05:45:29.000Z</time>
      </trkpt>
      <trkpt lat="42.74" lon="1.51194">
        <ele>1514</ele>
        <time>2026-06-28T05:45:30.000Z</time>
      </trkpt>
      <trkpt lat="42.73999" lon="1.51196">
        <ele>1514</ele>
        <time>2026-06-28T05:45:31.000Z</time>
      </trkpt>
      <trkpt lat="42.73999" lon="1.51197">
        <ele>1514</ele>
        <time>2026-06-28T05:45:32.000Z</time>
      </trkpt>
      <trkpt lat="42.73998" lon="1.51199">
        <ele>1514</ele>
        <time>2026-06-28T05:45:33.000Z</time>
      </trkpt>
      <trkpt lat="42.73997" lon="1.512">
        <ele>1514</ele>
        <time>2026-06-28T05:45:34.000Z</time>
      </trkpt>
      <trkpt lat="42.73996" lon="1.51202">
        <ele>1514</ele>
        <time>2026-06-28T05:45:35.000Z</time>
      </trkpt>
      <trkpt lat="42.73996" lon="1.51204">
        <ele>1514</ele>
        <time>2026-06-28T05:45:36.000Z</time>
      </trkpt>
      <trkpt lat="42.73996" lon="1.51206">
        <ele>1514</ele>
        <time>2026-06-28T05:45:37.000Z</time>
      </trkpt>
      <trkpt lat="42.73996" lon="1.51207">
        <ele>1514</ele>
        <time>2026-06-28T05:45:38.000Z</time>
      </trkpt>
      <trkpt lat="42.73996" lon="1.51209">
        <ele>1515</ele>
        <time>2026-06-28T05:45:39.000Z</time>
      </trkpt>
      <trkpt lat="42.73996" lon="1.51212">
        <ele>1516</ele>
        <time>2026-06-28T05:45:40.000Z</time>
      </trkpt>
      <trkpt lat="42.73995" lon="1.51213">
        <ele>1516</ele>
        <time>2026-06-28T05:45:41.000Z</time>
      </trkpt>
      <trkpt lat="42.73995" lon="1.51214">
        <ele>1515</ele>
        <time>2026-06-28T05:45:42.000Z</time>
      </trkpt>
      <trkpt lat="42.73996" lon="1.51216">
        <ele>1515</ele>
        <time>2026-06-28T05:45:43.000Z</time>
      </trkpt>
      <trkpt lat="42.73996" lon="1.51218">
        <ele>1515</ele>
        <time>2026-06-28T05:45:44.000Z</time>
      </trkpt>
      <trkpt lat="42.73996" lon="1.5122">
        <ele>1516</ele>
        <time>2026-06-28T05:45:45.000Z</time>
      </trkpt>
      <trkpt lat="42.73995" lon="1.51221">
        <ele>1516</ele>
        <time>2026-06-28T05:45:46.000Z</time>
      </trkpt>
      <trkpt lat="42.73995" lon="1.51223">
        <ele>1517</ele>
        <time>2026-06-28T05:45:47.000Z</time>
      </trkpt>
      <trkpt lat="42.73995" lon="1.51225">
        <ele>1518</ele>
        <time>2026-06-28T05:45:48.000Z</time>
      </trkpt>
      <trkpt lat="42.73995" lon="1.51226">
        <ele>1519</ele>
        <time>2026-06-28T05:45:49.000Z</time>
      </trkpt>
      <trkpt lat="42.73994" lon="1.51227">
        <ele>1518</ele>
        <time>2026-06-28T05:45:50.000Z</time>
      </trkpt>
      <trkpt lat="42.73994" lon="1.51228">
        <ele>1518</ele>
        <time>2026-06-28T05:45:51.000Z</time>
      </trkpt>
      <trkpt lat="42.73994" lon="1.5123">
        <ele>1517</ele>
        <time>2026-06-28T05:45:52.000Z</time>
      </trkpt>
      <trkpt lat="42.73994" lon="1.51231">
        <ele>1517</ele>
        <time>2026-06-28T05:45:53.000Z</time>
      </trkpt>
      <trkpt lat="42.73994" lon="1.51231">
        <ele>1518</ele>
        <time>2026-06-28T05:45:54.000Z</time>
      </trkpt>
      <trkpt lat="42.73993" lon="1.51232">
        <ele>1518</ele>
        <time>2026-06-28T05:45:55.000Z</time>
      </trkpt>
      <trkpt lat="42.73992" lon="1.51232">
        <ele>1517</ele>
        <time>2026-06-28T05:45:56.000Z</time>
      </trkpt>
      <trkpt lat="42.73992" lon="1.51233">
        <ele>1518</ele>
        <time>2026-06-28T05:45:57.000Z</time>
      </trkpt>
      <trkpt lat="42.73992" lon="1.51233">
        <ele>1518</ele>
        <time>2026-06-28T05:45:58.000Z</time>
      </trkpt>
      <trkpt lat="42.73991" lon="1.51234">
        <ele>1518</ele>
        <time>2026-06-28T05:45:59.000Z</time>
      </trkpt>
      <trkpt lat="42.73991" lon="1.51235">
        <ele>1518</ele>
        <time>2026-06-28T05:46:00.000Z</time>
      </trkpt>
      <trkpt lat="42.73992" lon="1.51237">
        <ele>1518</ele>
        <time>2026-06-28T05:46:01.000Z</time>
      </trkpt>
      <trkpt lat="42.73992" lon="1.51238">
        <ele>1518</ele>
        <time>2026-06-28T05:46:02.000Z</time>
      </trkpt>
      <trkpt lat="42.73992" lon="1.5124">
        <ele>1519</ele>
        <time>2026-06-28T05:46:03.000Z</time>
      </trkpt>
      <trkpt lat="42.73992" lon="1.51241">
        <ele>1519</ele>
        <time>2026-06-28T05:46:04.000Z</time>
      </trkpt>
      <trkpt lat="42.73992" lon="1.51244">
        <ele>1519</ele>
        <time>2026-06-28T05:46:05.000Z</time>
      </trkpt>
      <trkpt lat="42.73993" lon="1.51247">
        <ele>1521</ele>
        <time>2026-06-28T05:46:06.000Z</time>
      </trkpt>
      <trkpt lat="42.73993" lon="1.51249">
        <ele>1521</ele>
        <time>2026-06-28T05:46:07.000Z</time>
      </trkpt>
      <trkpt lat="42.73993" lon="1.51251">
        <ele>1521</ele>
        <time>2026-06-28T05:46:08.000Z</time>
      </trkpt>
      <trkpt lat="42.73993" lon="1.51253">
        <ele>1521</ele>
        <time>2026-06-28T05:46:09.000Z</time>
      </trkpt>
      <trkpt lat="42.73992" lon="1.51255">
        <ele>1521</ele>
        <time>2026-06-28T05:46:10.000Z</time>
      </trkpt>
      <trkpt lat="42.73991" lon="1.51256">
        <ele>1520</ele>
        <time>2026-06-28T05:46:11.000Z</time>
      </trkpt>
      <trkpt lat="42.73991" lon="1.51258">
        <ele>1520</ele>
        <time>2026-06-28T05:46:12.000Z</time>
      </trkpt>
      <trkpt lat="42.7399" lon="1.5126">
        <ele>1520</ele>
        <time>2026-06-28T05:46:13.000Z</time>
      </trkpt>
      <trkpt lat="42.7399" lon="1.51261">
        <ele>1519</ele>
        <time>2026-06-28T05:46:14.000Z</time>
      </trkpt>
      <trkpt lat="42.7399" lon="1.51262">
        <ele>1520</ele>
        <time>2026-06-28T05:46:15.000Z</time>
      </trkpt>
      <trkpt lat="42.73989" lon="1.51263">
        <ele>1520</ele>
        <time>2026-06-28T05:46:16.000Z</time>
      </trkpt>
      <trkpt lat="42.73989" lon="1.51264">
        <ele>1521</ele>
        <time>2026-06-28T05:46:17.000Z</time>
      </trkpt>
      <trkpt lat="42.73989" lon="1.51265">
        <ele>1522</ele>
        <time>2026-06-28T05:46:18.000Z</time>
      </trkpt>
      <trkpt lat="42.73989" lon="1.51266">
        <ele>1522</ele>
        <time>2026-06-28T05:46:19.000Z</time>
      </trkpt>
      <trkpt lat="42.73988" lon="1.51267">
        <ele>1522</ele>
        <time>2026-06-28T05:46:20.000Z</time>
      </trkpt>
      <trkpt lat="42.73988" lon="1.51268">
        <ele>1522</ele>
        <time>2026-06-28T05:46:21.000Z</time>
      </trkpt>
      <trkpt lat="42.73987" lon="1.51268">
        <ele>1521</ele>
        <time>2026-06-28T05:46:22.000Z</time>
      </trkpt>
      <trkpt lat="42.73987" lon="1.51269">
        <ele>1521</ele>
        <time>2026-06-28T05:46:23.000Z</time>
      </trkpt>
      <trkpt lat="42.73987" lon="1.51269">
        <ele>1521</ele>
        <time>2026-06-28T05:46:24.000Z</time>
      </trkpt>
      <trkpt lat="42.73986" lon="1.51276">
        <ele>1525</ele>
        <time>2026-06-28T05:46:38.000Z</time>
      </trkpt>
      <trkpt lat="42.73986" lon="1.51277">
        <ele>1525</ele>
        <time>2026-06-28T05:46:39.000Z</time>
      </trkpt>
      <trkpt lat="42.73986" lon="1.51278">
        <ele>1525</ele>
        <time>2026-06-28T05:46:40.000Z</time>
      </trkpt>
      <trkpt lat="42.73985" lon="1.5128">
        <ele>1524</ele>
        <time>2026-06-28T05:46:41.000Z</time>
      </trkpt>
      <trkpt lat="42.73985" lon="1.51281">
        <ele>1525</ele>
        <time>2026-06-28T05:46:42.000Z</time>
      </trkpt>
      <trkpt lat="42.73985" lon="1.51282">
        <ele>1525</ele>
        <time>2026-06-28T05:46:43.000Z</time>
      </trkpt>
      <trkpt lat="42.73985" lon="1.51283">
        <ele>1526</ele>
        <time>2026-06-28T05:46:44.000Z</time>
      </trkpt>
      <trkpt lat="42.73984" lon="1.51284">
        <ele>1526</ele>
        <time>2026-06-28T05:46:45.000Z</time>
      </trkpt>
      <trkpt lat="42.73984" lon="1.51285">
        <ele>1526</ele>
        <time>2026-06-28T05:46:46.000Z</time>
      </trkpt>
      <trkpt lat="42.73984" lon="1.51285">
        <ele>1526</ele>
        <time>2026-06-28T05:46:47.000Z</time>
      </trkpt>
      <trkpt lat="42.73984" lon="1.51285">
        <ele>1526</ele>
        <time>2026-06-28T05:46:48.000Z</time>
      </trkpt>
      <trkpt lat="42.73983" lon="1.51286">
        <ele>1527</ele>
        <time>2026-06-28T05:46:49.000Z</time>
      </trkpt>
      <trkpt lat="42.73983" lon="1.51287">
        <ele>1526</ele>
        <time>2026-06-28T05:46:50.000Z</time>
      </trkpt>
      <trkpt lat="42.73982" lon="1.51289">
        <ele>1526</ele>
        <time>2026-06-28T05:46:51.000Z</time>
      </trkpt>
      <trkpt lat="42.73982" lon="1.5129">
        <ele>1526</ele>
        <time>2026-06-28T05:46:52.000Z</time>
      </trkpt>
      <trkpt lat="42.73981" lon="1.51291">
        <ele>1527</ele>
        <time>2026-06-28T05:46:53.000Z</time>
      </trkpt>
      <trkpt lat="42.7398" lon="1.51292">
        <ele>1527</ele>
        <time>2026-06-28T05:46:54.000Z</time>
      </trkpt>
      <trkpt lat="42.73981" lon="1.51293">
        <ele>1528</ele>
        <time>2026-06-28T05:46:55.000Z</time>
      </trkpt>
      <trkpt lat="42.73978" lon="1.51296">
        <ele>1528</ele>
        <time>2026-06-28T05:47:09.000Z</time>
      </trkpt>
      <trkpt lat="42.73978" lon="1.51295">
        <ele>1528</ele>
        <time>2026-06-28T05:47:10.000Z</time>
      </trkpt>
      <trkpt lat="42.73977" lon="1.51295">
        <ele>1527</ele>
        <time>2026-06-28T05:47:11.000Z</time>
      </trkpt>
      <trkpt lat="42.73976" lon="1.51295">
        <ele>1528</ele>
        <time>2026-06-28T05:47:12.000Z</time>
      </trkpt>
      <trkpt lat="42.73975" lon="1.51295">
        <ele>1528</ele>
        <time>2026-06-28T05:47:13.000Z</time>
      </trkpt>
      <trkpt lat="42.73974" lon="1.51295">
        <ele>1527</ele>
        <time>2026-06-28T05:47:14.000Z</time>
      </trkpt>
      <trkpt lat="42.73974" lon="1.51296">
        <ele>1528</ele>
        <time>2026-06-28T05:47:15.000Z</time>
      </trkpt>
      <trkpt lat="42.73973" lon="1.51296">
        <ele>1528</ele>
        <time>2026-06-28T05:47:16.000Z</time>
      </trkpt>
      <trkpt lat="42.73973" lon="1.51297">
        <ele>1529</ele>
        <time>2026-06-28T05:47:17.000Z</time>
      </trkpt>
      <trkpt lat="42.73972" lon="1.51298">
        <ele>1529</ele>
        <time>2026-06-28T05:47:18.000Z</time>
      </trkpt>
      <trkpt lat="42.73971" lon="1.51298">
        <ele>1528</ele>
        <time>2026-06-28T05:47:19.000Z</time>
      </trkpt>
      <trkpt lat="42.73971" lon="1.51298">
        <ele>1529</ele>
        <time>2026-06-28T05:47:20.000Z</time>
      </trkpt>
      <trkpt lat="42.73971" lon="1.51299">
        <ele>1530</ele>
        <time>2026-06-28T05:47:21.000Z</time>
      </trkpt>
      <trkpt lat="42.7397" lon="1.513">
        <ele>1529</ele>
        <time>2026-06-28T05:47:22.000Z</time>
      </trkpt>
      <trkpt lat="42.73969" lon="1.51299">
        <ele>1530</ele>
        <time>2026-06-28T05:47:23.000Z</time>
      </trkpt>
      <trkpt lat="42.73968" lon="1.513">
        <ele>1530</ele>
        <time>2026-06-28T05:47:24.000Z</time>
      </trkpt>
      <trkpt lat="42.73968" lon="1.513">
        <ele>1530</ele>
        <time>2026-06-28T05:47:25.000Z</time>
      </trkpt>
      <trkpt lat="42.73968" lon="1.513">
        <ele>1531</ele>
        <time>2026-06-28T05:47:26.000Z</time>
      </trkpt>
      <trkpt lat="42.73967" lon="1.51299">
        <ele>1531</ele>
        <time>2026-06-28T05:47:27.000Z</time>
      </trkpt>
      <trkpt lat="42.73967" lon="1.51299">
        <ele>1531</ele>
        <time>2026-06-28T05:47:28.000Z</time>
      </trkpt>
      <trkpt lat="42.73967" lon="1.51299">
        <ele>1531</ele>
        <time>2026-06-28T05:47:29.000Z</time>
      </trkpt>
      <trkpt lat="42.73966" lon="1.51299">
        <ele>1531</ele>
        <time>2026-06-28T05:47:30.000Z</time>
      </trkpt>
      <trkpt lat="42.73966" lon="1.51299">
        <ele>1531</ele>
        <time>2026-06-28T05:47:31.000Z</time>
      </trkpt>
      <trkpt lat="42.73965" lon="1.51299">
        <ele>1531</ele>
        <time>2026-06-28T05:47:32.000Z</time>
      </trkpt>
      <trkpt lat="42.73964" lon="1.51299">
        <ele>1532</ele>
        <time>2026-06-28T05:47:33.000Z</time>
      </trkpt>
      <trkpt lat="42.73964" lon="1.513">
        <ele>1532</ele>
        <time>2026-06-28T05:47:34.000Z</time>
      </trkpt>
      <trkpt lat="42.73963" lon="1.51301">
        <ele>1532</ele>
        <time>2026-06-28T05:47:35.000Z</time>
      </trkpt>
      <trkpt lat="42.73963" lon="1.51302">
        <ele>1532</ele>
        <time>2026-06-28T05:47:36.000Z</time>
      </trkpt>
      <trkpt lat="42.73963" lon="1.51303">
        <ele>1532</ele>
        <time>2026-06-28T05:47:37.000Z</time>
      </trkpt>
      <trkpt lat="42.73963" lon="1.51304">
        <ele>1532</ele>
        <time>2026-06-28T05:47:38.000Z</time>
      </trkpt>
      <trkpt lat="42.73963" lon="1.51306">
        <ele>1532</ele>
        <time>2026-06-28T05:47:39.000Z</time>
      </trkpt>
      <trkpt lat="42.73962" lon="1.51307">
        <ele>1532</ele>
        <time>2026-06-28T05:47:40.000Z</time>
      </trkpt>
      <trkpt lat="42.73962" lon="1.51308">
        <ele>1532</ele>
        <time>2026-06-28T05:47:41.000Z</time>
      </trkpt>
      <trkpt lat="42.73961" lon="1.51309">
        <ele>1532</ele>
        <time>2026-06-28T05:47:42.000Z</time>
      </trkpt>
      <trkpt lat="42.73961" lon="1.5131">
        <ele>1532</ele>
        <time>2026-06-28T05:47:43.000Z</time>
      </trkpt>
      <trkpt lat="42.73961" lon="1.51311">
        <ele>1533</ele>
        <time>2026-06-28T05:47:44.000Z</time>
      </trkpt>
      <trkpt lat="42.7396" lon="1.51311">
        <ele>1533</ele>
        <time>2026-06-28T05:47:45.000Z</time>
      </trkpt>
      <trkpt lat="42.73959" lon="1.51311">
        <ele>1534</ele>
        <time>2026-06-28T05:47:46.000Z</time>
      </trkpt>
      <trkpt lat="42.73958" lon="1.51311">
        <ele>1534</ele>
        <time>2026-06-28T05:47:47.000Z</time>
      </trkpt>
      <trkpt lat="42.73957" lon="1.51311">
        <ele>1534</ele>
        <time>2026-06-28T05:47:48.000Z</time>
      </trkpt>
      <trkpt lat="42.73956" lon="1.51311">
        <ele>1535</ele>
        <time>2026-06-28T05:47:49.000Z</time>
      </trkpt>
      <trkpt lat="42.73955" lon="1.51309">
        <ele>1535</ele>
        <time>2026-06-28T05:47:50.000Z</time>
      </trkpt>
      <trkpt lat="42.73954" lon="1.51308">
        <ele>1535</ele>
        <time>2026-06-28T05:47:51.000Z</time>
      </trkpt>
      <trkpt lat="42.73953" lon="1.51307">
        <ele>1536</ele>
        <time>2026-06-28T05:47:52.000Z</time>
      </trkpt>
      <trkpt lat="42.73953" lon="1.51307">
        <ele>1535</ele>
        <time>2026-06-28T05:47:53.000Z</time>
      </trkpt>
      <trkpt lat="42.73953" lon="1.51306">
        <ele>1535</ele>
        <time>2026-06-28T05:47:54.000Z</time>
      </trkpt>
      <trkpt lat="42.73953" lon="1.51305">
        <ele>1536</ele>
        <time>2026-06-28T05:47:55.000Z</time>
      </trkpt>
      <trkpt lat="42.73952" lon="1.51303">
        <ele>1536</ele>
        <time>2026-06-28T05:47:56.000Z</time>
      </trkpt>
      <trkpt lat="42.73951" lon="1.513">
        <ele>1537</ele>
        <time>2026-06-28T05:47:57.000Z</time>
      </trkpt>
      <trkpt lat="42.73951" lon="1.51298">
        <ele>1537</ele>
        <time>2026-06-28T05:47:58.000Z</time>
      </trkpt>
      <trkpt lat="42.73951" lon="1.51296">
        <ele>1537</ele>
        <time>2026-06-28T05:47:59.000Z</time>
      </trkpt>
      <trkpt lat="42.73951" lon="1.51294">
        <ele>1537</ele>
        <time>2026-06-28T05:48:00.000Z</time>
      </trkpt>
      <trkpt lat="42.7395" lon="1.51292">
        <ele>1537</ele>
        <time>2026-06-28T05:48:01.000Z</time>
      </trkpt>
      <trkpt lat="42.7395" lon="1.51291">
        <ele>1537</ele>
        <time>2026-06-28T05:48:02.000Z</time>
      </trkpt>
      <trkpt lat="42.73949" lon="1.5129">
        <ele>1537</ele>
        <time>2026-06-28T05:48:03.000Z</time>
      </trkpt>
      <trkpt lat="42.73949" lon="1.51289">
        <ele>1538</ele>
        <time>2026-06-28T05:48:04.000Z</time>
      </trkpt>
      <trkpt lat="42.73949" lon="1.51287">
        <ele>1538</ele>
        <time>2026-06-28T05:48:05.000Z</time>
      </trkpt>
      <trkpt lat="42.73948" lon="1.51286">
        <ele>1539</ele>
        <time>2026-06-28T05:48:06.000Z</time>
      </trkpt>
      <trkpt lat="42.73948" lon="1.51285">
        <ele>1539</ele>
        <time>2026-06-28T05:48:07.000Z</time>
      </trkpt>
      <trkpt lat="42.73948" lon="1.51284">
        <ele>1540</ele>
        <time>2026-06-28T05:48:08.000Z</time>
      </trkpt>
      <trkpt lat="42.73947" lon="1.51283">
        <ele>1539</ele>
        <time>2026-06-28T05:48:09.000Z</time>
      </trkpt>
      <trkpt lat="42.73947" lon="1.51283">
        <ele>1540</ele>
        <time>2026-06-28T05:48:10.000Z</time>
      </trkpt>
      <trkpt lat="42.73947" lon="1.51283">
        <ele>1540</ele>
        <time>2026-06-28T05:48:11.000Z</time>
      </trkpt>
      <trkpt lat="42.73947" lon="1.51283">
        <ele>1540</ele>
        <time>2026-06-28T05:48:12.000Z</time>
      </trkpt>
      <trkpt lat="42.73947" lon="1.51283">
        <ele>1540</ele>
        <time>2026-06-28T05:48:13.000Z</time>
      </trkpt>
      <trkpt lat="42.73947" lon="1.51284">
        <ele>1540</ele>
        <time>2026-06-28T05:48:14.000Z</time>
      </trkpt>
      <trkpt lat="42.73947" lon="1.51285">
        <ele>1540</ele>
        <time>2026-06-28T05:48:15.000Z</time>
      </trkpt>
      <trkpt lat="42.73947" lon="1.51285">
        <ele>1540</ele>
        <time>2026-06-28T05:48:16.000Z</time>
      </trkpt>
      <trkpt lat="42.73947" lon="1.51285">
        <ele>1540</ele>
        <time>2026-06-28T05:48:17.000Z</time>
      </trkpt>
      <trkpt lat="42.73947" lon="1.51286">
        <ele>1540</ele>
        <time>2026-06-28T05:48:18.000Z</time>
      </trkpt>
      <trkpt lat="42.73947" lon="1.51288">
        <ele>1540</ele>
        <time>2026-06-28T05:48:19.000Z</time>
      </trkpt>
      <trkpt lat="42.73946" lon="1.5129">
        <ele>1541</ele>
        <time>2026-06-28T05:48:20.000Z</time>
      </trkpt>
      <trkpt lat="42.73946" lon="1.51292">
        <ele>1541</ele>
        <time>2026-06-28T05:48:21.000Z</time>
      </trkpt>
      <trkpt lat="42.73945" lon="1.51294">
        <ele>1541</ele>
        <time>2026-06-28T05:48:22.000Z</time>
      </trkpt>
      <trkpt lat="42.73944" lon="1.51296">
        <ele>1541</ele>
        <time>2026-06-28T05:48:23.000Z</time>
      </trkpt>
      <trkpt lat="42.73944" lon="1.51298">
        <ele>1542</ele>
        <time>2026-06-28T05:48:24.000Z</time>
      </trkpt>
      <trkpt lat="42.73944" lon="1.51301">
        <ele>1542</ele>
        <time>2026-06-28T05:48:25.000Z</time>
      </trkpt>
      <trkpt lat="42.73944" lon="1.51303">
        <ele>1541</ele>
        <time>2026-06-28T05:48:26.000Z</time>
      </trkpt>
      <trkpt lat="42.73944" lon="1.51306">
        <ele>1541</ele>
        <time>2026-06-28T05:48:27.000Z</time>
      </trkpt>
      <trkpt lat="42.73944" lon="1.51308">
        <ele>1541</ele>
        <time>2026-06-28T05:48:28.000Z</time>
      </trkpt>
      <trkpt lat="42.73944" lon="1.5131">
        <ele>1541</ele>
        <time>2026-06-28T05:48:29.000Z</time>
      </trkpt>
      <trkpt lat="42.73944" lon="1.51312">
        <ele>1540</ele>
        <time>2026-06-28T05:48:30.000Z</time>
      </trkpt>
      <trkpt lat="42.73944" lon="1.51314">
        <ele>1541</ele>
        <time>2026-06-28T05:48:31.000Z</time>
      </trkpt>
      <trkpt lat="42.73945" lon="1.51317">
        <ele>1541</ele>
        <time>2026-06-28T05:48:32.000Z</time>
      </trkpt>
      <trkpt lat="42.73945" lon="1.51318">
        <ele>1541</ele>
        <time>2026-06-28T05:48:33.000Z</time>
      </trkpt>
      <trkpt lat="42.73944" lon="1.51319">
        <ele>1541</ele>
        <time>2026-06-28T05:48:34.000Z</time>
      </trkpt>
      <trkpt lat="42.73944" lon="1.51321">
        <ele>1541</ele>
        <time>2026-06-28T05:48:35.000Z</time>
      </trkpt>
      <trkpt lat="42.73944" lon="1.51322">
        <ele>1541</ele>
        <time>2026-06-28T05:48:36.000Z</time>
      </trkpt>
      <trkpt lat="42.73944" lon="1.51324">
        <ele>1541</ele>
        <time>2026-06-28T05:48:37.000Z</time>
      </trkpt>
      <trkpt lat="42.73945" lon="1.51325">
        <ele>1540</ele>
        <time>2026-06-28T05:48:38.000Z</time>
      </trkpt>
      <trkpt lat="42.73945" lon="1.51325">
        <ele>1540</ele>
        <time>2026-06-28T05:48:39.000Z</time>
      </trkpt>
      <trkpt lat="42.73945" lon="1.51324">
        <ele>1541</ele>
        <time>2026-06-28T05:48:40.000Z</time>
      </trkpt>
      <trkpt lat="42.73946" lon="1.51323">
        <ele>1541</ele>
        <time>2026-06-28T05:48:41.000Z</time>
      </trkpt>
      <trkpt lat="42.73945" lon="1.51323">
        <ele>1541</ele>
        <time>2026-06-28T05:48:42.000Z</time>
      </trkpt>
      <trkpt lat="42.73945" lon="1.51323">
        <ele>1542</ele>
        <time>2026-06-28T05:48:43.000Z</time>
      </trkpt>
      <trkpt lat="42.73945" lon="1.51323">
        <ele>1542</ele>
        <time>2026-06-28T05:48:44.000Z</time>
      </trkpt>
      <trkpt lat="42.73945" lon="1.51325">
        <ele>1541</ele>
        <time>2026-06-28T05:49:02.000Z</time>
      </trkpt>
      <trkpt lat="42.73945" lon="1.51326">
        <ele>1541</ele>
        <time>2026-06-28T05:49:03.000Z</time>
      </trkpt>
      <trkpt lat="42.73946" lon="1.51326">
        <ele>1541</ele>
        <time>2026-06-28T05:49:04.000Z</time>
      </trkpt>
      <trkpt lat="42.73947" lon="1.51326">
        <ele>1541</ele>
        <time>2026-06-28T05:49:05.000Z</time>
      </trkpt>
      <trkpt lat="42.73947" lon="1.51326">
        <ele>1541</ele>
        <time>2026-06-28T05:49:06.000Z</time>
      </trkpt>
      <trkpt lat="42.73947" lon="1.51326">
        <ele>1541</ele>
        <time>2026-06-28T05:49:07.000Z</time>
      </trkpt>
      <trkpt lat="42.73948" lon="1.51325">
        <ele>1541</ele>
        <time>2026-06-28T05:49:08.000Z</time>
      </trkpt>
      <trkpt lat="42.73948" lon="1.51324">
        <ele>1541</ele>
        <time>2026-06-28T05:49:09.000Z</time>
      </trkpt>
      <trkpt lat="42.73948" lon="1.51324">
        <ele>1541</ele>
        <time>2026-06-28T05:49:10.000Z</time>
      </trkpt>
      <trkpt lat="42.73947" lon="1.51325">
        <ele>1541</ele>
        <time>2026-06-28T05:49:11.000Z</time>
      </trkpt>
      <trkpt lat="42.73946" lon="1.51325">
        <ele>1541</ele>
        <time>2026-06-28T05:49:12.000Z</time>
      </trkpt>
      <trkpt lat="42.73946" lon="1.51326">
        <ele>1541</ele>
        <time>2026-06-28T05:49:13.000Z</time>
      </trkpt>
      <trkpt lat="42.73946" lon="1.51326">
        <ele>1540</ele>
        <time>2026-06-28T05:49:14.000Z</time>
      </trkpt>
      <trkpt lat="42.73946" lon="1.51326">
        <ele>1540</ele>
        <time>2026-06-28T05:49:15.000Z</time>
      </trkpt>
      <trkpt lat="42.73945" lon="1.51325">
        <ele>1540</ele>
        <time>2026-06-28T05:49:16.000Z</time>
      </trkpt>
      <trkpt lat="42.73945" lon="1.51326">
        <ele>1540</ele>
        <time>2026-06-28T05:49:17.000Z</time>
      </trkpt>
      <trkpt lat="42.73945" lon="1.51325">
        <ele>1540</ele>
        <time>2026-06-28T05:49:55.000Z</time>
      </trkpt>
      <trkpt lat="42.73945" lon="1.51325">
        <ele>1540</ele>
        <time>2026-06-28T05:49:56.000Z</time>
      </trkpt>
      <trkpt lat="42.73946" lon="1.51325">
        <ele>1540</ele>
        <time>2026-06-28T05:49:57.000Z</time>
      </trkpt>
      <trkpt lat="42.73945" lon="1.51324">
        <ele>1540</ele>
        <time>2026-06-28T05:49:58.000Z</time>
      </trkpt>
      <trkpt lat="42.73945" lon="1.51323">
        <ele>1539</ele>
        <time>2026-06-28T05:49:59.000Z</time>
      </trkpt>
      <trkpt lat="42.73945" lon="1.51323">
        <ele>1540</ele>
        <time>2026-06-28T05:50:00.000Z</time>
      </trkpt>
      <trkpt lat="42.73945" lon="1.51322">
        <ele>1539</ele>
        <time>2026-06-28T05:50:01.000Z</time>
      </trkpt>
      <trkpt lat="42.73946" lon="1.51326">
        <ele>1536</ele>
        <time>2026-06-28T05:50:23.000Z</time>
      </trkpt>
      <trkpt lat="42.73945" lon="1.51326">
        <ele>1536</ele>
        <time>2026-06-28T05:50:24.000Z</time>
      </trkpt>
      <trkpt lat="42.73945" lon="1.51326">
        <ele>1536</ele>
        <time>2026-06-28T05:50:25.000Z</time>
      </trkpt>
      <trkpt lat="42.73946" lon="1.51325">
        <ele>1536</ele>
        <time>2026-06-28T05:50:26.000Z</time>
      </trkpt>
      <trkpt lat="42.73946" lon="1.51325">
        <ele>1536</ele>
        <time>2026-06-28T05:50:27.000Z</time>
      </trkpt>
      <trkpt lat="42.73946" lon="1.51325">
        <ele>1536</ele>
        <time>2026-06-28T05:50:28.000Z</time>
      </trkpt>
      <trkpt lat="42.73946" lon="1.51326">
        <ele>1537</ele>
        <time>2026-06-28T05:50:43.000Z</time>
      </trkpt>
      <trkpt lat="42.73945" lon="1.51326">
        <ele>1538</ele>
        <time>2026-06-28T05:50:44.000Z</time>
      </trkpt>
      <trkpt lat="42.73945" lon="1.51325">
        <ele>1539</ele>
        <time>2026-06-28T05:50:45.000Z</time>
      </trkpt>
      <trkpt lat="42.73945" lon="1.51325">
        <ele>1540</ele>
        <time>2026-06-28T05:50:46.000Z</time>
      </trkpt>
      <trkpt lat="42.73945" lon="1.51325">
        <ele>1541</ele>
        <time>2026-06-28T05:51:03.000Z</time>
      </trkpt>
      <trkpt lat="42.73945" lon="1.51325">
        <ele>1541</ele>
        <time>2026-06-28T05:51:04.000Z</time>
      </trkpt>
      <trkpt lat="42.73946" lon="1.51323">
        <ele>1539</ele>
        <time>2026-06-28T05:51:05.000Z</time>
      </trkpt>
      <trkpt lat="42.73947" lon="1.51322">
        <ele>1539</ele>
        <time>2026-06-28T05:51:06.000Z</time>
      </trkpt>
      <trkpt lat="42.73946" lon="1.51321">
        <ele>1538</ele>
        <time>2026-06-28T05:51:07.000Z</time>
      </trkpt>
      <trkpt lat="42.73946" lon="1.51327">
        <ele>1539</ele>
        <time>2026-06-28T05:51:41.000Z</time>
      </trkpt>
      <trkpt lat="42.73946" lon="1.51327">
        <ele>1539</ele>
        <time>2026-06-28T05:51:42.000Z</time>
      </trkpt>
      <trkpt lat="42.73946" lon="1.51327">
        <ele>1538</ele>
        <time>2026-06-28T05:51:43.000Z</time>
      </trkpt>
      <trkpt lat="42.73946" lon="1.51327">
        <ele>1538</ele>
        <time>2026-06-28T05:51:44.000Z</time>
      </trkpt>
      <trkpt lat="42.73947" lon="1.51327">
        <ele>1538</ele>
        <time>2026-06-28T05:51:45.000Z</time>
      </trkpt>
      <trkpt lat="42.73948" lon="1.51328">
        <ele>1538</ele>
        <time>2026-06-28T05:51:46.000Z</time>
      </trkpt>
      <trkpt lat="42.73948" lon="1.51328">
        <ele>1539</ele>
        <time>2026-06-28T05:51:47.000Z</time>
      </trkpt>
      <trkpt lat="42.73949" lon="1.51327">
        <ele>1538</ele>
        <time>2026-06-28T05:51:48.000Z</time>
      </trkpt>
      <trkpt lat="42.73952" lon="1.51322">
        <ele>1541</ele>
        <time>2026-06-28T05:52:23.000Z</time>
      </trkpt>
      <trkpt lat="42.73952" lon="1.51322">
        <ele>1542</ele>
        <time>2026-06-28T05:52:24.000Z</time>
      </trkpt>
      <trkpt lat="42.73952" lon="1.51322">
        <ele>1543</ele>
        <time>2026-06-28T05:52:25.000Z</time>
      </trkpt>
      <trkpt lat="42.73953" lon="1.51322">
        <ele>1543</ele>
        <time>2026-06-28T05:52:26.000Z</time>
      </trkpt>
      <trkpt lat="42.73952" lon="1.51325">
        <ele>1545</ele>
        <time>2026-06-28T05:52:40.000Z</time>
      </trkpt>
      <trkpt lat="42.73951" lon="1.51325">
        <ele>1545</ele>
        <time>2026-06-28T05:52:41.000Z</time>
      </trkpt>
      <trkpt lat="42.7395" lon="1.51325">
        <ele>1546</ele>
        <time>2026-06-28T05:52:42.000Z</time>
      </trkpt>
      <trkpt lat="42.7395" lon="1.51325">
        <ele>1545</ele>
        <time>2026-06-28T05:52:43.000Z</time>
      </trkpt>
      <trkpt lat="42.7395" lon="1.51326">
        <ele>1546</ele>
        <time>2026-06-28T05:52:44.000Z</time>
      </trkpt>
      <trkpt lat="42.7395" lon="1.51326">
        <ele>1545</ele>
        <time>2026-06-28T05:52:45.000Z</time>
      </trkpt>
      <trkpt lat="42.7395" lon="1.51326">
        <ele>1545</ele>
        <time>2026-06-28T05:52:46.000Z</time>
      </trkpt>
      <trkpt lat="42.7395" lon="1.51325">
        <ele>1545</ele>
        <time>2026-06-28T05:52:47.000Z</time>
      </trkpt>
      <trkpt lat="42.7395" lon="1.51326">
        <ele>1544</ele>
        <time>2026-06-28T05:52:48.000Z</time>
      </trkpt>
      <trkpt lat="42.73949" lon="1.51325">
        <ele>1544</ele>
        <time>2026-06-28T05:52:49.000Z</time>
      </trkpt>
      <trkpt lat="42.73949" lon="1.51325">
        <ele>1546</ele>
        <time>2026-06-28T05:52:50.000Z</time>
      </trkpt>
      <trkpt lat="42.73948" lon="1.51324">
        <ele>1546</ele>
        <time>2026-06-28T05:52:51.000Z</time>
      </trkpt>
      <trkpt lat="42.73947" lon="1.51323">
        <ele>1545</ele>
        <time>2026-06-28T05:52:52.000Z</time>
      </trkpt>
      <trkpt lat="42.73946" lon="1.51323">
        <ele>1545</ele>
        <time>2026-06-28T05:52:53.000Z</time>
      </trkpt>
      <trkpt lat="42.73946" lon="1.51324">
        <ele>1544</ele>
        <time>2026-06-28T05:52:54.000Z</time>
      </trkpt>
      <trkpt lat="42.73945" lon="1.51324">
        <ele>1543</ele>
        <time>2026-06-28T05:52:55.000Z</time>
      </trkpt>
      <trkpt lat="42.73944" lon="1.51325">
        <ele>1542</ele>
        <time>2026-06-28T05:52:56.000Z</time>
      </trkpt>
      <trkpt lat="42.73943" lon="1.51324">
        <ele>1542</ele>
        <time>2026-06-28T05:52:57.000Z</time>
      </trkpt>
      <trkpt lat="42.73943" lon="1.51325">
        <ele>1541</ele>
        <time>2026-06-28T05:52:58.000Z</time>
      </trkpt>
      <trkpt lat="42.73943" lon="1.51326">
        <ele>1541</ele>
        <time>2026-06-28T05:52:59.000Z</time>
      </trkpt>
      <trkpt lat="42.73943" lon="1.51327">
        <ele>1542</ele>
        <time>2026-06-28T05:53:00.000Z</time>
      </trkpt>
      <trkpt lat="42.73943" lon="1.51327">
        <ele>1543</ele>
        <time>2026-06-28T05:53:01.000Z</time>
      </trkpt>
      <trkpt lat="42.73943" lon="1.51328">
        <ele>1542</ele>
        <time>2026-06-28T05:53:02.000Z</time>
      </trkpt>
      <trkpt lat="42.73942" lon="1.51328">
        <ele>1542</ele>
        <time>2026-06-28T05:53:03.000Z</time>
      </trkpt>
      <trkpt lat="42.73943" lon="1.51328">
        <ele>1542</ele>
        <time>2026-06-28T05:53:04.000Z</time>
      </trkpt>
      <trkpt lat="42.73943" lon="1.51328">
        <ele>1542</ele>
        <time>2026-06-28T05:53:05.000Z</time>
      </trkpt>
      <trkpt lat="42.73942" lon="1.51328">
        <ele>1541</ele>
        <time>2026-06-28T05:53:06.000Z</time>
      </trkpt>
      <trkpt lat="42.73942" lon="1.51328">
        <ele>1542</ele>
        <time>2026-06-28T05:53:07.000Z</time>
      </trkpt>
      <trkpt lat="42.73941" lon="1.51327">
        <ele>1542</ele>
        <time>2026-06-28T05:53:08.000Z</time>
      </trkpt>
      <trkpt lat="42.73941" lon="1.51327">
        <ele>1543</ele>
        <time>2026-06-28T05:53:09.000Z</time>
      </trkpt>
      <trkpt lat="42.73941" lon="1.51326">
        <ele>1543</ele>
        <time>2026-06-28T05:53:10.000Z</time>
      </trkpt>
      <trkpt lat="42.73942" lon="1.51326">
        <ele>1542</ele>
        <time>2026-06-28T05:53:11.000Z</time>
      </trkpt>
      <trkpt lat="42.73942" lon="1.51327">
        <ele>1541</ele>
        <time>2026-06-28T05:53:12.000Z</time>
      </trkpt>
      <trkpt lat="42.73942" lon="1.51327">
        <ele>1541</ele>
        <time>2026-06-28T05:53:13.000Z</time>
      </trkpt>
      <trkpt lat="42.73942" lon="1.51327">
        <ele>1541</ele>
        <time>2026-06-28T05:53:14.000Z</time>
      </trkpt>
      <trkpt lat="42.73943" lon="1.51326">
        <ele>1541</ele>
        <time>2026-06-28T05:53:15.000Z</time>
      </trkpt>
      <trkpt lat="42.73943" lon="1.51326">
        <ele>1540</ele>
        <time>2026-06-28T05:53:16.000Z</time>
      </trkpt>
      <trkpt lat="42.73944" lon="1.51325">
        <ele>1540</ele>
        <time>2026-06-28T05:53:17.000Z</time>
      </trkpt>
      <trkpt lat="42.73944" lon="1.51325">
        <ele>1540</ele>
        <time>2026-06-28T05:53:18.000Z</time>
      </trkpt>
      <trkpt lat="42.73944" lon="1.51325">
        <ele>1540</ele>
        <time>2026-06-28T05:53:19.000Z</time>
      </trkpt>
      <trkpt lat="42.73945" lon="1.51324">
        <ele>1540</ele>
        <time>2026-06-28T05:53:20.000Z</time>
      </trkpt>
      <trkpt lat="42.73945" lon="1.51322">
        <ele>1540</ele>
        <time>2026-06-28T05:53:21.000Z</time>
      </trkpt>
      <trkpt lat="42.73945" lon="1.51323">
        <ele>1539</ele>
        <time>2026-06-28T05:53:22.000Z</time>
      </trkpt>
      <trkpt lat="42.73946" lon="1.51323">
        <ele>1538</ele>
        <time>2026-06-28T05:53:23.000Z</time>
      </trkpt>
      <trkpt lat="42.73946" lon="1.51323">
        <ele>1538</ele>
        <time>2026-06-28T05:53:24.000Z</time>
      </trkpt>
      <trkpt lat="42.73945" lon="1.51323">
        <ele>1537</ele>
        <time>2026-06-28T05:53:25.000Z</time>
      </trkpt>
      <trkpt lat="42.73944" lon="1.51323">
        <ele>1536</ele>
        <time>2026-06-28T05:53:26.000Z</time>
      </trkpt>
      <trkpt lat="42.73944" lon="1.51323">
        <ele>1536</ele>
        <time>2026-06-28T05:53:27.000Z</time>
      </trkpt>
      <trkpt lat="42.73944" lon="1.51324">
        <ele>1536</ele>
        <time>2026-06-28T05:53:28.000Z</time>
      </trkpt>
      <trkpt lat="42.73944" lon="1.51324">
        <ele>1537</ele>
        <time>2026-06-28T05:53:29.000Z</time>
      </trkpt>
      <trkpt lat="42.73945" lon="1.51326">
        <ele>1536</ele>
        <time>2026-06-28T05:53:30.000Z</time>
      </trkpt>
      <trkpt lat="42.73946" lon="1.51326">
        <ele>1536</ele>
        <time>2026-06-28T05:53:31.000Z</time>
      </trkpt>
      <trkpt lat="42.73946" lon="1.51326">
        <ele>1536</ele>
        <time>2026-06-28T05:53:32.000Z</time>
      </trkpt>
      <trkpt lat="42.73946" lon="1.51326">
        <ele>1536</ele>
        <time>2026-06-28T05:53:33.000Z</time>
      </trkpt>
      <trkpt lat="42.73948" lon="1.51327">
        <ele>1537</ele>
        <time>2026-06-28T05:53:57.000Z</time>
      </trkpt>
      <trkpt lat="42.73948" lon="1.51326">
        <ele>1537</ele>
        <time>2026-06-28T05:53:58.000Z</time>
      </trkpt>
      <trkpt lat="42.73947" lon="1.51328">
        <ele>1536</ele>
        <time>2026-06-28T05:53:59.000Z</time>
      </trkpt>
      <trkpt lat="42.73946" lon="1.51327">
        <ele>1537</ele>
        <time>2026-06-28T05:54:00.000Z</time>
      </trkpt>
      <trkpt lat="42.73946" lon="1.51328">
        <ele>1537</ele>
        <time>2026-06-28T05:54:01.000Z</time>
      </trkpt>
      <trkpt lat="42.73948" lon="1.51325">
        <ele>1539</ele>
        <time>2026-06-28T05:55:37.000Z</time>
      </trkpt>
      <trkpt lat="42.73948" lon="1.51326">
        <ele>1539</ele>
        <time>2026-06-28T05:55:38.000Z</time>
      </trkpt>
      <trkpt lat="42.73948" lon="1.51326">
        <ele>1540</ele>
        <time>2026-06-28T05:55:39.000Z</time>
      </trkpt>
      <trkpt lat="42.73946" lon="1.51327">
        <ele>1541</ele>
        <time>2026-06-28T05:56:03.000Z</time>
      </trkpt>
      <trkpt lat="42.73946" lon="1.51326">
        <ele>1541</ele>
        <time>2026-06-28T05:56:04.000Z</time>
      </trkpt>
      <trkpt lat="42.73945" lon="1.51326">
        <ele>1542</ele>
        <time>2026-06-28T05:56:05.000Z</time>
      </trkpt>
      <trkpt lat="42.73944" lon="1.51326">
        <ele>1541</ele>
        <time>2026-06-28T05:56:06.000Z</time>
      </trkpt>
      <trkpt lat="42.73944" lon="1.51325">
        <ele>1542</ele>
        <time>2026-06-28T05:56:07.000Z</time>
      </trkpt>
      <trkpt lat="42.73944" lon="1.51325">
        <ele>1543</ele>
        <time>2026-06-28T05:56:08.000Z</time>
      </trkpt>
      <trkpt lat="42.73944" lon="1.51326">
        <ele>1542</ele>
        <time>2026-06-28T05:56:09.000Z</time>
      </trkpt>
      <trkpt lat="42.73943" lon="1.51327">
        <ele>1543</ele>
        <time>2026-06-28T05:56:10.000Z</time>
      </trkpt>
      <trkpt lat="42.73943" lon="1.51328">
        <ele>1543</ele>
        <time>2026-06-28T05:56:11.000Z</time>
      </trkpt>
      <trkpt lat="42.73942" lon="1.51329">
        <ele>1543</ele>
        <time>2026-06-28T05:56:12.000Z</time>
      </trkpt>
      <trkpt lat="42.73941" lon="1.5133">
        <ele>1543</ele>
        <time>2026-06-28T05:56:13.000Z</time>
      </trkpt>
      <trkpt lat="42.73941" lon="1.51332">
        <ele>1542</ele>
        <time>2026-06-28T05:56:14.000Z</time>
      </trkpt>
      <trkpt lat="42.73941" lon="1.51333">
        <ele>1543</ele>
        <time>2026-06-28T05:56:15.000Z</time>
      </trkpt>
      <trkpt lat="42.73941" lon="1.51334">
        <ele>1543</ele>
        <time>2026-06-28T05:56:16.000Z</time>
      </trkpt>
      <trkpt lat="42.73941" lon="1.51334">
        <ele>1543</ele>
        <time>2026-06-28T05:56:17.000Z</time>
      </trkpt>
      <trkpt lat="42.73941" lon="1.51334">
        <ele>1543</ele>
        <time>2026-06-28T05:56:18.000Z</time>
      </trkpt>
      <trkpt lat="42.7394" lon="1.51334">
        <ele>1543</ele>
        <time>2026-06-28T05:56:19.000Z</time>
      </trkpt>
      <trkpt lat="42.73939" lon="1.51336">
        <ele>1544</ele>
        <time>2026-06-28T05:56:20.000Z</time>
      </trkpt>
      <trkpt lat="42.73939" lon="1.51338">
        <ele>1544</ele>
        <time>2026-06-28T05:56:21.000Z</time>
      </trkpt>
      <trkpt lat="42.73939" lon="1.51341">
        <ele>1544</ele>
        <time>2026-06-28T05:56:22.000Z</time>
      </trkpt>
      <trkpt lat="42.73939" lon="1.51342">
        <ele>1544</ele>
        <time>2026-06-28T05:56:23.000Z</time>
      </trkpt>
      <trkpt lat="42.7394" lon="1.51345">
        <ele>1544</ele>
        <time>2026-06-28T05:56:24.000Z</time>
      </trkpt>
      <trkpt lat="42.73941" lon="1.51349">
        <ele>1544</ele>
        <time>2026-06-28T05:56:25.000Z</time>
      </trkpt>
      <trkpt lat="42.73941" lon="1.51353">
        <ele>1543</ele>
        <time>2026-06-28T05:56:26.000Z</time>
      </trkpt>
      <trkpt lat="42.73942" lon="1.51356">
        <ele>1542</ele>
        <time>2026-06-28T05:56:27.000Z</time>
      </trkpt>
      <trkpt lat="42.73944" lon="1.51361">
        <ele>1541</ele>
        <time>2026-06-28T05:56:28.000Z</time>
      </trkpt>
      <trkpt lat="42.73948" lon="1.51366">
        <ele>1541</ele>
        <time>2026-06-28T05:56:29.000Z</time>
      </trkpt>
      <trkpt lat="42.73951" lon="1.51371">
        <ele>1540</ele>
        <time>2026-06-28T05:56:30.000Z</time>
      </trkpt>
      <trkpt lat="42.73953" lon="1.51375">
        <ele>1539</ele>
        <time>2026-06-28T05:56:31.000Z</time>
      </trkpt>
      <trkpt lat="42.73956" lon="1.5138">
        <ele>1538</ele>
        <time>2026-06-28T05:56:32.000Z</time>
      </trkpt>
      <trkpt lat="42.73958" lon="1.51383">
        <ele>1538</ele>
        <time>2026-06-28T05:56:33.000Z</time>
      </trkpt>
      <trkpt lat="42.73961" lon="1.51387">
        <ele>1537</ele>
        <time>2026-06-28T05:56:34.000Z</time>
      </trkpt>
      <trkpt lat="42.73963" lon="1.5139">
        <ele>1537</ele>
        <time>2026-06-28T05:56:35.000Z</time>
      </trkpt>
      <trkpt lat="42.73965" lon="1.51393">
        <ele>1537</ele>
        <time>2026-06-28T05:56:36.000Z</time>
      </trkpt>
      <trkpt lat="42.73968" lon="1.51396">
        <ele>1536</ele>
        <time>2026-06-28T05:56:37.000Z</time>
      </trkpt>
      <trkpt lat="42.73969" lon="1.51399">
        <ele>1536</ele>
        <time>2026-06-28T05:56:38.000Z</time>
      </trkpt>
      <trkpt lat="42.73971" lon="1.51402">
        <ele>1536</ele>
        <time>2026-06-28T05:56:39.000Z</time>
      </trkpt>
      <trkpt lat="42.73973" lon="1.51405">
        <ele>1536</ele>
        <time>2026-06-28T05:56:40.000Z</time>
      </trkpt>
      <trkpt lat="42.73974" lon="1.51409">
        <ele>1536</ele>
        <time>2026-06-28T05:56:41.000Z</time>
      </trkpt>
      <trkpt lat="42.73975" lon="1.51412">
        <ele>1536</ele>
        <time>2026-06-28T05:56:42.000Z</time>
      </trkpt>
      <trkpt lat="42.73976" lon="1.51416">
        <ele>1536</ele>
        <time>2026-06-28T05:56:43.000Z</time>
      </trkpt>
      <trkpt lat="42.73978" lon="1.5142">
        <ele>1536</ele>
        <time>2026-06-28T05:56:44.000Z</time>
      </trkpt>
      <trkpt lat="42.73981" lon="1.51423">
        <ele>1536</ele>
        <time>2026-06-28T05:56:45.000Z</time>
      </trkpt>
      <trkpt lat="42.73983" lon="1.51426">
        <ele>1535</ele>
        <time>2026-06-28T05:56:46.000Z</time>
      </trkpt>
      <trkpt lat="42.73985" lon="1.51431">
        <ele>1535</ele>
        <time>2026-06-28T05:56:47.000Z</time>
      </trkpt>
      <trkpt lat="42.73987" lon="1.51434">
        <ele>1535</ele>
        <time>2026-06-28T05:56:48.000Z</time>
      </trkpt>
      <trkpt lat="42.7399" lon="1.51438">
        <ele>1534</ele>
        <time>2026-06-28T05:56:49.000Z</time>
      </trkpt>
      <trkpt lat="42.73993" lon="1.51443">
        <ele>1534</ele>
        <time>2026-06-28T05:56:50.000Z</time>
      </trkpt>
      <trkpt lat="42.73997" lon="1.51447">
        <ele>1533</ele>
        <time>2026-06-28T05:56:51.000Z</time>
      </trkpt>
      <trkpt lat="42.74001" lon="1.51452">
        <ele>1533</ele>
        <time>2026-06-28T05:56:52.000Z</time>
      </trkpt>
      <trkpt lat="42.74005" lon="1.51456">
        <ele>1532</ele>
        <time>2026-06-28T05:56:53.000Z</time>
      </trkpt>
      <trkpt lat="42.74009" lon="1.51461">
        <ele>1532</ele>
        <time>2026-06-28T05:56:54.000Z</time>
      </trkpt>
      <trkpt lat="42.74014" lon="1.51467">
        <ele>1531</ele>
        <time>2026-06-28T05:56:55.000Z</time>
      </trkpt>
      <trkpt lat="42.74018" lon="1.51473">
        <ele>1530</ele>
        <time>2026-06-28T05:56:56.000Z</time>
      </trkpt>
      <trkpt lat="42.74024" lon="1.51479">
        <ele>1530</ele>
        <time>2026-06-28T05:56:57.000Z</time>
      </trkpt>
      <trkpt lat="42.74031" lon="1.51484">
        <ele>1530</ele>
        <time>2026-06-28T05:56:58.000Z</time>
      </trkpt>
      <trkpt lat="42.74038" lon="1.5149">
        <ele>1529</ele>
        <time>2026-06-28T05:56:59.000Z</time>
      </trkpt>
      <trkpt lat="42.74045" lon="1.51496">
        <ele>1527</ele>
        <time>2026-06-28T05:57:00.000Z</time>
      </trkpt>
      <trkpt lat="42.74053" lon="1.51501">
        <ele>1527</ele>
        <time>2026-06-28T05:57:01.000Z</time>
      </trkpt>
      <trkpt lat="42.74061" lon="1.51504">
        <ele>1526</ele>
        <time>2026-06-28T05:57:02.000Z</time>
      </trkpt>
      <trkpt lat="42.74069" lon="1.51507">
        <ele>1526</ele>
        <time>2026-06-28T05:57:03.000Z</time>
      </trkpt>
      <trkpt lat="42.74078" lon="1.5151">
        <ele>1525</ele>
        <time>2026-06-28T05:57:04.000Z</time>
      </trkpt>
      <trkpt lat="42.74086" lon="1.51512">
        <ele>1525</ele>
        <time>2026-06-28T05:57:05.000Z</time>
      </trkpt>
      <trkpt lat="42.74095" lon="1.51513">
        <ele>1524</ele>
        <time>2026-06-28T05:57:06.000Z</time>
      </trkpt>
      <trkpt lat="42.74104" lon="1.51513">
        <ele>1524</ele>
        <time>2026-06-28T05:57:07.000Z</time>
      </trkpt>
      <trkpt lat="42.74112" lon="1.51509">
        <ele>1524</ele>
        <time>2026-06-28T05:57:08.000Z</time>
      </trkpt>
      <trkpt lat="42.74121" lon="1.51503">
        <ele>1524</ele>
        <time>2026-06-28T05:57:09.000Z</time>
      </trkpt>
      <trkpt lat="42.7413" lon="1.51497">
        <ele>1523</ele>
        <time>2026-06-28T05:57:10.000Z</time>
      </trkpt>
      <trkpt lat="42.74139" lon="1.51491">
        <ele>1522</ele>
        <time>2026-06-28T05:57:11.000Z</time>
      </trkpt>
      <trkpt lat="42.74147" lon="1.51484">
        <ele>1521</ele>
        <time>2026-06-28T05:57:12.000Z</time>
      </trkpt>
      <trkpt lat="42.74156" lon="1.51477">
        <ele>1519</ele>
        <time>2026-06-28T05:57:13.000Z</time>
      </trkpt>
      <trkpt lat="42.74165" lon="1.5147">
        <ele>1518</ele>
        <time>2026-06-28T05:57:14.000Z</time>
      </trkpt>
      <trkpt lat="42.74175" lon="1.51463">
        <ele>1518</ele>
        <time>2026-06-28T05:57:15.000Z</time>
      </trkpt>
      <trkpt lat="42.74184" lon="1.51455">
        <ele>1517</ele>
        <time>2026-06-28T05:57:16.000Z</time>
      </trkpt>
      <trkpt lat="42.74193" lon="1.51448">
        <ele>1517</ele>
        <time>2026-06-28T05:57:17.000Z</time>
      </trkpt>
      <trkpt lat="42.74203" lon="1.5144">
        <ele>1516</ele>
        <time>2026-06-28T05:57:18.000Z</time>
      </trkpt>
      <trkpt lat="42.74212" lon="1.51432">
        <ele>1516</ele>
        <time>2026-06-28T05:57:19.000Z</time>
      </trkpt>
      <trkpt lat="42.74221" lon="1.51423">
        <ele>1515</ele>
        <time>2026-06-28T05:57:20.000Z</time>
      </trkpt>
      <trkpt lat="42.7423" lon="1.51413">
        <ele>1514</ele>
        <time>2026-06-28T05:57:21.000Z</time>
      </trkpt>
      <trkpt lat="42.7424" lon="1.51404">
        <ele>1512</ele>
        <time>2026-06-28T05:57:22.000Z</time>
      </trkpt>
      <trkpt lat="42.7425" lon="1.51397">
        <ele>1511</ele>
        <time>2026-06-28T05:57:23.000Z</time>
      </trkpt>
      <trkpt lat="42.74262" lon="1.51389">
        <ele>1510</ele>
        <time>2026-06-28T05:57:24.000Z</time>
      </trkpt>
      <trkpt lat="42.74273" lon="1.51383">
        <ele>1509</ele>
        <time>2026-06-28T05:57:25.000Z</time>
      </trkpt>
      <trkpt lat="42.74285" lon="1.51377">
        <ele>1507</ele>
        <time>2026-06-28T05:57:26.000Z</time>
      </trkpt>
      <trkpt lat="42.74297" lon="1.51372">
        <ele>1506</ele>
        <time>2026-06-28T05:57:27.000Z</time>
      </trkpt>
      <trkpt lat="42.74309" lon="1.51368">
        <ele>1505</ele>
        <time>2026-06-28T05:57:28.000Z</time>
      </trkpt>
      <trkpt lat="42.74322" lon="1.51364">
        <ele>1504</ele>
        <time>2026-06-28T05:57:29.000Z</time>
      </trkpt>
      <trkpt lat="42.74334" lon="1.51361">
        <ele>1503</ele>
        <time>2026-06-28T05:57:30.000Z</time>
      </trkpt>
      <trkpt lat="42.74346" lon="1.51357">
        <ele>1502</ele>
        <time>2026-06-28T05:57:31.000Z</time>
      </trkpt>
      <trkpt lat="42.74357" lon="1.51352">
        <ele>1501</ele>
        <time>2026-06-28T05:57:32.000Z</time>
      </trkpt>
      <trkpt lat="42.7437" lon="1.51346">
        <ele>1499</ele>
        <time>2026-06-28T05:57:33.000Z</time>
      </trkpt>
      <trkpt lat="42.74382" lon="1.51339">
        <ele>1498</ele>
        <time>2026-06-28T05:57:34.000Z</time>
      </trkpt>
      <trkpt lat="42.74394" lon="1.5133">
        <ele>1496</ele>
        <time>2026-06-28T05:57:35.000Z</time>
      </trkpt>
      <trkpt lat="42.74404" lon="1.51319">
        <ele>1495</ele>
        <time>2026-06-28T05:57:36.000Z</time>
      </trkpt>
      <trkpt lat="42.74413" lon="1.51307">
        <ele>1493</ele>
        <time>2026-06-28T05:57:37.000Z</time>
      </trkpt>
      <trkpt lat="42.7442" lon="1.51294">
        <ele>1493</ele>
        <time>2026-06-28T05:57:38.000Z</time>
      </trkpt>
      <trkpt lat="42.74426" lon="1.51282">
        <ele>1492</ele>
        <time>2026-06-28T05:57:39.000Z</time>
      </trkpt>
      <trkpt lat="42.74433" lon="1.51271">
        <ele>1491</ele>
        <time>2026-06-28T05:57:40.000Z</time>
      </trkpt>
      <trkpt lat="42.7444" lon="1.51263">
        <ele>1492</ele>
        <time>2026-06-28T05:57:41.000Z</time>
      </trkpt>
      <trkpt lat="42.74451" lon="1.51258">
        <ele>1491</ele>
        <time>2026-06-28T05:57:42.000Z</time>
      </trkpt>
      <trkpt lat="42.74462" lon="1.51257">
        <ele>1489</ele>
        <time>2026-06-28T05:57:43.000Z</time>
      </trkpt>
      <trkpt lat="42.74475" lon="1.51258">
        <ele>1487</ele>
        <time>2026-06-28T05:57:44.000Z</time>
      </trkpt>
      <trkpt lat="42.74487" lon="1.51259">
        <ele>1485</ele>
        <time>2026-06-28T05:57:45.000Z</time>
      </trkpt>
      <trkpt lat="42.74499" lon="1.5126">
        <ele>1483</ele>
        <time>2026-06-28T05:57:46.000Z</time>
      </trkpt>
      <trkpt lat="42.74512" lon="1.5126">
        <ele>1482</ele>
        <time>2026-06-28T05:57:47.000Z</time>
      </trkpt>
      <trkpt lat="42.74525" lon="1.51261">
        <ele>1480</ele>
        <time>2026-06-28T05:57:48.000Z</time>
      </trkpt>
      <trkpt lat="42.74538" lon="1.51266">
        <ele>1479</ele>
        <time>2026-06-28T05:57:49.000Z</time>
      </trkpt>
      <trkpt lat="42.7455" lon="1.51272">
        <ele>1478</ele>
        <time>2026-06-28T05:57:50.000Z</time>
      </trkpt>
      <trkpt lat="42.74562" lon="1.51279">
        <ele>1476</ele>
        <time>2026-06-28T05:57:51.000Z</time>
      </trkpt>
      <trkpt lat="42.74574" lon="1.51286">
        <ele>1474</ele>
        <time>2026-06-28T05:57:52.000Z</time>
      </trkpt>
      <trkpt lat="42.74583" lon="1.51292">
        <ele>1473</ele>
        <time>2026-06-28T05:57:53.000Z</time>
      </trkpt>
      <trkpt lat="42.74592" lon="1.51298">
        <ele>1473</ele>
        <time>2026-06-28T05:57:54.000Z</time>
      </trkpt>
      <trkpt lat="42.746" lon="1.51305">
        <ele>1472</ele>
        <time>2026-06-28T05:57:55.000Z</time>
      </trkpt>
      <trkpt lat="42.74609" lon="1.51313">
        <ele>1471</ele>
        <time>2026-06-28T05:57:56.000Z</time>
      </trkpt>
      <trkpt lat="42.74617" lon="1.5132">
        <ele>1470</ele>
        <time>2026-06-28T05:57:57.000Z</time>
      </trkpt>
      <trkpt lat="42.74625" lon="1.51326">
        <ele>1470</ele>
        <time>2026-06-28T05:57:58.000Z</time>
      </trkpt>
      <trkpt lat="42.74633" lon="1.51329">
        <ele>1471</ele>
        <time>2026-06-28T05:57:59.000Z</time>
      </trkpt>
      <trkpt lat="42.7464" lon="1.5133">
        <ele>1471</ele>
        <time>2026-06-28T05:58:00.000Z</time>
      </trkpt>
      <trkpt lat="42.74646" lon="1.51331">
        <ele>1470</ele>
        <time>2026-06-28T05:58:01.000Z</time>
      </trkpt>
      <trkpt lat="42.74652" lon="1.51332">
        <ele>1470</ele>
        <time>2026-06-28T05:58:02.000Z</time>
      </trkpt>
      <trkpt lat="42.74657" lon="1.51335">
        <ele>1470</ele>
        <time>2026-06-28T05:58:03.000Z</time>
      </trkpt>
      <trkpt lat="42.74662" lon="1.51338">
        <ele>1470</ele>
        <time>2026-06-28T05:58:04.000Z</time>
      </trkpt>
      <trkpt lat="42.74666" lon="1.5134">
        <ele>1470</ele>
        <time>2026-06-28T05:58:05.000Z</time>
      </trkpt>
      <trkpt lat="42.7467" lon="1.51341">
        <ele>1470</ele>
        <time>2026-06-28T05:58:06.000Z</time>
      </trkpt>
      <trkpt lat="42.74675" lon="1.51342">
        <ele>1471</ele>
        <time>2026-06-28T05:58:07.000Z</time>
      </trkpt>
      <trkpt lat="42.7468" lon="1.51339">
        <ele>1470</ele>
        <time>2026-06-28T05:58:08.000Z</time>
      </trkpt>
      <trkpt lat="42.74684" lon="1.51338">
        <ele>1470</ele>
        <time>2026-06-28T05:58:09.000Z</time>
      </trkpt>
      <trkpt lat="42.74687" lon="1.51336">
        <ele>1471</ele>
        <time>2026-06-28T05:58:10.000Z</time>
      </trkpt>
      <trkpt lat="42.74691" lon="1.51335">
        <ele>1470</ele>
        <time>2026-06-28T05:58:11.000Z</time>
      </trkpt>
      <trkpt lat="42.74696" lon="1.51333">
        <ele>1470</ele>
        <time>2026-06-28T05:58:12.000Z</time>
      </trkpt>
      <trkpt lat="42.74701" lon="1.51331">
        <ele>1470</ele>
        <time>2026-06-28T05:58:13.000Z</time>
      </trkpt>
      <trkpt lat="42.74706" lon="1.5133">
        <ele>1471</ele>
        <time>2026-06-28T05:58:14.000Z</time>
      </trkpt>
      <trkpt lat="42.74711" lon="1.5133">
        <ele>1471</ele>
        <time>2026-06-28T05:58:15.000Z</time>
      </trkpt>
      <trkpt lat="42.74717" lon="1.51327">
        <ele>1472</ele>
        <time>2026-06-28T05:58:16.000Z</time>
      </trkpt>
      <trkpt lat="42.74722" lon="1.51326">
        <ele>1472</ele>
        <time>2026-06-28T05:58:17.000Z</time>
      </trkpt>
      <trkpt lat="42.74727" lon="1.51324">
        <ele>1472</ele>
        <time>2026-06-28T05:58:18.000Z</time>
      </trkpt>
      <trkpt lat="42.74732" lon="1.51322">
        <ele>1472</ele>
        <time>2026-06-28T05:58:19.000Z</time>
      </trkpt>
      <trkpt lat="42.74738" lon="1.51321">
        <ele>1473</ele>
        <time>2026-06-28T05:58:20.000Z</time>
      </trkpt>
      <trkpt lat="42.74744" lon="1.51317">
        <ele>1474</ele>
        <time>2026-06-28T05:58:21.000Z</time>
      </trkpt>
      <trkpt lat="42.74749" lon="1.51315">
        <ele>1474</ele>
        <time>2026-06-28T05:58:22.000Z</time>
      </trkpt>
      <trkpt lat="42.74754" lon="1.51313">
        <ele>1475</ele>
        <time>2026-06-28T05:58:23.000Z</time>
      </trkpt>
      <trkpt lat="42.74759" lon="1.5131">
        <ele>1475</ele>
        <time>2026-06-28T05:58:24.000Z</time>
      </trkpt>
      <trkpt lat="42.74764" lon="1.51308">
        <ele>1475</ele>
        <time>2026-06-28T05:58:25.000Z</time>
      </trkpt>
      <trkpt lat="42.74769" lon="1.51306">
        <ele>1475</ele>
        <time>2026-06-28T05:58:26.000Z</time>
      </trkpt>
      <trkpt lat="42.74774" lon="1.51304">
        <ele>1475</ele>
        <time>2026-06-28T05:58:27.000Z</time>
      </trkpt>
      <trkpt lat="42.74778" lon="1.51301">
        <ele>1475</ele>
        <time>2026-06-28T05:58:28.000Z</time>
      </trkpt>
      <trkpt lat="42.74782" lon="1.51297">
        <ele>1476</ele>
        <time>2026-06-28T05:58:29.000Z</time>
      </trkpt>
      <trkpt lat="42.74786" lon="1.51294">
        <ele>1476</ele>
        <time>2026-06-28T05:58:30.000Z</time>
      </trkpt>
      <trkpt lat="42.7479" lon="1.5129">
        <ele>1476</ele>
        <time>2026-06-28T05:58:31.000Z</time>
      </trkpt>
      <trkpt lat="42.74795" lon="1.51286">
        <ele>1477</ele>
        <time>2026-06-28T05:58:32.000Z</time>
      </trkpt>
      <trkpt lat="42.74799" lon="1.51281">
        <ele>1477</ele>
        <time>2026-06-28T05:58:33.000Z</time>
      </trkpt>
      <trkpt lat="42.74804" lon="1.51276">
        <ele>1478</ele>
        <time>2026-06-28T05:58:34.000Z</time>
      </trkpt>
      <trkpt lat="42.74808" lon="1.51271">
        <ele>1478</ele>
        <time>2026-06-28T05:58:35.000Z</time>
      </trkpt>
      <trkpt lat="42.74813" lon="1.51267">
        <ele>1478</ele>
        <time>2026-06-28T05:58:36.000Z</time>
      </trkpt>
      <trkpt lat="42.74817" lon="1.51264">
        <ele>1478</ele>
        <time>2026-06-28T05:58:37.000Z</time>
      </trkpt>
      <trkpt lat="42.74821" lon="1.51262">
        <ele>1478</ele>
        <time>2026-06-28T05:58:38.000Z</time>
      </trkpt>
      <trkpt lat="42.74826" lon="1.51259">
        <ele>1477</ele>
        <time>2026-06-28T05:58:39.000Z</time>
      </trkpt>
      <trkpt lat="42.74831" lon="1.51257">
        <ele>1477</ele>
        <time>2026-06-28T05:58:40.000Z</time>
      </trkpt>
      <trkpt lat="42.74835" lon="1.51255">
        <ele>1477</ele>
        <time>2026-06-28T05:58:41.000Z</time>
      </trkpt>
      <trkpt lat="42.74841" lon="1.51253">
        <ele>1477</ele>
        <time>2026-06-28T05:58:42.000Z</time>
      </trkpt>
      <trkpt lat="42.74845" lon="1.51251">
        <ele>1477</ele>
        <time>2026-06-28T05:58:43.000Z</time>
      </trkpt>
      <trkpt lat="42.7485" lon="1.51248">
        <ele>1476</ele>
        <time>2026-06-28T05:58:44.000Z</time>
      </trkpt>
      <trkpt lat="42.74855" lon="1.51247">
        <ele>1476</ele>
        <time>2026-06-28T05:58:45.000Z</time>
      </trkpt>
      <trkpt lat="42.7486" lon="1.51245">
        <ele>1476</ele>
        <time>2026-06-28T05:58:46.000Z</time>
      </trkpt>
      <trkpt lat="42.74865" lon="1.51243">
        <ele>1476</ele>
        <time>2026-06-28T05:58:47.000Z</time>
      </trkpt>
      <trkpt lat="42.74869" lon="1.51241">
        <ele>1476</ele>
        <time>2026-06-28T05:58:48.000Z</time>
      </trkpt>
      <trkpt lat="42.74873" lon="1.51239">
        <ele>1476</ele>
        <time>2026-06-28T05:58:49.000Z</time>
      </trkpt>
      <trkpt lat="42.74877" lon="1.51236">
        <ele>1477</ele>
        <time>2026-06-28T05:58:50.000Z</time>
      </trkpt>
      <trkpt lat="42.74881" lon="1.51233">
        <ele>1477</ele>
        <time>2026-06-28T05:58:51.000Z</time>
      </trkpt>
      <trkpt lat="42.74886" lon="1.51231">
        <ele>1477</ele>
        <time>2026-06-28T05:58:52.000Z</time>
      </trkpt>
      <trkpt lat="42.74889" lon="1.51228">
        <ele>1478</ele>
        <time>2026-06-28T05:58:53.000Z</time>
      </trkpt>
      <trkpt lat="42.74893" lon="1.51224">
        <ele>1478</ele>
        <time>2026-06-28T05:58:54.000Z</time>
      </trkpt>
      <trkpt lat="42.74898" lon="1.51222">
        <ele>1477</ele>
        <time>2026-06-28T05:58:55.000Z</time>
      </trkpt>
      <trkpt lat="42.74902" lon="1.51219">
        <ele>1477</ele>
        <time>2026-06-28T05:58:56.000Z</time>
      </trkpt>
      <trkpt lat="42.74905" lon="1.51216">
        <ele>1477</ele>
        <time>2026-06-28T05:58:57.000Z</time>
      </trkpt>
      <trkpt lat="42.74909" lon="1.51213">
        <ele>1477</ele>
        <time>2026-06-28T05:58:58.000Z</time>
      </trkpt>
      <trkpt lat="42.74913" lon="1.51211">
        <ele>1477</ele>
        <time>2026-06-28T05:58:59.000Z</time>
      </trkpt>
      <trkpt lat="42.74917" lon="1.51208">
        <ele>1478</ele>
        <time>2026-06-28T05:59:00.000Z</time>
      </trkpt>
      <trkpt lat="42.74921" lon="1.51205">
        <ele>1477</ele>
        <time>2026-06-28T05:59:01.000Z</time>
      </trkpt>
      <trkpt lat="42.74925" lon="1.51202">
        <ele>1477</ele>
        <time>2026-06-28T05:59:02.000Z</time>
      </trkpt>
      <trkpt lat="42.74928" lon="1.51199">
        <ele>1477</ele>
        <time>2026-06-28T05:59:03.000Z</time>
      </trkpt>
      <trkpt lat="42.74932" lon="1.51196">
        <ele>1477</ele>
        <time>2026-06-28T05:59:04.000Z</time>
      </trkpt>
      <trkpt lat="42.74936" lon="1.51193">
        <ele>1476</ele>
        <time>2026-06-28T05:59:05.000Z</time>
      </trkpt>
      <trkpt lat="42.7494" lon="1.5119">
        <ele>1477</ele>
        <time>2026-06-28T05:59:06.000Z</time>
      </trkpt>
      <trkpt lat="42.74944" lon="1.51187">
        <ele>1477</ele>
        <time>2026-06-28T05:59:07.000Z</time>
      </trkpt>
      <trkpt lat="42.74948" lon="1.51184">
        <ele>1477</ele>
        <time>2026-06-28T05:59:08.000Z</time>
      </trkpt>
      <trkpt lat="42.74952" lon="1.5118">
        <ele>1477</ele>
        <time>2026-06-28T05:59:09.000Z</time>
      </trkpt>
      <trkpt lat="42.74956" lon="1.51177">
        <ele>1476</ele>
        <time>2026-06-28T05:59:10.000Z</time>
      </trkpt>
      <trkpt lat="42.7496" lon="1.51175">
        <ele>1477</ele>
        <time>2026-06-28T05:59:11.000Z</time>
      </trkpt>
      <trkpt lat="42.74963" lon="1.51172">
        <ele>1476</ele>
        <time>2026-06-28T05:59:12.000Z</time>
      </trkpt>
      <trkpt lat="42.74966" lon="1.51169">
        <ele>1476</ele>
        <time>2026-06-28T05:59:13.000Z</time>
      </trkpt>
      <trkpt lat="42.74971" lon="1.51168">
        <ele>1477</ele>
        <time>2026-06-28T05:59:14.000Z</time>
      </trkpt>
      <trkpt lat="42.74974" lon="1.51164">
        <ele>1477</ele>
        <time>2026-06-28T05:59:15.000Z</time>
      </trkpt>
      <trkpt lat="42.74978" lon="1.5116">
        <ele>1477</ele>
        <time>2026-06-28T05:59:16.000Z</time>
      </trkpt>
      <trkpt lat="42.74981" lon="1.51157">
        <ele>1477</ele>
        <time>2026-06-28T05:59:17.000Z</time>
      </trkpt>
      <trkpt lat="42.74984" lon="1.51154">
        <ele>1477</ele>
        <time>2026-06-28T05:59:18.000Z</time>
      </trkpt>
      <trkpt lat="42.74987" lon="1.5115">
        <ele>1477</ele>
        <time>2026-06-28T05:59:19.000Z</time>
      </trkpt>
      <trkpt lat="42.7499" lon="1.51147">
        <ele>1478</ele>
        <time>2026-06-28T05:59:20.000Z</time>
      </trkpt>
      <trkpt lat="42.74993" lon="1.51144">
        <ele>1478</ele>
        <time>2026-06-28T05:59:21.000Z</time>
      </trkpt>
      <trkpt lat="42.74996" lon="1.5114">
        <ele>1478</ele>
        <time>2026-06-28T05:59:22.000Z</time>
      </trkpt>
      <trkpt lat="42.75" lon="1.51137">
        <ele>1478</ele>
        <time>2026-06-28T05:59:23.000Z</time>
      </trkpt>
      <trkpt lat="42.75003" lon="1.51133">
        <ele>1478</ele>
        <time>2026-06-28T05:59:24.000Z</time>
      </trkpt>
      <trkpt lat="42.75007" lon="1.51129">
        <ele>1478</ele>
        <time>2026-06-28T05:59:25.000Z</time>
      </trkpt>
      <trkpt lat="42.75012" lon="1.51125">
        <ele>1479</ele>
        <time>2026-06-28T05:59:26.000Z</time>
      </trkpt>
      <trkpt lat="42.75015" lon="1.51122">
        <ele>1478</ele>
        <time>2026-06-28T05:59:27.000Z</time>
      </trkpt>
      <trkpt lat="42.75019" lon="1.51119">
        <ele>1479</ele>
        <time>2026-06-28T05:59:28.000Z</time>
      </trkpt>
      <trkpt lat="42.75022" lon="1.51116">
        <ele>1478</ele>
        <time>2026-06-28T05:59:29.000Z</time>
      </trkpt>
      <trkpt lat="42.75026" lon="1.51113">
        <ele>1478</ele>
        <time>2026-06-28T05:59:30.000Z</time>
      </trkpt>
      <trkpt lat="42.7503" lon="1.5111">
        <ele>1478</ele>
        <time>2026-06-28T05:59:31.000Z</time>
      </trkpt>
      <trkpt lat="42.75034" lon="1.51108">
        <ele>1479</ele>
        <time>2026-06-28T05:59:32.000Z</time>
      </trkpt>
      <trkpt lat="42.75039" lon="1.51106">
        <ele>1478</ele>
        <time>2026-06-28T05:59:33.000Z</time>
      </trkpt>
      <trkpt lat="42.75042" lon="1.51104">
        <ele>1478</ele>
        <time>2026-06-28T05:59:34.000Z</time>
      </trkpt>
      <trkpt lat="42.75046" lon="1.51101">
        <ele>1479</ele>
        <time>2026-06-28T05:59:35.000Z</time>
      </trkpt>
      <trkpt lat="42.7505" lon="1.51098">
        <ele>1478</ele>
        <time>2026-06-28T05:59:36.000Z</time>
      </trkpt>
      <trkpt lat="42.75054" lon="1.51096">
        <ele>1479</ele>
        <time>2026-06-28T05:59:37.000Z</time>
      </trkpt>
      <trkpt lat="42.75059" lon="1.51094">
        <ele>1479</ele>
        <time>2026-06-28T05:59:38.000Z</time>
      </trkpt>
      <trkpt lat="42.75063" lon="1.51093">
        <ele>1479</ele>
        <time>2026-06-28T05:59:39.000Z</time>
      </trkpt>
      <trkpt lat="42.75066" lon="1.51091">
        <ele>1479</ele>
        <time>2026-06-28T05:59:40.000Z</time>
      </trkpt>
      <trkpt lat="42.75071" lon="1.51089">
        <ele>1479</ele>
        <time>2026-06-28T05:59:41.000Z</time>
      </trkpt>
      <trkpt lat="42.75076" lon="1.51088">
        <ele>1479</ele>
        <time>2026-06-28T05:59:42.000Z</time>
      </trkpt>
      <trkpt lat="42.7508" lon="1.51086">
        <ele>1479</ele>
        <time>2026-06-28T05:59:43.000Z</time>
      </trkpt>
      <trkpt lat="42.75084" lon="1.51085">
        <ele>1479</ele>
        <time>2026-06-28T05:59:44.000Z</time>
      </trkpt>
      <trkpt lat="42.75088" lon="1.51084">
        <ele>1479</ele>
        <time>2026-06-28T05:59:45.000Z</time>
      </trkpt>
      <trkpt lat="42.75094" lon="1.51084">
        <ele>1479</ele>
        <time>2026-06-28T05:59:46.000Z</time>
      </trkpt>
      <trkpt lat="42.75099" lon="1.51084">
        <ele>1479</ele>
        <time>2026-06-28T05:59:47.000Z</time>
      </trkpt>
      <trkpt lat="42.75103" lon="1.51085">
        <ele>1479</ele>
        <time>2026-06-28T05:59:48.000Z</time>
      </trkpt>
      <trkpt lat="42.75106" lon="1.51085">
        <ele>1479</ele>
        <time>2026-06-28T05:59:49.000Z</time>
      </trkpt>
      <trkpt lat="42.75108" lon="1.51086">
        <ele>1479</ele>
        <time>2026-06-28T05:59:50.000Z</time>
      </trkpt>
      <trkpt lat="42.75109" lon="1.51087">
        <ele>1479</ele>
        <time>2026-06-28T05:59:51.000Z</time>
      </trkpt>
      <trkpt lat="42.75111" lon="1.51089">
        <ele>1480</ele>
        <time>2026-06-28T05:59:52.000Z</time>
      </trkpt>
      <trkpt lat="42.75112" lon="1.51091">
        <ele>1480</ele>
        <time>2026-06-28T05:59:53.000Z</time>
      </trkpt>
      <trkpt lat="42.75114" lon="1.51093">
        <ele>1481</ele>
        <time>2026-06-28T05:59:54.000Z</time>
      </trkpt>
      <trkpt lat="42.75115" lon="1.51094">
        <ele>1482</ele>
        <time>2026-06-28T05:59:55.000Z</time>
      </trkpt>
      <trkpt lat="42.75117" lon="1.51097">
        <ele>1482</ele>
        <time>2026-06-28T05:59:56.000Z</time>
      </trkpt>
      <trkpt lat="42.75119" lon="1.51099">
        <ele>1482</ele>
        <time>2026-06-28T05:59:57.000Z</time>
      </trkpt>
      <trkpt lat="42.75121" lon="1.51101">
        <ele>1482</ele>
        <time>2026-06-28T05:59:58.000Z</time>
      </trkpt>
      <trkpt lat="42.75123" lon="1.51104">
        <ele>1482</ele>
        <time>2026-06-28T05:59:59.000Z</time>
      </trkpt>
      <trkpt lat="42.75125" lon="1.51105">
        <ele>1481</ele>
        <time>2026-06-28T06:00:00.000Z</time>
      </trkpt>
      <trkpt lat="42.75127" lon="1.51108">
        <ele>1481</ele>
        <time>2026-06-28T06:00:01.000Z</time>
      </trkpt>
      <trkpt lat="42.75129" lon="1.5111">
        <ele>1481</ele>
        <time>2026-06-28T06:00:02.000Z</time>
      </trkpt>
      <trkpt lat="42.75132" lon="1.51112">
        <ele>1481</ele>
        <time>2026-06-28T06:00:03.000Z</time>
      </trkpt>
      <trkpt lat="42.75134" lon="1.51115">
        <ele>1481</ele>
        <time>2026-06-28T06:00:04.000Z</time>
      </trkpt>
      <trkpt lat="42.75137" lon="1.51118">
        <ele>1481</ele>
        <time>2026-06-28T06:00:05.000Z</time>
      </trkpt>
      <trkpt lat="42.75139" lon="1.5112">
        <ele>1481</ele>
        <time>2026-06-28T06:00:06.000Z</time>
      </trkpt>
      <trkpt lat="42.75142" lon="1.51123">
        <ele>1480</ele>
        <time>2026-06-28T06:00:07.000Z</time>
      </trkpt>
      <trkpt lat="42.75145" lon="1.51125">
        <ele>1480</ele>
        <time>2026-06-28T06:00:08.000Z</time>
      </trkpt>
      <trkpt lat="42.75146" lon="1.51128">
        <ele>1480</ele>
        <time>2026-06-28T06:00:09.000Z</time>
      </trkpt>
      <trkpt lat="42.75149" lon="1.5113">
        <ele>1480</ele>
        <time>2026-06-28T06:00:10.000Z</time>
      </trkpt>
      <trkpt lat="42.7515" lon="1.51132">
        <ele>1480</ele>
        <time>2026-06-28T06:00:11.000Z</time>
      </trkpt>
      <trkpt lat="42.75152" lon="1.51134">
        <ele>1480</ele>
        <time>2026-06-28T06:00:12.000Z</time>
      </trkpt>
      <trkpt lat="42.75155" lon="1.51137">
        <ele>1481</ele>
        <time>2026-06-28T06:00:13.000Z</time>
      </trkpt>
      <trkpt lat="42.75157" lon="1.5114">
        <ele>1481</ele>
        <time>2026-06-28T06:00:14.000Z</time>
      </trkpt>
      <trkpt lat="42.75159" lon="1.51144">
        <ele>1481</ele>
        <time>2026-06-28T06:00:15.000Z</time>
      </trkpt>
      <trkpt lat="42.75161" lon="1.51147">
        <ele>1482</ele>
        <time>2026-06-28T06:00:16.000Z</time>
      </trkpt>
      <trkpt lat="42.75162" lon="1.5115">
        <ele>1482</ele>
        <time>2026-06-28T06:00:17.000Z</time>
      </trkpt>
      <trkpt lat="42.75164" lon="1.51152">
        <ele>1482</ele>
        <time>2026-06-28T06:00:18.000Z</time>
      </trkpt>
      <trkpt lat="42.75166" lon="1.51156">
        <ele>1482</ele>
        <time>2026-06-28T06:00:19.000Z</time>
      </trkpt>
      <trkpt lat="42.75168" lon="1.51159">
        <ele>1482</ele>
        <time>2026-06-28T06:00:20.000Z</time>
      </trkpt>
      <trkpt lat="42.75169" lon="1.51163">
        <ele>1481</ele>
        <time>2026-06-28T06:00:21.000Z</time>
      </trkpt>
      <trkpt lat="42.75171" lon="1.51168">
        <ele>1481</ele>
        <time>2026-06-28T06:00:22.000Z</time>
      </trkpt>
      <trkpt lat="42.75172" lon="1.51171">
        <ele>1481</ele>
        <time>2026-06-28T06:00:23.000Z</time>
      </trkpt>
      <trkpt lat="42.75172" lon="1.51174">
        <ele>1481</ele>
        <time>2026-06-28T06:00:24.000Z</time>
      </trkpt>
      <trkpt lat="42.75172" lon="1.51177">
        <ele>1481</ele>
        <time>2026-06-28T06:00:25.000Z</time>
      </trkpt>
      <trkpt lat="42.75173" lon="1.51179">
        <ele>1481</ele>
        <time>2026-06-28T06:00:26.000Z</time>
      </trkpt>
      <trkpt lat="42.75174" lon="1.51181">
        <ele>1481</ele>
        <time>2026-06-28T06:00:27.000Z</time>
      </trkpt>
      <trkpt lat="42.75175" lon="1.51183">
        <ele>1481</ele>
        <time>2026-06-28T06:00:28.000Z</time>
      </trkpt>
      <trkpt lat="42.75176" lon="1.51186">
        <ele>1481</ele>
        <time>2026-06-28T06:00:29.000Z</time>
      </trkpt>
      <trkpt lat="42.75178" lon="1.51188">
        <ele>1481</ele>
        <time>2026-06-28T06:00:30.000Z</time>
      </trkpt>
      <trkpt lat="42.75179" lon="1.51191">
        <ele>1482</ele>
        <time>2026-06-28T06:00:31.000Z</time>
      </trkpt>
      <trkpt lat="42.7518" lon="1.51194">
        <ele>1482</ele>
        <time>2026-06-28T06:00:32.000Z</time>
      </trkpt>
      <trkpt lat="42.75181" lon="1.51197">
        <ele>1481</ele>
        <time>2026-06-28T06:00:33.000Z</time>
      </trkpt>
      <trkpt lat="42.75182" lon="1.512">
        <ele>1481</ele>
        <time>2026-06-28T06:00:34.000Z</time>
      </trkpt>
      <trkpt lat="42.75183" lon="1.51203">
        <ele>1481</ele>
        <time>2026-06-28T06:00:35.000Z</time>
      </trkpt>
      <trkpt lat="42.75184" lon="1.51206">
        <ele>1481</ele>
        <time>2026-06-28T06:00:36.000Z</time>
      </trkpt>
      <trkpt lat="42.75186" lon="1.5121">
        <ele>1482</ele>
        <time>2026-06-28T06:00:37.000Z</time>
      </trkpt>
      <trkpt lat="42.75188" lon="1.51215">
        <ele>1482</ele>
        <time>2026-06-28T06:00:38.000Z</time>
      </trkpt>
      <trkpt lat="42.75189" lon="1.51218">
        <ele>1482</ele>
        <time>2026-06-28T06:00:39.000Z</time>
      </trkpt>
      <trkpt lat="42.75191" lon="1.51223">
        <ele>1482</ele>
        <time>2026-06-28T06:00:40.000Z</time>
      </trkpt>
      <trkpt lat="42.75192" lon="1.51227">
        <ele>1482</ele>
        <time>2026-06-28T06:00:41.000Z</time>
      </trkpt>
      <trkpt lat="42.75193" lon="1.51232">
        <ele>1482</ele>
        <time>2026-06-28T06:00:42.000Z</time>
      </trkpt>
      <trkpt lat="42.75194" lon="1.51235">
        <ele>1483</ele>
        <time>2026-06-28T06:00:43.000Z</time>
      </trkpt>
      <trkpt lat="42.75195" lon="1.51238">
        <ele>1483</ele>
        <time>2026-06-28T06:00:44.000Z</time>
      </trkpt>
      <trkpt lat="42.75196" lon="1.51241">
        <ele>1483</ele>
        <time>2026-06-28T06:00:45.000Z</time>
      </trkpt>
      <trkpt lat="42.75196" lon="1.51243">
        <ele>1483</ele>
        <time>2026-06-28T06:00:46.000Z</time>
      </trkpt>
      <trkpt lat="42.75197" lon="1.51245">
        <ele>1483</ele>
        <time>2026-06-28T06:00:47.000Z</time>
      </trkpt>
      <trkpt lat="42.75197" lon="1.51247">
        <ele>1483</ele>
        <time>2026-06-28T06:00:48.000Z</time>
      </trkpt>
      <trkpt lat="42.75198" lon="1.51249">
        <ele>1482</ele>
        <time>2026-06-28T06:00:49.000Z</time>
      </trkpt>
      <trkpt lat="42.75199" lon="1.51254">
        <ele>1482</ele>
        <time>2026-06-28T06:00:50.000Z</time>
      </trkpt>
      <trkpt lat="42.75201" lon="1.5126">
        <ele>1481</ele>
        <time>2026-06-28T06:00:51.000Z</time>
      </trkpt>
      <trkpt lat="42.75203" lon="1.51266">
        <ele>1481</ele>
        <time>2026-06-28T06:00:52.000Z</time>
      </trkpt>
      <trkpt lat="42.75204" lon="1.5127">
        <ele>1481</ele>
        <time>2026-06-28T06:00:53.000Z</time>
      </trkpt>
      <trkpt lat="42.75206" lon="1.51274">
        <ele>1481</ele>
        <time>2026-06-28T06:00:54.000Z</time>
      </trkpt>
      <trkpt lat="42.75207" lon="1.51277">
        <ele>1482</ele>
        <time>2026-06-28T06:00:55.000Z</time>
      </trkpt>
      <trkpt lat="42.75207" lon="1.5128">
        <ele>1482</ele>
        <time>2026-06-28T06:00:56.000Z</time>
      </trkpt>
      <trkpt lat="42.75208" lon="1.51284">
        <ele>1481</ele>
        <time>2026-06-28T06:00:57.000Z</time>
      </trkpt>
      <trkpt lat="42.75209" lon="1.51286">
        <ele>1482</ele>
        <time>2026-06-28T06:00:58.000Z</time>
      </trkpt>
      <trkpt lat="42.75211" lon="1.51289">
        <ele>1482</ele>
        <time>2026-06-28T06:00:59.000Z</time>
      </trkpt>
      <trkpt lat="42.75211" lon="1.51291">
        <ele>1482</ele>
        <time>2026-06-28T06:01:00.000Z</time>
      </trkpt>
      <trkpt lat="42.75213" lon="1.51294">
        <ele>1483</ele>
        <time>2026-06-28T06:01:01.000Z</time>
      </trkpt>
      <trkpt lat="42.75214" lon="1.51297">
        <ele>1483</ele>
        <time>2026-06-28T06:01:02.000Z</time>
      </trkpt>
      <trkpt lat="42.75215" lon="1.51301">
        <ele>1484</ele>
        <time>2026-06-28T06:01:03.000Z</time>
      </trkpt>
      <trkpt lat="42.75216" lon="1.51305">
        <ele>1484</ele>
        <time>2026-06-28T06:01:04.000Z</time>
      </trkpt>
      <trkpt lat="42.75218" lon="1.51308">
        <ele>1484</ele>
        <time>2026-06-28T06:01:05.000Z</time>
      </trkpt>
      <trkpt lat="42.7522" lon="1.5131">
        <ele>1484</ele>
        <time>2026-06-28T06:01:06.000Z</time>
      </trkpt>
      <trkpt lat="42.75221" lon="1.51313">
        <ele>1484</ele>
        <time>2026-06-28T06:01:07.000Z</time>
      </trkpt>
      <trkpt lat="42.75222" lon="1.51317">
        <ele>1483</ele>
        <time>2026-06-28T06:01:08.000Z</time>
      </trkpt>
      <trkpt lat="42.75223" lon="1.5132">
        <ele>1483</ele>
        <time>2026-06-28T06:01:09.000Z</time>
      </trkpt>
      <trkpt lat="42.75224" lon="1.51324">
        <ele>1483</ele>
        <time>2026-06-28T06:01:10.000Z</time>
      </trkpt>
      <trkpt lat="42.75226" lon="1.51327">
        <ele>1483</ele>
        <time>2026-06-28T06:01:11.000Z</time>
      </trkpt>
      <trkpt lat="42.75227" lon="1.5133">
        <ele>1483</ele>
        <time>2026-06-28T06:01:12.000Z</time>
      </trkpt>
      <trkpt lat="42.75228" lon="1.51333">
        <ele>1482</ele>
        <time>2026-06-28T06:01:13.000Z</time>
      </trkpt>
      <trkpt lat="42.7523" lon="1.51336">
        <ele>1482</ele>
        <time>2026-06-28T06:01:14.000Z</time>
      </trkpt>
      <trkpt lat="42.75231" lon="1.51338">
        <ele>1482</ele>
        <time>2026-06-28T06:01:15.000Z</time>
      </trkpt>
      <trkpt lat="42.75233" lon="1.5134">
        <ele>1482</ele>
        <time>2026-06-28T06:01:16.000Z</time>
      </trkpt>
      <trkpt lat="42.75234" lon="1.51342">
        <ele>1483</ele>
        <time>2026-06-28T06:01:17.000Z</time>
      </trkpt>
      <trkpt lat="42.75237" lon="1.51344">
        <ele>1482</ele>
        <time>2026-06-28T06:01:18.000Z</time>
      </trkpt>
      <trkpt lat="42.75238" lon="1.51347">
        <ele>1482</ele>
        <time>2026-06-28T06:01:19.000Z</time>
      </trkpt>
      <trkpt lat="42.75241" lon="1.5135">
        <ele>1481</ele>
        <time>2026-06-28T06:01:20.000Z</time>
      </trkpt>
      <trkpt lat="42.75243" lon="1.51354">
        <ele>1482</ele>
        <time>2026-06-28T06:01:21.000Z</time>
      </trkpt>
      <trkpt lat="42.75245" lon="1.51357">
        <ele>1482</ele>
        <time>2026-06-28T06:01:22.000Z</time>
      </trkpt>
      <trkpt lat="42.75247" lon="1.5136">
        <ele>1482</ele>
        <time>2026-06-28T06:01:23.000Z</time>
      </trkpt>
      <trkpt lat="42.75249" lon="1.51363">
        <ele>1482</ele>
        <time>2026-06-28T06:01:24.000Z</time>
      </trkpt>
      <trkpt lat="42.75249" lon="1.51366">
        <ele>1482</ele>
        <time>2026-06-28T06:01:25.000Z</time>
      </trkpt>
      <trkpt lat="42.7525" lon="1.51369">
        <ele>1482</ele>
        <time>2026-06-28T06:01:26.000Z</time>
      </trkpt>
      <trkpt lat="42.75252" lon="1.51371">
        <ele>1482</ele>
        <time>2026-06-28T06:01:27.000Z</time>
      </trkpt>
      <trkpt lat="42.75253" lon="1.51374">
        <ele>1482</ele>
        <time>2026-06-28T06:01:28.000Z</time>
      </trkpt>
      <trkpt lat="42.75254" lon="1.51377">
        <ele>1482</ele>
        <time>2026-06-28T06:01:29.000Z</time>
      </trkpt>
      <trkpt lat="42.75255" lon="1.5138">
        <ele>1482</ele>
        <time>2026-06-28T06:01:30.000Z</time>
      </trkpt>
      <trkpt lat="42.75256" lon="1.51383">
        <ele>1481</ele>
        <time>2026-06-28T06:01:31.000Z</time>
      </trkpt>
      <trkpt lat="42.75256" lon="1.51386">
        <ele>1482</ele>
        <time>2026-06-28T06:01:32.000Z</time>
      </trkpt>
      <trkpt lat="42.75258" lon="1.51389">
        <ele>1482</ele>
        <time>2026-06-28T06:01:33.000Z</time>
      </trkpt>
      <trkpt lat="42.75259" lon="1.51392">
        <ele>1482</ele>
        <time>2026-06-28T06:01:34.000Z</time>
      </trkpt>
      <trkpt lat="42.7526" lon="1.51395">
        <ele>1482</ele>
        <time>2026-06-28T06:01:35.000Z</time>
      </trkpt>
      <trkpt lat="42.75261" lon="1.51398">
        <ele>1482</ele>
        <time>2026-06-28T06:01:36.000Z</time>
      </trkpt>
      <trkpt lat="42.75261" lon="1.514">
        <ele>1482</ele>
        <time>2026-06-28T06:01:37.000Z</time>
      </trkpt>
      <trkpt lat="42.75262" lon="1.51403">
        <ele>1481</ele>
        <time>2026-06-28T06:01:38.000Z</time>
      </trkpt>
      <trkpt lat="42.75264" lon="1.51406">
        <ele>1481</ele>
        <time>2026-06-28T06:01:39.000Z</time>
      </trkpt>
      <trkpt lat="42.75265" lon="1.51409">
        <ele>1481</ele>
        <time>2026-06-28T06:01:40.000Z</time>
      </trkpt>
      <trkpt lat="42.75266" lon="1.51413">
        <ele>1481</ele>
        <time>2026-06-28T06:01:41.000Z</time>
      </trkpt>
      <trkpt lat="42.75267" lon="1.51416">
        <ele>1480</ele>
        <time>2026-06-28T06:01:42.000Z</time>
      </trkpt>
      <trkpt lat="42.75268" lon="1.51418">
        <ele>1481</ele>
        <time>2026-06-28T06:01:43.000Z</time>
      </trkpt>
      <trkpt lat="42.75269" lon="1.5142">
        <ele>1481</ele>
        <time>2026-06-28T06:01:44.000Z</time>
      </trkpt>
      <trkpt lat="42.7527" lon="1.51422">
        <ele>1480</ele>
        <time>2026-06-28T06:01:45.000Z</time>
      </trkpt>
      <trkpt lat="42.75271" lon="1.51426">
        <ele>1480</ele>
        <time>2026-06-28T06:01:46.000Z</time>
      </trkpt>
      <trkpt lat="42.75274" lon="1.5143">
        <ele>1480</ele>
        <time>2026-06-28T06:01:47.000Z</time>
      </trkpt>
      <trkpt lat="42.75276" lon="1.51434">
        <ele>1480</ele>
        <time>2026-06-28T06:01:48.000Z</time>
      </trkpt>
      <trkpt lat="42.75279" lon="1.51437">
        <ele>1480</ele>
        <time>2026-06-28T06:01:49.000Z</time>
      </trkpt>
      <trkpt lat="42.75282" lon="1.51442">
        <ele>1479</ele>
        <time>2026-06-28T06:01:50.000Z</time>
      </trkpt>
      <trkpt lat="42.75287" lon="1.51448">
        <ele>1479</ele>
        <time>2026-06-28T06:01:51.000Z</time>
      </trkpt>
      <trkpt lat="42.75291" lon="1.51454">
        <ele>1479</ele>
        <time>2026-06-28T06:01:52.000Z</time>
      </trkpt>
      <trkpt lat="42.75295" lon="1.51457">
        <ele>1479</ele>
        <time>2026-06-28T06:01:53.000Z</time>
      </trkpt>
      <trkpt lat="42.75298" lon="1.51461">
        <ele>1479</ele>
        <time>2026-06-28T06:01:54.000Z</time>
      </trkpt>
      <trkpt lat="42.75298" lon="1.51464">
        <ele>1479</ele>
        <time>2026-06-28T06:01:55.000Z</time>
      </trkpt>
      <trkpt lat="42.753" lon="1.51466">
        <ele>1479</ele>
        <time>2026-06-28T06:01:56.000Z</time>
      </trkpt>
      <trkpt lat="42.75302" lon="1.51468">
        <ele>1479</ele>
        <time>2026-06-28T06:01:57.000Z</time>
      </trkpt>
      <trkpt lat="42.75305" lon="1.5147">
        <ele>1479</ele>
        <time>2026-06-28T06:01:58.000Z</time>
      </trkpt>
      <trkpt lat="42.75307" lon="1.51471">
        <ele>1479</ele>
        <time>2026-06-28T06:01:59.000Z</time>
      </trkpt>
      <trkpt lat="42.75309" lon="1.51473">
        <ele>1478</ele>
        <time>2026-06-28T06:02:00.000Z</time>
      </trkpt>
      <trkpt lat="42.75311" lon="1.51475">
        <ele>1478</ele>
        <time>2026-06-28T06:02:01.000Z</time>
      </trkpt>
      <trkpt lat="42.75312" lon="1.51475">
        <ele>1479</ele>
        <time>2026-06-28T06:02:02.000Z</time>
      </trkpt>
      <trkpt lat="42.75314" lon="1.51477">
        <ele>1479</ele>
        <time>2026-06-28T06:02:03.000Z</time>
      </trkpt>
      <trkpt lat="42.75316" lon="1.51478">
        <ele>1479</ele>
        <time>2026-06-28T06:02:04.000Z</time>
      </trkpt>
      <trkpt lat="42.75318" lon="1.51481">
        <ele>1479</ele>
        <time>2026-06-28T06:02:05.000Z</time>
      </trkpt>
      <trkpt lat="42.75319" lon="1.51485">
        <ele>1479</ele>
        <time>2026-06-28T06:02:06.000Z</time>
      </trkpt>
      <trkpt lat="42.75321" lon="1.51489">
        <ele>1479</ele>
        <time>2026-06-28T06:02:07.000Z</time>
      </trkpt>
      <trkpt lat="42.75323" lon="1.51492">
        <ele>1479</ele>
        <time>2026-06-28T06:02:08.000Z</time>
      </trkpt>
      <trkpt lat="42.75324" lon="1.51495">
        <ele>1478</ele>
        <time>2026-06-28T06:02:09.000Z</time>
      </trkpt>
      <trkpt lat="42.75325" lon="1.51497">
        <ele>1478</ele>
        <time>2026-06-28T06:02:10.000Z</time>
      </trkpt>
      <trkpt lat="42.75328" lon="1.51499">
        <ele>1478</ele>
        <time>2026-06-28T06:02:11.000Z</time>
      </trkpt>
      <trkpt lat="42.7533" lon="1.51501">
        <ele>1479</ele>
        <time>2026-06-28T06:02:12.000Z</time>
      </trkpt>
      <trkpt lat="42.75332" lon="1.51502">
        <ele>1479</ele>
        <time>2026-06-28T06:02:13.000Z</time>
      </trkpt>
      <trkpt lat="42.75335" lon="1.51503">
        <ele>1479</ele>
        <time>2026-06-28T06:02:14.000Z</time>
      </trkpt>
      <trkpt lat="42.75338" lon="1.51504">
        <ele>1480</ele>
        <time>2026-06-28T06:02:15.000Z</time>
      </trkpt>
      <trkpt lat="42.75342" lon="1.51505">
        <ele>1480</ele>
        <time>2026-06-28T06:02:16.000Z</time>
      </trkpt>
      <trkpt lat="42.75345" lon="1.51505">
        <ele>1480</ele>
        <time>2026-06-28T06:02:17.000Z</time>
      </trkpt>
      <trkpt lat="42.75348" lon="1.51506">
        <ele>1480</ele>
        <time>2026-06-28T06:02:18.000Z</time>
      </trkpt>
      <trkpt lat="42.75353" lon="1.51506">
        <ele>1480</ele>
        <time>2026-06-28T06:02:19.000Z</time>
      </trkpt>
      <trkpt lat="42.75357" lon="1.51507">
        <ele>1481</ele>
        <time>2026-06-28T06:02:20.000Z</time>
      </trkpt>
      <trkpt lat="42.75362" lon="1.51506">
        <ele>1480</ele>
        <time>2026-06-28T06:02:21.000Z</time>
      </trkpt>
      <trkpt lat="42.75366" lon="1.51506">
        <ele>1481</ele>
        <time>2026-06-28T06:02:22.000Z</time>
      </trkpt>
      <trkpt lat="42.75369" lon="1.51504">
        <ele>1482</ele>
        <time>2026-06-28T06:02:23.000Z</time>
      </trkpt>
      <trkpt lat="42.75371" lon="1.51505">
        <ele>1483</ele>
        <time>2026-06-28T06:02:24.000Z</time>
      </trkpt>
      <trkpt lat="42.75373" lon="1.51506">
        <ele>1484</ele>
        <time>2026-06-28T06:02:25.000Z</time>
      </trkpt>
      <trkpt lat="42.75376" lon="1.51505">
        <ele>1484</ele>
        <time>2026-06-28T06:02:26.000Z</time>
      </trkpt>
      <trkpt lat="42.75379" lon="1.51505">
        <ele>1484</ele>
        <time>2026-06-28T06:02:27.000Z</time>
      </trkpt>
      <trkpt lat="42.75384" lon="1.51506">
        <ele>1485</ele>
        <time>2026-06-28T06:02:28.000Z</time>
      </trkpt>
      <trkpt lat="42.75387" lon="1.51505">
        <ele>1485</ele>
        <time>2026-06-28T06:02:29.000Z</time>
      </trkpt>
      <trkpt lat="42.75392" lon="1.51504">
        <ele>1486</ele>
        <time>2026-06-28T06:02:30.000Z</time>
      </trkpt>
      <trkpt lat="42.75395" lon="1.51504">
        <ele>1486</ele>
        <time>2026-06-28T06:02:31.000Z</time>
      </trkpt>
      <trkpt lat="42.754" lon="1.51502">
        <ele>1485</ele>
        <time>2026-06-28T06:02:32.000Z</time>
      </trkpt>
      <trkpt lat="42.75404" lon="1.515">
        <ele>1485</ele>
        <time>2026-06-28T06:02:33.000Z</time>
      </trkpt>
      <trkpt lat="42.75407" lon="1.515">
        <ele>1484</ele>
        <time>2026-06-28T06:02:34.000Z</time>
      </trkpt>
      <trkpt lat="42.7541" lon="1.515">
        <ele>1484</ele>
        <time>2026-06-28T06:02:35.000Z</time>
      </trkpt>
      <trkpt lat="42.75413" lon="1.515">
        <ele>1484</ele>
        <time>2026-06-28T06:02:36.000Z</time>
      </trkpt>
      <trkpt lat="42.75416" lon="1.51499">
        <ele>1483</ele>
        <time>2026-06-28T06:02:37.000Z</time>
      </trkpt>
      <trkpt lat="42.7542" lon="1.51498">
        <ele>1483</ele>
        <time>2026-06-28T06:02:38.000Z</time>
      </trkpt>
      <trkpt lat="42.75423" lon="1.51498">
        <ele>1483</ele>
        <time>2026-06-28T06:02:39.000Z</time>
      </trkpt>
      <trkpt lat="42.75427" lon="1.51496">
        <ele>1483</ele>
        <time>2026-06-28T06:02:40.000Z</time>
      </trkpt>
      <trkpt lat="42.75432" lon="1.51495">
        <ele>1483</ele>
        <time>2026-06-28T06:02:41.000Z</time>
      </trkpt>
      <trkpt lat="42.75436" lon="1.51493">
        <ele>1483</ele>
        <time>2026-06-28T06:02:42.000Z</time>
      </trkpt>
      <trkpt lat="42.7544" lon="1.51489">
        <ele>1482</ele>
        <time>2026-06-28T06:02:43.000Z</time>
      </trkpt>
      <trkpt lat="42.75444" lon="1.51487">
        <ele>1482</ele>
        <time>2026-06-28T06:02:44.000Z</time>
      </trkpt>
      <trkpt lat="42.75449" lon="1.51485">
        <ele>1481</ele>
        <time>2026-06-28T06:02:45.000Z</time>
      </trkpt>
      <trkpt lat="42.75454" lon="1.51484">
        <ele>1481</ele>
        <time>2026-06-28T06:02:46.000Z</time>
      </trkpt>
      <trkpt lat="42.75458" lon="1.51481">
        <ele>1481</ele>
        <time>2026-06-28T06:02:47.000Z</time>
      </trkpt>
      <trkpt lat="42.75463" lon="1.51479">
        <ele>1481</ele>
        <time>2026-06-28T06:02:48.000Z</time>
      </trkpt>
      <trkpt lat="42.75467" lon="1.51476">
        <ele>1481</ele>
        <time>2026-06-28T06:02:49.000Z</time>
      </trkpt>
      <trkpt lat="42.75472" lon="1.51474">
        <ele>1480</ele>
        <time>2026-06-28T06:02:50.000Z</time>
      </trkpt>
      <trkpt lat="42.75476" lon="1.51473">
        <ele>1479</ele>
        <time>2026-06-28T06:02:51.000Z</time>
      </trkpt>
      <trkpt lat="42.7548" lon="1.51472">
        <ele>1479</ele>
        <time>2026-06-28T06:02:52.000Z</time>
      </trkpt>
      <trkpt lat="42.75484" lon="1.51473">
        <ele>1479</ele>
        <time>2026-06-28T06:02:53.000Z</time>
      </trkpt>
      <trkpt lat="42.75488" lon="1.51474">
        <ele>1478</ele>
        <time>2026-06-28T06:02:54.000Z</time>
      </trkpt>
      <trkpt lat="42.75492" lon="1.51475">
        <ele>1478</ele>
        <time>2026-06-28T06:02:55.000Z</time>
      </trkpt>
      <trkpt lat="42.75495" lon="1.51475">
        <ele>1478</ele>
        <time>2026-06-28T06:02:56.000Z</time>
      </trkpt>
      <trkpt lat="42.75499" lon="1.51476">
        <ele>1478</ele>
        <time>2026-06-28T06:02:57.000Z</time>
      </trkpt>
      <trkpt lat="42.75503" lon="1.51476">
        <ele>1478</ele>
        <time>2026-06-28T06:02:58.000Z</time>
      </trkpt>
      <trkpt lat="42.75508" lon="1.51477">
        <ele>1478</ele>
        <time>2026-06-28T06:02:59.000Z</time>
      </trkpt>
      <trkpt lat="42.75512" lon="1.51477">
        <ele>1477</ele>
        <time>2026-06-28T06:03:00.000Z</time>
      </trkpt>
      <trkpt lat="42.75517" lon="1.51479">
        <ele>1477</ele>
        <time>2026-06-28T06:03:01.000Z</time>
      </trkpt>
      <trkpt lat="42.75522" lon="1.51481">
        <ele>1477</ele>
        <time>2026-06-28T06:03:02.000Z</time>
      </trkpt>
      <trkpt lat="42.75527" lon="1.51482">
        <ele>1476</ele>
        <time>2026-06-28T06:03:03.000Z</time>
      </trkpt>
      <trkpt lat="42.75532" lon="1.51483">
        <ele>1476</ele>
        <time>2026-06-28T06:03:04.000Z</time>
      </trkpt>
      <trkpt lat="42.75536" lon="1.51482">
        <ele>1476</ele>
        <time>2026-06-28T06:03:05.000Z</time>
      </trkpt>
      <trkpt lat="42.7554" lon="1.51483">
        <ele>1475</ele>
        <time>2026-06-28T06:03:06.000Z</time>
      </trkpt>
      <trkpt lat="42.75542" lon="1.51483">
        <ele>1475</ele>
        <time>2026-06-28T06:03:07.000Z</time>
      </trkpt>
      <trkpt lat="42.75545" lon="1.51483">
        <ele>1475</ele>
        <time>2026-06-28T06:03:08.000Z</time>
      </trkpt>
      <trkpt lat="42.75548" lon="1.51483">
        <ele>1476</ele>
        <time>2026-06-28T06:03:09.000Z</time>
      </trkpt>
      <trkpt lat="42.75551" lon="1.51483">
        <ele>1476</ele>
        <time>2026-06-28T06:03:10.000Z</time>
      </trkpt>
      <trkpt lat="42.75555" lon="1.51483">
        <ele>1476</ele>
        <time>2026-06-28T06:03:11.000Z</time>
      </trkpt>
      <trkpt lat="42.75558" lon="1.51483">
        <ele>1476</ele>
        <time>2026-06-28T06:03:12.000Z</time>
      </trkpt>
      <trkpt lat="42.75562" lon="1.51484">
        <ele>1476</ele>
        <time>2026-06-28T06:03:13.000Z</time>
      </trkpt>
      <trkpt lat="42.75566" lon="1.51484">
        <ele>1476</ele>
        <time>2026-06-28T06:03:14.000Z</time>
      </trkpt>
      <trkpt lat="42.7557" lon="1.51484">
        <ele>1477</ele>
        <time>2026-06-28T06:03:15.000Z</time>
      </trkpt>
      <trkpt lat="42.75574" lon="1.51484">
        <ele>1477</ele>
        <time>2026-06-28T06:03:16.000Z</time>
      </trkpt>
      <trkpt lat="42.75577" lon="1.51484">
        <ele>1477</ele>
        <time>2026-06-28T06:03:17.000Z</time>
      </trkpt>
      <trkpt lat="42.75581" lon="1.51484">
        <ele>1477</ele>
        <time>2026-06-28T06:03:18.000Z</time>
      </trkpt>
      <trkpt lat="42.75585" lon="1.51483">
        <ele>1478</ele>
        <time>2026-06-28T06:03:19.000Z</time>
      </trkpt>
      <trkpt lat="42.75589" lon="1.51483">
        <ele>1478</ele>
        <time>2026-06-28T06:03:20.000Z</time>
      </trkpt>
      <trkpt lat="42.75593" lon="1.51482">
        <ele>1478</ele>
        <time>2026-06-28T06:03:21.000Z</time>
      </trkpt>
      <trkpt lat="42.75597" lon="1.51481">
        <ele>1478</ele>
        <time>2026-06-28T06:03:22.000Z</time>
      </trkpt>
      <trkpt lat="42.75601" lon="1.51481">
        <ele>1478</ele>
        <time>2026-06-28T06:03:23.000Z</time>
      </trkpt>
      <trkpt lat="42.75604" lon="1.5148">
        <ele>1478</ele>
        <time>2026-06-28T06:03:24.000Z</time>
      </trkpt>
      <trkpt lat="42.75608" lon="1.5148">
        <ele>1478</ele>
        <time>2026-06-28T06:03:25.000Z</time>
      </trkpt>
      <trkpt lat="42.75611" lon="1.5148">
        <ele>1479</ele>
        <time>2026-06-28T06:03:26.000Z</time>
      </trkpt>
      <trkpt lat="42.75614" lon="1.5148">
        <ele>1479</ele>
        <time>2026-06-28T06:03:27.000Z</time>
      </trkpt>
      <trkpt lat="42.75618" lon="1.51479">
        <ele>1479</ele>
        <time>2026-06-28T06:03:28.000Z</time>
      </trkpt>
      <trkpt lat="42.75622" lon="1.51478">
        <ele>1479</ele>
        <time>2026-06-28T06:03:29.000Z</time>
      </trkpt>
      <trkpt lat="42.75627" lon="1.51478">
        <ele>1479</ele>
        <time>2026-06-28T06:03:30.000Z</time>
      </trkpt>
      <trkpt lat="42.75631" lon="1.51477">
        <ele>1478</ele>
        <time>2026-06-28T06:03:31.000Z</time>
      </trkpt>
      <trkpt lat="42.75634" lon="1.51476">
        <ele>1478</ele>
        <time>2026-06-28T06:03:32.000Z</time>
      </trkpt>
      <trkpt lat="42.75638" lon="1.51475">
        <ele>1478</ele>
        <time>2026-06-28T06:03:33.000Z</time>
      </trkpt>
      <trkpt lat="42.75641" lon="1.51474">
        <ele>1478</ele>
        <time>2026-06-28T06:03:34.000Z</time>
      </trkpt>
      <trkpt lat="42.75645" lon="1.51472">
        <ele>1478</ele>
        <time>2026-06-28T06:03:35.000Z</time>
      </trkpt>
      <trkpt lat="42.75649" lon="1.51471">
        <ele>1478</ele>
        <time>2026-06-28T06:03:36.000Z</time>
      </trkpt>
      <trkpt lat="42.75652" lon="1.51471">
        <ele>1478</ele>
        <time>2026-06-28T06:03:37.000Z</time>
      </trkpt>
      <trkpt lat="42.75655" lon="1.5147">
        <ele>1478</ele>
        <time>2026-06-28T06:03:38.000Z</time>
      </trkpt>
      <trkpt lat="42.75659" lon="1.51469">
        <ele>1477</ele>
        <time>2026-06-28T06:03:39.000Z</time>
      </trkpt>
      <trkpt lat="42.75662" lon="1.51469">
        <ele>1477</ele>
        <time>2026-06-28T06:03:40.000Z</time>
      </trkpt>
      <trkpt lat="42.75665" lon="1.51468">
        <ele>1476</ele>
        <time>2026-06-28T06:03:41.000Z</time>
      </trkpt>
      <trkpt lat="42.75668" lon="1.51467">
        <ele>1476</ele>
        <time>2026-06-28T06:03:42.000Z</time>
      </trkpt>
      <trkpt lat="42.75672" lon="1.51466">
        <ele>1476</ele>
        <time>2026-06-28T06:03:43.000Z</time>
      </trkpt>
      <trkpt lat="42.75675" lon="1.51464">
        <ele>1476</ele>
        <time>2026-06-28T06:03:44.000Z</time>
      </trkpt>
      <trkpt lat="42.75679" lon="1.51462">
        <ele>1476</ele>
        <time>2026-06-28T06:03:45.000Z</time>
      </trkpt>
      <trkpt lat="42.75683" lon="1.5146">
        <ele>1476</ele>
        <time>2026-06-28T06:03:46.000Z</time>
      </trkpt>
      <trkpt lat="42.75688" lon="1.51459">
        <ele>1476</ele>
        <time>2026-06-28T06:03:47.000Z</time>
      </trkpt>
      <trkpt lat="42.75691" lon="1.51457">
        <ele>1476</ele>
        <time>2026-06-28T06:03:48.000Z</time>
      </trkpt>
      <trkpt lat="42.75694" lon="1.51454">
        <ele>1476</ele>
        <time>2026-06-28T06:03:49.000Z</time>
      </trkpt>
      <trkpt lat="42.75698" lon="1.5145">
        <ele>1476</ele>
        <time>2026-06-28T06:03:50.000Z</time>
      </trkpt>
      <trkpt lat="42.75702" lon="1.51446">
        <ele>1476</ele>
        <time>2026-06-28T06:03:51.000Z</time>
      </trkpt>
      <trkpt lat="42.75705" lon="1.51444">
        <ele>1475</ele>
        <time>2026-06-28T06:03:52.000Z</time>
      </trkpt>
      <trkpt lat="42.75708" lon="1.51442">
        <ele>1475</ele>
        <time>2026-06-28T06:03:53.000Z</time>
      </trkpt>
      <trkpt lat="42.7571" lon="1.5144">
        <ele>1475</ele>
        <time>2026-06-28T06:03:54.000Z</time>
      </trkpt>
      <trkpt lat="42.75712" lon="1.51439">
        <ele>1475</ele>
        <time>2026-06-28T06:03:55.000Z</time>
      </trkpt>
      <trkpt lat="42.75716" lon="1.51437">
        <ele>1476</ele>
        <time>2026-06-28T06:03:56.000Z</time>
      </trkpt>
      <trkpt lat="42.75718" lon="1.51436">
        <ele>1476</ele>
        <time>2026-06-28T06:03:57.000Z</time>
      </trkpt>
      <trkpt lat="42.7572" lon="1.51434">
        <ele>1476</ele>
        <time>2026-06-28T06:03:58.000Z</time>
      </trkpt>
      <trkpt lat="42.75722" lon="1.51433">
        <ele>1476</ele>
        <time>2026-06-28T06:03:59.000Z</time>
      </trkpt>
      <trkpt lat="42.75724" lon="1.51432">
        <ele>1476</ele>
        <time>2026-06-28T06:04:00.000Z</time>
      </trkpt>
      <trkpt lat="42.75727" lon="1.5143">
        <ele>1476</ele>
        <time>2026-06-28T06:04:01.000Z</time>
      </trkpt>
      <trkpt lat="42.7573" lon="1.51429">
        <ele>1476</ele>
        <time>2026-06-28T06:04:02.000Z</time>
      </trkpt>
      <trkpt lat="42.75732" lon="1.51428">
        <ele>1475</ele>
        <time>2026-06-28T06:04:03.000Z</time>
      </trkpt>
      <trkpt lat="42.75735" lon="1.51426">
        <ele>1475</ele>
        <time>2026-06-28T06:04:04.000Z</time>
      </trkpt>
      <trkpt lat="42.75737" lon="1.51424">
        <ele>1475</ele>
        <time>2026-06-28T06:04:05.000Z</time>
      </trkpt>
      <trkpt lat="42.75739" lon="1.51422">
        <ele>1475</ele>
        <time>2026-06-28T06:04:06.000Z</time>
      </trkpt>
      <trkpt lat="42.75741" lon="1.51419">
        <ele>1475</ele>
        <time>2026-06-28T06:04:07.000Z</time>
      </trkpt>
      <trkpt lat="42.75743" lon="1.51416">
        <ele>1475</ele>
        <time>2026-06-28T06:04:08.000Z</time>
      </trkpt>
      <trkpt lat="42.75745" lon="1.51413">
        <ele>1475</ele>
        <time>2026-06-28T06:04:09.000Z</time>
      </trkpt>
      <trkpt lat="42.75748" lon="1.51411">
        <ele>1475</ele>
        <time>2026-06-28T06:04:10.000Z</time>
      </trkpt>
      <trkpt lat="42.7575" lon="1.51409">
        <ele>1475</ele>
        <time>2026-06-28T06:04:11.000Z</time>
      </trkpt>
      <trkpt lat="42.75753" lon="1.51405">
        <ele>1475</ele>
        <time>2026-06-28T06:04:12.000Z</time>
      </trkpt>
      <trkpt lat="42.75756" lon="1.51402">
        <ele>1475</ele>
        <time>2026-06-28T06:04:13.000Z</time>
      </trkpt>
      <trkpt lat="42.75759" lon="1.514">
        <ele>1476</ele>
        <time>2026-06-28T06:04:14.000Z</time>
      </trkpt>
      <trkpt lat="42.75763" lon="1.51397">
        <ele>1476</ele>
        <time>2026-06-28T06:04:15.000Z</time>
      </trkpt>
      <trkpt lat="42.75766" lon="1.51394">
        <ele>1476</ele>
        <time>2026-06-28T06:04:16.000Z</time>
      </trkpt>
      <trkpt lat="42.75769" lon="1.51389">
        <ele>1475</ele>
        <time>2026-06-28T06:04:17.000Z</time>
      </trkpt>
      <trkpt lat="42.75772" lon="1.51386">
        <ele>1474</ele>
        <time>2026-06-28T06:04:18.000Z</time>
      </trkpt>
      <trkpt lat="42.75775" lon="1.51383">
        <ele>1474</ele>
        <time>2026-06-28T06:04:19.000Z</time>
      </trkpt>
      <trkpt lat="42.75778" lon="1.51379">
        <ele>1474</ele>
        <time>2026-06-28T06:04:20.000Z</time>
      </trkpt>
      <trkpt lat="42.75782" lon="1.51375">
        <ele>1474</ele>
        <time>2026-06-28T06:04:21.000Z</time>
      </trkpt>
      <trkpt lat="42.75786" lon="1.51372">
        <ele>1474</ele>
        <time>2026-06-28T06:04:22.000Z</time>
      </trkpt>
      <trkpt lat="42.7579" lon="1.51369">
        <ele>1475</ele>
        <time>2026-06-28T06:04:23.000Z</time>
      </trkpt>
      <trkpt lat="42.75795" lon="1.51366">
        <ele>1475</ele>
        <time>2026-06-28T06:04:24.000Z</time>
      </trkpt>
      <trkpt lat="42.75799" lon="1.51365">
        <ele>1474</ele>
        <time>2026-06-28T06:04:25.000Z</time>
      </trkpt>
      <trkpt lat="42.75804" lon="1.51363">
        <ele>1475</ele>
        <time>2026-06-28T06:04:26.000Z</time>
      </trkpt>
      <trkpt lat="42.75809" lon="1.51361">
        <ele>1474</ele>
        <time>2026-06-28T06:04:27.000Z</time>
      </trkpt>
      <trkpt lat="42.75813" lon="1.51359">
        <ele>1475</ele>
        <time>2026-06-28T06:04:28.000Z</time>
      </trkpt>
      <trkpt lat="42.75817" lon="1.51357">
        <ele>1475</ele>
        <time>2026-06-28T06:04:29.000Z</time>
      </trkpt>
      <trkpt lat="42.75822" lon="1.51355">
        <ele>1475</ele>
        <time>2026-06-28T06:04:30.000Z</time>
      </trkpt>
      <trkpt lat="42.75825" lon="1.51354">
        <ele>1475</ele>
        <time>2026-06-28T06:04:31.000Z</time>
      </trkpt>
      <trkpt lat="42.75831" lon="1.51351">
        <ele>1475</ele>
        <time>2026-06-28T06:04:32.000Z</time>
      </trkpt>
      <trkpt lat="42.75835" lon="1.51349">
        <ele>1476</ele>
        <time>2026-06-28T06:04:33.000Z</time>
      </trkpt>
      <trkpt lat="42.75839" lon="1.51347">
        <ele>1475</ele>
        <time>2026-06-28T06:04:34.000Z</time>
      </trkpt>
      <trkpt lat="42.75843" lon="1.51345">
        <ele>1475</ele>
        <time>2026-06-28T06:04:35.000Z</time>
      </trkpt>
      <trkpt lat="42.75847" lon="1.51343">
        <ele>1475</ele>
        <time>2026-06-28T06:04:36.000Z</time>
      </trkpt>
      <trkpt lat="42.7585" lon="1.51341">
        <ele>1475</ele>
        <time>2026-06-28T06:04:37.000Z</time>
      </trkpt>
      <trkpt lat="42.75853" lon="1.51339">
        <ele>1476</ele>
        <time>2026-06-28T06:04:38.000Z</time>
      </trkpt>
      <trkpt lat="42.75855" lon="1.51337">
        <ele>1476</ele>
        <time>2026-06-28T06:04:39.000Z</time>
      </trkpt>
      <trkpt lat="42.75858" lon="1.51336">
        <ele>1476</ele>
        <time>2026-06-28T06:04:40.000Z</time>
      </trkpt>
      <trkpt lat="42.75861" lon="1.51333">
        <ele>1476</ele>
        <time>2026-06-28T06:04:41.000Z</time>
      </trkpt>
      <trkpt lat="42.75865" lon="1.51329">
        <ele>1475</ele>
        <time>2026-06-28T06:04:42.000Z</time>
      </trkpt>
      <trkpt lat="42.75871" lon="1.51321">
        <ele>1473</ele>
        <time>2026-06-28T06:04:43.000Z</time>
      </trkpt>
      <trkpt lat="42.75876" lon="1.51314">
        <ele>1472</ele>
        <time>2026-06-28T06:04:44.000Z</time>
      </trkpt>
      <trkpt lat="42.75881" lon="1.51306">
        <ele>1470</ele>
        <time>2026-06-28T06:04:45.000Z</time>
      </trkpt>
      <trkpt lat="42.75885" lon="1.513">
        <ele>1468</ele>
        <time>2026-06-28T06:04:46.000Z</time>
      </trkpt>
      <trkpt lat="42.75886" lon="1.51292">
        <ele>1467</ele>
        <time>2026-06-28T06:04:47.000Z</time>
      </trkpt>
      <trkpt lat="42.75887" lon="1.51285">
        <ele>1465</ele>
        <time>2026-06-28T06:04:48.000Z</time>
      </trkpt>
      <trkpt lat="42.75888" lon="1.51278">
        <ele>1464</ele>
        <time>2026-06-28T06:04:49.000Z</time>
      </trkpt>
      <trkpt lat="42.75889" lon="1.51272">
        <ele>1464</ele>
        <time>2026-06-28T06:04:50.000Z</time>
      </trkpt>
      <trkpt lat="42.75889" lon="1.51264">
        <ele>1463</ele>
        <time>2026-06-28T06:04:51.000Z</time>
      </trkpt>
      <trkpt lat="42.75891" lon="1.51258">
        <ele>1463</ele>
        <time>2026-06-28T06:04:52.000Z</time>
      </trkpt>
      <trkpt lat="42.75892" lon="1.5125">
        <ele>1462</ele>
        <time>2026-06-28T06:04:53.000Z</time>
      </trkpt>
      <trkpt lat="42.75894" lon="1.51244">
        <ele>1462</ele>
        <time>2026-06-28T06:04:54.000Z</time>
      </trkpt>
      <trkpt lat="42.75896" lon="1.51239">
        <ele>1462</ele>
        <time>2026-06-28T06:04:55.000Z</time>
      </trkpt>
      <trkpt lat="42.75899" lon="1.51232">
        <ele>1462</ele>
        <time>2026-06-28T06:04:56.000Z</time>
      </trkpt>
      <trkpt lat="42.75901" lon="1.51225">
        <ele>1461</ele>
        <time>2026-06-28T06:04:57.000Z</time>
      </trkpt>
      <trkpt lat="42.75903" lon="1.51218">
        <ele>1460</ele>
        <time>2026-06-28T06:04:58.000Z</time>
      </trkpt>
      <trkpt lat="42.75905" lon="1.51211">
        <ele>1459</ele>
        <time>2026-06-28T06:04:59.000Z</time>
      </trkpt>
      <trkpt lat="42.75906" lon="1.51205">
        <ele>1459</ele>
        <time>2026-06-28T06:05:00.000Z</time>
      </trkpt>
      <trkpt lat="42.75907" lon="1.51201">
        <ele>1458</ele>
        <time>2026-06-28T06:05:01.000Z</time>
      </trkpt>
      <trkpt lat="42.75909" lon="1.51196">
        <ele>1458</ele>
        <time>2026-06-28T06:05:02.000Z</time>
      </trkpt>
      <trkpt lat="42.7591" lon="1.5119">
        <ele>1456</ele>
        <time>2026-06-28T06:05:03.000Z</time>
      </trkpt>
      <trkpt lat="42.7591" lon="1.51186">
        <ele>1455</ele>
        <time>2026-06-28T06:05:04.000Z</time>
      </trkpt>
      <trkpt lat="42.75912" lon="1.5118">
        <ele>1455</ele>
        <time>2026-06-28T06:05:05.000Z</time>
      </trkpt>
      <trkpt lat="42.75915" lon="1.51175">
        <ele>1455</ele>
        <time>2026-06-28T06:05:06.000Z</time>
      </trkpt>
      <trkpt lat="42.75917" lon="1.51169">
        <ele>1454</ele>
        <time>2026-06-28T06:05:07.000Z</time>
      </trkpt>
      <trkpt lat="42.75919" lon="1.51163">
        <ele>1453</ele>
        <time>2026-06-28T06:05:08.000Z</time>
      </trkpt>
      <trkpt lat="42.75921" lon="1.51157">
        <ele>1453</ele>
        <time>2026-06-28T06:05:09.000Z</time>
      </trkpt>
      <trkpt lat="42.75923" lon="1.51151">
        <ele>1452</ele>
        <time>2026-06-28T06:05:10.000Z</time>
      </trkpt>
      <trkpt lat="42.75925" lon="1.51145">
        <ele>1450</ele>
        <time>2026-06-28T06:05:11.000Z</time>
      </trkpt>
      <trkpt lat="42.75926" lon="1.5114">
        <ele>1450</ele>
        <time>2026-06-28T06:05:12.000Z</time>
      </trkpt>
      <trkpt lat="42.75928" lon="1.51135">
        <ele>1450</ele>
        <time>2026-06-28T06:05:13.000Z</time>
      </trkpt>
      <trkpt lat="42.7593" lon="1.51131">
        <ele>1449</ele>
        <time>2026-06-28T06:05:14.000Z</time>
      </trkpt>
      <trkpt lat="42.75931" lon="1.51126">
        <ele>1449</ele>
        <time>2026-06-28T06:05:15.000Z</time>
      </trkpt>
      <trkpt lat="42.75932" lon="1.51122">
        <ele>1449</ele>
        <time>2026-06-28T06:05:16.000Z</time>
      </trkpt>
      <trkpt lat="42.75934" lon="1.51119">
        <ele>1448</ele>
        <time>2026-06-28T06:05:17.000Z</time>
      </trkpt>
      <trkpt lat="42.75936" lon="1.51115">
        <ele>1448</ele>
        <time>2026-06-28T06:05:18.000Z</time>
      </trkpt>
      <trkpt lat="42.75937" lon="1.51111">
        <ele>1448</ele>
        <time>2026-06-28T06:05:19.000Z</time>
      </trkpt>
      <trkpt lat="42.75939" lon="1.51107">
        <ele>1448</ele>
        <time>2026-06-28T06:05:20.000Z</time>
      </trkpt>
      <trkpt lat="42.75941" lon="1.51103">
        <ele>1448</ele>
        <time>2026-06-28T06:05:21.000Z</time>
      </trkpt>
      <trkpt lat="42.75943" lon="1.51099">
        <ele>1447</ele>
        <time>2026-06-28T06:05:22.000Z</time>
      </trkpt>
      <trkpt lat="42.75944" lon="1.51095">
        <ele>1447</ele>
        <time>2026-06-28T06:05:23.000Z</time>
      </trkpt>
      <trkpt lat="42.75946" lon="1.51092">
        <ele>1447</ele>
        <time>2026-06-28T06:05:24.000Z</time>
      </trkpt>
      <trkpt lat="42.75948" lon="1.51089">
        <ele>1446</ele>
        <time>2026-06-28T06:05:25.000Z</time>
      </trkpt>
      <trkpt lat="42.75949" lon="1.51086">
        <ele>1446</ele>
        <time>2026-06-28T06:05:26.000Z</time>
      </trkpt>
      <trkpt lat="42.7595" lon="1.51084">
        <ele>1446</ele>
        <time>2026-06-28T06:05:27.000Z</time>
      </trkpt>
      <trkpt lat="42.75951" lon="1.51082">
        <ele>1446</ele>
        <time>2026-06-28T06:05:28.000Z</time>
      </trkpt>
      <trkpt lat="42.75953" lon="1.5108">
        <ele>1446</ele>
        <time>2026-06-28T06:05:29.000Z</time>
      </trkpt>
      <trkpt lat="42.75955" lon="1.51078">
        <ele>1446</ele>
        <time>2026-06-28T06:05:30.000Z</time>
      </trkpt>
      <trkpt lat="42.75957" lon="1.51077">
        <ele>1446</ele>
        <time>2026-06-28T06:05:31.000Z</time>
      </trkpt>
      <trkpt lat="42.75959" lon="1.51076">
        <ele>1445</ele>
        <time>2026-06-28T06:05:32.000Z</time>
      </trkpt>
      <trkpt lat="42.75961" lon="1.51076">
        <ele>1445</ele>
        <time>2026-06-28T06:05:33.000Z</time>
      </trkpt>
      <trkpt lat="42.75963" lon="1.51077">
        <ele>1445</ele>
        <time>2026-06-28T06:05:34.000Z</time>
      </trkpt>
      <trkpt lat="42.75966" lon="1.51078">
        <ele>1446</ele>
        <time>2026-06-28T06:05:35.000Z</time>
      </trkpt>
      <trkpt lat="42.75968" lon="1.51079">
        <ele>1447</ele>
        <time>2026-06-28T06:05:36.000Z</time>
      </trkpt>
      <trkpt lat="42.7597" lon="1.51078">
        <ele>1447</ele>
        <time>2026-06-28T06:05:37.000Z</time>
      </trkpt>
      <trkpt lat="42.75972" lon="1.51076">
        <ele>1446</ele>
        <time>2026-06-28T06:05:38.000Z</time>
      </trkpt>
      <trkpt lat="42.75973" lon="1.51074">
        <ele>1446</ele>
        <time>2026-06-28T06:05:39.000Z</time>
      </trkpt>
      <trkpt lat="42.75975" lon="1.51073">
        <ele>1445</ele>
        <time>2026-06-28T06:05:40.000Z</time>
      </trkpt>
      <trkpt lat="42.75976" lon="1.51071">
        <ele>1445</ele>
        <time>2026-06-28T06:05:41.000Z</time>
      </trkpt>
      <trkpt lat="42.75977" lon="1.51071">
        <ele>1445</ele>
        <time>2026-06-28T06:05:42.000Z</time>
      </trkpt>
      <trkpt lat="42.75978" lon="1.51069">
        <ele>1444</ele>
        <time>2026-06-28T06:05:43.000Z</time>
      </trkpt>
      <trkpt lat="42.7598" lon="1.51067">
        <ele>1444</ele>
        <time>2026-06-28T06:05:44.000Z</time>
      </trkpt>
      <trkpt lat="42.75982" lon="1.51066">
        <ele>1444</ele>
        <time>2026-06-28T06:05:45.000Z</time>
      </trkpt>
      <trkpt lat="42.75985" lon="1.51064">
        <ele>1444</ele>
        <time>2026-06-28T06:05:46.000Z</time>
      </trkpt>
      <trkpt lat="42.75987" lon="1.51063">
        <ele>1444</ele>
        <time>2026-06-28T06:05:47.000Z</time>
      </trkpt>
      <trkpt lat="42.7599" lon="1.51061">
        <ele>1443</ele>
        <time>2026-06-28T06:05:48.000Z</time>
      </trkpt>
      <trkpt lat="42.75992" lon="1.5106">
        <ele>1442</ele>
        <time>2026-06-28T06:05:49.000Z</time>
      </trkpt>
      <trkpt lat="42.75995" lon="1.51059">
        <ele>1441</ele>
        <time>2026-06-28T06:05:50.000Z</time>
      </trkpt>
      <trkpt lat="42.75999" lon="1.51057">
        <ele>1441</ele>
        <time>2026-06-28T06:05:51.000Z</time>
      </trkpt>
      <trkpt lat="42.76002" lon="1.51056">
        <ele>1440</ele>
        <time>2026-06-28T06:05:52.000Z</time>
      </trkpt>
      <trkpt lat="42.76005" lon="1.51056">
        <ele>1440</ele>
        <time>2026-06-28T06:05:53.000Z</time>
      </trkpt>
      <trkpt lat="42.76008" lon="1.51055">
        <ele>1440</ele>
        <time>2026-06-28T06:05:54.000Z</time>
      </trkpt>
      <trkpt lat="42.76011" lon="1.51057">
        <ele>1439</ele>
        <time>2026-06-28T06:05:55.000Z</time>
      </trkpt>
      <trkpt lat="42.76014" lon="1.51058">
        <ele>1438</ele>
        <time>2026-06-28T06:05:56.000Z</time>
      </trkpt>
      <trkpt lat="42.76019" lon="1.51058">
        <ele>1438</ele>
        <time>2026-06-28T06:05:57.000Z</time>
      </trkpt>
      <trkpt lat="42.76024" lon="1.51057">
        <ele>1438</ele>
        <time>2026-06-28T06:05:58.000Z</time>
      </trkpt>
      <trkpt lat="42.7603" lon="1.51056">
        <ele>1437</ele>
        <time>2026-06-28T06:05:59.000Z</time>
      </trkpt>
      <trkpt lat="42.76036" lon="1.51055">
        <ele>1436</ele>
        <time>2026-06-28T06:06:00.000Z</time>
      </trkpt>
      <trkpt lat="42.76042" lon="1.51054">
        <ele>1436</ele>
        <time>2026-06-28T06:06:01.000Z</time>
      </trkpt>
      <trkpt lat="42.76046" lon="1.51051">
        <ele>1436</ele>
        <time>2026-06-28T06:06:02.000Z</time>
      </trkpt>
      <trkpt lat="42.76049" lon="1.51049">
        <ele>1435</ele>
        <time>2026-06-28T06:06:03.000Z</time>
      </trkpt>
      <trkpt lat="42.76052" lon="1.51048">
        <ele>1434</ele>
        <time>2026-06-28T06:06:04.000Z</time>
      </trkpt>
      <trkpt lat="42.76055" lon="1.51048">
        <ele>1434</ele>
        <time>2026-06-28T06:06:05.000Z</time>
      </trkpt>
      <trkpt lat="42.76059" lon="1.51049">
        <ele>1433</ele>
        <time>2026-06-28T06:06:06.000Z</time>
      </trkpt>
      <trkpt lat="42.76062" lon="1.51049">
        <ele>1433</ele>
        <time>2026-06-28T06:06:07.000Z</time>
      </trkpt>
      <trkpt lat="42.76066" lon="1.5105">
        <ele>1433</ele>
        <time>2026-06-28T06:06:08.000Z</time>
      </trkpt>
      <trkpt lat="42.76069" lon="1.5105">
        <ele>1433</ele>
        <time>2026-06-28T06:06:09.000Z</time>
      </trkpt>
      <trkpt lat="42.76074" lon="1.51051">
        <ele>1432</ele>
        <time>2026-06-28T06:06:10.000Z</time>
      </trkpt>
      <trkpt lat="42.76078" lon="1.51052">
        <ele>1431</ele>
        <time>2026-06-28T06:06:11.000Z</time>
      </trkpt>
      <trkpt lat="42.76083" lon="1.51051">
        <ele>1430</ele>
        <time>2026-06-28T06:06:12.000Z</time>
      </trkpt>
      <trkpt lat="42.76086" lon="1.5105">
        <ele>1430</ele>
        <time>2026-06-28T06:06:13.000Z</time>
      </trkpt>
      <trkpt lat="42.7609" lon="1.51049">
        <ele>1430</ele>
        <time>2026-06-28T06:06:14.000Z</time>
      </trkpt>
      <trkpt lat="42.76093" lon="1.51049">
        <ele>1430</ele>
        <time>2026-06-28T06:06:15.000Z</time>
      </trkpt>
      <trkpt lat="42.76096" lon="1.51048">
        <ele>1430</ele>
        <time>2026-06-28T06:06:16.000Z</time>
      </trkpt>
      <trkpt lat="42.76099" lon="1.51047">
        <ele>1429</ele>
        <time>2026-06-28T06:06:17.000Z</time>
      </trkpt>
      <trkpt lat="42.76101" lon="1.51046">
        <ele>1429</ele>
        <time>2026-06-28T06:06:18.000Z</time>
      </trkpt>
      <trkpt lat="42.76103" lon="1.51045">
        <ele>1429</ele>
        <time>2026-06-28T06:06:19.000Z</time>
      </trkpt>
      <trkpt lat="42.76105" lon="1.51043">
        <ele>1429</ele>
        <time>2026-06-28T06:06:20.000Z</time>
      </trkpt>
      <trkpt lat="42.76107" lon="1.51042">
        <ele>1429</ele>
        <time>2026-06-28T06:06:21.000Z</time>
      </trkpt>
      <trkpt lat="42.76108" lon="1.51041">
        <ele>1429</ele>
        <time>2026-06-28T06:06:22.000Z</time>
      </trkpt>
      <trkpt lat="42.76108" lon="1.51041">
        <ele>1428</ele>
        <time>2026-06-28T06:06:23.000Z</time>
      </trkpt>
      <trkpt lat="42.76108" lon="1.51041">
        <ele>1428</ele>
        <time>2026-06-28T06:06:24.000Z</time>
      </trkpt>
      <trkpt lat="42.76108" lon="1.51041">
        <ele>1428</ele>
        <time>2026-06-28T06:06:25.000Z</time>
      </trkpt>
      <trkpt lat="42.76108" lon="1.51041">
        <ele>1428</ele>
        <time>2026-06-28T06:06:26.000Z</time>
      </trkpt>
      <trkpt lat="42.76108" lon="1.5104">
        <ele>1428</ele>
        <time>2026-06-28T06:06:27.000Z</time>
      </trkpt>
      <trkpt lat="42.76108" lon="1.5104">
        <ele>1428</ele>
        <time>2026-06-28T06:06:28.000Z</time>
      </trkpt>
      <trkpt lat="42.76108" lon="1.5104">
        <ele>1428</ele>
        <time>2026-06-28T06:06:29.000Z</time>
      </trkpt>
      <trkpt lat="42.76109" lon="1.51039">
        <ele>1428</ele>
        <time>2026-06-28T06:06:30.000Z</time>
      </trkpt>
      <trkpt lat="42.7611" lon="1.51037">
        <ele>1428</ele>
        <time>2026-06-28T06:06:31.000Z</time>
      </trkpt>
      <trkpt lat="42.7611" lon="1.51037">
        <ele>1428</ele>
        <time>2026-06-28T06:06:32.000Z</time>
      </trkpt>
      <trkpt lat="42.76111" lon="1.51036">
        <ele>1427</ele>
        <time>2026-06-28T06:06:33.000Z</time>
      </trkpt>
      <trkpt lat="42.76111" lon="1.51035">
        <ele>1427</ele>
        <time>2026-06-28T06:06:34.000Z</time>
      </trkpt>
      <trkpt lat="42.76112" lon="1.51034">
        <ele>1427</ele>
        <time>2026-06-28T06:06:35.000Z</time>
      </trkpt>
      <trkpt lat="42.76113" lon="1.51034">
        <ele>1426</ele>
        <time>2026-06-28T06:06:36.000Z</time>
      </trkpt>
      <trkpt lat="42.76114" lon="1.51034">
        <ele>1426</ele>
        <time>2026-06-28T06:06:37.000Z</time>
      </trkpt>
      <trkpt lat="42.76115" lon="1.51034">
        <ele>1425</ele>
        <time>2026-06-28T06:06:38.000Z</time>
      </trkpt>
      <trkpt lat="42.76115" lon="1.51035">
        <ele>1425</ele>
        <time>2026-06-28T06:06:39.000Z</time>
      </trkpt>
      <trkpt lat="42.76118" lon="1.51035">
        <ele>1422</ele>
        <time>2026-06-28T06:06:55.000Z</time>
      </trkpt>
      <trkpt lat="42.76118" lon="1.51036">
        <ele>1422</ele>
        <time>2026-06-28T06:06:56.000Z</time>
      </trkpt>
      <trkpt lat="42.76119" lon="1.51037">
        <ele>1422</ele>
        <time>2026-06-28T06:06:57.000Z</time>
      </trkpt>
      <trkpt lat="42.76119" lon="1.51038">
        <ele>1422</ele>
        <time>2026-06-28T06:06:58.000Z</time>
      </trkpt>
      <trkpt lat="42.7612" lon="1.51037">
        <ele>1422</ele>
        <time>2026-06-28T06:06:59.000Z</time>
      </trkpt>
      <trkpt lat="42.7612" lon="1.51037">
        <ele>1421</ele>
        <time>2026-06-28T06:07:00.000Z</time>
      </trkpt>
      <trkpt lat="42.7612" lon="1.51038">
        <ele>1421</ele>
        <time>2026-06-28T06:07:01.000Z</time>
      </trkpt>
      <trkpt lat="42.76121" lon="1.51038">
        <ele>1421</ele>
        <time>2026-06-28T06:07:02.000Z</time>
      </trkpt>
      <trkpt lat="42.76121" lon="1.51039">
        <ele>1420</ele>
        <time>2026-06-28T06:07:03.000Z</time>
      </trkpt>
      <trkpt lat="42.76122" lon="1.5104">
        <ele>1420</ele>
        <time>2026-06-28T06:07:04.000Z</time>
      </trkpt>
      <trkpt lat="42.76121" lon="1.51041">
        <ele>1420</ele>
        <time>2026-06-28T06:07:05.000Z</time>
      </trkpt>
      <trkpt lat="42.76121" lon="1.51041">
        <ele>1420</ele>
        <time>2026-06-28T06:07:06.000Z</time>
      </trkpt>
      <trkpt lat="42.76121" lon="1.51042">
        <ele>1419</ele>
        <time>2026-06-28T06:07:07.000Z</time>
      </trkpt>
      <trkpt lat="42.76121" lon="1.51043">
        <ele>1419</ele>
        <time>2026-06-28T06:07:08.000Z</time>
      </trkpt>
      <trkpt lat="42.76121" lon="1.51045">
        <ele>1419</ele>
        <time>2026-06-28T06:07:09.000Z</time>
      </trkpt>
      <trkpt lat="42.76121" lon="1.51048">
        <ele>1418</ele>
        <time>2026-06-28T06:07:10.000Z</time>
      </trkpt>
      <trkpt lat="42.76123" lon="1.51051">
        <ele>1418</ele>
        <time>2026-06-28T06:07:11.000Z</time>
      </trkpt>
      <trkpt lat="42.76126" lon="1.51054">
        <ele>1417</ele>
        <time>2026-06-28T06:07:12.000Z</time>
      </trkpt>
      <trkpt lat="42.7613" lon="1.51055">
        <ele>1417</ele>
        <time>2026-06-28T06:07:13.000Z</time>
      </trkpt>
      <trkpt lat="42.76135" lon="1.51055">
        <ele>1417</ele>
        <time>2026-06-28T06:07:14.000Z</time>
      </trkpt>
      <trkpt lat="42.76142" lon="1.51055">
        <ele>1416</ele>
        <time>2026-06-28T06:07:15.000Z</time>
      </trkpt>
      <trkpt lat="42.76149" lon="1.51054">
        <ele>1415</ele>
        <time>2026-06-28T06:07:16.000Z</time>
      </trkpt>
      <trkpt lat="42.76157" lon="1.51054">
        <ele>1414</ele>
        <time>2026-06-28T06:07:17.000Z</time>
      </trkpt>
      <trkpt lat="42.76163" lon="1.51053">
        <ele>1413</ele>
        <time>2026-06-28T06:07:18.000Z</time>
      </trkpt>
      <trkpt lat="42.76169" lon="1.51053">
        <ele>1412</ele>
        <time>2026-06-28T06:07:19.000Z</time>
      </trkpt>
      <trkpt lat="42.76176" lon="1.51052">
        <ele>1411</ele>
        <time>2026-06-28T06:07:20.000Z</time>
      </trkpt>
      <trkpt lat="42.76182" lon="1.51052">
        <ele>1411</ele>
        <time>2026-06-28T06:07:21.000Z</time>
      </trkpt>
      <trkpt lat="42.7619" lon="1.51051">
        <ele>1410</ele>
        <time>2026-06-28T06:07:22.000Z</time>
      </trkpt>
      <trkpt lat="42.76197" lon="1.51052">
        <ele>1410</ele>
        <time>2026-06-28T06:07:23.000Z</time>
      </trkpt>
      <trkpt lat="42.76203" lon="1.51051">
        <ele>1409</ele>
        <time>2026-06-28T06:07:24.000Z</time>
      </trkpt>
      <trkpt lat="42.76209" lon="1.5105">
        <ele>1409</ele>
        <time>2026-06-28T06:07:25.000Z</time>
      </trkpt>
      <trkpt lat="42.76214" lon="1.51048">
        <ele>1408</ele>
        <time>2026-06-28T06:07:26.000Z</time>
      </trkpt>
      <trkpt lat="42.76218" lon="1.51045">
        <ele>1407</ele>
        <time>2026-06-28T06:07:27.000Z</time>
      </trkpt>
      <trkpt lat="42.76223" lon="1.5104">
        <ele>1407</ele>
        <time>2026-06-28T06:07:28.000Z</time>
      </trkpt>
      <trkpt lat="42.76227" lon="1.51036">
        <ele>1406</ele>
        <time>2026-06-28T06:07:29.000Z</time>
      </trkpt>
      <trkpt lat="42.76232" lon="1.51033">
        <ele>1406</ele>
        <time>2026-06-28T06:07:30.000Z</time>
      </trkpt>
      <trkpt lat="42.76237" lon="1.51029">
        <ele>1405</ele>
        <time>2026-06-28T06:07:31.000Z</time>
      </trkpt>
      <trkpt lat="42.76241" lon="1.51024">
        <ele>1405</ele>
        <time>2026-06-28T06:07:32.000Z</time>
      </trkpt>
      <trkpt lat="42.76246" lon="1.51019">
        <ele>1404</ele>
        <time>2026-06-28T06:07:33.000Z</time>
      </trkpt>
      <trkpt lat="42.76251" lon="1.51014">
        <ele>1402</ele>
        <time>2026-06-28T06:07:34.000Z</time>
      </trkpt>
      <trkpt lat="42.76255" lon="1.51009">
        <ele>1401</ele>
        <time>2026-06-28T06:07:35.000Z</time>
      </trkpt>
      <trkpt lat="42.76258" lon="1.51005">
        <ele>1400</ele>
        <time>2026-06-28T06:07:36.000Z</time>
      </trkpt>
      <trkpt lat="42.76261" lon="1.51001">
        <ele>1399</ele>
        <time>2026-06-28T06:07:37.000Z</time>
      </trkpt>
      <trkpt lat="42.76263" lon="1.50997">
        <ele>1398</ele>
        <time>2026-06-28T06:07:38.000Z</time>
      </trkpt>
      <trkpt lat="42.76266" lon="1.50995">
        <ele>1398</ele>
        <time>2026-06-28T06:07:39.000Z</time>
      </trkpt>
      <trkpt lat="42.76268" lon="1.50994">
        <ele>1397</ele>
        <time>2026-06-28T06:07:40.000Z</time>
      </trkpt>
      <trkpt lat="42.7627" lon="1.50993">
        <ele>1395</ele>
        <time>2026-06-28T06:07:41.000Z</time>
      </trkpt>
      <trkpt lat="42.76273" lon="1.50993">
        <ele>1394</ele>
        <time>2026-06-28T06:07:42.000Z</time>
      </trkpt>
      <trkpt lat="42.76277" lon="1.50994">
        <ele>1394</ele>
        <time>2026-06-28T06:07:43.000Z</time>
      </trkpt>
      <trkpt lat="42.76281" lon="1.50994">
        <ele>1393</ele>
        <time>2026-06-28T06:07:44.000Z</time>
      </trkpt>
      <trkpt lat="42.76283" lon="1.5099">
        <ele>1393</ele>
        <time>2026-06-28T06:07:45.000Z</time>
      </trkpt>
      <trkpt lat="42.76286" lon="1.50983">
        <ele>1391</ele>
        <time>2026-06-28T06:07:46.000Z</time>
      </trkpt>
      <trkpt lat="42.76287" lon="1.50976">
        <ele>1391</ele>
        <time>2026-06-28T06:07:47.000Z</time>
      </trkpt>
      <trkpt lat="42.76289" lon="1.50971">
        <ele>1390</ele>
        <time>2026-06-28T06:07:48.000Z</time>
      </trkpt>
      <trkpt lat="42.7629" lon="1.50965">
        <ele>1389</ele>
        <time>2026-06-28T06:07:49.000Z</time>
      </trkpt>
      <trkpt lat="42.76293" lon="1.50961">
        <ele>1388</ele>
        <time>2026-06-28T06:07:50.000Z</time>
      </trkpt>
      <trkpt lat="42.76298" lon="1.5096">
        <ele>1388</ele>
        <time>2026-06-28T06:07:51.000Z</time>
      </trkpt>
      <trkpt lat="42.76303" lon="1.5096">
        <ele>1387</ele>
        <time>2026-06-28T06:07:52.000Z</time>
      </trkpt>
      <trkpt lat="42.76308" lon="1.50963">
        <ele>1386</ele>
        <time>2026-06-28T06:07:53.000Z</time>
      </trkpt>
      <trkpt lat="42.76314" lon="1.5097">
        <ele>1385</ele>
        <time>2026-06-28T06:07:54.000Z</time>
      </trkpt>
      <trkpt lat="42.7632" lon="1.50977">
        <ele>1385</ele>
        <time>2026-06-28T06:07:55.000Z</time>
      </trkpt>
      <trkpt lat="42.76324" lon="1.50985">
        <ele>1385</ele>
        <time>2026-06-28T06:07:56.000Z</time>
      </trkpt>
      <trkpt lat="42.76328" lon="1.50994">
        <ele>1384</ele>
        <time>2026-06-28T06:07:57.000Z</time>
      </trkpt>
      <trkpt lat="42.76331" lon="1.51004">
        <ele>1383</ele>
        <time>2026-06-28T06:07:58.000Z</time>
      </trkpt>
      <trkpt lat="42.76332" lon="1.51016">
        <ele>1382</ele>
        <time>2026-06-28T06:07:59.000Z</time>
      </trkpt>
      <trkpt lat="42.76331" lon="1.51027">
        <ele>1381</ele>
        <time>2026-06-28T06:08:00.000Z</time>
      </trkpt>
      <trkpt lat="42.7633" lon="1.51037">
        <ele>1381</ele>
        <time>2026-06-28T06:08:01.000Z</time>
      </trkpt>
      <trkpt lat="42.76329" lon="1.51046">
        <ele>1381</ele>
        <time>2026-06-28T06:08:02.000Z</time>
      </trkpt>
      <trkpt lat="42.76327" lon="1.51055">
        <ele>1381</ele>
        <time>2026-06-28T06:08:03.000Z</time>
      </trkpt>
      <trkpt lat="42.76325" lon="1.51063">
        <ele>1381</ele>
        <time>2026-06-28T06:08:04.000Z</time>
      </trkpt>
      <trkpt lat="42.76323" lon="1.5107">
        <ele>1381</ele>
        <time>2026-06-28T06:08:05.000Z</time>
      </trkpt>
      <trkpt lat="42.7632" lon="1.51075">
        <ele>1382</ele>
        <time>2026-06-28T06:08:06.000Z</time>
      </trkpt>
      <trkpt lat="42.76317" lon="1.5108">
        <ele>1383</ele>
        <time>2026-06-28T06:08:07.000Z</time>
      </trkpt>
      <trkpt lat="42.76314" lon="1.51084">
        <ele>1383</ele>
        <time>2026-06-28T06:08:08.000Z</time>
      </trkpt>
      <trkpt lat="42.76311" lon="1.51089">
        <ele>1383</ele>
        <time>2026-06-28T06:08:09.000Z</time>
      </trkpt>
      <trkpt lat="42.76308" lon="1.51094">
        <ele>1383</ele>
        <time>2026-06-28T06:08:10.000Z</time>
      </trkpt>
      <trkpt lat="42.76306" lon="1.511">
        <ele>1383</ele>
        <time>2026-06-28T06:08:11.000Z</time>
      </trkpt>
      <trkpt lat="42.76304" lon="1.51106">
        <ele>1382</ele>
        <time>2026-06-28T06:08:12.000Z</time>
      </trkpt>
      <trkpt lat="42.76303" lon="1.51112">
        <ele>1383</ele>
        <time>2026-06-28T06:08:13.000Z</time>
      </trkpt>
      <trkpt lat="42.76303" lon="1.51118">
        <ele>1384</ele>
        <time>2026-06-28T06:08:14.000Z</time>
      </trkpt>
      <trkpt lat="42.76303" lon="1.51125">
        <ele>1385</ele>
        <time>2026-06-28T06:08:15.000Z</time>
      </trkpt>
      <trkpt lat="42.76302" lon="1.5113">
        <ele>1385</ele>
        <time>2026-06-28T06:08:16.000Z</time>
      </trkpt>
      <trkpt lat="42.76302" lon="1.51136">
        <ele>1386</ele>
        <time>2026-06-28T06:08:17.000Z</time>
      </trkpt>
      <trkpt lat="42.76302" lon="1.51142">
        <ele>1386</ele>
        <time>2026-06-28T06:08:18.000Z</time>
      </trkpt>
      <trkpt lat="42.76301" lon="1.51149">
        <ele>1386</ele>
        <time>2026-06-28T06:08:19.000Z</time>
      </trkpt>
      <trkpt lat="42.763" lon="1.51155">
        <ele>1386</ele>
        <time>2026-06-28T06:08:20.000Z</time>
      </trkpt>
      <trkpt lat="42.76298" lon="1.51162">
        <ele>1386</ele>
        <time>2026-06-28T06:08:21.000Z</time>
      </trkpt>
      <trkpt lat="42.76296" lon="1.5117">
        <ele>1386</ele>
        <time>2026-06-28T06:08:22.000Z</time>
      </trkpt>
      <trkpt lat="42.76293" lon="1.51177">
        <ele>1386</ele>
        <time>2026-06-28T06:08:23.000Z</time>
      </trkpt>
      <trkpt lat="42.76291" lon="1.51185">
        <ele>1386</ele>
        <time>2026-06-28T06:08:24.000Z</time>
      </trkpt>
      <trkpt lat="42.76287" lon="1.51193">
        <ele>1386</ele>
        <time>2026-06-28T06:08:25.000Z</time>
      </trkpt>
      <trkpt lat="42.76284" lon="1.512">
        <ele>1386</ele>
        <time>2026-06-28T06:08:26.000Z</time>
      </trkpt>
      <trkpt lat="42.76282" lon="1.51207">
        <ele>1386</ele>
        <time>2026-06-28T06:08:27.000Z</time>
      </trkpt>
      <trkpt lat="42.76279" lon="1.51214">
        <ele>1386</ele>
        <time>2026-06-28T06:08:28.000Z</time>
      </trkpt>
      <trkpt lat="42.76276" lon="1.51221">
        <ele>1386</ele>
        <time>2026-06-28T06:08:29.000Z</time>
      </trkpt>
      <trkpt lat="42.76273" lon="1.51229">
        <ele>1386</ele>
        <time>2026-06-28T06:08:30.000Z</time>
      </trkpt>
      <trkpt lat="42.7627" lon="1.51236">
        <ele>1385</ele>
        <time>2026-06-28T06:08:31.000Z</time>
      </trkpt>
      <trkpt lat="42.76268" lon="1.51244">
        <ele>1385</ele>
        <time>2026-06-28T06:08:32.000Z</time>
      </trkpt>
      <trkpt lat="42.76265" lon="1.51251">
        <ele>1386</ele>
        <time>2026-06-28T06:08:33.000Z</time>
      </trkpt>
      <trkpt lat="42.76261" lon="1.51258">
        <ele>1385</ele>
        <time>2026-06-28T06:08:34.000Z</time>
      </trkpt>
      <trkpt lat="42.76258" lon="1.51266">
        <ele>1385</ele>
        <time>2026-06-28T06:08:35.000Z</time>
      </trkpt>
      <trkpt lat="42.76253" lon="1.51271">
        <ele>1385</ele>
        <time>2026-06-28T06:08:36.000Z</time>
      </trkpt>
      <trkpt lat="42.76247" lon="1.51276">
        <ele>1385</ele>
        <time>2026-06-28T06:08:37.000Z</time>
      </trkpt>
      <trkpt lat="42.76241" lon="1.51279">
        <ele>1384</ele>
        <time>2026-06-28T06:08:38.000Z</time>
      </trkpt>
      <trkpt lat="42.76234" lon="1.5128">
        <ele>1384</ele>
        <time>2026-06-28T06:08:39.000Z</time>
      </trkpt>
      <trkpt lat="42.76228" lon="1.51281">
        <ele>1383</ele>
        <time>2026-06-28T06:08:40.000Z</time>
      </trkpt>
      <trkpt lat="42.76222" lon="1.51281">
        <ele>1383</ele>
        <time>2026-06-28T06:08:41.000Z</time>
      </trkpt>
      <trkpt lat="42.76217" lon="1.51281">
        <ele>1383</ele>
        <time>2026-06-28T06:08:42.000Z</time>
      </trkpt>
      <trkpt lat="42.76212" lon="1.5128">
        <ele>1383</ele>
        <time>2026-06-28T06:08:43.000Z</time>
      </trkpt>
      <trkpt lat="42.76208" lon="1.5128">
        <ele>1383</ele>
        <time>2026-06-28T06:08:44.000Z</time>
      </trkpt>
      <trkpt lat="42.76204" lon="1.51278">
        <ele>1383</ele>
        <time>2026-06-28T06:08:45.000Z</time>
      </trkpt>
      <trkpt lat="42.76199" lon="1.51277">
        <ele>1383</ele>
        <time>2026-06-28T06:08:46.000Z</time>
      </trkpt>
      <trkpt lat="42.76195" lon="1.51276">
        <ele>1383</ele>
        <time>2026-06-28T06:08:47.000Z</time>
      </trkpt>
      <trkpt lat="42.76191" lon="1.51275">
        <ele>1382</ele>
        <time>2026-06-28T06:08:48.000Z</time>
      </trkpt>
      <trkpt lat="42.76187" lon="1.51273">
        <ele>1382</ele>
        <time>2026-06-28T06:08:49.000Z</time>
      </trkpt>
      <trkpt lat="42.76183" lon="1.51272">
        <ele>1382</ele>
        <time>2026-06-28T06:08:50.000Z</time>
      </trkpt>
      <trkpt lat="42.76179" lon="1.51271">
        <ele>1383</ele>
        <time>2026-06-28T06:08:51.000Z</time>
      </trkpt>
      <trkpt lat="42.76174" lon="1.51269">
        <ele>1383</ele>
        <time>2026-06-28T06:08:52.000Z</time>
      </trkpt>
      <trkpt lat="42.7617" lon="1.51269">
        <ele>1383</ele>
        <time>2026-06-28T06:08:53.000Z</time>
      </trkpt>
      <trkpt lat="42.76166" lon="1.51268">
        <ele>1383</ele>
        <time>2026-06-28T06:08:54.000Z</time>
      </trkpt>
      <trkpt lat="42.76163" lon="1.51268">
        <ele>1383</ele>
        <time>2026-06-28T06:08:55.000Z</time>
      </trkpt>
      <trkpt lat="42.76159" lon="1.51267">
        <ele>1383</ele>
        <time>2026-06-28T06:08:56.000Z</time>
      </trkpt>
      <trkpt lat="42.76155" lon="1.51266">
        <ele>1384</ele>
        <time>2026-06-28T06:08:57.000Z</time>
      </trkpt>
      <trkpt lat="42.76151" lon="1.51266">
        <ele>1384</ele>
        <time>2026-06-28T06:08:58.000Z</time>
      </trkpt>
      <trkpt lat="42.76148" lon="1.51266">
        <ele>1384</ele>
        <time>2026-06-28T06:08:59.000Z</time>
      </trkpt>
      <trkpt lat="42.76145" lon="1.51266">
        <ele>1384</ele>
        <time>2026-06-28T06:09:00.000Z</time>
      </trkpt>
      <trkpt lat="42.76141" lon="1.51266">
        <ele>1384</ele>
        <time>2026-06-28T06:09:01.000Z</time>
      </trkpt>
      <trkpt lat="42.76138" lon="1.51267">
        <ele>1384</ele>
        <time>2026-06-28T06:09:02.000Z</time>
      </trkpt>
      <trkpt lat="42.76135" lon="1.51267">
        <ele>1384</ele>
        <time>2026-06-28T06:09:03.000Z</time>
      </trkpt>
      <trkpt lat="42.76131" lon="1.51268">
        <ele>1385</ele>
        <time>2026-06-28T06:09:04.000Z</time>
      </trkpt>
      <trkpt lat="42.76128" lon="1.51269">
        <ele>1385</ele>
        <time>2026-06-28T06:09:05.000Z</time>
      </trkpt>
      <trkpt lat="42.76124" lon="1.5127">
        <ele>1385</ele>
        <time>2026-06-28T06:09:06.000Z</time>
      </trkpt>
      <trkpt lat="42.76122" lon="1.51271">
        <ele>1385</ele>
        <time>2026-06-28T06:09:07.000Z</time>
      </trkpt>
      <trkpt lat="42.76119" lon="1.51272">
        <ele>1386</ele>
        <time>2026-06-28T06:09:08.000Z</time>
      </trkpt>
      <trkpt lat="42.76116" lon="1.51272">
        <ele>1386</ele>
        <time>2026-06-28T06:09:09.000Z</time>
      </trkpt>
      <trkpt lat="42.76113" lon="1.51273">
        <ele>1386</ele>
        <time>2026-06-28T06:09:10.000Z</time>
      </trkpt>
      <trkpt lat="42.76111" lon="1.51274">
        <ele>1387</ele>
        <time>2026-06-28T06:09:11.000Z</time>
      </trkpt>
      <trkpt lat="42.76108" lon="1.51274">
        <ele>1387</ele>
        <time>2026-06-28T06:09:12.000Z</time>
      </trkpt>
      <trkpt lat="42.76105" lon="1.51275">
        <ele>1387</ele>
        <time>2026-06-28T06:09:13.000Z</time>
      </trkpt>
      <trkpt lat="42.76102" lon="1.51275">
        <ele>1387</ele>
        <time>2026-06-28T06:09:14.000Z</time>
      </trkpt>
      <trkpt lat="42.761" lon="1.51276">
        <ele>1387</ele>
        <time>2026-06-28T06:09:15.000Z</time>
      </trkpt>
      <trkpt lat="42.76098" lon="1.51276">
        <ele>1387</ele>
        <time>2026-06-28T06:09:16.000Z</time>
      </trkpt>
      <trkpt lat="42.76095" lon="1.51278">
        <ele>1387</ele>
        <time>2026-06-28T06:09:17.000Z</time>
      </trkpt>
      <trkpt lat="42.76093" lon="1.51279">
        <ele>1387</ele>
        <time>2026-06-28T06:09:18.000Z</time>
      </trkpt>
      <trkpt lat="42.76091" lon="1.5128">
        <ele>1387</ele>
        <time>2026-06-28T06:09:19.000Z</time>
      </trkpt>
      <trkpt lat="42.76089" lon="1.51281">
        <ele>1388</ele>
        <time>2026-06-28T06:09:20.000Z</time>
      </trkpt>
      <trkpt lat="42.76086" lon="1.51282">
        <ele>1388</ele>
        <time>2026-06-28T06:09:21.000Z</time>
      </trkpt>
      <trkpt lat="42.76084" lon="1.51284">
        <ele>1389</ele>
        <time>2026-06-28T06:09:22.000Z</time>
      </trkpt>
      <trkpt lat="42.76082" lon="1.51285">
        <ele>1389</ele>
        <time>2026-06-28T06:09:23.000Z</time>
      </trkpt>
      <trkpt lat="42.76079" lon="1.51287">
        <ele>1389</ele>
        <time>2026-06-28T06:09:24.000Z</time>
      </trkpt>
      <trkpt lat="42.76076" lon="1.51287">
        <ele>1389</ele>
        <time>2026-06-28T06:09:25.000Z</time>
      </trkpt>
      <trkpt lat="42.76073" lon="1.51288">
        <ele>1389</ele>
        <time>2026-06-28T06:09:26.000Z</time>
      </trkpt>
      <trkpt lat="42.76069" lon="1.51289">
        <ele>1388</ele>
        <time>2026-06-28T06:09:27.000Z</time>
      </trkpt>
      <trkpt lat="42.76066" lon="1.51291">
        <ele>1389</ele>
        <time>2026-06-28T06:09:28.000Z</time>
      </trkpt>
      <trkpt lat="42.76063" lon="1.51292">
        <ele>1388</ele>
        <time>2026-06-28T06:09:29.000Z</time>
      </trkpt>
      <trkpt lat="42.76059" lon="1.51293">
        <ele>1388</ele>
        <time>2026-06-28T06:09:30.000Z</time>
      </trkpt>
      <trkpt lat="42.76056" lon="1.51294">
        <ele>1388</ele>
        <time>2026-06-28T06:09:31.000Z</time>
      </trkpt>
      <trkpt lat="42.76052" lon="1.51296">
        <ele>1388</ele>
        <time>2026-06-28T06:09:32.000Z</time>
      </trkpt>
      <trkpt lat="42.76049" lon="1.51297">
        <ele>1389</ele>
        <time>2026-06-28T06:09:33.000Z</time>
      </trkpt>
      <trkpt lat="42.76046" lon="1.51299">
        <ele>1389</ele>
        <time>2026-06-28T06:09:34.000Z</time>
      </trkpt>
      <trkpt lat="42.76043" lon="1.51302">
        <ele>1388</ele>
        <time>2026-06-28T06:09:35.000Z</time>
      </trkpt>
      <trkpt lat="42.76041" lon="1.51304">
        <ele>1389</ele>
        <time>2026-06-28T06:09:36.000Z</time>
      </trkpt>
      <trkpt lat="42.76037" lon="1.51305">
        <ele>1389</ele>
        <time>2026-06-28T06:09:37.000Z</time>
      </trkpt>
      <trkpt lat="42.76034" lon="1.51308">
        <ele>1389</ele>
        <time>2026-06-28T06:09:38.000Z</time>
      </trkpt>
      <trkpt lat="42.76031" lon="1.5131">
        <ele>1389</ele>
        <time>2026-06-28T06:09:39.000Z</time>
      </trkpt>
      <trkpt lat="42.76029" lon="1.51312">
        <ele>1389</ele>
        <time>2026-06-28T06:09:40.000Z</time>
      </trkpt>
      <trkpt lat="42.76026" lon="1.51314">
        <ele>1389</ele>
        <time>2026-06-28T06:09:41.000Z</time>
      </trkpt>
      <trkpt lat="42.76023" lon="1.51317">
        <ele>1389</ele>
        <time>2026-06-28T06:09:42.000Z</time>
      </trkpt>
      <trkpt lat="42.76021" lon="1.51319">
        <ele>1390</ele>
        <time>2026-06-28T06:09:43.000Z</time>
      </trkpt>
      <trkpt lat="42.76019" lon="1.51321">
        <ele>1390</ele>
        <time>2026-06-28T06:09:44.000Z</time>
      </trkpt>
      <trkpt lat="42.76016" lon="1.51323">
        <ele>1390</ele>
        <time>2026-06-28T06:09:45.000Z</time>
      </trkpt>
      <trkpt lat="42.76014" lon="1.51326">
        <ele>1391</ele>
        <time>2026-06-28T06:09:46.000Z</time>
      </trkpt>
      <trkpt lat="42.76012" lon="1.51328">
        <ele>1391</ele>
        <time>2026-06-28T06:09:47.000Z</time>
      </trkpt>
      <trkpt lat="42.76009" lon="1.51331">
        <ele>1391</ele>
        <time>2026-06-28T06:09:48.000Z</time>
      </trkpt>
      <trkpt lat="42.76007" lon="1.51333">
        <ele>1391</ele>
        <time>2026-06-28T06:09:49.000Z</time>
      </trkpt>
      <trkpt lat="42.76005" lon="1.51336">
        <ele>1392</ele>
        <time>2026-06-28T06:09:50.000Z</time>
      </trkpt>
      <trkpt lat="42.76003" lon="1.51338">
        <ele>1392</ele>
        <time>2026-06-28T06:09:51.000Z</time>
      </trkpt>
      <trkpt lat="42.76001" lon="1.51341">
        <ele>1392</ele>
        <time>2026-06-28T06:09:52.000Z</time>
      </trkpt>
      <trkpt lat="42.75998" lon="1.51345">
        <ele>1392</ele>
        <time>2026-06-28T06:09:53.000Z</time>
      </trkpt>
      <trkpt lat="42.75996" lon="1.51347">
        <ele>1392</ele>
        <time>2026-06-28T06:09:54.000Z</time>
      </trkpt>
      <trkpt lat="42.75994" lon="1.5135">
        <ele>1392</ele>
        <time>2026-06-28T06:09:55.000Z</time>
      </trkpt>
      <trkpt lat="42.75993" lon="1.51353">
        <ele>1392</ele>
        <time>2026-06-28T06:09:56.000Z</time>
      </trkpt>
      <trkpt lat="42.75991" lon="1.51356">
        <ele>1393</ele>
        <time>2026-06-28T06:09:57.000Z</time>
      </trkpt>
      <trkpt lat="42.75989" lon="1.51359">
        <ele>1393</ele>
        <time>2026-06-28T06:09:58.000Z</time>
      </trkpt>
      <trkpt lat="42.75987" lon="1.51362">
        <ele>1394</ele>
        <time>2026-06-28T06:09:59.000Z</time>
      </trkpt>
      <trkpt lat="42.75986" lon="1.51365">
        <ele>1395</ele>
        <time>2026-06-28T06:10:00.000Z</time>
      </trkpt>
      <trkpt lat="42.75984" lon="1.51368">
        <ele>1395</ele>
        <time>2026-06-28T06:10:01.000Z</time>
      </trkpt>
      <trkpt lat="42.75982" lon="1.51372">
        <ele>1395</ele>
        <time>2026-06-28T06:10:02.000Z</time>
      </trkpt>
      <trkpt lat="42.75981" lon="1.51375">
        <ele>1395</ele>
        <time>2026-06-28T06:10:03.000Z</time>
      </trkpt>
      <trkpt lat="42.7598" lon="1.51378">
        <ele>1396</ele>
        <time>2026-06-28T06:10:04.000Z</time>
      </trkpt>
      <trkpt lat="42.75978" lon="1.51381">
        <ele>1398</ele>
        <time>2026-06-28T06:10:05.000Z</time>
      </trkpt>
      <trkpt lat="42.75976" lon="1.51384">
        <ele>1400</ele>
        <time>2026-06-28T06:10:06.000Z</time>
      </trkpt>
      <trkpt lat="42.75975" lon="1.51387">
        <ele>1401</ele>
        <time>2026-06-28T06:10:07.000Z</time>
      </trkpt>
      <trkpt lat="42.75974" lon="1.51391">
        <ele>1402</ele>
        <time>2026-06-28T06:10:08.000Z</time>
      </trkpt>
      <trkpt lat="42.75972" lon="1.51394">
        <ele>1402</ele>
        <time>2026-06-28T06:10:09.000Z</time>
      </trkpt>
      <trkpt lat="42.75971" lon="1.51397">
        <ele>1403</ele>
        <time>2026-06-28T06:10:10.000Z</time>
      </trkpt>
      <trkpt lat="42.7597" lon="1.514">
        <ele>1404</ele>
        <time>2026-06-28T06:10:11.000Z</time>
      </trkpt>
      <trkpt lat="42.75968" lon="1.51404">
        <ele>1404</ele>
        <time>2026-06-28T06:10:12.000Z</time>
      </trkpt>
      <trkpt lat="42.75967" lon="1.51407">
        <ele>1405</ele>
        <time>2026-06-28T06:10:13.000Z</time>
      </trkpt>
      <trkpt lat="42.75965" lon="1.5141">
        <ele>1405</ele>
        <time>2026-06-28T06:10:14.000Z</time>
      </trkpt>
      <trkpt lat="42.75964" lon="1.51413">
        <ele>1406</ele>
        <time>2026-06-28T06:10:15.000Z</time>
      </trkpt>
      <trkpt lat="42.75962" lon="1.51418">
        <ele>1406</ele>
        <time>2026-06-28T06:10:16.000Z</time>
      </trkpt>
      <trkpt lat="42.75961" lon="1.51421">
        <ele>1405</ele>
        <time>2026-06-28T06:10:17.000Z</time>
      </trkpt>
      <trkpt lat="42.7596" lon="1.51425">
        <ele>1405</ele>
        <time>2026-06-28T06:10:18.000Z</time>
      </trkpt>
      <trkpt lat="42.75958" lon="1.51428">
        <ele>1406</ele>
        <time>2026-06-28T06:10:19.000Z</time>
      </trkpt>
      <trkpt lat="42.75957" lon="1.51431">
        <ele>1406</ele>
        <time>2026-06-28T06:10:20.000Z</time>
      </trkpt>
      <trkpt lat="42.75956" lon="1.51435">
        <ele>1406</ele>
        <time>2026-06-28T06:10:21.000Z</time>
      </trkpt>
      <trkpt lat="42.75955" lon="1.51438">
        <ele>1406</ele>
        <time>2026-06-28T06:10:22.000Z</time>
      </trkpt>
      <trkpt lat="42.75954" lon="1.51441">
        <ele>1406</ele>
        <time>2026-06-28T06:10:23.000Z</time>
      </trkpt>
      <trkpt lat="42.75952" lon="1.51444">
        <ele>1406</ele>
        <time>2026-06-28T06:10:24.000Z</time>
      </trkpt>
      <trkpt lat="42.75951" lon="1.51447">
        <ele>1406</ele>
        <time>2026-06-28T06:10:25.000Z</time>
      </trkpt>
      <trkpt lat="42.75949" lon="1.5145">
        <ele>1406</ele>
        <time>2026-06-28T06:10:26.000Z</time>
      </trkpt>
      <trkpt lat="42.75947" lon="1.51453">
        <ele>1405</ele>
        <time>2026-06-28T06:10:27.000Z</time>
      </trkpt>
      <trkpt lat="42.75945" lon="1.51456">
        <ele>1405</ele>
        <time>2026-06-28T06:10:28.000Z</time>
      </trkpt>
      <trkpt lat="42.75944" lon="1.51459">
        <ele>1405</ele>
        <time>2026-06-28T06:10:29.000Z</time>
      </trkpt>
      <trkpt lat="42.75942" lon="1.51462">
        <ele>1405</ele>
        <time>2026-06-28T06:10:30.000Z</time>
      </trkpt>
      <trkpt lat="42.75941" lon="1.51466">
        <ele>1406</ele>
        <time>2026-06-28T06:10:31.000Z</time>
      </trkpt>
      <trkpt lat="42.75939" lon="1.51469">
        <ele>1407</ele>
        <time>2026-06-28T06:10:32.000Z</time>
      </trkpt>
      <trkpt lat="42.75937" lon="1.51472">
        <ele>1407</ele>
        <time>2026-06-28T06:10:33.000Z</time>
      </trkpt>
      <trkpt lat="42.75936" lon="1.51475">
        <ele>1408</ele>
        <time>2026-06-28T06:10:34.000Z</time>
      </trkpt>
      <trkpt lat="42.75934" lon="1.51479">
        <ele>1407</ele>
        <time>2026-06-28T06:10:35.000Z</time>
      </trkpt>
      <trkpt lat="42.75932" lon="1.51482">
        <ele>1407</ele>
        <time>2026-06-28T06:10:36.000Z</time>
      </trkpt>
      <trkpt lat="42.75931" lon="1.51485">
        <ele>1408</ele>
        <time>2026-06-28T06:10:37.000Z</time>
      </trkpt>
      <trkpt lat="42.75929" lon="1.51488">
        <ele>1408</ele>
        <time>2026-06-28T06:10:38.000Z</time>
      </trkpt>
      <trkpt lat="42.75928" lon="1.51491">
        <ele>1408</ele>
        <time>2026-06-28T06:10:39.000Z</time>
      </trkpt>
      <trkpt lat="42.75927" lon="1.51493">
        <ele>1408</ele>
        <time>2026-06-28T06:10:40.000Z</time>
      </trkpt>
      <trkpt lat="42.75925" lon="1.51496">
        <ele>1408</ele>
        <time>2026-06-28T06:10:41.000Z</time>
      </trkpt>
      <trkpt lat="42.75924" lon="1.51499">
        <ele>1408</ele>
        <time>2026-06-28T06:10:42.000Z</time>
      </trkpt>
      <trkpt lat="42.75922" lon="1.51502">
        <ele>1408</ele>
        <time>2026-06-28T06:10:43.000Z</time>
      </trkpt>
      <trkpt lat="42.7592" lon="1.51504">
        <ele>1408</ele>
        <time>2026-06-28T06:10:44.000Z</time>
      </trkpt>
      <trkpt lat="42.75918" lon="1.51507">
        <ele>1408</ele>
        <time>2026-06-28T06:10:45.000Z</time>
      </trkpt>
      <trkpt lat="42.75917" lon="1.51509">
        <ele>1408</ele>
        <time>2026-06-28T06:10:46.000Z</time>
      </trkpt>
      <trkpt lat="42.75915" lon="1.51511">
        <ele>1408</ele>
        <time>2026-06-28T06:10:47.000Z</time>
      </trkpt>
      <trkpt lat="42.75914" lon="1.51514">
        <ele>1408</ele>
        <time>2026-06-28T06:10:48.000Z</time>
      </trkpt>
      <trkpt lat="42.75912" lon="1.51516">
        <ele>1408</ele>
        <time>2026-06-28T06:10:49.000Z</time>
      </trkpt>
      <trkpt lat="42.7591" lon="1.51518">
        <ele>1408</ele>
        <time>2026-06-28T06:10:50.000Z</time>
      </trkpt>
      <trkpt lat="42.75908" lon="1.5152">
        <ele>1408</ele>
        <time>2026-06-28T06:10:51.000Z</time>
      </trkpt>
      <trkpt lat="42.75905" lon="1.51522">
        <ele>1408</ele>
        <time>2026-06-28T06:10:52.000Z</time>
      </trkpt>
      <trkpt lat="42.75903" lon="1.51524">
        <ele>1407</ele>
        <time>2026-06-28T06:10:53.000Z</time>
      </trkpt>
      <trkpt lat="42.75901" lon="1.51527">
        <ele>1408</ele>
        <time>2026-06-28T06:10:54.000Z</time>
      </trkpt>
      <trkpt lat="42.75899" lon="1.51529">
        <ele>1408</ele>
        <time>2026-06-28T06:10:55.000Z</time>
      </trkpt>
      <trkpt lat="42.75897" lon="1.5153">
        <ele>1409</ele>
        <time>2026-06-28T06:10:56.000Z</time>
      </trkpt>
      <trkpt lat="42.75895" lon="1.51532">
        <ele>1409</ele>
        <time>2026-06-28T06:10:57.000Z</time>
      </trkpt>
      <trkpt lat="42.75893" lon="1.51534">
        <ele>1409</ele>
        <time>2026-06-28T06:10:58.000Z</time>
      </trkpt>
      <trkpt lat="42.75891" lon="1.51536">
        <ele>1408</ele>
        <time>2026-06-28T06:10:59.000Z</time>
      </trkpt>
      <trkpt lat="42.75889" lon="1.51538">
        <ele>1409</ele>
        <time>2026-06-28T06:11:00.000Z</time>
      </trkpt>
      <trkpt lat="42.75887" lon="1.5154">
        <ele>1409</ele>
        <time>2026-06-28T06:11:01.000Z</time>
      </trkpt>
      <trkpt lat="42.75885" lon="1.51542">
        <ele>1409</ele>
        <time>2026-06-28T06:11:02.000Z</time>
      </trkpt>
      <trkpt lat="42.75883" lon="1.51544">
        <ele>1408</ele>
        <time>2026-06-28T06:11:03.000Z</time>
      </trkpt>
      <trkpt lat="42.75881" lon="1.51546">
        <ele>1409</ele>
        <time>2026-06-28T06:11:04.000Z</time>
      </trkpt>
      <trkpt lat="42.75879" lon="1.51548">
        <ele>1409</ele>
        <time>2026-06-28T06:11:05.000Z</time>
      </trkpt>
      <trkpt lat="42.75876" lon="1.51551">
        <ele>1409</ele>
        <time>2026-06-28T06:11:06.000Z</time>
      </trkpt>
      <trkpt lat="42.75874" lon="1.51552">
        <ele>1409</ele>
        <time>2026-06-28T06:11:07.000Z</time>
      </trkpt>
      <trkpt lat="42.75872" lon="1.51554">
        <ele>1410</ele>
        <time>2026-06-28T06:11:08.000Z</time>
      </trkpt>
      <trkpt lat="42.7587" lon="1.51557">
        <ele>1410</ele>
        <time>2026-06-28T06:11:09.000Z</time>
      </trkpt>
      <trkpt lat="42.75868" lon="1.51558">
        <ele>1410</ele>
        <time>2026-06-28T06:11:10.000Z</time>
      </trkpt>
      <trkpt lat="42.75865" lon="1.5156">
        <ele>1411</ele>
        <time>2026-06-28T06:11:11.000Z</time>
      </trkpt>
      <trkpt lat="42.75863" lon="1.51563">
        <ele>1410</ele>
        <time>2026-06-28T06:11:12.000Z</time>
      </trkpt>
      <trkpt lat="42.75861" lon="1.51564">
        <ele>1410</ele>
        <time>2026-06-28T06:11:13.000Z</time>
      </trkpt>
      <trkpt lat="42.75859" lon="1.51567">
        <ele>1411</ele>
        <time>2026-06-28T06:11:14.000Z</time>
      </trkpt>
      <trkpt lat="42.75858" lon="1.51569">
        <ele>1410</ele>
        <time>2026-06-28T06:11:15.000Z</time>
      </trkpt>
      <trkpt lat="42.75856" lon="1.51571">
        <ele>1410</ele>
        <time>2026-06-28T06:11:16.000Z</time>
      </trkpt>
      <trkpt lat="42.75854" lon="1.51572">
        <ele>1410</ele>
        <time>2026-06-28T06:11:17.000Z</time>
      </trkpt>
      <trkpt lat="42.75854" lon="1.51574">
        <ele>1411</ele>
        <time>2026-06-28T06:11:18.000Z</time>
      </trkpt>
      <trkpt lat="42.75853" lon="1.51575">
        <ele>1411</ele>
        <time>2026-06-28T06:11:19.000Z</time>
      </trkpt>
      <trkpt lat="42.75851" lon="1.51577">
        <ele>1411</ele>
        <time>2026-06-28T06:11:20.000Z</time>
      </trkpt>
      <trkpt lat="42.75849" lon="1.51579">
        <ele>1411</ele>
        <time>2026-06-28T06:11:21.000Z</time>
      </trkpt>
      <trkpt lat="42.75846" lon="1.51581">
        <ele>1411</ele>
        <time>2026-06-28T06:11:22.000Z</time>
      </trkpt>
      <trkpt lat="42.75845" lon="1.51583">
        <ele>1411</ele>
        <time>2026-06-28T06:11:23.000Z</time>
      </trkpt>
      <trkpt lat="42.75843" lon="1.51585">
        <ele>1412</ele>
        <time>2026-06-28T06:11:24.000Z</time>
      </trkpt>
      <trkpt lat="42.75841" lon="1.51587">
        <ele>1412</ele>
        <time>2026-06-28T06:11:25.000Z</time>
      </trkpt>
      <trkpt lat="42.75839" lon="1.51588">
        <ele>1412</ele>
        <time>2026-06-28T06:11:26.000Z</time>
      </trkpt>
      <trkpt lat="42.75837" lon="1.51589">
        <ele>1412</ele>
        <time>2026-06-28T06:11:27.000Z</time>
      </trkpt>
      <trkpt lat="42.75835" lon="1.51591">
        <ele>1412</ele>
        <time>2026-06-28T06:11:28.000Z</time>
      </trkpt>
      <trkpt lat="42.75833" lon="1.51592">
        <ele>1412</ele>
        <time>2026-06-28T06:11:29.000Z</time>
      </trkpt>
      <trkpt lat="42.7583" lon="1.51594">
        <ele>1412</ele>
        <time>2026-06-28T06:11:30.000Z</time>
      </trkpt>
      <trkpt lat="42.75828" lon="1.51595">
        <ele>1412</ele>
        <time>2026-06-28T06:11:31.000Z</time>
      </trkpt>
      <trkpt lat="42.75825" lon="1.51596">
        <ele>1412</ele>
        <time>2026-06-28T06:11:32.000Z</time>
      </trkpt>
      <trkpt lat="42.75823" lon="1.51598">
        <ele>1411</ele>
        <time>2026-06-28T06:11:33.000Z</time>
      </trkpt>
      <trkpt lat="42.75821" lon="1.51599">
        <ele>1411</ele>
        <time>2026-06-28T06:11:34.000Z</time>
      </trkpt>
      <trkpt lat="42.75819" lon="1.516">
        <ele>1412</ele>
        <time>2026-06-28T06:11:35.000Z</time>
      </trkpt>
      <trkpt lat="42.75817" lon="1.51601">
        <ele>1412</ele>
        <time>2026-06-28T06:11:36.000Z</time>
      </trkpt>
      <trkpt lat="42.75814" lon="1.51601">
        <ele>1412</ele>
        <time>2026-06-28T06:11:37.000Z</time>
      </trkpt>
      <trkpt lat="42.75813" lon="1.51602">
        <ele>1411</ele>
        <time>2026-06-28T06:11:38.000Z</time>
      </trkpt>
      <trkpt lat="42.7581" lon="1.51603">
        <ele>1411</ele>
        <time>2026-06-28T06:11:39.000Z</time>
      </trkpt>
      <trkpt lat="42.75808" lon="1.51604">
        <ele>1411</ele>
        <time>2026-06-28T06:11:40.000Z</time>
      </trkpt>
      <trkpt lat="42.75806" lon="1.51605">
        <ele>1411</ele>
        <time>2026-06-28T06:11:41.000Z</time>
      </trkpt>
      <trkpt lat="42.75804" lon="1.51606">
        <ele>1412</ele>
        <time>2026-06-28T06:11:42.000Z</time>
      </trkpt>
      <trkpt lat="42.75801" lon="1.51607">
        <ele>1412</ele>
        <time>2026-06-28T06:11:43.000Z</time>
      </trkpt>
      <trkpt lat="42.75799" lon="1.51608">
        <ele>1412</ele>
        <time>2026-06-28T06:11:44.000Z</time>
      </trkpt>
      <trkpt lat="42.75796" lon="1.51609">
        <ele>1412</ele>
        <time>2026-06-28T06:11:45.000Z</time>
      </trkpt>
      <trkpt lat="42.75794" lon="1.5161">
        <ele>1412</ele>
        <time>2026-06-28T06:11:46.000Z</time>
      </trkpt>
      <trkpt lat="42.75791" lon="1.51611">
        <ele>1413</ele>
        <time>2026-06-28T06:11:47.000Z</time>
      </trkpt>
      <trkpt lat="42.75788" lon="1.51612">
        <ele>1413</ele>
        <time>2026-06-28T06:11:48.000Z</time>
      </trkpt>
      <trkpt lat="42.75784" lon="1.51614">
        <ele>1413</ele>
        <time>2026-06-28T06:11:49.000Z</time>
      </trkpt>
      <trkpt lat="42.75781" lon="1.51616">
        <ele>1414</ele>
        <time>2026-06-28T06:11:50.000Z</time>
      </trkpt>
      <trkpt lat="42.75779" lon="1.51617">
        <ele>1415</ele>
        <time>2026-06-28T06:11:51.000Z</time>
      </trkpt>
      <trkpt lat="42.75776" lon="1.51619">
        <ele>1415</ele>
        <time>2026-06-28T06:11:52.000Z</time>
      </trkpt>
      <trkpt lat="42.75773" lon="1.51621">
        <ele>1416</ele>
        <time>2026-06-28T06:11:53.000Z</time>
      </trkpt>
      <trkpt lat="42.7577" lon="1.51622">
        <ele>1415</ele>
        <time>2026-06-28T06:11:54.000Z</time>
      </trkpt>
      <trkpt lat="42.75767" lon="1.51624">
        <ele>1416</ele>
        <time>2026-06-28T06:11:55.000Z</time>
      </trkpt>
      <trkpt lat="42.75765" lon="1.51626">
        <ele>1415</ele>
        <time>2026-06-28T06:11:56.000Z</time>
      </trkpt>
      <trkpt lat="42.75762" lon="1.51628">
        <ele>1416</ele>
        <time>2026-06-28T06:11:57.000Z</time>
      </trkpt>
      <trkpt lat="42.7576" lon="1.5163">
        <ele>1415</ele>
        <time>2026-06-28T06:11:58.000Z</time>
      </trkpt>
      <trkpt lat="42.75757" lon="1.51632">
        <ele>1416</ele>
        <time>2026-06-28T06:11:59.000Z</time>
      </trkpt>
      <trkpt lat="42.75755" lon="1.51634">
        <ele>1415</ele>
        <time>2026-06-28T06:12:00.000Z</time>
      </trkpt>
      <trkpt lat="42.75752" lon="1.51636">
        <ele>1416</ele>
        <time>2026-06-28T06:12:01.000Z</time>
      </trkpt>
      <trkpt lat="42.7575" lon="1.51638">
        <ele>1416</ele>
        <time>2026-06-28T06:12:02.000Z</time>
      </trkpt>
      <trkpt lat="42.75747" lon="1.5164">
        <ele>1416</ele>
        <time>2026-06-28T06:12:03.000Z</time>
      </trkpt>
      <trkpt lat="42.75744" lon="1.51642">
        <ele>1416</ele>
        <time>2026-06-28T06:12:04.000Z</time>
      </trkpt>
      <trkpt lat="42.75742" lon="1.51643">
        <ele>1416</ele>
        <time>2026-06-28T06:12:05.000Z</time>
      </trkpt>
      <trkpt lat="42.75739" lon="1.51645">
        <ele>1417</ele>
        <time>2026-06-28T06:12:06.000Z</time>
      </trkpt>
      <trkpt lat="42.75737" lon="1.51647">
        <ele>1417</ele>
        <time>2026-06-28T06:12:07.000Z</time>
      </trkpt>
      <trkpt lat="42.75735" lon="1.51649">
        <ele>1418</ele>
        <time>2026-06-28T06:12:08.000Z</time>
      </trkpt>
      <trkpt lat="42.75732" lon="1.5165">
        <ele>1418</ele>
        <time>2026-06-28T06:12:09.000Z</time>
      </trkpt>
      <trkpt lat="42.7573" lon="1.51652">
        <ele>1418</ele>
        <time>2026-06-28T06:12:10.000Z</time>
      </trkpt>
      <trkpt lat="42.75727" lon="1.51653">
        <ele>1417</ele>
        <time>2026-06-28T06:12:11.000Z</time>
      </trkpt>
      <trkpt lat="42.75725" lon="1.51655">
        <ele>1417</ele>
        <time>2026-06-28T06:12:12.000Z</time>
      </trkpt>
      <trkpt lat="42.75723" lon="1.51656">
        <ele>1418</ele>
        <time>2026-06-28T06:12:13.000Z</time>
      </trkpt>
      <trkpt lat="42.75721" lon="1.51658">
        <ele>1419</ele>
        <time>2026-06-28T06:12:14.000Z</time>
      </trkpt>
      <trkpt lat="42.75719" lon="1.51661">
        <ele>1420</ele>
        <time>2026-06-28T06:12:15.000Z</time>
      </trkpt>
      <trkpt lat="42.75716" lon="1.51663">
        <ele>1421</ele>
        <time>2026-06-28T06:12:16.000Z</time>
      </trkpt>
      <trkpt lat="42.75714" lon="1.51666">
        <ele>1421</ele>
        <time>2026-06-28T06:12:17.000Z</time>
      </trkpt>
      <trkpt lat="42.75711" lon="1.51669">
        <ele>1421</ele>
        <time>2026-06-28T06:12:18.000Z</time>
      </trkpt>
      <trkpt lat="42.75709" lon="1.5167">
        <ele>1421</ele>
        <time>2026-06-28T06:12:19.000Z</time>
      </trkpt>
      <trkpt lat="42.75706" lon="1.51672">
        <ele>1421</ele>
        <time>2026-06-28T06:12:20.000Z</time>
      </trkpt>
      <trkpt lat="42.75704" lon="1.51674">
        <ele>1422</ele>
        <time>2026-06-28T06:12:21.000Z</time>
      </trkpt>
      <trkpt lat="42.75702" lon="1.51676">
        <ele>1422</ele>
        <time>2026-06-28T06:12:22.000Z</time>
      </trkpt>
      <trkpt lat="42.757" lon="1.51678">
        <ele>1423</ele>
        <time>2026-06-28T06:12:23.000Z</time>
      </trkpt>
      <trkpt lat="42.75698" lon="1.5168">
        <ele>1424</ele>
        <time>2026-06-28T06:12:24.000Z</time>
      </trkpt>
      <trkpt lat="42.75695" lon="1.51682">
        <ele>1424</ele>
        <time>2026-06-28T06:12:25.000Z</time>
      </trkpt>
      <trkpt lat="42.75693" lon="1.51684">
        <ele>1425</ele>
        <time>2026-06-28T06:12:26.000Z</time>
      </trkpt>
      <trkpt lat="42.75692" lon="1.51686">
        <ele>1425</ele>
        <time>2026-06-28T06:12:27.000Z</time>
      </trkpt>
      <trkpt lat="42.75689" lon="1.51687">
        <ele>1425</ele>
        <time>2026-06-28T06:12:28.000Z</time>
      </trkpt>
      <trkpt lat="42.75687" lon="1.51689">
        <ele>1425</ele>
        <time>2026-06-28T06:12:29.000Z</time>
      </trkpt>
      <trkpt lat="42.75684" lon="1.51691">
        <ele>1424</ele>
        <time>2026-06-28T06:12:30.000Z</time>
      </trkpt>
      <trkpt lat="42.75682" lon="1.51693">
        <ele>1424</ele>
        <time>2026-06-28T06:12:31.000Z</time>
      </trkpt>
      <trkpt lat="42.7568" lon="1.51695">
        <ele>1424</ele>
        <time>2026-06-28T06:12:32.000Z</time>
      </trkpt>
      <trkpt lat="42.75678" lon="1.51697">
        <ele>1424</ele>
        <time>2026-06-28T06:12:33.000Z</time>
      </trkpt>
      <trkpt lat="42.75675" lon="1.51699">
        <ele>1423</ele>
        <time>2026-06-28T06:12:34.000Z</time>
      </trkpt>
      <trkpt lat="42.75673" lon="1.51701">
        <ele>1425</ele>
        <time>2026-06-28T06:12:35.000Z</time>
      </trkpt>
      <trkpt lat="42.75671" lon="1.51702">
        <ele>1425</ele>
        <time>2026-06-28T06:12:36.000Z</time>
      </trkpt>
      <trkpt lat="42.75669" lon="1.51704">
        <ele>1425</ele>
        <time>2026-06-28T06:12:37.000Z</time>
      </trkpt>
      <trkpt lat="42.75667" lon="1.51706">
        <ele>1425</ele>
        <time>2026-06-28T06:12:38.000Z</time>
      </trkpt>
      <trkpt lat="42.75664" lon="1.51708">
        <ele>1426</ele>
        <time>2026-06-28T06:12:39.000Z</time>
      </trkpt>
      <trkpt lat="42.75662" lon="1.51709">
        <ele>1427</ele>
        <time>2026-06-28T06:12:40.000Z</time>
      </trkpt>
      <trkpt lat="42.75661" lon="1.51711">
        <ele>1427</ele>
        <time>2026-06-28T06:12:41.000Z</time>
      </trkpt>
      <trkpt lat="42.75659" lon="1.51713">
        <ele>1428</ele>
        <time>2026-06-28T06:12:42.000Z</time>
      </trkpt>
      <trkpt lat="42.75657" lon="1.51715">
        <ele>1428</ele>
        <time>2026-06-28T06:12:43.000Z</time>
      </trkpt>
      <trkpt lat="42.75655" lon="1.51717">
        <ele>1428</ele>
        <time>2026-06-28T06:12:44.000Z</time>
      </trkpt>
      <trkpt lat="42.75654" lon="1.5172">
        <ele>1428</ele>
        <time>2026-06-28T06:12:45.000Z</time>
      </trkpt>
      <trkpt lat="42.75652" lon="1.51723">
        <ele>1429</ele>
        <time>2026-06-28T06:12:46.000Z</time>
      </trkpt>
      <trkpt lat="42.7565" lon="1.51725">
        <ele>1428</ele>
        <time>2026-06-28T06:12:47.000Z</time>
      </trkpt>
      <trkpt lat="42.75648" lon="1.51728">
        <ele>1429</ele>
        <time>2026-06-28T06:12:48.000Z</time>
      </trkpt>
      <trkpt lat="42.75646" lon="1.5173">
        <ele>1430</ele>
        <time>2026-06-28T06:12:49.000Z</time>
      </trkpt>
      <trkpt lat="42.75644" lon="1.51732">
        <ele>1430</ele>
        <time>2026-06-28T06:12:50.000Z</time>
      </trkpt>
      <trkpt lat="42.75641" lon="1.51735">
        <ele>1430</ele>
        <time>2026-06-28T06:12:51.000Z</time>
      </trkpt>
      <trkpt lat="42.75639" lon="1.51737">
        <ele>1430</ele>
        <time>2026-06-28T06:12:52.000Z</time>
      </trkpt>
      <trkpt lat="42.75637" lon="1.5174">
        <ele>1430</ele>
        <time>2026-06-28T06:12:53.000Z</time>
      </trkpt>
      <trkpt lat="42.75634" lon="1.51743">
        <ele>1430</ele>
        <time>2026-06-28T06:12:54.000Z</time>
      </trkpt>
      <trkpt lat="42.75632" lon="1.51746">
        <ele>1431</ele>
        <time>2026-06-28T06:12:55.000Z</time>
      </trkpt>
      <trkpt lat="42.7563" lon="1.51748">
        <ele>1430</ele>
        <time>2026-06-28T06:12:56.000Z</time>
      </trkpt>
      <trkpt lat="42.75628" lon="1.51751">
        <ele>1431</ele>
        <time>2026-06-28T06:12:57.000Z</time>
      </trkpt>
      <trkpt lat="42.75626" lon="1.51754">
        <ele>1431</ele>
        <time>2026-06-28T06:12:58.000Z</time>
      </trkpt>
      <trkpt lat="42.75624" lon="1.51757">
        <ele>1432</ele>
        <time>2026-06-28T06:12:59.000Z</time>
      </trkpt>
      <trkpt lat="42.75622" lon="1.51759">
        <ele>1432</ele>
        <time>2026-06-28T06:13:00.000Z</time>
      </trkpt>
      <trkpt lat="42.75619" lon="1.51762">
        <ele>1432</ele>
        <time>2026-06-28T06:13:01.000Z</time>
      </trkpt>
      <trkpt lat="42.75617" lon="1.51764">
        <ele>1432</ele>
        <time>2026-06-28T06:13:02.000Z</time>
      </trkpt>
      <trkpt lat="42.75614" lon="1.51767">
        <ele>1432</ele>
        <time>2026-06-28T06:13:03.000Z</time>
      </trkpt>
      <trkpt lat="42.75612" lon="1.5177">
        <ele>1432</ele>
        <time>2026-06-28T06:13:04.000Z</time>
      </trkpt>
      <trkpt lat="42.75609" lon="1.51772">
        <ele>1432</ele>
        <time>2026-06-28T06:13:05.000Z</time>
      </trkpt>
      <trkpt lat="42.75607" lon="1.51774">
        <ele>1432</ele>
        <time>2026-06-28T06:13:06.000Z</time>
      </trkpt>
      <trkpt lat="42.75605" lon="1.51776">
        <ele>1432</ele>
        <time>2026-06-28T06:13:07.000Z</time>
      </trkpt>
      <trkpt lat="42.75603" lon="1.51778">
        <ele>1432</ele>
        <time>2026-06-28T06:13:08.000Z</time>
      </trkpt>
      <trkpt lat="42.75601" lon="1.5178">
        <ele>1432</ele>
        <time>2026-06-28T06:13:09.000Z</time>
      </trkpt>
      <trkpt lat="42.75599" lon="1.51783">
        <ele>1432</ele>
        <time>2026-06-28T06:13:10.000Z</time>
      </trkpt>
      <trkpt lat="42.75597" lon="1.51785">
        <ele>1432</ele>
        <time>2026-06-28T06:13:11.000Z</time>
      </trkpt>
      <trkpt lat="42.75594" lon="1.51787">
        <ele>1432</ele>
        <time>2026-06-28T06:13:12.000Z</time>
      </trkpt>
      <trkpt lat="42.75592" lon="1.51788">
        <ele>1433</ele>
        <time>2026-06-28T06:13:13.000Z</time>
      </trkpt>
      <trkpt lat="42.7559" lon="1.51791">
        <ele>1433</ele>
        <time>2026-06-28T06:13:14.000Z</time>
      </trkpt>
      <trkpt lat="42.75588" lon="1.51793">
        <ele>1433</ele>
        <time>2026-06-28T06:13:15.000Z</time>
      </trkpt>
      <trkpt lat="42.75586" lon="1.51795">
        <ele>1433</ele>
        <time>2026-06-28T06:13:16.000Z</time>
      </trkpt>
      <trkpt lat="42.75584" lon="1.51797">
        <ele>1434</ele>
        <time>2026-06-28T06:13:17.000Z</time>
      </trkpt>
      <trkpt lat="42.75582" lon="1.51799">
        <ele>1434</ele>
        <time>2026-06-28T06:13:18.000Z</time>
      </trkpt>
      <trkpt lat="42.7558" lon="1.51802">
        <ele>1434</ele>
        <time>2026-06-28T06:13:19.000Z</time>
      </trkpt>
      <trkpt lat="42.75579" lon="1.51805">
        <ele>1434</ele>
        <time>2026-06-28T06:13:20.000Z</time>
      </trkpt>
      <trkpt lat="42.75577" lon="1.51807">
        <ele>1435</ele>
        <time>2026-06-28T06:13:21.000Z</time>
      </trkpt>
      <trkpt lat="42.75575" lon="1.51809">
        <ele>1435</ele>
        <time>2026-06-28T06:13:22.000Z</time>
      </trkpt>
      <trkpt lat="42.75573" lon="1.51811">
        <ele>1436</ele>
        <time>2026-06-28T06:13:23.000Z</time>
      </trkpt>
      <trkpt lat="42.75571" lon="1.51812">
        <ele>1436</ele>
        <time>2026-06-28T06:13:24.000Z</time>
      </trkpt>
      <trkpt lat="42.75569" lon="1.51814">
        <ele>1436</ele>
        <time>2026-06-28T06:13:25.000Z</time>
      </trkpt>
      <trkpt lat="42.75567" lon="1.51816">
        <ele>1436</ele>
        <time>2026-06-28T06:13:26.000Z</time>
      </trkpt>
      <trkpt lat="42.75565" lon="1.51818">
        <ele>1437</ele>
        <time>2026-06-28T06:13:27.000Z</time>
      </trkpt>
      <trkpt lat="42.75563" lon="1.51821">
        <ele>1437</ele>
        <time>2026-06-28T06:13:28.000Z</time>
      </trkpt>
      <trkpt lat="42.75561" lon="1.51823">
        <ele>1438</ele>
        <time>2026-06-28T06:13:29.000Z</time>
      </trkpt>
      <trkpt lat="42.75559" lon="1.51825">
        <ele>1438</ele>
        <time>2026-06-28T06:13:30.000Z</time>
      </trkpt>
      <trkpt lat="42.75557" lon="1.51828">
        <ele>1438</ele>
        <time>2026-06-28T06:13:31.000Z</time>
      </trkpt>
      <trkpt lat="42.75554" lon="1.5183">
        <ele>1439</ele>
        <time>2026-06-28T06:13:32.000Z</time>
      </trkpt>
      <trkpt lat="42.75552" lon="1.51832">
        <ele>1438</ele>
        <time>2026-06-28T06:13:33.000Z</time>
      </trkpt>
      <trkpt lat="42.75551" lon="1.51834">
        <ele>1439</ele>
        <time>2026-06-28T06:13:34.000Z</time>
      </trkpt>
      <trkpt lat="42.75549" lon="1.51836">
        <ele>1439</ele>
        <time>2026-06-28T06:13:35.000Z</time>
      </trkpt>
      <trkpt lat="42.75547" lon="1.51838">
        <ele>1439</ele>
        <time>2026-06-28T06:13:36.000Z</time>
      </trkpt>
      <trkpt lat="42.75545" lon="1.51841">
        <ele>1439</ele>
        <time>2026-06-28T06:13:37.000Z</time>
      </trkpt>
      <trkpt lat="42.75543" lon="1.51843">
        <ele>1438</ele>
        <time>2026-06-28T06:13:38.000Z</time>
      </trkpt>
      <trkpt lat="42.75541" lon="1.51846">
        <ele>1439</ele>
        <time>2026-06-28T06:13:39.000Z</time>
      </trkpt>
      <trkpt lat="42.75539" lon="1.51848">
        <ele>1439</ele>
        <time>2026-06-28T06:13:40.000Z</time>
      </trkpt>
      <trkpt lat="42.75537" lon="1.5185">
        <ele>1440</ele>
        <time>2026-06-28T06:13:41.000Z</time>
      </trkpt>
      <trkpt lat="42.75535" lon="1.51852">
        <ele>1441</ele>
        <time>2026-06-28T06:13:42.000Z</time>
      </trkpt>
      <trkpt lat="42.75533" lon="1.51854">
        <ele>1441</ele>
        <time>2026-06-28T06:13:43.000Z</time>
      </trkpt>
      <trkpt lat="42.75531" lon="1.51856">
        <ele>1441</ele>
        <time>2026-06-28T06:13:44.000Z</time>
      </trkpt>
      <trkpt lat="42.7553" lon="1.51858">
        <ele>1442</ele>
        <time>2026-06-28T06:13:45.000Z</time>
      </trkpt>
      <trkpt lat="42.75528" lon="1.5186">
        <ele>1443</ele>
        <time>2026-06-28T06:13:46.000Z</time>
      </trkpt>
      <trkpt lat="42.75526" lon="1.51862">
        <ele>1443</ele>
        <time>2026-06-28T06:13:47.000Z</time>
      </trkpt>
      <trkpt lat="42.75524" lon="1.51864">
        <ele>1443</ele>
        <time>2026-06-28T06:13:48.000Z</time>
      </trkpt>
      <trkpt lat="42.75522" lon="1.51866">
        <ele>1443</ele>
        <time>2026-06-28T06:13:49.000Z</time>
      </trkpt>
      <trkpt lat="42.7552" lon="1.51868">
        <ele>1444</ele>
        <time>2026-06-28T06:13:50.000Z</time>
      </trkpt>
      <trkpt lat="42.75518" lon="1.5187">
        <ele>1444</ele>
        <time>2026-06-28T06:13:51.000Z</time>
      </trkpt>
      <trkpt lat="42.75515" lon="1.51873">
        <ele>1445</ele>
        <time>2026-06-28T06:13:52.000Z</time>
      </trkpt>
      <trkpt lat="42.75513" lon="1.51875">
        <ele>1445</ele>
        <time>2026-06-28T06:13:53.000Z</time>
      </trkpt>
      <trkpt lat="42.75511" lon="1.51877">
        <ele>1444</ele>
        <time>2026-06-28T06:13:54.000Z</time>
      </trkpt>
      <trkpt lat="42.75509" lon="1.51879">
        <ele>1444</ele>
        <time>2026-06-28T06:13:55.000Z</time>
      </trkpt>
      <trkpt lat="42.75507" lon="1.51882">
        <ele>1445</ele>
        <time>2026-06-28T06:13:56.000Z</time>
      </trkpt>
      <trkpt lat="42.75505" lon="1.51884">
        <ele>1446</ele>
        <time>2026-06-28T06:13:57.000Z</time>
      </trkpt>
      <trkpt lat="42.75503" lon="1.51886">
        <ele>1446</ele>
        <time>2026-06-28T06:13:58.000Z</time>
      </trkpt>
      <trkpt lat="42.75502" lon="1.51888">
        <ele>1446</ele>
        <time>2026-06-28T06:13:59.000Z</time>
      </trkpt>
      <trkpt lat="42.755" lon="1.5189">
        <ele>1446</ele>
        <time>2026-06-28T06:14:00.000Z</time>
      </trkpt>
      <trkpt lat="42.75498" lon="1.51893">
        <ele>1446</ele>
        <time>2026-06-28T06:14:01.000Z</time>
      </trkpt>
      <trkpt lat="42.75496" lon="1.51896">
        <ele>1447</ele>
        <time>2026-06-28T06:14:02.000Z</time>
      </trkpt>
      <trkpt lat="42.75494" lon="1.51898">
        <ele>1447</ele>
        <time>2026-06-28T06:14:03.000Z</time>
      </trkpt>
      <trkpt lat="42.75492" lon="1.51901">
        <ele>1448</ele>
        <time>2026-06-28T06:14:04.000Z</time>
      </trkpt>
      <trkpt lat="42.7549" lon="1.51903">
        <ele>1449</ele>
        <time>2026-06-28T06:14:05.000Z</time>
      </trkpt>
      <trkpt lat="42.75488" lon="1.51905">
        <ele>1450</ele>
        <time>2026-06-28T06:14:06.000Z</time>
      </trkpt>
      <trkpt lat="42.75487" lon="1.51909">
        <ele>1450</ele>
        <time>2026-06-28T06:14:07.000Z</time>
      </trkpt>
      <trkpt lat="42.75485" lon="1.51912">
        <ele>1449</ele>
        <time>2026-06-28T06:14:08.000Z</time>
      </trkpt>
      <trkpt lat="42.75483" lon="1.51914">
        <ele>1450</ele>
        <time>2026-06-28T06:14:09.000Z</time>
      </trkpt>
      <trkpt lat="42.75481" lon="1.51916">
        <ele>1449</ele>
        <time>2026-06-28T06:14:10.000Z</time>
      </trkpt>
      <trkpt lat="42.75478" lon="1.51918">
        <ele>1450</ele>
        <time>2026-06-28T06:14:11.000Z</time>
      </trkpt>
      <trkpt lat="42.75476" lon="1.51919">
        <ele>1450</ele>
        <time>2026-06-28T06:14:12.000Z</time>
      </trkpt>
      <trkpt lat="42.75474" lon="1.51922">
        <ele>1450</ele>
        <time>2026-06-28T06:14:13.000Z</time>
      </trkpt>
      <trkpt lat="42.75472" lon="1.51924">
        <ele>1450</ele>
        <time>2026-06-28T06:14:14.000Z</time>
      </trkpt>
      <trkpt lat="42.7547" lon="1.51926">
        <ele>1449</ele>
        <time>2026-06-28T06:14:15.000Z</time>
      </trkpt>
      <trkpt lat="42.75468" lon="1.51928">
        <ele>1450</ele>
        <time>2026-06-28T06:14:16.000Z</time>
      </trkpt>
      <trkpt lat="42.75465" lon="1.51931">
        <ele>1450</ele>
        <time>2026-06-28T06:14:17.000Z</time>
      </trkpt>
      <trkpt lat="42.75462" lon="1.51932">
        <ele>1450</ele>
        <time>2026-06-28T06:14:18.000Z</time>
      </trkpt>
      <trkpt lat="42.7546" lon="1.51934">
        <ele>1450</ele>
        <time>2026-06-28T06:14:19.000Z</time>
      </trkpt>
      <trkpt lat="42.75458" lon="1.51934">
        <ele>1451</ele>
        <time>2026-06-28T06:14:20.000Z</time>
      </trkpt>
      <trkpt lat="42.75455" lon="1.51934">
        <ele>1451</ele>
        <time>2026-06-28T06:14:21.000Z</time>
      </trkpt>
      <trkpt lat="42.75453" lon="1.51934">
        <ele>1451</ele>
        <time>2026-06-28T06:14:22.000Z</time>
      </trkpt>
      <trkpt lat="42.7545" lon="1.51934">
        <ele>1450</ele>
        <time>2026-06-28T06:14:23.000Z</time>
      </trkpt>
      <trkpt lat="42.75447" lon="1.51933">
        <ele>1450</ele>
        <time>2026-06-28T06:14:24.000Z</time>
      </trkpt>
      <trkpt lat="42.75444" lon="1.51932">
        <ele>1450</ele>
        <time>2026-06-28T06:14:25.000Z</time>
      </trkpt>
      <trkpt lat="42.75442" lon="1.51931">
        <ele>1450</ele>
        <time>2026-06-28T06:14:26.000Z</time>
      </trkpt>
      <trkpt lat="42.75439" lon="1.51931">
        <ele>1450</ele>
        <time>2026-06-28T06:14:27.000Z</time>
      </trkpt>
      <trkpt lat="42.75437" lon="1.51931">
        <ele>1450</ele>
        <time>2026-06-28T06:14:28.000Z</time>
      </trkpt>
      <trkpt lat="42.75434" lon="1.5193">
        <ele>1450</ele>
        <time>2026-06-28T06:14:29.000Z</time>
      </trkpt>
      <trkpt lat="42.75432" lon="1.5193">
        <ele>1450</ele>
        <time>2026-06-28T06:14:30.000Z</time>
      </trkpt>
      <trkpt lat="42.7543" lon="1.5193">
        <ele>1451</ele>
        <time>2026-06-28T06:14:31.000Z</time>
      </trkpt>
      <trkpt lat="42.75427" lon="1.5193">
        <ele>1451</ele>
        <time>2026-06-28T06:14:32.000Z</time>
      </trkpt>
      <trkpt lat="42.75425" lon="1.5193">
        <ele>1451</ele>
        <time>2026-06-28T06:14:33.000Z</time>
      </trkpt>
      <trkpt lat="42.75423" lon="1.5193">
        <ele>1451</ele>
        <time>2026-06-28T06:14:34.000Z</time>
      </trkpt>
      <trkpt lat="42.75421" lon="1.5193">
        <ele>1451</ele>
        <time>2026-06-28T06:14:35.000Z</time>
      </trkpt>
      <trkpt lat="42.75418" lon="1.51931">
        <ele>1452</ele>
        <time>2026-06-28T06:14:36.000Z</time>
      </trkpt>
      <trkpt lat="42.75415" lon="1.51931">
        <ele>1452</ele>
        <time>2026-06-28T06:14:37.000Z</time>
      </trkpt>
      <trkpt lat="42.75413" lon="1.51932">
        <ele>1452</ele>
        <time>2026-06-28T06:14:38.000Z</time>
      </trkpt>
      <trkpt lat="42.75411" lon="1.51933">
        <ele>1452</ele>
        <time>2026-06-28T06:14:39.000Z</time>
      </trkpt>
      <trkpt lat="42.75408" lon="1.51933">
        <ele>1453</ele>
        <time>2026-06-28T06:14:40.000Z</time>
      </trkpt>
      <trkpt lat="42.75406" lon="1.51934">
        <ele>1453</ele>
        <time>2026-06-28T06:14:41.000Z</time>
      </trkpt>
      <trkpt lat="42.75403" lon="1.51935">
        <ele>1453</ele>
        <time>2026-06-28T06:14:42.000Z</time>
      </trkpt>
      <trkpt lat="42.75401" lon="1.51936">
        <ele>1453</ele>
        <time>2026-06-28T06:14:43.000Z</time>
      </trkpt>
      <trkpt lat="42.75399" lon="1.51937">
        <ele>1453</ele>
        <time>2026-06-28T06:14:44.000Z</time>
      </trkpt>
      <trkpt lat="42.75397" lon="1.51939">
        <ele>1453</ele>
        <time>2026-06-28T06:14:45.000Z</time>
      </trkpt>
      <trkpt lat="42.75395" lon="1.51941">
        <ele>1453</ele>
        <time>2026-06-28T06:14:46.000Z</time>
      </trkpt>
      <trkpt lat="42.75393" lon="1.51943">
        <ele>1453</ele>
        <time>2026-06-28T06:14:47.000Z</time>
      </trkpt>
      <trkpt lat="42.75391" lon="1.51945">
        <ele>1453</ele>
        <time>2026-06-28T06:14:48.000Z</time>
      </trkpt>
      <trkpt lat="42.75389" lon="1.51946">
        <ele>1453</ele>
        <time>2026-06-28T06:14:49.000Z</time>
      </trkpt>
      <trkpt lat="42.75387" lon="1.51947">
        <ele>1453</ele>
        <time>2026-06-28T06:14:50.000Z</time>
      </trkpt>
      <trkpt lat="42.75384" lon="1.51948">
        <ele>1454</ele>
        <time>2026-06-28T06:14:51.000Z</time>
      </trkpt>
      <trkpt lat="42.75382" lon="1.51948">
        <ele>1453</ele>
        <time>2026-06-28T06:14:52.000Z</time>
      </trkpt>
      <trkpt lat="42.75379" lon="1.51949">
        <ele>1454</ele>
        <time>2026-06-28T06:14:53.000Z</time>
      </trkpt>
      <trkpt lat="42.75377" lon="1.51949">
        <ele>1454</ele>
        <time>2026-06-28T06:14:54.000Z</time>
      </trkpt>
      <trkpt lat="42.75374" lon="1.51948">
        <ele>1454</ele>
        <time>2026-06-28T06:14:55.000Z</time>
      </trkpt>
      <trkpt lat="42.75371" lon="1.51946">
        <ele>1454</ele>
        <time>2026-06-28T06:14:56.000Z</time>
      </trkpt>
      <trkpt lat="42.75369" lon="1.51944">
        <ele>1454</ele>
        <time>2026-06-28T06:14:57.000Z</time>
      </trkpt>
      <trkpt lat="42.75366" lon="1.51942">
        <ele>1454</ele>
        <time>2026-06-28T06:14:58.000Z</time>
      </trkpt>
      <trkpt lat="42.75364" lon="1.51939">
        <ele>1455</ele>
        <time>2026-06-28T06:14:59.000Z</time>
      </trkpt>
      <trkpt lat="42.75362" lon="1.51937">
        <ele>1456</ele>
        <time>2026-06-28T06:15:00.000Z</time>
      </trkpt>
      <trkpt lat="42.7536" lon="1.51934">
        <ele>1456</ele>
        <time>2026-06-28T06:15:01.000Z</time>
      </trkpt>
      <trkpt lat="42.75357" lon="1.51932">
        <ele>1456</ele>
        <time>2026-06-28T06:15:02.000Z</time>
      </trkpt>
      <trkpt lat="42.75354" lon="1.51931">
        <ele>1456</ele>
        <time>2026-06-28T06:15:03.000Z</time>
      </trkpt>
      <trkpt lat="42.75352" lon="1.51929">
        <ele>1456</ele>
        <time>2026-06-28T06:15:04.000Z</time>
      </trkpt>
      <trkpt lat="42.7535" lon="1.51927">
        <ele>1457</ele>
        <time>2026-06-28T06:15:05.000Z</time>
      </trkpt>
      <trkpt lat="42.75349" lon="1.51925">
        <ele>1457</ele>
        <time>2026-06-28T06:15:06.000Z</time>
      </trkpt>
      <trkpt lat="42.75346" lon="1.51923">
        <ele>1457</ele>
        <time>2026-06-28T06:15:07.000Z</time>
      </trkpt>
      <trkpt lat="42.75343" lon="1.51922">
        <ele>1457</ele>
        <time>2026-06-28T06:15:08.000Z</time>
      </trkpt>
      <trkpt lat="42.75342" lon="1.5192">
        <ele>1458</ele>
        <time>2026-06-28T06:15:09.000Z</time>
      </trkpt>
      <trkpt lat="42.7534" lon="1.5192">
        <ele>1458</ele>
        <time>2026-06-28T06:15:10.000Z</time>
      </trkpt>
      <trkpt lat="42.75338" lon="1.51919">
        <ele>1458</ele>
        <time>2026-06-28T06:15:11.000Z</time>
      </trkpt>
      <trkpt lat="42.75337" lon="1.51919">
        <ele>1458</ele>
        <time>2026-06-28T06:15:12.000Z</time>
      </trkpt>
      <trkpt lat="42.75335" lon="1.51919">
        <ele>1458</ele>
        <time>2026-06-28T06:15:13.000Z</time>
      </trkpt>
      <trkpt lat="42.75333" lon="1.51919">
        <ele>1459</ele>
        <time>2026-06-28T06:15:14.000Z</time>
      </trkpt>
      <trkpt lat="42.75331" lon="1.51919">
        <ele>1460</ele>
        <time>2026-06-28T06:15:15.000Z</time>
      </trkpt>
      <trkpt lat="42.75329" lon="1.5192">
        <ele>1461</ele>
        <time>2026-06-28T06:15:16.000Z</time>
      </trkpt>
      <trkpt lat="42.75326" lon="1.5192">
        <ele>1461</ele>
        <time>2026-06-28T06:15:17.000Z</time>
      </trkpt>
      <trkpt lat="42.75324" lon="1.5192">
        <ele>1461</ele>
        <time>2026-06-28T06:15:18.000Z</time>
      </trkpt>
      <trkpt lat="42.75321" lon="1.51921">
        <ele>1461</ele>
        <time>2026-06-28T06:15:19.000Z</time>
      </trkpt>
      <trkpt lat="42.75319" lon="1.51921">
        <ele>1461</ele>
        <time>2026-06-28T06:15:20.000Z</time>
      </trkpt>
      <trkpt lat="42.75317" lon="1.51921">
        <ele>1461</ele>
        <time>2026-06-28T06:15:21.000Z</time>
      </trkpt>
      <trkpt lat="42.75314" lon="1.51922">
        <ele>1461</ele>
        <time>2026-06-28T06:15:22.000Z</time>
      </trkpt>
      <trkpt lat="42.75312" lon="1.51922">
        <ele>1461</ele>
        <time>2026-06-28T06:15:23.000Z</time>
      </trkpt>
      <trkpt lat="42.75309" lon="1.51923">
        <ele>1461</ele>
        <time>2026-06-28T06:15:24.000Z</time>
      </trkpt>
      <trkpt lat="42.75307" lon="1.51924">
        <ele>1461</ele>
        <time>2026-06-28T06:15:25.000Z</time>
      </trkpt>
      <trkpt lat="42.75304" lon="1.51925">
        <ele>1461</ele>
        <time>2026-06-28T06:15:26.000Z</time>
      </trkpt>
      <trkpt lat="42.75301" lon="1.51926">
        <ele>1461</ele>
        <time>2026-06-28T06:15:27.000Z</time>
      </trkpt>
      <trkpt lat="42.75299" lon="1.51927">
        <ele>1462</ele>
        <time>2026-06-28T06:15:28.000Z</time>
      </trkpt>
      <trkpt lat="42.75296" lon="1.51927">
        <ele>1462</ele>
        <time>2026-06-28T06:15:29.000Z</time>
      </trkpt>
      <trkpt lat="42.75294" lon="1.51928">
        <ele>1462</ele>
        <time>2026-06-28T06:15:30.000Z</time>
      </trkpt>
      <trkpt lat="42.75291" lon="1.51929">
        <ele>1462</ele>
        <time>2026-06-28T06:15:31.000Z</time>
      </trkpt>
      <trkpt lat="42.75289" lon="1.5193">
        <ele>1462</ele>
        <time>2026-06-28T06:15:32.000Z</time>
      </trkpt>
      <trkpt lat="42.75286" lon="1.5193">
        <ele>1462</ele>
        <time>2026-06-28T06:15:33.000Z</time>
      </trkpt>
      <trkpt lat="42.75284" lon="1.51931">
        <ele>1462</ele>
        <time>2026-06-28T06:15:34.000Z</time>
      </trkpt>
      <trkpt lat="42.75282" lon="1.51932">
        <ele>1463</ele>
        <time>2026-06-28T06:15:35.000Z</time>
      </trkpt>
      <trkpt lat="42.7528" lon="1.51934">
        <ele>1464</ele>
        <time>2026-06-28T06:15:36.000Z</time>
      </trkpt>
      <trkpt lat="42.75277" lon="1.51936">
        <ele>1464</ele>
        <time>2026-06-28T06:15:37.000Z</time>
      </trkpt>
      <trkpt lat="42.75275" lon="1.51937">
        <ele>1464</ele>
        <time>2026-06-28T06:15:38.000Z</time>
      </trkpt>
      <trkpt lat="42.75273" lon="1.51939">
        <ele>1465</ele>
        <time>2026-06-28T06:15:39.000Z</time>
      </trkpt>
      <trkpt lat="42.75271" lon="1.51941">
        <ele>1465</ele>
        <time>2026-06-28T06:15:40.000Z</time>
      </trkpt>
      <trkpt lat="42.75269" lon="1.51942">
        <ele>1465</ele>
        <time>2026-06-28T06:15:41.000Z</time>
      </trkpt>
      <trkpt lat="42.75266" lon="1.51943">
        <ele>1465</ele>
        <time>2026-06-28T06:15:42.000Z</time>
      </trkpt>
      <trkpt lat="42.75263" lon="1.51944">
        <ele>1465</ele>
        <time>2026-06-28T06:15:43.000Z</time>
      </trkpt>
      <trkpt lat="42.75261" lon="1.51946">
        <ele>1465</ele>
        <time>2026-06-28T06:15:44.000Z</time>
      </trkpt>
      <trkpt lat="42.75258" lon="1.51948">
        <ele>1465</ele>
        <time>2026-06-28T06:15:45.000Z</time>
      </trkpt>
      <trkpt lat="42.75257" lon="1.5195">
        <ele>1466</ele>
        <time>2026-06-28T06:15:46.000Z</time>
      </trkpt>
      <trkpt lat="42.75255" lon="1.51952">
        <ele>1466</ele>
        <time>2026-06-28T06:15:47.000Z</time>
      </trkpt>
      <trkpt lat="42.75253" lon="1.51954">
        <ele>1466</ele>
        <time>2026-06-28T06:15:48.000Z</time>
      </trkpt>
      <trkpt lat="42.75252" lon="1.51956">
        <ele>1466</ele>
        <time>2026-06-28T06:15:49.000Z</time>
      </trkpt>
      <trkpt lat="42.7525" lon="1.51958">
        <ele>1466</ele>
        <time>2026-06-28T06:15:50.000Z</time>
      </trkpt>
      <trkpt lat="42.75249" lon="1.5196">
        <ele>1467</ele>
        <time>2026-06-28T06:15:51.000Z</time>
      </trkpt>
      <trkpt lat="42.75247" lon="1.51962">
        <ele>1467</ele>
        <time>2026-06-28T06:15:52.000Z</time>
      </trkpt>
      <trkpt lat="42.75245" lon="1.51964">
        <ele>1467</ele>
        <time>2026-06-28T06:15:53.000Z</time>
      </trkpt>
      <trkpt lat="42.75244" lon="1.51966">
        <ele>1468</ele>
        <time>2026-06-28T06:15:54.000Z</time>
      </trkpt>
      <trkpt lat="42.75243" lon="1.51969">
        <ele>1469</ele>
        <time>2026-06-28T06:15:55.000Z</time>
      </trkpt>
      <trkpt lat="42.75241" lon="1.51972">
        <ele>1470</ele>
        <time>2026-06-28T06:15:56.000Z</time>
      </trkpt>
      <trkpt lat="42.7524" lon="1.51975">
        <ele>1470</ele>
        <time>2026-06-28T06:15:57.000Z</time>
      </trkpt>
      <trkpt lat="42.75239" lon="1.51978">
        <ele>1471</ele>
        <time>2026-06-28T06:15:58.000Z</time>
      </trkpt>
      <trkpt lat="42.75238" lon="1.51981">
        <ele>1472</ele>
        <time>2026-06-28T06:15:59.000Z</time>
      </trkpt>
      <trkpt lat="42.75237" lon="1.51983">
        <ele>1472</ele>
        <time>2026-06-28T06:16:00.000Z</time>
      </trkpt>
      <trkpt lat="42.75236" lon="1.51986">
        <ele>1472</ele>
        <time>2026-06-28T06:16:01.000Z</time>
      </trkpt>
      <trkpt lat="42.75235" lon="1.51989">
        <ele>1473</ele>
        <time>2026-06-28T06:16:02.000Z</time>
      </trkpt>
      <trkpt lat="42.75234" lon="1.51992">
        <ele>1473</ele>
        <time>2026-06-28T06:16:03.000Z</time>
      </trkpt>
      <trkpt lat="42.75233" lon="1.51994">
        <ele>1474</ele>
        <time>2026-06-28T06:16:04.000Z</time>
      </trkpt>
      <trkpt lat="42.75232" lon="1.51996">
        <ele>1474</ele>
        <time>2026-06-28T06:16:05.000Z</time>
      </trkpt>
      <trkpt lat="42.75231" lon="1.51999">
        <ele>1475</ele>
        <time>2026-06-28T06:16:06.000Z</time>
      </trkpt>
      <trkpt lat="42.7523" lon="1.52001">
        <ele>1476</ele>
        <time>2026-06-28T06:16:07.000Z</time>
      </trkpt>
      <trkpt lat="42.75229" lon="1.52003">
        <ele>1476</ele>
        <time>2026-06-28T06:16:08.000Z</time>
      </trkpt>
      <trkpt lat="42.75228" lon="1.52006">
        <ele>1476</ele>
        <time>2026-06-28T06:16:09.000Z</time>
      </trkpt>
      <trkpt lat="42.75227" lon="1.52009">
        <ele>1476</ele>
        <time>2026-06-28T06:16:10.000Z</time>
      </trkpt>
      <trkpt lat="42.75226" lon="1.52011">
        <ele>1476</ele>
        <time>2026-06-28T06:16:11.000Z</time>
      </trkpt>
      <trkpt lat="42.75225" lon="1.52014">
        <ele>1476</ele>
        <time>2026-06-28T06:16:12.000Z</time>
      </trkpt>
      <trkpt lat="42.75223" lon="1.52017">
        <ele>1476</ele>
        <time>2026-06-28T06:16:13.000Z</time>
      </trkpt>
      <trkpt lat="42.75222" lon="1.5202">
        <ele>1477</ele>
        <time>2026-06-28T06:16:14.000Z</time>
      </trkpt>
      <trkpt lat="42.75221" lon="1.52023">
        <ele>1477</ele>
        <time>2026-06-28T06:16:15.000Z</time>
      </trkpt>
      <trkpt lat="42.7522" lon="1.52026">
        <ele>1477</ele>
        <time>2026-06-28T06:16:16.000Z</time>
      </trkpt>
      <trkpt lat="42.75219" lon="1.52029">
        <ele>1477</ele>
        <time>2026-06-28T06:16:17.000Z</time>
      </trkpt>
      <trkpt lat="42.75219" lon="1.52032">
        <ele>1477</ele>
        <time>2026-06-28T06:16:18.000Z</time>
      </trkpt>
      <trkpt lat="42.75217" lon="1.52035">
        <ele>1477</ele>
        <time>2026-06-28T06:16:19.000Z</time>
      </trkpt>
      <trkpt lat="42.75216" lon="1.52038">
        <ele>1477</ele>
        <time>2026-06-28T06:16:20.000Z</time>
      </trkpt>
      <trkpt lat="42.75215" lon="1.52041">
        <ele>1477</ele>
        <time>2026-06-28T06:16:21.000Z</time>
      </trkpt>
      <trkpt lat="42.75214" lon="1.52043">
        <ele>1478</ele>
        <time>2026-06-28T06:16:22.000Z</time>
      </trkpt>
      <trkpt lat="42.75212" lon="1.52046">
        <ele>1478</ele>
        <time>2026-06-28T06:16:23.000Z</time>
      </trkpt>
      <trkpt lat="42.75211" lon="1.52048">
        <ele>1478</ele>
        <time>2026-06-28T06:16:24.000Z</time>
      </trkpt>
      <trkpt lat="42.75209" lon="1.5205">
        <ele>1478</ele>
        <time>2026-06-28T06:16:25.000Z</time>
      </trkpt>
      <trkpt lat="42.75208" lon="1.52052">
        <ele>1477</ele>
        <time>2026-06-28T06:16:26.000Z</time>
      </trkpt>
      <trkpt lat="42.75206" lon="1.52055">
        <ele>1477</ele>
        <time>2026-06-28T06:16:27.000Z</time>
      </trkpt>
      <trkpt lat="42.75204" lon="1.52058">
        <ele>1476</ele>
        <time>2026-06-28T06:16:28.000Z</time>
      </trkpt>
      <trkpt lat="42.75202" lon="1.52059">
        <ele>1476</ele>
        <time>2026-06-28T06:16:29.000Z</time>
      </trkpt>
      <trkpt lat="42.752" lon="1.52061">
        <ele>1475</ele>
        <time>2026-06-28T06:16:30.000Z</time>
      </trkpt>
      <trkpt lat="42.75197" lon="1.52063">
        <ele>1475</ele>
        <time>2026-06-28T06:16:31.000Z</time>
      </trkpt>
      <trkpt lat="42.75195" lon="1.52064">
        <ele>1476</ele>
        <time>2026-06-28T06:16:32.000Z</time>
      </trkpt>
      <trkpt lat="42.75193" lon="1.52065">
        <ele>1476</ele>
        <time>2026-06-28T06:16:33.000Z</time>
      </trkpt>
      <trkpt lat="42.7519" lon="1.52065">
        <ele>1476</ele>
        <time>2026-06-28T06:16:34.000Z</time>
      </trkpt>
      <trkpt lat="42.75189" lon="1.52066">
        <ele>1476</ele>
        <time>2026-06-28T06:16:35.000Z</time>
      </trkpt>
      <trkpt lat="42.75186" lon="1.52066">
        <ele>1476</ele>
        <time>2026-06-28T06:16:36.000Z</time>
      </trkpt>
      <trkpt lat="42.75184" lon="1.52066">
        <ele>1475</ele>
        <time>2026-06-28T06:16:37.000Z</time>
      </trkpt>
      <trkpt lat="42.75182" lon="1.52066">
        <ele>1475</ele>
        <time>2026-06-28T06:16:38.000Z</time>
      </trkpt>
      <trkpt lat="42.75179" lon="1.52066">
        <ele>1475</ele>
        <time>2026-06-28T06:16:39.000Z</time>
      </trkpt>
      <trkpt lat="42.75177" lon="1.52064">
        <ele>1475</ele>
        <time>2026-06-28T06:16:40.000Z</time>
      </trkpt>
      <trkpt lat="42.75176" lon="1.52064">
        <ele>1475</ele>
        <time>2026-06-28T06:16:41.000Z</time>
      </trkpt>
      <trkpt lat="42.75173" lon="1.52063">
        <ele>1475</ele>
        <time>2026-06-28T06:16:42.000Z</time>
      </trkpt>
      <trkpt lat="42.75171" lon="1.52062">
        <ele>1476</ele>
        <time>2026-06-28T06:16:43.000Z</time>
      </trkpt>
      <trkpt lat="42.75168" lon="1.52061">
        <ele>1475</ele>
        <time>2026-06-28T06:16:44.000Z</time>
      </trkpt>
      <trkpt lat="42.75165" lon="1.5206">
        <ele>1475</ele>
        <time>2026-06-28T06:16:45.000Z</time>
      </trkpt>
      <trkpt lat="42.75163" lon="1.5206">
        <ele>1475</ele>
        <time>2026-06-28T06:16:46.000Z</time>
      </trkpt>
      <trkpt lat="42.75161" lon="1.52059">
        <ele>1475</ele>
        <time>2026-06-28T06:16:47.000Z</time>
      </trkpt>
      <trkpt lat="42.75158" lon="1.52059">
        <ele>1476</ele>
        <time>2026-06-28T06:16:48.000Z</time>
      </trkpt>
      <trkpt lat="42.75155" lon="1.52059">
        <ele>1476</ele>
        <time>2026-06-28T06:16:49.000Z</time>
      </trkpt>
      <trkpt lat="42.75152" lon="1.5206">
        <ele>1476</ele>
        <time>2026-06-28T06:16:50.000Z</time>
      </trkpt>
      <trkpt lat="42.75149" lon="1.5206">
        <ele>1476</ele>
        <time>2026-06-28T06:16:51.000Z</time>
      </trkpt>
      <trkpt lat="42.75146" lon="1.52061">
        <ele>1476</ele>
        <time>2026-06-28T06:16:52.000Z</time>
      </trkpt>
      <trkpt lat="42.75143" lon="1.52062">
        <ele>1476</ele>
        <time>2026-06-28T06:16:53.000Z</time>
      </trkpt>
      <trkpt lat="42.75141" lon="1.52063">
        <ele>1476</ele>
        <time>2026-06-28T06:16:54.000Z</time>
      </trkpt>
      <trkpt lat="42.75138" lon="1.52064">
        <ele>1476</ele>
        <time>2026-06-28T06:16:55.000Z</time>
      </trkpt>
      <trkpt lat="42.75136" lon="1.52065">
        <ele>1476</ele>
        <time>2026-06-28T06:16:56.000Z</time>
      </trkpt>
      <trkpt lat="42.75133" lon="1.52067">
        <ele>1475</ele>
        <time>2026-06-28T06:16:57.000Z</time>
      </trkpt>
      <trkpt lat="42.75131" lon="1.52068">
        <ele>1475</ele>
        <time>2026-06-28T06:16:58.000Z</time>
      </trkpt>
      <trkpt lat="42.75129" lon="1.5207">
        <ele>1476</ele>
        <time>2026-06-28T06:16:59.000Z</time>
      </trkpt>
      <trkpt lat="42.75127" lon="1.52072">
        <ele>1476</ele>
        <time>2026-06-28T06:17:00.000Z</time>
      </trkpt>
      <trkpt lat="42.75125" lon="1.52073">
        <ele>1476</ele>
        <time>2026-06-28T06:17:01.000Z</time>
      </trkpt>
      <trkpt lat="42.75123" lon="1.52074">
        <ele>1476</ele>
        <time>2026-06-28T06:17:02.000Z</time>
      </trkpt>
      <trkpt lat="42.75121" lon="1.52076">
        <ele>1476</ele>
        <time>2026-06-28T06:17:03.000Z</time>
      </trkpt>
      <trkpt lat="42.75119" lon="1.52078">
        <ele>1476</ele>
        <time>2026-06-28T06:17:04.000Z</time>
      </trkpt>
      <trkpt lat="42.75117" lon="1.5208">
        <ele>1476</ele>
        <time>2026-06-28T06:17:05.000Z</time>
      </trkpt>
      <trkpt lat="42.75115" lon="1.52082">
        <ele>1476</ele>
        <time>2026-06-28T06:17:06.000Z</time>
      </trkpt>
      <trkpt lat="42.75113" lon="1.52084">
        <ele>1476</ele>
        <time>2026-06-28T06:17:07.000Z</time>
      </trkpt>
      <trkpt lat="42.75112" lon="1.52086">
        <ele>1477</ele>
        <time>2026-06-28T06:17:08.000Z</time>
      </trkpt>
      <trkpt lat="42.7511" lon="1.52088">
        <ele>1477</ele>
        <time>2026-06-28T06:17:09.000Z</time>
      </trkpt>
      <trkpt lat="42.75109" lon="1.52091">
        <ele>1477</ele>
        <time>2026-06-28T06:17:10.000Z</time>
      </trkpt>
      <trkpt lat="42.75107" lon="1.52094">
        <ele>1477</ele>
        <time>2026-06-28T06:17:11.000Z</time>
      </trkpt>
      <trkpt lat="42.75105" lon="1.52096">
        <ele>1477</ele>
        <time>2026-06-28T06:17:12.000Z</time>
      </trkpt>
      <trkpt lat="42.75104" lon="1.52098">
        <ele>1478</ele>
        <time>2026-06-28T06:17:13.000Z</time>
      </trkpt>
      <trkpt lat="42.75102" lon="1.521">
        <ele>1478</ele>
        <time>2026-06-28T06:17:14.000Z</time>
      </trkpt>
      <trkpt lat="42.751" lon="1.52103">
        <ele>1479</ele>
        <time>2026-06-28T06:17:15.000Z</time>
      </trkpt>
      <trkpt lat="42.75098" lon="1.52106">
        <ele>1479</ele>
        <time>2026-06-28T06:17:16.000Z</time>
      </trkpt>
      <trkpt lat="42.75096" lon="1.52108">
        <ele>1480</ele>
        <time>2026-06-28T06:17:17.000Z</time>
      </trkpt>
      <trkpt lat="42.75095" lon="1.5211">
        <ele>1480</ele>
        <time>2026-06-28T06:17:18.000Z</time>
      </trkpt>
      <trkpt lat="42.75094" lon="1.52114">
        <ele>1481</ele>
        <time>2026-06-28T06:17:19.000Z</time>
      </trkpt>
      <trkpt lat="42.75092" lon="1.52116">
        <ele>1481</ele>
        <time>2026-06-28T06:17:20.000Z</time>
      </trkpt>
      <trkpt lat="42.7509" lon="1.52118">
        <ele>1481</ele>
        <time>2026-06-28T06:17:21.000Z</time>
      </trkpt>
      <trkpt lat="42.75089" lon="1.52121">
        <ele>1482</ele>
        <time>2026-06-28T06:17:22.000Z</time>
      </trkpt>
      <trkpt lat="42.75087" lon="1.52123">
        <ele>1482</ele>
        <time>2026-06-28T06:17:23.000Z</time>
      </trkpt>
      <trkpt lat="42.75085" lon="1.52127">
        <ele>1482</ele>
        <time>2026-06-28T06:17:24.000Z</time>
      </trkpt>
      <trkpt lat="42.75084" lon="1.52129">
        <ele>1482</ele>
        <time>2026-06-28T06:17:25.000Z</time>
      </trkpt>
      <trkpt lat="42.75083" lon="1.52132">
        <ele>1483</ele>
        <time>2026-06-28T06:17:26.000Z</time>
      </trkpt>
      <trkpt lat="42.75081" lon="1.52135">
        <ele>1483</ele>
        <time>2026-06-28T06:17:27.000Z</time>
      </trkpt>
      <trkpt lat="42.7508" lon="1.52138">
        <ele>1483</ele>
        <time>2026-06-28T06:17:28.000Z</time>
      </trkpt>
      <trkpt lat="42.75079" lon="1.52141">
        <ele>1483</ele>
        <time>2026-06-28T06:17:29.000Z</time>
      </trkpt>
      <trkpt lat="42.75077" lon="1.52143">
        <ele>1483</ele>
        <time>2026-06-28T06:17:30.000Z</time>
      </trkpt>
      <trkpt lat="42.75075" lon="1.52145">
        <ele>1483</ele>
        <time>2026-06-28T06:17:31.000Z</time>
      </trkpt>
      <trkpt lat="42.75074" lon="1.52148">
        <ele>1483</ele>
        <time>2026-06-28T06:17:32.000Z</time>
      </trkpt>
      <trkpt lat="42.75072" lon="1.5215">
        <ele>1483</ele>
        <time>2026-06-28T06:17:33.000Z</time>
      </trkpt>
      <trkpt lat="42.7507" lon="1.52152">
        <ele>1483</ele>
        <time>2026-06-28T06:17:34.000Z</time>
      </trkpt>
      <trkpt lat="42.75068" lon="1.52155">
        <ele>1483</ele>
        <time>2026-06-28T06:17:35.000Z</time>
      </trkpt>
      <trkpt lat="42.75066" lon="1.52157">
        <ele>1484</ele>
        <time>2026-06-28T06:17:36.000Z</time>
      </trkpt>
      <trkpt lat="42.75065" lon="1.52159">
        <ele>1484</ele>
        <time>2026-06-28T06:17:37.000Z</time>
      </trkpt>
      <trkpt lat="42.75063" lon="1.52162">
        <ele>1485</ele>
        <time>2026-06-28T06:17:38.000Z</time>
      </trkpt>
      <trkpt lat="42.75062" lon="1.52164">
        <ele>1485</ele>
        <time>2026-06-28T06:17:39.000Z</time>
      </trkpt>
      <trkpt lat="42.7506" lon="1.52166">
        <ele>1486</ele>
        <time>2026-06-28T06:17:40.000Z</time>
      </trkpt>
      <trkpt lat="42.75058" lon="1.52169">
        <ele>1486</ele>
        <time>2026-06-28T06:17:41.000Z</time>
      </trkpt>
      <trkpt lat="42.75055" lon="1.52171">
        <ele>1486</ele>
        <time>2026-06-28T06:17:42.000Z</time>
      </trkpt>
      <trkpt lat="42.75053" lon="1.52174">
        <ele>1486</ele>
        <time>2026-06-28T06:17:43.000Z</time>
      </trkpt>
      <trkpt lat="42.75051" lon="1.52176">
        <ele>1486</ele>
        <time>2026-06-28T06:17:44.000Z</time>
      </trkpt>
      <trkpt lat="42.75049" lon="1.52177">
        <ele>1486</ele>
        <time>2026-06-28T06:17:45.000Z</time>
      </trkpt>
      <trkpt lat="42.75047" lon="1.52179">
        <ele>1486</ele>
        <time>2026-06-28T06:17:46.000Z</time>
      </trkpt>
      <trkpt lat="42.75046" lon="1.52181">
        <ele>1486</ele>
        <time>2026-06-28T06:17:47.000Z</time>
      </trkpt>
      <trkpt lat="42.75044" lon="1.52183">
        <ele>1485</ele>
        <time>2026-06-28T06:17:48.000Z</time>
      </trkpt>
      <trkpt lat="42.75042" lon="1.52185">
        <ele>1486</ele>
        <time>2026-06-28T06:17:49.000Z</time>
      </trkpt>
      <trkpt lat="42.7504" lon="1.52187">
        <ele>1486</ele>
        <time>2026-06-28T06:17:50.000Z</time>
      </trkpt>
      <trkpt lat="42.75038" lon="1.52189">
        <ele>1486</ele>
        <time>2026-06-28T06:17:51.000Z</time>
      </trkpt>
      <trkpt lat="42.75036" lon="1.5219">
        <ele>1486</ele>
        <time>2026-06-28T06:17:52.000Z</time>
      </trkpt>
      <trkpt lat="42.75034" lon="1.52192">
        <ele>1486</ele>
        <time>2026-06-28T06:17:53.000Z</time>
      </trkpt>
      <trkpt lat="42.75032" lon="1.52193">
        <ele>1487</ele>
        <time>2026-06-28T06:17:54.000Z</time>
      </trkpt>
      <trkpt lat="42.7503" lon="1.52195">
        <ele>1487</ele>
        <time>2026-06-28T06:17:55.000Z</time>
      </trkpt>
      <trkpt lat="42.75028" lon="1.52195">
        <ele>1487</ele>
        <time>2026-06-28T06:17:56.000Z</time>
      </trkpt>
      <trkpt lat="42.75026" lon="1.52196">
        <ele>1486</ele>
        <time>2026-06-28T06:17:57.000Z</time>
      </trkpt>
      <trkpt lat="42.75023" lon="1.52197">
        <ele>1486</ele>
        <time>2026-06-28T06:17:58.000Z</time>
      </trkpt>
      <trkpt lat="42.75022" lon="1.52198">
        <ele>1486</ele>
        <time>2026-06-28T06:17:59.000Z</time>
      </trkpt>
      <trkpt lat="42.7502" lon="1.522">
        <ele>1485</ele>
        <time>2026-06-28T06:18:00.000Z</time>
      </trkpt>
      <trkpt lat="42.75018" lon="1.52201">
        <ele>1485</ele>
        <time>2026-06-28T06:18:01.000Z</time>
      </trkpt>
      <trkpt lat="42.75015" lon="1.52202">
        <ele>1485</ele>
        <time>2026-06-28T06:18:02.000Z</time>
      </trkpt>
      <trkpt lat="42.75013" lon="1.52202">
        <ele>1485</ele>
        <time>2026-06-28T06:18:03.000Z</time>
      </trkpt>
      <trkpt lat="42.75011" lon="1.52202">
        <ele>1484</ele>
        <time>2026-06-28T06:18:04.000Z</time>
      </trkpt>
      <trkpt lat="42.75008" lon="1.52203">
        <ele>1484</ele>
        <time>2026-06-28T06:18:05.000Z</time>
      </trkpt>
      <trkpt lat="42.75007" lon="1.52204">
        <ele>1484</ele>
        <time>2026-06-28T06:18:06.000Z</time>
      </trkpt>
      <trkpt lat="42.75005" lon="1.52204">
        <ele>1484</ele>
        <time>2026-06-28T06:18:07.000Z</time>
      </trkpt>
      <trkpt lat="42.75002" lon="1.52204">
        <ele>1484</ele>
        <time>2026-06-28T06:18:08.000Z</time>
      </trkpt>
      <trkpt lat="42.75" lon="1.52204">
        <ele>1484</ele>
        <time>2026-06-28T06:18:09.000Z</time>
      </trkpt>
      <trkpt lat="42.74997" lon="1.52204">
        <ele>1484</ele>
        <time>2026-06-28T06:18:10.000Z</time>
      </trkpt>
      <trkpt lat="42.74995" lon="1.52203">
        <ele>1484</ele>
        <time>2026-06-28T06:18:11.000Z</time>
      </trkpt>
      <trkpt lat="42.74993" lon="1.52202">
        <ele>1484</ele>
        <time>2026-06-28T06:18:12.000Z</time>
      </trkpt>
      <trkpt lat="42.7499" lon="1.52202">
        <ele>1484</ele>
        <time>2026-06-28T06:18:13.000Z</time>
      </trkpt>
      <trkpt lat="42.74987" lon="1.522">
        <ele>1484</ele>
        <time>2026-06-28T06:18:14.000Z</time>
      </trkpt>
      <trkpt lat="42.74984" lon="1.52199">
        <ele>1484</ele>
        <time>2026-06-28T06:18:15.000Z</time>
      </trkpt>
      <trkpt lat="42.74982" lon="1.52197">
        <ele>1484</ele>
        <time>2026-06-28T06:18:16.000Z</time>
      </trkpt>
      <trkpt lat="42.7498" lon="1.52195">
        <ele>1485</ele>
        <time>2026-06-28T06:18:17.000Z</time>
      </trkpt>
      <trkpt lat="42.74977" lon="1.52194">
        <ele>1485</ele>
        <time>2026-06-28T06:18:18.000Z</time>
      </trkpt>
      <trkpt lat="42.74975" lon="1.52193">
        <ele>1485</ele>
        <time>2026-06-28T06:18:19.000Z</time>
      </trkpt>
      <trkpt lat="42.74972" lon="1.52191">
        <ele>1486</ele>
        <time>2026-06-28T06:18:20.000Z</time>
      </trkpt>
      <trkpt lat="42.7497" lon="1.5219">
        <ele>1486</ele>
        <time>2026-06-28T06:18:21.000Z</time>
      </trkpt>
      <trkpt lat="42.74968" lon="1.52189">
        <ele>1486</ele>
        <time>2026-06-28T06:18:22.000Z</time>
      </trkpt>
      <trkpt lat="42.74966" lon="1.52188">
        <ele>1486</ele>
        <time>2026-06-28T06:18:23.000Z</time>
      </trkpt>
      <trkpt lat="42.74964" lon="1.52187">
        <ele>1487</ele>
        <time>2026-06-28T06:18:24.000Z</time>
      </trkpt>
      <trkpt lat="42.74962" lon="1.52186">
        <ele>1487</ele>
        <time>2026-06-28T06:18:25.000Z</time>
      </trkpt>
      <trkpt lat="42.74959" lon="1.52185">
        <ele>1488</ele>
        <time>2026-06-28T06:18:26.000Z</time>
      </trkpt>
      <trkpt lat="42.74956" lon="1.52185">
        <ele>1488</ele>
        <time>2026-06-28T06:18:27.000Z</time>
      </trkpt>
      <trkpt lat="42.74954" lon="1.52186">
        <ele>1489</ele>
        <time>2026-06-28T06:18:28.000Z</time>
      </trkpt>
      <trkpt lat="42.74952" lon="1.52186">
        <ele>1489</ele>
        <time>2026-06-28T06:18:29.000Z</time>
      </trkpt>
      <trkpt lat="42.7495" lon="1.52186">
        <ele>1489</ele>
        <time>2026-06-28T06:18:30.000Z</time>
      </trkpt>
      <trkpt lat="42.74948" lon="1.52186">
        <ele>1489</ele>
        <time>2026-06-28T06:18:31.000Z</time>
      </trkpt>
      <trkpt lat="42.74945" lon="1.52187">
        <ele>1489</ele>
        <time>2026-06-28T06:18:32.000Z</time>
      </trkpt>
      <trkpt lat="42.74942" lon="1.52187">
        <ele>1489</ele>
        <time>2026-06-28T06:18:33.000Z</time>
      </trkpt>
      <trkpt lat="42.7494" lon="1.52188">
        <ele>1489</ele>
        <time>2026-06-28T06:18:34.000Z</time>
      </trkpt>
      <trkpt lat="42.74938" lon="1.52188">
        <ele>1489</ele>
        <time>2026-06-28T06:18:35.000Z</time>
      </trkpt>
      <trkpt lat="42.74935" lon="1.52189">
        <ele>1489</ele>
        <time>2026-06-28T06:18:36.000Z</time>
      </trkpt>
      <trkpt lat="42.74933" lon="1.52188">
        <ele>1489</ele>
        <time>2026-06-28T06:18:37.000Z</time>
      </trkpt>
      <trkpt lat="42.74931" lon="1.52189">
        <ele>1489</ele>
        <time>2026-06-28T06:18:38.000Z</time>
      </trkpt>
      <trkpt lat="42.74929" lon="1.52189">
        <ele>1489</ele>
        <time>2026-06-28T06:18:39.000Z</time>
      </trkpt>
      <trkpt lat="42.74926" lon="1.5219">
        <ele>1490</ele>
        <time>2026-06-28T06:18:40.000Z</time>
      </trkpt>
      <trkpt lat="42.74923" lon="1.52191">
        <ele>1490</ele>
        <time>2026-06-28T06:18:41.000Z</time>
      </trkpt>
      <trkpt lat="42.74921" lon="1.52191">
        <ele>1489</ele>
        <time>2026-06-28T06:18:42.000Z</time>
      </trkpt>
      <trkpt lat="42.74919" lon="1.52192">
        <ele>1490</ele>
        <time>2026-06-28T06:18:43.000Z</time>
      </trkpt>
      <trkpt lat="42.74916" lon="1.52193">
        <ele>1490</ele>
        <time>2026-06-28T06:18:44.000Z</time>
      </trkpt>
      <trkpt lat="42.74913" lon="1.52194">
        <ele>1490</ele>
        <time>2026-06-28T06:18:45.000Z</time>
      </trkpt>
      <trkpt lat="42.74911" lon="1.52195">
        <ele>1490</ele>
        <time>2026-06-28T06:18:46.000Z</time>
      </trkpt>
      <trkpt lat="42.74909" lon="1.52195">
        <ele>1490</ele>
        <time>2026-06-28T06:18:47.000Z</time>
      </trkpt>
      <trkpt lat="42.74907" lon="1.52196">
        <ele>1490</ele>
        <time>2026-06-28T06:18:48.000Z</time>
      </trkpt>
      <trkpt lat="42.74905" lon="1.52196">
        <ele>1489</ele>
        <time>2026-06-28T06:18:49.000Z</time>
      </trkpt>
      <trkpt lat="42.74902" lon="1.52197">
        <ele>1489</ele>
        <time>2026-06-28T06:18:50.000Z</time>
      </trkpt>
      <trkpt lat="42.749" lon="1.52198">
        <ele>1490</ele>
        <time>2026-06-28T06:18:51.000Z</time>
      </trkpt>
      <trkpt lat="42.74898" lon="1.52199">
        <ele>1491</ele>
        <time>2026-06-28T06:18:52.000Z</time>
      </trkpt>
      <trkpt lat="42.74896" lon="1.52199">
        <ele>1491</ele>
        <time>2026-06-28T06:18:53.000Z</time>
      </trkpt>
      <trkpt lat="42.74893" lon="1.522">
        <ele>1491</ele>
        <time>2026-06-28T06:18:54.000Z</time>
      </trkpt>
      <trkpt lat="42.74891" lon="1.52202">
        <ele>1492</ele>
        <time>2026-06-28T06:18:55.000Z</time>
      </trkpt>
      <trkpt lat="42.74889" lon="1.52203">
        <ele>1493</ele>
        <time>2026-06-28T06:18:56.000Z</time>
      </trkpt>
      <trkpt lat="42.74887" lon="1.52205">
        <ele>1493</ele>
        <time>2026-06-28T06:18:57.000Z</time>
      </trkpt>
      <trkpt lat="42.74884" lon="1.52206">
        <ele>1494</ele>
        <time>2026-06-28T06:18:58.000Z</time>
      </trkpt>
      <trkpt lat="42.74882" lon="1.52207">
        <ele>1494</ele>
        <time>2026-06-28T06:18:59.000Z</time>
      </trkpt>
      <trkpt lat="42.7488" lon="1.52209">
        <ele>1494</ele>
        <time>2026-06-28T06:19:00.000Z</time>
      </trkpt>
      <trkpt lat="42.74878" lon="1.52211">
        <ele>1495</ele>
        <time>2026-06-28T06:19:01.000Z</time>
      </trkpt>
      <trkpt lat="42.74876" lon="1.52212">
        <ele>1496</ele>
        <time>2026-06-28T06:19:02.000Z</time>
      </trkpt>
      <trkpt lat="42.74875" lon="1.52213">
        <ele>1496</ele>
        <time>2026-06-28T06:19:03.000Z</time>
      </trkpt>
      <trkpt lat="42.74873" lon="1.52214">
        <ele>1497</ele>
        <time>2026-06-28T06:19:04.000Z</time>
      </trkpt>
      <trkpt lat="42.7487" lon="1.52215">
        <ele>1497</ele>
        <time>2026-06-28T06:19:05.000Z</time>
      </trkpt>
      <trkpt lat="42.74869" lon="1.52216">
        <ele>1498</ele>
        <time>2026-06-28T06:19:06.000Z</time>
      </trkpt>
      <trkpt lat="42.74867" lon="1.52218">
        <ele>1499</ele>
        <time>2026-06-28T06:19:07.000Z</time>
      </trkpt>
      <trkpt lat="42.74865" lon="1.52219">
        <ele>1499</ele>
        <time>2026-06-28T06:19:08.000Z</time>
      </trkpt>
      <trkpt lat="42.74863" lon="1.52221">
        <ele>1500</ele>
        <time>2026-06-28T06:19:09.000Z</time>
      </trkpt>
      <trkpt lat="42.74861" lon="1.52222">
        <ele>1500</ele>
        <time>2026-06-28T06:19:10.000Z</time>
      </trkpt>
      <trkpt lat="42.74859" lon="1.52223">
        <ele>1500</ele>
        <time>2026-06-28T06:19:11.000Z</time>
      </trkpt>
      <trkpt lat="42.74857" lon="1.52225">
        <ele>1500</ele>
        <time>2026-06-28T06:19:12.000Z</time>
      </trkpt>
      <trkpt lat="42.74855" lon="1.52227">
        <ele>1501</ele>
        <time>2026-06-28T06:19:13.000Z</time>
      </trkpt>
      <trkpt lat="42.74852" lon="1.52228">
        <ele>1501</ele>
        <time>2026-06-28T06:19:14.000Z</time>
      </trkpt>
      <trkpt lat="42.7485" lon="1.5223">
        <ele>1501</ele>
        <time>2026-06-28T06:19:15.000Z</time>
      </trkpt>
      <trkpt lat="42.74848" lon="1.52232">
        <ele>1501</ele>
        <time>2026-06-28T06:19:16.000Z</time>
      </trkpt>
      <trkpt lat="42.74846" lon="1.52234">
        <ele>1501</ele>
        <time>2026-06-28T06:19:17.000Z</time>
      </trkpt>
      <trkpt lat="42.74844" lon="1.52235">
        <ele>1502</ele>
        <time>2026-06-28T06:19:18.000Z</time>
      </trkpt>
      <trkpt lat="42.74842" lon="1.52237">
        <ele>1502</ele>
        <time>2026-06-28T06:19:19.000Z</time>
      </trkpt>
      <trkpt lat="42.74839" lon="1.52239">
        <ele>1503</ele>
        <time>2026-06-28T06:19:20.000Z</time>
      </trkpt>
      <trkpt lat="42.74837" lon="1.52241">
        <ele>1503</ele>
        <time>2026-06-28T06:19:21.000Z</time>
      </trkpt>
      <trkpt lat="42.74834" lon="1.52244">
        <ele>1504</ele>
        <time>2026-06-28T06:19:22.000Z</time>
      </trkpt>
      <trkpt lat="42.74832" lon="1.52245">
        <ele>1505</ele>
        <time>2026-06-28T06:19:23.000Z</time>
      </trkpt>
      <trkpt lat="42.7483" lon="1.52248">
        <ele>1504</ele>
        <time>2026-06-28T06:19:24.000Z</time>
      </trkpt>
      <trkpt lat="42.74828" lon="1.52249">
        <ele>1504</ele>
        <time>2026-06-28T06:19:25.000Z</time>
      </trkpt>
      <trkpt lat="42.74826" lon="1.52251">
        <ele>1504</ele>
        <time>2026-06-28T06:19:26.000Z</time>
      </trkpt>
      <trkpt lat="42.74824" lon="1.52252">
        <ele>1504</ele>
        <time>2026-06-28T06:19:27.000Z</time>
      </trkpt>
      <trkpt lat="42.74822" lon="1.52253">
        <ele>1504</ele>
        <time>2026-06-28T06:19:28.000Z</time>
      </trkpt>
      <trkpt lat="42.7482" lon="1.52254">
        <ele>1504</ele>
        <time>2026-06-28T06:19:29.000Z</time>
      </trkpt>
      <trkpt lat="42.74818" lon="1.52256">
        <ele>1505</ele>
        <time>2026-06-28T06:19:30.000Z</time>
      </trkpt>
      <trkpt lat="42.74817" lon="1.52258">
        <ele>1505</ele>
        <time>2026-06-28T06:19:31.000Z</time>
      </trkpt>
      <trkpt lat="42.74816" lon="1.52259">
        <ele>1505</ele>
        <time>2026-06-28T06:19:32.000Z</time>
      </trkpt>
      <trkpt lat="42.74814" lon="1.52261">
        <ele>1504</ele>
        <time>2026-06-28T06:19:33.000Z</time>
      </trkpt>
      <trkpt lat="42.74812" lon="1.52262">
        <ele>1505</ele>
        <time>2026-06-28T06:19:34.000Z</time>
      </trkpt>
      <trkpt lat="42.7481" lon="1.52264">
        <ele>1505</ele>
        <time>2026-06-28T06:19:35.000Z</time>
      </trkpt>
      <trkpt lat="42.74809" lon="1.52265">
        <ele>1505</ele>
        <time>2026-06-28T06:19:36.000Z</time>
      </trkpt>
      <trkpt lat="42.74807" lon="1.52267">
        <ele>1505</ele>
        <time>2026-06-28T06:19:37.000Z</time>
      </trkpt>
      <trkpt lat="42.74805" lon="1.52269">
        <ele>1505</ele>
        <time>2026-06-28T06:19:38.000Z</time>
      </trkpt>
      <trkpt lat="42.74803" lon="1.5227">
        <ele>1505</ele>
        <time>2026-06-28T06:19:39.000Z</time>
      </trkpt>
      <trkpt lat="42.74801" lon="1.52272">
        <ele>1505</ele>
        <time>2026-06-28T06:19:40.000Z</time>
      </trkpt>
      <trkpt lat="42.74798" lon="1.52274">
        <ele>1505</ele>
        <time>2026-06-28T06:19:41.000Z</time>
      </trkpt>
      <trkpt lat="42.74795" lon="1.52275">
        <ele>1505</ele>
        <time>2026-06-28T06:19:42.000Z</time>
      </trkpt>
      <trkpt lat="42.74793" lon="1.52276">
        <ele>1505</ele>
        <time>2026-06-28T06:19:43.000Z</time>
      </trkpt>
      <trkpt lat="42.74791" lon="1.52278">
        <ele>1505</ele>
        <time>2026-06-28T06:19:44.000Z</time>
      </trkpt>
      <trkpt lat="42.74788" lon="1.52278">
        <ele>1505</ele>
        <time>2026-06-28T06:19:45.000Z</time>
      </trkpt>
      <trkpt lat="42.74786" lon="1.5228">
        <ele>1505</ele>
        <time>2026-06-28T06:19:46.000Z</time>
      </trkpt>
      <trkpt lat="42.74783" lon="1.52281">
        <ele>1505</ele>
        <time>2026-06-28T06:19:47.000Z</time>
      </trkpt>
      <trkpt lat="42.74781" lon="1.52282">
        <ele>1505</ele>
        <time>2026-06-28T06:19:48.000Z</time>
      </trkpt>
      <trkpt lat="42.74779" lon="1.52284">
        <ele>1505</ele>
        <time>2026-06-28T06:19:49.000Z</time>
      </trkpt>
      <trkpt lat="42.74777" lon="1.52285">
        <ele>1505</ele>
        <time>2026-06-28T06:19:50.000Z</time>
      </trkpt>
      <trkpt lat="42.74775" lon="1.52287">
        <ele>1505</ele>
        <time>2026-06-28T06:19:51.000Z</time>
      </trkpt>
      <trkpt lat="42.74773" lon="1.52289">
        <ele>1506</ele>
        <time>2026-06-28T06:19:52.000Z</time>
      </trkpt>
      <trkpt lat="42.74771" lon="1.52291">
        <ele>1507</ele>
        <time>2026-06-28T06:19:53.000Z</time>
      </trkpt>
      <trkpt lat="42.7477" lon="1.52293">
        <ele>1507</ele>
        <time>2026-06-28T06:19:54.000Z</time>
      </trkpt>
      <trkpt lat="42.7477" lon="1.52297">
        <ele>1508</ele>
        <time>2026-06-28T06:19:55.000Z</time>
      </trkpt>
      <trkpt lat="42.7477" lon="1.523">
        <ele>1509</ele>
        <time>2026-06-28T06:19:56.000Z</time>
      </trkpt>
      <trkpt lat="42.7477" lon="1.52304">
        <ele>1510</ele>
        <time>2026-06-28T06:19:57.000Z</time>
      </trkpt>
      <trkpt lat="42.7477" lon="1.52308">
        <ele>1510</ele>
        <time>2026-06-28T06:19:58.000Z</time>
      </trkpt>
      <trkpt lat="42.74771" lon="1.5231">
        <ele>1510</ele>
        <time>2026-06-28T06:19:59.000Z</time>
      </trkpt>
      <trkpt lat="42.74772" lon="1.52312">
        <ele>1510</ele>
        <time>2026-06-28T06:20:00.000Z</time>
      </trkpt>
      <trkpt lat="42.74773" lon="1.52314">
        <ele>1511</ele>
        <time>2026-06-28T06:20:01.000Z</time>
      </trkpt>
      <trkpt lat="42.74775" lon="1.52317">
        <ele>1512</ele>
        <time>2026-06-28T06:20:02.000Z</time>
      </trkpt>
      <trkpt lat="42.74777" lon="1.52319">
        <ele>1513</ele>
        <time>2026-06-28T06:20:03.000Z</time>
      </trkpt>
      <trkpt lat="42.74779" lon="1.52322">
        <ele>1513</ele>
        <time>2026-06-28T06:20:04.000Z</time>
      </trkpt>
      <trkpt lat="42.74781" lon="1.52324">
        <ele>1513</ele>
        <time>2026-06-28T06:20:05.000Z</time>
      </trkpt>
      <trkpt lat="42.74782" lon="1.52325">
        <ele>1513</ele>
        <time>2026-06-28T06:20:06.000Z</time>
      </trkpt>
      <trkpt lat="42.74783" lon="1.52328">
        <ele>1514</ele>
        <time>2026-06-28T06:20:07.000Z</time>
      </trkpt>
      <trkpt lat="42.74784" lon="1.5233">
        <ele>1514</ele>
        <time>2026-06-28T06:20:08.000Z</time>
      </trkpt>
      <trkpt lat="42.74786" lon="1.52331">
        <ele>1514</ele>
        <time>2026-06-28T06:20:09.000Z</time>
      </trkpt>
      <trkpt lat="42.74787" lon="1.52334">
        <ele>1515</ele>
        <time>2026-06-28T06:20:10.000Z</time>
      </trkpt>
      <trkpt lat="42.74788" lon="1.52336">
        <ele>1515</ele>
        <time>2026-06-28T06:20:11.000Z</time>
      </trkpt>
      <trkpt lat="42.74789" lon="1.52339">
        <ele>1515</ele>
        <time>2026-06-28T06:20:12.000Z</time>
      </trkpt>
      <trkpt lat="42.7479" lon="1.52342">
        <ele>1515</ele>
        <time>2026-06-28T06:20:13.000Z</time>
      </trkpt>
      <trkpt lat="42.74791" lon="1.52345">
        <ele>1516</ele>
        <time>2026-06-28T06:20:14.000Z</time>
      </trkpt>
      <trkpt lat="42.74791" lon="1.52347">
        <ele>1516</ele>
        <time>2026-06-28T06:20:15.000Z</time>
      </trkpt>
      <trkpt lat="42.74792" lon="1.52351">
        <ele>1516</ele>
        <time>2026-06-28T06:20:16.000Z</time>
      </trkpt>
      <trkpt lat="42.74793" lon="1.52353">
        <ele>1516</ele>
        <time>2026-06-28T06:20:17.000Z</time>
      </trkpt>
      <trkpt lat="42.74794" lon="1.52356">
        <ele>1517</ele>
        <time>2026-06-28T06:20:18.000Z</time>
      </trkpt>
      <trkpt lat="42.74795" lon="1.52359">
        <ele>1518</ele>
        <time>2026-06-28T06:20:19.000Z</time>
      </trkpt>
      <trkpt lat="42.74795" lon="1.52362">
        <ele>1518</ele>
        <time>2026-06-28T06:20:20.000Z</time>
      </trkpt>
      <trkpt lat="42.74796" lon="1.52366">
        <ele>1519</ele>
        <time>2026-06-28T06:20:21.000Z</time>
      </trkpt>
      <trkpt lat="42.74797" lon="1.52368">
        <ele>1519</ele>
        <time>2026-06-28T06:20:22.000Z</time>
      </trkpt>
      <trkpt lat="42.74798" lon="1.52371">
        <ele>1520</ele>
        <time>2026-06-28T06:20:23.000Z</time>
      </trkpt>
      <trkpt lat="42.74799" lon="1.52374">
        <ele>1520</ele>
        <time>2026-06-28T06:20:24.000Z</time>
      </trkpt>
      <trkpt lat="42.74799" lon="1.52377">
        <ele>1520</ele>
        <time>2026-06-28T06:20:25.000Z</time>
      </trkpt>
      <trkpt lat="42.74799" lon="1.5238">
        <ele>1521</ele>
        <time>2026-06-28T06:20:26.000Z</time>
      </trkpt>
      <trkpt lat="42.74799" lon="1.52383">
        <ele>1521</ele>
        <time>2026-06-28T06:20:27.000Z</time>
      </trkpt>
      <trkpt lat="42.748" lon="1.52386">
        <ele>1522</ele>
        <time>2026-06-28T06:20:28.000Z</time>
      </trkpt>
      <trkpt lat="42.74802" lon="1.52388">
        <ele>1522</ele>
        <time>2026-06-28T06:20:29.000Z</time>
      </trkpt>
      <trkpt lat="42.74802" lon="1.52391">
        <ele>1522</ele>
        <time>2026-06-28T06:20:30.000Z</time>
      </trkpt>
      <trkpt lat="42.74803" lon="1.52393">
        <ele>1522</ele>
        <time>2026-06-28T06:20:31.000Z</time>
      </trkpt>
      <trkpt lat="42.74804" lon="1.52396">
        <ele>1522</ele>
        <time>2026-06-28T06:20:32.000Z</time>
      </trkpt>
      <trkpt lat="42.74806" lon="1.52399">
        <ele>1523</ele>
        <time>2026-06-28T06:20:33.000Z</time>
      </trkpt>
      <trkpt lat="42.74807" lon="1.52402">
        <ele>1522</ele>
        <time>2026-06-28T06:20:34.000Z</time>
      </trkpt>
      <trkpt lat="42.74808" lon="1.52404">
        <ele>1523</ele>
        <time>2026-06-28T06:20:35.000Z</time>
      </trkpt>
      <trkpt lat="42.74809" lon="1.52407">
        <ele>1522</ele>
        <time>2026-06-28T06:20:36.000Z</time>
      </trkpt>
      <trkpt lat="42.7481" lon="1.5241">
        <ele>1522</ele>
        <time>2026-06-28T06:20:37.000Z</time>
      </trkpt>
      <trkpt lat="42.74812" lon="1.52413">
        <ele>1522</ele>
        <time>2026-06-28T06:20:38.000Z</time>
      </trkpt>
      <trkpt lat="42.74813" lon="1.52416">
        <ele>1522</ele>
        <time>2026-06-28T06:20:39.000Z</time>
      </trkpt>
      <trkpt lat="42.74813" lon="1.52419">
        <ele>1522</ele>
        <time>2026-06-28T06:20:40.000Z</time>
      </trkpt>
      <trkpt lat="42.74814" lon="1.52422">
        <ele>1522</ele>
        <time>2026-06-28T06:20:41.000Z</time>
      </trkpt>
      <trkpt lat="42.74815" lon="1.52424">
        <ele>1522</ele>
        <time>2026-06-28T06:20:42.000Z</time>
      </trkpt>
      <trkpt lat="42.74816" lon="1.52428">
        <ele>1523</ele>
        <time>2026-06-28T06:20:43.000Z</time>
      </trkpt>
      <trkpt lat="42.74816" lon="1.5243">
        <ele>1523</ele>
        <time>2026-06-28T06:20:44.000Z</time>
      </trkpt>
      <trkpt lat="42.74817" lon="1.52434">
        <ele>1522</ele>
        <time>2026-06-28T06:20:45.000Z</time>
      </trkpt>
      <trkpt lat="42.74818" lon="1.52436">
        <ele>1523</ele>
        <time>2026-06-28T06:20:46.000Z</time>
      </trkpt>
      <trkpt lat="42.74818" lon="1.52438">
        <ele>1523</ele>
        <time>2026-06-28T06:20:47.000Z</time>
      </trkpt>
      <trkpt lat="42.74819" lon="1.52441">
        <ele>1523</ele>
        <time>2026-06-28T06:20:48.000Z</time>
      </trkpt>
      <trkpt lat="42.7482" lon="1.52444">
        <ele>1523</ele>
        <time>2026-06-28T06:20:49.000Z</time>
      </trkpt>
      <trkpt lat="42.74821" lon="1.52446">
        <ele>1523</ele>
        <time>2026-06-28T06:20:50.000Z</time>
      </trkpt>
      <trkpt lat="42.74822" lon="1.52449">
        <ele>1523</ele>
        <time>2026-06-28T06:20:51.000Z</time>
      </trkpt>
      <trkpt lat="42.74823" lon="1.52452">
        <ele>1523</ele>
        <time>2026-06-28T06:20:52.000Z</time>
      </trkpt>
      <trkpt lat="42.74824" lon="1.52455">
        <ele>1523</ele>
        <time>2026-06-28T06:20:53.000Z</time>
      </trkpt>
      <trkpt lat="42.74824" lon="1.52458">
        <ele>1524</ele>
        <time>2026-06-28T06:20:54.000Z</time>
      </trkpt>
      <trkpt lat="42.74824" lon="1.52461">
        <ele>1524</ele>
        <time>2026-06-28T06:20:55.000Z</time>
      </trkpt>
      <trkpt lat="42.74825" lon="1.52464">
        <ele>1525</ele>
        <time>2026-06-28T06:20:56.000Z</time>
      </trkpt>
      <trkpt lat="42.74826" lon="1.52467">
        <ele>1525</ele>
        <time>2026-06-28T06:20:57.000Z</time>
      </trkpt>
      <trkpt lat="42.74827" lon="1.5247">
        <ele>1524</ele>
        <time>2026-06-28T06:20:58.000Z</time>
      </trkpt>
      <trkpt lat="42.74827" lon="1.52473">
        <ele>1525</ele>
        <time>2026-06-28T06:20:59.000Z</time>
      </trkpt>
      <trkpt lat="42.74828" lon="1.52476">
        <ele>1526</ele>
        <time>2026-06-28T06:21:00.000Z</time>
      </trkpt>
      <trkpt lat="42.74829" lon="1.52479">
        <ele>1525</ele>
        <time>2026-06-28T06:21:01.000Z</time>
      </trkpt>
      <trkpt lat="42.74829" lon="1.52482">
        <ele>1526</ele>
        <time>2026-06-28T06:21:02.000Z</time>
      </trkpt>
      <trkpt lat="42.7483" lon="1.52485">
        <ele>1526</ele>
        <time>2026-06-28T06:21:03.000Z</time>
      </trkpt>
      <trkpt lat="42.7483" lon="1.52488">
        <ele>1525</ele>
        <time>2026-06-28T06:21:04.000Z</time>
      </trkpt>
      <trkpt lat="42.74831" lon="1.52491">
        <ele>1525</ele>
        <time>2026-06-28T06:21:05.000Z</time>
      </trkpt>
      <trkpt lat="42.74831" lon="1.52495">
        <ele>1526</ele>
        <time>2026-06-28T06:21:06.000Z</time>
      </trkpt>
      <trkpt lat="42.74832" lon="1.52498">
        <ele>1525</ele>
        <time>2026-06-28T06:21:07.000Z</time>
      </trkpt>
      <trkpt lat="42.74832" lon="1.52501">
        <ele>1525</ele>
        <time>2026-06-28T06:21:08.000Z</time>
      </trkpt>
      <trkpt lat="42.74832" lon="1.52504">
        <ele>1526</ele>
        <time>2026-06-28T06:21:09.000Z</time>
      </trkpt>
      <trkpt lat="42.74833" lon="1.52507">
        <ele>1525</ele>
        <time>2026-06-28T06:21:10.000Z</time>
      </trkpt>
      <trkpt lat="42.74832" lon="1.52509">
        <ele>1525</ele>
        <time>2026-06-28T06:21:11.000Z</time>
      </trkpt>
      <trkpt lat="42.74833" lon="1.52513">
        <ele>1525</ele>
        <time>2026-06-28T06:21:12.000Z</time>
      </trkpt>
      <trkpt lat="42.74833" lon="1.52515">
        <ele>1525</ele>
        <time>2026-06-28T06:21:13.000Z</time>
      </trkpt>
      <trkpt lat="42.74833" lon="1.52519">
        <ele>1525</ele>
        <time>2026-06-28T06:21:14.000Z</time>
      </trkpt>
      <trkpt lat="42.74833" lon="1.52522">
        <ele>1525</ele>
        <time>2026-06-28T06:21:15.000Z</time>
      </trkpt>
      <trkpt lat="42.74833" lon="1.52525">
        <ele>1525</ele>
        <time>2026-06-28T06:21:16.000Z</time>
      </trkpt>
      <trkpt lat="42.74832" lon="1.52528">
        <ele>1524</ele>
        <time>2026-06-28T06:21:17.000Z</time>
      </trkpt>
      <trkpt lat="42.74832" lon="1.52531">
        <ele>1525</ele>
        <time>2026-06-28T06:21:18.000Z</time>
      </trkpt>
      <trkpt lat="42.74831" lon="1.52533">
        <ele>1525</ele>
        <time>2026-06-28T06:21:19.000Z</time>
      </trkpt>
      <trkpt lat="42.7483" lon="1.52536">
        <ele>1525</ele>
        <time>2026-06-28T06:21:20.000Z</time>
      </trkpt>
      <trkpt lat="42.74829" lon="1.52539">
        <ele>1525</ele>
        <time>2026-06-28T06:21:21.000Z</time>
      </trkpt>
      <trkpt lat="42.74828" lon="1.52542">
        <ele>1525</ele>
        <time>2026-06-28T06:21:22.000Z</time>
      </trkpt>
      <trkpt lat="42.74827" lon="1.52545">
        <ele>1525</ele>
        <time>2026-06-28T06:21:23.000Z</time>
      </trkpt>
      <trkpt lat="42.74826" lon="1.52549">
        <ele>1525</ele>
        <time>2026-06-28T06:21:24.000Z</time>
      </trkpt>
      <trkpt lat="42.74825" lon="1.52552">
        <ele>1525</ele>
        <time>2026-06-28T06:21:25.000Z</time>
      </trkpt>
      <trkpt lat="42.74823" lon="1.52555">
        <ele>1525</ele>
        <time>2026-06-28T06:21:26.000Z</time>
      </trkpt>
      <trkpt lat="42.74823" lon="1.52558">
        <ele>1525</ele>
        <time>2026-06-28T06:21:27.000Z</time>
      </trkpt>
      <trkpt lat="42.74822" lon="1.52562">
        <ele>1524</ele>
        <time>2026-06-28T06:21:28.000Z</time>
      </trkpt>
      <trkpt lat="42.74821" lon="1.52565">
        <ele>1525</ele>
        <time>2026-06-28T06:21:29.000Z</time>
      </trkpt>
      <trkpt lat="42.74819" lon="1.52568">
        <ele>1525</ele>
        <time>2026-06-28T06:21:30.000Z</time>
      </trkpt>
      <trkpt lat="42.74818" lon="1.52571">
        <ele>1525</ele>
        <time>2026-06-28T06:21:31.000Z</time>
      </trkpt>
      <trkpt lat="42.74817" lon="1.52574">
        <ele>1525</ele>
        <time>2026-06-28T06:21:32.000Z</time>
      </trkpt>
      <trkpt lat="42.74816" lon="1.52578">
        <ele>1525</ele>
        <time>2026-06-28T06:21:33.000Z</time>
      </trkpt>
      <trkpt lat="42.74815" lon="1.52581">
        <ele>1525</ele>
        <time>2026-06-28T06:21:34.000Z</time>
      </trkpt>
      <trkpt lat="42.74814" lon="1.52584">
        <ele>1525</ele>
        <time>2026-06-28T06:21:35.000Z</time>
      </trkpt>
      <trkpt lat="42.74812" lon="1.52588">
        <ele>1525</ele>
        <time>2026-06-28T06:21:36.000Z</time>
      </trkpt>
      <trkpt lat="42.74811" lon="1.52591">
        <ele>1526</ele>
        <time>2026-06-28T06:21:37.000Z</time>
      </trkpt>
      <trkpt lat="42.7481" lon="1.52594">
        <ele>1527</ele>
        <time>2026-06-28T06:21:38.000Z</time>
      </trkpt>
      <trkpt lat="42.74808" lon="1.52597">
        <ele>1527</ele>
        <time>2026-06-28T06:21:39.000Z</time>
      </trkpt>
      <trkpt lat="42.74807" lon="1.526">
        <ele>1528</ele>
        <time>2026-06-28T06:21:40.000Z</time>
      </trkpt>
      <trkpt lat="42.74806" lon="1.52603">
        <ele>1528</ele>
        <time>2026-06-28T06:21:41.000Z</time>
      </trkpt>
      <trkpt lat="42.74805" lon="1.52607">
        <ele>1528</ele>
        <time>2026-06-28T06:21:42.000Z</time>
      </trkpt>
      <trkpt lat="42.74803" lon="1.52611">
        <ele>1528</ele>
        <time>2026-06-28T06:21:43.000Z</time>
      </trkpt>
      <trkpt lat="42.74802" lon="1.52615">
        <ele>1528</ele>
        <time>2026-06-28T06:21:44.000Z</time>
      </trkpt>
      <trkpt lat="42.74801" lon="1.5262">
        <ele>1528</ele>
        <time>2026-06-28T06:21:45.000Z</time>
      </trkpt>
      <trkpt lat="42.748" lon="1.52624">
        <ele>1528</ele>
        <time>2026-06-28T06:21:46.000Z</time>
      </trkpt>
      <trkpt lat="42.74798" lon="1.52628">
        <ele>1528</ele>
        <time>2026-06-28T06:21:47.000Z</time>
      </trkpt>
      <trkpt lat="42.74797" lon="1.52632">
        <ele>1529</ele>
        <time>2026-06-28T06:21:48.000Z</time>
      </trkpt>
      <trkpt lat="42.74796" lon="1.52636">
        <ele>1529</ele>
        <time>2026-06-28T06:21:49.000Z</time>
      </trkpt>
      <trkpt lat="42.74795" lon="1.5264">
        <ele>1530</ele>
        <time>2026-06-28T06:21:50.000Z</time>
      </trkpt>
      <trkpt lat="42.74794" lon="1.52644">
        <ele>1530</ele>
        <time>2026-06-28T06:21:51.000Z</time>
      </trkpt>
      <trkpt lat="42.74793" lon="1.52648">
        <ele>1531</ele>
        <time>2026-06-28T06:21:52.000Z</time>
      </trkpt>
      <trkpt lat="42.74792" lon="1.52652">
        <ele>1531</ele>
        <time>2026-06-28T06:21:53.000Z</time>
      </trkpt>
      <trkpt lat="42.74791" lon="1.52655">
        <ele>1532</ele>
        <time>2026-06-28T06:21:54.000Z</time>
      </trkpt>
      <trkpt lat="42.7479" lon="1.52659">
        <ele>1532</ele>
        <time>2026-06-28T06:21:55.000Z</time>
      </trkpt>
      <trkpt lat="42.74789" lon="1.52663">
        <ele>1532</ele>
        <time>2026-06-28T06:21:56.000Z</time>
      </trkpt>
      <trkpt lat="42.74787" lon="1.52667">
        <ele>1532</ele>
        <time>2026-06-28T06:21:57.000Z</time>
      </trkpt>
      <trkpt lat="42.74786" lon="1.52671">
        <ele>1532</ele>
        <time>2026-06-28T06:21:58.000Z</time>
      </trkpt>
      <trkpt lat="42.74784" lon="1.52676">
        <ele>1531</ele>
        <time>2026-06-28T06:21:59.000Z</time>
      </trkpt>
      <trkpt lat="42.74783" lon="1.5268">
        <ele>1531</ele>
        <time>2026-06-28T06:22:00.000Z</time>
      </trkpt>
      <trkpt lat="42.74781" lon="1.52685">
        <ele>1531</ele>
        <time>2026-06-28T06:22:01.000Z</time>
      </trkpt>
      <trkpt lat="42.74779" lon="1.5269">
        <ele>1531</ele>
        <time>2026-06-28T06:22:02.000Z</time>
      </trkpt>
      <trkpt lat="42.74778" lon="1.52695">
        <ele>1530</ele>
        <time>2026-06-28T06:22:03.000Z</time>
      </trkpt>
      <trkpt lat="42.74776" lon="1.527">
        <ele>1529</ele>
        <time>2026-06-28T06:22:04.000Z</time>
      </trkpt>
      <trkpt lat="42.74774" lon="1.52706">
        <ele>1529</ele>
        <time>2026-06-28T06:22:05.000Z</time>
      </trkpt>
      <trkpt lat="42.74772" lon="1.5271">
        <ele>1531</ele>
        <time>2026-06-28T06:22:06.000Z</time>
      </trkpt>
      <trkpt lat="42.7477" lon="1.52715">
        <ele>1531</ele>
        <time>2026-06-28T06:22:07.000Z</time>
      </trkpt>
      <trkpt lat="42.74768" lon="1.5272">
        <ele>1531</ele>
        <time>2026-06-28T06:22:08.000Z</time>
      </trkpt>
      <trkpt lat="42.74766" lon="1.52726">
        <ele>1531</ele>
        <time>2026-06-28T06:22:09.000Z</time>
      </trkpt>
      <trkpt lat="42.74764" lon="1.52731">
        <ele>1530</ele>
        <time>2026-06-28T06:22:10.000Z</time>
      </trkpt>
      <trkpt lat="42.74762" lon="1.52737">
        <ele>1531</ele>
        <time>2026-06-28T06:22:11.000Z</time>
      </trkpt>
      <trkpt lat="42.74759" lon="1.52741">
        <ele>1530</ele>
        <time>2026-06-28T06:22:12.000Z</time>
      </trkpt>
      <trkpt lat="42.74756" lon="1.52746">
        <ele>1530</ele>
        <time>2026-06-28T06:22:13.000Z</time>
      </trkpt>
      <trkpt lat="42.74754" lon="1.5275">
        <ele>1530</ele>
        <time>2026-06-28T06:22:14.000Z</time>
      </trkpt>
      <trkpt lat="42.74752" lon="1.52754">
        <ele>1530</ele>
        <time>2026-06-28T06:22:15.000Z</time>
      </trkpt>
      <trkpt lat="42.7475" lon="1.52759">
        <ele>1530</ele>
        <time>2026-06-28T06:22:16.000Z</time>
      </trkpt>
      <trkpt lat="42.74747" lon="1.52763">
        <ele>1531</ele>
        <time>2026-06-28T06:22:17.000Z</time>
      </trkpt>
      <trkpt lat="42.74745" lon="1.52767">
        <ele>1531</ele>
        <time>2026-06-28T06:22:18.000Z</time>
      </trkpt>
      <trkpt lat="42.74742" lon="1.52772">
        <ele>1530</ele>
        <time>2026-06-28T06:22:19.000Z</time>
      </trkpt>
      <trkpt lat="42.7474" lon="1.52776">
        <ele>1530</ele>
        <time>2026-06-28T06:22:20.000Z</time>
      </trkpt>
      <trkpt lat="42.74737" lon="1.52781">
        <ele>1530</ele>
        <time>2026-06-28T06:22:21.000Z</time>
      </trkpt>
      <trkpt lat="42.74735" lon="1.52786">
        <ele>1530</ele>
        <time>2026-06-28T06:22:22.000Z</time>
      </trkpt>
      <trkpt lat="42.74733" lon="1.52791">
        <ele>1530</ele>
        <time>2026-06-28T06:22:23.000Z</time>
      </trkpt>
      <trkpt lat="42.74734" lon="1.52796">
        <ele>1530</ele>
        <time>2026-06-28T06:22:24.000Z</time>
      </trkpt>
      <trkpt lat="42.74736" lon="1.52801">
        <ele>1530</ele>
        <time>2026-06-28T06:22:25.000Z</time>
      </trkpt>
      <trkpt lat="42.74739" lon="1.52806">
        <ele>1530</ele>
        <time>2026-06-28T06:22:26.000Z</time>
      </trkpt>
      <trkpt lat="42.74744" lon="1.52807">
        <ele>1530</ele>
        <time>2026-06-28T06:22:27.000Z</time>
      </trkpt>
      <trkpt lat="42.74749" lon="1.52809">
        <ele>1531</ele>
        <time>2026-06-28T06:22:28.000Z</time>
      </trkpt>
      <trkpt lat="42.74753" lon="1.5281">
        <ele>1531</ele>
        <time>2026-06-28T06:22:29.000Z</time>
      </trkpt>
      <trkpt lat="42.74756" lon="1.52812">
        <ele>1531</ele>
        <time>2026-06-28T06:22:30.000Z</time>
      </trkpt>
      <trkpt lat="42.7476" lon="1.52814">
        <ele>1531</ele>
        <time>2026-06-28T06:22:31.000Z</time>
      </trkpt>
      <trkpt lat="42.74764" lon="1.52815">
        <ele>1531</ele>
        <time>2026-06-28T06:22:32.000Z</time>
      </trkpt>
      <trkpt lat="42.74767" lon="1.52817">
        <ele>1531</ele>
        <time>2026-06-28T06:22:33.000Z</time>
      </trkpt>
      <trkpt lat="42.74771" lon="1.52821">
        <ele>1531</ele>
        <time>2026-06-28T06:22:34.000Z</time>
      </trkpt>
      <trkpt lat="42.74775" lon="1.52823">
        <ele>1531</ele>
        <time>2026-06-28T06:22:35.000Z</time>
      </trkpt>
      <trkpt lat="42.74778" lon="1.52825">
        <ele>1531</ele>
        <time>2026-06-28T06:22:36.000Z</time>
      </trkpt>
      <trkpt lat="42.74782" lon="1.52827">
        <ele>1532</ele>
        <time>2026-06-28T06:22:37.000Z</time>
      </trkpt>
      <trkpt lat="42.74785" lon="1.52828">
        <ele>1532</ele>
        <time>2026-06-28T06:22:38.000Z</time>
      </trkpt>
      <trkpt lat="42.74789" lon="1.52829">
        <ele>1532</ele>
        <time>2026-06-28T06:22:39.000Z</time>
      </trkpt>
      <trkpt lat="42.74792" lon="1.5283">
        <ele>1533</ele>
        <time>2026-06-28T06:22:40.000Z</time>
      </trkpt>
      <trkpt lat="42.74796" lon="1.52831">
        <ele>1533</ele>
        <time>2026-06-28T06:22:41.000Z</time>
      </trkpt>
      <trkpt lat="42.748" lon="1.52833">
        <ele>1534</ele>
        <time>2026-06-28T06:22:42.000Z</time>
      </trkpt>
      <trkpt lat="42.74803" lon="1.52833">
        <ele>1534</ele>
        <time>2026-06-28T06:22:43.000Z</time>
      </trkpt>
      <trkpt lat="42.74807" lon="1.52834">
        <ele>1534</ele>
        <time>2026-06-28T06:22:44.000Z</time>
      </trkpt>
      <trkpt lat="42.7481" lon="1.52835">
        <ele>1534</ele>
        <time>2026-06-28T06:22:45.000Z</time>
      </trkpt>
      <trkpt lat="42.74814" lon="1.52837">
        <ele>1534</ele>
        <time>2026-06-28T06:22:46.000Z</time>
      </trkpt>
      <trkpt lat="42.74819" lon="1.52838">
        <ele>1534</ele>
        <time>2026-06-28T06:22:47.000Z</time>
      </trkpt>
      <trkpt lat="42.74823" lon="1.52838">
        <ele>1534</ele>
        <time>2026-06-28T06:22:48.000Z</time>
      </trkpt>
      <trkpt lat="42.74826" lon="1.52839">
        <ele>1534</ele>
        <time>2026-06-28T06:22:49.000Z</time>
      </trkpt>
      <trkpt lat="42.7483" lon="1.5284">
        <ele>1534</ele>
        <time>2026-06-28T06:22:50.000Z</time>
      </trkpt>
      <trkpt lat="42.74833" lon="1.5284">
        <ele>1533</ele>
        <time>2026-06-28T06:22:51.000Z</time>
      </trkpt>
      <trkpt lat="42.74836" lon="1.52841">
        <ele>1534</ele>
        <time>2026-06-28T06:22:52.000Z</time>
      </trkpt>
      <trkpt lat="42.74841" lon="1.52841">
        <ele>1534</ele>
        <time>2026-06-28T06:22:53.000Z</time>
      </trkpt>
      <trkpt lat="42.74845" lon="1.52843">
        <ele>1535</ele>
        <time>2026-06-28T06:22:54.000Z</time>
      </trkpt>
      <trkpt lat="42.74851" lon="1.52844">
        <ele>1536</ele>
        <time>2026-06-28T06:22:55.000Z</time>
      </trkpt>
      <trkpt lat="42.74855" lon="1.52846">
        <ele>1536</ele>
        <time>2026-06-28T06:22:56.000Z</time>
      </trkpt>
      <trkpt lat="42.7486" lon="1.52847">
        <ele>1537</ele>
        <time>2026-06-28T06:22:57.000Z</time>
      </trkpt>
      <trkpt lat="42.74865" lon="1.52848">
        <ele>1537</ele>
        <time>2026-06-28T06:22:58.000Z</time>
      </trkpt>
      <trkpt lat="42.7487" lon="1.52849">
        <ele>1538</ele>
        <time>2026-06-28T06:22:59.000Z</time>
      </trkpt>
      <trkpt lat="42.74875" lon="1.52849">
        <ele>1538</ele>
        <time>2026-06-28T06:23:00.000Z</time>
      </trkpt>
      <trkpt lat="42.74879" lon="1.52849">
        <ele>1538</ele>
        <time>2026-06-28T06:23:01.000Z</time>
      </trkpt>
      <trkpt lat="42.74883" lon="1.52849">
        <ele>1538</ele>
        <time>2026-06-28T06:23:02.000Z</time>
      </trkpt>
      <trkpt lat="42.74887" lon="1.52849">
        <ele>1538</ele>
        <time>2026-06-28T06:23:03.000Z</time>
      </trkpt>
      <trkpt lat="42.74892" lon="1.52848">
        <ele>1538</ele>
        <time>2026-06-28T06:23:04.000Z</time>
      </trkpt>
      <trkpt lat="42.74896" lon="1.52847">
        <ele>1538</ele>
        <time>2026-06-28T06:23:05.000Z</time>
      </trkpt>
      <trkpt lat="42.74901" lon="1.52846">
        <ele>1538</ele>
        <time>2026-06-28T06:23:06.000Z</time>
      </trkpt>
      <trkpt lat="42.74905" lon="1.52845">
        <ele>1538</ele>
        <time>2026-06-28T06:23:07.000Z</time>
      </trkpt>
      <trkpt lat="42.74909" lon="1.52845">
        <ele>1537</ele>
        <time>2026-06-28T06:23:08.000Z</time>
      </trkpt>
      <trkpt lat="42.74913" lon="1.52845">
        <ele>1537</ele>
        <time>2026-06-28T06:23:09.000Z</time>
      </trkpt>
      <trkpt lat="42.74917" lon="1.52845">
        <ele>1537</ele>
        <time>2026-06-28T06:23:10.000Z</time>
      </trkpt>
      <trkpt lat="42.74921" lon="1.52844">
        <ele>1536</ele>
        <time>2026-06-28T06:23:11.000Z</time>
      </trkpt>
      <trkpt lat="42.74925" lon="1.52844">
        <ele>1535</ele>
        <time>2026-06-28T06:23:12.000Z</time>
      </trkpt>
      <trkpt lat="42.7493" lon="1.52845">
        <ele>1535</ele>
        <time>2026-06-28T06:23:13.000Z</time>
      </trkpt>
      <trkpt lat="42.74934" lon="1.52845">
        <ele>1535</ele>
        <time>2026-06-28T06:23:14.000Z</time>
      </trkpt>
      <trkpt lat="42.74939" lon="1.52846">
        <ele>1535</ele>
        <time>2026-06-28T06:23:15.000Z</time>
      </trkpt>
      <trkpt lat="42.74943" lon="1.52845">
        <ele>1534</ele>
        <time>2026-06-28T06:23:16.000Z</time>
      </trkpt>
      <trkpt lat="42.74948" lon="1.52846">
        <ele>1533</ele>
        <time>2026-06-28T06:23:17.000Z</time>
      </trkpt>
      <trkpt lat="42.74953" lon="1.52846">
        <ele>1533</ele>
        <time>2026-06-28T06:23:18.000Z</time>
      </trkpt>
      <trkpt lat="42.74958" lon="1.52846">
        <ele>1533</ele>
        <time>2026-06-28T06:23:19.000Z</time>
      </trkpt>
      <trkpt lat="42.74963" lon="1.52847">
        <ele>1533</ele>
        <time>2026-06-28T06:23:20.000Z</time>
      </trkpt>
      <trkpt lat="42.74968" lon="1.52848">
        <ele>1533</ele>
        <time>2026-06-28T06:23:21.000Z</time>
      </trkpt>
      <trkpt lat="42.74973" lon="1.52849">
        <ele>1533</ele>
        <time>2026-06-28T06:23:22.000Z</time>
      </trkpt>
      <trkpt lat="42.74978" lon="1.52849">
        <ele>1533</ele>
        <time>2026-06-28T06:23:23.000Z</time>
      </trkpt>
      <trkpt lat="42.74983" lon="1.52849">
        <ele>1533</ele>
        <time>2026-06-28T06:23:24.000Z</time>
      </trkpt>
      <trkpt lat="42.74987" lon="1.5285">
        <ele>1533</ele>
        <time>2026-06-28T06:23:25.000Z</time>
      </trkpt>
      <trkpt lat="42.74992" lon="1.5285">
        <ele>1533</ele>
        <time>2026-06-28T06:23:26.000Z</time>
      </trkpt>
      <trkpt lat="42.74997" lon="1.5285">
        <ele>1533</ele>
        <time>2026-06-28T06:23:27.000Z</time>
      </trkpt>
      <trkpt lat="42.75002" lon="1.52851">
        <ele>1533</ele>
        <time>2026-06-28T06:23:28.000Z</time>
      </trkpt>
      <trkpt lat="42.75007" lon="1.52851">
        <ele>1533</ele>
        <time>2026-06-28T06:23:29.000Z</time>
      </trkpt>
      <trkpt lat="42.75012" lon="1.52851">
        <ele>1533</ele>
        <time>2026-06-28T06:23:30.000Z</time>
      </trkpt>
      <trkpt lat="42.75017" lon="1.52851">
        <ele>1532</ele>
        <time>2026-06-28T06:23:31.000Z</time>
      </trkpt>
      <trkpt lat="42.75021" lon="1.52851">
        <ele>1532</ele>
        <time>2026-06-28T06:23:32.000Z</time>
      </trkpt>
      <trkpt lat="42.75025" lon="1.52851">
        <ele>1532</ele>
        <time>2026-06-28T06:23:33.000Z</time>
      </trkpt>
      <trkpt lat="42.7503" lon="1.52851">
        <ele>1532</ele>
        <time>2026-06-28T06:23:34.000Z</time>
      </trkpt>
      <trkpt lat="42.75035" lon="1.52852">
        <ele>1532</ele>
        <time>2026-06-28T06:23:35.000Z</time>
      </trkpt>
      <trkpt lat="42.75039" lon="1.52852">
        <ele>1532</ele>
        <time>2026-06-28T06:23:36.000Z</time>
      </trkpt>
      <trkpt lat="42.75043" lon="1.52853">
        <ele>1532</ele>
        <time>2026-06-28T06:23:37.000Z</time>
      </trkpt>
      <trkpt lat="42.75047" lon="1.52855">
        <ele>1533</ele>
        <time>2026-06-28T06:23:38.000Z</time>
      </trkpt>
      <trkpt lat="42.75051" lon="1.52856">
        <ele>1533</ele>
        <time>2026-06-28T06:23:39.000Z</time>
      </trkpt>
      <trkpt lat="42.75055" lon="1.52858">
        <ele>1533</ele>
        <time>2026-06-28T06:23:40.000Z</time>
      </trkpt>
      <trkpt lat="42.75059" lon="1.5286">
        <ele>1532</ele>
        <time>2026-06-28T06:23:41.000Z</time>
      </trkpt>
      <trkpt lat="42.75063" lon="1.52861">
        <ele>1532</ele>
        <time>2026-06-28T06:23:42.000Z</time>
      </trkpt>
      <trkpt lat="42.75067" lon="1.52864">
        <ele>1532</ele>
        <time>2026-06-28T06:23:43.000Z</time>
      </trkpt>
      <trkpt lat="42.7507" lon="1.52866">
        <ele>1532</ele>
        <time>2026-06-28T06:23:44.000Z</time>
      </trkpt>
      <trkpt lat="42.75073" lon="1.52868">
        <ele>1532</ele>
        <time>2026-06-28T06:23:45.000Z</time>
      </trkpt>
      <trkpt lat="42.75076" lon="1.5287">
        <ele>1532</ele>
        <time>2026-06-28T06:23:46.000Z</time>
      </trkpt>
      <trkpt lat="42.7508" lon="1.52872">
        <ele>1531</ele>
        <time>2026-06-28T06:23:47.000Z</time>
      </trkpt>
      <trkpt lat="42.75083" lon="1.52874">
        <ele>1531</ele>
        <time>2026-06-28T06:23:48.000Z</time>
      </trkpt>
      <trkpt lat="42.75087" lon="1.52876">
        <ele>1530</ele>
        <time>2026-06-28T06:23:49.000Z</time>
      </trkpt>
      <trkpt lat="42.7509" lon="1.52879">
        <ele>1530</ele>
        <time>2026-06-28T06:23:50.000Z</time>
      </trkpt>
      <trkpt lat="42.75093" lon="1.52881">
        <ele>1530</ele>
        <time>2026-06-28T06:23:51.000Z</time>
      </trkpt>
      <trkpt lat="42.75096" lon="1.52884">
        <ele>1530</ele>
        <time>2026-06-28T06:23:52.000Z</time>
      </trkpt>
      <trkpt lat="42.751" lon="1.52886">
        <ele>1530</ele>
        <time>2026-06-28T06:23:53.000Z</time>
      </trkpt>
      <trkpt lat="42.75103" lon="1.52888">
        <ele>1530</ele>
        <time>2026-06-28T06:23:54.000Z</time>
      </trkpt>
      <trkpt lat="42.75106" lon="1.5289">
        <ele>1530</ele>
        <time>2026-06-28T06:23:55.000Z</time>
      </trkpt>
      <trkpt lat="42.75109" lon="1.52894">
        <ele>1530</ele>
        <time>2026-06-28T06:23:56.000Z</time>
      </trkpt>
      <trkpt lat="42.75112" lon="1.52896">
        <ele>1530</ele>
        <time>2026-06-28T06:23:57.000Z</time>
      </trkpt>
      <trkpt lat="42.75114" lon="1.52898">
        <ele>1530</ele>
        <time>2026-06-28T06:23:58.000Z</time>
      </trkpt>
      <trkpt lat="42.75117" lon="1.52901">
        <ele>1531</ele>
        <time>2026-06-28T06:23:59.000Z</time>
      </trkpt>
      <trkpt lat="42.7512" lon="1.52903">
        <ele>1531</ele>
        <time>2026-06-28T06:24:00.000Z</time>
      </trkpt>
      <trkpt lat="42.75123" lon="1.52906">
        <ele>1531</ele>
        <time>2026-06-28T06:24:01.000Z</time>
      </trkpt>
      <trkpt lat="42.75126" lon="1.52909">
        <ele>1531</ele>
        <time>2026-06-28T06:24:02.000Z</time>
      </trkpt>
      <trkpt lat="42.75129" lon="1.52912">
        <ele>1531</ele>
        <time>2026-06-28T06:24:03.000Z</time>
      </trkpt>
      <trkpt lat="42.75132" lon="1.52914">
        <ele>1531</ele>
        <time>2026-06-28T06:24:04.000Z</time>
      </trkpt>
      <trkpt lat="42.75135" lon="1.52917">
        <ele>1530</ele>
        <time>2026-06-28T06:24:05.000Z</time>
      </trkpt>
      <trkpt lat="42.75138" lon="1.52919">
        <ele>1530</ele>
        <time>2026-06-28T06:24:06.000Z</time>
      </trkpt>
      <trkpt lat="42.7514" lon="1.52922">
        <ele>1530</ele>
        <time>2026-06-28T06:24:07.000Z</time>
      </trkpt>
      <trkpt lat="42.75142" lon="1.52926">
        <ele>1530</ele>
        <time>2026-06-28T06:24:08.000Z</time>
      </trkpt>
      <trkpt lat="42.75145" lon="1.5293">
        <ele>1530</ele>
        <time>2026-06-28T06:24:09.000Z</time>
      </trkpt>
      <trkpt lat="42.75147" lon="1.52934">
        <ele>1530</ele>
        <time>2026-06-28T06:24:10.000Z</time>
      </trkpt>
      <trkpt lat="42.75149" lon="1.52937">
        <ele>1531</ele>
        <time>2026-06-28T06:24:11.000Z</time>
      </trkpt>
      <trkpt lat="42.75152" lon="1.52941">
        <ele>1531</ele>
        <time>2026-06-28T06:24:12.000Z</time>
      </trkpt>
      <trkpt lat="42.75154" lon="1.52945">
        <ele>1531</ele>
        <time>2026-06-28T06:24:13.000Z</time>
      </trkpt>
      <trkpt lat="42.75156" lon="1.52949">
        <ele>1531</ele>
        <time>2026-06-28T06:24:14.000Z</time>
      </trkpt>
      <trkpt lat="42.75158" lon="1.52952">
        <ele>1531</ele>
        <time>2026-06-28T06:24:15.000Z</time>
      </trkpt>
      <trkpt lat="42.7516" lon="1.52955">
        <ele>1531</ele>
        <time>2026-06-28T06:24:16.000Z</time>
      </trkpt>
      <trkpt lat="42.75162" lon="1.52958">
        <ele>1531</ele>
        <time>2026-06-28T06:24:17.000Z</time>
      </trkpt>
      <trkpt lat="42.75163" lon="1.52961">
        <ele>1531</ele>
        <time>2026-06-28T06:24:18.000Z</time>
      </trkpt>
      <trkpt lat="42.75164" lon="1.52965">
        <ele>1531</ele>
        <time>2026-06-28T06:24:19.000Z</time>
      </trkpt>
      <trkpt lat="42.75166" lon="1.52969">
        <ele>1532</ele>
        <time>2026-06-28T06:24:20.000Z</time>
      </trkpt>
      <trkpt lat="42.75169" lon="1.52973">
        <ele>1532</ele>
        <time>2026-06-28T06:24:21.000Z</time>
      </trkpt>
      <trkpt lat="42.7517" lon="1.52977">
        <ele>1532</ele>
        <time>2026-06-28T06:24:22.000Z</time>
      </trkpt>
      <trkpt lat="42.75172" lon="1.52981">
        <ele>1532</ele>
        <time>2026-06-28T06:24:23.000Z</time>
      </trkpt>
      <trkpt lat="42.75174" lon="1.52984">
        <ele>1531</ele>
        <time>2026-06-28T06:24:24.000Z</time>
      </trkpt>
      <trkpt lat="42.75175" lon="1.52988">
        <ele>1531</ele>
        <time>2026-06-28T06:24:25.000Z</time>
      </trkpt>
      <trkpt lat="42.75178" lon="1.52992">
        <ele>1531</ele>
        <time>2026-06-28T06:24:26.000Z</time>
      </trkpt>
      <trkpt lat="42.7518" lon="1.52995">
        <ele>1532</ele>
        <time>2026-06-28T06:24:27.000Z</time>
      </trkpt>
      <trkpt lat="42.75181" lon="1.52998">
        <ele>1532</ele>
        <time>2026-06-28T06:24:28.000Z</time>
      </trkpt>
      <trkpt lat="42.75183" lon="1.53002">
        <ele>1532</ele>
        <time>2026-06-28T06:24:29.000Z</time>
      </trkpt>
      <trkpt lat="42.75185" lon="1.53006">
        <ele>1532</ele>
        <time>2026-06-28T06:24:30.000Z</time>
      </trkpt>
      <trkpt lat="42.75187" lon="1.53009">
        <ele>1532</ele>
        <time>2026-06-28T06:24:31.000Z</time>
      </trkpt>
      <trkpt lat="42.75189" lon="1.53012">
        <ele>1532</ele>
        <time>2026-06-28T06:24:32.000Z</time>
      </trkpt>
      <trkpt lat="42.75191" lon="1.53015">
        <ele>1532</ele>
        <time>2026-06-28T06:24:33.000Z</time>
      </trkpt>
      <trkpt lat="42.75193" lon="1.53019">
        <ele>1532</ele>
        <time>2026-06-28T06:24:34.000Z</time>
      </trkpt>
      <trkpt lat="42.75195" lon="1.53022">
        <ele>1532</ele>
        <time>2026-06-28T06:24:35.000Z</time>
      </trkpt>
      <trkpt lat="42.75197" lon="1.53026">
        <ele>1532</ele>
        <time>2026-06-28T06:24:36.000Z</time>
      </trkpt>
      <trkpt lat="42.75199" lon="1.53029">
        <ele>1533</ele>
        <time>2026-06-28T06:24:37.000Z</time>
      </trkpt>
      <trkpt lat="42.75202" lon="1.53033">
        <ele>1532</ele>
        <time>2026-06-28T06:24:38.000Z</time>
      </trkpt>
      <trkpt lat="42.75204" lon="1.53035">
        <ele>1533</ele>
        <time>2026-06-28T06:24:39.000Z</time>
      </trkpt>
      <trkpt lat="42.75206" lon="1.53038">
        <ele>1533</ele>
        <time>2026-06-28T06:24:40.000Z</time>
      </trkpt>
      <trkpt lat="42.75209" lon="1.53041">
        <ele>1533</ele>
        <time>2026-06-28T06:24:41.000Z</time>
      </trkpt>
      <trkpt lat="42.75211" lon="1.53044">
        <ele>1533</ele>
        <time>2026-06-28T06:24:42.000Z</time>
      </trkpt>
      <trkpt lat="42.75214" lon="1.53047">
        <ele>1533</ele>
        <time>2026-06-28T06:24:43.000Z</time>
      </trkpt>
      <trkpt lat="42.75217" lon="1.53051">
        <ele>1533</ele>
        <time>2026-06-28T06:24:44.000Z</time>
      </trkpt>
      <trkpt lat="42.7522" lon="1.53054">
        <ele>1533</ele>
        <time>2026-06-28T06:24:45.000Z</time>
      </trkpt>
      <trkpt lat="42.75222" lon="1.53057">
        <ele>1533</ele>
        <time>2026-06-28T06:24:46.000Z</time>
      </trkpt>
      <trkpt lat="42.75224" lon="1.5306">
        <ele>1534</ele>
        <time>2026-06-28T06:24:47.000Z</time>
      </trkpt>
      <trkpt lat="42.75227" lon="1.53062">
        <ele>1534</ele>
        <time>2026-06-28T06:24:48.000Z</time>
      </trkpt>
      <trkpt lat="42.75229" lon="1.53065">
        <ele>1534</ele>
        <time>2026-06-28T06:24:49.000Z</time>
      </trkpt>
      <trkpt lat="42.75232" lon="1.53068">
        <ele>1534</ele>
        <time>2026-06-28T06:24:50.000Z</time>
      </trkpt>
      <trkpt lat="42.75234" lon="1.53071">
        <ele>1534</ele>
        <time>2026-06-28T06:24:51.000Z</time>
      </trkpt>
      <trkpt lat="42.75236" lon="1.53073">
        <ele>1535</ele>
        <time>2026-06-28T06:24:52.000Z</time>
      </trkpt>
      <trkpt lat="42.75238" lon="1.53076">
        <ele>1535</ele>
        <time>2026-06-28T06:24:53.000Z</time>
      </trkpt>
      <trkpt lat="42.75241" lon="1.53077">
        <ele>1535</ele>
        <time>2026-06-28T06:24:54.000Z</time>
      </trkpt>
      <trkpt lat="42.75243" lon="1.5308">
        <ele>1535</ele>
        <time>2026-06-28T06:24:55.000Z</time>
      </trkpt>
      <trkpt lat="42.75245" lon="1.53083">
        <ele>1536</ele>
        <time>2026-06-28T06:24:56.000Z</time>
      </trkpt>
      <trkpt lat="42.75247" lon="1.53085">
        <ele>1537</ele>
        <time>2026-06-28T06:24:57.000Z</time>
      </trkpt>
      <trkpt lat="42.75249" lon="1.53088">
        <ele>1537</ele>
        <time>2026-06-28T06:24:58.000Z</time>
      </trkpt>
      <trkpt lat="42.75251" lon="1.5309">
        <ele>1538</ele>
        <time>2026-06-28T06:24:59.000Z</time>
      </trkpt>
      <trkpt lat="42.75254" lon="1.53092">
        <ele>1538</ele>
        <time>2026-06-28T06:25:00.000Z</time>
      </trkpt>
      <trkpt lat="42.75256" lon="1.53094">
        <ele>1538</ele>
        <time>2026-06-28T06:25:01.000Z</time>
      </trkpt>
      <trkpt lat="42.75259" lon="1.53097">
        <ele>1538</ele>
        <time>2026-06-28T06:25:02.000Z</time>
      </trkpt>
      <trkpt lat="42.75261" lon="1.531">
        <ele>1538</ele>
        <time>2026-06-28T06:25:03.000Z</time>
      </trkpt>
      <trkpt lat="42.75264" lon="1.53103">
        <ele>1538</ele>
        <time>2026-06-28T06:25:04.000Z</time>
      </trkpt>
      <trkpt lat="42.75266" lon="1.53106">
        <ele>1539</ele>
        <time>2026-06-28T06:25:05.000Z</time>
      </trkpt>
      <trkpt lat="42.75269" lon="1.53109">
        <ele>1540</ele>
        <time>2026-06-28T06:25:06.000Z</time>
      </trkpt>
      <trkpt lat="42.75272" lon="1.53112">
        <ele>1540</ele>
        <time>2026-06-28T06:25:07.000Z</time>
      </trkpt>
      <trkpt lat="42.75274" lon="1.53114">
        <ele>1540</ele>
        <time>2026-06-28T06:25:08.000Z</time>
      </trkpt>
      <trkpt lat="42.75276" lon="1.53116">
        <ele>1541</ele>
        <time>2026-06-28T06:25:09.000Z</time>
      </trkpt>
      <trkpt lat="42.75278" lon="1.53118">
        <ele>1541</ele>
        <time>2026-06-28T06:25:10.000Z</time>
      </trkpt>
      <trkpt lat="42.75281" lon="1.5312">
        <ele>1541</ele>
        <time>2026-06-28T06:25:11.000Z</time>
      </trkpt>
      <trkpt lat="42.75284" lon="1.53122">
        <ele>1542</ele>
        <time>2026-06-28T06:25:12.000Z</time>
      </trkpt>
      <trkpt lat="42.75286" lon="1.53124">
        <ele>1543</ele>
        <time>2026-06-28T06:25:13.000Z</time>
      </trkpt>
      <trkpt lat="42.75289" lon="1.53125">
        <ele>1543</ele>
        <time>2026-06-28T06:25:14.000Z</time>
      </trkpt>
      <trkpt lat="42.75291" lon="1.53128">
        <ele>1545</ele>
        <time>2026-06-28T06:25:15.000Z</time>
      </trkpt>
      <trkpt lat="42.75293" lon="1.5313">
        <ele>1545</ele>
        <time>2026-06-28T06:25:16.000Z</time>
      </trkpt>
      <trkpt lat="42.75296" lon="1.53133">
        <ele>1545</ele>
        <time>2026-06-28T06:25:17.000Z</time>
      </trkpt>
      <trkpt lat="42.75299" lon="1.53136">
        <ele>1545</ele>
        <time>2026-06-28T06:25:18.000Z</time>
      </trkpt>
      <trkpt lat="42.75301" lon="1.5314">
        <ele>1545</ele>
        <time>2026-06-28T06:25:19.000Z</time>
      </trkpt>
      <trkpt lat="42.75303" lon="1.53143">
        <ele>1546</ele>
        <time>2026-06-28T06:25:20.000Z</time>
      </trkpt>
      <trkpt lat="42.75305" lon="1.53147">
        <ele>1545</ele>
        <time>2026-06-28T06:25:21.000Z</time>
      </trkpt>
      <trkpt lat="42.75308" lon="1.5315">
        <ele>1545</ele>
        <time>2026-06-28T06:25:22.000Z</time>
      </trkpt>
      <trkpt lat="42.7531" lon="1.53153">
        <ele>1545</ele>
        <time>2026-06-28T06:25:23.000Z</time>
      </trkpt>
      <trkpt lat="42.75312" lon="1.53156">
        <ele>1545</ele>
        <time>2026-06-28T06:25:24.000Z</time>
      </trkpt>
      <trkpt lat="42.75314" lon="1.53159">
        <ele>1545</ele>
        <time>2026-06-28T06:25:25.000Z</time>
      </trkpt>
      <trkpt lat="42.75316" lon="1.53163">
        <ele>1545</ele>
        <time>2026-06-28T06:25:26.000Z</time>
      </trkpt>
      <trkpt lat="42.75318" lon="1.53167">
        <ele>1544</ele>
        <time>2026-06-28T06:25:27.000Z</time>
      </trkpt>
      <trkpt lat="42.7532" lon="1.53171">
        <ele>1544</ele>
        <time>2026-06-28T06:25:28.000Z</time>
      </trkpt>
      <trkpt lat="42.75322" lon="1.53174">
        <ele>1544</ele>
        <time>2026-06-28T06:25:29.000Z</time>
      </trkpt>
      <trkpt lat="42.75324" lon="1.53179">
        <ele>1545</ele>
        <time>2026-06-28T06:25:30.000Z</time>
      </trkpt>
      <trkpt lat="42.75325" lon="1.53183">
        <ele>1544</ele>
        <time>2026-06-28T06:25:31.000Z</time>
      </trkpt>
      <trkpt lat="42.75327" lon="1.53188">
        <ele>1545</ele>
        <time>2026-06-28T06:25:32.000Z</time>
      </trkpt>
      <trkpt lat="42.75328" lon="1.53192">
        <ele>1545</ele>
        <time>2026-06-28T06:25:33.000Z</time>
      </trkpt>
      <trkpt lat="42.7533" lon="1.53196">
        <ele>1545</ele>
        <time>2026-06-28T06:25:34.000Z</time>
      </trkpt>
      <trkpt lat="42.75331" lon="1.532">
        <ele>1544</ele>
        <time>2026-06-28T06:25:35.000Z</time>
      </trkpt>
      <trkpt lat="42.75333" lon="1.53203">
        <ele>1543</ele>
        <time>2026-06-28T06:25:36.000Z</time>
      </trkpt>
      <trkpt lat="42.75336" lon="1.53207">
        <ele>1543</ele>
        <time>2026-06-28T06:25:37.000Z</time>
      </trkpt>
      <trkpt lat="42.75338" lon="1.53211">
        <ele>1542</ele>
        <time>2026-06-28T06:25:38.000Z</time>
      </trkpt>
      <trkpt lat="42.75341" lon="1.53216">
        <ele>1541</ele>
        <time>2026-06-28T06:25:39.000Z</time>
      </trkpt>
      <trkpt lat="42.75344" lon="1.53219">
        <ele>1541</ele>
        <time>2026-06-28T06:25:40.000Z</time>
      </trkpt>
      <trkpt lat="42.75348" lon="1.53222">
        <ele>1540</ele>
        <time>2026-06-28T06:25:41.000Z</time>
      </trkpt>
      <trkpt lat="42.7535" lon="1.53226">
        <ele>1540</ele>
        <time>2026-06-28T06:25:42.000Z</time>
      </trkpt>
      <trkpt lat="42.75354" lon="1.53228">
        <ele>1539</ele>
        <time>2026-06-28T06:25:43.000Z</time>
      </trkpt>
      <trkpt lat="42.75357" lon="1.53228">
        <ele>1539</ele>
        <time>2026-06-28T06:25:44.000Z</time>
      </trkpt>
      <trkpt lat="42.7536" lon="1.53227">
        <ele>1538</ele>
        <time>2026-06-28T06:25:45.000Z</time>
      </trkpt>
      <trkpt lat="42.75362" lon="1.53225">
        <ele>1538</ele>
        <time>2026-06-28T06:25:46.000Z</time>
      </trkpt>
      <trkpt lat="42.75363" lon="1.53222">
        <ele>1538</ele>
        <time>2026-06-28T06:25:47.000Z</time>
      </trkpt>
      <trkpt lat="42.75363" lon="1.5322">
        <ele>1538</ele>
        <time>2026-06-28T06:25:48.000Z</time>
      </trkpt>
      <trkpt lat="42.75364" lon="1.53218">
        <ele>1539</ele>
        <time>2026-06-28T06:25:49.000Z</time>
      </trkpt>
      <trkpt lat="42.75365" lon="1.53216">
        <ele>1539</ele>
        <time>2026-06-28T06:25:50.000Z</time>
      </trkpt>
      <trkpt lat="42.75366" lon="1.53213">
        <ele>1540</ele>
        <time>2026-06-28T06:25:51.000Z</time>
      </trkpt>
      <trkpt lat="42.75367" lon="1.5321">
        <ele>1540</ele>
        <time>2026-06-28T06:25:52.000Z</time>
      </trkpt>
      <trkpt lat="42.75368" lon="1.53208">
        <ele>1541</ele>
        <time>2026-06-28T06:25:53.000Z</time>
      </trkpt>
      <trkpt lat="42.75368" lon="1.53205">
        <ele>1541</ele>
        <time>2026-06-28T06:25:54.000Z</time>
      </trkpt>
      <trkpt lat="42.7537" lon="1.53203">
        <ele>1541</ele>
        <time>2026-06-28T06:25:55.000Z</time>
      </trkpt>
      <trkpt lat="42.7537" lon="1.53201">
        <ele>1541</ele>
        <time>2026-06-28T06:25:56.000Z</time>
      </trkpt>
      <trkpt lat="42.75371" lon="1.53199">
        <ele>1542</ele>
        <time>2026-06-28T06:25:57.000Z</time>
      </trkpt>
      <trkpt lat="42.75372" lon="1.53197">
        <ele>1542</ele>
        <time>2026-06-28T06:25:58.000Z</time>
      </trkpt>
      <trkpt lat="42.75373" lon="1.53195">
        <ele>1542</ele>
        <time>2026-06-28T06:25:59.000Z</time>
      </trkpt>
      <trkpt lat="42.75373" lon="1.53192">
        <ele>1542</ele>
        <time>2026-06-28T06:26:00.000Z</time>
      </trkpt>
      <trkpt lat="42.75374" lon="1.53189">
        <ele>1543</ele>
        <time>2026-06-28T06:26:01.000Z</time>
      </trkpt>
      <trkpt lat="42.75374" lon="1.53187">
        <ele>1543</ele>
        <time>2026-06-28T06:26:02.000Z</time>
      </trkpt>
      <trkpt lat="42.75375" lon="1.53184">
        <ele>1544</ele>
        <time>2026-06-28T06:26:03.000Z</time>
      </trkpt>
      <trkpt lat="42.75376" lon="1.53182">
        <ele>1545</ele>
        <time>2026-06-28T06:26:04.000Z</time>
      </trkpt>
      <trkpt lat="42.75377" lon="1.5318">
        <ele>1545</ele>
        <time>2026-06-28T06:26:05.000Z</time>
      </trkpt>
      <trkpt lat="42.75377" lon="1.53177">
        <ele>1546</ele>
        <time>2026-06-28T06:26:06.000Z</time>
      </trkpt>
      <trkpt lat="42.75377" lon="1.53174">
        <ele>1546</ele>
        <time>2026-06-28T06:26:07.000Z</time>
      </trkpt>
      <trkpt lat="42.75378" lon="1.53172">
        <ele>1546</ele>
        <time>2026-06-28T06:26:08.000Z</time>
      </trkpt>
      <trkpt lat="42.75379" lon="1.53169">
        <ele>1547</ele>
        <time>2026-06-28T06:26:09.000Z</time>
      </trkpt>
      <trkpt lat="42.7538" lon="1.53167">
        <ele>1547</ele>
        <time>2026-06-28T06:26:10.000Z</time>
      </trkpt>
      <trkpt lat="42.7538" lon="1.53164">
        <ele>1548</ele>
        <time>2026-06-28T06:26:11.000Z</time>
      </trkpt>
      <trkpt lat="42.75381" lon="1.53161">
        <ele>1548</ele>
        <time>2026-06-28T06:26:12.000Z</time>
      </trkpt>
      <trkpt lat="42.75381" lon="1.53158">
        <ele>1548</ele>
        <time>2026-06-28T06:26:13.000Z</time>
      </trkpt>
      <trkpt lat="42.75382" lon="1.53154">
        <ele>1548</ele>
        <time>2026-06-28T06:26:14.000Z</time>
      </trkpt>
      <trkpt lat="42.75382" lon="1.53151">
        <ele>1548</ele>
        <time>2026-06-28T06:26:15.000Z</time>
      </trkpt>
      <trkpt lat="42.75384" lon="1.53147">
        <ele>1548</ele>
        <time>2026-06-28T06:26:16.000Z</time>
      </trkpt>
      <trkpt lat="42.75385" lon="1.53143">
        <ele>1548</ele>
        <time>2026-06-28T06:26:17.000Z</time>
      </trkpt>
      <trkpt lat="42.75386" lon="1.53139">
        <ele>1548</ele>
        <time>2026-06-28T06:26:18.000Z</time>
      </trkpt>
      <trkpt lat="42.75388" lon="1.53135">
        <ele>1548</ele>
        <time>2026-06-28T06:26:19.000Z</time>
      </trkpt>
      <trkpt lat="42.7539" lon="1.53132">
        <ele>1548</ele>
        <time>2026-06-28T06:26:20.000Z</time>
      </trkpt>
      <trkpt lat="42.75391" lon="1.53129">
        <ele>1548</ele>
        <time>2026-06-28T06:26:21.000Z</time>
      </trkpt>
      <trkpt lat="42.75393" lon="1.53125">
        <ele>1548</ele>
        <time>2026-06-28T06:26:22.000Z</time>
      </trkpt>
      <trkpt lat="42.75394" lon="1.53122">
        <ele>1548</ele>
        <time>2026-06-28T06:26:23.000Z</time>
      </trkpt>
      <trkpt lat="42.75396" lon="1.53119">
        <ele>1549</ele>
        <time>2026-06-28T06:26:24.000Z</time>
      </trkpt>
      <trkpt lat="42.75397" lon="1.53116">
        <ele>1549</ele>
        <time>2026-06-28T06:26:25.000Z</time>
      </trkpt>
      <trkpt lat="42.75399" lon="1.53113">
        <ele>1549</ele>
        <time>2026-06-28T06:26:26.000Z</time>
      </trkpt>
      <trkpt lat="42.754" lon="1.53109">
        <ele>1549</ele>
        <time>2026-06-28T06:26:27.000Z</time>
      </trkpt>
      <trkpt lat="42.75401" lon="1.53106">
        <ele>1549</ele>
        <time>2026-06-28T06:26:28.000Z</time>
      </trkpt>
      <trkpt lat="42.75402" lon="1.53102">
        <ele>1549</ele>
        <time>2026-06-28T06:26:29.000Z</time>
      </trkpt>
      <trkpt lat="42.75403" lon="1.53098">
        <ele>1550</ele>
        <time>2026-06-28T06:26:30.000Z</time>
      </trkpt>
      <trkpt lat="42.75403" lon="1.53093">
        <ele>1550</ele>
        <time>2026-06-28T06:26:31.000Z</time>
      </trkpt>
      <trkpt lat="42.75404" lon="1.53089">
        <ele>1550</ele>
        <time>2026-06-28T06:26:32.000Z</time>
      </trkpt>
      <trkpt lat="42.75405" lon="1.53085">
        <ele>1550</ele>
        <time>2026-06-28T06:26:33.000Z</time>
      </trkpt>
      <trkpt lat="42.75406" lon="1.53082">
        <ele>1550</ele>
        <time>2026-06-28T06:26:34.000Z</time>
      </trkpt>
      <trkpt lat="42.75408" lon="1.53078">
        <ele>1551</ele>
        <time>2026-06-28T06:26:35.000Z</time>
      </trkpt>
      <trkpt lat="42.7541" lon="1.53074">
        <ele>1551</ele>
        <time>2026-06-28T06:26:36.000Z</time>
      </trkpt>
      <trkpt lat="42.75411" lon="1.53072">
        <ele>1551</ele>
        <time>2026-06-28T06:26:37.000Z</time>
      </trkpt>
      <trkpt lat="42.75412" lon="1.53069">
        <ele>1552</ele>
        <time>2026-06-28T06:26:38.000Z</time>
      </trkpt>
      <trkpt lat="42.75414" lon="1.53065">
        <ele>1552</ele>
        <time>2026-06-28T06:26:39.000Z</time>
      </trkpt>
      <trkpt lat="42.75416" lon="1.53063">
        <ele>1552</ele>
        <time>2026-06-28T06:26:40.000Z</time>
      </trkpt>
      <trkpt lat="42.75418" lon="1.5306">
        <ele>1552</ele>
        <time>2026-06-28T06:26:41.000Z</time>
      </trkpt>
      <trkpt lat="42.7542" lon="1.53058">
        <ele>1553</ele>
        <time>2026-06-28T06:26:42.000Z</time>
      </trkpt>
      <trkpt lat="42.75423" lon="1.53055">
        <ele>1553</ele>
        <time>2026-06-28T06:26:43.000Z</time>
      </trkpt>
      <trkpt lat="42.75426" lon="1.53052">
        <ele>1553</ele>
        <time>2026-06-28T06:26:44.000Z</time>
      </trkpt>
      <trkpt lat="42.75428" lon="1.5305">
        <ele>1553</ele>
        <time>2026-06-28T06:26:45.000Z</time>
      </trkpt>
      <trkpt lat="42.7543" lon="1.53048">
        <ele>1553</ele>
        <time>2026-06-28T06:26:46.000Z</time>
      </trkpt>
      <trkpt lat="42.75432" lon="1.53044">
        <ele>1554</ele>
        <time>2026-06-28T06:26:47.000Z</time>
      </trkpt>
      <trkpt lat="42.75434" lon="1.53042">
        <ele>1555</ele>
        <time>2026-06-28T06:26:48.000Z</time>
      </trkpt>
      <trkpt lat="42.75436" lon="1.5304">
        <ele>1555</ele>
        <time>2026-06-28T06:26:49.000Z</time>
      </trkpt>
      <trkpt lat="42.75439" lon="1.53038">
        <ele>1555</ele>
        <time>2026-06-28T06:26:50.000Z</time>
      </trkpt>
      <trkpt lat="42.75441" lon="1.53035">
        <ele>1555</ele>
        <time>2026-06-28T06:26:51.000Z</time>
      </trkpt>
      <trkpt lat="42.75443" lon="1.53034">
        <ele>1555</ele>
        <time>2026-06-28T06:26:52.000Z</time>
      </trkpt>
      <trkpt lat="42.75445" lon="1.53032">
        <ele>1555</ele>
        <time>2026-06-28T06:26:53.000Z</time>
      </trkpt>
      <trkpt lat="42.75447" lon="1.5303">
        <ele>1555</ele>
        <time>2026-06-28T06:26:54.000Z</time>
      </trkpt>
      <trkpt lat="42.75449" lon="1.53028">
        <ele>1555</ele>
        <time>2026-06-28T06:26:55.000Z</time>
      </trkpt>
      <trkpt lat="42.75451" lon="1.53027">
        <ele>1555</ele>
        <time>2026-06-28T06:26:56.000Z</time>
      </trkpt>
      <trkpt lat="42.75454" lon="1.53026">
        <ele>1556</ele>
        <time>2026-06-28T06:26:57.000Z</time>
      </trkpt>
      <trkpt lat="42.75457" lon="1.53024">
        <ele>1556</ele>
        <time>2026-06-28T06:26:58.000Z</time>
      </trkpt>
      <trkpt lat="42.75459" lon="1.53023">
        <ele>1556</ele>
        <time>2026-06-28T06:26:59.000Z</time>
      </trkpt>
      <trkpt lat="42.75461" lon="1.53022">
        <ele>1556</ele>
        <time>2026-06-28T06:27:00.000Z</time>
      </trkpt>
      <trkpt lat="42.75464" lon="1.5302">
        <ele>1557</ele>
        <time>2026-06-28T06:27:01.000Z</time>
      </trkpt>
      <trkpt lat="42.75466" lon="1.53019">
        <ele>1557</ele>
        <time>2026-06-28T06:27:02.000Z</time>
      </trkpt>
      <trkpt lat="42.75468" lon="1.53019">
        <ele>1558</ele>
        <time>2026-06-28T06:27:03.000Z</time>
      </trkpt>
      <trkpt lat="42.75471" lon="1.53018">
        <ele>1558</ele>
        <time>2026-06-28T06:27:04.000Z</time>
      </trkpt>
      <trkpt lat="42.75473" lon="1.53017">
        <ele>1558</ele>
        <time>2026-06-28T06:27:05.000Z</time>
      </trkpt>
      <trkpt lat="42.75475" lon="1.53016">
        <ele>1559</ele>
        <time>2026-06-28T06:27:06.000Z</time>
      </trkpt>
      <trkpt lat="42.75478" lon="1.53015">
        <ele>1559</ele>
        <time>2026-06-28T06:27:07.000Z</time>
      </trkpt>
      <trkpt lat="42.75479" lon="1.53014">
        <ele>1560</ele>
        <time>2026-06-28T06:27:08.000Z</time>
      </trkpt>
      <trkpt lat="42.75481" lon="1.53013">
        <ele>1560</ele>
        <time>2026-06-28T06:27:09.000Z</time>
      </trkpt>
      <trkpt lat="42.75484" lon="1.53012">
        <ele>1561</ele>
        <time>2026-06-28T06:27:10.000Z</time>
      </trkpt>
      <trkpt lat="42.75486" lon="1.5301">
        <ele>1561</ele>
        <time>2026-06-28T06:27:11.000Z</time>
      </trkpt>
      <trkpt lat="42.75488" lon="1.53009">
        <ele>1561</ele>
        <time>2026-06-28T06:27:12.000Z</time>
      </trkpt>
      <trkpt lat="42.7549" lon="1.53007">
        <ele>1562</ele>
        <time>2026-06-28T06:27:13.000Z</time>
      </trkpt>
      <trkpt lat="42.75491" lon="1.53005">
        <ele>1562</ele>
        <time>2026-06-28T06:27:14.000Z</time>
      </trkpt>
      <trkpt lat="42.75492" lon="1.53004">
        <ele>1563</ele>
        <time>2026-06-28T06:27:15.000Z</time>
      </trkpt>
      <trkpt lat="42.75494" lon="1.53003">
        <ele>1564</ele>
        <time>2026-06-28T06:27:16.000Z</time>
      </trkpt>
      <trkpt lat="42.75496" lon="1.53002">
        <ele>1564</ele>
        <time>2026-06-28T06:27:17.000Z</time>
      </trkpt>
      <trkpt lat="42.75498" lon="1.53001">
        <ele>1564</ele>
        <time>2026-06-28T06:27:18.000Z</time>
      </trkpt>
      <trkpt lat="42.755" lon="1.53">
        <ele>1564</ele>
        <time>2026-06-28T06:27:19.000Z</time>
      </trkpt>
      <trkpt lat="42.75503" lon="1.52999">
        <ele>1563</ele>
        <time>2026-06-28T06:27:20.000Z</time>
      </trkpt>
      <trkpt lat="42.75505" lon="1.52998">
        <ele>1564</ele>
        <time>2026-06-28T06:27:21.000Z</time>
      </trkpt>
      <trkpt lat="42.75508" lon="1.52998">
        <ele>1564</ele>
        <time>2026-06-28T06:27:22.000Z</time>
      </trkpt>
      <trkpt lat="42.7551" lon="1.52997">
        <ele>1564</ele>
        <time>2026-06-28T06:27:23.000Z</time>
      </trkpt>
      <trkpt lat="42.75512" lon="1.52996">
        <ele>1565</ele>
        <time>2026-06-28T06:27:24.000Z</time>
      </trkpt>
      <trkpt lat="42.75514" lon="1.52995">
        <ele>1565</ele>
        <time>2026-06-28T06:27:25.000Z</time>
      </trkpt>
      <trkpt lat="42.75516" lon="1.52995">
        <ele>1566</ele>
        <time>2026-06-28T06:27:26.000Z</time>
      </trkpt>
      <trkpt lat="42.75518" lon="1.52994">
        <ele>1566</ele>
        <time>2026-06-28T06:27:27.000Z</time>
      </trkpt>
      <trkpt lat="42.75519" lon="1.52994">
        <ele>1567</ele>
        <time>2026-06-28T06:27:28.000Z</time>
      </trkpt>
      <trkpt lat="42.75522" lon="1.52992">
        <ele>1566</ele>
        <time>2026-06-28T06:27:29.000Z</time>
      </trkpt>
      <trkpt lat="42.75524" lon="1.52991">
        <ele>1566</ele>
        <time>2026-06-28T06:27:30.000Z</time>
      </trkpt>
      <trkpt lat="42.75526" lon="1.5299">
        <ele>1566</ele>
        <time>2026-06-28T06:27:31.000Z</time>
      </trkpt>
      <trkpt lat="42.75528" lon="1.52989">
        <ele>1566</ele>
        <time>2026-06-28T06:27:32.000Z</time>
      </trkpt>
      <trkpt lat="42.75529" lon="1.52988">
        <ele>1566</ele>
        <time>2026-06-28T06:27:33.000Z</time>
      </trkpt>
      <trkpt lat="42.75531" lon="1.52987">
        <ele>1567</ele>
        <time>2026-06-28T06:27:34.000Z</time>
      </trkpt>
      <trkpt lat="42.75534" lon="1.52986">
        <ele>1566</ele>
        <time>2026-06-28T06:27:35.000Z</time>
      </trkpt>
      <trkpt lat="42.75536" lon="1.52985">
        <ele>1567</ele>
        <time>2026-06-28T06:27:36.000Z</time>
      </trkpt>
      <trkpt lat="42.75538" lon="1.52984">
        <ele>1566</ele>
        <time>2026-06-28T06:27:37.000Z</time>
      </trkpt>
      <trkpt lat="42.75541" lon="1.52983">
        <ele>1567</ele>
        <time>2026-06-28T06:27:38.000Z</time>
      </trkpt>
      <trkpt lat="42.75543" lon="1.52983">
        <ele>1568</ele>
        <time>2026-06-28T06:27:39.000Z</time>
      </trkpt>
      <trkpt lat="42.75545" lon="1.52982">
        <ele>1568</ele>
        <time>2026-06-28T06:27:40.000Z</time>
      </trkpt>
      <trkpt lat="42.75548" lon="1.52982">
        <ele>1569</ele>
        <time>2026-06-28T06:27:41.000Z</time>
      </trkpt>
      <trkpt lat="42.75551" lon="1.52983">
        <ele>1569</ele>
        <time>2026-06-28T06:27:42.000Z</time>
      </trkpt>
      <trkpt lat="42.75553" lon="1.52983">
        <ele>1569</ele>
        <time>2026-06-28T06:27:43.000Z</time>
      </trkpt>
      <trkpt lat="42.75555" lon="1.52983">
        <ele>1569</ele>
        <time>2026-06-28T06:27:44.000Z</time>
      </trkpt>
      <trkpt lat="42.75557" lon="1.52983">
        <ele>1569</ele>
        <time>2026-06-28T06:27:45.000Z</time>
      </trkpt>
      <trkpt lat="42.7556" lon="1.52983">
        <ele>1568</ele>
        <time>2026-06-28T06:27:46.000Z</time>
      </trkpt>
      <trkpt lat="42.75562" lon="1.52984">
        <ele>1569</ele>
        <time>2026-06-28T06:27:47.000Z</time>
      </trkpt>
      <trkpt lat="42.75565" lon="1.52984">
        <ele>1569</ele>
        <time>2026-06-28T06:27:48.000Z</time>
      </trkpt>
      <trkpt lat="42.75567" lon="1.52984">
        <ele>1569</ele>
        <time>2026-06-28T06:27:49.000Z</time>
      </trkpt>
      <trkpt lat="42.75569" lon="1.52984">
        <ele>1568</ele>
        <time>2026-06-28T06:27:50.000Z</time>
      </trkpt>
      <trkpt lat="42.75571" lon="1.52985">
        <ele>1568</ele>
        <time>2026-06-28T06:27:51.000Z</time>
      </trkpt>
      <trkpt lat="42.75574" lon="1.52984">
        <ele>1568</ele>
        <time>2026-06-28T06:27:52.000Z</time>
      </trkpt>
      <trkpt lat="42.75576" lon="1.52984">
        <ele>1568</ele>
        <time>2026-06-28T06:27:53.000Z</time>
      </trkpt>
      <trkpt lat="42.75578" lon="1.52984">
        <ele>1568</ele>
        <time>2026-06-28T06:27:54.000Z</time>
      </trkpt>
      <trkpt lat="42.7558" lon="1.52986">
        <ele>1569</ele>
        <time>2026-06-28T06:27:55.000Z</time>
      </trkpt>
      <trkpt lat="42.75583" lon="1.52987">
        <ele>1569</ele>
        <time>2026-06-28T06:27:56.000Z</time>
      </trkpt>
      <trkpt lat="42.75585" lon="1.52987">
        <ele>1568</ele>
        <time>2026-06-28T06:27:57.000Z</time>
      </trkpt>
      <trkpt lat="42.75588" lon="1.52988">
        <ele>1568</ele>
        <time>2026-06-28T06:27:58.000Z</time>
      </trkpt>
      <trkpt lat="42.75591" lon="1.52988">
        <ele>1568</ele>
        <time>2026-06-28T06:27:59.000Z</time>
      </trkpt>
      <trkpt lat="42.75594" lon="1.52989">
        <ele>1568</ele>
        <time>2026-06-28T06:28:00.000Z</time>
      </trkpt>
      <trkpt lat="42.75596" lon="1.5299">
        <ele>1568</ele>
        <time>2026-06-28T06:28:01.000Z</time>
      </trkpt>
      <trkpt lat="42.75599" lon="1.5299">
        <ele>1568</ele>
        <time>2026-06-28T06:28:02.000Z</time>
      </trkpt>
      <trkpt lat="42.75602" lon="1.52991">
        <ele>1567</ele>
        <time>2026-06-28T06:28:03.000Z</time>
      </trkpt>
      <trkpt lat="42.75605" lon="1.52991">
        <ele>1567</ele>
        <time>2026-06-28T06:28:04.000Z</time>
      </trkpt>
      <trkpt lat="42.75608" lon="1.52992">
        <ele>1567</ele>
        <time>2026-06-28T06:28:05.000Z</time>
      </trkpt>
      <trkpt lat="42.75611" lon="1.52993">
        <ele>1568</ele>
        <time>2026-06-28T06:28:06.000Z</time>
      </trkpt>
      <trkpt lat="42.75614" lon="1.52995">
        <ele>1567</ele>
        <time>2026-06-28T06:28:07.000Z</time>
      </trkpt>
      <trkpt lat="42.75617" lon="1.52996">
        <ele>1567</ele>
        <time>2026-06-28T06:28:08.000Z</time>
      </trkpt>
      <trkpt lat="42.75619" lon="1.52997">
        <ele>1567</ele>
        <time>2026-06-28T06:28:09.000Z</time>
      </trkpt>
      <trkpt lat="42.75622" lon="1.52998">
        <ele>1567</ele>
        <time>2026-06-28T06:28:10.000Z</time>
      </trkpt>
      <trkpt lat="42.75624" lon="1.52999">
        <ele>1566</ele>
        <time>2026-06-28T06:28:11.000Z</time>
      </trkpt>
      <trkpt lat="42.75627" lon="1.53001">
        <ele>1567</ele>
        <time>2026-06-28T06:28:12.000Z</time>
      </trkpt>
      <trkpt lat="42.7563" lon="1.53002">
        <ele>1567</ele>
        <time>2026-06-28T06:28:13.000Z</time>
      </trkpt>
      <trkpt lat="42.75632" lon="1.53003">
        <ele>1567</ele>
        <time>2026-06-28T06:28:14.000Z</time>
      </trkpt>
      <trkpt lat="42.75635" lon="1.53004">
        <ele>1568</ele>
        <time>2026-06-28T06:28:15.000Z</time>
      </trkpt>
      <trkpt lat="42.75638" lon="1.53005">
        <ele>1569</ele>
        <time>2026-06-28T06:28:16.000Z</time>
      </trkpt>
      <trkpt lat="42.75641" lon="1.53006">
        <ele>1569</ele>
        <time>2026-06-28T06:28:17.000Z</time>
      </trkpt>
      <trkpt lat="42.75643" lon="1.53007">
        <ele>1569</ele>
        <time>2026-06-28T06:28:18.000Z</time>
      </trkpt>
      <trkpt lat="42.75646" lon="1.53008">
        <ele>1569</ele>
        <time>2026-06-28T06:28:19.000Z</time>
      </trkpt>
      <trkpt lat="42.75648" lon="1.53009">
        <ele>1569</ele>
        <time>2026-06-28T06:28:20.000Z</time>
      </trkpt>
      <trkpt lat="42.7565" lon="1.5301">
        <ele>1569</ele>
        <time>2026-06-28T06:28:21.000Z</time>
      </trkpt>
      <trkpt lat="42.75651" lon="1.53012">
        <ele>1569</ele>
        <time>2026-06-28T06:28:22.000Z</time>
      </trkpt>
      <trkpt lat="42.75652" lon="1.53013">
        <ele>1569</ele>
        <time>2026-06-28T06:28:23.000Z</time>
      </trkpt>
      <trkpt lat="42.75653" lon="1.53014">
        <ele>1569</ele>
        <time>2026-06-28T06:28:24.000Z</time>
      </trkpt>
      <trkpt lat="42.75655" lon="1.53015">
        <ele>1569</ele>
        <time>2026-06-28T06:28:25.000Z</time>
      </trkpt>
      <trkpt lat="42.75655" lon="1.53015">
        <ele>1569</ele>
        <time>2026-06-28T06:28:26.000Z</time>
      </trkpt>
      <trkpt lat="42.75656" lon="1.53016">
        <ele>1569</ele>
        <time>2026-06-28T06:28:27.000Z</time>
      </trkpt>
      <trkpt lat="42.75657" lon="1.53016">
        <ele>1569</ele>
        <time>2026-06-28T06:28:28.000Z</time>
      </trkpt>
      <trkpt lat="42.75657" lon="1.53017">
        <ele>1569</ele>
        <time>2026-06-28T06:28:29.000Z</time>
      </trkpt>
      <trkpt lat="42.75658" lon="1.53018">
        <ele>1568</ele>
        <time>2026-06-28T06:28:30.000Z</time>
      </trkpt>
      <trkpt lat="42.75659" lon="1.53019">
        <ele>1569</ele>
        <time>2026-06-28T06:28:31.000Z</time>
      </trkpt>
      <trkpt lat="42.7566" lon="1.53019">
        <ele>1569</ele>
        <time>2026-06-28T06:28:32.000Z</time>
      </trkpt>
      <trkpt lat="42.75661" lon="1.53021">
        <ele>1569</ele>
        <time>2026-06-28T06:28:33.000Z</time>
      </trkpt>
      <trkpt lat="42.75662" lon="1.53021">
        <ele>1569</ele>
        <time>2026-06-28T06:28:34.000Z</time>
      </trkpt>
      <trkpt lat="42.75664" lon="1.53022">
        <ele>1568</ele>
        <time>2026-06-28T06:28:35.000Z</time>
      </trkpt>
      <trkpt lat="42.75665" lon="1.53023">
        <ele>1568</ele>
        <time>2026-06-28T06:28:36.000Z</time>
      </trkpt>
      <trkpt lat="42.75666" lon="1.53024">
        <ele>1567</ele>
        <time>2026-06-28T06:28:37.000Z</time>
      </trkpt>
      <trkpt lat="42.75666" lon="1.53024">
        <ele>1567</ele>
        <time>2026-06-28T06:28:38.000Z</time>
      </trkpt>
      <trkpt lat="42.75666" lon="1.53024">
        <ele>1567</ele>
        <time>2026-06-28T06:28:39.000Z</time>
      </trkpt>
      <trkpt lat="42.75666" lon="1.53025">
        <ele>1568</ele>
        <time>2026-06-28T06:28:40.000Z</time>
      </trkpt>
      <trkpt lat="42.75667" lon="1.53026">
        <ele>1568</ele>
        <time>2026-06-28T06:28:41.000Z</time>
      </trkpt>
      <trkpt lat="42.75667" lon="1.53025">
        <ele>1568</ele>
        <time>2026-06-28T06:28:42.000Z</time>
      </trkpt>
      <trkpt lat="42.75666" lon="1.53026">
        <ele>1568</ele>
        <time>2026-06-28T06:28:43.000Z</time>
      </trkpt>
      <trkpt lat="42.75667" lon="1.53027">
        <ele>1568</ele>
        <time>2026-06-28T06:28:44.000Z</time>
      </trkpt>
      <trkpt lat="42.75667" lon="1.53028">
        <ele>1568</ele>
        <time>2026-06-28T06:28:45.000Z</time>
      </trkpt>
      <trkpt lat="42.75667" lon="1.53029">
        <ele>1569</ele>
        <time>2026-06-28T06:28:46.000Z</time>
      </trkpt>
      <trkpt lat="42.75667" lon="1.53029">
        <ele>1568</ele>
        <time>2026-06-28T06:28:47.000Z</time>
      </trkpt>
      <trkpt lat="42.7567" lon="1.53034">
        <ele>1566</ele>
        <time>2026-06-28T06:29:00.000Z</time>
      </trkpt>
      <trkpt lat="42.7567" lon="1.53035">
        <ele>1566</ele>
        <time>2026-06-28T06:29:01.000Z</time>
      </trkpt>
      <trkpt lat="42.7567" lon="1.53036">
        <ele>1566</ele>
        <time>2026-06-28T06:29:02.000Z</time>
      </trkpt>
      <trkpt lat="42.75671" lon="1.53037">
        <ele>1566</ele>
        <time>2026-06-28T06:29:03.000Z</time>
      </trkpt>
      <trkpt lat="42.75671" lon="1.53037">
        <ele>1565</ele>
        <time>2026-06-28T06:29:04.000Z</time>
      </trkpt>
      <trkpt lat="42.75672" lon="1.53038">
        <ele>1565</ele>
        <time>2026-06-28T06:29:05.000Z</time>
      </trkpt>
      <trkpt lat="42.75672" lon="1.53038">
        <ele>1565</ele>
        <time>2026-06-28T06:29:06.000Z</time>
      </trkpt>
      <trkpt lat="42.75673" lon="1.53039">
        <ele>1565</ele>
        <time>2026-06-28T06:29:07.000Z</time>
      </trkpt>
      <trkpt lat="42.75673" lon="1.5304">
        <ele>1566</ele>
        <time>2026-06-28T06:29:08.000Z</time>
      </trkpt>
      <trkpt lat="42.75674" lon="1.53041">
        <ele>1566</ele>
        <time>2026-06-28T06:29:09.000Z</time>
      </trkpt>
      <trkpt lat="42.75674" lon="1.53042">
        <ele>1566</ele>
        <time>2026-06-28T06:29:10.000Z</time>
      </trkpt>
      <trkpt lat="42.75674" lon="1.53042">
        <ele>1566</ele>
        <time>2026-06-28T06:29:11.000Z</time>
      </trkpt>
      <trkpt lat="42.75674" lon="1.53042">
        <ele>1565</ele>
        <time>2026-06-28T06:29:12.000Z</time>
      </trkpt>
      <trkpt lat="42.75675" lon="1.53043">
        <ele>1565</ele>
        <time>2026-06-28T06:29:13.000Z</time>
      </trkpt>
      <trkpt lat="42.75676" lon="1.53043">
        <ele>1565</ele>
        <time>2026-06-28T06:29:14.000Z</time>
      </trkpt>
      <trkpt lat="42.75678" lon="1.53043">
        <ele>1564</ele>
        <time>2026-06-28T06:29:15.000Z</time>
      </trkpt>
      <trkpt lat="42.75681" lon="1.53045">
        <ele>1564</ele>
        <time>2026-06-28T06:29:16.000Z</time>
      </trkpt>
      <trkpt lat="42.75683" lon="1.53046">
        <ele>1564</ele>
        <time>2026-06-28T06:29:17.000Z</time>
      </trkpt>
      <trkpt lat="42.75685" lon="1.53047">
        <ele>1565</ele>
        <time>2026-06-28T06:29:18.000Z</time>
      </trkpt>
      <trkpt lat="42.75687" lon="1.53048">
        <ele>1565</ele>
        <time>2026-06-28T06:29:19.000Z</time>
      </trkpt>
      <trkpt lat="42.7569" lon="1.53048">
        <ele>1565</ele>
        <time>2026-06-28T06:29:20.000Z</time>
      </trkpt>
      <trkpt lat="42.75692" lon="1.53048">
        <ele>1566</ele>
        <time>2026-06-28T06:29:21.000Z</time>
      </trkpt>
      <trkpt lat="42.75695" lon="1.53049">
        <ele>1566</ele>
        <time>2026-06-28T06:29:22.000Z</time>
      </trkpt>
      <trkpt lat="42.75697" lon="1.53049">
        <ele>1567</ele>
        <time>2026-06-28T06:29:23.000Z</time>
      </trkpt>
      <trkpt lat="42.757" lon="1.53051">
        <ele>1568</ele>
        <time>2026-06-28T06:29:24.000Z</time>
      </trkpt>
      <trkpt lat="42.75703" lon="1.53052">
        <ele>1568</ele>
        <time>2026-06-28T06:29:25.000Z</time>
      </trkpt>
      <trkpt lat="42.75706" lon="1.53054">
        <ele>1568</ele>
        <time>2026-06-28T06:29:26.000Z</time>
      </trkpt>
      <trkpt lat="42.75709" lon="1.53055">
        <ele>1568</ele>
        <time>2026-06-28T06:29:27.000Z</time>
      </trkpt>
      <trkpt lat="42.75713" lon="1.53056">
        <ele>1569</ele>
        <time>2026-06-28T06:29:28.000Z</time>
      </trkpt>
      <trkpt lat="42.75716" lon="1.53058">
        <ele>1570</ele>
        <time>2026-06-28T06:29:29.000Z</time>
      </trkpt>
      <trkpt lat="42.7572" lon="1.5306">
        <ele>1570</ele>
        <time>2026-06-28T06:29:30.000Z</time>
      </trkpt>
      <trkpt lat="42.75723" lon="1.53062">
        <ele>1570</ele>
        <time>2026-06-28T06:29:31.000Z</time>
      </trkpt>
      <trkpt lat="42.75726" lon="1.53064">
        <ele>1570</ele>
        <time>2026-06-28T06:29:32.000Z</time>
      </trkpt>
      <trkpt lat="42.7573" lon="1.53065">
        <ele>1571</ele>
        <time>2026-06-28T06:29:33.000Z</time>
      </trkpt>
      <trkpt lat="42.75733" lon="1.53067">
        <ele>1571</ele>
        <time>2026-06-28T06:29:34.000Z</time>
      </trkpt>
      <trkpt lat="42.75736" lon="1.53067">
        <ele>1571</ele>
        <time>2026-06-28T06:29:35.000Z</time>
      </trkpt>
      <trkpt lat="42.75739" lon="1.53068">
        <ele>1572</ele>
        <time>2026-06-28T06:29:36.000Z</time>
      </trkpt>
      <trkpt lat="42.75742" lon="1.53069">
        <ele>1573</ele>
        <time>2026-06-28T06:29:37.000Z</time>
      </trkpt>
      <trkpt lat="42.75745" lon="1.5307">
        <ele>1574</ele>
        <time>2026-06-28T06:29:38.000Z</time>
      </trkpt>
      <trkpt lat="42.75748" lon="1.53072">
        <ele>1573</ele>
        <time>2026-06-28T06:29:39.000Z</time>
      </trkpt>
      <trkpt lat="42.75751" lon="1.53073">
        <ele>1574</ele>
        <time>2026-06-28T06:29:40.000Z</time>
      </trkpt>
      <trkpt lat="42.75753" lon="1.53074">
        <ele>1574</ele>
        <time>2026-06-28T06:29:41.000Z</time>
      </trkpt>
      <trkpt lat="42.75756" lon="1.53075">
        <ele>1574</ele>
        <time>2026-06-28T06:29:42.000Z</time>
      </trkpt>
      <trkpt lat="42.75758" lon="1.53075">
        <ele>1574</ele>
        <time>2026-06-28T06:29:43.000Z</time>
      </trkpt>
      <trkpt lat="42.7576" lon="1.53076">
        <ele>1574</ele>
        <time>2026-06-28T06:29:44.000Z</time>
      </trkpt>
      <trkpt lat="42.75761" lon="1.53077">
        <ele>1574</ele>
        <time>2026-06-28T06:29:45.000Z</time>
      </trkpt>
      <trkpt lat="42.75763" lon="1.53077">
        <ele>1574</ele>
        <time>2026-06-28T06:29:46.000Z</time>
      </trkpt>
      <trkpt lat="42.75765" lon="1.53077">
        <ele>1573</ele>
        <time>2026-06-28T06:29:47.000Z</time>
      </trkpt>
      <trkpt lat="42.75768" lon="1.53078">
        <ele>1574</ele>
        <time>2026-06-28T06:29:48.000Z</time>
      </trkpt>
      <trkpt lat="42.75769" lon="1.53079">
        <ele>1574</ele>
        <time>2026-06-28T06:29:49.000Z</time>
      </trkpt>
      <trkpt lat="42.75771" lon="1.5308">
        <ele>1574</ele>
        <time>2026-06-28T06:29:50.000Z</time>
      </trkpt>
      <trkpt lat="42.75773" lon="1.53081">
        <ele>1574</ele>
        <time>2026-06-28T06:29:51.000Z</time>
      </trkpt>
      <trkpt lat="42.75775" lon="1.53081">
        <ele>1574</ele>
        <time>2026-06-28T06:29:52.000Z</time>
      </trkpt>
      <trkpt lat="42.75777" lon="1.53081">
        <ele>1575</ele>
        <time>2026-06-28T06:29:53.000Z</time>
      </trkpt>
      <trkpt lat="42.75779" lon="1.53081">
        <ele>1576</ele>
        <time>2026-06-28T06:29:54.000Z</time>
      </trkpt>
      <trkpt lat="42.75782" lon="1.53081">
        <ele>1577</ele>
        <time>2026-06-28T06:29:55.000Z</time>
      </trkpt>
      <trkpt lat="42.75785" lon="1.53081">
        <ele>1577</ele>
        <time>2026-06-28T06:29:56.000Z</time>
      </trkpt>
      <trkpt lat="42.75787" lon="1.53081">
        <ele>1577</ele>
        <time>2026-06-28T06:29:57.000Z</time>
      </trkpt>
      <trkpt lat="42.75791" lon="1.5308">
        <ele>1577</ele>
        <time>2026-06-28T06:29:58.000Z</time>
      </trkpt>
      <trkpt lat="42.75793" lon="1.5308">
        <ele>1579</ele>
        <time>2026-06-28T06:29:59.000Z</time>
      </trkpt>
      <trkpt lat="42.75796" lon="1.5308">
        <ele>1579</ele>
        <time>2026-06-28T06:30:00.000Z</time>
      </trkpt>
      <trkpt lat="42.75799" lon="1.53079">
        <ele>1579</ele>
        <time>2026-06-28T06:30:01.000Z</time>
      </trkpt>
      <trkpt lat="42.75802" lon="1.53079">
        <ele>1580</ele>
        <time>2026-06-28T06:30:02.000Z</time>
      </trkpt>
      <trkpt lat="42.75804" lon="1.53078">
        <ele>1580</ele>
        <time>2026-06-28T06:30:03.000Z</time>
      </trkpt>
      <trkpt lat="42.75807" lon="1.53077">
        <ele>1581</ele>
        <time>2026-06-28T06:30:04.000Z</time>
      </trkpt>
      <trkpt lat="42.7581" lon="1.53076">
        <ele>1582</ele>
        <time>2026-06-28T06:30:05.000Z</time>
      </trkpt>
      <trkpt lat="42.75814" lon="1.53076">
        <ele>1584</ele>
        <time>2026-06-28T06:30:06.000Z</time>
      </trkpt>
      <trkpt lat="42.75817" lon="1.53075">
        <ele>1583</ele>
        <time>2026-06-28T06:30:07.000Z</time>
      </trkpt>
      <trkpt lat="42.7582" lon="1.53074">
        <ele>1584</ele>
        <time>2026-06-28T06:30:08.000Z</time>
      </trkpt>
      <trkpt lat="42.75823" lon="1.53074">
        <ele>1584</ele>
        <time>2026-06-28T06:30:09.000Z</time>
      </trkpt>
      <trkpt lat="42.75826" lon="1.53074">
        <ele>1584</ele>
        <time>2026-06-28T06:30:10.000Z</time>
      </trkpt>
      <trkpt lat="42.75829" lon="1.53072">
        <ele>1584</ele>
        <time>2026-06-28T06:30:11.000Z</time>
      </trkpt>
      <trkpt lat="42.75833" lon="1.53072">
        <ele>1584</ele>
        <time>2026-06-28T06:30:12.000Z</time>
      </trkpt>
      <trkpt lat="42.75836" lon="1.53072">
        <ele>1584</ele>
        <time>2026-06-28T06:30:13.000Z</time>
      </trkpt>
      <trkpt lat="42.75838" lon="1.5307">
        <ele>1584</ele>
        <time>2026-06-28T06:30:14.000Z</time>
      </trkpt>
      <trkpt lat="42.75841" lon="1.53069">
        <ele>1584</ele>
        <time>2026-06-28T06:30:15.000Z</time>
      </trkpt>
      <trkpt lat="42.75844" lon="1.53068">
        <ele>1584</ele>
        <time>2026-06-28T06:30:16.000Z</time>
      </trkpt>
      <trkpt lat="42.75847" lon="1.53067">
        <ele>1585</ele>
        <time>2026-06-28T06:30:17.000Z</time>
      </trkpt>
      <trkpt lat="42.7585" lon="1.53067">
        <ele>1584</ele>
        <time>2026-06-28T06:30:18.000Z</time>
      </trkpt>
      <trkpt lat="42.75854" lon="1.53065">
        <ele>1585</ele>
        <time>2026-06-28T06:30:19.000Z</time>
      </trkpt>
      <trkpt lat="42.75856" lon="1.53064">
        <ele>1584</ele>
        <time>2026-06-28T06:30:20.000Z</time>
      </trkpt>
      <trkpt lat="42.75859" lon="1.53062">
        <ele>1585</ele>
        <time>2026-06-28T06:30:21.000Z</time>
      </trkpt>
      <trkpt lat="42.75862" lon="1.5306">
        <ele>1585</ele>
        <time>2026-06-28T06:30:22.000Z</time>
      </trkpt>
      <trkpt lat="42.75864" lon="1.53058">
        <ele>1584</ele>
        <time>2026-06-28T06:30:23.000Z</time>
      </trkpt>
      <trkpt lat="42.75866" lon="1.53056">
        <ele>1584</ele>
        <time>2026-06-28T06:30:24.000Z</time>
      </trkpt>
      <trkpt lat="42.75868" lon="1.53054">
        <ele>1584</ele>
        <time>2026-06-28T06:30:25.000Z</time>
      </trkpt>
      <trkpt lat="42.7587" lon="1.53052">
        <ele>1584</ele>
        <time>2026-06-28T06:30:26.000Z</time>
      </trkpt>
      <trkpt lat="42.75872" lon="1.5305">
        <ele>1584</ele>
        <time>2026-06-28T06:30:27.000Z</time>
      </trkpt>
      <trkpt lat="42.75874" lon="1.53049">
        <ele>1584</ele>
        <time>2026-06-28T06:30:28.000Z</time>
      </trkpt>
      <trkpt lat="42.75877" lon="1.53048">
        <ele>1584</ele>
        <time>2026-06-28T06:30:29.000Z</time>
      </trkpt>
      <trkpt lat="42.7588" lon="1.53048">
        <ele>1585</ele>
        <time>2026-06-28T06:30:30.000Z</time>
      </trkpt>
      <trkpt lat="42.75882" lon="1.53047">
        <ele>1585</ele>
        <time>2026-06-28T06:30:31.000Z</time>
      </trkpt>
      <trkpt lat="42.75885" lon="1.53046">
        <ele>1585</ele>
        <time>2026-06-28T06:30:32.000Z</time>
      </trkpt>
      <trkpt lat="42.75887" lon="1.53046">
        <ele>1585</ele>
        <time>2026-06-28T06:30:33.000Z</time>
      </trkpt>
      <trkpt lat="42.75889" lon="1.53045">
        <ele>1585</ele>
        <time>2026-06-28T06:30:34.000Z</time>
      </trkpt>
      <trkpt lat="42.75891" lon="1.53044">
        <ele>1585</ele>
        <time>2026-06-28T06:30:35.000Z</time>
      </trkpt>
      <trkpt lat="42.75894" lon="1.53044">
        <ele>1584</ele>
        <time>2026-06-28T06:30:36.000Z</time>
      </trkpt>
      <trkpt lat="42.75896" lon="1.53043">
        <ele>1585</ele>
        <time>2026-06-28T06:30:37.000Z</time>
      </trkpt>
      <trkpt lat="42.75898" lon="1.53042">
        <ele>1585</ele>
        <time>2026-06-28T06:30:38.000Z</time>
      </trkpt>
      <trkpt lat="42.759" lon="1.53041">
        <ele>1585</ele>
        <time>2026-06-28T06:30:39.000Z</time>
      </trkpt>
      <trkpt lat="42.75903" lon="1.5304">
        <ele>1585</ele>
        <time>2026-06-28T06:30:40.000Z</time>
      </trkpt>
      <trkpt lat="42.75905" lon="1.5304">
        <ele>1586</ele>
        <time>2026-06-28T06:30:41.000Z</time>
      </trkpt>
      <trkpt lat="42.75907" lon="1.53039">
        <ele>1586</ele>
        <time>2026-06-28T06:30:42.000Z</time>
      </trkpt>
      <trkpt lat="42.7591" lon="1.53039">
        <ele>1587</ele>
        <time>2026-06-28T06:30:43.000Z</time>
      </trkpt>
      <trkpt lat="42.75912" lon="1.5304">
        <ele>1586</ele>
        <time>2026-06-28T06:30:44.000Z</time>
      </trkpt>
      <trkpt lat="42.75915" lon="1.53043">
        <ele>1587</ele>
        <time>2026-06-28T06:30:45.000Z</time>
      </trkpt>
      <trkpt lat="42.75916" lon="1.53046">
        <ele>1586</ele>
        <time>2026-06-28T06:30:46.000Z</time>
      </trkpt>
      <trkpt lat="42.75918" lon="1.53048">
        <ele>1586</ele>
        <time>2026-06-28T06:30:47.000Z</time>
      </trkpt>
      <trkpt lat="42.75919" lon="1.53051">
        <ele>1586</ele>
        <time>2026-06-28T06:30:48.000Z</time>
      </trkpt>
      <trkpt lat="42.75921" lon="1.53053">
        <ele>1586</ele>
        <time>2026-06-28T06:30:49.000Z</time>
      </trkpt>
      <trkpt lat="42.75923" lon="1.53056">
        <ele>1587</ele>
        <time>2026-06-28T06:30:50.000Z</time>
      </trkpt>
      <trkpt lat="42.75925" lon="1.53057">
        <ele>1587</ele>
        <time>2026-06-28T06:30:51.000Z</time>
      </trkpt>
      <trkpt lat="42.75926" lon="1.53059">
        <ele>1587</ele>
        <time>2026-06-28T06:30:52.000Z</time>
      </trkpt>
      <trkpt lat="42.75928" lon="1.53061">
        <ele>1587</ele>
        <time>2026-06-28T06:30:53.000Z</time>
      </trkpt>
      <trkpt lat="42.75929" lon="1.53063">
        <ele>1587</ele>
        <time>2026-06-28T06:30:54.000Z</time>
      </trkpt>
      <trkpt lat="42.75931" lon="1.53065">
        <ele>1587</ele>
        <time>2026-06-28T06:30:55.000Z</time>
      </trkpt>
      <trkpt lat="42.75932" lon="1.53066">
        <ele>1587</ele>
        <time>2026-06-28T06:30:56.000Z</time>
      </trkpt>
      <trkpt lat="42.75934" lon="1.53068">
        <ele>1587</ele>
        <time>2026-06-28T06:30:57.000Z</time>
      </trkpt>
      <trkpt lat="42.75935" lon="1.53068">
        <ele>1588</ele>
        <time>2026-06-28T06:30:58.000Z</time>
      </trkpt>
      <trkpt lat="42.75936" lon="1.53069">
        <ele>1589</ele>
        <time>2026-06-28T06:30:59.000Z</time>
      </trkpt>
      <trkpt lat="42.75938" lon="1.53069">
        <ele>1589</ele>
        <time>2026-06-28T06:31:00.000Z</time>
      </trkpt>
      <trkpt lat="42.75939" lon="1.5307">
        <ele>1589</ele>
        <time>2026-06-28T06:31:01.000Z</time>
      </trkpt>
      <trkpt lat="42.75941" lon="1.53071">
        <ele>1590</ele>
        <time>2026-06-28T06:31:02.000Z</time>
      </trkpt>
      <trkpt lat="42.75941" lon="1.53072">
        <ele>1590</ele>
        <time>2026-06-28T06:31:03.000Z</time>
      </trkpt>
      <trkpt lat="42.75943" lon="1.53073">
        <ele>1591</ele>
        <time>2026-06-28T06:31:04.000Z</time>
      </trkpt>
      <trkpt lat="42.75945" lon="1.53075">
        <ele>1591</ele>
        <time>2026-06-28T06:31:05.000Z</time>
      </trkpt>
      <trkpt lat="42.75947" lon="1.53076">
        <ele>1591</ele>
        <time>2026-06-28T06:31:06.000Z</time>
      </trkpt>
      <trkpt lat="42.75949" lon="1.53077">
        <ele>1591</ele>
        <time>2026-06-28T06:31:07.000Z</time>
      </trkpt>
      <trkpt lat="42.75951" lon="1.53079">
        <ele>1592</ele>
        <time>2026-06-28T06:31:08.000Z</time>
      </trkpt>
      <trkpt lat="42.75953" lon="1.53081">
        <ele>1592</ele>
        <time>2026-06-28T06:31:09.000Z</time>
      </trkpt>
      <trkpt lat="42.75955" lon="1.53083">
        <ele>1592</ele>
        <time>2026-06-28T06:31:10.000Z</time>
      </trkpt>
      <trkpt lat="42.75957" lon="1.53085">
        <ele>1592</ele>
        <time>2026-06-28T06:31:11.000Z</time>
      </trkpt>
      <trkpt lat="42.7596" lon="1.53086">
        <ele>1592</ele>
        <time>2026-06-28T06:31:12.000Z</time>
      </trkpt>
      <trkpt lat="42.75962" lon="1.53088">
        <ele>1591</ele>
        <time>2026-06-28T06:31:13.000Z</time>
      </trkpt>
      <trkpt lat="42.75963" lon="1.53091">
        <ele>1592</ele>
        <time>2026-06-28T06:31:14.000Z</time>
      </trkpt>
      <trkpt lat="42.75965" lon="1.53092">
        <ele>1592</ele>
        <time>2026-06-28T06:31:15.000Z</time>
      </trkpt>
      <trkpt lat="42.75966" lon="1.53094">
        <ele>1592</ele>
        <time>2026-06-28T06:31:16.000Z</time>
      </trkpt>
      <trkpt lat="42.75967" lon="1.53096">
        <ele>1593</ele>
        <time>2026-06-28T06:31:17.000Z</time>
      </trkpt>
      <trkpt lat="42.75968" lon="1.53097">
        <ele>1592</ele>
        <time>2026-06-28T06:31:18.000Z</time>
      </trkpt>
      <trkpt lat="42.75969" lon="1.53099">
        <ele>1592</ele>
        <time>2026-06-28T06:31:19.000Z</time>
      </trkpt>
      <trkpt lat="42.75971" lon="1.531">
        <ele>1593</ele>
        <time>2026-06-28T06:31:20.000Z</time>
      </trkpt>
      <trkpt lat="42.75973" lon="1.53103">
        <ele>1594</ele>
        <time>2026-06-28T06:31:21.000Z</time>
      </trkpt>
      <trkpt lat="42.75975" lon="1.53105">
        <ele>1595</ele>
        <time>2026-06-28T06:31:22.000Z</time>
      </trkpt>
      <trkpt lat="42.75978" lon="1.53108">
        <ele>1596</ele>
        <time>2026-06-28T06:31:23.000Z</time>
      </trkpt>
      <trkpt lat="42.7598" lon="1.5311">
        <ele>1596</ele>
        <time>2026-06-28T06:31:24.000Z</time>
      </trkpt>
      <trkpt lat="42.75982" lon="1.53112">
        <ele>1596</ele>
        <time>2026-06-28T06:31:25.000Z</time>
      </trkpt>
      <trkpt lat="42.75985" lon="1.53115">
        <ele>1596</ele>
        <time>2026-06-28T06:31:26.000Z</time>
      </trkpt>
      <trkpt lat="42.75987" lon="1.53118">
        <ele>1596</ele>
        <time>2026-06-28T06:31:27.000Z</time>
      </trkpt>
      <trkpt lat="42.75989" lon="1.5312">
        <ele>1597</ele>
        <time>2026-06-28T06:31:28.000Z</time>
      </trkpt>
      <trkpt lat="42.7599" lon="1.53123">
        <ele>1597</ele>
        <time>2026-06-28T06:31:29.000Z</time>
      </trkpt>
      <trkpt lat="42.75993" lon="1.53124">
        <ele>1597</ele>
        <time>2026-06-28T06:31:30.000Z</time>
      </trkpt>
      <trkpt lat="42.75994" lon="1.53127">
        <ele>1597</ele>
        <time>2026-06-28T06:31:31.000Z</time>
      </trkpt>
      <trkpt lat="42.75996" lon="1.53129">
        <ele>1596</ele>
        <time>2026-06-28T06:31:32.000Z</time>
      </trkpt>
      <trkpt lat="42.75998" lon="1.53131">
        <ele>1595</ele>
        <time>2026-06-28T06:31:33.000Z</time>
      </trkpt>
      <trkpt lat="42.75999" lon="1.53133">
        <ele>1595</ele>
        <time>2026-06-28T06:31:34.000Z</time>
      </trkpt>
      <trkpt lat="42.76001" lon="1.53134">
        <ele>1596</ele>
        <time>2026-06-28T06:31:35.000Z</time>
      </trkpt>
      <trkpt lat="42.76003" lon="1.53136">
        <ele>1596</ele>
        <time>2026-06-28T06:31:36.000Z</time>
      </trkpt>
      <trkpt lat="42.76005" lon="1.53138">
        <ele>1596</ele>
        <time>2026-06-28T06:31:37.000Z</time>
      </trkpt>
      <trkpt lat="42.76007" lon="1.53141">
        <ele>1596</ele>
        <time>2026-06-28T06:31:38.000Z</time>
      </trkpt>
      <trkpt lat="42.7601" lon="1.53144">
        <ele>1597</ele>
        <time>2026-06-28T06:31:39.000Z</time>
      </trkpt>
      <trkpt lat="42.76012" lon="1.53147">
        <ele>1596</ele>
        <time>2026-06-28T06:31:40.000Z</time>
      </trkpt>
      <trkpt lat="42.76014" lon="1.5315">
        <ele>1596</ele>
        <time>2026-06-28T06:31:41.000Z</time>
      </trkpt>
      <trkpt lat="42.76016" lon="1.53153">
        <ele>1597</ele>
        <time>2026-06-28T06:31:42.000Z</time>
      </trkpt>
      <trkpt lat="42.76018" lon="1.53156">
        <ele>1597</ele>
        <time>2026-06-28T06:31:43.000Z</time>
      </trkpt>
      <trkpt lat="42.7602" lon="1.53158">
        <ele>1596</ele>
        <time>2026-06-28T06:31:44.000Z</time>
      </trkpt>
      <trkpt lat="42.76021" lon="1.53161">
        <ele>1596</ele>
        <time>2026-06-28T06:31:45.000Z</time>
      </trkpt>
      <trkpt lat="42.76023" lon="1.53163">
        <ele>1597</ele>
        <time>2026-06-28T06:31:46.000Z</time>
      </trkpt>
      <trkpt lat="42.76025" lon="1.53165">
        <ele>1597</ele>
        <time>2026-06-28T06:31:47.000Z</time>
      </trkpt>
      <trkpt lat="42.76027" lon="1.53168">
        <ele>1597</ele>
        <time>2026-06-28T06:31:48.000Z</time>
      </trkpt>
      <trkpt lat="42.76029" lon="1.53171">
        <ele>1597</ele>
        <time>2026-06-28T06:31:49.000Z</time>
      </trkpt>
      <trkpt lat="42.76031" lon="1.53174">
        <ele>1597</ele>
        <time>2026-06-28T06:31:50.000Z</time>
      </trkpt>
      <trkpt lat="42.76033" lon="1.53175">
        <ele>1598</ele>
        <time>2026-06-28T06:31:51.000Z</time>
      </trkpt>
      <trkpt lat="42.76034" lon="1.53178">
        <ele>1598</ele>
        <time>2026-06-28T06:31:52.000Z</time>
      </trkpt>
      <trkpt lat="42.76036" lon="1.53179">
        <ele>1598</ele>
        <time>2026-06-28T06:31:53.000Z</time>
      </trkpt>
      <trkpt lat="42.76038" lon="1.53181">
        <ele>1598</ele>
        <time>2026-06-28T06:31:54.000Z</time>
      </trkpt>
      <trkpt lat="42.7604" lon="1.53183">
        <ele>1598</ele>
        <time>2026-06-28T06:31:55.000Z</time>
      </trkpt>
      <trkpt lat="42.76042" lon="1.53185">
        <ele>1599</ele>
        <time>2026-06-28T06:31:56.000Z</time>
      </trkpt>
      <trkpt lat="42.76044" lon="1.53187">
        <ele>1599</ele>
        <time>2026-06-28T06:31:57.000Z</time>
      </trkpt>
      <trkpt lat="42.76046" lon="1.53189">
        <ele>1599</ele>
        <time>2026-06-28T06:31:58.000Z</time>
      </trkpt>
      <trkpt lat="42.76048" lon="1.53192">
        <ele>1599</ele>
        <time>2026-06-28T06:31:59.000Z</time>
      </trkpt>
      <trkpt lat="42.7605" lon="1.53194">
        <ele>1600</ele>
        <time>2026-06-28T06:32:00.000Z</time>
      </trkpt>
      <trkpt lat="42.76052" lon="1.53197">
        <ele>1599</ele>
        <time>2026-06-28T06:32:01.000Z</time>
      </trkpt>
      <trkpt lat="42.76054" lon="1.53199">
        <ele>1600</ele>
        <time>2026-06-28T06:32:02.000Z</time>
      </trkpt>
      <trkpt lat="42.76056" lon="1.53202">
        <ele>1601</ele>
        <time>2026-06-28T06:32:03.000Z</time>
      </trkpt>
      <trkpt lat="42.76058" lon="1.53205">
        <ele>1600</ele>
        <time>2026-06-28T06:32:04.000Z</time>
      </trkpt>
      <trkpt lat="42.7606" lon="1.53206">
        <ele>1600</ele>
        <time>2026-06-28T06:32:05.000Z</time>
      </trkpt>
      <trkpt lat="42.76062" lon="1.53208">
        <ele>1600</ele>
        <time>2026-06-28T06:32:06.000Z</time>
      </trkpt>
      <trkpt lat="42.76064" lon="1.5321">
        <ele>1600</ele>
        <time>2026-06-28T06:32:07.000Z</time>
      </trkpt>
      <trkpt lat="42.76065" lon="1.53212">
        <ele>1600</ele>
        <time>2026-06-28T06:32:08.000Z</time>
      </trkpt>
      <trkpt lat="42.76066" lon="1.53214">
        <ele>1601</ele>
        <time>2026-06-28T06:32:09.000Z</time>
      </trkpt>
      <trkpt lat="42.76067" lon="1.53215">
        <ele>1601</ele>
        <time>2026-06-28T06:32:10.000Z</time>
      </trkpt>
      <trkpt lat="42.76069" lon="1.53217">
        <ele>1600</ele>
        <time>2026-06-28T06:32:11.000Z</time>
      </trkpt>
      <trkpt lat="42.76072" lon="1.53219">
        <ele>1601</ele>
        <time>2026-06-28T06:32:12.000Z</time>
      </trkpt>
      <trkpt lat="42.76074" lon="1.53221">
        <ele>1601</ele>
        <time>2026-06-28T06:32:13.000Z</time>
      </trkpt>
      <trkpt lat="42.76077" lon="1.53223">
        <ele>1601</ele>
        <time>2026-06-28T06:32:14.000Z</time>
      </trkpt>
      <trkpt lat="42.76079" lon="1.53225">
        <ele>1602</ele>
        <time>2026-06-28T06:32:15.000Z</time>
      </trkpt>
      <trkpt lat="42.76081" lon="1.53227">
        <ele>1602</ele>
        <time>2026-06-28T06:32:16.000Z</time>
      </trkpt>
      <trkpt lat="42.76084" lon="1.53231">
        <ele>1603</ele>
        <time>2026-06-28T06:32:17.000Z</time>
      </trkpt>
      <trkpt lat="42.76086" lon="1.53233">
        <ele>1603</ele>
        <time>2026-06-28T06:32:18.000Z</time>
      </trkpt>
      <trkpt lat="42.76088" lon="1.53235">
        <ele>1605</ele>
        <time>2026-06-28T06:32:19.000Z</time>
      </trkpt>
      <trkpt lat="42.76091" lon="1.53238">
        <ele>1606</ele>
        <time>2026-06-28T06:32:20.000Z</time>
      </trkpt>
      <trkpt lat="42.76093" lon="1.5324">
        <ele>1606</ele>
        <time>2026-06-28T06:32:21.000Z</time>
      </trkpt>
      <trkpt lat="42.76095" lon="1.53242">
        <ele>1606</ele>
        <time>2026-06-28T06:32:22.000Z</time>
      </trkpt>
      <trkpt lat="42.76097" lon="1.53245">
        <ele>1606</ele>
        <time>2026-06-28T06:32:23.000Z</time>
      </trkpt>
      <trkpt lat="42.76099" lon="1.53247">
        <ele>1607</ele>
        <time>2026-06-28T06:32:24.000Z</time>
      </trkpt>
      <trkpt lat="42.76101" lon="1.5325">
        <ele>1607</ele>
        <time>2026-06-28T06:32:25.000Z</time>
      </trkpt>
      <trkpt lat="42.76102" lon="1.53252">
        <ele>1607</ele>
        <time>2026-06-28T06:32:26.000Z</time>
      </trkpt>
      <trkpt lat="42.76104" lon="1.53254">
        <ele>1607</ele>
        <time>2026-06-28T06:32:27.000Z</time>
      </trkpt>
      <trkpt lat="42.76106" lon="1.53256">
        <ele>1608</ele>
        <time>2026-06-28T06:32:28.000Z</time>
      </trkpt>
      <trkpt lat="42.76108" lon="1.53259">
        <ele>1608</ele>
        <time>2026-06-28T06:32:29.000Z</time>
      </trkpt>
      <trkpt lat="42.76111" lon="1.53262">
        <ele>1608</ele>
        <time>2026-06-28T06:32:30.000Z</time>
      </trkpt>
      <trkpt lat="42.76113" lon="1.53265">
        <ele>1608</ele>
        <time>2026-06-28T06:32:31.000Z</time>
      </trkpt>
      <trkpt lat="42.76116" lon="1.53268">
        <ele>1608</ele>
        <time>2026-06-28T06:32:32.000Z</time>
      </trkpt>
      <trkpt lat="42.76118" lon="1.5327">
        <ele>1608</ele>
        <time>2026-06-28T06:32:33.000Z</time>
      </trkpt>
      <trkpt lat="42.76121" lon="1.53273">
        <ele>1608</ele>
        <time>2026-06-28T06:32:34.000Z</time>
      </trkpt>
      <trkpt lat="42.76125" lon="1.53275">
        <ele>1607</ele>
        <time>2026-06-28T06:32:35.000Z</time>
      </trkpt>
      <trkpt lat="42.76127" lon="1.53279">
        <ele>1607</ele>
        <time>2026-06-28T06:32:36.000Z</time>
      </trkpt>
      <trkpt lat="42.7613" lon="1.53281">
        <ele>1607</ele>
        <time>2026-06-28T06:32:37.000Z</time>
      </trkpt>
      <trkpt lat="42.76134" lon="1.53284">
        <ele>1608</ele>
        <time>2026-06-28T06:32:38.000Z</time>
      </trkpt>
      <trkpt lat="42.76138" lon="1.53288">
        <ele>1607</ele>
        <time>2026-06-28T06:32:39.000Z</time>
      </trkpt>
      <trkpt lat="42.76142" lon="1.53292">
        <ele>1607</ele>
        <time>2026-06-28T06:32:40.000Z</time>
      </trkpt>
      <trkpt lat="42.76146" lon="1.53294">
        <ele>1608</ele>
        <time>2026-06-28T06:32:41.000Z</time>
      </trkpt>
      <trkpt lat="42.76151" lon="1.53295">
        <ele>1607</ele>
        <time>2026-06-28T06:32:42.000Z</time>
      </trkpt>
      <trkpt lat="42.76155" lon="1.53298">
        <ele>1607</ele>
        <time>2026-06-28T06:32:43.000Z</time>
      </trkpt>
      <trkpt lat="42.7616" lon="1.53299">
        <ele>1607</ele>
        <time>2026-06-28T06:32:44.000Z</time>
      </trkpt>
      <trkpt lat="42.76166" lon="1.53301">
        <ele>1606</ele>
        <time>2026-06-28T06:32:45.000Z</time>
      </trkpt>
      <trkpt lat="42.7617" lon="1.53304">
        <ele>1606</ele>
        <time>2026-06-28T06:32:46.000Z</time>
      </trkpt>
      <trkpt lat="42.76175" lon="1.53308">
        <ele>1605</ele>
        <time>2026-06-28T06:32:47.000Z</time>
      </trkpt>
      <trkpt lat="42.76179" lon="1.53311">
        <ele>1605</ele>
        <time>2026-06-28T06:32:48.000Z</time>
      </trkpt>
      <trkpt lat="42.76182" lon="1.53315">
        <ele>1605</ele>
        <time>2026-06-28T06:32:49.000Z</time>
      </trkpt>
      <trkpt lat="42.76184" lon="1.53317">
        <ele>1605</ele>
        <time>2026-06-28T06:32:50.000Z</time>
      </trkpt>
      <trkpt lat="42.76187" lon="1.5332">
        <ele>1605</ele>
        <time>2026-06-28T06:32:51.000Z</time>
      </trkpt>
      <trkpt lat="42.76189" lon="1.53323">
        <ele>1605</ele>
        <time>2026-06-28T06:32:52.000Z</time>
      </trkpt>
      <trkpt lat="42.76192" lon="1.53325">
        <ele>1604</ele>
        <time>2026-06-28T06:32:53.000Z</time>
      </trkpt>
      <trkpt lat="42.76196" lon="1.53327">
        <ele>1604</ele>
        <time>2026-06-28T06:32:54.000Z</time>
      </trkpt>
      <trkpt lat="42.76198" lon="1.53325">
        <ele>1605</ele>
        <time>2026-06-28T06:32:55.000Z</time>
      </trkpt>
      <trkpt lat="42.76201" lon="1.53323">
        <ele>1606</ele>
        <time>2026-06-28T06:32:56.000Z</time>
      </trkpt>
      <trkpt lat="42.76204" lon="1.5332">
        <ele>1606</ele>
        <time>2026-06-28T06:32:57.000Z</time>
      </trkpt>
      <trkpt lat="42.76206" lon="1.53319">
        <ele>1606</ele>
        <time>2026-06-28T06:32:58.000Z</time>
      </trkpt>
      <trkpt lat="42.76208" lon="1.53317">
        <ele>1606</ele>
        <time>2026-06-28T06:32:59.000Z</time>
      </trkpt>
      <trkpt lat="42.7621" lon="1.53314">
        <ele>1607</ele>
        <time>2026-06-28T06:33:00.000Z</time>
      </trkpt>
      <trkpt lat="42.76213" lon="1.53311">
        <ele>1607</ele>
        <time>2026-06-28T06:33:01.000Z</time>
      </trkpt>
      <trkpt lat="42.76216" lon="1.53309">
        <ele>1608</ele>
        <time>2026-06-28T06:33:02.000Z</time>
      </trkpt>
      <trkpt lat="42.76219" lon="1.53306">
        <ele>1608</ele>
        <time>2026-06-28T06:33:03.000Z</time>
      </trkpt>
      <trkpt lat="42.76222" lon="1.53303">
        <ele>1607</ele>
        <time>2026-06-28T06:33:04.000Z</time>
      </trkpt>
      <trkpt lat="42.76224" lon="1.53302">
        <ele>1607</ele>
        <time>2026-06-28T06:33:05.000Z</time>
      </trkpt>
      <trkpt lat="42.76227" lon="1.53301">
        <ele>1607</ele>
        <time>2026-06-28T06:33:06.000Z</time>
      </trkpt>
      <trkpt lat="42.7623" lon="1.53301">
        <ele>1607</ele>
        <time>2026-06-28T06:33:07.000Z</time>
      </trkpt>
      <trkpt lat="42.76233" lon="1.53301">
        <ele>1608</ele>
        <time>2026-06-28T06:33:08.000Z</time>
      </trkpt>
      <trkpt lat="42.76237" lon="1.53299">
        <ele>1608</ele>
        <time>2026-06-28T06:33:09.000Z</time>
      </trkpt>
      <trkpt lat="42.76241" lon="1.53298">
        <ele>1608</ele>
        <time>2026-06-28T06:33:10.000Z</time>
      </trkpt>
      <trkpt lat="42.76244" lon="1.53297">
        <ele>1608</ele>
        <time>2026-06-28T06:33:11.000Z</time>
      </trkpt>
      <trkpt lat="42.76249" lon="1.53295">
        <ele>1609</ele>
        <time>2026-06-28T06:33:12.000Z</time>
      </trkpt>
      <trkpt lat="42.76254" lon="1.53295">
        <ele>1609</ele>
        <time>2026-06-28T06:33:13.000Z</time>
      </trkpt>
      <trkpt lat="42.76258" lon="1.53294">
        <ele>1610</ele>
        <time>2026-06-28T06:33:14.000Z</time>
      </trkpt>
      <trkpt lat="42.76262" lon="1.53293">
        <ele>1610</ele>
        <time>2026-06-28T06:33:15.000Z</time>
      </trkpt>
      <trkpt lat="42.76265" lon="1.53292">
        <ele>1610</ele>
        <time>2026-06-28T06:33:16.000Z</time>
      </trkpt>
      <trkpt lat="42.76269" lon="1.53291">
        <ele>1610</ele>
        <time>2026-06-28T06:33:17.000Z</time>
      </trkpt>
      <trkpt lat="42.76273" lon="1.53291">
        <ele>1610</ele>
        <time>2026-06-28T06:33:18.000Z</time>
      </trkpt>
      <trkpt lat="42.76277" lon="1.53292">
        <ele>1609</ele>
        <time>2026-06-28T06:33:19.000Z</time>
      </trkpt>
      <trkpt lat="42.76281" lon="1.53293">
        <ele>1608</ele>
        <time>2026-06-28T06:33:20.000Z</time>
      </trkpt>
      <trkpt lat="42.76286" lon="1.53296">
        <ele>1609</ele>
        <time>2026-06-28T06:33:21.000Z</time>
      </trkpt>
      <trkpt lat="42.76291" lon="1.53299">
        <ele>1608</ele>
        <time>2026-06-28T06:33:22.000Z</time>
      </trkpt>
      <trkpt lat="42.76296" lon="1.53303">
        <ele>1609</ele>
        <time>2026-06-28T06:33:23.000Z</time>
      </trkpt>
      <trkpt lat="42.76301" lon="1.53309">
        <ele>1609</ele>
        <time>2026-06-28T06:33:24.000Z</time>
      </trkpt>
      <trkpt lat="42.76305" lon="1.53315">
        <ele>1608</ele>
        <time>2026-06-28T06:33:25.000Z</time>
      </trkpt>
      <trkpt lat="42.76311" lon="1.53322">
        <ele>1609</ele>
        <time>2026-06-28T06:33:26.000Z</time>
      </trkpt>
      <trkpt lat="42.76317" lon="1.53327">
        <ele>1608</ele>
        <time>2026-06-28T06:33:27.000Z</time>
      </trkpt>
      <trkpt lat="42.76323" lon="1.53333">
        <ele>1607</ele>
        <time>2026-06-28T06:33:28.000Z</time>
      </trkpt>
      <trkpt lat="42.76328" lon="1.53338">
        <ele>1606</ele>
        <time>2026-06-28T06:33:29.000Z</time>
      </trkpt>
      <trkpt lat="42.76333" lon="1.53342">
        <ele>1605</ele>
        <time>2026-06-28T06:33:30.000Z</time>
      </trkpt>
      <trkpt lat="42.76339" lon="1.53345">
        <ele>1603</ele>
        <time>2026-06-28T06:33:31.000Z</time>
      </trkpt>
      <trkpt lat="42.76346" lon="1.53348">
        <ele>1602</ele>
        <time>2026-06-28T06:33:32.000Z</time>
      </trkpt>
      <trkpt lat="42.76352" lon="1.53351">
        <ele>1602</ele>
        <time>2026-06-28T06:33:33.000Z</time>
      </trkpt>
      <trkpt lat="42.76356" lon="1.53354">
        <ele>1601</ele>
        <time>2026-06-28T06:33:34.000Z</time>
      </trkpt>
      <trkpt lat="42.76361" lon="1.53358">
        <ele>1600</ele>
        <time>2026-06-28T06:33:35.000Z</time>
      </trkpt>
      <trkpt lat="42.76365" lon="1.53364">
        <ele>1600</ele>
        <time>2026-06-28T06:33:36.000Z</time>
      </trkpt>
      <trkpt lat="42.76369" lon="1.5337">
        <ele>1598</ele>
        <time>2026-06-28T06:33:37.000Z</time>
      </trkpt>
      <trkpt lat="42.76373" lon="1.53377">
        <ele>1597</ele>
        <time>2026-06-28T06:33:38.000Z</time>
      </trkpt>
      <trkpt lat="42.76376" lon="1.53383">
        <ele>1597</ele>
        <time>2026-06-28T06:33:39.000Z</time>
      </trkpt>
      <trkpt lat="42.76379" lon="1.53389">
        <ele>1597</ele>
        <time>2026-06-28T06:33:40.000Z</time>
      </trkpt>
      <trkpt lat="42.76382" lon="1.53395">
        <ele>1596</ele>
        <time>2026-06-28T06:33:41.000Z</time>
      </trkpt>
      <trkpt lat="42.76384" lon="1.53402">
        <ele>1595</ele>
        <time>2026-06-28T06:33:42.000Z</time>
      </trkpt>
      <trkpt lat="42.76388" lon="1.5341">
        <ele>1594</ele>
        <time>2026-06-28T06:33:43.000Z</time>
      </trkpt>
      <trkpt lat="42.76393" lon="1.53418">
        <ele>1594</ele>
        <time>2026-06-28T06:33:44.000Z</time>
      </trkpt>
      <trkpt lat="42.76397" lon="1.53423">
        <ele>1594</ele>
        <time>2026-06-28T06:33:45.000Z</time>
      </trkpt>
      <trkpt lat="42.76401" lon="1.53427">
        <ele>1594</ele>
        <time>2026-06-28T06:33:46.000Z</time>
      </trkpt>
      <trkpt lat="42.76405" lon="1.53432">
        <ele>1594</ele>
        <time>2026-06-28T06:33:47.000Z</time>
      </trkpt>
      <trkpt lat="42.76408" lon="1.53439">
        <ele>1593</ele>
        <time>2026-06-28T06:33:48.000Z</time>
      </trkpt>
      <trkpt lat="42.76411" lon="1.53446">
        <ele>1593</ele>
        <time>2026-06-28T06:33:49.000Z</time>
      </trkpt>
      <trkpt lat="42.76413" lon="1.53453">
        <ele>1592</ele>
        <time>2026-06-28T06:33:50.000Z</time>
      </trkpt>
      <trkpt lat="42.76415" lon="1.5346">
        <ele>1591</ele>
        <time>2026-06-28T06:33:51.000Z</time>
      </trkpt>
      <trkpt lat="42.76417" lon="1.53466">
        <ele>1589</ele>
        <time>2026-06-28T06:33:52.000Z</time>
      </trkpt>
      <trkpt lat="42.7642" lon="1.53474">
        <ele>1588</ele>
        <time>2026-06-28T06:33:53.000Z</time>
      </trkpt>
      <trkpt lat="42.76422" lon="1.53481">
        <ele>1588</ele>
        <time>2026-06-28T06:33:54.000Z</time>
      </trkpt>
      <trkpt lat="42.76425" lon="1.53489">
        <ele>1587</ele>
        <time>2026-06-28T06:33:55.000Z</time>
      </trkpt>
      <trkpt lat="42.76429" lon="1.53496">
        <ele>1586</ele>
        <time>2026-06-28T06:33:56.000Z</time>
      </trkpt>
      <trkpt lat="42.76433" lon="1.53502">
        <ele>1585</ele>
        <time>2026-06-28T06:33:57.000Z</time>
      </trkpt>
      <trkpt lat="42.76435" lon="1.53508">
        <ele>1584</ele>
        <time>2026-06-28T06:33:58.000Z</time>
      </trkpt>
      <trkpt lat="42.76438" lon="1.53514">
        <ele>1584</ele>
        <time>2026-06-28T06:33:59.000Z</time>
      </trkpt>
      <trkpt lat="42.7644" lon="1.53518">
        <ele>1583</ele>
        <time>2026-06-28T06:34:00.000Z</time>
      </trkpt>
      <trkpt lat="42.76443" lon="1.53522">
        <ele>1582</ele>
        <time>2026-06-28T06:34:01.000Z</time>
      </trkpt>
      <trkpt lat="42.76445" lon="1.53525">
        <ele>1581</ele>
        <time>2026-06-28T06:34:02.000Z</time>
      </trkpt>
      <trkpt lat="42.76447" lon="1.53528">
        <ele>1581</ele>
        <time>2026-06-28T06:34:03.000Z</time>
      </trkpt>
      <trkpt lat="42.76449" lon="1.53532">
        <ele>1580</ele>
        <time>2026-06-28T06:34:04.000Z</time>
      </trkpt>
      <trkpt lat="42.76452" lon="1.53536">
        <ele>1579</ele>
        <time>2026-06-28T06:34:05.000Z</time>
      </trkpt>
      <trkpt lat="42.76454" lon="1.53539">
        <ele>1578</ele>
        <time>2026-06-28T06:34:06.000Z</time>
      </trkpt>
      <trkpt lat="42.76457" lon="1.53542">
        <ele>1578</ele>
        <time>2026-06-28T06:34:07.000Z</time>
      </trkpt>
      <trkpt lat="42.76459" lon="1.53546">
        <ele>1577</ele>
        <time>2026-06-28T06:34:08.000Z</time>
      </trkpt>
      <trkpt lat="42.76462" lon="1.5355">
        <ele>1576</ele>
        <time>2026-06-28T06:34:09.000Z</time>
      </trkpt>
      <trkpt lat="42.76465" lon="1.53553">
        <ele>1575</ele>
        <time>2026-06-28T06:34:10.000Z</time>
      </trkpt>
      <trkpt lat="42.76467" lon="1.53557">
        <ele>1574</ele>
        <time>2026-06-28T06:34:11.000Z</time>
      </trkpt>
      <trkpt lat="42.76469" lon="1.5356">
        <ele>1572</ele>
        <time>2026-06-28T06:34:12.000Z</time>
      </trkpt>
      <trkpt lat="42.76472" lon="1.53564">
        <ele>1572</ele>
        <time>2026-06-28T06:34:13.000Z</time>
      </trkpt>
      <trkpt lat="42.76474" lon="1.53567">
        <ele>1571</ele>
        <time>2026-06-28T06:34:14.000Z</time>
      </trkpt>
      <trkpt lat="42.76477" lon="1.53569">
        <ele>1571</ele>
        <time>2026-06-28T06:34:15.000Z</time>
      </trkpt>
      <trkpt lat="42.76478" lon="1.53573">
        <ele>1570</ele>
        <time>2026-06-28T06:34:16.000Z</time>
      </trkpt>
      <trkpt lat="42.76479" lon="1.53577">
        <ele>1569</ele>
        <time>2026-06-28T06:34:17.000Z</time>
      </trkpt>
      <trkpt lat="42.76481" lon="1.53582">
        <ele>1568</ele>
        <time>2026-06-28T06:34:18.000Z</time>
      </trkpt>
      <trkpt lat="42.76484" lon="1.53586">
        <ele>1567</ele>
        <time>2026-06-28T06:34:19.000Z</time>
      </trkpt>
      <trkpt lat="42.76487" lon="1.53589">
        <ele>1563</ele>
        <time>2026-06-28T06:34:20.000Z</time>
      </trkpt>
      <trkpt lat="42.7649" lon="1.53593">
        <ele>1562</ele>
        <time>2026-06-28T06:34:21.000Z</time>
      </trkpt>
      <trkpt lat="42.76493" lon="1.53597">
        <ele>1562</ele>
        <time>2026-06-28T06:34:22.000Z</time>
      </trkpt>
      <trkpt lat="42.76495" lon="1.53601">
        <ele>1561</ele>
        <time>2026-06-28T06:34:23.000Z</time>
      </trkpt>
      <trkpt lat="42.76497" lon="1.53605">
        <ele>1560</ele>
        <time>2026-06-28T06:34:24.000Z</time>
      </trkpt>
      <trkpt lat="42.765" lon="1.53609">
        <ele>1558</ele>
        <time>2026-06-28T06:34:25.000Z</time>
      </trkpt>
      <trkpt lat="42.76503" lon="1.53612">
        <ele>1555</ele>
        <time>2026-06-28T06:34:26.000Z</time>
      </trkpt>
      <trkpt lat="42.76505" lon="1.53616">
        <ele>1554</ele>
        <time>2026-06-28T06:34:27.000Z</time>
      </trkpt>
      <trkpt lat="42.76508" lon="1.5362">
        <ele>1553</ele>
        <time>2026-06-28T06:34:28.000Z</time>
      </trkpt>
      <trkpt lat="42.7651" lon="1.53623">
        <ele>1552</ele>
        <time>2026-06-28T06:34:29.000Z</time>
      </trkpt>
      <trkpt lat="42.76512" lon="1.53626">
        <ele>1550</ele>
        <time>2026-06-28T06:34:30.000Z</time>
      </trkpt>
      <trkpt lat="42.76515" lon="1.53629">
        <ele>1547</ele>
        <time>2026-06-28T06:34:31.000Z</time>
      </trkpt>
      <trkpt lat="42.76517" lon="1.53633">
        <ele>1546</ele>
        <time>2026-06-28T06:34:32.000Z</time>
      </trkpt>
      <trkpt lat="42.76519" lon="1.53637">
        <ele>1545</ele>
        <time>2026-06-28T06:34:33.000Z</time>
      </trkpt>
      <trkpt lat="42.76522" lon="1.53641">
        <ele>1544</ele>
        <time>2026-06-28T06:34:34.000Z</time>
      </trkpt>
      <trkpt lat="42.76525" lon="1.53644">
        <ele>1542</ele>
        <time>2026-06-28T06:34:35.000Z</time>
      </trkpt>
      <trkpt lat="42.76528" lon="1.53648">
        <ele>1541</ele>
        <time>2026-06-28T06:34:36.000Z</time>
      </trkpt>
      <trkpt lat="42.76531" lon="1.53651">
        <ele>1539</ele>
        <time>2026-06-28T06:34:37.000Z</time>
      </trkpt>
      <trkpt lat="42.76534" lon="1.53654">
        <ele>1539</ele>
        <time>2026-06-28T06:34:38.000Z</time>
      </trkpt>
      <trkpt lat="42.76536" lon="1.53658">
        <ele>1538</ele>
        <time>2026-06-28T06:34:39.000Z</time>
      </trkpt>
      <trkpt lat="42.76538" lon="1.53661">
        <ele>1536</ele>
        <time>2026-06-28T06:34:40.000Z</time>
      </trkpt>
      <trkpt lat="42.76541" lon="1.53665">
        <ele>1536</ele>
        <time>2026-06-28T06:34:41.000Z</time>
      </trkpt>
      <trkpt lat="42.76543" lon="1.53667">
        <ele>1536</ele>
        <time>2026-06-28T06:34:42.000Z</time>
      </trkpt>
      <trkpt lat="42.76546" lon="1.5367">
        <ele>1535</ele>
        <time>2026-06-28T06:34:43.000Z</time>
      </trkpt>
      <trkpt lat="42.76548" lon="1.53673">
        <ele>1535</ele>
        <time>2026-06-28T06:34:44.000Z</time>
      </trkpt>
      <trkpt lat="42.7655" lon="1.53675">
        <ele>1534</ele>
        <time>2026-06-28T06:34:45.000Z</time>
      </trkpt>
      <trkpt lat="42.76551" lon="1.53678">
        <ele>1534</ele>
        <time>2026-06-28T06:34:46.000Z</time>
      </trkpt>
      <trkpt lat="42.76553" lon="1.5368">
        <ele>1533</ele>
        <time>2026-06-28T06:34:47.000Z</time>
      </trkpt>
      <trkpt lat="42.76555" lon="1.53683">
        <ele>1533</ele>
        <time>2026-06-28T06:34:48.000Z</time>
      </trkpt>
      <trkpt lat="42.76557" lon="1.53686">
        <ele>1533</ele>
        <time>2026-06-28T06:34:49.000Z</time>
      </trkpt>
      <trkpt lat="42.76559" lon="1.53688">
        <ele>1532</ele>
        <time>2026-06-28T06:34:50.000Z</time>
      </trkpt>
      <trkpt lat="42.76563" lon="1.53692">
        <ele>1531</ele>
        <time>2026-06-28T06:34:51.000Z</time>
      </trkpt>
      <trkpt lat="42.76565" lon="1.53696">
        <ele>1531</ele>
        <time>2026-06-28T06:34:52.000Z</time>
      </trkpt>
      <trkpt lat="42.76568" lon="1.537">
        <ele>1530</ele>
        <time>2026-06-28T06:34:53.000Z</time>
      </trkpt>
      <trkpt lat="42.76569" lon="1.53705">
        <ele>1529</ele>
        <time>2026-06-28T06:34:54.000Z</time>
      </trkpt>
      <trkpt lat="42.76572" lon="1.53709">
        <ele>1528</ele>
        <time>2026-06-28T06:34:55.000Z</time>
      </trkpt>
      <trkpt lat="42.76575" lon="1.53712">
        <ele>1527</ele>
        <time>2026-06-28T06:34:56.000Z</time>
      </trkpt>
      <trkpt lat="42.76578" lon="1.53716">
        <ele>1525</ele>
        <time>2026-06-28T06:34:57.000Z</time>
      </trkpt>
      <trkpt lat="42.7658" lon="1.5372">
        <ele>1524</ele>
        <time>2026-06-28T06:34:58.000Z</time>
      </trkpt>
      <trkpt lat="42.76584" lon="1.53723">
        <ele>1523</ele>
        <time>2026-06-28T06:34:59.000Z</time>
      </trkpt>
      <trkpt lat="42.76586" lon="1.53727">
        <ele>1522</ele>
        <time>2026-06-28T06:35:00.000Z</time>
      </trkpt>
      <trkpt lat="42.76588" lon="1.53731">
        <ele>1521</ele>
        <time>2026-06-28T06:35:01.000Z</time>
      </trkpt>
      <trkpt lat="42.7659" lon="1.53733">
        <ele>1521</ele>
        <time>2026-06-28T06:35:02.000Z</time>
      </trkpt>
      <trkpt lat="42.76591" lon="1.53736">
        <ele>1520</ele>
        <time>2026-06-28T06:35:03.000Z</time>
      </trkpt>
      <trkpt lat="42.76593" lon="1.5374">
        <ele>1519</ele>
        <time>2026-06-28T06:35:04.000Z</time>
      </trkpt>
      <trkpt lat="42.76595" lon="1.53744">
        <ele>1518</ele>
        <time>2026-06-28T06:35:05.000Z</time>
      </trkpt>
      <trkpt lat="42.76596" lon="1.53746">
        <ele>1517</ele>
        <time>2026-06-28T06:35:06.000Z</time>
      </trkpt>
      <trkpt lat="42.76598" lon="1.53749">
        <ele>1517</ele>
        <time>2026-06-28T06:35:07.000Z</time>
      </trkpt>
      <trkpt lat="42.766" lon="1.53753">
        <ele>1516</ele>
        <time>2026-06-28T06:35:08.000Z</time>
      </trkpt>
      <trkpt lat="42.76602" lon="1.53757">
        <ele>1514</ele>
        <time>2026-06-28T06:35:09.000Z</time>
      </trkpt>
      <trkpt lat="42.76603" lon="1.5376">
        <ele>1514</ele>
        <time>2026-06-28T06:35:10.000Z</time>
      </trkpt>
      <trkpt lat="42.76604" lon="1.53764">
        <ele>1513</ele>
        <time>2026-06-28T06:35:11.000Z</time>
      </trkpt>
      <trkpt lat="42.76605" lon="1.53767">
        <ele>1511</ele>
        <time>2026-06-28T06:35:12.000Z</time>
      </trkpt>
      <trkpt lat="42.76606" lon="1.5377">
        <ele>1510</ele>
        <time>2026-06-28T06:35:13.000Z</time>
      </trkpt>
      <trkpt lat="42.76607" lon="1.53775">
        <ele>1509</ele>
        <time>2026-06-28T06:35:14.000Z</time>
      </trkpt>
      <trkpt lat="42.76608" lon="1.53778">
        <ele>1508</ele>
        <time>2026-06-28T06:35:15.000Z</time>
      </trkpt>
      <trkpt lat="42.7661" lon="1.53782">
        <ele>1507</ele>
        <time>2026-06-28T06:35:16.000Z</time>
      </trkpt>
      <trkpt lat="42.76611" lon="1.53785">
        <ele>1506</ele>
        <time>2026-06-28T06:35:17.000Z</time>
      </trkpt>
      <trkpt lat="42.76612" lon="1.53788">
        <ele>1505</ele>
        <time>2026-06-28T06:35:18.000Z</time>
      </trkpt>
      <trkpt lat="42.76614" lon="1.53792">
        <ele>1504</ele>
        <time>2026-06-28T06:35:19.000Z</time>
      </trkpt>
      <trkpt lat="42.76615" lon="1.53795">
        <ele>1502</ele>
        <time>2026-06-28T06:35:20.000Z</time>
      </trkpt>
      <trkpt lat="42.76616" lon="1.53798">
        <ele>1501</ele>
        <time>2026-06-28T06:35:21.000Z</time>
      </trkpt>
      <trkpt lat="42.76617" lon="1.53801">
        <ele>1500</ele>
        <time>2026-06-28T06:35:22.000Z</time>
      </trkpt>
      <trkpt lat="42.76617" lon="1.53805">
        <ele>1499</ele>
        <time>2026-06-28T06:35:23.000Z</time>
      </trkpt>
      <trkpt lat="42.76618" lon="1.53809">
        <ele>1498</ele>
        <time>2026-06-28T06:35:24.000Z</time>
      </trkpt>
      <trkpt lat="42.76619" lon="1.53812">
        <ele>1498</ele>
        <time>2026-06-28T06:35:25.000Z</time>
      </trkpt>
      <trkpt lat="42.7662" lon="1.53814">
        <ele>1497</ele>
        <time>2026-06-28T06:35:26.000Z</time>
      </trkpt>
      <trkpt lat="42.7662" lon="1.53816">
        <ele>1496</ele>
        <time>2026-06-28T06:35:27.000Z</time>
      </trkpt>
      <trkpt lat="42.76621" lon="1.53819">
        <ele>1495</ele>
        <time>2026-06-28T06:35:28.000Z</time>
      </trkpt>
      <trkpt lat="42.76621" lon="1.53821">
        <ele>1494</ele>
        <time>2026-06-28T06:35:29.000Z</time>
      </trkpt>
      <trkpt lat="42.76622" lon="1.53823">
        <ele>1494</ele>
        <time>2026-06-28T06:35:30.000Z</time>
      </trkpt>
      <trkpt lat="42.76622" lon="1.53823">
        <ele>1494</ele>
        <time>2026-06-28T06:35:31.000Z</time>
      </trkpt>
      <trkpt lat="42.76622" lon="1.53823">
        <ele>1494</ele>
        <time>2026-06-28T06:35:32.000Z</time>
      </trkpt>
      <trkpt lat="42.76622" lon="1.53823">
        <ele>1494</ele>
        <time>2026-06-28T06:35:33.000Z</time>
      </trkpt>
      <trkpt lat="42.76622" lon="1.53823">
        <ele>1493</ele>
        <time>2026-06-28T06:35:34.000Z</time>
      </trkpt>
      <trkpt lat="42.76622" lon="1.53823">
        <ele>1493</ele>
        <time>2026-06-28T06:35:35.000Z</time>
      </trkpt>
      <trkpt lat="42.76622" lon="1.53823">
        <ele>1493</ele>
        <time>2026-06-28T06:35:36.000Z</time>
      </trkpt>
      <trkpt lat="42.76622" lon="1.53823">
        <ele>1492</ele>
        <time>2026-06-28T06:35:37.000Z</time>
      </trkpt>
      <trkpt lat="42.76622" lon="1.53822">
        <ele>1492</ele>
        <time>2026-06-28T06:35:38.000Z</time>
      </trkpt>
      <trkpt lat="42.76621" lon="1.5382">
        <ele>1492</ele>
        <time>2026-06-28T06:35:39.000Z</time>
      </trkpt>
      <trkpt lat="42.76619" lon="1.53819">
        <ele>1492</ele>
        <time>2026-06-28T06:35:40.000Z</time>
      </trkpt>
      <trkpt lat="42.76618" lon="1.53817">
        <ele>1491</ele>
        <time>2026-06-28T06:35:41.000Z</time>
      </trkpt>
      <trkpt lat="42.76616" lon="1.53816">
        <ele>1490</ele>
        <time>2026-06-28T06:35:42.000Z</time>
      </trkpt>
      <trkpt lat="42.76615" lon="1.53815">
        <ele>1490</ele>
        <time>2026-06-28T06:35:43.000Z</time>
      </trkpt>
      <trkpt lat="42.76615" lon="1.53814">
        <ele>1489</ele>
        <time>2026-06-28T06:35:44.000Z</time>
      </trkpt>
      <trkpt lat="42.76614" lon="1.53814">
        <ele>1490</ele>
        <time>2026-06-28T06:35:45.000Z</time>
      </trkpt>
      <trkpt lat="42.76613" lon="1.53814">
        <ele>1489</ele>
        <time>2026-06-28T06:35:46.000Z</time>
      </trkpt>
      <trkpt lat="42.76613" lon="1.53815">
        <ele>1489</ele>
        <time>2026-06-28T06:35:47.000Z</time>
      </trkpt>
      <trkpt lat="42.76613" lon="1.53816">
        <ele>1489</ele>
        <time>2026-06-28T06:35:48.000Z</time>
      </trkpt>
      <trkpt lat="42.76614" lon="1.53816">
        <ele>1488</ele>
        <time>2026-06-28T06:35:49.000Z</time>
      </trkpt>
      <trkpt lat="42.76613" lon="1.53817">
        <ele>1488</ele>
        <time>2026-06-28T06:35:50.000Z</time>
      </trkpt>
      <trkpt lat="42.76613" lon="1.53819">
        <ele>1488</ele>
        <time>2026-06-28T06:35:51.000Z</time>
      </trkpt>
      <trkpt lat="42.76614" lon="1.53822">
        <ele>1487</ele>
        <time>2026-06-28T06:35:52.000Z</time>
      </trkpt>
      <trkpt lat="42.76615" lon="1.53825">
        <ele>1487</ele>
        <time>2026-06-28T06:35:53.000Z</time>
      </trkpt>
      <trkpt lat="42.76616" lon="1.53829">
        <ele>1487</ele>
        <time>2026-06-28T06:35:54.000Z</time>
      </trkpt>
      <trkpt lat="42.76617" lon="1.53832">
        <ele>1486</ele>
        <time>2026-06-28T06:35:55.000Z</time>
      </trkpt>
      <trkpt lat="42.76618" lon="1.53836">
        <ele>1486</ele>
        <time>2026-06-28T06:35:56.000Z</time>
      </trkpt>
      <trkpt lat="42.76619" lon="1.53839">
        <ele>1485</ele>
        <time>2026-06-28T06:35:57.000Z</time>
      </trkpt>
      <trkpt lat="42.7662" lon="1.53843">
        <ele>1485</ele>
        <time>2026-06-28T06:35:58.000Z</time>
      </trkpt>
      <trkpt lat="42.76622" lon="1.53848">
        <ele>1484</ele>
        <time>2026-06-28T06:35:59.000Z</time>
      </trkpt>
      <trkpt lat="42.76623" lon="1.53852">
        <ele>1483</ele>
        <time>2026-06-28T06:36:00.000Z</time>
      </trkpt>
      <trkpt lat="42.76624" lon="1.53856">
        <ele>1482</ele>
        <time>2026-06-28T06:36:01.000Z</time>
      </trkpt>
      <trkpt lat="42.76626" lon="1.53861">
        <ele>1481</ele>
        <time>2026-06-28T06:36:02.000Z</time>
      </trkpt>
      <trkpt lat="42.76628" lon="1.53866">
        <ele>1481</ele>
        <time>2026-06-28T06:36:03.000Z</time>
      </trkpt>
      <trkpt lat="42.7663" lon="1.5387">
        <ele>1480</ele>
        <time>2026-06-28T06:36:04.000Z</time>
      </trkpt>
      <trkpt lat="42.76632" lon="1.53875">
        <ele>1479</ele>
        <time>2026-06-28T06:36:05.000Z</time>
      </trkpt>
      <trkpt lat="42.76634" lon="1.5388">
        <ele>1478</ele>
        <time>2026-06-28T06:36:06.000Z</time>
      </trkpt>
      <trkpt lat="42.76636" lon="1.53885">
        <ele>1477</ele>
        <time>2026-06-28T06:36:07.000Z</time>
      </trkpt>
      <trkpt lat="42.76638" lon="1.53891">
        <ele>1476</ele>
        <time>2026-06-28T06:36:08.000Z</time>
      </trkpt>
      <trkpt lat="42.7664" lon="1.53897">
        <ele>1474</ele>
        <time>2026-06-28T06:36:09.000Z</time>
      </trkpt>
      <trkpt lat="42.76643" lon="1.53901">
        <ele>1474</ele>
        <time>2026-06-28T06:36:10.000Z</time>
      </trkpt>
      <trkpt lat="42.76646" lon="1.53907">
        <ele>1473</ele>
        <time>2026-06-28T06:36:11.000Z</time>
      </trkpt>
      <trkpt lat="42.76648" lon="1.53912">
        <ele>1472</ele>
        <time>2026-06-28T06:36:12.000Z</time>
      </trkpt>
      <trkpt lat="42.76649" lon="1.53917">
        <ele>1471</ele>
        <time>2026-06-28T06:36:13.000Z</time>
      </trkpt>
      <trkpt lat="42.76651" lon="1.53922">
        <ele>1470</ele>
        <time>2026-06-28T06:36:14.000Z</time>
      </trkpt>
      <trkpt lat="42.76653" lon="1.53927">
        <ele>1469</ele>
        <time>2026-06-28T06:36:15.000Z</time>
      </trkpt>
      <trkpt lat="42.76655" lon="1.53932">
        <ele>1468</ele>
        <time>2026-06-28T06:36:16.000Z</time>
      </trkpt>
      <trkpt lat="42.76658" lon="1.53936">
        <ele>1467</ele>
        <time>2026-06-28T06:36:17.000Z</time>
      </trkpt>
      <trkpt lat="42.76661" lon="1.5394">
        <ele>1466</ele>
        <time>2026-06-28T06:36:18.000Z</time>
      </trkpt>
      <trkpt lat="42.76665" lon="1.53944">
        <ele>1466</ele>
        <time>2026-06-28T06:36:19.000Z</time>
      </trkpt>
      <trkpt lat="42.76669" lon="1.53947">
        <ele>1465</ele>
        <time>2026-06-28T06:36:20.000Z</time>
      </trkpt>
      <trkpt lat="42.76673" lon="1.53949">
        <ele>1464</ele>
        <time>2026-06-28T06:36:21.000Z</time>
      </trkpt>
      <trkpt lat="42.76677" lon="1.53951">
        <ele>1463</ele>
        <time>2026-06-28T06:36:22.000Z</time>
      </trkpt>
      <trkpt lat="42.76681" lon="1.53953">
        <ele>1462</ele>
        <time>2026-06-28T06:36:23.000Z</time>
      </trkpt>
      <trkpt lat="42.76685" lon="1.53956">
        <ele>1460</ele>
        <time>2026-06-28T06:36:24.000Z</time>
      </trkpt>
      <trkpt lat="42.76689" lon="1.53958">
        <ele>1459</ele>
        <time>2026-06-28T06:36:25.000Z</time>
      </trkpt>
      <trkpt lat="42.76693" lon="1.5396">
        <ele>1459</ele>
        <time>2026-06-28T06:36:26.000Z</time>
      </trkpt>
      <trkpt lat="42.76698" lon="1.53961">
        <ele>1459</ele>
        <time>2026-06-28T06:36:27.000Z</time>
      </trkpt>
      <trkpt lat="42.76702" lon="1.53961">
        <ele>1458</ele>
        <time>2026-06-28T06:36:28.000Z</time>
      </trkpt>
      <trkpt lat="42.76707" lon="1.53963">
        <ele>1457</ele>
        <time>2026-06-28T06:36:29.000Z</time>
      </trkpt>
      <trkpt lat="42.76712" lon="1.53963">
        <ele>1457</ele>
        <time>2026-06-28T06:36:30.000Z</time>
      </trkpt>
      <trkpt lat="42.76717" lon="1.53962">
        <ele>1456</ele>
        <time>2026-06-28T06:36:31.000Z</time>
      </trkpt>
      <trkpt lat="42.76721" lon="1.53962">
        <ele>1454</ele>
        <time>2026-06-28T06:36:32.000Z</time>
      </trkpt>
      <trkpt lat="42.76725" lon="1.53961">
        <ele>1454</ele>
        <time>2026-06-28T06:36:33.000Z</time>
      </trkpt>
      <trkpt lat="42.76727" lon="1.5396">
        <ele>1453</ele>
        <time>2026-06-28T06:36:34.000Z</time>
      </trkpt>
      <trkpt lat="42.76729" lon="1.53959">
        <ele>1452</ele>
        <time>2026-06-28T06:36:35.000Z</time>
      </trkpt>
      <trkpt lat="42.76733" lon="1.53958">
        <ele>1451</ele>
        <time>2026-06-28T06:36:36.000Z</time>
      </trkpt>
      <trkpt lat="42.76738" lon="1.53958">
        <ele>1450</ele>
        <time>2026-06-28T06:36:37.000Z</time>
      </trkpt>
      <trkpt lat="42.76743" lon="1.53958">
        <ele>1448</ele>
        <time>2026-06-28T06:36:38.000Z</time>
      </trkpt>
      <trkpt lat="42.76748" lon="1.53957">
        <ele>1447</ele>
        <time>2026-06-28T06:36:39.000Z</time>
      </trkpt>
      <trkpt lat="42.76753" lon="1.53957">
        <ele>1446</ele>
        <time>2026-06-28T06:36:40.000Z</time>
      </trkpt>
      <trkpt lat="42.76757" lon="1.53956">
        <ele>1446</ele>
        <time>2026-06-28T06:36:41.000Z</time>
      </trkpt>
      <trkpt lat="42.7676" lon="1.53955">
        <ele>1446</ele>
        <time>2026-06-28T06:36:42.000Z</time>
      </trkpt>
      <trkpt lat="42.76764" lon="1.53955">
        <ele>1446</ele>
        <time>2026-06-28T06:36:43.000Z</time>
      </trkpt>
      <trkpt lat="42.76767" lon="1.53956">
        <ele>1446</ele>
        <time>2026-06-28T06:36:44.000Z</time>
      </trkpt>
      <trkpt lat="42.76769" lon="1.53958">
        <ele>1445</ele>
        <time>2026-06-28T06:36:45.000Z</time>
      </trkpt>
      <trkpt lat="42.76773" lon="1.53961">
        <ele>1445</ele>
        <time>2026-06-28T06:36:46.000Z</time>
      </trkpt>
      <trkpt lat="42.76777" lon="1.53965">
        <ele>1444</ele>
        <time>2026-06-28T06:36:47.000Z</time>
      </trkpt>
      <trkpt lat="42.76783" lon="1.53971">
        <ele>1443</ele>
        <time>2026-06-28T06:36:48.000Z</time>
      </trkpt>
      <trkpt lat="42.76789" lon="1.53975">
        <ele>1441</ele>
        <time>2026-06-28T06:36:49.000Z</time>
      </trkpt>
      <trkpt lat="42.76794" lon="1.53978">
        <ele>1440</ele>
        <time>2026-06-28T06:36:50.000Z</time>
      </trkpt>
      <trkpt lat="42.76801" lon="1.53982">
        <ele>1439</ele>
        <time>2026-06-28T06:36:51.000Z</time>
      </trkpt>
      <trkpt lat="42.76807" lon="1.53985">
        <ele>1437</ele>
        <time>2026-06-28T06:36:52.000Z</time>
      </trkpt>
      <trkpt lat="42.76812" lon="1.5399">
        <ele>1436</ele>
        <time>2026-06-28T06:36:53.000Z</time>
      </trkpt>
      <trkpt lat="42.76817" lon="1.53994">
        <ele>1435</ele>
        <time>2026-06-28T06:36:54.000Z</time>
      </trkpt>
      <trkpt lat="42.76823" lon="1.53998">
        <ele>1434</ele>
        <time>2026-06-28T06:36:55.000Z</time>
      </trkpt>
      <trkpt lat="42.76828" lon="1.54003">
        <ele>1433</ele>
        <time>2026-06-28T06:36:56.000Z</time>
      </trkpt>
      <trkpt lat="42.76834" lon="1.54007">
        <ele>1432</ele>
        <time>2026-06-28T06:36:57.000Z</time>
      </trkpt>
      <trkpt lat="42.7684" lon="1.5401">
        <ele>1431</ele>
        <time>2026-06-28T06:36:58.000Z</time>
      </trkpt>
      <trkpt lat="42.76846" lon="1.54013">
        <ele>1430</ele>
        <time>2026-06-28T06:36:59.000Z</time>
      </trkpt>
      <trkpt lat="42.76853" lon="1.54014">
        <ele>1429</ele>
        <time>2026-06-28T06:37:00.000Z</time>
      </trkpt>
      <trkpt lat="42.7686" lon="1.54015">
        <ele>1428</ele>
        <time>2026-06-28T06:37:01.000Z</time>
      </trkpt>
      <trkpt lat="42.76867" lon="1.54014">
        <ele>1426</ele>
        <time>2026-06-28T06:37:02.000Z</time>
      </trkpt>
      <trkpt lat="42.76873" lon="1.54011">
        <ele>1425</ele>
        <time>2026-06-28T06:37:03.000Z</time>
      </trkpt>
      <trkpt lat="42.76879" lon="1.54008">
        <ele>1424</ele>
        <time>2026-06-28T06:37:04.000Z</time>
      </trkpt>
      <trkpt lat="42.76884" lon="1.54005">
        <ele>1423</ele>
        <time>2026-06-28T06:37:05.000Z</time>
      </trkpt>
      <trkpt lat="42.7689" lon="1.54004">
        <ele>1421</ele>
        <time>2026-06-28T06:37:06.000Z</time>
      </trkpt>
      <trkpt lat="42.76895" lon="1.54003">
        <ele>1420</ele>
        <time>2026-06-28T06:37:07.000Z</time>
      </trkpt>
      <trkpt lat="42.769" lon="1.54001">
        <ele>1419</ele>
        <time>2026-06-28T06:37:08.000Z</time>
      </trkpt>
      <trkpt lat="42.76906" lon="1.53999">
        <ele>1418</ele>
        <time>2026-06-28T06:37:09.000Z</time>
      </trkpt>
      <trkpt lat="42.76913" lon="1.53997">
        <ele>1417</ele>
        <time>2026-06-28T06:37:10.000Z</time>
      </trkpt>
      <trkpt lat="42.76919" lon="1.53996">
        <ele>1414</ele>
        <time>2026-06-28T06:37:11.000Z</time>
      </trkpt>
      <trkpt lat="42.76924" lon="1.53993">
        <ele>1411</ele>
        <time>2026-06-28T06:37:12.000Z</time>
      </trkpt>
      <trkpt lat="42.76927" lon="1.53992">
        <ele>1411</ele>
        <time>2026-06-28T06:37:13.000Z</time>
      </trkpt>
      <trkpt lat="42.76929" lon="1.53992">
        <ele>1410</ele>
        <time>2026-06-28T06:37:14.000Z</time>
      </trkpt>
      <trkpt lat="42.76931" lon="1.53994">
        <ele>1409</ele>
        <time>2026-06-28T06:37:15.000Z</time>
      </trkpt>
      <trkpt lat="42.76933" lon="1.53995">
        <ele>1408</ele>
        <time>2026-06-28T06:37:16.000Z</time>
      </trkpt>
      <trkpt lat="42.76937" lon="1.53997">
        <ele>1407</ele>
        <time>2026-06-28T06:37:17.000Z</time>
      </trkpt>
      <trkpt lat="42.76941" lon="1.53996">
        <ele>1407</ele>
        <time>2026-06-28T06:37:18.000Z</time>
      </trkpt>
      <trkpt lat="42.76947" lon="1.53998">
        <ele>1405</ele>
        <time>2026-06-28T06:37:19.000Z</time>
      </trkpt>
      <trkpt lat="42.76952" lon="1.54">
        <ele>1405</ele>
        <time>2026-06-28T06:37:20.000Z</time>
      </trkpt>
      <trkpt lat="42.76956" lon="1.54">
        <ele>1404</ele>
        <time>2026-06-28T06:37:21.000Z</time>
      </trkpt>
      <trkpt lat="42.76961" lon="1.54002">
        <ele>1403</ele>
        <time>2026-06-28T06:37:22.000Z</time>
      </trkpt>
      <trkpt lat="42.76965" lon="1.54003">
        <ele>1402</ele>
        <time>2026-06-28T06:37:23.000Z</time>
      </trkpt>
      <trkpt lat="42.76968" lon="1.54005">
        <ele>1401</ele>
        <time>2026-06-28T06:37:24.000Z</time>
      </trkpt>
      <trkpt lat="42.76972" lon="1.54007">
        <ele>1400</ele>
        <time>2026-06-28T06:37:25.000Z</time>
      </trkpt>
      <trkpt lat="42.76977" lon="1.54009">
        <ele>1399</ele>
        <time>2026-06-28T06:37:26.000Z</time>
      </trkpt>
      <trkpt lat="42.76983" lon="1.54011">
        <ele>1398</ele>
        <time>2026-06-28T06:37:27.000Z</time>
      </trkpt>
      <trkpt lat="42.7699" lon="1.54011">
        <ele>1396</ele>
        <time>2026-06-28T06:37:28.000Z</time>
      </trkpt>
      <trkpt lat="42.76993" lon="1.5401">
        <ele>1395</ele>
        <time>2026-06-28T06:37:29.000Z</time>
      </trkpt>
      <trkpt lat="42.76997" lon="1.54008">
        <ele>1395</ele>
        <time>2026-06-28T06:37:30.000Z</time>
      </trkpt>
      <trkpt lat="42.77" lon="1.54008">
        <ele>1394</ele>
        <time>2026-06-28T06:37:31.000Z</time>
      </trkpt>
      <trkpt lat="42.77002" lon="1.54007">
        <ele>1393</ele>
        <time>2026-06-28T06:37:32.000Z</time>
      </trkpt>
      <trkpt lat="42.77004" lon="1.54007">
        <ele>1392</ele>
        <time>2026-06-28T06:37:33.000Z</time>
      </trkpt>
      <trkpt lat="42.77007" lon="1.54006">
        <ele>1391</ele>
        <time>2026-06-28T06:37:34.000Z</time>
      </trkpt>
      <trkpt lat="42.77009" lon="1.54005">
        <ele>1390</ele>
        <time>2026-06-28T06:37:35.000Z</time>
      </trkpt>
      <trkpt lat="42.7701" lon="1.54004">
        <ele>1389</ele>
        <time>2026-06-28T06:37:36.000Z</time>
      </trkpt>
      <trkpt lat="42.7701" lon="1.54002">
        <ele>1388</ele>
        <time>2026-06-28T06:37:37.000Z</time>
      </trkpt>
      <trkpt lat="42.7701" lon="1.53999">
        <ele>1387</ele>
        <time>2026-06-28T06:37:38.000Z</time>
      </trkpt>
      <trkpt lat="42.7701" lon="1.53999">
        <ele>1386</ele>
        <time>2026-06-28T06:37:39.000Z</time>
      </trkpt>
      <trkpt lat="42.7701" lon="1.53998">
        <ele>1386</ele>
        <time>2026-06-28T06:37:40.000Z</time>
      </trkpt>
      <trkpt lat="42.77012" lon="1.53997">
        <ele>1382</ele>
        <time>2026-06-28T06:37:58.000Z</time>
      </trkpt>
      <trkpt lat="42.77013" lon="1.53996">
        <ele>1381</ele>
        <time>2026-06-28T06:37:59.000Z</time>
      </trkpt>
      <trkpt lat="42.77015" lon="1.53997">
        <ele>1381</ele>
        <time>2026-06-28T06:38:00.000Z</time>
      </trkpt>
      <trkpt lat="42.77016" lon="1.53996">
        <ele>1380</ele>
        <time>2026-06-28T06:38:01.000Z</time>
      </trkpt>
      <trkpt lat="42.77016" lon="1.53996">
        <ele>1378</ele>
        <time>2026-06-28T06:38:02.000Z</time>
      </trkpt>
      <trkpt lat="42.77016" lon="1.53995">
        <ele>1378</ele>
        <time>2026-06-28T06:38:03.000Z</time>
      </trkpt>
      <trkpt lat="42.77017" lon="1.53995">
        <ele>1377</ele>
        <time>2026-06-28T06:38:04.000Z</time>
      </trkpt>
      <trkpt lat="42.77018" lon="1.53995">
        <ele>1377</ele>
        <time>2026-06-28T06:38:05.000Z</time>
      </trkpt>
      <trkpt lat="42.77019" lon="1.53994">
        <ele>1377</ele>
        <time>2026-06-28T06:38:06.000Z</time>
      </trkpt>
      <trkpt lat="42.77019" lon="1.53994">
        <ele>1376</ele>
        <time>2026-06-28T06:38:07.000Z</time>
      </trkpt>
      <trkpt lat="42.77018" lon="1.53995">
        <ele>1370</ele>
        <time>2026-06-28T06:38:54.000Z</time>
      </trkpt>
      <trkpt lat="42.77018" lon="1.53995">
        <ele>1369</ele>
        <time>2026-06-28T06:38:55.000Z</time>
      </trkpt>
      <trkpt lat="42.77019" lon="1.53996">
        <ele>1368</ele>
        <time>2026-06-28T06:38:56.000Z</time>
      </trkpt>
      <trkpt lat="42.7702" lon="1.53996">
        <ele>1368</ele>
        <time>2026-06-28T06:38:57.000Z</time>
      </trkpt>
      <trkpt lat="42.7702" lon="1.53996">
        <ele>1369</ele>
        <time>2026-06-28T06:38:58.000Z</time>
      </trkpt>
      <trkpt lat="42.7702" lon="1.53995">
        <ele>1369</ele>
        <time>2026-06-28T06:38:59.000Z</time>
      </trkpt>
      <trkpt lat="42.77019" lon="1.53995">
        <ele>1369</ele>
        <time>2026-06-28T06:39:00.000Z</time>
      </trkpt>
      <trkpt lat="42.7702" lon="1.53994">
        <ele>1369</ele>
        <time>2026-06-28T06:39:01.000Z</time>
      </trkpt>
      <trkpt lat="42.77019" lon="1.53994">
        <ele>1369</ele>
        <time>2026-06-28T06:39:02.000Z</time>
      </trkpt>
      <trkpt lat="42.7702" lon="1.53994">
        <ele>1368</ele>
        <time>2026-06-28T06:39:03.000Z</time>
      </trkpt>
      <trkpt lat="42.7702" lon="1.53994">
        <ele>1367</ele>
        <time>2026-06-28T06:39:04.000Z</time>
      </trkpt>
      <trkpt lat="42.77014" lon="1.53996">
        <ele>1366</ele>
        <time>2026-06-28T06:39:41.000Z</time>
      </trkpt>
      <trkpt lat="42.77015" lon="1.53995">
        <ele>1366</ele>
        <time>2026-06-28T06:39:42.000Z</time>
      </trkpt>
      <trkpt lat="42.77015" lon="1.53994">
        <ele>1366</ele>
        <time>2026-06-28T06:39:43.000Z</time>
      </trkpt>
      <trkpt lat="42.77015" lon="1.53994">
        <ele>1366</ele>
        <time>2026-06-28T06:39:44.000Z</time>
      </trkpt>
      <trkpt lat="42.77015" lon="1.53994">
        <ele>1367</ele>
        <time>2026-06-28T06:39:45.000Z</time>
      </trkpt>
      <trkpt lat="42.77015" lon="1.53994">
        <ele>1367</ele>
        <time>2026-06-28T06:39:46.000Z</time>
      </trkpt>
      <trkpt lat="42.77016" lon="1.53995">
        <ele>1367</ele>
        <time>2026-06-28T06:39:47.000Z</time>
      </trkpt>
      <trkpt lat="42.77016" lon="1.53995">
        <ele>1367</ele>
        <time>2026-06-28T06:39:48.000Z</time>
      </trkpt>
      <trkpt lat="42.77017" lon="1.53994">
        <ele>1367</ele>
        <time>2026-06-28T06:39:49.000Z</time>
      </trkpt>
      <trkpt lat="42.77017" lon="1.53994">
        <ele>1367</ele>
        <time>2026-06-28T06:39:50.000Z</time>
      </trkpt>
      <trkpt lat="42.77018" lon="1.53994">
        <ele>1367</ele>
        <time>2026-06-28T06:39:51.000Z</time>
      </trkpt>
      <trkpt lat="42.77021" lon="1.53993">
        <ele>1366</ele>
        <time>2026-06-28T06:40:21.000Z</time>
      </trkpt>
      <trkpt lat="42.77022" lon="1.53993">
        <ele>1366</ele>
        <time>2026-06-28T06:40:22.000Z</time>
      </trkpt>
      <trkpt lat="42.77025" lon="1.53992">
        <ele>1367</ele>
        <time>2026-06-28T06:40:23.000Z</time>
      </trkpt>
      <trkpt lat="42.77027" lon="1.53991">
        <ele>1367</ele>
        <time>2026-06-28T06:40:24.000Z</time>
      </trkpt>
      <trkpt lat="42.77031" lon="1.53989">
        <ele>1367</ele>
        <time>2026-06-28T06:40:25.000Z</time>
      </trkpt>
      <trkpt lat="42.77034" lon="1.53987">
        <ele>1367</ele>
        <time>2026-06-28T06:40:26.000Z</time>
      </trkpt>
      <trkpt lat="42.77038" lon="1.53985">
        <ele>1367</ele>
        <time>2026-06-28T06:40:27.000Z</time>
      </trkpt>
      <trkpt lat="42.77041" lon="1.53982">
        <ele>1367</ele>
        <time>2026-06-28T06:40:28.000Z</time>
      </trkpt>
      <trkpt lat="42.77044" lon="1.53981">
        <ele>1367</ele>
        <time>2026-06-28T06:40:29.000Z</time>
      </trkpt>
      <trkpt lat="42.77047" lon="1.5398">
        <ele>1367</ele>
        <time>2026-06-28T06:40:30.000Z</time>
      </trkpt>
      <trkpt lat="42.7705" lon="1.53978">
        <ele>1367</ele>
        <time>2026-06-28T06:40:31.000Z</time>
      </trkpt>
      <trkpt lat="42.77054" lon="1.53977">
        <ele>1367</ele>
        <time>2026-06-28T06:40:32.000Z</time>
      </trkpt>
      <trkpt lat="42.77057" lon="1.53975">
        <ele>1367</ele>
        <time>2026-06-28T06:40:33.000Z</time>
      </trkpt>
      <trkpt lat="42.77061" lon="1.53975">
        <ele>1366</ele>
        <time>2026-06-28T06:40:34.000Z</time>
      </trkpt>
      <trkpt lat="42.77066" lon="1.53974">
        <ele>1365</ele>
        <time>2026-06-28T06:40:35.000Z</time>
      </trkpt>
      <trkpt lat="42.77071" lon="1.53974">
        <ele>1365</ele>
        <time>2026-06-28T06:40:36.000Z</time>
      </trkpt>
      <trkpt lat="42.77075" lon="1.53974">
        <ele>1365</ele>
        <time>2026-06-28T06:40:37.000Z</time>
      </trkpt>
      <trkpt lat="42.7708" lon="1.53974">
        <ele>1364</ele>
        <time>2026-06-28T06:40:38.000Z</time>
      </trkpt>
      <trkpt lat="42.77085" lon="1.53974">
        <ele>1364</ele>
        <time>2026-06-28T06:40:39.000Z</time>
      </trkpt>
      <trkpt lat="42.7709" lon="1.53972">
        <ele>1363</ele>
        <time>2026-06-28T06:40:40.000Z</time>
      </trkpt>
      <trkpt lat="42.77095" lon="1.5397">
        <ele>1363</ele>
        <time>2026-06-28T06:40:41.000Z</time>
      </trkpt>
      <trkpt lat="42.77101" lon="1.53968">
        <ele>1363</ele>
        <time>2026-06-28T06:40:42.000Z</time>
      </trkpt>
      <trkpt lat="42.77106" lon="1.53965">
        <ele>1363</ele>
        <time>2026-06-28T06:40:43.000Z</time>
      </trkpt>
      <trkpt lat="42.77111" lon="1.53963">
        <ele>1363</ele>
        <time>2026-06-28T06:40:44.000Z</time>
      </trkpt>
      <trkpt lat="42.77117" lon="1.5396">
        <ele>1362</ele>
        <time>2026-06-28T06:40:45.000Z</time>
      </trkpt>
      <trkpt lat="42.77122" lon="1.53958">
        <ele>1362</ele>
        <time>2026-06-28T06:40:46.000Z</time>
      </trkpt>
      <trkpt lat="42.77127" lon="1.53957">
        <ele>1362</ele>
        <time>2026-06-28T06:40:47.000Z</time>
      </trkpt>
      <trkpt lat="42.77132" lon="1.53955">
        <ele>1362</ele>
        <time>2026-06-28T06:40:48.000Z</time>
      </trkpt>
      <trkpt lat="42.77137" lon="1.53954">
        <ele>1362</ele>
        <time>2026-06-28T06:40:49.000Z</time>
      </trkpt>
      <trkpt lat="42.77142" lon="1.53953">
        <ele>1362</ele>
        <time>2026-06-28T06:40:50.000Z</time>
      </trkpt>
      <trkpt lat="42.77147" lon="1.53952">
        <ele>1363</ele>
        <time>2026-06-28T06:40:51.000Z</time>
      </trkpt>
      <trkpt lat="42.77151" lon="1.53951">
        <ele>1363</ele>
        <time>2026-06-28T06:40:52.000Z</time>
      </trkpt>
      <trkpt lat="42.77156" lon="1.53951">
        <ele>1363</ele>
        <time>2026-06-28T06:40:53.000Z</time>
      </trkpt>
      <trkpt lat="42.7716" lon="1.53952">
        <ele>1362</ele>
        <time>2026-06-28T06:40:54.000Z</time>
      </trkpt>
      <trkpt lat="42.77163" lon="1.53954">
        <ele>1362</ele>
        <time>2026-06-28T06:40:55.000Z</time>
      </trkpt>
      <trkpt lat="42.77165" lon="1.53959">
        <ele>1362</ele>
        <time>2026-06-28T06:40:56.000Z</time>
      </trkpt>
      <trkpt lat="42.77167" lon="1.53964">
        <ele>1361</ele>
        <time>2026-06-28T06:40:57.000Z</time>
      </trkpt>
      <trkpt lat="42.77167" lon="1.53968">
        <ele>1361</ele>
        <time>2026-06-28T06:40:58.000Z</time>
      </trkpt>
      <trkpt lat="42.77167" lon="1.53974">
        <ele>1362</ele>
        <time>2026-06-28T06:40:59.000Z</time>
      </trkpt>
      <trkpt lat="42.77168" lon="1.53978">
        <ele>1361</ele>
        <time>2026-06-28T06:41:00.000Z</time>
      </trkpt>
      <trkpt lat="42.77168" lon="1.53983">
        <ele>1361</ele>
        <time>2026-06-28T06:41:01.000Z</time>
      </trkpt>
      <trkpt lat="42.77169" lon="1.53988">
        <ele>1361</ele>
        <time>2026-06-28T06:41:02.000Z</time>
      </trkpt>
      <trkpt lat="42.77169" lon="1.53997">
        <ele>1361</ele>
        <time>2026-06-28T06:41:03.000Z</time>
      </trkpt>
      <trkpt lat="42.77171" lon="1.54006">
        <ele>1361</ele>
        <time>2026-06-28T06:41:04.000Z</time>
      </trkpt>
      <trkpt lat="42.77173" lon="1.54013">
        <ele>1360</ele>
        <time>2026-06-28T06:41:05.000Z</time>
      </trkpt>
      <trkpt lat="42.77174" lon="1.5402">
        <ele>1359</ele>
        <time>2026-06-28T06:41:06.000Z</time>
      </trkpt>
      <trkpt lat="42.77176" lon="1.54029">
        <ele>1358</ele>
        <time>2026-06-28T06:41:07.000Z</time>
      </trkpt>
      <trkpt lat="42.77179" lon="1.54039">
        <ele>1358</ele>
        <time>2026-06-28T06:41:08.000Z</time>
      </trkpt>
      <trkpt lat="42.77182" lon="1.54049">
        <ele>1356</ele>
        <time>2026-06-28T06:41:09.000Z</time>
      </trkpt>
      <trkpt lat="42.77186" lon="1.54058">
        <ele>1356</ele>
        <time>2026-06-28T06:41:10.000Z</time>
      </trkpt>
      <trkpt lat="42.77192" lon="1.54068">
        <ele>1355</ele>
        <time>2026-06-28T06:41:11.000Z</time>
      </trkpt>
      <trkpt lat="42.77197" lon="1.54076">
        <ele>1354</ele>
        <time>2026-06-28T06:41:12.000Z</time>
      </trkpt>
      <trkpt lat="42.77203" lon="1.54082">
        <ele>1353</ele>
        <time>2026-06-28T06:41:13.000Z</time>
      </trkpt>
      <trkpt lat="42.77209" lon="1.54087">
        <ele>1352</ele>
        <time>2026-06-28T06:41:14.000Z</time>
      </trkpt>
      <trkpt lat="42.77214" lon="1.54092">
        <ele>1351</ele>
        <time>2026-06-28T06:41:15.000Z</time>
      </trkpt>
      <trkpt lat="42.77219" lon="1.54095">
        <ele>1350</ele>
        <time>2026-06-28T06:41:16.000Z</time>
      </trkpt>
      <trkpt lat="42.77224" lon="1.54099">
        <ele>1349</ele>
        <time>2026-06-28T06:41:17.000Z</time>
      </trkpt>
      <trkpt lat="42.77228" lon="1.54102">
        <ele>1348</ele>
        <time>2026-06-28T06:41:18.000Z</time>
      </trkpt>
      <trkpt lat="42.77232" lon="1.54105">
        <ele>1348</ele>
        <time>2026-06-28T06:41:19.000Z</time>
      </trkpt>
      <trkpt lat="42.77237" lon="1.54107">
        <ele>1348</ele>
        <time>2026-06-28T06:41:20.000Z</time>
      </trkpt>
      <trkpt lat="42.77242" lon="1.54109">
        <ele>1347</ele>
        <time>2026-06-28T06:41:21.000Z</time>
      </trkpt>
      <trkpt lat="42.77248" lon="1.54111">
        <ele>1347</ele>
        <time>2026-06-28T06:41:22.000Z</time>
      </trkpt>
      <trkpt lat="42.77252" lon="1.54113">
        <ele>1346</ele>
        <time>2026-06-28T06:41:23.000Z</time>
      </trkpt>
      <trkpt lat="42.77257" lon="1.54117">
        <ele>1345</ele>
        <time>2026-06-28T06:41:24.000Z</time>
      </trkpt>
      <trkpt lat="42.77264" lon="1.54121">
        <ele>1344</ele>
        <time>2026-06-28T06:41:25.000Z</time>
      </trkpt>
      <trkpt lat="42.77272" lon="1.54126">
        <ele>1343</ele>
        <time>2026-06-28T06:41:26.000Z</time>
      </trkpt>
      <trkpt lat="42.77279" lon="1.54133">
        <ele>1341</ele>
        <time>2026-06-28T06:41:27.000Z</time>
      </trkpt>
      <trkpt lat="42.77287" lon="1.5414">
        <ele>1341</ele>
        <time>2026-06-28T06:41:28.000Z</time>
      </trkpt>
      <trkpt lat="42.77295" lon="1.54148">
        <ele>1340</ele>
        <time>2026-06-28T06:41:29.000Z</time>
      </trkpt>
      <trkpt lat="42.77303" lon="1.54156">
        <ele>1339</ele>
        <time>2026-06-28T06:41:30.000Z</time>
      </trkpt>
      <trkpt lat="42.7731" lon="1.54163">
        <ele>1339</ele>
        <time>2026-06-28T06:41:31.000Z</time>
      </trkpt>
      <trkpt lat="42.77314" lon="1.5417">
        <ele>1338</ele>
        <time>2026-06-28T06:41:32.000Z</time>
      </trkpt>
      <trkpt lat="42.77315" lon="1.54177">
        <ele>1337</ele>
        <time>2026-06-28T06:41:33.000Z</time>
      </trkpt>
      <trkpt lat="42.77314" lon="1.54184">
        <ele>1338</ele>
        <time>2026-06-28T06:41:34.000Z</time>
      </trkpt>
      <trkpt lat="42.77313" lon="1.54191">
        <ele>1338</ele>
        <time>2026-06-28T06:41:35.000Z</time>
      </trkpt>
      <trkpt lat="42.77311" lon="1.54194">
        <ele>1337</ele>
        <time>2026-06-28T06:41:36.000Z</time>
      </trkpt>
      <trkpt lat="42.77309" lon="1.54197">
        <ele>1336</ele>
        <time>2026-06-28T06:41:37.000Z</time>
      </trkpt>
      <trkpt lat="42.77306" lon="1.54199">
        <ele>1335</ele>
        <time>2026-06-28T06:41:38.000Z</time>
      </trkpt>
      <trkpt lat="42.77303" lon="1.54198">
        <ele>1334</ele>
        <time>2026-06-28T06:41:39.000Z</time>
      </trkpt>
      <trkpt lat="42.77298" lon="1.54194">
        <ele>1332</ele>
        <time>2026-06-28T06:41:40.000Z</time>
      </trkpt>
      <trkpt lat="42.77294" lon="1.54188">
        <ele>1330</ele>
        <time>2026-06-28T06:41:41.000Z</time>
      </trkpt>
      <trkpt lat="42.7729" lon="1.54184">
        <ele>1329</ele>
        <time>2026-06-28T06:41:42.000Z</time>
      </trkpt>
      <trkpt lat="42.77285" lon="1.5418">
        <ele>1328</ele>
        <time>2026-06-28T06:41:43.000Z</time>
      </trkpt>
      <trkpt lat="42.77279" lon="1.54176">
        <ele>1327</ele>
        <time>2026-06-28T06:41:44.000Z</time>
      </trkpt>
      <trkpt lat="42.77274" lon="1.54175">
        <ele>1326</ele>
        <time>2026-06-28T06:41:45.000Z</time>
      </trkpt>
      <trkpt lat="42.77271" lon="1.54175">
        <ele>1325</ele>
        <time>2026-06-28T06:41:46.000Z</time>
      </trkpt>
      <trkpt lat="42.77268" lon="1.54175">
        <ele>1325</ele>
        <time>2026-06-28T06:41:47.000Z</time>
      </trkpt>
      <trkpt lat="42.77265" lon="1.54176">
        <ele>1325</ele>
        <time>2026-06-28T06:41:48.000Z</time>
      </trkpt>
      <trkpt lat="42.77262" lon="1.54177">
        <ele>1325</ele>
        <time>2026-06-28T06:41:49.000Z</time>
      </trkpt>
      <trkpt lat="42.77261" lon="1.54178">
        <ele>1325</ele>
        <time>2026-06-28T06:41:50.000Z</time>
      </trkpt>
      <trkpt lat="42.7726" lon="1.54178">
        <ele>1325</ele>
        <time>2026-06-28T06:41:51.000Z</time>
      </trkpt>
      <trkpt lat="42.77259" lon="1.54178">
        <ele>1325</ele>
        <time>2026-06-28T06:41:52.000Z</time>
      </trkpt>
      <trkpt lat="42.77258" lon="1.54178">
        <ele>1325</ele>
        <time>2026-06-28T06:41:53.000Z</time>
      </trkpt>
      <trkpt lat="42.77256" lon="1.54179">
        <ele>1325</ele>
        <time>2026-06-28T06:41:54.000Z</time>
      </trkpt>
      <trkpt lat="42.77254" lon="1.5418">
        <ele>1325</ele>
        <time>2026-06-28T06:41:55.000Z</time>
      </trkpt>
      <trkpt lat="42.77251" lon="1.5418">
        <ele>1325</ele>
        <time>2026-06-28T06:41:56.000Z</time>
      </trkpt>
      <trkpt lat="42.77248" lon="1.5418">
        <ele>1324</ele>
        <time>2026-06-28T06:41:57.000Z</time>
      </trkpt>
      <trkpt lat="42.77245" lon="1.5418">
        <ele>1323</ele>
        <time>2026-06-28T06:41:58.000Z</time>
      </trkpt>
      <trkpt lat="42.7724" lon="1.5418">
        <ele>1322</ele>
        <time>2026-06-28T06:41:59.000Z</time>
      </trkpt>
      <trkpt lat="42.77235" lon="1.54179">
        <ele>1320</ele>
        <time>2026-06-28T06:42:00.000Z</time>
      </trkpt>
      <trkpt lat="42.77232" lon="1.54179">
        <ele>1320</ele>
        <time>2026-06-28T06:42:01.000Z</time>
      </trkpt>
      <trkpt lat="42.77229" lon="1.54178">
        <ele>1319</ele>
        <time>2026-06-28T06:42:02.000Z</time>
      </trkpt>
      <trkpt lat="42.77225" lon="1.54177">
        <ele>1319</ele>
        <time>2026-06-28T06:42:03.000Z</time>
      </trkpt>
      <trkpt lat="42.77222" lon="1.54177">
        <ele>1318</ele>
        <time>2026-06-28T06:42:04.000Z</time>
      </trkpt>
      <trkpt lat="42.77218" lon="1.54177">
        <ele>1317</ele>
        <time>2026-06-28T06:42:05.000Z</time>
      </trkpt>
      <trkpt lat="42.77213" lon="1.54177">
        <ele>1316</ele>
        <time>2026-06-28T06:42:06.000Z</time>
      </trkpt>
      <trkpt lat="42.77207" lon="1.54176">
        <ele>1315</ele>
        <time>2026-06-28T06:42:07.000Z</time>
      </trkpt>
      <trkpt lat="42.77201" lon="1.54176">
        <ele>1315</ele>
        <time>2026-06-28T06:42:08.000Z</time>
      </trkpt>
      <trkpt lat="42.77194" lon="1.54175">
        <ele>1314</ele>
        <time>2026-06-28T06:42:09.000Z</time>
      </trkpt>
      <trkpt lat="42.77188" lon="1.54176">
        <ele>1313</ele>
        <time>2026-06-28T06:42:10.000Z</time>
      </trkpt>
      <trkpt lat="42.77182" lon="1.54176">
        <ele>1313</ele>
        <time>2026-06-28T06:42:11.000Z</time>
      </trkpt>
      <trkpt lat="42.77177" lon="1.54178">
        <ele>1312</ele>
        <time>2026-06-28T06:42:12.000Z</time>
      </trkpt>
      <trkpt lat="42.77172" lon="1.5418">
        <ele>1312</ele>
        <time>2026-06-28T06:42:13.000Z</time>
      </trkpt>
      <trkpt lat="42.77166" lon="1.54182">
        <ele>1311</ele>
        <time>2026-06-28T06:42:14.000Z</time>
      </trkpt>
      <trkpt lat="42.77161" lon="1.54185">
        <ele>1311</ele>
        <time>2026-06-28T06:42:15.000Z</time>
      </trkpt>
      <trkpt lat="42.77157" lon="1.54189">
        <ele>1311</ele>
        <time>2026-06-28T06:42:16.000Z</time>
      </trkpt>
      <trkpt lat="42.77151" lon="1.54192">
        <ele>1310</ele>
        <time>2026-06-28T06:42:17.000Z</time>
      </trkpt>
      <trkpt lat="42.77147" lon="1.54195">
        <ele>1310</ele>
        <time>2026-06-28T06:42:18.000Z</time>
      </trkpt>
      <trkpt lat="42.77144" lon="1.54196">
        <ele>1309</ele>
        <time>2026-06-28T06:42:19.000Z</time>
      </trkpt>
      <trkpt lat="42.77142" lon="1.54197">
        <ele>1309</ele>
        <time>2026-06-28T06:42:20.000Z</time>
      </trkpt>
      <trkpt lat="42.7714" lon="1.54197">
        <ele>1309</ele>
        <time>2026-06-28T06:42:21.000Z</time>
      </trkpt>
      <trkpt lat="42.77138" lon="1.54197">
        <ele>1308</ele>
        <time>2026-06-28T06:42:22.000Z</time>
      </trkpt>
      <trkpt lat="42.77134" lon="1.54197">
        <ele>1307</ele>
        <time>2026-06-28T06:42:23.000Z</time>
      </trkpt>
      <trkpt lat="42.7713" lon="1.54198">
        <ele>1307</ele>
        <time>2026-06-28T06:42:24.000Z</time>
      </trkpt>
      <trkpt lat="42.77123" lon="1.54197">
        <ele>1305</ele>
        <time>2026-06-28T06:42:25.000Z</time>
      </trkpt>
      <trkpt lat="42.77117" lon="1.54195">
        <ele>1304</ele>
        <time>2026-06-28T06:42:26.000Z</time>
      </trkpt>
      <trkpt lat="42.77111" lon="1.54192">
        <ele>1303</ele>
        <time>2026-06-28T06:42:27.000Z</time>
      </trkpt>
      <trkpt lat="42.77108" lon="1.5419">
        <ele>1302</ele>
        <time>2026-06-28T06:42:28.000Z</time>
      </trkpt>
      <trkpt lat="42.77105" lon="1.5419">
        <ele>1302</ele>
        <time>2026-06-28T06:42:29.000Z</time>
      </trkpt>
      <trkpt lat="42.77103" lon="1.54189">
        <ele>1301</ele>
        <time>2026-06-28T06:42:30.000Z</time>
      </trkpt>
      <trkpt lat="42.77103" lon="1.54189">
        <ele>1301</ele>
        <time>2026-06-28T06:42:31.000Z</time>
      </trkpt>
      <trkpt lat="42.77103" lon="1.54189">
        <ele>1301</ele>
        <time>2026-06-28T06:42:32.000Z</time>
      </trkpt>
      <trkpt lat="42.77103" lon="1.54189">
        <ele>1301</ele>
        <time>2026-06-28T06:42:33.000Z</time>
      </trkpt>
      <trkpt lat="42.77102" lon="1.5419">
        <ele>1301</ele>
        <time>2026-06-28T06:42:34.000Z</time>
      </trkpt>
      <trkpt lat="42.77101" lon="1.5419">
        <ele>1301</ele>
        <time>2026-06-28T06:42:35.000Z</time>
      </trkpt>
      <trkpt lat="42.771" lon="1.5419">
        <ele>1301</ele>
        <time>2026-06-28T06:42:36.000Z</time>
      </trkpt>
      <trkpt lat="42.77099" lon="1.5419">
        <ele>1301</ele>
        <time>2026-06-28T06:42:37.000Z</time>
      </trkpt>
      <trkpt lat="42.77098" lon="1.54191">
        <ele>1301</ele>
        <time>2026-06-28T06:42:38.000Z</time>
      </trkpt>
      <trkpt lat="42.77096" lon="1.54191">
        <ele>1300</ele>
        <time>2026-06-28T06:42:39.000Z</time>
      </trkpt>
      <trkpt lat="42.77094" lon="1.54191">
        <ele>1300</ele>
        <time>2026-06-28T06:42:40.000Z</time>
      </trkpt>
      <trkpt lat="42.77091" lon="1.5419">
        <ele>1299</ele>
        <time>2026-06-28T06:42:41.000Z</time>
      </trkpt>
      <trkpt lat="42.77088" lon="1.5419">
        <ele>1299</ele>
        <time>2026-06-28T06:42:42.000Z</time>
      </trkpt>
      <trkpt lat="42.77085" lon="1.5419">
        <ele>1298</ele>
        <time>2026-06-28T06:42:43.000Z</time>
      </trkpt>
      <trkpt lat="42.77083" lon="1.54192">
        <ele>1298</ele>
        <time>2026-06-28T06:42:44.000Z</time>
      </trkpt>
      <trkpt lat="42.77081" lon="1.54195">
        <ele>1297</ele>
        <time>2026-06-28T06:42:45.000Z</time>
      </trkpt>
      <trkpt lat="42.77079" lon="1.54198">
        <ele>1297</ele>
        <time>2026-06-28T06:42:46.000Z</time>
      </trkpt>
      <trkpt lat="42.77076" lon="1.54201">
        <ele>1297</ele>
        <time>2026-06-28T06:42:47.000Z</time>
      </trkpt>
      <trkpt lat="42.77073" lon="1.54204">
        <ele>1296</ele>
        <time>2026-06-28T06:42:48.000Z</time>
      </trkpt>
      <trkpt lat="42.7707" lon="1.54208">
        <ele>1295</ele>
        <time>2026-06-28T06:42:49.000Z</time>
      </trkpt>
      <trkpt lat="42.77066" lon="1.54211">
        <ele>1295</ele>
        <time>2026-06-28T06:42:50.000Z</time>
      </trkpt>
      <trkpt lat="42.77061" lon="1.54214">
        <ele>1294</ele>
        <time>2026-06-28T06:42:51.000Z</time>
      </trkpt>
      <trkpt lat="42.77057" lon="1.54216">
        <ele>1294</ele>
        <time>2026-06-28T06:42:52.000Z</time>
      </trkpt>
      <trkpt lat="42.77052" lon="1.54219">
        <ele>1293</ele>
        <time>2026-06-28T06:42:53.000Z</time>
      </trkpt>
      <trkpt lat="42.77048" lon="1.54222">
        <ele>1292</ele>
        <time>2026-06-28T06:42:54.000Z</time>
      </trkpt>
      <trkpt lat="42.77045" lon="1.54225">
        <ele>1291</ele>
        <time>2026-06-28T06:42:55.000Z</time>
      </trkpt>
      <trkpt lat="42.7704" lon="1.54227">
        <ele>1290</ele>
        <time>2026-06-28T06:42:56.000Z</time>
      </trkpt>
      <trkpt lat="42.77036" lon="1.54231">
        <ele>1289</ele>
        <time>2026-06-28T06:42:57.000Z</time>
      </trkpt>
      <trkpt lat="42.77032" lon="1.54235">
        <ele>1288</ele>
        <time>2026-06-28T06:42:58.000Z</time>
      </trkpt>
      <trkpt lat="42.77028" lon="1.54238">
        <ele>1288</ele>
        <time>2026-06-28T06:42:59.000Z</time>
      </trkpt>
      <trkpt lat="42.77024" lon="1.54242">
        <ele>1287</ele>
        <time>2026-06-28T06:43:00.000Z</time>
      </trkpt>
      <trkpt lat="42.77019" lon="1.54245">
        <ele>1287</ele>
        <time>2026-06-28T06:43:01.000Z</time>
      </trkpt>
      <trkpt lat="42.77015" lon="1.54249">
        <ele>1285</ele>
        <time>2026-06-28T06:43:02.000Z</time>
      </trkpt>
      <trkpt lat="42.77012" lon="1.54255">
        <ele>1284</ele>
        <time>2026-06-28T06:43:03.000Z</time>
      </trkpt>
      <trkpt lat="42.7701" lon="1.5426">
        <ele>1283</ele>
        <time>2026-06-28T06:43:04.000Z</time>
      </trkpt>
      <trkpt lat="42.77007" lon="1.54266">
        <ele>1282</ele>
        <time>2026-06-28T06:43:05.000Z</time>
      </trkpt>
      <trkpt lat="42.77005" lon="1.54272">
        <ele>1282</ele>
        <time>2026-06-28T06:43:06.000Z</time>
      </trkpt>
      <trkpt lat="42.77002" lon="1.54279">
        <ele>1281</ele>
        <time>2026-06-28T06:43:07.000Z</time>
      </trkpt>
      <trkpt lat="42.77" lon="1.54285">
        <ele>1279</ele>
        <time>2026-06-28T06:43:08.000Z</time>
      </trkpt>
      <trkpt lat="42.76997" lon="1.54292">
        <ele>1278</ele>
        <time>2026-06-28T06:43:09.000Z</time>
      </trkpt>
      <trkpt lat="42.76994" lon="1.54297">
        <ele>1278</ele>
        <time>2026-06-28T06:43:10.000Z</time>
      </trkpt>
      <trkpt lat="42.76992" lon="1.54303">
        <ele>1276</ele>
        <time>2026-06-28T06:43:11.000Z</time>
      </trkpt>
      <trkpt lat="42.76992" lon="1.54307">
        <ele>1276</ele>
        <time>2026-06-28T06:43:12.000Z</time>
      </trkpt>
      <trkpt lat="42.76995" lon="1.54311">
        <ele>1275</ele>
        <time>2026-06-28T06:43:13.000Z</time>
      </trkpt>
      <trkpt lat="42.76998" lon="1.54315">
        <ele>1273</ele>
        <time>2026-06-28T06:43:14.000Z</time>
      </trkpt>
      <trkpt lat="42.77002" lon="1.54317">
        <ele>1271</ele>
        <time>2026-06-28T06:43:15.000Z</time>
      </trkpt>
      <trkpt lat="42.77007" lon="1.54321">
        <ele>1269</ele>
        <time>2026-06-28T06:43:16.000Z</time>
      </trkpt>
      <trkpt lat="42.77012" lon="1.54323">
        <ele>1266</ele>
        <time>2026-06-28T06:43:17.000Z</time>
      </trkpt>
      <trkpt lat="42.77018" lon="1.54326">
        <ele>1264</ele>
        <time>2026-06-28T06:43:18.000Z</time>
      </trkpt>
      <trkpt lat="42.77024" lon="1.54328">
        <ele>1263</ele>
        <time>2026-06-28T06:43:19.000Z</time>
      </trkpt>
      <trkpt lat="42.7703" lon="1.5433">
        <ele>1262</ele>
        <time>2026-06-28T06:43:20.000Z</time>
      </trkpt>
      <trkpt lat="42.77036" lon="1.54333">
        <ele>1262</ele>
        <time>2026-06-28T06:43:21.000Z</time>
      </trkpt>
      <trkpt lat="42.77041" lon="1.54335">
        <ele>1261</ele>
        <time>2026-06-28T06:43:22.000Z</time>
      </trkpt>
      <trkpt lat="42.77046" lon="1.54337">
        <ele>1260</ele>
        <time>2026-06-28T06:43:23.000Z</time>
      </trkpt>
      <trkpt lat="42.77052" lon="1.54339">
        <ele>1258</ele>
        <time>2026-06-28T06:43:24.000Z</time>
      </trkpt>
      <trkpt lat="42.77056" lon="1.54339">
        <ele>1256</ele>
        <time>2026-06-28T06:43:25.000Z</time>
      </trkpt>
      <trkpt lat="42.77061" lon="1.5434">
        <ele>1255</ele>
        <time>2026-06-28T06:43:26.000Z</time>
      </trkpt>
      <trkpt lat="42.77065" lon="1.54341">
        <ele>1254</ele>
        <time>2026-06-28T06:43:27.000Z</time>
      </trkpt>
      <trkpt lat="42.7707" lon="1.54342">
        <ele>1254</ele>
        <time>2026-06-28T06:43:28.000Z</time>
      </trkpt>
      <trkpt lat="42.77074" lon="1.54344">
        <ele>1253</ele>
        <time>2026-06-28T06:43:29.000Z</time>
      </trkpt>
      <trkpt lat="42.77076" lon="1.54346">
        <ele>1253</ele>
        <time>2026-06-28T06:43:30.000Z</time>
      </trkpt>
      <trkpt lat="42.77079" lon="1.5435">
        <ele>1252</ele>
        <time>2026-06-28T06:43:31.000Z</time>
      </trkpt>
      <trkpt lat="42.7708" lon="1.54354">
        <ele>1250</ele>
        <time>2026-06-28T06:43:32.000Z</time>
      </trkpt>
      <trkpt lat="42.77081" lon="1.54359">
        <ele>1249</ele>
        <time>2026-06-28T06:43:33.000Z</time>
      </trkpt>
      <trkpt lat="42.77081" lon="1.54365">
        <ele>1248</ele>
        <time>2026-06-28T06:43:34.000Z</time>
      </trkpt>
      <trkpt lat="42.77083" lon="1.54371">
        <ele>1247</ele>
        <time>2026-06-28T06:43:35.000Z</time>
      </trkpt>
      <trkpt lat="42.77084" lon="1.54377">
        <ele>1246</ele>
        <time>2026-06-28T06:43:36.000Z</time>
      </trkpt>
      <trkpt lat="42.77086" lon="1.54383">
        <ele>1246</ele>
        <time>2026-06-28T06:43:37.000Z</time>
      </trkpt>
      <trkpt lat="42.77089" lon="1.54389">
        <ele>1244</ele>
        <time>2026-06-28T06:43:38.000Z</time>
      </trkpt>
      <trkpt lat="42.77091" lon="1.54395">
        <ele>1243</ele>
        <time>2026-06-28T06:43:39.000Z</time>
      </trkpt>
      <trkpt lat="42.77093" lon="1.54402">
        <ele>1242</ele>
        <time>2026-06-28T06:43:40.000Z</time>
      </trkpt>
      <trkpt lat="42.77094" lon="1.54409">
        <ele>1241</ele>
        <time>2026-06-28T06:43:41.000Z</time>
      </trkpt>
      <trkpt lat="42.77095" lon="1.54416">
        <ele>1240</ele>
        <time>2026-06-28T06:43:42.000Z</time>
      </trkpt>
      <trkpt lat="42.77097" lon="1.54421">
        <ele>1240</ele>
        <time>2026-06-28T06:43:43.000Z</time>
      </trkpt>
      <trkpt lat="42.77099" lon="1.54426">
        <ele>1239</ele>
        <time>2026-06-28T06:43:44.000Z</time>
      </trkpt>
      <trkpt lat="42.77099" lon="1.54429">
        <ele>1238</ele>
        <time>2026-06-28T06:43:45.000Z</time>
      </trkpt>
      <trkpt lat="42.77097" lon="1.54433">
        <ele>1238</ele>
        <time>2026-06-28T06:43:46.000Z</time>
      </trkpt>
      <trkpt lat="42.77096" lon="1.54436">
        <ele>1236</ele>
        <time>2026-06-28T06:43:47.000Z</time>
      </trkpt>
      <trkpt lat="42.77095" lon="1.5444">
        <ele>1235</ele>
        <time>2026-06-28T06:43:48.000Z</time>
      </trkpt>
      <trkpt lat="42.77094" lon="1.54444">
        <ele>1235</ele>
        <time>2026-06-28T06:43:49.000Z</time>
      </trkpt>
      <trkpt lat="42.77094" lon="1.54445">
        <ele>1234</ele>
        <time>2026-06-28T06:43:50.000Z</time>
      </trkpt>
      <trkpt lat="42.77093" lon="1.54445">
        <ele>1233</ele>
        <time>2026-06-28T06:43:51.000Z</time>
      </trkpt>
      <trkpt lat="42.77094" lon="1.54445">
        <ele>1233</ele>
        <time>2026-06-28T06:43:52.000Z</time>
      </trkpt>
      <trkpt lat="42.77094" lon="1.54447">
        <ele>1233</ele>
        <time>2026-06-28T06:43:53.000Z</time>
      </trkpt>
      <trkpt lat="42.77094" lon="1.54448">
        <ele>1233</ele>
        <time>2026-06-28T06:43:54.000Z</time>
      </trkpt>
      <trkpt lat="42.77093" lon="1.54451">
        <ele>1232</ele>
        <time>2026-06-28T06:43:55.000Z</time>
      </trkpt>
      <trkpt lat="42.77092" lon="1.54454">
        <ele>1231</ele>
        <time>2026-06-28T06:43:56.000Z</time>
      </trkpt>
      <trkpt lat="42.77089" lon="1.54459">
        <ele>1230</ele>
        <time>2026-06-28T06:43:57.000Z</time>
      </trkpt>
      <trkpt lat="42.77086" lon="1.54465">
        <ele>1228</ele>
        <time>2026-06-28T06:43:58.000Z</time>
      </trkpt>
      <trkpt lat="42.77084" lon="1.5447">
        <ele>1227</ele>
        <time>2026-06-28T06:43:59.000Z</time>
      </trkpt>
      <trkpt lat="42.77083" lon="1.54477">
        <ele>1226</ele>
        <time>2026-06-28T06:44:00.000Z</time>
      </trkpt>
      <trkpt lat="42.77083" lon="1.54482">
        <ele>1225</ele>
        <time>2026-06-28T06:44:01.000Z</time>
      </trkpt>
      <trkpt lat="42.77083" lon="1.54487">
        <ele>1225</ele>
        <time>2026-06-28T06:44:02.000Z</time>
      </trkpt>
      <trkpt lat="42.77083" lon="1.54491">
        <ele>1225</ele>
        <time>2026-06-28T06:44:03.000Z</time>
      </trkpt>
      <trkpt lat="42.77083" lon="1.54496">
        <ele>1224</ele>
        <time>2026-06-28T06:44:04.000Z</time>
      </trkpt>
      <trkpt lat="42.77082" lon="1.54501">
        <ele>1224</ele>
        <time>2026-06-28T06:44:05.000Z</time>
      </trkpt>
      <trkpt lat="42.7708" lon="1.54505">
        <ele>1223</ele>
        <time>2026-06-28T06:44:06.000Z</time>
      </trkpt>
      <trkpt lat="42.77077" lon="1.54503">
        <ele>1222</ele>
        <time>2026-06-28T06:44:07.000Z</time>
      </trkpt>
      <trkpt lat="42.77073" lon="1.54501">
        <ele>1221</ele>
        <time>2026-06-28T06:44:08.000Z</time>
      </trkpt>
      <trkpt lat="42.77069" lon="1.54497">
        <ele>1218</ele>
        <time>2026-06-28T06:44:09.000Z</time>
      </trkpt>
      <trkpt lat="42.77065" lon="1.54496">
        <ele>1216</ele>
        <time>2026-06-28T06:44:10.000Z</time>
      </trkpt>
      <trkpt lat="42.7706" lon="1.54493">
        <ele>1215</ele>
        <time>2026-06-28T06:44:11.000Z</time>
      </trkpt>
      <trkpt lat="42.77057" lon="1.5449">
        <ele>1213</ele>
        <time>2026-06-28T06:44:12.000Z</time>
      </trkpt>
      <trkpt lat="42.77053" lon="1.54486">
        <ele>1210</ele>
        <time>2026-06-28T06:44:13.000Z</time>
      </trkpt>
      <trkpt lat="42.7705" lon="1.54485">
        <ele>1206</ele>
        <time>2026-06-28T06:44:14.000Z</time>
      </trkpt>
      <trkpt lat="42.77045" lon="1.54486">
        <ele>1203</ele>
        <time>2026-06-28T06:44:15.000Z</time>
      </trkpt>
      <trkpt lat="42.77041" lon="1.54485">
        <ele>1202</ele>
        <time>2026-06-28T06:44:16.000Z</time>
      </trkpt>
      <trkpt lat="42.77038" lon="1.54489">
        <ele>1201</ele>
        <time>2026-06-28T06:44:17.000Z</time>
      </trkpt>
      <trkpt lat="42.77037" lon="1.54493">
        <ele>1200</ele>
        <time>2026-06-28T06:44:18.000Z</time>
      </trkpt>
      <trkpt lat="42.77038" lon="1.54498">
        <ele>1200</ele>
        <time>2026-06-28T06:44:19.000Z</time>
      </trkpt>
      <trkpt lat="42.77037" lon="1.54501">
        <ele>1200</ele>
        <time>2026-06-28T06:44:20.000Z</time>
      </trkpt>
      <trkpt lat="42.77035" lon="1.54504">
        <ele>1199</ele>
        <time>2026-06-28T06:44:21.000Z</time>
      </trkpt>
      <trkpt lat="42.77032" lon="1.54502">
        <ele>1199</ele>
        <time>2026-06-28T06:44:22.000Z</time>
      </trkpt>
      <trkpt lat="42.77029" lon="1.54497">
        <ele>1199</ele>
        <time>2026-06-28T06:44:23.000Z</time>
      </trkpt>
      <trkpt lat="42.77026" lon="1.54492">
        <ele>1198</ele>
        <time>2026-06-28T06:44:24.000Z</time>
      </trkpt>
      <trkpt lat="42.77023" lon="1.54486">
        <ele>1197</ele>
        <time>2026-06-28T06:44:25.000Z</time>
      </trkpt>
      <trkpt lat="42.7702" lon="1.54483">
        <ele>1196</ele>
        <time>2026-06-28T06:44:26.000Z</time>
      </trkpt>
      <trkpt lat="42.77017" lon="1.54481">
        <ele>1195</ele>
        <time>2026-06-28T06:44:27.000Z</time>
      </trkpt>
      <trkpt lat="42.77014" lon="1.5448">
        <ele>1195</ele>
        <time>2026-06-28T06:44:28.000Z</time>
      </trkpt>
      <trkpt lat="42.7701" lon="1.54479">
        <ele>1195</ele>
        <time>2026-06-28T06:44:29.000Z</time>
      </trkpt>
      <trkpt lat="42.77007" lon="1.54478">
        <ele>1195</ele>
        <time>2026-06-28T06:44:30.000Z</time>
      </trkpt>
      <trkpt lat="42.77005" lon="1.54478">
        <ele>1195</ele>
        <time>2026-06-28T06:44:31.000Z</time>
      </trkpt>
      <trkpt lat="42.77002" lon="1.54478">
        <ele>1195</ele>
        <time>2026-06-28T06:44:32.000Z</time>
      </trkpt>
      <trkpt lat="42.77" lon="1.54478">
        <ele>1195</ele>
        <time>2026-06-28T06:44:33.000Z</time>
      </trkpt>
      <trkpt lat="42.76998" lon="1.54478">
        <ele>1195</ele>
        <time>2026-06-28T06:44:34.000Z</time>
      </trkpt>
      <trkpt lat="42.76997" lon="1.54479">
        <ele>1195</ele>
        <time>2026-06-28T06:44:35.000Z</time>
      </trkpt>
      <trkpt lat="42.76994" lon="1.5448">
        <ele>1195</ele>
        <time>2026-06-28T06:44:36.000Z</time>
      </trkpt>
      <trkpt lat="42.76992" lon="1.54482">
        <ele>1195</ele>
        <time>2026-06-28T06:44:37.000Z</time>
      </trkpt>
      <trkpt lat="42.76991" lon="1.54483">
        <ele>1195</ele>
        <time>2026-06-28T06:44:38.000Z</time>
      </trkpt>
      <trkpt lat="42.76991" lon="1.54483">
        <ele>1196</ele>
        <time>2026-06-28T06:44:39.000Z</time>
      </trkpt>
      <trkpt lat="42.76992" lon="1.54483">
        <ele>1196</ele>
        <time>2026-06-28T06:44:40.000Z</time>
      </trkpt>
      <trkpt lat="42.76992" lon="1.54483">
        <ele>1195</ele>
        <time>2026-06-28T06:44:41.000Z</time>
      </trkpt>
      <trkpt lat="42.76992" lon="1.54484">
        <ele>1195</ele>
        <time>2026-06-28T06:44:42.000Z</time>
      </trkpt>
      <trkpt lat="42.76993" lon="1.54485">
        <ele>1195</ele>
        <time>2026-06-28T06:44:43.000Z</time>
      </trkpt>
      <trkpt lat="42.76993" lon="1.54485">
        <ele>1195</ele>
        <time>2026-06-28T06:44:44.000Z</time>
      </trkpt>
      <trkpt lat="42.76988" lon="1.54493">
        <ele>1194</ele>
        <time>2026-06-28T06:44:58.000Z</time>
      </trkpt>
      <trkpt lat="42.76986" lon="1.54495">
        <ele>1195</ele>
        <time>2026-06-28T06:44:59.000Z</time>
      </trkpt>
      <trkpt lat="42.76983" lon="1.54496">
        <ele>1194</ele>
        <time>2026-06-28T06:45:00.000Z</time>
      </trkpt>
      <trkpt lat="42.7698" lon="1.54498">
        <ele>1195</ele>
        <time>2026-06-28T06:45:01.000Z</time>
      </trkpt>
      <trkpt lat="42.76976" lon="1.545">
        <ele>1195</ele>
        <time>2026-06-28T06:45:02.000Z</time>
      </trkpt>
      <trkpt lat="42.76973" lon="1.54502">
        <ele>1195</ele>
        <time>2026-06-28T06:45:03.000Z</time>
      </trkpt>
      <trkpt lat="42.76969" lon="1.54503">
        <ele>1195</ele>
        <time>2026-06-28T06:45:04.000Z</time>
      </trkpt>
      <trkpt lat="42.76965" lon="1.54506">
        <ele>1195</ele>
        <time>2026-06-28T06:45:05.000Z</time>
      </trkpt>
      <trkpt lat="42.76962" lon="1.54509">
        <ele>1195</ele>
        <time>2026-06-28T06:45:06.000Z</time>
      </trkpt>
      <trkpt lat="42.76958" lon="1.54513">
        <ele>1194</ele>
        <time>2026-06-28T06:45:07.000Z</time>
      </trkpt>
      <trkpt lat="42.76956" lon="1.54517">
        <ele>1193</ele>
        <time>2026-06-28T06:45:08.000Z</time>
      </trkpt>
      <trkpt lat="42.76954" lon="1.54522">
        <ele>1193</ele>
        <time>2026-06-28T06:45:09.000Z</time>
      </trkpt>
      <trkpt lat="42.76953" lon="1.54527">
        <ele>1192</ele>
        <time>2026-06-28T06:45:10.000Z</time>
      </trkpt>
      <trkpt lat="42.76951" lon="1.54532">
        <ele>1191</ele>
        <time>2026-06-28T06:45:11.000Z</time>
      </trkpt>
      <trkpt lat="42.7695" lon="1.54536">
        <ele>1190</ele>
        <time>2026-06-28T06:45:12.000Z</time>
      </trkpt>
      <trkpt lat="42.76948" lon="1.54538">
        <ele>1190</ele>
        <time>2026-06-28T06:45:13.000Z</time>
      </trkpt>
      <trkpt lat="42.76946" lon="1.54539">
        <ele>1190</ele>
        <time>2026-06-28T06:45:14.000Z</time>
      </trkpt>
      <trkpt lat="42.76945" lon="1.5454">
        <ele>1189</ele>
        <time>2026-06-28T06:45:15.000Z</time>
      </trkpt>
      <trkpt lat="42.76943" lon="1.54541">
        <ele>1189</ele>
        <time>2026-06-28T06:45:16.000Z</time>
      </trkpt>
      <trkpt lat="42.76941" lon="1.54543">
        <ele>1188</ele>
        <time>2026-06-28T06:45:17.000Z</time>
      </trkpt>
      <trkpt lat="42.7694" lon="1.54544">
        <ele>1188</ele>
        <time>2026-06-28T06:45:18.000Z</time>
      </trkpt>
      <trkpt lat="42.7694" lon="1.54547">
        <ele>1188</ele>
        <time>2026-06-28T06:45:19.000Z</time>
      </trkpt>
      <trkpt lat="42.76941" lon="1.54548">
        <ele>1188</ele>
        <time>2026-06-28T06:45:20.000Z</time>
      </trkpt>
      <trkpt lat="42.76941" lon="1.54547">
        <ele>1188</ele>
        <time>2026-06-28T06:45:21.000Z</time>
      </trkpt>
      <trkpt lat="42.76941" lon="1.54547">
        <ele>1188</ele>
        <time>2026-06-28T06:45:22.000Z</time>
      </trkpt>
      <trkpt lat="42.76941" lon="1.54547">
        <ele>1188</ele>
        <time>2026-06-28T06:45:23.000Z</time>
      </trkpt>
      <trkpt lat="42.76941" lon="1.54548">
        <ele>1188</ele>
        <time>2026-06-28T06:45:24.000Z</time>
      </trkpt>
      <trkpt lat="42.76941" lon="1.54551">
        <ele>1189</ele>
        <time>2026-06-28T06:45:25.000Z</time>
      </trkpt>
      <trkpt lat="42.76941" lon="1.54554">
        <ele>1188</ele>
        <time>2026-06-28T06:45:26.000Z</time>
      </trkpt>
      <trkpt lat="42.76943" lon="1.54557">
        <ele>1187</ele>
        <time>2026-06-28T06:45:27.000Z</time>
      </trkpt>
      <trkpt lat="42.76945" lon="1.54559">
        <ele>1187</ele>
        <time>2026-06-28T06:45:28.000Z</time>
      </trkpt>
      <trkpt lat="42.76948" lon="1.5456">
        <ele>1186</ele>
        <time>2026-06-28T06:45:29.000Z</time>
      </trkpt>
      <trkpt lat="42.76952" lon="1.54562">
        <ele>1186</ele>
        <time>2026-06-28T06:45:30.000Z</time>
      </trkpt>
      <trkpt lat="42.76955" lon="1.54565">
        <ele>1186</ele>
        <time>2026-06-28T06:45:31.000Z</time>
      </trkpt>
      <trkpt lat="42.76957" lon="1.5457">
        <ele>1185</ele>
        <time>2026-06-28T06:45:32.000Z</time>
      </trkpt>
      <trkpt lat="42.76956" lon="1.54576">
        <ele>1183</ele>
        <time>2026-06-28T06:45:33.000Z</time>
      </trkpt>
      <trkpt lat="42.76955" lon="1.54581">
        <ele>1183</ele>
        <time>2026-06-28T06:45:34.000Z</time>
      </trkpt>
      <trkpt lat="42.76954" lon="1.54587">
        <ele>1182</ele>
        <time>2026-06-28T06:45:35.000Z</time>
      </trkpt>
      <trkpt lat="42.76953" lon="1.54592">
        <ele>1182</ele>
        <time>2026-06-28T06:45:36.000Z</time>
      </trkpt>
      <trkpt lat="42.76952" lon="1.54595">
        <ele>1181</ele>
        <time>2026-06-28T06:45:37.000Z</time>
      </trkpt>
      <trkpt lat="42.76952" lon="1.54599">
        <ele>1180</ele>
        <time>2026-06-28T06:45:38.000Z</time>
      </trkpt>
      <trkpt lat="42.76952" lon="1.54603">
        <ele>1179</ele>
        <time>2026-06-28T06:45:39.000Z</time>
      </trkpt>
      <trkpt lat="42.76952" lon="1.54607">
        <ele>1179</ele>
        <time>2026-06-28T06:45:40.000Z</time>
      </trkpt>
      <trkpt lat="42.76955" lon="1.54612">
        <ele>1178</ele>
        <time>2026-06-28T06:45:41.000Z</time>
      </trkpt>
      <trkpt lat="42.76958" lon="1.54614">
        <ele>1178</ele>
        <time>2026-06-28T06:45:42.000Z</time>
      </trkpt>
      <trkpt lat="42.7696" lon="1.54617">
        <ele>1177</ele>
        <time>2026-06-28T06:45:43.000Z</time>
      </trkpt>
      <trkpt lat="42.76962" lon="1.5462">
        <ele>1176</ele>
        <time>2026-06-28T06:45:44.000Z</time>
      </trkpt>
      <trkpt lat="42.76964" lon="1.54622">
        <ele>1175</ele>
        <time>2026-06-28T06:45:45.000Z</time>
      </trkpt>
      <trkpt lat="42.76966" lon="1.54623">
        <ele>1175</ele>
        <time>2026-06-28T06:45:46.000Z</time>
      </trkpt>
      <trkpt lat="42.76968" lon="1.54626">
        <ele>1174</ele>
        <time>2026-06-28T06:45:47.000Z</time>
      </trkpt>
      <trkpt lat="42.76969" lon="1.54628">
        <ele>1174</ele>
        <time>2026-06-28T06:45:48.000Z</time>
      </trkpt>
      <trkpt lat="42.76971" lon="1.5463">
        <ele>1174</ele>
        <time>2026-06-28T06:45:49.000Z</time>
      </trkpt>
      <trkpt lat="42.76972" lon="1.54632">
        <ele>1173</ele>
        <time>2026-06-28T06:45:50.000Z</time>
      </trkpt>
      <trkpt lat="42.76972" lon="1.54633">
        <ele>1172</ele>
        <time>2026-06-28T06:45:51.000Z</time>
      </trkpt>
      <trkpt lat="42.76972" lon="1.54635">
        <ele>1171</ele>
        <time>2026-06-28T06:45:52.000Z</time>
      </trkpt>
      <trkpt lat="42.76971" lon="1.54637">
        <ele>1170</ele>
        <time>2026-06-28T06:45:53.000Z</time>
      </trkpt>
      <trkpt lat="42.7697" lon="1.54639">
        <ele>1169</ele>
        <time>2026-06-28T06:45:54.000Z</time>
      </trkpt>
      <trkpt lat="42.76968" lon="1.54641">
        <ele>1169</ele>
        <time>2026-06-28T06:45:55.000Z</time>
      </trkpt>
      <trkpt lat="42.76966" lon="1.54643">
        <ele>1168</ele>
        <time>2026-06-28T06:45:56.000Z</time>
      </trkpt>
      <trkpt lat="42.76964" lon="1.54643">
        <ele>1168</ele>
        <time>2026-06-28T06:45:57.000Z</time>
      </trkpt>
      <trkpt lat="42.76962" lon="1.54644">
        <ele>1167</ele>
        <time>2026-06-28T06:45:58.000Z</time>
      </trkpt>
      <trkpt lat="42.7696" lon="1.54644">
        <ele>1166</ele>
        <time>2026-06-28T06:45:59.000Z</time>
      </trkpt>
      <trkpt lat="42.76957" lon="1.54646">
        <ele>1165</ele>
        <time>2026-06-28T06:46:00.000Z</time>
      </trkpt>
      <trkpt lat="42.76956" lon="1.54648">
        <ele>1164</ele>
        <time>2026-06-28T06:46:01.000Z</time>
      </trkpt>
      <trkpt lat="42.76954" lon="1.54652">
        <ele>1164</ele>
        <time>2026-06-28T06:46:02.000Z</time>
      </trkpt>
      <trkpt lat="42.76952" lon="1.54656">
        <ele>1163</ele>
        <time>2026-06-28T06:46:03.000Z</time>
      </trkpt>
      <trkpt lat="42.7695" lon="1.54661">
        <ele>1162</ele>
        <time>2026-06-28T06:46:04.000Z</time>
      </trkpt>
      <trkpt lat="42.76947" lon="1.54666">
        <ele>1160</ele>
        <time>2026-06-28T06:46:05.000Z</time>
      </trkpt>
      <trkpt lat="42.76943" lon="1.54669">
        <ele>1160</ele>
        <time>2026-06-28T06:46:06.000Z</time>
      </trkpt>
      <trkpt lat="42.76939" lon="1.5467">
        <ele>1159</ele>
        <time>2026-06-28T06:46:07.000Z</time>
      </trkpt>
      <trkpt lat="42.76935" lon="1.54671">
        <ele>1158</ele>
        <time>2026-06-28T06:46:08.000Z</time>
      </trkpt>
      <trkpt lat="42.7693" lon="1.54671">
        <ele>1157</ele>
        <time>2026-06-28T06:46:09.000Z</time>
      </trkpt>
      <trkpt lat="42.76925" lon="1.54669">
        <ele>1156</ele>
        <time>2026-06-28T06:46:10.000Z</time>
      </trkpt>
      <trkpt lat="42.7692" lon="1.54668">
        <ele>1155</ele>
        <time>2026-06-28T06:46:11.000Z</time>
      </trkpt>
      <trkpt lat="42.76915" lon="1.54668">
        <ele>1154</ele>
        <time>2026-06-28T06:46:12.000Z</time>
      </trkpt>
      <trkpt lat="42.76911" lon="1.54667">
        <ele>1153</ele>
        <time>2026-06-28T06:46:13.000Z</time>
      </trkpt>
      <trkpt lat="42.76907" lon="1.54666">
        <ele>1153</ele>
        <time>2026-06-28T06:46:14.000Z</time>
      </trkpt>
      <trkpt lat="42.76903" lon="1.54666">
        <ele>1152</ele>
        <time>2026-06-28T06:46:15.000Z</time>
      </trkpt>
      <trkpt lat="42.76898" lon="1.54666">
        <ele>1151</ele>
        <time>2026-06-28T06:46:16.000Z</time>
      </trkpt>
      <trkpt lat="42.76894" lon="1.54667">
        <ele>1151</ele>
        <time>2026-06-28T06:46:17.000Z</time>
      </trkpt>
      <trkpt lat="42.76889" lon="1.54669">
        <ele>1150</ele>
        <time>2026-06-28T06:46:18.000Z</time>
      </trkpt>
      <trkpt lat="42.76884" lon="1.5467">
        <ele>1150</ele>
        <time>2026-06-28T06:46:19.000Z</time>
      </trkpt>
      <trkpt lat="42.76879" lon="1.54672">
        <ele>1150</ele>
        <time>2026-06-28T06:46:20.000Z</time>
      </trkpt>
      <trkpt lat="42.76874" lon="1.54673">
        <ele>1150</ele>
        <time>2026-06-28T06:46:21.000Z</time>
      </trkpt>
      <trkpt lat="42.76868" lon="1.54673">
        <ele>1149</ele>
        <time>2026-06-28T06:46:22.000Z</time>
      </trkpt>
      <trkpt lat="42.76862" lon="1.54674">
        <ele>1148</ele>
        <time>2026-06-28T06:46:23.000Z</time>
      </trkpt>
      <trkpt lat="42.76857" lon="1.54674">
        <ele>1147</ele>
        <time>2026-06-28T06:46:24.000Z</time>
      </trkpt>
      <trkpt lat="42.76852" lon="1.54675">
        <ele>1146</ele>
        <time>2026-06-28T06:46:25.000Z</time>
      </trkpt>
      <trkpt lat="42.76846" lon="1.54677">
        <ele>1146</ele>
        <time>2026-06-28T06:46:26.000Z</time>
      </trkpt>
      <trkpt lat="42.76842" lon="1.54678">
        <ele>1145</ele>
        <time>2026-06-28T06:46:27.000Z</time>
      </trkpt>
      <trkpt lat="42.76837" lon="1.5468">
        <ele>1144</ele>
        <time>2026-06-28T06:46:28.000Z</time>
      </trkpt>
      <trkpt lat="42.76831" lon="1.54682">
        <ele>1144</ele>
        <time>2026-06-28T06:46:29.000Z</time>
      </trkpt>
      <trkpt lat="42.76825" lon="1.54683">
        <ele>1143</ele>
        <time>2026-06-28T06:46:30.000Z</time>
      </trkpt>
      <trkpt lat="42.7682" lon="1.54685">
        <ele>1142</ele>
        <time>2026-06-28T06:46:31.000Z</time>
      </trkpt>
      <trkpt lat="42.76815" lon="1.54688">
        <ele>1142</ele>
        <time>2026-06-28T06:46:32.000Z</time>
      </trkpt>
      <trkpt lat="42.7681" lon="1.5469">
        <ele>1141</ele>
        <time>2026-06-28T06:46:33.000Z</time>
      </trkpt>
      <trkpt lat="42.76805" lon="1.54693">
        <ele>1140</ele>
        <time>2026-06-28T06:46:34.000Z</time>
      </trkpt>
      <trkpt lat="42.76801" lon="1.54695">
        <ele>1140</ele>
        <time>2026-06-28T06:46:35.000Z</time>
      </trkpt>
      <trkpt lat="42.76796" lon="1.54699">
        <ele>1139</ele>
        <time>2026-06-28T06:46:36.000Z</time>
      </trkpt>
      <trkpt lat="42.76791" lon="1.54702">
        <ele>1138</ele>
        <time>2026-06-28T06:46:37.000Z</time>
      </trkpt>
      <trkpt lat="42.76786" lon="1.54705">
        <ele>1137</ele>
        <time>2026-06-28T06:46:38.000Z</time>
      </trkpt>
      <trkpt lat="42.76782" lon="1.54707">
        <ele>1136</ele>
        <time>2026-06-28T06:46:39.000Z</time>
      </trkpt>
      <trkpt lat="42.76777" lon="1.54709">
        <ele>1135</ele>
        <time>2026-06-28T06:46:40.000Z</time>
      </trkpt>
      <trkpt lat="42.76771" lon="1.54711">
        <ele>1134</ele>
        <time>2026-06-28T06:46:41.000Z</time>
      </trkpt>
      <trkpt lat="42.76764" lon="1.54713">
        <ele>1133</ele>
        <time>2026-06-28T06:46:42.000Z</time>
      </trkpt>
      <trkpt lat="42.76757" lon="1.54716">
        <ele>1132</ele>
        <time>2026-06-28T06:46:43.000Z</time>
      </trkpt>
      <trkpt lat="42.7675" lon="1.54718">
        <ele>1130</ele>
        <time>2026-06-28T06:46:44.000Z</time>
      </trkpt>
      <trkpt lat="42.76744" lon="1.54721">
        <ele>1129</ele>
        <time>2026-06-28T06:46:45.000Z</time>
      </trkpt>
      <trkpt lat="42.76738" lon="1.54723">
        <ele>1128</ele>
        <time>2026-06-28T06:46:46.000Z</time>
      </trkpt>
      <trkpt lat="42.76732" lon="1.54726">
        <ele>1127</ele>
        <time>2026-06-28T06:46:47.000Z</time>
      </trkpt>
      <trkpt lat="42.76726" lon="1.54729">
        <ele>1126</ele>
        <time>2026-06-28T06:46:48.000Z</time>
      </trkpt>
      <trkpt lat="42.76719" lon="1.54731">
        <ele>1125</ele>
        <time>2026-06-28T06:46:49.000Z</time>
      </trkpt>
      <trkpt lat="42.76712" lon="1.54733">
        <ele>1125</ele>
        <time>2026-06-28T06:46:50.000Z</time>
      </trkpt>
      <trkpt lat="42.76705" lon="1.54736">
        <ele>1124</ele>
        <time>2026-06-28T06:46:51.000Z</time>
      </trkpt>
      <trkpt lat="42.76699" lon="1.54738">
        <ele>1123</ele>
        <time>2026-06-28T06:46:52.000Z</time>
      </trkpt>
      <trkpt lat="42.76694" lon="1.54739">
        <ele>1122</ele>
        <time>2026-06-28T06:46:53.000Z</time>
      </trkpt>
      <trkpt lat="42.76688" lon="1.54739">
        <ele>1120</ele>
        <time>2026-06-28T06:46:54.000Z</time>
      </trkpt>
      <trkpt lat="42.76684" lon="1.5474">
        <ele>1120</ele>
        <time>2026-06-28T06:46:55.000Z</time>
      </trkpt>
      <trkpt lat="42.76678" lon="1.54741">
        <ele>1119</ele>
        <time>2026-06-28T06:46:56.000Z</time>
      </trkpt>
      <trkpt lat="42.76673" lon="1.54743">
        <ele>1117</ele>
        <time>2026-06-28T06:46:57.000Z</time>
      </trkpt>
      <trkpt lat="42.76667" lon="1.54744">
        <ele>1117</ele>
        <time>2026-06-28T06:46:58.000Z</time>
      </trkpt>
      <trkpt lat="42.76662" lon="1.54746">
        <ele>1116</ele>
        <time>2026-06-28T06:46:59.000Z</time>
      </trkpt>
      <trkpt lat="42.76656" lon="1.54748">
        <ele>1116</ele>
        <time>2026-06-28T06:47:00.000Z</time>
      </trkpt>
      <trkpt lat="42.76651" lon="1.5475">
        <ele>1115</ele>
        <time>2026-06-28T06:47:01.000Z</time>
      </trkpt>
      <trkpt lat="42.76643" lon="1.54752">
        <ele>1115</ele>
        <time>2026-06-28T06:47:02.000Z</time>
      </trkpt>
      <trkpt lat="42.76636" lon="1.54755">
        <ele>1115</ele>
        <time>2026-06-28T06:47:03.000Z</time>
      </trkpt>
      <trkpt lat="42.76628" lon="1.54757">
        <ele>1114</ele>
        <time>2026-06-28T06:47:04.000Z</time>
      </trkpt>
      <trkpt lat="42.76621" lon="1.54759">
        <ele>1114</ele>
        <time>2026-06-28T06:47:05.000Z</time>
      </trkpt>
      <trkpt lat="42.76615" lon="1.54762">
        <ele>1113</ele>
        <time>2026-06-28T06:47:06.000Z</time>
      </trkpt>
      <trkpt lat="42.76609" lon="1.54765">
        <ele>1113</ele>
        <time>2026-06-28T06:47:07.000Z</time>
      </trkpt>
      <trkpt lat="42.76603" lon="1.54768">
        <ele>1112</ele>
        <time>2026-06-28T06:47:08.000Z</time>
      </trkpt>
      <trkpt lat="42.76598" lon="1.54771">
        <ele>1112</ele>
        <time>2026-06-28T06:47:09.000Z</time>
      </trkpt>
      <trkpt lat="42.76592" lon="1.54774">
        <ele>1111</ele>
        <time>2026-06-28T06:47:10.000Z</time>
      </trkpt>
      <trkpt lat="42.76588" lon="1.54779">
        <ele>1111</ele>
        <time>2026-06-28T06:47:11.000Z</time>
      </trkpt>
      <trkpt lat="42.76583" lon="1.54783">
        <ele>1111</ele>
        <time>2026-06-28T06:47:12.000Z</time>
      </trkpt>
      <trkpt lat="42.76579" lon="1.54788">
        <ele>1110</ele>
        <time>2026-06-28T06:47:13.000Z</time>
      </trkpt>
      <trkpt lat="42.76574" lon="1.54792">
        <ele>1110</ele>
        <time>2026-06-28T06:47:14.000Z</time>
      </trkpt>
      <trkpt lat="42.76571" lon="1.54796">
        <ele>1109</ele>
        <time>2026-06-28T06:47:15.000Z</time>
      </trkpt>
      <trkpt lat="42.76567" lon="1.54801">
        <ele>1109</ele>
        <time>2026-06-28T06:47:16.000Z</time>
      </trkpt>
      <trkpt lat="42.76564" lon="1.54805">
        <ele>1109</ele>
        <time>2026-06-28T06:47:17.000Z</time>
      </trkpt>
      <trkpt lat="42.76561" lon="1.5481">
        <ele>1109</ele>
        <time>2026-06-28T06:47:18.000Z</time>
      </trkpt>
      <trkpt lat="42.76559" lon="1.54815">
        <ele>1109</ele>
        <time>2026-06-28T06:47:19.000Z</time>
      </trkpt>
      <trkpt lat="42.76558" lon="1.5482">
        <ele>1109</ele>
        <time>2026-06-28T06:47:20.000Z</time>
      </trkpt>
      <trkpt lat="42.76555" lon="1.54825">
        <ele>1109</ele>
        <time>2026-06-28T06:47:21.000Z</time>
      </trkpt>
      <trkpt lat="42.76553" lon="1.54831">
        <ele>1108</ele>
        <time>2026-06-28T06:47:22.000Z</time>
      </trkpt>
      <trkpt lat="42.76551" lon="1.54836">
        <ele>1106</ele>
        <time>2026-06-28T06:47:23.000Z</time>
      </trkpt>
      <trkpt lat="42.7655" lon="1.54842">
        <ele>1105</ele>
        <time>2026-06-28T06:47:24.000Z</time>
      </trkpt>
      <trkpt lat="42.7655" lon="1.54849">
        <ele>1104</ele>
        <time>2026-06-28T06:47:25.000Z</time>
      </trkpt>
      <trkpt lat="42.7655" lon="1.54856">
        <ele>1104</ele>
        <time>2026-06-28T06:47:26.000Z</time>
      </trkpt>
      <trkpt lat="42.76549" lon="1.54864">
        <ele>1103</ele>
        <time>2026-06-28T06:47:27.000Z</time>
      </trkpt>
      <trkpt lat="42.7655" lon="1.54872">
        <ele>1102</ele>
        <time>2026-06-28T06:47:28.000Z</time>
      </trkpt>
      <trkpt lat="42.7655" lon="1.54879">
        <ele>1101</ele>
        <time>2026-06-28T06:47:29.000Z</time>
      </trkpt>
      <trkpt lat="42.7655" lon="1.54886">
        <ele>1099</ele>
        <time>2026-06-28T06:47:30.000Z</time>
      </trkpt>
      <trkpt lat="42.76551" lon="1.54895">
        <ele>1099</ele>
        <time>2026-06-28T06:47:31.000Z</time>
      </trkpt>
      <trkpt lat="42.76552" lon="1.54902">
        <ele>1097</ele>
        <time>2026-06-28T06:47:32.000Z</time>
      </trkpt>
      <trkpt lat="42.76555" lon="1.54907">
        <ele>1097</ele>
        <time>2026-06-28T06:47:33.000Z</time>
      </trkpt>
      <trkpt lat="42.76557" lon="1.54911">
        <ele>1096</ele>
        <time>2026-06-28T06:47:34.000Z</time>
      </trkpt>
      <trkpt lat="42.7656" lon="1.54915">
        <ele>1096</ele>
        <time>2026-06-28T06:47:35.000Z</time>
      </trkpt>
      <trkpt lat="42.76563" lon="1.54918">
        <ele>1096</ele>
        <time>2026-06-28T06:47:36.000Z</time>
      </trkpt>
      <trkpt lat="42.76567" lon="1.5492">
        <ele>1094</ele>
        <time>2026-06-28T06:47:37.000Z</time>
      </trkpt>
      <trkpt lat="42.7657" lon="1.54922">
        <ele>1094</ele>
        <time>2026-06-28T06:47:38.000Z</time>
      </trkpt>
      <trkpt lat="42.76572" lon="1.54923">
        <ele>1093</ele>
        <time>2026-06-28T06:47:39.000Z</time>
      </trkpt>
      <trkpt lat="42.76572" lon="1.54928">
        <ele>1092</ele>
        <time>2026-06-28T06:47:40.000Z</time>
      </trkpt>
      <trkpt lat="42.76571" lon="1.54933">
        <ele>1091</ele>
        <time>2026-06-28T06:47:41.000Z</time>
      </trkpt>
      <trkpt lat="42.76571" lon="1.54938">
        <ele>1091</ele>
        <time>2026-06-28T06:47:42.000Z</time>
      </trkpt>
      <trkpt lat="42.76571" lon="1.54943">
        <ele>1090</ele>
        <time>2026-06-28T06:47:43.000Z</time>
      </trkpt>
      <trkpt lat="42.7657" lon="1.54948">
        <ele>1089</ele>
        <time>2026-06-28T06:47:44.000Z</time>
      </trkpt>
      <trkpt lat="42.76569" lon="1.54952">
        <ele>1089</ele>
        <time>2026-06-28T06:47:45.000Z</time>
      </trkpt>
      <trkpt lat="42.76569" lon="1.54956">
        <ele>1089</ele>
        <time>2026-06-28T06:47:46.000Z</time>
      </trkpt>
      <trkpt lat="42.76568" lon="1.5496">
        <ele>1088</ele>
        <time>2026-06-28T06:47:47.000Z</time>
      </trkpt>
      <trkpt lat="42.76567" lon="1.54966">
        <ele>1088</ele>
        <time>2026-06-28T06:47:48.000Z</time>
      </trkpt>
      <trkpt lat="42.76567" lon="1.54972">
        <ele>1087</ele>
        <time>2026-06-28T06:47:49.000Z</time>
      </trkpt>
      <trkpt lat="42.76567" lon="1.54978">
        <ele>1087</ele>
        <time>2026-06-28T06:47:50.000Z</time>
      </trkpt>
      <trkpt lat="42.76566" lon="1.54984">
        <ele>1086</ele>
        <time>2026-06-28T06:47:51.000Z</time>
      </trkpt>
      <trkpt lat="42.76565" lon="1.54991">
        <ele>1086</ele>
        <time>2026-06-28T06:47:52.000Z</time>
      </trkpt>
      <trkpt lat="42.76565" lon="1.54997">
        <ele>1085</ele>
        <time>2026-06-28T06:47:53.000Z</time>
      </trkpt>
      <trkpt lat="42.76564" lon="1.55003">
        <ele>1085</ele>
        <time>2026-06-28T06:47:54.000Z</time>
      </trkpt>
      <trkpt lat="42.76563" lon="1.5501">
        <ele>1085</ele>
        <time>2026-06-28T06:47:55.000Z</time>
      </trkpt>
      <trkpt lat="42.76563" lon="1.55016">
        <ele>1084</ele>
        <time>2026-06-28T06:47:56.000Z</time>
      </trkpt>
      <trkpt lat="42.76563" lon="1.55023">
        <ele>1083</ele>
        <time>2026-06-28T06:47:57.000Z</time>
      </trkpt>
      <trkpt lat="42.76563" lon="1.5503">
        <ele>1082</ele>
        <time>2026-06-28T06:47:58.000Z</time>
      </trkpt>
      <trkpt lat="42.76563" lon="1.55038">
        <ele>1081</ele>
        <time>2026-06-28T06:47:59.000Z</time>
      </trkpt>
      <trkpt lat="42.76563" lon="1.55048">
        <ele>1080</ele>
        <time>2026-06-28T06:48:00.000Z</time>
      </trkpt>
      <trkpt lat="42.76562" lon="1.55057">
        <ele>1078</ele>
        <time>2026-06-28T06:48:01.000Z</time>
      </trkpt>
      <trkpt lat="42.76562" lon="1.55066">
        <ele>1077</ele>
        <time>2026-06-28T06:48:02.000Z</time>
      </trkpt>
      <trkpt lat="42.76561" lon="1.55074">
        <ele>1075</ele>
        <time>2026-06-28T06:48:03.000Z</time>
      </trkpt>
      <trkpt lat="42.7656" lon="1.55083">
        <ele>1074</ele>
        <time>2026-06-28T06:48:04.000Z</time>
      </trkpt>
      <trkpt lat="42.76558" lon="1.55092">
        <ele>1073</ele>
        <time>2026-06-28T06:48:05.000Z</time>
      </trkpt>
      <trkpt lat="42.76555" lon="1.55102">
        <ele>1071</ele>
        <time>2026-06-28T06:48:06.000Z</time>
      </trkpt>
      <trkpt lat="42.76552" lon="1.55112">
        <ele>1070</ele>
        <time>2026-06-28T06:48:07.000Z</time>
      </trkpt>
      <trkpt lat="42.7655" lon="1.55121">
        <ele>1069</ele>
        <time>2026-06-28T06:48:08.000Z</time>
      </trkpt>
      <trkpt lat="42.76548" lon="1.55129">
        <ele>1067</ele>
        <time>2026-06-28T06:48:09.000Z</time>
      </trkpt>
      <trkpt lat="42.76546" lon="1.55138">
        <ele>1067</ele>
        <time>2026-06-28T06:48:10.000Z</time>
      </trkpt>
      <trkpt lat="42.76544" lon="1.55146">
        <ele>1066</ele>
        <time>2026-06-28T06:48:11.000Z</time>
      </trkpt>
      <trkpt lat="42.76542" lon="1.55153">
        <ele>1064</ele>
        <time>2026-06-28T06:48:12.000Z</time>
      </trkpt>
      <trkpt lat="42.76541" lon="1.5516">
        <ele>1062</ele>
        <time>2026-06-28T06:48:13.000Z</time>
      </trkpt>
      <trkpt lat="42.7654" lon="1.55168">
        <ele>1061</ele>
        <time>2026-06-28T06:48:14.000Z</time>
      </trkpt>
      <trkpt lat="42.7654" lon="1.55177">
        <ele>1059</ele>
        <time>2026-06-28T06:48:15.000Z</time>
      </trkpt>
      <trkpt lat="42.76541" lon="1.55185">
        <ele>1058</ele>
        <time>2026-06-28T06:48:16.000Z</time>
      </trkpt>
      <trkpt lat="42.76543" lon="1.55191">
        <ele>1057</ele>
        <time>2026-06-28T06:48:17.000Z</time>
      </trkpt>
      <trkpt lat="42.76545" lon="1.55194">
        <ele>1056</ele>
        <time>2026-06-28T06:48:18.000Z</time>
      </trkpt>
      <trkpt lat="42.76548" lon="1.55193">
        <ele>1056</ele>
        <time>2026-06-28T06:48:19.000Z</time>
      </trkpt>
      <trkpt lat="42.76551" lon="1.55191">
        <ele>1055</ele>
        <time>2026-06-28T06:48:20.000Z</time>
      </trkpt>
      <trkpt lat="42.76555" lon="1.55189">
        <ele>1054</ele>
        <time>2026-06-28T06:48:21.000Z</time>
      </trkpt>
      <trkpt lat="42.76559" lon="1.55186">
        <ele>1054</ele>
        <time>2026-06-28T06:48:22.000Z</time>
      </trkpt>
      <trkpt lat="42.76563" lon="1.55183">
        <ele>1054</ele>
        <time>2026-06-28T06:48:23.000Z</time>
      </trkpt>
      <trkpt lat="42.76565" lon="1.5518">
        <ele>1052</ele>
        <time>2026-06-28T06:48:24.000Z</time>
      </trkpt>
      <trkpt lat="42.76568" lon="1.55178">
        <ele>1051</ele>
        <time>2026-06-28T06:48:25.000Z</time>
      </trkpt>
      <trkpt lat="42.76571" lon="1.55176">
        <ele>1049</ele>
        <time>2026-06-28T06:48:26.000Z</time>
      </trkpt>
      <trkpt lat="42.76575" lon="1.55176">
        <ele>1049</ele>
        <time>2026-06-28T06:48:27.000Z</time>
      </trkpt>
      <trkpt lat="42.76577" lon="1.55178">
        <ele>1047</ele>
        <time>2026-06-28T06:48:28.000Z</time>
      </trkpt>
      <trkpt lat="42.76578" lon="1.55183">
        <ele>1046</ele>
        <time>2026-06-28T06:48:29.000Z</time>
      </trkpt>
      <trkpt lat="42.76578" lon="1.55188">
        <ele>1044</ele>
        <time>2026-06-28T06:48:30.000Z</time>
      </trkpt>
      <trkpt lat="42.76577" lon="1.55195">
        <ele>1042</ele>
        <time>2026-06-28T06:48:31.000Z</time>
      </trkpt>
      <trkpt lat="42.76577" lon="1.55204">
        <ele>1041</ele>
        <time>2026-06-28T06:48:32.000Z</time>
      </trkpt>
      <trkpt lat="42.76576" lon="1.55214">
        <ele>1040</ele>
        <time>2026-06-28T06:48:33.000Z</time>
      </trkpt>
      <trkpt lat="42.76575" lon="1.5522">
        <ele>1038</ele>
        <time>2026-06-28T06:48:34.000Z</time>
      </trkpt>
      <trkpt lat="42.76574" lon="1.55227">
        <ele>1036</ele>
        <time>2026-06-28T06:48:35.000Z</time>
      </trkpt>
      <trkpt lat="42.76573" lon="1.55235">
        <ele>1035</ele>
        <time>2026-06-28T06:48:36.000Z</time>
      </trkpt>
      <trkpt lat="42.76572" lon="1.55244">
        <ele>1034</ele>
        <time>2026-06-28T06:48:37.000Z</time>
      </trkpt>
      <trkpt lat="42.7657" lon="1.55251">
        <ele>1034</ele>
        <time>2026-06-28T06:48:38.000Z</time>
      </trkpt>
      <trkpt lat="42.76569" lon="1.55258">
        <ele>1033</ele>
        <time>2026-06-28T06:48:39.000Z</time>
      </trkpt>
      <trkpt lat="42.76566" lon="1.55264">
        <ele>1031</ele>
        <time>2026-06-28T06:48:40.000Z</time>
      </trkpt>
      <trkpt lat="42.76563" lon="1.5527">
        <ele>1029</ele>
        <time>2026-06-28T06:48:41.000Z</time>
      </trkpt>
      <trkpt lat="42.76564" lon="1.55275">
        <ele>1029</ele>
        <time>2026-06-28T06:48:42.000Z</time>
      </trkpt>
      <trkpt lat="42.76566" lon="1.55278">
        <ele>1028</ele>
        <time>2026-06-28T06:48:43.000Z</time>
      </trkpt>
      <trkpt lat="42.7657" lon="1.55279">
        <ele>1028</ele>
        <time>2026-06-28T06:48:44.000Z</time>
      </trkpt>
      <trkpt lat="42.76574" lon="1.55279">
        <ele>1027</ele>
        <time>2026-06-28T06:48:45.000Z</time>
      </trkpt>
      <trkpt lat="42.76579" lon="1.55278">
        <ele>1026</ele>
        <time>2026-06-28T06:48:46.000Z</time>
      </trkpt>
      <trkpt lat="42.76585" lon="1.55276">
        <ele>1024</ele>
        <time>2026-06-28T06:48:47.000Z</time>
      </trkpt>
      <trkpt lat="42.76591" lon="1.55273">
        <ele>1023</ele>
        <time>2026-06-28T06:48:48.000Z</time>
      </trkpt>
      <trkpt lat="42.76596" lon="1.5527">
        <ele>1021</ele>
        <time>2026-06-28T06:48:49.000Z</time>
      </trkpt>
      <trkpt lat="42.766" lon="1.55266">
        <ele>1019</ele>
        <time>2026-06-28T06:48:50.000Z</time>
      </trkpt>
      <trkpt lat="42.76605" lon="1.55262">
        <ele>1017</ele>
        <time>2026-06-28T06:48:51.000Z</time>
      </trkpt>
      <trkpt lat="42.76608" lon="1.55257">
        <ele>1016</ele>
        <time>2026-06-28T06:48:52.000Z</time>
      </trkpt>
      <trkpt lat="42.7661" lon="1.55253">
        <ele>1015</ele>
        <time>2026-06-28T06:48:53.000Z</time>
      </trkpt>
      <trkpt lat="42.76613" lon="1.55248">
        <ele>1014</ele>
        <time>2026-06-28T06:48:54.000Z</time>
      </trkpt>
      <trkpt lat="42.76616" lon="1.55244">
        <ele>1012</ele>
        <time>2026-06-28T06:48:55.000Z</time>
      </trkpt>
      <trkpt lat="42.7662" lon="1.55244">
        <ele>1011</ele>
        <time>2026-06-28T06:48:56.000Z</time>
      </trkpt>
      <trkpt lat="42.76622" lon="1.55244">
        <ele>1011</ele>
        <time>2026-06-28T06:48:57.000Z</time>
      </trkpt>
      <trkpt lat="42.76624" lon="1.55246">
        <ele>1009</ele>
        <time>2026-06-28T06:48:58.000Z</time>
      </trkpt>
      <trkpt lat="42.76625" lon="1.55248">
        <ele>1008</ele>
        <time>2026-06-28T06:48:59.000Z</time>
      </trkpt>
      <trkpt lat="42.76625" lon="1.5525">
        <ele>1007</ele>
        <time>2026-06-28T06:49:00.000Z</time>
      </trkpt>
      <trkpt lat="42.76625" lon="1.55253">
        <ele>1006</ele>
        <time>2026-06-28T06:49:01.000Z</time>
      </trkpt>
      <trkpt lat="42.76625" lon="1.55257">
        <ele>1005</ele>
        <time>2026-06-28T06:49:02.000Z</time>
      </trkpt>
      <trkpt lat="42.76625" lon="1.55262">
        <ele>1004</ele>
        <time>2026-06-28T06:49:03.000Z</time>
      </trkpt>
      <trkpt lat="42.76626" lon="1.55266">
        <ele>1003</ele>
        <time>2026-06-28T06:49:04.000Z</time>
      </trkpt>
      <trkpt lat="42.76627" lon="1.55272">
        <ele>1002</ele>
        <time>2026-06-28T06:49:05.000Z</time>
      </trkpt>
      <trkpt lat="42.76627" lon="1.55277">
        <ele>1001</ele>
        <time>2026-06-28T06:49:06.000Z</time>
      </trkpt>
      <trkpt lat="42.76627" lon="1.55282">
        <ele>1000</ele>
        <time>2026-06-28T06:49:07.000Z</time>
      </trkpt>
      <trkpt lat="42.76626" lon="1.55287">
        <ele>1000</ele>
        <time>2026-06-28T06:49:08.000Z</time>
      </trkpt>
      <trkpt lat="42.76625" lon="1.55291">
        <ele>999</ele>
        <time>2026-06-28T06:49:09.000Z</time>
      </trkpt>
      <trkpt lat="42.76625" lon="1.55294">
        <ele>998</ele>
        <time>2026-06-28T06:49:10.000Z</time>
      </trkpt>
      <trkpt lat="42.76624" lon="1.55297">
        <ele>998</ele>
        <time>2026-06-28T06:49:11.000Z</time>
      </trkpt>
      <trkpt lat="42.76623" lon="1.55299">
        <ele>996</ele>
        <time>2026-06-28T06:49:12.000Z</time>
      </trkpt>
      <trkpt lat="42.76623" lon="1.55302">
        <ele>995</ele>
        <time>2026-06-28T06:49:13.000Z</time>
      </trkpt>
      <trkpt lat="42.76625" lon="1.55303">
        <ele>994</ele>
        <time>2026-06-28T06:49:14.000Z</time>
      </trkpt>
      <trkpt lat="42.76628" lon="1.55304">
        <ele>993</ele>
        <time>2026-06-28T06:49:15.000Z</time>
      </trkpt>
      <trkpt lat="42.7663" lon="1.55305">
        <ele>991</ele>
        <time>2026-06-28T06:49:16.000Z</time>
      </trkpt>
      <trkpt lat="42.76633" lon="1.55305">
        <ele>991</ele>
        <time>2026-06-28T06:49:17.000Z</time>
      </trkpt>
      <trkpt lat="42.76635" lon="1.55306">
        <ele>989</ele>
        <time>2026-06-28T06:49:18.000Z</time>
      </trkpt>
      <trkpt lat="42.76638" lon="1.55306">
        <ele>989</ele>
        <time>2026-06-28T06:49:19.000Z</time>
      </trkpt>
      <trkpt lat="42.7664" lon="1.55307">
        <ele>989</ele>
        <time>2026-06-28T06:49:20.000Z</time>
      </trkpt>
      <trkpt lat="42.76641" lon="1.55309">
        <ele>989</ele>
        <time>2026-06-28T06:49:21.000Z</time>
      </trkpt>
      <trkpt lat="42.76642" lon="1.55311">
        <ele>988</ele>
        <time>2026-06-28T06:49:22.000Z</time>
      </trkpt>
      <trkpt lat="42.76642" lon="1.55314">
        <ele>987</ele>
        <time>2026-06-28T06:49:23.000Z</time>
      </trkpt>
      <trkpt lat="42.76642" lon="1.55316">
        <ele>986</ele>
        <time>2026-06-28T06:49:24.000Z</time>
      </trkpt>
      <trkpt lat="42.76642" lon="1.55318">
        <ele>984</ele>
        <time>2026-06-28T06:49:25.000Z</time>
      </trkpt>
      <trkpt lat="42.76641" lon="1.5532">
        <ele>983</ele>
        <time>2026-06-28T06:49:26.000Z</time>
      </trkpt>
      <trkpt lat="42.76642" lon="1.55323">
        <ele>982</ele>
        <time>2026-06-28T06:49:27.000Z</time>
      </trkpt>
      <trkpt lat="42.76642" lon="1.55326">
        <ele>981</ele>
        <time>2026-06-28T06:49:28.000Z</time>
      </trkpt>
      <trkpt lat="42.76643" lon="1.55329">
        <ele>980</ele>
        <time>2026-06-28T06:49:29.000Z</time>
      </trkpt>
      <trkpt lat="42.76642" lon="1.55333">
        <ele>979</ele>
        <time>2026-06-28T06:49:30.000Z</time>
      </trkpt>
      <trkpt lat="42.7664" lon="1.55337">
        <ele>978</ele>
        <time>2026-06-28T06:49:31.000Z</time>
      </trkpt>
      <trkpt lat="42.76639" lon="1.55342">
        <ele>977</ele>
        <time>2026-06-28T06:49:32.000Z</time>
      </trkpt>
      <trkpt lat="42.76638" lon="1.55347">
        <ele>976</ele>
        <time>2026-06-28T06:49:33.000Z</time>
      </trkpt>
      <trkpt lat="42.76637" lon="1.55352">
        <ele>975</ele>
        <time>2026-06-28T06:49:34.000Z</time>
      </trkpt>
      <trkpt lat="42.76637" lon="1.55357">
        <ele>974</ele>
        <time>2026-06-28T06:49:35.000Z</time>
      </trkpt>
      <trkpt lat="42.76636" lon="1.5536">
        <ele>973</ele>
        <time>2026-06-28T06:49:36.000Z</time>
      </trkpt>
      <trkpt lat="42.76634" lon="1.55364">
        <ele>973</ele>
        <time>2026-06-28T06:49:37.000Z</time>
      </trkpt>
      <trkpt lat="42.76633" lon="1.55367">
        <ele>972</ele>
        <time>2026-06-28T06:49:38.000Z</time>
      </trkpt>
      <trkpt lat="42.76632" lon="1.5537">
        <ele>971</ele>
        <time>2026-06-28T06:49:39.000Z</time>
      </trkpt>
      <trkpt lat="42.76631" lon="1.55372">
        <ele>970</ele>
        <time>2026-06-28T06:49:40.000Z</time>
      </trkpt>
      <trkpt lat="42.7663" lon="1.55372">
        <ele>970</ele>
        <time>2026-06-28T06:49:41.000Z</time>
      </trkpt>
      <trkpt lat="42.7663" lon="1.55373">
        <ele>969</ele>
        <time>2026-06-28T06:49:42.000Z</time>
      </trkpt>
      <trkpt lat="42.76631" lon="1.55373">
        <ele>969</ele>
        <time>2026-06-28T06:49:43.000Z</time>
      </trkpt>
      <trkpt lat="42.76633" lon="1.55373">
        <ele>968</ele>
        <time>2026-06-28T06:49:44.000Z</time>
      </trkpt>
      <trkpt lat="42.76635" lon="1.55374">
        <ele>967</ele>
        <time>2026-06-28T06:49:45.000Z</time>
      </trkpt>
      <trkpt lat="42.76638" lon="1.55375">
        <ele>965</ele>
        <time>2026-06-28T06:49:46.000Z</time>
      </trkpt>
      <trkpt lat="42.7664" lon="1.55376">
        <ele>964</ele>
        <time>2026-06-28T06:49:47.000Z</time>
      </trkpt>
      <trkpt lat="42.76642" lon="1.55377">
        <ele>963</ele>
        <time>2026-06-28T06:49:48.000Z</time>
      </trkpt>
      <trkpt lat="42.76644" lon="1.55378">
        <ele>961</ele>
        <time>2026-06-28T06:49:49.000Z</time>
      </trkpt>
      <trkpt lat="42.76646" lon="1.55378">
        <ele>961</ele>
        <time>2026-06-28T06:49:50.000Z</time>
      </trkpt>
      <trkpt lat="42.76649" lon="1.55379">
        <ele>960</ele>
        <time>2026-06-28T06:49:51.000Z</time>
      </trkpt>
      <trkpt lat="42.76652" lon="1.5538">
        <ele>958</ele>
        <time>2026-06-28T06:49:52.000Z</time>
      </trkpt>
      <trkpt lat="42.76655" lon="1.55381">
        <ele>957</ele>
        <time>2026-06-28T06:49:53.000Z</time>
      </trkpt>
      <trkpt lat="42.76658" lon="1.55381">
        <ele>957</ele>
        <time>2026-06-28T06:49:54.000Z</time>
      </trkpt>
      <trkpt lat="42.76661" lon="1.55381">
        <ele>956</ele>
        <time>2026-06-28T06:49:55.000Z</time>
      </trkpt>
      <trkpt lat="42.76665" lon="1.5538">
        <ele>955</ele>
        <time>2026-06-28T06:49:56.000Z</time>
      </trkpt>
      <trkpt lat="42.76668" lon="1.55379">
        <ele>954</ele>
        <time>2026-06-28T06:49:57.000Z</time>
      </trkpt>
      <trkpt lat="42.76671" lon="1.55377">
        <ele>954</ele>
        <time>2026-06-28T06:49:58.000Z</time>
      </trkpt>
      <trkpt lat="42.76673" lon="1.55374">
        <ele>953</ele>
        <time>2026-06-28T06:49:59.000Z</time>
      </trkpt>
      <trkpt lat="42.76675" lon="1.55373">
        <ele>953</ele>
        <time>2026-06-28T06:50:00.000Z</time>
      </trkpt>
      <trkpt lat="42.76677" lon="1.55374">
        <ele>952</ele>
        <time>2026-06-28T06:50:01.000Z</time>
      </trkpt>
      <trkpt lat="42.76678" lon="1.55378">
        <ele>951</ele>
        <time>2026-06-28T06:50:02.000Z</time>
      </trkpt>
      <trkpt lat="42.76678" lon="1.5538">
        <ele>951</ele>
        <time>2026-06-28T06:50:03.000Z</time>
      </trkpt>
      <trkpt lat="42.76677" lon="1.55381">
        <ele>950</ele>
        <time>2026-06-28T06:50:04.000Z</time>
      </trkpt>
      <trkpt lat="42.76676" lon="1.55383">
        <ele>949</ele>
        <time>2026-06-28T06:50:05.000Z</time>
      </trkpt>
      <trkpt lat="42.76676" lon="1.55386">
        <ele>949</ele>
        <time>2026-06-28T06:50:06.000Z</time>
      </trkpt>
      <trkpt lat="42.76675" lon="1.55387">
        <ele>948</ele>
        <time>2026-06-28T06:50:07.000Z</time>
      </trkpt>
      <trkpt lat="42.76675" lon="1.55389">
        <ele>948</ele>
        <time>2026-06-28T06:50:08.000Z</time>
      </trkpt>
      <trkpt lat="42.76675" lon="1.55389">
        <ele>948</ele>
        <time>2026-06-28T06:50:09.000Z</time>
      </trkpt>
      <trkpt lat="42.76677" lon="1.55389">
        <ele>947</ele>
        <time>2026-06-28T06:50:10.000Z</time>
      </trkpt>
      <trkpt lat="42.76678" lon="1.5539">
        <ele>946</ele>
        <time>2026-06-28T06:50:11.000Z</time>
      </trkpt>
      <trkpt lat="42.76679" lon="1.5539">
        <ele>946</ele>
        <time>2026-06-28T06:50:12.000Z</time>
      </trkpt>
      <trkpt lat="42.7668" lon="1.5539">
        <ele>945</ele>
        <time>2026-06-28T06:50:13.000Z</time>
      </trkpt>
      <trkpt lat="42.76682" lon="1.55391">
        <ele>945</ele>
        <time>2026-06-28T06:50:14.000Z</time>
      </trkpt>
      <trkpt lat="42.76683" lon="1.55391">
        <ele>944</ele>
        <time>2026-06-28T06:50:15.000Z</time>
      </trkpt>
      <trkpt lat="42.76685" lon="1.55392">
        <ele>943</ele>
        <time>2026-06-28T06:50:16.000Z</time>
      </trkpt>
      <trkpt lat="42.76687" lon="1.55393">
        <ele>942</ele>
        <time>2026-06-28T06:50:17.000Z</time>
      </trkpt>
      <trkpt lat="42.76687" lon="1.55394">
        <ele>941</ele>
        <time>2026-06-28T06:50:18.000Z</time>
      </trkpt>
      <trkpt lat="42.76687" lon="1.55395">
        <ele>941</ele>
        <time>2026-06-28T06:50:19.000Z</time>
      </trkpt>
      <trkpt lat="42.76686" lon="1.55397">
        <ele>940</ele>
        <time>2026-06-28T06:50:20.000Z</time>
      </trkpt>
      <trkpt lat="42.76685" lon="1.55398">
        <ele>939</ele>
        <time>2026-06-28T06:50:21.000Z</time>
      </trkpt>
      <trkpt lat="42.76684" lon="1.554">
        <ele>938</ele>
        <time>2026-06-28T06:50:22.000Z</time>
      </trkpt>
      <trkpt lat="42.76685" lon="1.55401">
        <ele>938</ele>
        <time>2026-06-28T06:50:23.000Z</time>
      </trkpt>
      <trkpt lat="42.76684" lon="1.55401">
        <ele>938</ele>
        <time>2026-06-28T06:50:24.000Z</time>
      </trkpt>
      <trkpt lat="42.76685" lon="1.55402">
        <ele>937</ele>
        <time>2026-06-28T06:50:25.000Z</time>
      </trkpt>
      <trkpt lat="42.76685" lon="1.55402">
        <ele>937</ele>
        <time>2026-06-28T06:50:26.000Z</time>
      </trkpt>
      <trkpt lat="42.76685" lon="1.55402">
        <ele>937</ele>
        <time>2026-06-28T06:50:27.000Z</time>
      </trkpt>
      <trkpt lat="42.76685" lon="1.55403">
        <ele>936</ele>
        <time>2026-06-28T06:50:28.000Z</time>
      </trkpt>
      <trkpt lat="42.76684" lon="1.55404">
        <ele>936</ele>
        <time>2026-06-28T06:50:29.000Z</time>
      </trkpt>
      <trkpt lat="42.76685" lon="1.55404">
        <ele>935</ele>
        <time>2026-06-28T06:50:30.000Z</time>
      </trkpt>
      <trkpt lat="42.76685" lon="1.55404">
        <ele>935</ele>
        <time>2026-06-28T06:50:31.000Z</time>
      </trkpt>
      <trkpt lat="42.76685" lon="1.55404">
        <ele>935</ele>
        <time>2026-06-28T06:50:32.000Z</time>
      </trkpt>
      <trkpt lat="42.76685" lon="1.55405">
        <ele>934</ele>
        <time>2026-06-28T06:50:33.000Z</time>
      </trkpt>
      <trkpt lat="42.76685" lon="1.55406">
        <ele>934</ele>
        <time>2026-06-28T06:50:34.000Z</time>
      </trkpt>
      <trkpt lat="42.76685" lon="1.55407">
        <ele>934</ele>
        <time>2026-06-28T06:50:35.000Z</time>
      </trkpt>
      <trkpt lat="42.76685" lon="1.55409">
        <ele>934</ele>
        <time>2026-06-28T06:50:36.000Z</time>
      </trkpt>
      <trkpt lat="42.76685" lon="1.55409">
        <ele>934</ele>
        <time>2026-06-28T06:50:37.000Z</time>
      </trkpt>
      <trkpt lat="42.76686" lon="1.55409">
        <ele>933</ele>
        <time>2026-06-28T06:50:38.000Z</time>
      </trkpt>
      <trkpt lat="42.76685" lon="1.55409">
        <ele>933</ele>
        <time>2026-06-28T06:50:39.000Z</time>
      </trkpt>
      <trkpt lat="42.76684" lon="1.55411">
        <ele>932</ele>
        <time>2026-06-28T06:50:40.000Z</time>
      </trkpt>
      <trkpt lat="42.76684" lon="1.55413">
        <ele>932</ele>
        <time>2026-06-28T06:50:41.000Z</time>
      </trkpt>
      <trkpt lat="42.76684" lon="1.55416">
        <ele>931</ele>
        <time>2026-06-28T06:50:42.000Z</time>
      </trkpt>
      <trkpt lat="42.76684" lon="1.55416">
        <ele>931</ele>
        <time>2026-06-28T06:50:43.000Z</time>
      </trkpt>
      <trkpt lat="42.76685" lon="1.55417">
        <ele>931</ele>
        <time>2026-06-28T06:50:44.000Z</time>
      </trkpt>
      <trkpt lat="42.76686" lon="1.55417">
        <ele>931</ele>
        <time>2026-06-28T06:50:45.000Z</time>
      </trkpt>
      <trkpt lat="42.76687" lon="1.55417">
        <ele>931</ele>
        <time>2026-06-28T06:50:46.000Z</time>
      </trkpt>
      <trkpt lat="42.76688" lon="1.55418">
        <ele>930</ele>
        <time>2026-06-28T06:50:47.000Z</time>
      </trkpt>
      <trkpt lat="42.76688" lon="1.5542">
        <ele>930</ele>
        <time>2026-06-28T06:50:48.000Z</time>
      </trkpt>
      <trkpt lat="42.76687" lon="1.55422">
        <ele>930</ele>
        <time>2026-06-28T06:50:49.000Z</time>
      </trkpt>
      <trkpt lat="42.76686" lon="1.55424">
        <ele>929</ele>
        <time>2026-06-28T06:50:50.000Z</time>
      </trkpt>
      <trkpt lat="42.76685" lon="1.55426">
        <ele>929</ele>
        <time>2026-06-28T06:50:51.000Z</time>
      </trkpt>
      <trkpt lat="42.76685" lon="1.55427">
        <ele>928</ele>
        <time>2026-06-28T06:50:52.000Z</time>
      </trkpt>
      <trkpt lat="42.76684" lon="1.55429">
        <ele>928</ele>
        <time>2026-06-28T06:50:53.000Z</time>
      </trkpt>
      <trkpt lat="42.76683" lon="1.5543">
        <ele>927</ele>
        <time>2026-06-28T06:50:54.000Z</time>
      </trkpt>
      <trkpt lat="42.76682" lon="1.55432">
        <ele>926</ele>
        <time>2026-06-28T06:50:55.000Z</time>
      </trkpt>
      <trkpt lat="42.76681" lon="1.55432">
        <ele>925</ele>
        <time>2026-06-28T06:50:56.000Z</time>
      </trkpt>
      <trkpt lat="42.76681" lon="1.55434">
        <ele>924</ele>
        <time>2026-06-28T06:50:57.000Z</time>
      </trkpt>
      <trkpt lat="42.76681" lon="1.55436">
        <ele>923</ele>
        <time>2026-06-28T06:50:58.000Z</time>
      </trkpt>
      <trkpt lat="42.76681" lon="1.55436">
        <ele>923</ele>
        <time>2026-06-28T06:50:59.000Z</time>
      </trkpt>
      <trkpt lat="42.7668" lon="1.55437">
        <ele>922</ele>
        <time>2026-06-28T06:51:00.000Z</time>
      </trkpt>
      <trkpt lat="42.7668" lon="1.55437">
        <ele>920</ele>
        <time>2026-06-28T06:51:01.000Z</time>
      </trkpt>
      <trkpt lat="42.7668" lon="1.55437">
        <ele>920</ele>
        <time>2026-06-28T06:51:02.000Z</time>
      </trkpt>
      <trkpt lat="42.7668" lon="1.55439">
        <ele>920</ele>
        <time>2026-06-28T06:51:03.000Z</time>
      </trkpt>
      <trkpt lat="42.76679" lon="1.55441">
        <ele>919</ele>
        <time>2026-06-28T06:51:04.000Z</time>
      </trkpt>
      <trkpt lat="42.76679" lon="1.55443">
        <ele>919</ele>
        <time>2026-06-28T06:51:05.000Z</time>
      </trkpt>
      <trkpt lat="42.7668" lon="1.55444">
        <ele>918</ele>
        <time>2026-06-28T06:51:06.000Z</time>
      </trkpt>
      <trkpt lat="42.76682" lon="1.55443">
        <ele>918</ele>
        <time>2026-06-28T06:51:07.000Z</time>
      </trkpt>
      <trkpt lat="42.76683" lon="1.55442">
        <ele>917</ele>
        <time>2026-06-28T06:51:08.000Z</time>
      </trkpt>
      <trkpt lat="42.76684" lon="1.55442">
        <ele>917</ele>
        <time>2026-06-28T06:51:09.000Z</time>
      </trkpt>
      <trkpt lat="42.76685" lon="1.55442">
        <ele>917</ele>
        <time>2026-06-28T06:51:10.000Z</time>
      </trkpt>
      <trkpt lat="42.76686" lon="1.55442">
        <ele>917</ele>
        <time>2026-06-28T06:51:11.000Z</time>
      </trkpt>
      <trkpt lat="42.76688" lon="1.55442">
        <ele>916</ele>
        <time>2026-06-28T06:51:12.000Z</time>
      </trkpt>
      <trkpt lat="42.7669" lon="1.55443">
        <ele>916</ele>
        <time>2026-06-28T06:51:13.000Z</time>
      </trkpt>
      <trkpt lat="42.76691" lon="1.55443">
        <ele>915</ele>
        <time>2026-06-28T06:51:14.000Z</time>
      </trkpt>
      <trkpt lat="42.76694" lon="1.55443">
        <ele>915</ele>
        <time>2026-06-28T06:51:15.000Z</time>
      </trkpt>
      <trkpt lat="42.76696" lon="1.55443">
        <ele>914</ele>
        <time>2026-06-28T06:51:16.000Z</time>
      </trkpt>
      <trkpt lat="42.76697" lon="1.55442">
        <ele>914</ele>
        <time>2026-06-28T06:51:17.000Z</time>
      </trkpt>
      <trkpt lat="42.76698" lon="1.55442">
        <ele>914</ele>
        <time>2026-06-28T06:51:18.000Z</time>
      </trkpt>
      <trkpt lat="42.76699" lon="1.55442">
        <ele>914</ele>
        <time>2026-06-28T06:51:19.000Z</time>
      </trkpt>
      <trkpt lat="42.76699" lon="1.55442">
        <ele>914</ele>
        <time>2026-06-28T06:51:20.000Z</time>
      </trkpt>
      <trkpt lat="42.76699" lon="1.55442">
        <ele>914</ele>
        <time>2026-06-28T06:51:21.000Z</time>
      </trkpt>
      <trkpt lat="42.76699" lon="1.55442">
        <ele>914</ele>
        <time>2026-06-28T06:51:22.000Z</time>
      </trkpt>
      <trkpt lat="42.76699" lon="1.55442">
        <ele>914</ele>
        <time>2026-06-28T06:51:23.000Z</time>
      </trkpt>
      <trkpt lat="42.76699" lon="1.55442">
        <ele>914</ele>
        <time>2026-06-28T06:51:24.000Z</time>
      </trkpt>
      <trkpt lat="42.76699" lon="1.55442">
        <ele>914</ele>
        <time>2026-06-28T06:51:25.000Z</time>
      </trkpt>
      <trkpt lat="42.767" lon="1.55441">
        <ele>913</ele>
        <time>2026-06-28T06:51:26.000Z</time>
      </trkpt>
      <trkpt lat="42.767" lon="1.55441">
        <ele>913</ele>
        <time>2026-06-28T06:51:27.000Z</time>
      </trkpt>
      <trkpt lat="42.76701" lon="1.5544">
        <ele>913</ele>
        <time>2026-06-28T06:51:28.000Z</time>
      </trkpt>
      <trkpt lat="42.76702" lon="1.5544">
        <ele>913</ele>
        <time>2026-06-28T06:51:29.000Z</time>
      </trkpt>
      <trkpt lat="42.76703" lon="1.5544">
        <ele>913</ele>
        <time>2026-06-28T06:51:30.000Z</time>
      </trkpt>
      <trkpt lat="42.76704" lon="1.55441">
        <ele>912</ele>
        <time>2026-06-28T06:51:31.000Z</time>
      </trkpt>
      <trkpt lat="42.76704" lon="1.55442">
        <ele>911</ele>
        <time>2026-06-28T06:51:32.000Z</time>
      </trkpt>
      <trkpt lat="42.76704" lon="1.55442">
        <ele>911</ele>
        <time>2026-06-28T06:51:33.000Z</time>
      </trkpt>
      <trkpt lat="42.76704" lon="1.55442">
        <ele>910</ele>
        <time>2026-06-28T06:51:34.000Z</time>
      </trkpt>
      <trkpt lat="42.76703" lon="1.55443">
        <ele>910</ele>
        <time>2026-06-28T06:51:35.000Z</time>
      </trkpt>
      <trkpt lat="42.76703" lon="1.55443">
        <ele>910</ele>
        <time>2026-06-28T06:51:36.000Z</time>
      </trkpt>
      <trkpt lat="42.76703" lon="1.55443">
        <ele>910</ele>
        <time>2026-06-28T06:51:37.000Z</time>
      </trkpt>
      <trkpt lat="42.76703" lon="1.55444">
        <ele>910</ele>
        <time>2026-06-28T06:51:38.000Z</time>
      </trkpt>
      <trkpt lat="42.76703" lon="1.55444">
        <ele>910</ele>
        <time>2026-06-28T06:51:39.000Z</time>
      </trkpt>
      <trkpt lat="42.76704" lon="1.55444">
        <ele>909</ele>
        <time>2026-06-28T06:51:40.000Z</time>
      </trkpt>
      <trkpt lat="42.76705" lon="1.55445">
        <ele>909</ele>
        <time>2026-06-28T06:51:41.000Z</time>
      </trkpt>
      <trkpt lat="42.76706" lon="1.55445">
        <ele>907</ele>
        <time>2026-06-28T06:51:42.000Z</time>
      </trkpt>
      <trkpt lat="42.76707" lon="1.55444">
        <ele>907</ele>
        <time>2026-06-28T06:51:43.000Z</time>
      </trkpt>
      <trkpt lat="42.76709" lon="1.55444">
        <ele>907</ele>
        <time>2026-06-28T06:51:44.000Z</time>
      </trkpt>
      <trkpt lat="42.7671" lon="1.55443">
        <ele>907</ele>
        <time>2026-06-28T06:51:45.000Z</time>
      </trkpt>
      <trkpt lat="42.76711" lon="1.55444">
        <ele>906</ele>
        <time>2026-06-28T06:51:46.000Z</time>
      </trkpt>
      <trkpt lat="42.76712" lon="1.55445">
        <ele>906</ele>
        <time>2026-06-28T06:51:47.000Z</time>
      </trkpt>
      <trkpt lat="42.76713" lon="1.55448">
        <ele>905</ele>
        <time>2026-06-28T06:51:48.000Z</time>
      </trkpt>
      <trkpt lat="42.76713" lon="1.55451">
        <ele>905</ele>
        <time>2026-06-28T06:51:49.000Z</time>
      </trkpt>
      <trkpt lat="42.76714" lon="1.55452">
        <ele>905</ele>
        <time>2026-06-28T06:51:50.000Z</time>
      </trkpt>
      <trkpt lat="42.76715" lon="1.55453">
        <ele>903</ele>
        <time>2026-06-28T06:51:51.000Z</time>
      </trkpt>
      <trkpt lat="42.76716" lon="1.55454">
        <ele>903</ele>
        <time>2026-06-28T06:51:52.000Z</time>
      </trkpt>
      <trkpt lat="42.76718" lon="1.55453">
        <ele>902</ele>
        <time>2026-06-28T06:51:53.000Z</time>
      </trkpt>
      <trkpt lat="42.7672" lon="1.55453">
        <ele>900</ele>
        <time>2026-06-28T06:51:54.000Z</time>
      </trkpt>
      <trkpt lat="42.76722" lon="1.55455">
        <ele>899</ele>
        <time>2026-06-28T06:51:55.000Z</time>
      </trkpt>
      <trkpt lat="42.76724" lon="1.55456">
        <ele>899</ele>
        <time>2026-06-28T06:51:56.000Z</time>
      </trkpt>
      <trkpt lat="42.76725" lon="1.55459">
        <ele>898</ele>
        <time>2026-06-28T06:51:57.000Z</time>
      </trkpt>
      <trkpt lat="42.76725" lon="1.55462">
        <ele>898</ele>
        <time>2026-06-28T06:51:58.000Z</time>
      </trkpt>
      <trkpt lat="42.76726" lon="1.55463">
        <ele>897</ele>
        <time>2026-06-28T06:51:59.000Z</time>
      </trkpt>
      <trkpt lat="42.76727" lon="1.55466">
        <ele>897</ele>
        <time>2026-06-28T06:52:00.000Z</time>
      </trkpt>
      <trkpt lat="42.76727" lon="1.55468">
        <ele>897</ele>
        <time>2026-06-28T06:52:01.000Z</time>
      </trkpt>
      <trkpt lat="42.76726" lon="1.5547">
        <ele>897</ele>
        <time>2026-06-28T06:52:02.000Z</time>
      </trkpt>
      <trkpt lat="42.76724" lon="1.55472">
        <ele>896</ele>
        <time>2026-06-28T06:52:03.000Z</time>
      </trkpt>
      <trkpt lat="42.76723" lon="1.55476">
        <ele>896</ele>
        <time>2026-06-28T06:52:04.000Z</time>
      </trkpt>
      <trkpt lat="42.76722" lon="1.55478">
        <ele>895</ele>
        <time>2026-06-28T06:52:05.000Z</time>
      </trkpt>
      <trkpt lat="42.76722" lon="1.55481">
        <ele>894</ele>
        <time>2026-06-28T06:52:06.000Z</time>
      </trkpt>
      <trkpt lat="42.76721" lon="1.55482">
        <ele>893</ele>
        <time>2026-06-28T06:52:07.000Z</time>
      </trkpt>
      <trkpt lat="42.76721" lon="1.55483">
        <ele>893</ele>
        <time>2026-06-28T06:52:08.000Z</time>
      </trkpt>
      <trkpt lat="42.7672" lon="1.55484">
        <ele>893</ele>
        <time>2026-06-28T06:52:09.000Z</time>
      </trkpt>
      <trkpt lat="42.7672" lon="1.55484">
        <ele>892</ele>
        <time>2026-06-28T06:52:10.000Z</time>
      </trkpt>
      <trkpt lat="42.7672" lon="1.55485">
        <ele>892</ele>
        <time>2026-06-28T06:52:11.000Z</time>
      </trkpt>
      <trkpt lat="42.76722" lon="1.55486">
        <ele>892</ele>
        <time>2026-06-28T06:52:12.000Z</time>
      </trkpt>
      <trkpt lat="42.76722" lon="1.55487">
        <ele>891</ele>
        <time>2026-06-28T06:52:13.000Z</time>
      </trkpt>
      <trkpt lat="42.76722" lon="1.55487">
        <ele>891</ele>
        <time>2026-06-28T06:52:14.000Z</time>
      </trkpt>
      <trkpt lat="42.76721" lon="1.55487">
        <ele>891</ele>
        <time>2026-06-28T06:52:15.000Z</time>
      </trkpt>
      <trkpt lat="42.76721" lon="1.55486">
        <ele>890</ele>
        <time>2026-06-28T06:52:16.000Z</time>
      </trkpt>
      <trkpt lat="42.76721" lon="1.55487">
        <ele>889</ele>
        <time>2026-06-28T06:52:17.000Z</time>
      </trkpt>
      <trkpt lat="42.76721" lon="1.55488">
        <ele>889</ele>
        <time>2026-06-28T06:52:18.000Z</time>
      </trkpt>
      <trkpt lat="42.76721" lon="1.55488">
        <ele>889</ele>
        <time>2026-06-28T06:52:19.000Z</time>
      </trkpt>
      <trkpt lat="42.76721" lon="1.55489">
        <ele>888</ele>
        <time>2026-06-28T06:52:20.000Z</time>
      </trkpt>
      <trkpt lat="42.76721" lon="1.5549">
        <ele>887</ele>
        <time>2026-06-28T06:52:21.000Z</time>
      </trkpt>
      <trkpt lat="42.76721" lon="1.55491">
        <ele>887</ele>
        <time>2026-06-28T06:52:22.000Z</time>
      </trkpt>
      <trkpt lat="42.76722" lon="1.55491">
        <ele>887</ele>
        <time>2026-06-28T06:52:23.000Z</time>
      </trkpt>
      <trkpt lat="42.76724" lon="1.55491">
        <ele>886</ele>
        <time>2026-06-28T06:52:24.000Z</time>
      </trkpt>
      <trkpt lat="42.76725" lon="1.5549">
        <ele>886</ele>
        <time>2026-06-28T06:52:25.000Z</time>
      </trkpt>
      <trkpt lat="42.76726" lon="1.5549">
        <ele>886</ele>
        <time>2026-06-28T06:52:26.000Z</time>
      </trkpt>
      <trkpt lat="42.76727" lon="1.5549">
        <ele>885</ele>
        <time>2026-06-28T06:52:27.000Z</time>
      </trkpt>
      <trkpt lat="42.76729" lon="1.55491">
        <ele>884</ele>
        <time>2026-06-28T06:52:28.000Z</time>
      </trkpt>
      <trkpt lat="42.7673" lon="1.55492">
        <ele>883</ele>
        <time>2026-06-28T06:52:29.000Z</time>
      </trkpt>
      <trkpt lat="42.76731" lon="1.55493">
        <ele>882</ele>
        <time>2026-06-28T06:52:30.000Z</time>
      </trkpt>
      <trkpt lat="42.76731" lon="1.55494">
        <ele>880</ele>
        <time>2026-06-28T06:52:31.000Z</time>
      </trkpt>
      <trkpt lat="42.76731" lon="1.55497">
        <ele>879</ele>
        <time>2026-06-28T06:52:32.000Z</time>
      </trkpt>
      <trkpt lat="42.76731" lon="1.55499">
        <ele>877</ele>
        <time>2026-06-28T06:52:33.000Z</time>
      </trkpt>
      <trkpt lat="42.76731" lon="1.55502">
        <ele>874</ele>
        <time>2026-06-28T06:52:34.000Z</time>
      </trkpt>
      <trkpt lat="42.76732" lon="1.55505">
        <ele>872</ele>
        <time>2026-06-28T06:52:35.000Z</time>
      </trkpt>
      <trkpt lat="42.76731" lon="1.5551">
        <ele>872</ele>
        <time>2026-06-28T06:52:36.000Z</time>
      </trkpt>
      <trkpt lat="42.76729" lon="1.55513">
        <ele>872</ele>
        <time>2026-06-28T06:52:37.000Z</time>
      </trkpt>
      <trkpt lat="42.76727" lon="1.55517">
        <ele>870</ele>
        <time>2026-06-28T06:52:38.000Z</time>
      </trkpt>
      <trkpt lat="42.76726" lon="1.55521">
        <ele>871</ele>
        <time>2026-06-28T06:52:39.000Z</time>
      </trkpt>
      <trkpt lat="42.76726" lon="1.55525">
        <ele>870</ele>
        <time>2026-06-28T06:52:40.000Z</time>
      </trkpt>
      <trkpt lat="42.76729" lon="1.55528">
        <ele>870</ele>
        <time>2026-06-28T06:52:41.000Z</time>
      </trkpt>
      <trkpt lat="42.76732" lon="1.55531">
        <ele>869</ele>
        <time>2026-06-28T06:52:42.000Z</time>
      </trkpt>
      <trkpt lat="42.76734" lon="1.55535">
        <ele>869</ele>
        <time>2026-06-28T06:52:43.000Z</time>
      </trkpt>
      <trkpt lat="42.76734" lon="1.5554">
        <ele>868</ele>
        <time>2026-06-28T06:52:44.000Z</time>
      </trkpt>
      <trkpt lat="42.76734" lon="1.55546">
        <ele>868</ele>
        <time>2026-06-28T06:52:45.000Z</time>
      </trkpt>
      <trkpt lat="42.76734" lon="1.55554">
        <ele>866</ele>
        <time>2026-06-28T06:52:46.000Z</time>
      </trkpt>
      <trkpt lat="42.76732" lon="1.55562">
        <ele>865</ele>
        <time>2026-06-28T06:52:47.000Z</time>
      </trkpt>
      <trkpt lat="42.7673" lon="1.55569">
        <ele>865</ele>
        <time>2026-06-28T06:52:48.000Z</time>
      </trkpt>
      <trkpt lat="42.76728" lon="1.55573">
        <ele>865</ele>
        <time>2026-06-28T06:52:49.000Z</time>
      </trkpt>
      <trkpt lat="42.76727" lon="1.55576">
        <ele>864</ele>
        <time>2026-06-28T06:52:50.000Z</time>
      </trkpt>
      <trkpt lat="42.76728" lon="1.5558">
        <ele>864</ele>
        <time>2026-06-28T06:52:51.000Z</time>
      </trkpt>
      <trkpt lat="42.7673" lon="1.55583">
        <ele>864</ele>
        <time>2026-06-28T06:52:52.000Z</time>
      </trkpt>
      <trkpt lat="42.7673" lon="1.55587">
        <ele>864</ele>
        <time>2026-06-28T06:52:53.000Z</time>
      </trkpt>
      <trkpt lat="42.76729" lon="1.55592">
        <ele>863</ele>
        <time>2026-06-28T06:52:54.000Z</time>
      </trkpt>
      <trkpt lat="42.76727" lon="1.55598">
        <ele>862</ele>
        <time>2026-06-28T06:52:55.000Z</time>
      </trkpt>
      <trkpt lat="42.76726" lon="1.55603">
        <ele>861</ele>
        <time>2026-06-28T06:52:56.000Z</time>
      </trkpt>
      <trkpt lat="42.76727" lon="1.55607">
        <ele>860</ele>
        <time>2026-06-28T06:52:57.000Z</time>
      </trkpt>
      <trkpt lat="42.76727" lon="1.55613">
        <ele>859</ele>
        <time>2026-06-28T06:52:58.000Z</time>
      </trkpt>
      <trkpt lat="42.76725" lon="1.5562">
        <ele>858</ele>
        <time>2026-06-28T06:52:59.000Z</time>
      </trkpt>
      <trkpt lat="42.76725" lon="1.55628">
        <ele>856</ele>
        <time>2026-06-28T06:53:00.000Z</time>
      </trkpt>
      <trkpt lat="42.76724" lon="1.55633">
        <ele>854</ele>
        <time>2026-06-28T06:53:01.000Z</time>
      </trkpt>
      <trkpt lat="42.76722" lon="1.5564">
        <ele>853</ele>
        <time>2026-06-28T06:53:02.000Z</time>
      </trkpt>
      <trkpt lat="42.7672" lon="1.55647">
        <ele>851</ele>
        <time>2026-06-28T06:53:03.000Z</time>
      </trkpt>
      <trkpt lat="42.76718" lon="1.55653">
        <ele>850</ele>
        <time>2026-06-28T06:53:04.000Z</time>
      </trkpt>
      <trkpt lat="42.76717" lon="1.5566">
        <ele>849</ele>
        <time>2026-06-28T06:53:05.000Z</time>
      </trkpt>
      <trkpt lat="42.76715" lon="1.55666">
        <ele>847</ele>
        <time>2026-06-28T06:53:06.000Z</time>
      </trkpt>
      <trkpt lat="42.76714" lon="1.55672">
        <ele>847</ele>
        <time>2026-06-28T06:53:07.000Z</time>
      </trkpt>
      <trkpt lat="42.76714" lon="1.55678">
        <ele>846</ele>
        <time>2026-06-28T06:53:08.000Z</time>
      </trkpt>
      <trkpt lat="42.76713" lon="1.55685">
        <ele>845</ele>
        <time>2026-06-28T06:53:09.000Z</time>
      </trkpt>
      <trkpt lat="42.76713" lon="1.55692">
        <ele>843</ele>
        <time>2026-06-28T06:53:10.000Z</time>
      </trkpt>
      <trkpt lat="42.7671" lon="1.55702">
        <ele>842</ele>
        <time>2026-06-28T06:53:11.000Z</time>
      </trkpt>
      <trkpt lat="42.76709" lon="1.55711">
        <ele>841</ele>
        <time>2026-06-28T06:53:12.000Z</time>
      </trkpt>
      <trkpt lat="42.76707" lon="1.55721">
        <ele>841</ele>
        <time>2026-06-28T06:53:13.000Z</time>
      </trkpt>
      <trkpt lat="42.76705" lon="1.55729">
        <ele>840</ele>
        <time>2026-06-28T06:53:14.000Z</time>
      </trkpt>
      <trkpt lat="42.76702" lon="1.55736">
        <ele>838</ele>
        <time>2026-06-28T06:53:15.000Z</time>
      </trkpt>
      <trkpt lat="42.76699" lon="1.55741">
        <ele>837</ele>
        <time>2026-06-28T06:53:16.000Z</time>
      </trkpt>
      <trkpt lat="42.76697" lon="1.55746">
        <ele>836</ele>
        <time>2026-06-28T06:53:17.000Z</time>
      </trkpt>
      <trkpt lat="42.76697" lon="1.55754">
        <ele>834</ele>
        <time>2026-06-28T06:53:18.000Z</time>
      </trkpt>
      <trkpt lat="42.76699" lon="1.55764">
        <ele>833</ele>
        <time>2026-06-28T06:53:19.000Z</time>
      </trkpt>
      <trkpt lat="42.76702" lon="1.55771">
        <ele>832</ele>
        <time>2026-06-28T06:53:20.000Z</time>
      </trkpt>
      <trkpt lat="42.76704" lon="1.5578">
        <ele>831</ele>
        <time>2026-06-28T06:53:21.000Z</time>
      </trkpt>
      <trkpt lat="42.76704" lon="1.5579">
        <ele>830</ele>
        <time>2026-06-28T06:53:22.000Z</time>
      </trkpt>
      <trkpt lat="42.76703" lon="1.55802">
        <ele>829</ele>
        <time>2026-06-28T06:53:23.000Z</time>
      </trkpt>
      <trkpt lat="42.76699" lon="1.55814">
        <ele>827</ele>
        <time>2026-06-28T06:53:24.000Z</time>
      </trkpt>
      <trkpt lat="42.76697" lon="1.55826">
        <ele>825</ele>
        <time>2026-06-28T06:53:25.000Z</time>
      </trkpt>
      <trkpt lat="42.76695" lon="1.55839">
        <ele>823</ele>
        <time>2026-06-28T06:53:26.000Z</time>
      </trkpt>
      <trkpt lat="42.76692" lon="1.55852">
        <ele>820</ele>
        <time>2026-06-28T06:53:27.000Z</time>
      </trkpt>
      <trkpt lat="42.76688" lon="1.55864">
        <ele>818</ele>
        <time>2026-06-28T06:53:28.000Z</time>
      </trkpt>
      <trkpt lat="42.76684" lon="1.55877">
        <ele>816</ele>
        <time>2026-06-28T06:53:29.000Z</time>
      </trkpt>
      <trkpt lat="42.76679" lon="1.5589">
        <ele>815</ele>
        <time>2026-06-28T06:53:30.000Z</time>
      </trkpt>
      <trkpt lat="42.76674" lon="1.55901">
        <ele>814</ele>
        <time>2026-06-28T06:53:31.000Z</time>
      </trkpt>
      <trkpt lat="42.7667" lon="1.5591">
        <ele>813</ele>
        <time>2026-06-28T06:53:32.000Z</time>
      </trkpt>
      <trkpt lat="42.76667" lon="1.55916">
        <ele>811</ele>
        <time>2026-06-28T06:53:33.000Z</time>
      </trkpt>
      <trkpt lat="42.76663" lon="1.55922">
        <ele>810</ele>
        <time>2026-06-28T06:53:34.000Z</time>
      </trkpt>
      <trkpt lat="42.76658" lon="1.55928">
        <ele>809</ele>
        <time>2026-06-28T06:53:35.000Z</time>
      </trkpt>
      <trkpt lat="42.76653" lon="1.55934">
        <ele>808</ele>
        <time>2026-06-28T06:53:36.000Z</time>
      </trkpt>
      <trkpt lat="42.76647" lon="1.55941">
        <ele>808</ele>
        <time>2026-06-28T06:53:37.000Z</time>
      </trkpt>
      <trkpt lat="42.76643" lon="1.55946">
        <ele>807</ele>
        <time>2026-06-28T06:53:38.000Z</time>
      </trkpt>
      <trkpt lat="42.76639" lon="1.55954">
        <ele>806</ele>
        <time>2026-06-28T06:53:39.000Z</time>
      </trkpt>
      <trkpt lat="42.76638" lon="1.55963">
        <ele>805</ele>
        <time>2026-06-28T06:53:40.000Z</time>
      </trkpt>
      <trkpt lat="42.76636" lon="1.55972">
        <ele>805</ele>
        <time>2026-06-28T06:53:41.000Z</time>
      </trkpt>
      <trkpt lat="42.76633" lon="1.55982">
        <ele>805</ele>
        <time>2026-06-28T06:53:42.000Z</time>
      </trkpt>
      <trkpt lat="42.76631" lon="1.55991">
        <ele>804</ele>
        <time>2026-06-28T06:53:43.000Z</time>
      </trkpt>
      <trkpt lat="42.76631" lon="1.55997">
        <ele>804</ele>
        <time>2026-06-28T06:53:44.000Z</time>
      </trkpt>
      <trkpt lat="42.7663" lon="1.56003">
        <ele>804</ele>
        <time>2026-06-28T06:53:45.000Z</time>
      </trkpt>
      <trkpt lat="42.76633" lon="1.56007">
        <ele>804</ele>
        <time>2026-06-28T06:53:46.000Z</time>
      </trkpt>
      <trkpt lat="42.76637" lon="1.56008">
        <ele>805</ele>
        <time>2026-06-28T06:53:47.000Z</time>
      </trkpt>
      <trkpt lat="42.76642" lon="1.56009">
        <ele>805</ele>
        <time>2026-06-28T06:53:48.000Z</time>
      </trkpt>
      <trkpt lat="42.76649" lon="1.56009">
        <ele>805</ele>
        <time>2026-06-28T06:53:49.000Z</time>
      </trkpt>
      <trkpt lat="42.76656" lon="1.56009">
        <ele>805</ele>
        <time>2026-06-28T06:53:50.000Z</time>
      </trkpt>
      <trkpt lat="42.76662" lon="1.56011">
        <ele>805</ele>
        <time>2026-06-28T06:53:51.000Z</time>
      </trkpt>
      <trkpt lat="42.76668" lon="1.56014">
        <ele>805</ele>
        <time>2026-06-28T06:53:52.000Z</time>
      </trkpt>
      <trkpt lat="42.76674" lon="1.56017">
        <ele>805</ele>
        <time>2026-06-28T06:53:53.000Z</time>
      </trkpt>
      <trkpt lat="42.76681" lon="1.5602">
        <ele>805</ele>
        <time>2026-06-28T06:53:54.000Z</time>
      </trkpt>
      <trkpt lat="42.76687" lon="1.56021">
        <ele>805</ele>
        <time>2026-06-28T06:53:55.000Z</time>
      </trkpt>
      <trkpt lat="42.76694" lon="1.56024">
        <ele>804</ele>
        <time>2026-06-28T06:53:56.000Z</time>
      </trkpt>
      <trkpt lat="42.767" lon="1.56025">
        <ele>804</ele>
        <time>2026-06-28T06:53:57.000Z</time>
      </trkpt>
      <trkpt lat="42.76705" lon="1.56028">
        <ele>804</ele>
        <time>2026-06-28T06:53:58.000Z</time>
      </trkpt>
      <trkpt lat="42.76711" lon="1.5603">
        <ele>804</ele>
        <time>2026-06-28T06:53:59.000Z</time>
      </trkpt>
      <trkpt lat="42.76716" lon="1.56033">
        <ele>803</ele>
        <time>2026-06-28T06:54:00.000Z</time>
      </trkpt>
      <trkpt lat="42.76723" lon="1.56036">
        <ele>802</ele>
        <time>2026-06-28T06:54:01.000Z</time>
      </trkpt>
      <trkpt lat="42.76729" lon="1.5604">
        <ele>800</ele>
        <time>2026-06-28T06:54:02.000Z</time>
      </trkpt>
      <trkpt lat="42.76736" lon="1.56043">
        <ele>800</ele>
        <time>2026-06-28T06:54:03.000Z</time>
      </trkpt>
      <trkpt lat="42.76742" lon="1.56047">
        <ele>799</ele>
        <time>2026-06-28T06:54:04.000Z</time>
      </trkpt>
      <trkpt lat="42.76748" lon="1.56053">
        <ele>799</ele>
        <time>2026-06-28T06:54:05.000Z</time>
      </trkpt>
      <trkpt lat="42.76752" lon="1.5606">
        <ele>798</ele>
        <time>2026-06-28T06:54:06.000Z</time>
      </trkpt>
      <trkpt lat="42.76754" lon="1.56069">
        <ele>798</ele>
        <time>2026-06-28T06:54:07.000Z</time>
      </trkpt>
      <trkpt lat="42.76755" lon="1.56078">
        <ele>798</ele>
        <time>2026-06-28T06:54:08.000Z</time>
      </trkpt>
      <trkpt lat="42.76757" lon="1.56087">
        <ele>797</ele>
        <time>2026-06-28T06:54:09.000Z</time>
      </trkpt>
      <trkpt lat="42.76758" lon="1.56097">
        <ele>797</ele>
        <time>2026-06-28T06:54:10.000Z</time>
      </trkpt>
      <trkpt lat="42.76759" lon="1.56105">
        <ele>796</ele>
        <time>2026-06-28T06:54:11.000Z</time>
      </trkpt>
      <trkpt lat="42.7676" lon="1.56114">
        <ele>795</ele>
        <time>2026-06-28T06:54:12.000Z</time>
      </trkpt>
      <trkpt lat="42.76759" lon="1.56122">
        <ele>795</ele>
        <time>2026-06-28T06:54:13.000Z</time>
      </trkpt>
      <trkpt lat="42.7676" lon="1.56131">
        <ele>794</ele>
        <time>2026-06-28T06:54:14.000Z</time>
      </trkpt>
      <trkpt lat="42.76761" lon="1.56139">
        <ele>794</ele>
        <time>2026-06-28T06:54:15.000Z</time>
      </trkpt>
      <trkpt lat="42.76764" lon="1.56148">
        <ele>793</ele>
        <time>2026-06-28T06:54:16.000Z</time>
      </trkpt>
      <trkpt lat="42.76768" lon="1.56157">
        <ele>793</ele>
        <time>2026-06-28T06:54:17.000Z</time>
      </trkpt>
      <trkpt lat="42.76773" lon="1.56165">
        <ele>793</ele>
        <time>2026-06-28T06:54:18.000Z</time>
      </trkpt>
      <trkpt lat="42.76777" lon="1.56172">
        <ele>792</ele>
        <time>2026-06-28T06:54:19.000Z</time>
      </trkpt>
      <trkpt lat="42.76781" lon="1.5618">
        <ele>792</ele>
        <time>2026-06-28T06:54:20.000Z</time>
      </trkpt>
      <trkpt lat="42.76784" lon="1.56189">
        <ele>792</ele>
        <time>2026-06-28T06:54:21.000Z</time>
      </trkpt>
      <trkpt lat="42.76787" lon="1.56198">
        <ele>792</ele>
        <time>2026-06-28T06:54:22.000Z</time>
      </trkpt>
      <trkpt lat="42.76791" lon="1.56206">
        <ele>792</ele>
        <time>2026-06-28T06:54:23.000Z</time>
      </trkpt>
      <trkpt lat="42.76796" lon="1.56212">
        <ele>792</ele>
        <time>2026-06-28T06:54:24.000Z</time>
      </trkpt>
      <trkpt lat="42.76801" lon="1.56216">
        <ele>792</ele>
        <time>2026-06-28T06:54:25.000Z</time>
      </trkpt>
      <trkpt lat="42.76806" lon="1.56219">
        <ele>792</ele>
        <time>2026-06-28T06:54:26.000Z</time>
      </trkpt>
      <trkpt lat="42.7681" lon="1.56221">
        <ele>792</ele>
        <time>2026-06-28T06:54:27.000Z</time>
      </trkpt>
      <trkpt lat="42.76813" lon="1.56223">
        <ele>791</ele>
        <time>2026-06-28T06:54:28.000Z</time>
      </trkpt>
      <trkpt lat="42.76816" lon="1.56227">
        <ele>791</ele>
        <time>2026-06-28T06:54:29.000Z</time>
      </trkpt>
      <trkpt lat="42.76821" lon="1.56231">
        <ele>791</ele>
        <time>2026-06-28T06:54:30.000Z</time>
      </trkpt>
      <trkpt lat="42.76826" lon="1.56235">
        <ele>791</ele>
        <time>2026-06-28T06:54:31.000Z</time>
      </trkpt>
      <trkpt lat="42.76832" lon="1.56238">
        <ele>790</ele>
        <time>2026-06-28T06:54:32.000Z</time>
      </trkpt>
      <trkpt lat="42.76839" lon="1.56241">
        <ele>789</ele>
        <time>2026-06-28T06:54:33.000Z</time>
      </trkpt>
      <trkpt lat="42.76845" lon="1.56244">
        <ele>789</ele>
        <time>2026-06-28T06:54:34.000Z</time>
      </trkpt>
      <trkpt lat="42.76851" lon="1.56249">
        <ele>789</ele>
        <time>2026-06-28T06:54:35.000Z</time>
      </trkpt>
      <trkpt lat="42.76856" lon="1.56254">
        <ele>788</ele>
        <time>2026-06-28T06:54:36.000Z</time>
      </trkpt>
      <trkpt lat="42.76862" lon="1.56258">
        <ele>788</ele>
        <time>2026-06-28T06:54:37.000Z</time>
      </trkpt>
      <trkpt lat="42.76869" lon="1.5626">
        <ele>787</ele>
        <time>2026-06-28T06:54:38.000Z</time>
      </trkpt>
      <trkpt lat="42.76874" lon="1.56261">
        <ele>787</ele>
        <time>2026-06-28T06:54:39.000Z</time>
      </trkpt>
      <trkpt lat="42.7688" lon="1.56262">
        <ele>787</ele>
        <time>2026-06-28T06:54:40.000Z</time>
      </trkpt>
      <trkpt lat="42.76886" lon="1.56263">
        <ele>787</ele>
        <time>2026-06-28T06:54:41.000Z</time>
      </trkpt>
      <trkpt lat="42.76893" lon="1.56263">
        <ele>787</ele>
        <time>2026-06-28T06:54:42.000Z</time>
      </trkpt>
      <trkpt lat="42.769" lon="1.56263">
        <ele>787</ele>
        <time>2026-06-28T06:54:43.000Z</time>
      </trkpt>
      <trkpt lat="42.76907" lon="1.56264">
        <ele>786</ele>
        <time>2026-06-28T06:54:44.000Z</time>
      </trkpt>
      <trkpt lat="42.76914" lon="1.56265">
        <ele>786</ele>
        <time>2026-06-28T06:54:45.000Z</time>
      </trkpt>
      <trkpt lat="42.76918" lon="1.56265">
        <ele>785</ele>
        <time>2026-06-28T06:54:46.000Z</time>
      </trkpt>
      <trkpt lat="42.76923" lon="1.56264">
        <ele>785</ele>
        <time>2026-06-28T06:54:47.000Z</time>
      </trkpt>
      <trkpt lat="42.76928" lon="1.56261">
        <ele>786</ele>
        <time>2026-06-28T06:54:48.000Z</time>
      </trkpt>
      <trkpt lat="42.76931" lon="1.56258">
        <ele>786</ele>
        <time>2026-06-28T06:54:49.000Z</time>
      </trkpt>
      <trkpt lat="42.76934" lon="1.56255">
        <ele>786</ele>
        <time>2026-06-28T06:54:50.000Z</time>
      </trkpt>
      <trkpt lat="42.76938" lon="1.5625">
        <ele>787</ele>
        <time>2026-06-28T06:54:51.000Z</time>
      </trkpt>
      <trkpt lat="42.76943" lon="1.56246">
        <ele>786</ele>
        <time>2026-06-28T06:54:52.000Z</time>
      </trkpt>
      <trkpt lat="42.76947" lon="1.56242">
        <ele>786</ele>
        <time>2026-06-28T06:54:53.000Z</time>
      </trkpt>
      <trkpt lat="42.76952" lon="1.56238">
        <ele>786</ele>
        <time>2026-06-28T06:54:54.000Z</time>
      </trkpt>
      <trkpt lat="42.76956" lon="1.56234">
        <ele>786</ele>
        <time>2026-06-28T06:54:55.000Z</time>
      </trkpt>
      <trkpt lat="42.7696" lon="1.5623">
        <ele>786</ele>
        <time>2026-06-28T06:54:56.000Z</time>
      </trkpt>
      <trkpt lat="42.76964" lon="1.56224">
        <ele>786</ele>
        <time>2026-06-28T06:54:57.000Z</time>
      </trkpt>
      <trkpt lat="42.7697" lon="1.56221">
        <ele>786</ele>
        <time>2026-06-28T06:54:58.000Z</time>
      </trkpt>
      <trkpt lat="42.76976" lon="1.56216">
        <ele>785</ele>
        <time>2026-06-28T06:54:59.000Z</time>
      </trkpt>
      <trkpt lat="42.76982" lon="1.56212">
        <ele>785</ele>
        <time>2026-06-28T06:55:00.000Z</time>
      </trkpt>
      <trkpt lat="42.76987" lon="1.56208">
        <ele>785</ele>
        <time>2026-06-28T06:55:01.000Z</time>
      </trkpt>
      <trkpt lat="42.76993" lon="1.56204">
        <ele>785</ele>
        <time>2026-06-28T06:55:02.000Z</time>
      </trkpt>
      <trkpt lat="42.76998" lon="1.562">
        <ele>785</ele>
        <time>2026-06-28T06:55:03.000Z</time>
      </trkpt>
      <trkpt lat="42.77002" lon="1.56196">
        <ele>784</ele>
        <time>2026-06-28T06:55:04.000Z</time>
      </trkpt>
      <trkpt lat="42.77005" lon="1.56189">
        <ele>784</ele>
        <time>2026-06-28T06:55:05.000Z</time>
      </trkpt>
      <trkpt lat="42.7701" lon="1.56181">
        <ele>783</ele>
        <time>2026-06-28T06:55:06.000Z</time>
      </trkpt>
      <trkpt lat="42.77016" lon="1.56173">
        <ele>784</ele>
        <time>2026-06-28T06:55:07.000Z</time>
      </trkpt>
      <trkpt lat="42.77022" lon="1.56165">
        <ele>783</ele>
        <time>2026-06-28T06:55:08.000Z</time>
      </trkpt>
      <trkpt lat="42.77027" lon="1.56161">
        <ele>783</ele>
        <time>2026-06-28T06:55:09.000Z</time>
      </trkpt>
      <trkpt lat="42.77031" lon="1.56158">
        <ele>782</ele>
        <time>2026-06-28T06:55:10.000Z</time>
      </trkpt>
      <trkpt lat="42.77037" lon="1.56152">
        <ele>782</ele>
        <time>2026-06-28T06:55:11.000Z</time>
      </trkpt>
      <trkpt lat="42.7704" lon="1.56147">
        <ele>782</ele>
        <time>2026-06-28T06:55:12.000Z</time>
      </trkpt>
      <trkpt lat="42.77044" lon="1.56143">
        <ele>782</ele>
        <time>2026-06-28T06:55:13.000Z</time>
      </trkpt>
      <trkpt lat="42.77048" lon="1.5614">
        <ele>783</ele>
        <time>2026-06-28T06:55:14.000Z</time>
      </trkpt>
      <trkpt lat="42.77052" lon="1.56138">
        <ele>783</ele>
        <time>2026-06-28T06:55:15.000Z</time>
      </trkpt>
      <trkpt lat="42.77056" lon="1.56136">
        <ele>782</ele>
        <time>2026-06-28T06:55:16.000Z</time>
      </trkpt>
      <trkpt lat="42.77059" lon="1.56135">
        <ele>782</ele>
        <time>2026-06-28T06:55:17.000Z</time>
      </trkpt>
      <trkpt lat="42.77064" lon="1.56134">
        <ele>782</ele>
        <time>2026-06-28T06:55:18.000Z</time>
      </trkpt>
      <trkpt lat="42.77066" lon="1.56132">
        <ele>781</ele>
        <time>2026-06-28T06:55:19.000Z</time>
      </trkpt>
      <trkpt lat="42.77069" lon="1.56131">
        <ele>781</ele>
        <time>2026-06-28T06:55:20.000Z</time>
      </trkpt>
      <trkpt lat="42.77071" lon="1.56128">
        <ele>781</ele>
        <time>2026-06-28T06:55:21.000Z</time>
      </trkpt>
      <trkpt lat="42.77075" lon="1.56126">
        <ele>781</ele>
        <time>2026-06-28T06:55:22.000Z</time>
      </trkpt>
      <trkpt lat="42.77079" lon="1.56123">
        <ele>781</ele>
        <time>2026-06-28T06:55:23.000Z</time>
      </trkpt>
      <trkpt lat="42.77082" lon="1.56119">
        <ele>780</ele>
        <time>2026-06-28T06:55:24.000Z</time>
      </trkpt>
      <trkpt lat="42.77086" lon="1.56115">
        <ele>780</ele>
        <time>2026-06-28T06:55:25.000Z</time>
      </trkpt>
      <trkpt lat="42.7709" lon="1.5611">
        <ele>779</ele>
        <time>2026-06-28T06:55:26.000Z</time>
      </trkpt>
      <trkpt lat="42.77094" lon="1.56104">
        <ele>780</ele>
        <time>2026-06-28T06:55:27.000Z</time>
      </trkpt>
      <trkpt lat="42.77096" lon="1.561">
        <ele>779</ele>
        <time>2026-06-28T06:55:28.000Z</time>
      </trkpt>
      <trkpt lat="42.77099" lon="1.56096">
        <ele>779</ele>
        <time>2026-06-28T06:55:29.000Z</time>
      </trkpt>
      <trkpt lat="42.77102" lon="1.56091">
        <ele>780</ele>
        <time>2026-06-28T06:55:30.000Z</time>
      </trkpt>
      <trkpt lat="42.77104" lon="1.56085">
        <ele>779</ele>
        <time>2026-06-28T06:55:31.000Z</time>
      </trkpt>
      <trkpt lat="42.77105" lon="1.5608">
        <ele>780</ele>
        <time>2026-06-28T06:55:32.000Z</time>
      </trkpt>
      <trkpt lat="42.77107" lon="1.56075">
        <ele>780</ele>
        <time>2026-06-28T06:55:33.000Z</time>
      </trkpt>
      <trkpt lat="42.7711" lon="1.56071">
        <ele>780</ele>
        <time>2026-06-28T06:55:34.000Z</time>
      </trkpt>
      <trkpt lat="42.77113" lon="1.56066">
        <ele>780</ele>
        <time>2026-06-28T06:55:35.000Z</time>
      </trkpt>
      <trkpt lat="42.77117" lon="1.56061">
        <ele>779</ele>
        <time>2026-06-28T06:55:36.000Z</time>
      </trkpt>
      <trkpt lat="42.77123" lon="1.56054">
        <ele>779</ele>
        <time>2026-06-28T06:55:37.000Z</time>
      </trkpt>
      <trkpt lat="42.77127" lon="1.56047">
        <ele>779</ele>
        <time>2026-06-28T06:55:38.000Z</time>
      </trkpt>
      <trkpt lat="42.77131" lon="1.56038">
        <ele>779</ele>
        <time>2026-06-28T06:55:39.000Z</time>
      </trkpt>
      <trkpt lat="42.77135" lon="1.56032">
        <ele>778</ele>
        <time>2026-06-28T06:55:40.000Z</time>
      </trkpt>
      <trkpt lat="42.77139" lon="1.56026">
        <ele>778</ele>
        <time>2026-06-28T06:55:41.000Z</time>
      </trkpt>
      <trkpt lat="42.77144" lon="1.56021">
        <ele>777</ele>
        <time>2026-06-28T06:55:42.000Z</time>
      </trkpt>
      <trkpt lat="42.7715" lon="1.56015">
        <ele>777</ele>
        <time>2026-06-28T06:55:43.000Z</time>
      </trkpt>
      <trkpt lat="42.77154" lon="1.5601">
        <ele>777</ele>
        <time>2026-06-28T06:55:44.000Z</time>
      </trkpt>
      <trkpt lat="42.77159" lon="1.56005">
        <ele>776</ele>
        <time>2026-06-28T06:55:45.000Z</time>
      </trkpt>
      <trkpt lat="42.77165" lon="1.56001">
        <ele>776</ele>
        <time>2026-06-28T06:55:46.000Z</time>
      </trkpt>
      <trkpt lat="42.77171" lon="1.55998">
        <ele>776</ele>
        <time>2026-06-28T06:55:47.000Z</time>
      </trkpt>
      <trkpt lat="42.77177" lon="1.55996">
        <ele>776</ele>
        <time>2026-06-28T06:55:48.000Z</time>
      </trkpt>
      <trkpt lat="42.77182" lon="1.55996">
        <ele>776</ele>
        <time>2026-06-28T06:55:49.000Z</time>
      </trkpt>
      <trkpt lat="42.77188" lon="1.55996">
        <ele>776</ele>
        <time>2026-06-28T06:55:50.000Z</time>
      </trkpt>
      <trkpt lat="42.77195" lon="1.55998">
        <ele>776</ele>
        <time>2026-06-28T06:55:51.000Z</time>
      </trkpt>
      <trkpt lat="42.77201" lon="1.55999">
        <ele>776</ele>
        <time>2026-06-28T06:55:52.000Z</time>
      </trkpt>
      <trkpt lat="42.77207" lon="1.56001">
        <ele>776</ele>
        <time>2026-06-28T06:55:53.000Z</time>
      </trkpt>
      <trkpt lat="42.77213" lon="1.56">
        <ele>776</ele>
        <time>2026-06-28T06:55:54.000Z</time>
      </trkpt>
      <trkpt lat="42.7722" lon="1.56">
        <ele>776</ele>
        <time>2026-06-28T06:55:55.000Z</time>
      </trkpt>
      <trkpt lat="42.77226" lon="1.56001">
        <ele>776</ele>
        <time>2026-06-28T06:55:56.000Z</time>
      </trkpt>
      <trkpt lat="42.77231" lon="1.56002">
        <ele>775</ele>
        <time>2026-06-28T06:55:57.000Z</time>
      </trkpt>
      <trkpt lat="42.77237" lon="1.56002">
        <ele>775</ele>
        <time>2026-06-28T06:55:58.000Z</time>
      </trkpt>
      <trkpt lat="42.77243" lon="1.56001">
        <ele>775</ele>
        <time>2026-06-28T06:55:59.000Z</time>
      </trkpt>
      <trkpt lat="42.7725" lon="1.56001">
        <ele>775</ele>
        <time>2026-06-28T06:56:00.000Z</time>
      </trkpt>
      <trkpt lat="42.77256" lon="1.56002">
        <ele>775</ele>
        <time>2026-06-28T06:56:01.000Z</time>
      </trkpt>
      <trkpt lat="42.77261" lon="1.56003">
        <ele>775</ele>
        <time>2026-06-28T06:56:02.000Z</time>
      </trkpt>
      <trkpt lat="42.77266" lon="1.56004">
        <ele>774</ele>
        <time>2026-06-28T06:56:03.000Z</time>
      </trkpt>
      <trkpt lat="42.7727" lon="1.56006">
        <ele>775</ele>
        <time>2026-06-28T06:56:04.000Z</time>
      </trkpt>
      <trkpt lat="42.77273" lon="1.56007">
        <ele>775</ele>
        <time>2026-06-28T06:56:05.000Z</time>
      </trkpt>
      <trkpt lat="42.77277" lon="1.5601">
        <ele>774</ele>
        <time>2026-06-28T06:56:06.000Z</time>
      </trkpt>
      <trkpt lat="42.77281" lon="1.56012">
        <ele>774</ele>
        <time>2026-06-28T06:56:07.000Z</time>
      </trkpt>
      <trkpt lat="42.77285" lon="1.56014">
        <ele>774</ele>
        <time>2026-06-28T06:56:08.000Z</time>
      </trkpt>
      <trkpt lat="42.7729" lon="1.56015">
        <ele>774</ele>
        <time>2026-06-28T06:56:09.000Z</time>
      </trkpt>
      <trkpt lat="42.77294" lon="1.56015">
        <ele>774</ele>
        <time>2026-06-28T06:56:10.000Z</time>
      </trkpt>
      <trkpt lat="42.77297" lon="1.56015">
        <ele>774</ele>
        <time>2026-06-28T06:56:11.000Z</time>
      </trkpt>
      <trkpt lat="42.773" lon="1.56015">
        <ele>774</ele>
        <time>2026-06-28T06:56:12.000Z</time>
      </trkpt>
      <trkpt lat="42.77303" lon="1.56016">
        <ele>773</ele>
        <time>2026-06-28T06:56:13.000Z</time>
      </trkpt>
      <trkpt lat="42.77307" lon="1.56017">
        <ele>773</ele>
        <time>2026-06-28T06:56:14.000Z</time>
      </trkpt>
      <trkpt lat="42.7731" lon="1.56019">
        <ele>773</ele>
        <time>2026-06-28T06:56:15.000Z</time>
      </trkpt>
      <trkpt lat="42.77315" lon="1.56021">
        <ele>774</ele>
        <time>2026-06-28T06:56:16.000Z</time>
      </trkpt>
      <trkpt lat="42.7732" lon="1.56021">
        <ele>773</ele>
        <time>2026-06-28T06:56:17.000Z</time>
      </trkpt>
      <trkpt lat="42.77324" lon="1.56021">
        <ele>773</ele>
        <time>2026-06-28T06:56:18.000Z</time>
      </trkpt>
      <trkpt lat="42.77328" lon="1.56024">
        <ele>772</ele>
        <time>2026-06-28T06:56:19.000Z</time>
      </trkpt>
      <trkpt lat="42.77332" lon="1.56026">
        <ele>772</ele>
        <time>2026-06-28T06:56:20.000Z</time>
      </trkpt>
      <trkpt lat="42.77335" lon="1.56028">
        <ele>772</ele>
        <time>2026-06-28T06:56:21.000Z</time>
      </trkpt>
      <trkpt lat="42.77339" lon="1.56031">
        <ele>772</ele>
        <time>2026-06-28T06:56:22.000Z</time>
      </trkpt>
      <trkpt lat="42.77343" lon="1.56034">
        <ele>772</ele>
        <time>2026-06-28T06:56:23.000Z</time>
      </trkpt>
      <trkpt lat="42.77347" lon="1.56038">
        <ele>772</ele>
        <time>2026-06-28T06:56:24.000Z</time>
      </trkpt>
      <trkpt lat="42.77353" lon="1.5604">
        <ele>770</ele>
        <time>2026-06-28T06:56:25.000Z</time>
      </trkpt>
      <trkpt lat="42.77358" lon="1.56044">
        <ele>769</ele>
        <time>2026-06-28T06:56:26.000Z</time>
      </trkpt>
      <trkpt lat="42.77363" lon="1.56048">
        <ele>767</ele>
        <time>2026-06-28T06:56:27.000Z</time>
      </trkpt>
      <trkpt lat="42.77367" lon="1.56052">
        <ele>766</ele>
        <time>2026-06-28T06:56:28.000Z</time>
      </trkpt>
      <trkpt lat="42.77372" lon="1.56056">
        <ele>764</ele>
        <time>2026-06-28T06:56:29.000Z</time>
      </trkpt>
      <trkpt lat="42.77378" lon="1.5606">
        <ele>764</ele>
        <time>2026-06-28T06:56:30.000Z</time>
      </trkpt>
      <trkpt lat="42.77384" lon="1.56065">
        <ele>763</ele>
        <time>2026-06-28T06:56:31.000Z</time>
      </trkpt>
      <trkpt lat="42.7739" lon="1.56067">
        <ele>763</ele>
        <time>2026-06-28T06:56:32.000Z</time>
      </trkpt>
      <trkpt lat="42.77395" lon="1.56068">
        <ele>762</ele>
        <time>2026-06-28T06:56:33.000Z</time>
      </trkpt>
      <trkpt lat="42.77401" lon="1.56068">
        <ele>761</ele>
        <time>2026-06-28T06:56:34.000Z</time>
      </trkpt>
      <trkpt lat="42.77405" lon="1.56067">
        <ele>760</ele>
        <time>2026-06-28T06:56:35.000Z</time>
      </trkpt>
      <trkpt lat="42.7741" lon="1.56065">
        <ele>760</ele>
        <time>2026-06-28T06:56:36.000Z</time>
      </trkpt>
      <trkpt lat="42.77414" lon="1.56063">
        <ele>760</ele>
        <time>2026-06-28T06:56:37.000Z</time>
      </trkpt>
      <trkpt lat="42.77419" lon="1.56062">
        <ele>758</ele>
        <time>2026-06-28T06:56:38.000Z</time>
      </trkpt>
      <trkpt lat="42.77422" lon="1.56059">
        <ele>757</ele>
        <time>2026-06-28T06:56:39.000Z</time>
      </trkpt>
      <trkpt lat="42.77425" lon="1.56058">
        <ele>757</ele>
        <time>2026-06-28T06:56:40.000Z</time>
      </trkpt>
      <trkpt lat="42.77426" lon="1.56057">
        <ele>757</ele>
        <time>2026-06-28T06:56:41.000Z</time>
      </trkpt>
      <trkpt lat="42.77427" lon="1.56057">
        <ele>757</ele>
        <time>2026-06-28T06:56:42.000Z</time>
      </trkpt>
      <trkpt lat="42.77428" lon="1.56057">
        <ele>757</ele>
        <time>2026-06-28T06:56:43.000Z</time>
      </trkpt>
      <trkpt lat="42.7743" lon="1.56056">
        <ele>757</ele>
        <time>2026-06-28T06:56:44.000Z</time>
      </trkpt>
      <trkpt lat="42.77432" lon="1.56055">
        <ele>757</ele>
        <time>2026-06-28T06:56:45.000Z</time>
      </trkpt>
      <trkpt lat="42.77434" lon="1.56052">
        <ele>756</ele>
        <time>2026-06-28T06:56:46.000Z</time>
      </trkpt>
      <trkpt lat="42.77437" lon="1.5605">
        <ele>757</ele>
        <time>2026-06-28T06:56:47.000Z</time>
      </trkpt>
      <trkpt lat="42.7744" lon="1.56049">
        <ele>757</ele>
        <time>2026-06-28T06:56:48.000Z</time>
      </trkpt>
      <trkpt lat="42.77444" lon="1.56048">
        <ele>757</ele>
        <time>2026-06-28T06:56:49.000Z</time>
      </trkpt>
      <trkpt lat="42.77447" lon="1.56046">
        <ele>757</ele>
        <time>2026-06-28T06:56:50.000Z</time>
      </trkpt>
      <trkpt lat="42.7745" lon="1.56045">
        <ele>757</ele>
        <time>2026-06-28T06:56:51.000Z</time>
      </trkpt>
      <trkpt lat="42.77454" lon="1.56044">
        <ele>757</ele>
        <time>2026-06-28T06:56:52.000Z</time>
      </trkpt>
      <trkpt lat="42.77458" lon="1.56044">
        <ele>756</ele>
        <time>2026-06-28T06:56:53.000Z</time>
      </trkpt>
      <trkpt lat="42.77462" lon="1.56043">
        <ele>756</ele>
        <time>2026-06-28T06:56:54.000Z</time>
      </trkpt>
      <trkpt lat="42.77466" lon="1.56043">
        <ele>756</ele>
        <time>2026-06-28T06:56:55.000Z</time>
      </trkpt>
      <trkpt lat="42.77471" lon="1.56043">
        <ele>755</ele>
        <time>2026-06-28T06:56:56.000Z</time>
      </trkpt>
      <trkpt lat="42.77475" lon="1.56041">
        <ele>755</ele>
        <time>2026-06-28T06:56:57.000Z</time>
      </trkpt>
      <trkpt lat="42.77479" lon="1.56039">
        <ele>755</ele>
        <time>2026-06-28T06:56:58.000Z</time>
      </trkpt>
      <trkpt lat="42.77484" lon="1.56038">
        <ele>754</ele>
        <time>2026-06-28T06:56:59.000Z</time>
      </trkpt>
      <trkpt lat="42.77489" lon="1.56038">
        <ele>755</ele>
        <time>2026-06-28T06:57:00.000Z</time>
      </trkpt>
      <trkpt lat="42.77495" lon="1.56037">
        <ele>754</ele>
        <time>2026-06-28T06:57:01.000Z</time>
      </trkpt>
      <trkpt lat="42.77499" lon="1.56037">
        <ele>754</ele>
        <time>2026-06-28T06:57:02.000Z</time>
      </trkpt>
      <trkpt lat="42.77503" lon="1.56036">
        <ele>754</ele>
        <time>2026-06-28T06:57:03.000Z</time>
      </trkpt>
      <trkpt lat="42.77509" lon="1.56036">
        <ele>754</ele>
        <time>2026-06-28T06:57:04.000Z</time>
      </trkpt>
      <trkpt lat="42.77515" lon="1.56036">
        <ele>753</ele>
        <time>2026-06-28T06:57:05.000Z</time>
      </trkpt>
      <trkpt lat="42.7752" lon="1.56037">
        <ele>752</ele>
        <time>2026-06-28T06:57:06.000Z</time>
      </trkpt>
      <trkpt lat="42.77526" lon="1.56038">
        <ele>752</ele>
        <time>2026-06-28T06:57:07.000Z</time>
      </trkpt>
      <trkpt lat="42.77531" lon="1.56038">
        <ele>752</ele>
        <time>2026-06-28T06:57:08.000Z</time>
      </trkpt>
      <trkpt lat="42.77536" lon="1.56038">
        <ele>751</ele>
        <time>2026-06-28T06:57:09.000Z</time>
      </trkpt>
      <trkpt lat="42.7754" lon="1.56037">
        <ele>751</ele>
        <time>2026-06-28T06:57:10.000Z</time>
      </trkpt>
      <trkpt lat="42.77545" lon="1.56037">
        <ele>750</ele>
        <time>2026-06-28T06:57:11.000Z</time>
      </trkpt>
      <trkpt lat="42.77549" lon="1.56036">
        <ele>749</ele>
        <time>2026-06-28T06:57:12.000Z</time>
      </trkpt>
      <trkpt lat="42.77554" lon="1.56036">
        <ele>750</ele>
        <time>2026-06-28T06:57:13.000Z</time>
      </trkpt>
      <trkpt lat="42.77557" lon="1.56036">
        <ele>749</ele>
        <time>2026-06-28T06:57:14.000Z</time>
      </trkpt>
      <trkpt lat="42.77561" lon="1.56035">
        <ele>750</ele>
        <time>2026-06-28T06:57:15.000Z</time>
      </trkpt>
      <trkpt lat="42.77565" lon="1.56035">
        <ele>750</ele>
        <time>2026-06-28T06:57:16.000Z</time>
      </trkpt>
      <trkpt lat="42.77569" lon="1.56035">
        <ele>750</ele>
        <time>2026-06-28T06:57:17.000Z</time>
      </trkpt>
      <trkpt lat="42.77572" lon="1.56035">
        <ele>750</ele>
        <time>2026-06-28T06:57:18.000Z</time>
      </trkpt>
      <trkpt lat="42.77575" lon="1.56036">
        <ele>751</ele>
        <time>2026-06-28T06:57:19.000Z</time>
      </trkpt>
      <trkpt lat="42.77578" lon="1.56037">
        <ele>751</ele>
        <time>2026-06-28T06:57:20.000Z</time>
      </trkpt>
      <trkpt lat="42.77582" lon="1.56039">
        <ele>751</ele>
        <time>2026-06-28T06:57:21.000Z</time>
      </trkpt>
      <trkpt lat="42.77584" lon="1.5604">
        <ele>752</ele>
        <time>2026-06-28T06:57:22.000Z</time>
      </trkpt>
      <trkpt lat="42.77585" lon="1.56041">
        <ele>752</ele>
        <time>2026-06-28T06:57:23.000Z</time>
      </trkpt>
      <trkpt lat="42.77585" lon="1.56042">
        <ele>752</ele>
        <time>2026-06-28T06:57:24.000Z</time>
      </trkpt>
      <trkpt lat="42.77585" lon="1.56042">
        <ele>752</ele>
        <time>2026-06-28T06:57:25.000Z</time>
      </trkpt>
      <trkpt lat="42.77585" lon="1.56044">
        <ele>752</ele>
        <time>2026-06-28T06:57:26.000Z</time>
      </trkpt>
      <trkpt lat="42.77585" lon="1.56043">
        <ele>752</ele>
        <time>2026-06-28T06:57:27.000Z</time>
      </trkpt>
      <trkpt lat="42.77585" lon="1.56043">
        <ele>752</ele>
        <time>2026-06-28T06:57:28.000Z</time>
      </trkpt>
      <trkpt lat="42.77585" lon="1.56044">
        <ele>752</ele>
        <time>2026-06-28T06:57:29.000Z</time>
      </trkpt>
      <trkpt lat="42.77586" lon="1.56045">
        <ele>752</ele>
        <time>2026-06-28T06:57:30.000Z</time>
      </trkpt>
      <trkpt lat="42.77585" lon="1.56045">
        <ele>752</ele>
        <time>2026-06-28T06:57:31.000Z</time>
      </trkpt>
      <trkpt lat="42.77585" lon="1.56046">
        <ele>752</ele>
        <time>2026-06-28T06:57:32.000Z</time>
      </trkpt>
      <trkpt lat="42.77585" lon="1.56046">
        <ele>752</ele>
        <time>2026-06-28T06:57:33.000Z</time>
      </trkpt>
      <trkpt lat="42.77585" lon="1.56047">
        <ele>753</ele>
        <time>2026-06-28T06:57:34.000Z</time>
      </trkpt>
      <trkpt lat="42.77585" lon="1.56047">
        <ele>753</ele>
        <time>2026-06-28T06:57:35.000Z</time>
      </trkpt>
      <trkpt lat="42.77585" lon="1.56047">
        <ele>753</ele>
        <time>2026-06-28T06:57:36.000Z</time>
      </trkpt>
      <trkpt lat="42.77586" lon="1.56047">
        <ele>753</ele>
        <time>2026-06-28T06:57:37.000Z</time>
      </trkpt>
      <trkpt lat="42.77586" lon="1.56047">
        <ele>753</ele>
        <time>2026-06-28T06:57:38.000Z</time>
      </trkpt>
      <trkpt lat="42.77587" lon="1.56048">
        <ele>753</ele>
        <time>2026-06-28T06:57:39.000Z</time>
      </trkpt>
      <trkpt lat="42.77587" lon="1.56048">
        <ele>753</ele>
        <time>2026-06-28T06:57:40.000Z</time>
      </trkpt>
      <trkpt lat="42.77587" lon="1.56048">
        <ele>754</ele>
        <time>2026-06-28T06:57:41.000Z</time>
      </trkpt>
      <trkpt lat="42.77588" lon="1.56048">
        <ele>754</ele>
        <time>2026-06-28T06:57:42.000Z</time>
      </trkpt>
      <trkpt lat="42.77588" lon="1.56048">
        <ele>754</ele>
        <time>2026-06-28T06:57:43.000Z</time>
      </trkpt>
      <trkpt lat="42.77588" lon="1.56048">
        <ele>754</ele>
        <time>2026-06-28T06:57:44.000Z</time>
      </trkpt>
      <trkpt lat="42.77588" lon="1.56048">
        <ele>754</ele>
        <time>2026-06-28T06:57:45.000Z</time>
      </trkpt>
      <trkpt lat="42.77588" lon="1.56048">
        <ele>755</ele>
        <time>2026-06-28T06:57:46.000Z</time>
      </trkpt>
      <trkpt lat="42.77589" lon="1.56048">
        <ele>755</ele>
        <time>2026-06-28T06:57:47.000Z</time>
      </trkpt>
      <trkpt lat="42.77591" lon="1.56048">
        <ele>755</ele>
        <time>2026-06-28T06:57:48.000Z</time>
      </trkpt>
      <trkpt lat="42.77592" lon="1.56049">
        <ele>755</ele>
        <time>2026-06-28T06:57:49.000Z</time>
      </trkpt>
      <trkpt lat="42.77593" lon="1.56049">
        <ele>755</ele>
        <time>2026-06-28T06:57:50.000Z</time>
      </trkpt>
      <trkpt lat="42.77595" lon="1.5605">
        <ele>755</ele>
        <time>2026-06-28T06:57:51.000Z</time>
      </trkpt>
      <trkpt lat="42.77596" lon="1.5605">
        <ele>755</ele>
        <time>2026-06-28T06:57:52.000Z</time>
      </trkpt>
      <trkpt lat="42.77598" lon="1.5605">
        <ele>755</ele>
        <time>2026-06-28T06:57:53.000Z</time>
      </trkpt>
      <trkpt lat="42.776" lon="1.56051">
        <ele>755</ele>
        <time>2026-06-28T06:57:54.000Z</time>
      </trkpt>
      <trkpt lat="42.77602" lon="1.56051">
        <ele>755</ele>
        <time>2026-06-28T06:57:55.000Z</time>
      </trkpt>
      <trkpt lat="42.77604" lon="1.56051">
        <ele>756</ele>
        <time>2026-06-28T06:57:56.000Z</time>
      </trkpt>
      <trkpt lat="42.77605" lon="1.56051">
        <ele>755</ele>
        <time>2026-06-28T06:57:57.000Z</time>
      </trkpt>
      <trkpt lat="42.77606" lon="1.56051">
        <ele>755</ele>
        <time>2026-06-28T06:57:58.000Z</time>
      </trkpt>
      <trkpt lat="42.77608" lon="1.5605">
        <ele>755</ele>
        <time>2026-06-28T06:57:59.000Z</time>
      </trkpt>
      <trkpt lat="42.7761" lon="1.56048">
        <ele>755</ele>
        <time>2026-06-28T06:58:00.000Z</time>
      </trkpt>
      <trkpt lat="42.77612" lon="1.56047">
        <ele>755</ele>
        <time>2026-06-28T06:58:01.000Z</time>
      </trkpt>
      <trkpt lat="42.77614" lon="1.56045">
        <ele>754</ele>
        <time>2026-06-28T06:58:02.000Z</time>
      </trkpt>
      <trkpt lat="42.77616" lon="1.56044">
        <ele>755</ele>
        <time>2026-06-28T06:58:03.000Z</time>
      </trkpt>
      <trkpt lat="42.77617" lon="1.56043">
        <ele>755</ele>
        <time>2026-06-28T06:58:04.000Z</time>
      </trkpt>
      <trkpt lat="42.77618" lon="1.56042">
        <ele>755</ele>
        <time>2026-06-28T06:58:05.000Z</time>
      </trkpt>
      <trkpt lat="42.77619" lon="1.56041">
        <ele>756</ele>
        <time>2026-06-28T06:58:06.000Z</time>
      </trkpt>
      <trkpt lat="42.7762" lon="1.56039">
        <ele>756</ele>
        <time>2026-06-28T06:58:07.000Z</time>
      </trkpt>
      <trkpt lat="42.77621" lon="1.56037">
        <ele>756</ele>
        <time>2026-06-28T06:58:08.000Z</time>
      </trkpt>
      <trkpt lat="42.77622" lon="1.56036">
        <ele>757</ele>
        <time>2026-06-28T06:58:09.000Z</time>
      </trkpt>
      <trkpt lat="42.77624" lon="1.56034">
        <ele>757</ele>
        <time>2026-06-28T06:58:10.000Z</time>
      </trkpt>
      <trkpt lat="42.77625" lon="1.56033">
        <ele>758</ele>
        <time>2026-06-28T06:58:11.000Z</time>
      </trkpt>
      <trkpt lat="42.77627" lon="1.56032">
        <ele>758</ele>
        <time>2026-06-28T06:58:12.000Z</time>
      </trkpt>
      <trkpt lat="42.77629" lon="1.56031">
        <ele>759</ele>
        <time>2026-06-28T06:58:13.000Z</time>
      </trkpt>
      <trkpt lat="42.77631" lon="1.56031">
        <ele>759</ele>
        <time>2026-06-28T06:58:14.000Z</time>
      </trkpt>
      <trkpt lat="42.77633" lon="1.5603">
        <ele>759</ele>
        <time>2026-06-28T06:58:15.000Z</time>
      </trkpt>
      <trkpt lat="42.77636" lon="1.56029">
        <ele>760</ele>
        <time>2026-06-28T06:58:16.000Z</time>
      </trkpt>
      <trkpt lat="42.77639" lon="1.56029">
        <ele>761</ele>
        <time>2026-06-28T06:58:17.000Z</time>
      </trkpt>
      <trkpt lat="42.77642" lon="1.56028">
        <ele>762</ele>
        <time>2026-06-28T06:58:18.000Z</time>
      </trkpt>
      <trkpt lat="42.77646" lon="1.56027">
        <ele>763</ele>
        <time>2026-06-28T06:58:19.000Z</time>
      </trkpt>
      <trkpt lat="42.77649" lon="1.56027">
        <ele>764</ele>
        <time>2026-06-28T06:58:20.000Z</time>
      </trkpt>
      <trkpt lat="42.77653" lon="1.56028">
        <ele>764</ele>
        <time>2026-06-28T06:58:21.000Z</time>
      </trkpt>
      <trkpt lat="42.77656" lon="1.56028">
        <ele>765</ele>
        <time>2026-06-28T06:58:22.000Z</time>
      </trkpt>
      <trkpt lat="42.77661" lon="1.56028">
        <ele>765</ele>
        <time>2026-06-28T06:58:23.000Z</time>
      </trkpt>
      <trkpt lat="42.77665" lon="1.56028">
        <ele>765</ele>
        <time>2026-06-28T06:58:24.000Z</time>
      </trkpt>
      <trkpt lat="42.77669" lon="1.56028">
        <ele>765</ele>
        <time>2026-06-28T06:58:25.000Z</time>
      </trkpt>
      <trkpt lat="42.77673" lon="1.56027">
        <ele>765</ele>
        <time>2026-06-28T06:58:26.000Z</time>
      </trkpt>
      <trkpt lat="42.77677" lon="1.56026">
        <ele>766</ele>
        <time>2026-06-28T06:58:27.000Z</time>
      </trkpt>
      <trkpt lat="42.7768" lon="1.56026">
        <ele>766</ele>
        <time>2026-06-28T06:58:28.000Z</time>
      </trkpt>
      <trkpt lat="42.77683" lon="1.56026">
        <ele>768</ele>
        <time>2026-06-28T06:58:29.000Z</time>
      </trkpt>
      <trkpt lat="42.77685" lon="1.56027">
        <ele>769</ele>
        <time>2026-06-28T06:58:30.000Z</time>
      </trkpt>
      <trkpt lat="42.77688" lon="1.56027">
        <ele>770</ele>
        <time>2026-06-28T06:58:31.000Z</time>
      </trkpt>
      <trkpt lat="42.77691" lon="1.56027">
        <ele>772</ele>
        <time>2026-06-28T06:58:32.000Z</time>
      </trkpt>
      <trkpt lat="42.77693" lon="1.56028">
        <ele>773</ele>
        <time>2026-06-28T06:58:33.000Z</time>
      </trkpt>
      <trkpt lat="42.77695" lon="1.56028">
        <ele>774</ele>
        <time>2026-06-28T06:58:34.000Z</time>
      </trkpt>
      <trkpt lat="42.77698" lon="1.56029">
        <ele>774</ele>
        <time>2026-06-28T06:58:35.000Z</time>
      </trkpt>
      <trkpt lat="42.777" lon="1.56029">
        <ele>775</ele>
        <time>2026-06-28T06:58:36.000Z</time>
      </trkpt>
      <trkpt lat="42.77701" lon="1.56028">
        <ele>775</ele>
        <time>2026-06-28T06:58:37.000Z</time>
      </trkpt>
      <trkpt lat="42.77703" lon="1.56028">
        <ele>776</ele>
        <time>2026-06-28T06:58:38.000Z</time>
      </trkpt>
      <trkpt lat="42.77706" lon="1.56028">
        <ele>776</ele>
        <time>2026-06-28T06:58:39.000Z</time>
      </trkpt>
      <trkpt lat="42.77708" lon="1.56027">
        <ele>775</ele>
        <time>2026-06-28T06:58:40.000Z</time>
      </trkpt>
      <trkpt lat="42.7771" lon="1.56026">
        <ele>774</ele>
        <time>2026-06-28T06:58:41.000Z</time>
      </trkpt>
      <trkpt lat="42.77712" lon="1.56025">
        <ele>774</ele>
        <time>2026-06-28T06:58:42.000Z</time>
      </trkpt>
      <trkpt lat="42.77714" lon="1.56023">
        <ele>775</ele>
        <time>2026-06-28T06:58:43.000Z</time>
      </trkpt>
      <trkpt lat="42.77715" lon="1.56021">
        <ele>774</ele>
        <time>2026-06-28T06:58:44.000Z</time>
      </trkpt>
      <trkpt lat="42.77717" lon="1.56019">
        <ele>774</ele>
        <time>2026-06-28T06:58:45.000Z</time>
      </trkpt>
      <trkpt lat="42.77719" lon="1.56017">
        <ele>774</ele>
        <time>2026-06-28T06:58:46.000Z</time>
      </trkpt>
      <trkpt lat="42.77721" lon="1.56016">
        <ele>774</ele>
        <time>2026-06-28T06:58:47.000Z</time>
      </trkpt>
      <trkpt lat="42.77722" lon="1.56014">
        <ele>773</ele>
        <time>2026-06-28T06:58:48.000Z</time>
      </trkpt>
      <trkpt lat="42.77724" lon="1.56013">
        <ele>773</ele>
        <time>2026-06-28T06:58:49.000Z</time>
      </trkpt>
      <trkpt lat="42.77725" lon="1.56012">
        <ele>772</ele>
        <time>2026-06-28T06:58:50.000Z</time>
      </trkpt>
      <trkpt lat="42.77727" lon="1.56011">
        <ele>773</ele>
        <time>2026-06-28T06:58:51.000Z</time>
      </trkpt>
      <trkpt lat="42.77728" lon="1.5601">
        <ele>773</ele>
        <time>2026-06-28T06:58:52.000Z</time>
      </trkpt>
      <trkpt lat="42.7773" lon="1.56009">
        <ele>774</ele>
        <time>2026-06-28T06:58:53.000Z</time>
      </trkpt>
      <trkpt lat="42.77732" lon="1.56009">
        <ele>774</ele>
        <time>2026-06-28T06:58:54.000Z</time>
      </trkpt>
      <trkpt lat="42.77734" lon="1.56008">
        <ele>774</ele>
        <time>2026-06-28T06:58:55.000Z</time>
      </trkpt>
      <trkpt lat="42.77736" lon="1.56007">
        <ele>775</ele>
        <time>2026-06-28T06:58:56.000Z</time>
      </trkpt>
      <trkpt lat="42.77739" lon="1.56007">
        <ele>776</ele>
        <time>2026-06-28T06:58:57.000Z</time>
      </trkpt>
      <trkpt lat="42.77742" lon="1.56006">
        <ele>776</ele>
        <time>2026-06-28T06:58:58.000Z</time>
      </trkpt>
      <trkpt lat="42.77745" lon="1.56005">
        <ele>776</ele>
        <time>2026-06-28T06:58:59.000Z</time>
      </trkpt>
      <trkpt lat="42.77749" lon="1.56004">
        <ele>776</ele>
        <time>2026-06-28T06:59:00.000Z</time>
      </trkpt>
      <trkpt lat="42.77752" lon="1.56004">
        <ele>776</ele>
        <time>2026-06-28T06:59:01.000Z</time>
      </trkpt>
      <trkpt lat="42.77756" lon="1.56003">
        <ele>776</ele>
        <time>2026-06-28T06:59:02.000Z</time>
      </trkpt>
      <trkpt lat="42.77759" lon="1.56003">
        <ele>776</ele>
        <time>2026-06-28T06:59:03.000Z</time>
      </trkpt>
      <trkpt lat="42.77762" lon="1.56003">
        <ele>775</ele>
        <time>2026-06-28T06:59:04.000Z</time>
      </trkpt>
      <trkpt lat="42.77766" lon="1.56002">
        <ele>775</ele>
        <time>2026-06-28T06:59:05.000Z</time>
      </trkpt>
      <trkpt lat="42.7777" lon="1.56003">
        <ele>774</ele>
        <time>2026-06-28T06:59:06.000Z</time>
      </trkpt>
      <trkpt lat="42.77773" lon="1.56004">
        <ele>773</ele>
        <time>2026-06-28T06:59:07.000Z</time>
      </trkpt>
      <trkpt lat="42.77776" lon="1.56005">
        <ele>772</ele>
        <time>2026-06-28T06:59:08.000Z</time>
      </trkpt>
      <trkpt lat="42.7778" lon="1.56005">
        <ele>772</ele>
        <time>2026-06-28T06:59:09.000Z</time>
      </trkpt>
      <trkpt lat="42.77783" lon="1.56006">
        <ele>771</ele>
        <time>2026-06-28T06:59:10.000Z</time>
      </trkpt>
      <trkpt lat="42.77786" lon="1.56006">
        <ele>771</ele>
        <time>2026-06-28T06:59:11.000Z</time>
      </trkpt>
      <trkpt lat="42.7779" lon="1.56006">
        <ele>772</ele>
        <time>2026-06-28T06:59:12.000Z</time>
      </trkpt>
      <trkpt lat="42.77794" lon="1.56006">
        <ele>772</ele>
        <time>2026-06-28T06:59:13.000Z</time>
      </trkpt>
      <trkpt lat="42.778" lon="1.56005">
        <ele>772</ele>
        <time>2026-06-28T06:59:14.000Z</time>
      </trkpt>
      <trkpt lat="42.77806" lon="1.56003">
        <ele>771</ele>
        <time>2026-06-28T06:59:15.000Z</time>
      </trkpt>
      <trkpt lat="42.77809" lon="1.56002">
        <ele>771</ele>
        <time>2026-06-28T06:59:16.000Z</time>
      </trkpt>
      <trkpt lat="42.77812" lon="1.56002">
        <ele>771</ele>
        <time>2026-06-28T06:59:17.000Z</time>
      </trkpt>
      <trkpt lat="42.77814" lon="1.56003">
        <ele>770</ele>
        <time>2026-06-28T06:59:18.000Z</time>
      </trkpt>
      <trkpt lat="42.77816" lon="1.56004">
        <ele>770</ele>
        <time>2026-06-28T06:59:19.000Z</time>
      </trkpt>
      <trkpt lat="42.77818" lon="1.56006">
        <ele>769</ele>
        <time>2026-06-28T06:59:20.000Z</time>
      </trkpt>
      <trkpt lat="42.77819" lon="1.56007">
        <ele>768</ele>
        <time>2026-06-28T06:59:21.000Z</time>
      </trkpt>
      <trkpt lat="42.77821" lon="1.56009">
        <ele>768</ele>
        <time>2026-06-28T06:59:22.000Z</time>
      </trkpt>
      <trkpt lat="42.77824" lon="1.56009">
        <ele>768</ele>
        <time>2026-06-28T06:59:23.000Z</time>
      </trkpt>
      <trkpt lat="42.77827" lon="1.5601">
        <ele>768</ele>
        <time>2026-06-28T06:59:24.000Z</time>
      </trkpt>
      <trkpt lat="42.7783" lon="1.56011">
        <ele>768</ele>
        <time>2026-06-28T06:59:25.000Z</time>
      </trkpt>
      <trkpt lat="42.77833" lon="1.56011">
        <ele>767</ele>
        <time>2026-06-28T06:59:26.000Z</time>
      </trkpt>
      <trkpt lat="42.77836" lon="1.56012">
        <ele>767</ele>
        <time>2026-06-28T06:59:27.000Z</time>
      </trkpt>
      <trkpt lat="42.77839" lon="1.56012">
        <ele>766</ele>
        <time>2026-06-28T06:59:28.000Z</time>
      </trkpt>
      <trkpt lat="42.77841" lon="1.56012">
        <ele>765</ele>
        <time>2026-06-28T06:59:29.000Z</time>
      </trkpt>
      <trkpt lat="42.77844" lon="1.56013">
        <ele>764</ele>
        <time>2026-06-28T06:59:30.000Z</time>
      </trkpt>
      <trkpt lat="42.77846" lon="1.56014">
        <ele>764</ele>
        <time>2026-06-28T06:59:31.000Z</time>
      </trkpt>
      <trkpt lat="42.77848" lon="1.56014">
        <ele>764</ele>
        <time>2026-06-28T06:59:32.000Z</time>
      </trkpt>
      <trkpt lat="42.7785" lon="1.56015">
        <ele>764</ele>
        <time>2026-06-28T06:59:33.000Z</time>
      </trkpt>
      <trkpt lat="42.77852" lon="1.56016">
        <ele>764</ele>
        <time>2026-06-28T06:59:34.000Z</time>
      </trkpt>
      <trkpt lat="42.77854" lon="1.56018">
        <ele>764</ele>
        <time>2026-06-28T06:59:35.000Z</time>
      </trkpt>
      <trkpt lat="42.77857" lon="1.56019">
        <ele>763</ele>
        <time>2026-06-28T06:59:36.000Z</time>
      </trkpt>
      <trkpt lat="42.7786" lon="1.5602">
        <ele>763</ele>
        <time>2026-06-28T06:59:37.000Z</time>
      </trkpt>
      <trkpt lat="42.77864" lon="1.56022">
        <ele>762</ele>
        <time>2026-06-28T06:59:38.000Z</time>
      </trkpt>
      <trkpt lat="42.77868" lon="1.56023">
        <ele>762</ele>
        <time>2026-06-28T06:59:39.000Z</time>
      </trkpt>
      <trkpt lat="42.77872" lon="1.56024">
        <ele>762</ele>
        <time>2026-06-28T06:59:40.000Z</time>
      </trkpt>
      <trkpt lat="42.77876" lon="1.56025">
        <ele>761</ele>
        <time>2026-06-28T06:59:41.000Z</time>
      </trkpt>
      <trkpt lat="42.7788" lon="1.56025">
        <ele>761</ele>
        <time>2026-06-28T06:59:42.000Z</time>
      </trkpt>
      <trkpt lat="42.77883" lon="1.56025">
        <ele>761</ele>
        <time>2026-06-28T06:59:43.000Z</time>
      </trkpt>
      <trkpt lat="42.77887" lon="1.56026">
        <ele>761</ele>
        <time>2026-06-28T06:59:44.000Z</time>
      </trkpt>
      <trkpt lat="42.7789" lon="1.56027">
        <ele>761</ele>
        <time>2026-06-28T06:59:45.000Z</time>
      </trkpt>
      <trkpt lat="42.77893" lon="1.56027">
        <ele>761</ele>
        <time>2026-06-28T06:59:46.000Z</time>
      </trkpt>
      <trkpt lat="42.77896" lon="1.56027">
        <ele>761</ele>
        <time>2026-06-28T06:59:47.000Z</time>
      </trkpt>
      <trkpt lat="42.77899" lon="1.56028">
        <ele>761</ele>
        <time>2026-06-28T06:59:48.000Z</time>
      </trkpt>
      <trkpt lat="42.77902" lon="1.56029">
        <ele>760</ele>
        <time>2026-06-28T06:59:49.000Z</time>
      </trkpt>
      <trkpt lat="42.77906" lon="1.56029">
        <ele>760</ele>
        <time>2026-06-28T06:59:50.000Z</time>
      </trkpt>
      <trkpt lat="42.77909" lon="1.56031">
        <ele>759</ele>
        <time>2026-06-28T06:59:51.000Z</time>
      </trkpt>
      <trkpt lat="42.77912" lon="1.56031">
        <ele>759</ele>
        <time>2026-06-28T06:59:52.000Z</time>
      </trkpt>
      <trkpt lat="42.77916" lon="1.56032">
        <ele>760</ele>
        <time>2026-06-28T06:59:53.000Z</time>
      </trkpt>
      <trkpt lat="42.7792" lon="1.56032">
        <ele>759</ele>
        <time>2026-06-28T06:59:54.000Z</time>
      </trkpt>
      <trkpt lat="42.77922" lon="1.56033">
        <ele>758</ele>
        <time>2026-06-28T06:59:55.000Z</time>
      </trkpt>
      <trkpt lat="42.77927" lon="1.56035">
        <ele>758</ele>
        <time>2026-06-28T06:59:56.000Z</time>
      </trkpt>
      <trkpt lat="42.77934" lon="1.56035">
        <ele>756</ele>
        <time>2026-06-28T06:59:57.000Z</time>
      </trkpt>
      <trkpt lat="42.7794" lon="1.56035">
        <ele>756</ele>
        <time>2026-06-28T06:59:58.000Z</time>
      </trkpt>
      <trkpt lat="42.77945" lon="1.56034">
        <ele>756</ele>
        <time>2026-06-28T06:59:59.000Z</time>
      </trkpt>
      <trkpt lat="42.77948" lon="1.56034">
        <ele>756</ele>
        <time>2026-06-28T07:00:00.000Z</time>
      </trkpt>
      <trkpt lat="42.77952" lon="1.56033">
        <ele>756</ele>
        <time>2026-06-28T07:00:01.000Z</time>
      </trkpt>
      <trkpt lat="42.77955" lon="1.56034">
        <ele>756</ele>
        <time>2026-06-28T07:00:02.000Z</time>
      </trkpt>
      <trkpt lat="42.77958" lon="1.56034">
        <ele>756</ele>
        <time>2026-06-28T07:00:03.000Z</time>
      </trkpt>
      <trkpt lat="42.77961" lon="1.56035">
        <ele>757</ele>
        <time>2026-06-28T07:00:04.000Z</time>
      </trkpt>
      <trkpt lat="42.77965" lon="1.56035">
        <ele>756</ele>
        <time>2026-06-28T07:00:05.000Z</time>
      </trkpt>
      <trkpt lat="42.77969" lon="1.56036">
        <ele>755</ele>
        <time>2026-06-28T07:00:06.000Z</time>
      </trkpt>
      <trkpt lat="42.77974" lon="1.56035">
        <ele>755</ele>
        <time>2026-06-28T07:00:07.000Z</time>
      </trkpt>
      <trkpt lat="42.77977" lon="1.56033">
        <ele>755</ele>
        <time>2026-06-28T07:00:08.000Z</time>
      </trkpt>
      <trkpt lat="42.7798" lon="1.56031">
        <ele>755</ele>
        <time>2026-06-28T07:00:09.000Z</time>
      </trkpt>
      <trkpt lat="42.77982" lon="1.5603">
        <ele>755</ele>
        <time>2026-06-28T07:00:10.000Z</time>
      </trkpt>
      <trkpt lat="42.77986" lon="1.5603">
        <ele>755</ele>
        <time>2026-06-28T07:00:11.000Z</time>
      </trkpt>
      <trkpt lat="42.77989" lon="1.56031">
        <ele>754</ele>
        <time>2026-06-28T07:00:12.000Z</time>
      </trkpt>
      <trkpt lat="42.77992" lon="1.56032">
        <ele>754</ele>
        <time>2026-06-28T07:00:13.000Z</time>
      </trkpt>
      <trkpt lat="42.77995" lon="1.56031">
        <ele>754</ele>
        <time>2026-06-28T07:00:14.000Z</time>
      </trkpt>
      <trkpt lat="42.77996" lon="1.56031">
        <ele>754</ele>
        <time>2026-06-28T07:00:15.000Z</time>
      </trkpt>
      <trkpt lat="42.77999" lon="1.56031">
        <ele>753</ele>
        <time>2026-06-28T07:00:16.000Z</time>
      </trkpt>
      <trkpt lat="42.78002" lon="1.56031">
        <ele>753</ele>
        <time>2026-06-28T07:00:17.000Z</time>
      </trkpt>
      <trkpt lat="42.78004" lon="1.56032">
        <ele>753</ele>
        <time>2026-06-28T07:00:18.000Z</time>
      </trkpt>
      <trkpt lat="42.78005" lon="1.56033">
        <ele>753</ele>
        <time>2026-06-28T07:00:19.000Z</time>
      </trkpt>
      <trkpt lat="42.78007" lon="1.56033">
        <ele>753</ele>
        <time>2026-06-28T07:00:20.000Z</time>
      </trkpt>
      <trkpt lat="42.78008" lon="1.56033">
        <ele>752</ele>
        <time>2026-06-28T07:00:21.000Z</time>
      </trkpt>
      <trkpt lat="42.78009" lon="1.56033">
        <ele>752</ele>
        <time>2026-06-28T07:00:22.000Z</time>
      </trkpt>
      <trkpt lat="42.7801" lon="1.56032">
        <ele>751</ele>
        <time>2026-06-28T07:00:23.000Z</time>
      </trkpt>
      <trkpt lat="42.78011" lon="1.56032">
        <ele>750</ele>
        <time>2026-06-28T07:00:24.000Z</time>
      </trkpt>
      <trkpt lat="42.78011" lon="1.56032">
        <ele>750</ele>
        <time>2026-06-28T07:00:25.000Z</time>
      </trkpt>
      <trkpt lat="42.78012" lon="1.56033">
        <ele>750</ele>
        <time>2026-06-28T07:00:26.000Z</time>
      </trkpt>
      <trkpt lat="42.78013" lon="1.56034">
        <ele>750</ele>
        <time>2026-06-28T07:00:27.000Z</time>
      </trkpt>
      <trkpt lat="42.78014" lon="1.56034">
        <ele>750</ele>
        <time>2026-06-28T07:00:28.000Z</time>
      </trkpt>
      <trkpt lat="42.78015" lon="1.56034">
        <ele>750</ele>
        <time>2026-06-28T07:00:29.000Z</time>
      </trkpt>
      <trkpt lat="42.78017" lon="1.56034">
        <ele>750</ele>
        <time>2026-06-28T07:00:30.000Z</time>
      </trkpt>
      <trkpt lat="42.78018" lon="1.56035">
        <ele>749</ele>
        <time>2026-06-28T07:00:31.000Z</time>
      </trkpt>
      <trkpt lat="42.78019" lon="1.56035">
        <ele>749</ele>
        <time>2026-06-28T07:00:32.000Z</time>
      </trkpt>
      <trkpt lat="42.78021" lon="1.56034">
        <ele>749</ele>
        <time>2026-06-28T07:00:33.000Z</time>
      </trkpt>
      <trkpt lat="42.78022" lon="1.56034">
        <ele>749</ele>
        <time>2026-06-28T07:00:34.000Z</time>
      </trkpt>
      <trkpt lat="42.78024" lon="1.56034">
        <ele>748</ele>
        <time>2026-06-28T07:00:35.000Z</time>
      </trkpt>
      <trkpt lat="42.78025" lon="1.56035">
        <ele>748</ele>
        <time>2026-06-28T07:00:36.000Z</time>
      </trkpt>
      <trkpt lat="42.78028" lon="1.56036">
        <ele>748</ele>
        <time>2026-06-28T07:00:37.000Z</time>
      </trkpt>
      <trkpt lat="42.78031" lon="1.56036">
        <ele>747</ele>
        <time>2026-06-28T07:00:38.000Z</time>
      </trkpt>
      <trkpt lat="42.78033" lon="1.56037">
        <ele>747</ele>
        <time>2026-06-28T07:00:39.000Z</time>
      </trkpt>
      <trkpt lat="42.78037" lon="1.56038">
        <ele>746</ele>
        <time>2026-06-28T07:00:40.000Z</time>
      </trkpt>
      <trkpt lat="42.7804" lon="1.56036">
        <ele>746</ele>
        <time>2026-06-28T07:00:41.000Z</time>
      </trkpt>
      <trkpt lat="42.78042" lon="1.56036">
        <ele>746</ele>
        <time>2026-06-28T07:00:42.000Z</time>
      </trkpt>
      <trkpt lat="42.78046" lon="1.56034">
        <ele>746</ele>
        <time>2026-06-28T07:00:43.000Z</time>
      </trkpt>
      <trkpt lat="42.78048" lon="1.56033">
        <ele>746</ele>
        <time>2026-06-28T07:00:44.000Z</time>
      </trkpt>
      <trkpt lat="42.78051" lon="1.56032">
        <ele>746</ele>
        <time>2026-06-28T07:00:45.000Z</time>
      </trkpt>
      <trkpt lat="42.78054" lon="1.5603">
        <ele>746</ele>
        <time>2026-06-28T07:00:46.000Z</time>
      </trkpt>
      <trkpt lat="42.78058" lon="1.56029">
        <ele>745</ele>
        <time>2026-06-28T07:00:47.000Z</time>
      </trkpt>
      <trkpt lat="42.78062" lon="1.56029">
        <ele>745</ele>
        <time>2026-06-28T07:00:48.000Z</time>
      </trkpt>
      <trkpt lat="42.78068" lon="1.56027">
        <ele>744</ele>
        <time>2026-06-28T07:00:49.000Z</time>
      </trkpt>
      <trkpt lat="42.78073" lon="1.56025">
        <ele>743</ele>
        <time>2026-06-28T07:00:50.000Z</time>
      </trkpt>
      <trkpt lat="42.78079" lon="1.56022">
        <ele>743</ele>
        <time>2026-06-28T07:00:51.000Z</time>
      </trkpt>
      <trkpt lat="42.78084" lon="1.56019">
        <ele>742</ele>
        <time>2026-06-28T07:00:52.000Z</time>
      </trkpt>
      <trkpt lat="42.78089" lon="1.56015">
        <ele>742</ele>
        <time>2026-06-28T07:00:53.000Z</time>
      </trkpt>
      <trkpt lat="42.78094" lon="1.56012">
        <ele>741</ele>
        <time>2026-06-28T07:00:54.000Z</time>
      </trkpt>
      <trkpt lat="42.78098" lon="1.5601">
        <ele>741</ele>
        <time>2026-06-28T07:00:55.000Z</time>
      </trkpt>
      <trkpt lat="42.78102" lon="1.56009">
        <ele>741</ele>
        <time>2026-06-28T07:00:56.000Z</time>
      </trkpt>
      <trkpt lat="42.78106" lon="1.56008">
        <ele>740</ele>
        <time>2026-06-28T07:00:57.000Z</time>
      </trkpt>
      <trkpt lat="42.7811" lon="1.56006">
        <ele>740</ele>
        <time>2026-06-28T07:00:58.000Z</time>
      </trkpt>
      <trkpt lat="42.78113" lon="1.56006">
        <ele>739</ele>
        <time>2026-06-28T07:00:59.000Z</time>
      </trkpt>
      <trkpt lat="42.78115" lon="1.56006">
        <ele>738</ele>
        <time>2026-06-28T07:01:00.000Z</time>
      </trkpt>
      <trkpt lat="42.78116" lon="1.56007">
        <ele>738</ele>
        <time>2026-06-28T07:01:01.000Z</time>
      </trkpt>
      <trkpt lat="42.78118" lon="1.56008">
        <ele>737</ele>
        <time>2026-06-28T07:01:02.000Z</time>
      </trkpt>
      <trkpt lat="42.7812" lon="1.56008">
        <ele>736</ele>
        <time>2026-06-28T07:01:03.000Z</time>
      </trkpt>
      <trkpt lat="42.78123" lon="1.56008">
        <ele>736</ele>
        <time>2026-06-28T07:01:04.000Z</time>
      </trkpt>
      <trkpt lat="42.78124" lon="1.56006">
        <ele>736</ele>
        <time>2026-06-28T07:01:05.000Z</time>
      </trkpt>
      <trkpt lat="42.78125" lon="1.56004">
        <ele>735</ele>
        <time>2026-06-28T07:01:06.000Z</time>
      </trkpt>
      <trkpt lat="42.78127" lon="1.56001">
        <ele>734</ele>
        <time>2026-06-28T07:01:07.000Z</time>
      </trkpt>
      <trkpt lat="42.78128" lon="1.55996">
        <ele>735</ele>
        <time>2026-06-28T07:01:08.000Z</time>
      </trkpt>
      <trkpt lat="42.78131" lon="1.55991">
        <ele>734</ele>
        <time>2026-06-28T07:01:09.000Z</time>
      </trkpt>
      <trkpt lat="42.78134" lon="1.55987">
        <ele>734</ele>
        <time>2026-06-28T07:01:10.000Z</time>
      </trkpt>
      <trkpt lat="42.78138" lon="1.55982">
        <ele>734</ele>
        <time>2026-06-28T07:01:11.000Z</time>
      </trkpt>
      <trkpt lat="42.7814" lon="1.55977">
        <ele>733</ele>
        <time>2026-06-28T07:01:12.000Z</time>
      </trkpt>
      <trkpt lat="42.78141" lon="1.55974">
        <ele>732</ele>
        <time>2026-06-28T07:01:13.000Z</time>
      </trkpt>
      <trkpt lat="42.78142" lon="1.5597">
        <ele>732</ele>
        <time>2026-06-28T07:01:14.000Z</time>
      </trkpt>
      <trkpt lat="42.78144" lon="1.55966">
        <ele>732</ele>
        <time>2026-06-28T07:01:15.000Z</time>
      </trkpt>
      <trkpt lat="42.78145" lon="1.55962">
        <ele>731</ele>
        <time>2026-06-28T07:01:16.000Z</time>
      </trkpt>
      <trkpt lat="42.78147" lon="1.5596">
        <ele>731</ele>
        <time>2026-06-28T07:01:17.000Z</time>
      </trkpt>
      <trkpt lat="42.78149" lon="1.55959">
        <ele>731</ele>
        <time>2026-06-28T07:01:18.000Z</time>
      </trkpt>
      <trkpt lat="42.78149" lon="1.55959">
        <ele>731</ele>
        <time>2026-06-28T07:01:19.000Z</time>
      </trkpt>
      <trkpt lat="42.78149" lon="1.55958">
        <ele>731</ele>
        <time>2026-06-28T07:01:20.000Z</time>
      </trkpt>
      <trkpt lat="42.78149" lon="1.55956">
        <ele>730</ele>
        <time>2026-06-28T07:01:21.000Z</time>
      </trkpt>
      <trkpt lat="42.7815" lon="1.55955">
        <ele>730</ele>
        <time>2026-06-28T07:01:22.000Z</time>
      </trkpt>
      <trkpt lat="42.7815" lon="1.55954">
        <ele>730</ele>
        <time>2026-06-28T07:01:23.000Z</time>
      </trkpt>
      <trkpt lat="42.7815" lon="1.55954">
        <ele>730</ele>
        <time>2026-06-28T07:01:24.000Z</time>
      </trkpt>
      <trkpt lat="42.7815" lon="1.55954">
        <ele>730</ele>
        <time>2026-06-28T07:01:25.000Z</time>
      </trkpt>
      <trkpt lat="42.78151" lon="1.55954">
        <ele>730</ele>
        <time>2026-06-28T07:01:26.000Z</time>
      </trkpt>
      <trkpt lat="42.78151" lon="1.55953">
        <ele>730</ele>
        <time>2026-06-28T07:01:27.000Z</time>
      </trkpt>
      <trkpt lat="42.78152" lon="1.55951">
        <ele>730</ele>
        <time>2026-06-28T07:01:28.000Z</time>
      </trkpt>
      <trkpt lat="42.78153" lon="1.5595">
        <ele>730</ele>
        <time>2026-06-28T07:01:29.000Z</time>
      </trkpt>
      <trkpt lat="42.78154" lon="1.55948">
        <ele>731</ele>
        <time>2026-06-28T07:01:30.000Z</time>
      </trkpt>
      <trkpt lat="42.78155" lon="1.55944">
        <ele>731</ele>
        <time>2026-06-28T07:01:31.000Z</time>
      </trkpt>
      <trkpt lat="42.78155" lon="1.55941">
        <ele>731</ele>
        <time>2026-06-28T07:01:32.000Z</time>
      </trkpt>
      <trkpt lat="42.78156" lon="1.55939">
        <ele>731</ele>
        <time>2026-06-28T07:01:33.000Z</time>
      </trkpt>
      <trkpt lat="42.78156" lon="1.55937">
        <ele>730</ele>
        <time>2026-06-28T07:01:34.000Z</time>
      </trkpt>
      <trkpt lat="42.78157" lon="1.55935">
        <ele>730</ele>
        <time>2026-06-28T07:01:35.000Z</time>
      </trkpt>
      <trkpt lat="42.78158" lon="1.55933">
        <ele>731</ele>
        <time>2026-06-28T07:01:36.000Z</time>
      </trkpt>
      <trkpt lat="42.78159" lon="1.5593">
        <ele>731</ele>
        <time>2026-06-28T07:01:37.000Z</time>
      </trkpt>
      <trkpt lat="42.78159" lon="1.55927">
        <ele>731</ele>
        <time>2026-06-28T07:01:38.000Z</time>
      </trkpt>
      <trkpt lat="42.78161" lon="1.55923">
        <ele>731</ele>
        <time>2026-06-28T07:01:39.000Z</time>
      </trkpt>
      <trkpt lat="42.78162" lon="1.55919">
        <ele>730</ele>
        <time>2026-06-28T07:01:40.000Z</time>
      </trkpt>
      <trkpt lat="42.78163" lon="1.55915">
        <ele>730</ele>
        <time>2026-06-28T07:01:41.000Z</time>
      </trkpt>
      <trkpt lat="42.78163" lon="1.5591">
        <ele>729</ele>
        <time>2026-06-28T07:01:42.000Z</time>
      </trkpt>
      <trkpt lat="42.78164" lon="1.55905">
        <ele>729</ele>
        <time>2026-06-28T07:01:43.000Z</time>
      </trkpt>
      <trkpt lat="42.78165" lon="1.55902">
        <ele>729</ele>
        <time>2026-06-28T07:01:44.000Z</time>
      </trkpt>
      <trkpt lat="42.78167" lon="1.55898">
        <ele>730</ele>
        <time>2026-06-28T07:01:45.000Z</time>
      </trkpt>
      <trkpt lat="42.78169" lon="1.55895">
        <ele>729</ele>
        <time>2026-06-28T07:01:46.000Z</time>
      </trkpt>
      <trkpt lat="42.78171" lon="1.5589">
        <ele>729</ele>
        <time>2026-06-28T07:01:47.000Z</time>
      </trkpt>
      <trkpt lat="42.78173" lon="1.55887">
        <ele>730</ele>
        <time>2026-06-28T07:01:48.000Z</time>
      </trkpt>
      <trkpt lat="42.78175" lon="1.55883">
        <ele>729</ele>
        <time>2026-06-28T07:01:49.000Z</time>
      </trkpt>
      <trkpt lat="42.78177" lon="1.55881">
        <ele>729</ele>
        <time>2026-06-28T07:01:50.000Z</time>
      </trkpt>
      <trkpt lat="42.78179" lon="1.55879">
        <ele>729</ele>
        <time>2026-06-28T07:01:51.000Z</time>
      </trkpt>
      <trkpt lat="42.78182" lon="1.55876">
        <ele>729</ele>
        <time>2026-06-28T07:01:52.000Z</time>
      </trkpt>
      <trkpt lat="42.78183" lon="1.55872">
        <ele>729</ele>
        <time>2026-06-28T07:01:53.000Z</time>
      </trkpt>
      <trkpt lat="42.78186" lon="1.55869">
        <ele>729</ele>
        <time>2026-06-28T07:01:54.000Z</time>
      </trkpt>
      <trkpt lat="42.78188" lon="1.55866">
        <ele>729</ele>
        <time>2026-06-28T07:01:55.000Z</time>
      </trkpt>
      <trkpt lat="42.7819" lon="1.55862">
        <ele>728</ele>
        <time>2026-06-28T07:01:56.000Z</time>
      </trkpt>
      <trkpt lat="42.78191" lon="1.55857">
        <ele>728</ele>
        <time>2026-06-28T07:01:57.000Z</time>
      </trkpt>
      <trkpt lat="42.78193" lon="1.55854">
        <ele>728</ele>
        <time>2026-06-28T07:01:58.000Z</time>
      </trkpt>
      <trkpt lat="42.78195" lon="1.55851">
        <ele>729</ele>
        <time>2026-06-28T07:01:59.000Z</time>
      </trkpt>
      <trkpt lat="42.78196" lon="1.55846">
        <ele>729</ele>
        <time>2026-06-28T07:02:00.000Z</time>
      </trkpt>
      <trkpt lat="42.78198" lon="1.55843">
        <ele>729</ele>
        <time>2026-06-28T07:02:01.000Z</time>
      </trkpt>
      <trkpt lat="42.782" lon="1.55839">
        <ele>729</ele>
        <time>2026-06-28T07:02:02.000Z</time>
      </trkpt>
      <trkpt lat="42.78202" lon="1.55836">
        <ele>729</ele>
        <time>2026-06-28T07:02:03.000Z</time>
      </trkpt>
      <trkpt lat="42.78203" lon="1.55833">
        <ele>729</ele>
        <time>2026-06-28T07:02:04.000Z</time>
      </trkpt>
      <trkpt lat="42.78205" lon="1.55829">
        <ele>729</ele>
        <time>2026-06-28T07:02:05.000Z</time>
      </trkpt>
      <trkpt lat="42.7821" lon="1.55824">
        <ele>728</ele>
        <time>2026-06-28T07:02:06.000Z</time>
      </trkpt>
      <trkpt lat="42.78215" lon="1.55821">
        <ele>728</ele>
        <time>2026-06-28T07:02:07.000Z</time>
      </trkpt>
      <trkpt lat="42.78219" lon="1.55817">
        <ele>728</ele>
        <time>2026-06-28T07:02:08.000Z</time>
      </trkpt>
      <trkpt lat="42.78222" lon="1.55814">
        <ele>728</ele>
        <time>2026-06-28T07:02:09.000Z</time>
      </trkpt>
      <trkpt lat="42.78224" lon="1.55811">
        <ele>728</ele>
        <time>2026-06-28T07:02:10.000Z</time>
      </trkpt>
      <trkpt lat="42.78227" lon="1.55808">
        <ele>728</ele>
        <time>2026-06-28T07:02:11.000Z</time>
      </trkpt>
      <trkpt lat="42.78229" lon="1.55805">
        <ele>728</ele>
        <time>2026-06-28T07:02:12.000Z</time>
      </trkpt>
      <trkpt lat="42.78231" lon="1.55801">
        <ele>728</ele>
        <time>2026-06-28T07:02:13.000Z</time>
      </trkpt>
      <trkpt lat="42.78233" lon="1.55798">
        <ele>729</ele>
        <time>2026-06-28T07:02:14.000Z</time>
      </trkpt>
      <trkpt lat="42.78234" lon="1.55795">
        <ele>729</ele>
        <time>2026-06-28T07:02:15.000Z</time>
      </trkpt>
      <trkpt lat="42.78236" lon="1.55791">
        <ele>729</ele>
        <time>2026-06-28T07:02:16.000Z</time>
      </trkpt>
      <trkpt lat="42.78237" lon="1.55788">
        <ele>728</ele>
        <time>2026-06-28T07:02:17.000Z</time>
      </trkpt>
      <trkpt lat="42.78238" lon="1.55783">
        <ele>727</ele>
        <time>2026-06-28T07:02:18.000Z</time>
      </trkpt>
      <trkpt lat="42.7824" lon="1.55779">
        <ele>726</ele>
        <time>2026-06-28T07:02:19.000Z</time>
      </trkpt>
      <trkpt lat="42.7824" lon="1.55775">
        <ele>727</ele>
        <time>2026-06-28T07:02:20.000Z</time>
      </trkpt>
      <trkpt lat="42.78241" lon="1.55771">
        <ele>727</ele>
        <time>2026-06-28T07:02:21.000Z</time>
      </trkpt>
      <trkpt lat="42.7824" lon="1.55766">
        <ele>727</ele>
        <time>2026-06-28T07:02:22.000Z</time>
      </trkpt>
      <trkpt lat="42.78241" lon="1.55761">
        <ele>726</ele>
        <time>2026-06-28T07:02:23.000Z</time>
      </trkpt>
      <trkpt lat="42.78241" lon="1.55757">
        <ele>725</ele>
        <time>2026-06-28T07:02:24.000Z</time>
      </trkpt>
      <trkpt lat="42.78242" lon="1.55752">
        <ele>724</ele>
        <time>2026-06-28T07:02:25.000Z</time>
      </trkpt>
      <trkpt lat="42.78244" lon="1.55749">
        <ele>723</ele>
        <time>2026-06-28T07:02:26.000Z</time>
      </trkpt>
      <trkpt lat="42.78248" lon="1.55745">
        <ele>722</ele>
        <time>2026-06-28T07:02:27.000Z</time>
      </trkpt>
      <trkpt lat="42.78253" lon="1.55742">
        <ele>722</ele>
        <time>2026-06-28T07:02:28.000Z</time>
      </trkpt>
      <trkpt lat="42.78258" lon="1.55738">
        <ele>723</ele>
        <time>2026-06-28T07:02:29.000Z</time>
      </trkpt>
      <trkpt lat="42.78263" lon="1.55734">
        <ele>723</ele>
        <time>2026-06-28T07:02:30.000Z</time>
      </trkpt>
      <trkpt lat="42.78267" lon="1.55732">
        <ele>722</ele>
        <time>2026-06-28T07:02:31.000Z</time>
      </trkpt>
      <trkpt lat="42.78272" lon="1.55731">
        <ele>722</ele>
        <time>2026-06-28T07:02:32.000Z</time>
      </trkpt>
      <trkpt lat="42.78277" lon="1.55732">
        <ele>720</ele>
        <time>2026-06-28T07:02:33.000Z</time>
      </trkpt>
      <trkpt lat="42.78282" lon="1.55735">
        <ele>719</ele>
        <time>2026-06-28T07:02:34.000Z</time>
      </trkpt>
      <trkpt lat="42.78288" lon="1.5574">
        <ele>717</ele>
        <time>2026-06-28T07:02:35.000Z</time>
      </trkpt>
      <trkpt lat="42.78294" lon="1.55744">
        <ele>715</ele>
        <time>2026-06-28T07:02:36.000Z</time>
      </trkpt>
      <trkpt lat="42.78298" lon="1.55749">
        <ele>714</ele>
        <time>2026-06-28T07:02:37.000Z</time>
      </trkpt>
      <trkpt lat="42.78303" lon="1.55754">
        <ele>712</ele>
        <time>2026-06-28T07:02:38.000Z</time>
      </trkpt>
      <trkpt lat="42.78308" lon="1.55758">
        <ele>711</ele>
        <time>2026-06-28T07:02:39.000Z</time>
      </trkpt>
      <trkpt lat="42.78314" lon="1.5576">
        <ele>710</ele>
        <time>2026-06-28T07:02:40.000Z</time>
      </trkpt>
      <trkpt lat="42.78319" lon="1.55756">
        <ele>709</ele>
        <time>2026-06-28T07:02:41.000Z</time>
      </trkpt>
      <trkpt lat="42.78323" lon="1.55747">
        <ele>709</ele>
        <time>2026-06-28T07:02:42.000Z</time>
      </trkpt>
      <trkpt lat="42.78325" lon="1.55737">
        <ele>708</ele>
        <time>2026-06-28T07:02:43.000Z</time>
      </trkpt>
      <trkpt lat="42.78327" lon="1.55725">
        <ele>706</ele>
        <time>2026-06-28T07:02:44.000Z</time>
      </trkpt>
      <trkpt lat="42.78332" lon="1.55714">
        <ele>706</ele>
        <time>2026-06-28T07:02:45.000Z</time>
      </trkpt>
      <trkpt lat="42.78336" lon="1.55703">
        <ele>705</ele>
        <time>2026-06-28T07:02:46.000Z</time>
      </trkpt>
      <trkpt lat="42.78341" lon="1.55692">
        <ele>704</ele>
        <time>2026-06-28T07:02:47.000Z</time>
      </trkpt>
      <trkpt lat="42.78345" lon="1.55679">
        <ele>703</ele>
        <time>2026-06-28T07:02:48.000Z</time>
      </trkpt>
      <trkpt lat="42.78348" lon="1.5567">
        <ele>702</ele>
        <time>2026-06-28T07:02:49.000Z</time>
      </trkpt>
      <trkpt lat="42.78352" lon="1.55665">
        <ele>700</ele>
        <time>2026-06-28T07:02:50.000Z</time>
      </trkpt>
      <trkpt lat="42.78358" lon="1.55663">
        <ele>698</ele>
        <time>2026-06-28T07:02:51.000Z</time>
      </trkpt>
      <trkpt lat="42.78366" lon="1.55657">
        <ele>696</ele>
        <time>2026-06-28T07:02:52.000Z</time>
      </trkpt>
      <trkpt lat="42.78374" lon="1.55648">
        <ele>695</ele>
        <time>2026-06-28T07:02:53.000Z</time>
      </trkpt>
      <trkpt lat="42.7838" lon="1.55638">
        <ele>694</ele>
        <time>2026-06-28T07:02:54.000Z</time>
      </trkpt>
      <trkpt lat="42.78383" lon="1.55628">
        <ele>693</ele>
        <time>2026-06-28T07:02:55.000Z</time>
      </trkpt>
      <trkpt lat="42.78385" lon="1.55616">
        <ele>692</ele>
        <time>2026-06-28T07:02:56.000Z</time>
      </trkpt>
      <trkpt lat="42.78387" lon="1.55606">
        <ele>691</ele>
        <time>2026-06-28T07:02:57.000Z</time>
      </trkpt>
      <trkpt lat="42.78388" lon="1.55596">
        <ele>690</ele>
        <time>2026-06-28T07:02:58.000Z</time>
      </trkpt>
      <trkpt lat="42.78389" lon="1.55587">
        <ele>689</ele>
        <time>2026-06-28T07:02:59.000Z</time>
      </trkpt>
      <trkpt lat="42.7839" lon="1.55577">
        <ele>689</ele>
        <time>2026-06-28T07:03:00.000Z</time>
      </trkpt>
      <trkpt lat="42.78391" lon="1.55568">
        <ele>689</ele>
        <time>2026-06-28T07:03:01.000Z</time>
      </trkpt>
      <trkpt lat="42.78392" lon="1.55559">
        <ele>689</ele>
        <time>2026-06-28T07:03:02.000Z</time>
      </trkpt>
      <trkpt lat="42.78392" lon="1.55551">
        <ele>690</ele>
        <time>2026-06-28T07:03:03.000Z</time>
      </trkpt>
      <trkpt lat="42.78394" lon="1.55543">
        <ele>690</ele>
        <time>2026-06-28T07:03:04.000Z</time>
      </trkpt>
      <trkpt lat="42.78394" lon="1.55536">
        <ele>690</ele>
        <time>2026-06-28T07:03:05.000Z</time>
      </trkpt>
      <trkpt lat="42.78395" lon="1.55529">
        <ele>689</ele>
        <time>2026-06-28T07:03:06.000Z</time>
      </trkpt>
      <trkpt lat="42.78395" lon="1.55523">
        <ele>689</ele>
        <time>2026-06-28T07:03:07.000Z</time>
      </trkpt>
      <trkpt lat="42.78396" lon="1.55516">
        <ele>689</ele>
        <time>2026-06-28T07:03:08.000Z</time>
      </trkpt>
      <trkpt lat="42.78397" lon="1.55509">
        <ele>689</ele>
        <time>2026-06-28T07:03:09.000Z</time>
      </trkpt>
      <trkpt lat="42.78397" lon="1.55502">
        <ele>689</ele>
        <time>2026-06-28T07:03:10.000Z</time>
      </trkpt>
      <trkpt lat="42.78398" lon="1.55495">
        <ele>689</ele>
        <time>2026-06-28T07:03:11.000Z</time>
      </trkpt>
      <trkpt lat="42.78399" lon="1.55489">
        <ele>689</ele>
        <time>2026-06-28T07:03:12.000Z</time>
      </trkpt>
      <trkpt lat="42.784" lon="1.55481">
        <ele>689</ele>
        <time>2026-06-28T07:03:13.000Z</time>
      </trkpt>
      <trkpt lat="42.784" lon="1.55474">
        <ele>689</ele>
        <time>2026-06-28T07:03:14.000Z</time>
      </trkpt>
      <trkpt lat="42.78401" lon="1.55467">
        <ele>688</ele>
        <time>2026-06-28T07:03:15.000Z</time>
      </trkpt>
      <trkpt lat="42.78402" lon="1.5546">
        <ele>688</ele>
        <time>2026-06-28T07:03:16.000Z</time>
      </trkpt>
      <trkpt lat="42.78402" lon="1.55453">
        <ele>687</ele>
        <time>2026-06-28T07:03:17.000Z</time>
      </trkpt>
      <trkpt lat="42.78402" lon="1.55446">
        <ele>687</ele>
        <time>2026-06-28T07:03:18.000Z</time>
      </trkpt>
      <trkpt lat="42.78401" lon="1.55439">
        <ele>687</ele>
        <time>2026-06-28T07:03:19.000Z</time>
      </trkpt>
      <trkpt lat="42.78402" lon="1.55432">
        <ele>686</ele>
        <time>2026-06-28T07:03:20.000Z</time>
      </trkpt>
      <trkpt lat="42.78403" lon="1.55425">
        <ele>686</ele>
        <time>2026-06-28T07:03:21.000Z</time>
      </trkpt>
      <trkpt lat="42.78403" lon="1.55418">
        <ele>685</ele>
        <time>2026-06-28T07:03:22.000Z</time>
      </trkpt>
      <trkpt lat="42.78404" lon="1.5541">
        <ele>685</ele>
        <time>2026-06-28T07:03:23.000Z</time>
      </trkpt>
      <trkpt lat="42.78405" lon="1.55403">
        <ele>685</ele>
        <time>2026-06-28T07:03:24.000Z</time>
      </trkpt>
      <trkpt lat="42.78406" lon="1.55395">
        <ele>684</ele>
        <time>2026-06-28T07:03:25.000Z</time>
      </trkpt>
      <trkpt lat="42.78407" lon="1.55387">
        <ele>684</ele>
        <time>2026-06-28T07:03:26.000Z</time>
      </trkpt>
      <trkpt lat="42.78407" lon="1.55379">
        <ele>683</ele>
        <time>2026-06-28T07:03:27.000Z</time>
      </trkpt>
      <trkpt lat="42.78408" lon="1.55372">
        <ele>683</ele>
        <time>2026-06-28T07:03:28.000Z</time>
      </trkpt>
      <trkpt lat="42.78409" lon="1.55364">
        <ele>683</ele>
        <time>2026-06-28T07:03:29.000Z</time>
      </trkpt>
      <trkpt lat="42.7841" lon="1.55356">
        <ele>683</ele>
        <time>2026-06-28T07:03:30.000Z</time>
      </trkpt>
      <trkpt lat="42.7841" lon="1.55349">
        <ele>683</ele>
        <time>2026-06-28T07:03:31.000Z</time>
      </trkpt>
      <trkpt lat="42.78411" lon="1.55341">
        <ele>683</ele>
        <time>2026-06-28T07:03:32.000Z</time>
      </trkpt>
      <trkpt lat="42.78412" lon="1.55334">
        <ele>682</ele>
        <time>2026-06-28T07:03:33.000Z</time>
      </trkpt>
      <trkpt lat="42.78413" lon="1.55326">
        <ele>682</ele>
        <time>2026-06-28T07:03:34.000Z</time>
      </trkpt>
      <trkpt lat="42.78413" lon="1.55319">
        <ele>682</ele>
        <time>2026-06-28T07:03:35.000Z</time>
      </trkpt>
      <trkpt lat="42.78412" lon="1.5531">
        <ele>682</ele>
        <time>2026-06-28T07:03:36.000Z</time>
      </trkpt>
      <trkpt lat="42.78413" lon="1.55302">
        <ele>683</ele>
        <time>2026-06-28T07:03:37.000Z</time>
      </trkpt>
      <trkpt lat="42.78415" lon="1.55295">
        <ele>683</ele>
        <time>2026-06-28T07:03:38.000Z</time>
      </trkpt>
      <trkpt lat="42.78415" lon="1.55287">
        <ele>684</ele>
        <time>2026-06-28T07:03:39.000Z</time>
      </trkpt>
      <trkpt lat="42.78415" lon="1.55279">
        <ele>684</ele>
        <time>2026-06-28T07:03:40.000Z</time>
      </trkpt>
      <trkpt lat="42.78415" lon="1.55271">
        <ele>685</ele>
        <time>2026-06-28T07:03:41.000Z</time>
      </trkpt>
      <trkpt lat="42.78416" lon="1.55264">
        <ele>686</ele>
        <time>2026-06-28T07:03:42.000Z</time>
      </trkpt>
      <trkpt lat="42.78416" lon="1.55256">
        <ele>686</ele>
        <time>2026-06-28T07:03:43.000Z</time>
      </trkpt>
      <trkpt lat="42.78417" lon="1.5525">
        <ele>686</ele>
        <time>2026-06-28T07:03:44.000Z</time>
      </trkpt>
      <trkpt lat="42.78417" lon="1.55242">
        <ele>686</ele>
        <time>2026-06-28T07:03:45.000Z</time>
      </trkpt>
      <trkpt lat="42.78418" lon="1.55234">
        <ele>687</ele>
        <time>2026-06-28T07:03:46.000Z</time>
      </trkpt>
      <trkpt lat="42.78418" lon="1.55226">
        <ele>688</ele>
        <time>2026-06-28T07:03:47.000Z</time>
      </trkpt>
      <trkpt lat="42.78419" lon="1.55219">
        <ele>688</ele>
        <time>2026-06-28T07:03:48.000Z</time>
      </trkpt>
      <trkpt lat="42.7842" lon="1.55212">
        <ele>689</ele>
        <time>2026-06-28T07:03:49.000Z</time>
      </trkpt>
      <trkpt lat="42.7842" lon="1.55206">
        <ele>689</ele>
        <time>2026-06-28T07:03:50.000Z</time>
      </trkpt>
      <trkpt lat="42.78421" lon="1.55199">
        <ele>689</ele>
        <time>2026-06-28T07:03:51.000Z</time>
      </trkpt>
      <trkpt lat="42.78422" lon="1.55191">
        <ele>689</ele>
        <time>2026-06-28T07:03:52.000Z</time>
      </trkpt>
      <trkpt lat="42.78422" lon="1.55184">
        <ele>689</ele>
        <time>2026-06-28T07:03:53.000Z</time>
      </trkpt>
      <trkpt lat="42.78423" lon="1.55177">
        <ele>689</ele>
        <time>2026-06-28T07:03:54.000Z</time>
      </trkpt>
      <trkpt lat="42.78424" lon="1.5517">
        <ele>690</ele>
        <time>2026-06-28T07:03:55.000Z</time>
      </trkpt>
      <trkpt lat="42.78425" lon="1.55162">
        <ele>690</ele>
        <time>2026-06-28T07:03:56.000Z</time>
      </trkpt>
      <trkpt lat="42.78426" lon="1.55156">
        <ele>690</ele>
        <time>2026-06-28T07:03:57.000Z</time>
      </trkpt>
      <trkpt lat="42.78426" lon="1.5515">
        <ele>690</ele>
        <time>2026-06-28T07:03:58.000Z</time>
      </trkpt>
      <trkpt lat="42.78426" lon="1.55144">
        <ele>691</ele>
        <time>2026-06-28T07:03:59.000Z</time>
      </trkpt>
      <trkpt lat="42.78426" lon="1.55138">
        <ele>691</ele>
        <time>2026-06-28T07:04:00.000Z</time>
      </trkpt>
      <trkpt lat="42.78426" lon="1.55131">
        <ele>691</ele>
        <time>2026-06-28T07:04:01.000Z</time>
      </trkpt>
      <trkpt lat="42.78426" lon="1.55125">
        <ele>691</ele>
        <time>2026-06-28T07:04:02.000Z</time>
      </trkpt>
      <trkpt lat="42.78426" lon="1.55119">
        <ele>692</ele>
        <time>2026-06-28T07:04:03.000Z</time>
      </trkpt>
      <trkpt lat="42.78426" lon="1.55112">
        <ele>692</ele>
        <time>2026-06-28T07:04:04.000Z</time>
      </trkpt>
      <trkpt lat="42.78427" lon="1.55106">
        <ele>692</ele>
        <time>2026-06-28T07:04:05.000Z</time>
      </trkpt>
      <trkpt lat="42.78427" lon="1.55101">
        <ele>692</ele>
        <time>2026-06-28T07:04:06.000Z</time>
      </trkpt>
      <trkpt lat="42.78428" lon="1.55096">
        <ele>692</ele>
        <time>2026-06-28T07:04:07.000Z</time>
      </trkpt>
      <trkpt lat="42.78429" lon="1.55091">
        <ele>693</ele>
        <time>2026-06-28T07:04:08.000Z</time>
      </trkpt>
      <trkpt lat="42.78429" lon="1.55085">
        <ele>693</ele>
        <time>2026-06-28T07:04:09.000Z</time>
      </trkpt>
      <trkpt lat="42.78429" lon="1.55079">
        <ele>694</ele>
        <time>2026-06-28T07:04:10.000Z</time>
      </trkpt>
      <trkpt lat="42.78429" lon="1.55074">
        <ele>693</ele>
        <time>2026-06-28T07:04:11.000Z</time>
      </trkpt>
      <trkpt lat="42.7843" lon="1.55068">
        <ele>694</ele>
        <time>2026-06-28T07:04:12.000Z</time>
      </trkpt>
      <trkpt lat="42.78431" lon="1.55062">
        <ele>694</ele>
        <time>2026-06-28T07:04:13.000Z</time>
      </trkpt>
      <trkpt lat="42.78431" lon="1.55056">
        <ele>694</ele>
        <time>2026-06-28T07:04:14.000Z</time>
      </trkpt>
      <trkpt lat="42.78432" lon="1.55051">
        <ele>694</ele>
        <time>2026-06-28T07:04:15.000Z</time>
      </trkpt>
      <trkpt lat="42.78432" lon="1.55045">
        <ele>695</ele>
        <time>2026-06-28T07:04:16.000Z</time>
      </trkpt>
      <trkpt lat="42.78433" lon="1.5504">
        <ele>694</ele>
        <time>2026-06-28T07:04:17.000Z</time>
      </trkpt>
      <trkpt lat="42.78432" lon="1.55034">
        <ele>695</ele>
        <time>2026-06-28T07:04:18.000Z</time>
      </trkpt>
      <trkpt lat="42.78432" lon="1.55029">
        <ele>695</ele>
        <time>2026-06-28T07:04:19.000Z</time>
      </trkpt>
      <trkpt lat="42.78432" lon="1.55024">
        <ele>695</ele>
        <time>2026-06-28T07:04:20.000Z</time>
      </trkpt>
      <trkpt lat="42.78432" lon="1.55019">
        <ele>695</ele>
        <time>2026-06-28T07:04:21.000Z</time>
      </trkpt>
      <trkpt lat="42.78433" lon="1.55014">
        <ele>694</ele>
        <time>2026-06-28T07:04:22.000Z</time>
      </trkpt>
      <trkpt lat="42.78432" lon="1.55008">
        <ele>694</ele>
        <time>2026-06-28T07:04:23.000Z</time>
      </trkpt>
      <trkpt lat="42.78433" lon="1.55003">
        <ele>694</ele>
        <time>2026-06-28T07:04:24.000Z</time>
      </trkpt>
      <trkpt lat="42.78433" lon="1.54998">
        <ele>694</ele>
        <time>2026-06-28T07:04:25.000Z</time>
      </trkpt>
      <trkpt lat="42.78434" lon="1.54993">
        <ele>694</ele>
        <time>2026-06-28T07:04:26.000Z</time>
      </trkpt>
      <trkpt lat="42.78434" lon="1.54988">
        <ele>694</ele>
        <time>2026-06-28T07:04:27.000Z</time>
      </trkpt>
      <trkpt lat="42.78434" lon="1.54983">
        <ele>694</ele>
        <time>2026-06-28T07:04:28.000Z</time>
      </trkpt>
      <trkpt lat="42.78434" lon="1.54977">
        <ele>694</ele>
        <time>2026-06-28T07:04:29.000Z</time>
      </trkpt>
      <trkpt lat="42.78434" lon="1.54971">
        <ele>694</ele>
        <time>2026-06-28T07:04:30.000Z</time>
      </trkpt>
      <trkpt lat="42.78434" lon="1.54965">
        <ele>694</ele>
        <time>2026-06-28T07:04:31.000Z</time>
      </trkpt>
      <trkpt lat="42.78435" lon="1.54959">
        <ele>693</ele>
        <time>2026-06-28T07:04:32.000Z</time>
      </trkpt>
      <trkpt lat="42.78437" lon="1.54951">
        <ele>693</ele>
        <time>2026-06-28T07:04:33.000Z</time>
      </trkpt>
      <trkpt lat="42.78437" lon="1.54944">
        <ele>693</ele>
        <time>2026-06-28T07:04:34.000Z</time>
      </trkpt>
      <trkpt lat="42.78438" lon="1.54937">
        <ele>693</ele>
        <time>2026-06-28T07:04:35.000Z</time>
      </trkpt>
      <trkpt lat="42.7844" lon="1.54931">
        <ele>693</ele>
        <time>2026-06-28T07:04:36.000Z</time>
      </trkpt>
      <trkpt lat="42.7844" lon="1.54924">
        <ele>694</ele>
        <time>2026-06-28T07:04:37.000Z</time>
      </trkpt>
      <trkpt lat="42.78441" lon="1.54917">
        <ele>694</ele>
        <time>2026-06-28T07:04:38.000Z</time>
      </trkpt>
      <trkpt lat="42.78442" lon="1.54912">
        <ele>694</ele>
        <time>2026-06-28T07:04:39.000Z</time>
      </trkpt>
      <trkpt lat="42.78443" lon="1.54906">
        <ele>694</ele>
        <time>2026-06-28T07:04:40.000Z</time>
      </trkpt>
      <trkpt lat="42.78443" lon="1.549">
        <ele>694</ele>
        <time>2026-06-28T07:04:41.000Z</time>
      </trkpt>
      <trkpt lat="42.78444" lon="1.54894">
        <ele>694</ele>
        <time>2026-06-28T07:04:42.000Z</time>
      </trkpt>
      <trkpt lat="42.78445" lon="1.54887">
        <ele>694</ele>
        <time>2026-06-28T07:04:43.000Z</time>
      </trkpt>
      <trkpt lat="42.78446" lon="1.54881">
        <ele>694</ele>
        <time>2026-06-28T07:04:44.000Z</time>
      </trkpt>
      <trkpt lat="42.78446" lon="1.54875">
        <ele>694</ele>
        <time>2026-06-28T07:04:45.000Z</time>
      </trkpt>
      <trkpt lat="42.78446" lon="1.54868">
        <ele>694</ele>
        <time>2026-06-28T07:04:46.000Z</time>
      </trkpt>
      <trkpt lat="42.78446" lon="1.54862">
        <ele>693</ele>
        <time>2026-06-28T07:04:47.000Z</time>
      </trkpt>
      <trkpt lat="42.78447" lon="1.54855">
        <ele>694</ele>
        <time>2026-06-28T07:04:48.000Z</time>
      </trkpt>
      <trkpt lat="42.78448" lon="1.54849">
        <ele>693</ele>
        <time>2026-06-28T07:04:49.000Z</time>
      </trkpt>
      <trkpt lat="42.78449" lon="1.54843">
        <ele>693</ele>
        <time>2026-06-28T07:04:50.000Z</time>
      </trkpt>
      <trkpt lat="42.78449" lon="1.54837">
        <ele>694</ele>
        <time>2026-06-28T07:04:51.000Z</time>
      </trkpt>
      <trkpt lat="42.78449" lon="1.54831">
        <ele>693</ele>
        <time>2026-06-28T07:04:52.000Z</time>
      </trkpt>
      <trkpt lat="42.7845" lon="1.54825">
        <ele>693</ele>
        <time>2026-06-28T07:04:53.000Z</time>
      </trkpt>
      <trkpt lat="42.7845" lon="1.5482">
        <ele>693</ele>
        <time>2026-06-28T07:04:54.000Z</time>
      </trkpt>
      <trkpt lat="42.7845" lon="1.54814">
        <ele>694</ele>
        <time>2026-06-28T07:04:55.000Z</time>
      </trkpt>
      <trkpt lat="42.7845" lon="1.54809">
        <ele>695</ele>
        <time>2026-06-28T07:04:56.000Z</time>
      </trkpt>
      <trkpt lat="42.78449" lon="1.54803">
        <ele>695</ele>
        <time>2026-06-28T07:04:57.000Z</time>
      </trkpt>
      <trkpt lat="42.78448" lon="1.54798">
        <ele>696</ele>
        <time>2026-06-28T07:04:58.000Z</time>
      </trkpt>
      <trkpt lat="42.78447" lon="1.54791">
        <ele>696</ele>
        <time>2026-06-28T07:04:59.000Z</time>
      </trkpt>
      <trkpt lat="42.78446" lon="1.54785">
        <ele>696</ele>
        <time>2026-06-28T07:05:00.000Z</time>
      </trkpt>
      <trkpt lat="42.78444" lon="1.54779">
        <ele>697</ele>
        <time>2026-06-28T07:05:01.000Z</time>
      </trkpt>
      <trkpt lat="42.78443" lon="1.54774">
        <ele>697</ele>
        <time>2026-06-28T07:05:02.000Z</time>
      </trkpt>
      <trkpt lat="42.78442" lon="1.54769">
        <ele>697</ele>
        <time>2026-06-28T07:05:03.000Z</time>
      </trkpt>
      <trkpt lat="42.7844" lon="1.54764">
        <ele>697</ele>
        <time>2026-06-28T07:05:04.000Z</time>
      </trkpt>
      <trkpt lat="42.78439" lon="1.54759">
        <ele>697</ele>
        <time>2026-06-28T07:05:05.000Z</time>
      </trkpt>
      <trkpt lat="42.78438" lon="1.54755">
        <ele>697</ele>
        <time>2026-06-28T07:05:06.000Z</time>
      </trkpt>
      <trkpt lat="42.78437" lon="1.5475">
        <ele>697</ele>
        <time>2026-06-28T07:05:07.000Z</time>
      </trkpt>
      <trkpt lat="42.78435" lon="1.54746">
        <ele>698</ele>
        <time>2026-06-28T07:05:08.000Z</time>
      </trkpt>
      <trkpt lat="42.78434" lon="1.54741">
        <ele>698</ele>
        <time>2026-06-28T07:05:09.000Z</time>
      </trkpt>
      <trkpt lat="42.78433" lon="1.54737">
        <ele>698</ele>
        <time>2026-06-28T07:05:10.000Z</time>
      </trkpt>
      <trkpt lat="42.78432" lon="1.54732">
        <ele>699</ele>
        <time>2026-06-28T07:05:11.000Z</time>
      </trkpt>
      <trkpt lat="42.7843" lon="1.54727">
        <ele>699</ele>
        <time>2026-06-28T07:05:12.000Z</time>
      </trkpt>
      <trkpt lat="42.78429" lon="1.54723">
        <ele>699</ele>
        <time>2026-06-28T07:05:13.000Z</time>
      </trkpt>
      <trkpt lat="42.78427" lon="1.54719">
        <ele>700</ele>
        <time>2026-06-28T07:05:14.000Z</time>
      </trkpt>
      <trkpt lat="42.78425" lon="1.54714">
        <ele>700</ele>
        <time>2026-06-28T07:05:15.000Z</time>
      </trkpt>
      <trkpt lat="42.78424" lon="1.5471">
        <ele>700</ele>
        <time>2026-06-28T07:05:16.000Z</time>
      </trkpt>
      <trkpt lat="42.78421" lon="1.54706">
        <ele>699</ele>
        <time>2026-06-28T07:05:17.000Z</time>
      </trkpt>
      <trkpt lat="42.7842" lon="1.54702">
        <ele>700</ele>
        <time>2026-06-28T07:05:18.000Z</time>
      </trkpt>
      <trkpt lat="42.78418" lon="1.54698">
        <ele>700</ele>
        <time>2026-06-28T07:05:19.000Z</time>
      </trkpt>
      <trkpt lat="42.78416" lon="1.54693">
        <ele>700</ele>
        <time>2026-06-28T07:05:20.000Z</time>
      </trkpt>
      <trkpt lat="42.78414" lon="1.54689">
        <ele>701</ele>
        <time>2026-06-28T07:05:21.000Z</time>
      </trkpt>
      <trkpt lat="42.78412" lon="1.54685">
        <ele>702</ele>
        <time>2026-06-28T07:05:22.000Z</time>
      </trkpt>
      <trkpt lat="42.78411" lon="1.54681">
        <ele>702</ele>
        <time>2026-06-28T07:05:23.000Z</time>
      </trkpt>
      <trkpt lat="42.7841" lon="1.54676">
        <ele>702</ele>
        <time>2026-06-28T07:05:24.000Z</time>
      </trkpt>
      <trkpt lat="42.78409" lon="1.5467">
        <ele>702</ele>
        <time>2026-06-28T07:05:25.000Z</time>
      </trkpt>
      <trkpt lat="42.78408" lon="1.54664">
        <ele>702</ele>
        <time>2026-06-28T07:05:26.000Z</time>
      </trkpt>
      <trkpt lat="42.78408" lon="1.5466">
        <ele>703</ele>
        <time>2026-06-28T07:05:27.000Z</time>
      </trkpt>
      <trkpt lat="42.78409" lon="1.54655">
        <ele>703</ele>
        <time>2026-06-28T07:05:28.000Z</time>
      </trkpt>
      <trkpt lat="42.78412" lon="1.54651">
        <ele>703</ele>
        <time>2026-06-28T07:05:29.000Z</time>
      </trkpt>
      <trkpt lat="42.78414" lon="1.54647">
        <ele>703</ele>
        <time>2026-06-28T07:05:30.000Z</time>
      </trkpt>
      <trkpt lat="42.78419" lon="1.54643">
        <ele>703</ele>
        <time>2026-06-28T07:05:31.000Z</time>
      </trkpt>
      <trkpt lat="42.78422" lon="1.5464">
        <ele>703</ele>
        <time>2026-06-28T07:05:32.000Z</time>
      </trkpt>
      <trkpt lat="42.78427" lon="1.54637">
        <ele>702</ele>
        <time>2026-06-28T07:05:33.000Z</time>
      </trkpt>
      <trkpt lat="42.7843" lon="1.54633">
        <ele>702</ele>
        <time>2026-06-28T07:05:34.000Z</time>
      </trkpt>
      <trkpt lat="42.78434" lon="1.5463">
        <ele>702</ele>
        <time>2026-06-28T07:05:35.000Z</time>
      </trkpt>
      <trkpt lat="42.78438" lon="1.54627">
        <ele>702</ele>
        <time>2026-06-28T07:05:36.000Z</time>
      </trkpt>
      <trkpt lat="42.78441" lon="1.54624">
        <ele>701</ele>
        <time>2026-06-28T07:05:37.000Z</time>
      </trkpt>
      <trkpt lat="42.78445" lon="1.54622">
        <ele>702</ele>
        <time>2026-06-28T07:05:38.000Z</time>
      </trkpt>
      <trkpt lat="42.78449" lon="1.5462">
        <ele>702</ele>
        <time>2026-06-28T07:05:39.000Z</time>
      </trkpt>
      <trkpt lat="42.78453" lon="1.54619">
        <ele>702</ele>
        <time>2026-06-28T07:05:40.000Z</time>
      </trkpt>
      <trkpt lat="42.78458" lon="1.54618">
        <ele>702</ele>
        <time>2026-06-28T07:05:41.000Z</time>
      </trkpt>
      <trkpt lat="42.78461" lon="1.54619">
        <ele>702</ele>
        <time>2026-06-28T07:05:42.000Z</time>
      </trkpt>
      <trkpt lat="42.78465" lon="1.5462">
        <ele>703</ele>
        <time>2026-06-28T07:05:43.000Z</time>
      </trkpt>
      <trkpt lat="42.78468" lon="1.54621">
        <ele>703</ele>
        <time>2026-06-28T07:05:44.000Z</time>
      </trkpt>
      <trkpt lat="42.78472" lon="1.54622">
        <ele>704</ele>
        <time>2026-06-28T07:05:45.000Z</time>
      </trkpt>
      <trkpt lat="42.78475" lon="1.54623">
        <ele>704</ele>
        <time>2026-06-28T07:05:46.000Z</time>
      </trkpt>
      <trkpt lat="42.78478" lon="1.54625">
        <ele>704</ele>
        <time>2026-06-28T07:05:47.000Z</time>
      </trkpt>
      <trkpt lat="42.7848" lon="1.54626">
        <ele>705</ele>
        <time>2026-06-28T07:05:48.000Z</time>
      </trkpt>
      <trkpt lat="42.78483" lon="1.54628">
        <ele>705</ele>
        <time>2026-06-28T07:05:49.000Z</time>
      </trkpt>
      <trkpt lat="42.78486" lon="1.5463">
        <ele>705</ele>
        <time>2026-06-28T07:05:50.000Z</time>
      </trkpt>
      <trkpt lat="42.7849" lon="1.54632">
        <ele>706</ele>
        <time>2026-06-28T07:05:51.000Z</time>
      </trkpt>
      <trkpt lat="42.78492" lon="1.54632">
        <ele>706</ele>
        <time>2026-06-28T07:05:52.000Z</time>
      </trkpt>
      <trkpt lat="42.78496" lon="1.54633">
        <ele>706</ele>
        <time>2026-06-28T07:05:53.000Z</time>
      </trkpt>
      <trkpt lat="42.78499" lon="1.54634">
        <ele>706</ele>
        <time>2026-06-28T07:05:54.000Z</time>
      </trkpt>
      <trkpt lat="42.78501" lon="1.54635">
        <ele>706</ele>
        <time>2026-06-28T07:05:55.000Z</time>
      </trkpt>
      <trkpt lat="42.78505" lon="1.54637">
        <ele>706</ele>
        <time>2026-06-28T07:05:56.000Z</time>
      </trkpt>
      <trkpt lat="42.78508" lon="1.54639">
        <ele>707</ele>
        <time>2026-06-28T07:05:57.000Z</time>
      </trkpt>
      <trkpt lat="42.78511" lon="1.54641">
        <ele>707</ele>
        <time>2026-06-28T07:05:58.000Z</time>
      </trkpt>
      <trkpt lat="42.78513" lon="1.54642">
        <ele>707</ele>
        <time>2026-06-28T07:05:59.000Z</time>
      </trkpt>
      <trkpt lat="42.78516" lon="1.54643">
        <ele>707</ele>
        <time>2026-06-28T07:06:00.000Z</time>
      </trkpt>
      <trkpt lat="42.78518" lon="1.54645">
        <ele>707</ele>
        <time>2026-06-28T07:06:01.000Z</time>
      </trkpt>
      <trkpt lat="42.7852" lon="1.54646">
        <ele>707</ele>
        <time>2026-06-28T07:06:02.000Z</time>
      </trkpt>
      <trkpt lat="42.78523" lon="1.54647">
        <ele>707</ele>
        <time>2026-06-28T07:06:03.000Z</time>
      </trkpt>
      <trkpt lat="42.78525" lon="1.54648">
        <ele>708</ele>
        <time>2026-06-28T07:06:04.000Z</time>
      </trkpt>
      <trkpt lat="42.78527" lon="1.5465">
        <ele>708</ele>
        <time>2026-06-28T07:06:05.000Z</time>
      </trkpt>
      <trkpt lat="42.78529" lon="1.54651">
        <ele>708</ele>
        <time>2026-06-28T07:06:06.000Z</time>
      </trkpt>
      <trkpt lat="42.7853" lon="1.54652">
        <ele>708</ele>
        <time>2026-06-28T07:06:07.000Z</time>
      </trkpt>
      <trkpt lat="42.78531" lon="1.54653">
        <ele>708</ele>
        <time>2026-06-28T07:06:08.000Z</time>
      </trkpt>
      <trkpt lat="42.78532" lon="1.54654">
        <ele>708</ele>
        <time>2026-06-28T07:06:09.000Z</time>
      </trkpt>
      <trkpt lat="42.78533" lon="1.54655">
        <ele>708</ele>
        <time>2026-06-28T07:06:10.000Z</time>
      </trkpt>
      <trkpt lat="42.78534" lon="1.54655">
        <ele>709</ele>
        <time>2026-06-28T07:06:11.000Z</time>
      </trkpt>
      <trkpt lat="42.78534" lon="1.54656">
        <ele>709</ele>
        <time>2026-06-28T07:06:12.000Z</time>
      </trkpt>
      <trkpt lat="42.78535" lon="1.54656">
        <ele>709</ele>
        <time>2026-06-28T07:06:13.000Z</time>
      </trkpt>
      <trkpt lat="42.78535" lon="1.54656">
        <ele>709</ele>
        <time>2026-06-28T07:06:14.000Z</time>
      </trkpt>
      <trkpt lat="42.78535" lon="1.54655">
        <ele>709</ele>
        <time>2026-06-28T07:06:15.000Z</time>
      </trkpt>
      <trkpt lat="42.78536" lon="1.54655">
        <ele>709</ele>
        <time>2026-06-28T07:06:16.000Z</time>
      </trkpt>
      <trkpt lat="42.78536" lon="1.54654">
        <ele>709</ele>
        <time>2026-06-28T07:06:17.000Z</time>
      </trkpt>
      <trkpt lat="42.78537" lon="1.54653">
        <ele>709</ele>
        <time>2026-06-28T07:06:18.000Z</time>
      </trkpt>
      <trkpt lat="42.78537" lon="1.54652">
        <ele>710</ele>
        <time>2026-06-28T07:06:19.000Z</time>
      </trkpt>
      <trkpt lat="42.78537" lon="1.5465">
        <ele>710</ele>
        <time>2026-06-28T07:06:20.000Z</time>
      </trkpt>
      <trkpt lat="42.78537" lon="1.5465">
        <ele>710</ele>
        <time>2026-06-28T07:06:21.000Z</time>
      </trkpt>
      <trkpt lat="42.78537" lon="1.54649">
        <ele>710</ele>
        <time>2026-06-28T07:06:22.000Z</time>
      </trkpt>
      <trkpt lat="42.78536" lon="1.54648">
        <ele>710</ele>
        <time>2026-06-28T07:06:23.000Z</time>
      </trkpt>
      <trkpt lat="42.78535" lon="1.54647">
        <ele>710</ele>
        <time>2026-06-28T07:06:24.000Z</time>
      </trkpt>
      <trkpt lat="42.78534" lon="1.54646">
        <ele>711</ele>
        <time>2026-06-28T07:06:25.000Z</time>
      </trkpt>
      <trkpt lat="42.78534" lon="1.54645">
        <ele>711</ele>
        <time>2026-06-28T07:06:26.000Z</time>
      </trkpt>
      <trkpt lat="42.78534" lon="1.54644">
        <ele>711</ele>
        <time>2026-06-28T07:06:27.000Z</time>
      </trkpt>
      <trkpt lat="42.78533" lon="1.54643">
        <ele>711</ele>
        <time>2026-06-28T07:06:28.000Z</time>
      </trkpt>
      <trkpt lat="42.78533" lon="1.54643">
        <ele>711</ele>
        <time>2026-06-28T07:06:29.000Z</time>
      </trkpt>
      <trkpt lat="42.78534" lon="1.54642">
        <ele>711</ele>
        <time>2026-06-28T07:06:30.000Z</time>
      </trkpt>
      <trkpt lat="42.78534" lon="1.54642">
        <ele>710</ele>
        <time>2026-06-28T07:06:31.000Z</time>
      </trkpt>
      <trkpt lat="42.78535" lon="1.54641">
        <ele>710</ele>
        <time>2026-06-28T07:06:32.000Z</time>
      </trkpt>
      <trkpt lat="42.78535" lon="1.54641">
        <ele>710</ele>
        <time>2026-06-28T07:06:33.000Z</time>
      </trkpt>
      <trkpt lat="42.78536" lon="1.5464">
        <ele>711</ele>
        <time>2026-06-28T07:06:34.000Z</time>
      </trkpt>
      <trkpt lat="42.78536" lon="1.5464">
        <ele>711</ele>
        <time>2026-06-28T07:06:35.000Z</time>
      </trkpt>
      <trkpt lat="42.78536" lon="1.54639">
        <ele>711</ele>
        <time>2026-06-28T07:06:36.000Z</time>
      </trkpt>
      <trkpt lat="42.78536" lon="1.54638">
        <ele>711</ele>
        <time>2026-06-28T07:06:37.000Z</time>
      </trkpt>
      <trkpt lat="42.78537" lon="1.54636">
        <ele>711</ele>
        <time>2026-06-28T07:06:38.000Z</time>
      </trkpt>
      <trkpt lat="42.78537" lon="1.54634">
        <ele>711</ele>
        <time>2026-06-28T07:06:39.000Z</time>
      </trkpt>
      <trkpt lat="42.78537" lon="1.54634">
        <ele>711</ele>
        <time>2026-06-28T07:06:40.000Z</time>
      </trkpt>
      <trkpt lat="42.78538" lon="1.54634">
        <ele>711</ele>
        <time>2026-06-28T07:06:41.000Z</time>
      </trkpt>
      <trkpt lat="42.78538" lon="1.54634">
        <ele>711</ele>
        <time>2026-06-28T07:06:42.000Z</time>
      </trkpt>
      <trkpt lat="42.78538" lon="1.54634">
        <ele>711</ele>
        <time>2026-06-28T07:06:43.000Z</time>
      </trkpt>
      <trkpt lat="42.78538" lon="1.54632">
        <ele>711</ele>
        <time>2026-06-28T07:06:44.000Z</time>
      </trkpt>
      <trkpt lat="42.78539" lon="1.54631">
        <ele>711</ele>
        <time>2026-06-28T07:06:45.000Z</time>
      </trkpt>
      <trkpt lat="42.78539" lon="1.54629">
        <ele>712</ele>
        <time>2026-06-28T07:06:46.000Z</time>
      </trkpt>
      <trkpt lat="42.78539" lon="1.54627">
        <ele>711</ele>
        <time>2026-06-28T07:06:47.000Z</time>
      </trkpt>
      <trkpt lat="42.78538" lon="1.54625">
        <ele>711</ele>
        <time>2026-06-28T07:06:48.000Z</time>
      </trkpt>
      <trkpt lat="42.78538" lon="1.54623">
        <ele>712</ele>
        <time>2026-06-28T07:06:49.000Z</time>
      </trkpt>
      <trkpt lat="42.78538" lon="1.54621">
        <ele>712</ele>
        <time>2026-06-28T07:06:50.000Z</time>
      </trkpt>
      <trkpt lat="42.78538" lon="1.5462">
        <ele>712</ele>
        <time>2026-06-28T07:06:51.000Z</time>
      </trkpt>
      <trkpt lat="42.78538" lon="1.54619">
        <ele>712</ele>
        <time>2026-06-28T07:06:52.000Z</time>
      </trkpt>
      <trkpt lat="42.78538" lon="1.54617">
        <ele>712</ele>
        <time>2026-06-28T07:06:53.000Z</time>
      </trkpt>
      <trkpt lat="42.78538" lon="1.54614">
        <ele>712</ele>
        <time>2026-06-28T07:06:54.000Z</time>
      </trkpt>
      <trkpt lat="42.78538" lon="1.54612">
        <ele>712</ele>
        <time>2026-06-28T07:06:55.000Z</time>
      </trkpt>
      <trkpt lat="42.78538" lon="1.5461">
        <ele>712</ele>
        <time>2026-06-28T07:06:56.000Z</time>
      </trkpt>
      <trkpt lat="42.78537" lon="1.54607">
        <ele>712</ele>
        <time>2026-06-28T07:06:57.000Z</time>
      </trkpt>
      <trkpt lat="42.78537" lon="1.54605">
        <ele>712</ele>
        <time>2026-06-28T07:06:58.000Z</time>
      </trkpt>
      <trkpt lat="42.78538" lon="1.54603">
        <ele>712</ele>
        <time>2026-06-28T07:06:59.000Z</time>
      </trkpt>
      <trkpt lat="42.78538" lon="1.546">
        <ele>713</ele>
        <time>2026-06-28T07:07:00.000Z</time>
      </trkpt>
      <trkpt lat="42.78538" lon="1.54598">
        <ele>713</ele>
        <time>2026-06-28T07:07:01.000Z</time>
      </trkpt>
      <trkpt lat="42.78537" lon="1.54596">
        <ele>713</ele>
        <time>2026-06-28T07:07:02.000Z</time>
      </trkpt>
      <trkpt lat="42.78537" lon="1.54594">
        <ele>713</ele>
        <time>2026-06-28T07:07:03.000Z</time>
      </trkpt>
      <trkpt lat="42.78537" lon="1.54591">
        <ele>713</ele>
        <time>2026-06-28T07:07:04.000Z</time>
      </trkpt>
      <trkpt lat="42.78536" lon="1.54588">
        <ele>713</ele>
        <time>2026-06-28T07:07:05.000Z</time>
      </trkpt>
      <trkpt lat="42.78535" lon="1.54585">
        <ele>713</ele>
        <time>2026-06-28T07:07:06.000Z</time>
      </trkpt>
      <trkpt lat="42.78534" lon="1.54581">
        <ele>713</ele>
        <time>2026-06-28T07:07:07.000Z</time>
      </trkpt>
      <trkpt lat="42.78533" lon="1.54577">
        <ele>713</ele>
        <time>2026-06-28T07:07:08.000Z</time>
      </trkpt>
      <trkpt lat="42.78533" lon="1.54574">
        <ele>712</ele>
        <time>2026-06-28T07:07:09.000Z</time>
      </trkpt>
      <trkpt lat="42.78532" lon="1.5457">
        <ele>711</ele>
        <time>2026-06-28T07:07:10.000Z</time>
      </trkpt>
      <trkpt lat="42.78531" lon="1.54567">
        <ele>711</ele>
        <time>2026-06-28T07:07:11.000Z</time>
      </trkpt>
      <trkpt lat="42.7853" lon="1.54564">
        <ele>710</ele>
        <time>2026-06-28T07:07:12.000Z</time>
      </trkpt>
      <trkpt lat="42.78528" lon="1.54561">
        <ele>710</ele>
        <time>2026-06-28T07:07:13.000Z</time>
      </trkpt>
      <trkpt lat="42.78527" lon="1.54558">
        <ele>709</ele>
        <time>2026-06-28T07:07:14.000Z</time>
      </trkpt>
      <trkpt lat="42.78526" lon="1.54555">
        <ele>708</ele>
        <time>2026-06-28T07:07:15.000Z</time>
      </trkpt>
      <trkpt lat="42.78525" lon="1.54552">
        <ele>707</ele>
        <time>2026-06-28T07:07:16.000Z</time>
      </trkpt>
      <trkpt lat="42.78523" lon="1.54549">
        <ele>707</ele>
        <time>2026-06-28T07:07:17.000Z</time>
      </trkpt>
      <trkpt lat="42.78521" lon="1.54546">
        <ele>707</ele>
        <time>2026-06-28T07:07:18.000Z</time>
      </trkpt>
      <trkpt lat="42.7852" lon="1.54541">
        <ele>707</ele>
        <time>2026-06-28T07:07:19.000Z</time>
      </trkpt>
      <trkpt lat="42.78519" lon="1.54537">
        <ele>707</ele>
        <time>2026-06-28T07:07:20.000Z</time>
      </trkpt>
      <trkpt lat="42.78517" lon="1.54533">
        <ele>707</ele>
        <time>2026-06-28T07:07:21.000Z</time>
      </trkpt>
      <trkpt lat="42.78515" lon="1.5453">
        <ele>707</ele>
        <time>2026-06-28T07:07:22.000Z</time>
      </trkpt>
      <trkpt lat="42.78514" lon="1.54527">
        <ele>708</ele>
        <time>2026-06-28T07:07:23.000Z</time>
      </trkpt>
      <trkpt lat="42.78513" lon="1.54525">
        <ele>708</ele>
        <time>2026-06-28T07:07:24.000Z</time>
      </trkpt>
      <trkpt lat="42.78512" lon="1.54524">
        <ele>709</ele>
        <time>2026-06-28T07:07:25.000Z</time>
      </trkpt>
      <trkpt lat="42.78512" lon="1.54522">
        <ele>708</ele>
        <time>2026-06-28T07:07:26.000Z</time>
      </trkpt>
      <trkpt lat="42.78512" lon="1.54521">
        <ele>709</ele>
        <time>2026-06-28T07:07:27.000Z</time>
      </trkpt>
      <trkpt lat="42.78512" lon="1.54519">
        <ele>710</ele>
        <time>2026-06-28T07:07:28.000Z</time>
      </trkpt>
      <trkpt lat="42.78512" lon="1.54518">
        <ele>710</ele>
        <time>2026-06-28T07:07:29.000Z</time>
      </trkpt>
      <trkpt lat="42.78512" lon="1.54517">
        <ele>710</ele>
        <time>2026-06-28T07:07:30.000Z</time>
      </trkpt>
      <trkpt lat="42.78512" lon="1.54516">
        <ele>711</ele>
        <time>2026-06-28T07:07:31.000Z</time>
      </trkpt>
      <trkpt lat="42.78512" lon="1.54515">
        <ele>710</ele>
        <time>2026-06-28T07:07:32.000Z</time>
      </trkpt>
      <trkpt lat="42.78512" lon="1.54514">
        <ele>710</ele>
        <time>2026-06-28T07:07:33.000Z</time>
      </trkpt>
      <trkpt lat="42.78511" lon="1.54513">
        <ele>711</ele>
        <time>2026-06-28T07:07:34.000Z</time>
      </trkpt>
      <trkpt lat="42.78511" lon="1.54512">
        <ele>711</ele>
        <time>2026-06-28T07:07:35.000Z</time>
      </trkpt>
      <trkpt lat="42.7851" lon="1.54511">
        <ele>711</ele>
        <time>2026-06-28T07:07:36.000Z</time>
      </trkpt>
      <trkpt lat="42.78509" lon="1.5451">
        <ele>711</ele>
        <time>2026-06-28T07:07:37.000Z</time>
      </trkpt>
      <trkpt lat="42.78508" lon="1.54508">
        <ele>711</ele>
        <time>2026-06-28T07:07:38.000Z</time>
      </trkpt>
      <trkpt lat="42.78507" lon="1.54506">
        <ele>712</ele>
        <time>2026-06-28T07:07:39.000Z</time>
      </trkpt>
      <trkpt lat="42.78507" lon="1.54504">
        <ele>711</ele>
        <time>2026-06-28T07:07:40.000Z</time>
      </trkpt>
      <trkpt lat="42.78506" lon="1.54502">
        <ele>711</ele>
        <time>2026-06-28T07:07:41.000Z</time>
      </trkpt>
      <trkpt lat="42.78506" lon="1.545">
        <ele>710</ele>
        <time>2026-06-28T07:07:42.000Z</time>
      </trkpt>
      <trkpt lat="42.78505" lon="1.54498">
        <ele>710</ele>
        <time>2026-06-28T07:07:43.000Z</time>
      </trkpt>
      <trkpt lat="42.78505" lon="1.54496">
        <ele>711</ele>
        <time>2026-06-28T07:07:44.000Z</time>
      </trkpt>
      <trkpt lat="42.78504" lon="1.54494">
        <ele>712</ele>
        <time>2026-06-28T07:07:45.000Z</time>
      </trkpt>
      <trkpt lat="42.78503" lon="1.54492">
        <ele>711</ele>
        <time>2026-06-28T07:07:46.000Z</time>
      </trkpt>
      <trkpt lat="42.78502" lon="1.54489">
        <ele>710</ele>
        <time>2026-06-28T07:07:47.000Z</time>
      </trkpt>
      <trkpt lat="42.78501" lon="1.54486">
        <ele>708</ele>
        <time>2026-06-28T07:07:48.000Z</time>
      </trkpt>
      <trkpt lat="42.78499" lon="1.54483">
        <ele>708</ele>
        <time>2026-06-28T07:07:49.000Z</time>
      </trkpt>
      <trkpt lat="42.78498" lon="1.54481">
        <ele>708</ele>
        <time>2026-06-28T07:07:50.000Z</time>
      </trkpt>
      <trkpt lat="42.78497" lon="1.54479">
        <ele>707</ele>
        <time>2026-06-28T07:07:51.000Z</time>
      </trkpt>
      <trkpt lat="42.78496" lon="1.54477">
        <ele>707</ele>
        <time>2026-06-28T07:07:52.000Z</time>
      </trkpt>
      <trkpt lat="42.78495" lon="1.54477">
        <ele>707</ele>
        <time>2026-06-28T07:07:53.000Z</time>
      </trkpt>
      <trkpt lat="42.78494" lon="1.54476">
        <ele>707</ele>
        <time>2026-06-28T07:07:54.000Z</time>
      </trkpt>
      <trkpt lat="42.78494" lon="1.54476">
        <ele>708</ele>
        <time>2026-06-28T07:07:55.000Z</time>
      </trkpt>
      <trkpt lat="42.78495" lon="1.54476">
        <ele>707</ele>
        <time>2026-06-28T07:07:56.000Z</time>
      </trkpt>
      <trkpt lat="42.78492" lon="1.54475">
        <ele>706</ele>
        <time>2026-06-28T07:08:13.000Z</time>
      </trkpt>
      <trkpt lat="42.78492" lon="1.54475">
        <ele>706</ele>
        <time>2026-06-28T07:08:14.000Z</time>
      </trkpt>
      <trkpt lat="42.7849" lon="1.54475">
        <ele>707</ele>
        <time>2026-06-28T07:08:15.000Z</time>
      </trkpt>
      <trkpt lat="42.7849" lon="1.54475">
        <ele>707</ele>
        <time>2026-06-28T07:08:16.000Z</time>
      </trkpt>
      <trkpt lat="42.7849" lon="1.54475">
        <ele>707</ele>
        <time>2026-06-28T07:08:17.000Z</time>
      </trkpt>
      <trkpt lat="42.7849" lon="1.54474">
        <ele>708</ele>
        <time>2026-06-28T07:08:18.000Z</time>
      </trkpt>
      <trkpt lat="42.78489" lon="1.54473">
        <ele>709</ele>
        <time>2026-06-28T07:08:19.000Z</time>
      </trkpt>
      <trkpt lat="42.78489" lon="1.54472">
        <ele>710</ele>
        <time>2026-06-28T07:08:20.000Z</time>
      </trkpt>
      <trkpt lat="42.78489" lon="1.54471">
        <ele>710</ele>
        <time>2026-06-28T07:08:21.000Z</time>
      </trkpt>
      <trkpt lat="42.78488" lon="1.54471">
        <ele>710</ele>
        <time>2026-06-28T07:08:22.000Z</time>
      </trkpt>
      <trkpt lat="42.78488" lon="1.54471">
        <ele>710</ele>
        <time>2026-06-28T07:08:23.000Z</time>
      </trkpt>
      <trkpt lat="42.78488" lon="1.54471">
        <ele>710</ele>
        <time>2026-06-28T07:08:24.000Z</time>
      </trkpt>
      <trkpt lat="42.78488" lon="1.54471">
        <ele>710</ele>
        <time>2026-06-28T07:08:25.000Z</time>
      </trkpt>
      <trkpt lat="42.78488" lon="1.54471">
        <ele>710</ele>
        <time>2026-06-28T07:08:26.000Z</time>
      </trkpt>
      <trkpt lat="42.78488" lon="1.5447">
        <ele>710</ele>
        <time>2026-06-28T07:08:27.000Z</time>
      </trkpt>
      <trkpt lat="42.78488" lon="1.5447">
        <ele>711</ele>
        <time>2026-06-28T07:08:28.000Z</time>
      </trkpt>
      <trkpt lat="42.78488" lon="1.5447">
        <ele>711</ele>
        <time>2026-06-28T07:08:29.000Z</time>
      </trkpt>
      <trkpt lat="42.78488" lon="1.54469">
        <ele>711</ele>
        <time>2026-06-28T07:08:30.000Z</time>
      </trkpt>
      <trkpt lat="42.78487" lon="1.54468">
        <ele>711</ele>
        <time>2026-06-28T07:08:31.000Z</time>
      </trkpt>
      <trkpt lat="42.78486" lon="1.54467">
        <ele>711</ele>
        <time>2026-06-28T07:08:32.000Z</time>
      </trkpt>
      <trkpt lat="42.78485" lon="1.54465">
        <ele>711</ele>
        <time>2026-06-28T07:08:33.000Z</time>
      </trkpt>
      <trkpt lat="42.78483" lon="1.54464">
        <ele>711</ele>
        <time>2026-06-28T07:08:34.000Z</time>
      </trkpt>
      <trkpt lat="42.78482" lon="1.54462">
        <ele>711</ele>
        <time>2026-06-28T07:08:35.000Z</time>
      </trkpt>
      <trkpt lat="42.78481" lon="1.54462">
        <ele>711</ele>
        <time>2026-06-28T07:08:36.000Z</time>
      </trkpt>
      <trkpt lat="42.7848" lon="1.5446">
        <ele>711</ele>
        <time>2026-06-28T07:08:37.000Z</time>
      </trkpt>
      <trkpt lat="42.78478" lon="1.54459">
        <ele>711</ele>
        <time>2026-06-28T07:08:38.000Z</time>
      </trkpt>
      <trkpt lat="42.78476" lon="1.54458">
        <ele>711</ele>
        <time>2026-06-28T07:08:39.000Z</time>
      </trkpt>
      <trkpt lat="42.78474" lon="1.54457">
        <ele>710</ele>
        <time>2026-06-28T07:08:40.000Z</time>
      </trkpt>
      <trkpt lat="42.78472" lon="1.54457">
        <ele>710</ele>
        <time>2026-06-28T07:08:41.000Z</time>
      </trkpt>
      <trkpt lat="42.7847" lon="1.54456">
        <ele>709</ele>
        <time>2026-06-28T07:08:42.000Z</time>
      </trkpt>
      <trkpt lat="42.78468" lon="1.54455">
        <ele>709</ele>
        <time>2026-06-28T07:08:43.000Z</time>
      </trkpt>
      <trkpt lat="42.78466" lon="1.54454">
        <ele>709</ele>
        <time>2026-06-28T07:08:44.000Z</time>
      </trkpt>
      <trkpt lat="42.78464" lon="1.54454">
        <ele>708</ele>
        <time>2026-06-28T07:08:45.000Z</time>
      </trkpt>
      <trkpt lat="42.78461" lon="1.54453">
        <ele>708</ele>
        <time>2026-06-28T07:08:46.000Z</time>
      </trkpt>
      <trkpt lat="42.78459" lon="1.54453">
        <ele>708</ele>
        <time>2026-06-28T07:08:47.000Z</time>
      </trkpt>
      <trkpt lat="42.78457" lon="1.54452">
        <ele>708</ele>
        <time>2026-06-28T07:08:48.000Z</time>
      </trkpt>
      <trkpt lat="42.78455" lon="1.54451">
        <ele>707</ele>
        <time>2026-06-28T07:08:49.000Z</time>
      </trkpt>
      <trkpt lat="42.78454" lon="1.54451">
        <ele>707</ele>
        <time>2026-06-28T07:08:50.000Z</time>
      </trkpt>
      <trkpt lat="42.78452" lon="1.5445">
        <ele>707</ele>
        <time>2026-06-28T07:08:51.000Z</time>
      </trkpt>
      <trkpt lat="42.7845" lon="1.54448">
        <ele>707</ele>
        <time>2026-06-28T07:08:52.000Z</time>
      </trkpt>
      <trkpt lat="42.78448" lon="1.54446">
        <ele>707</ele>
        <time>2026-06-28T07:08:53.000Z</time>
      </trkpt>
      <trkpt lat="42.78446" lon="1.54444">
        <ele>707</ele>
        <time>2026-06-28T07:08:54.000Z</time>
      </trkpt>
      <trkpt lat="42.78444" lon="1.54442">
        <ele>706</ele>
        <time>2026-06-28T07:08:55.000Z</time>
      </trkpt>
      <trkpt lat="42.78443" lon="1.54442">
        <ele>705</ele>
        <time>2026-06-28T07:08:56.000Z</time>
      </trkpt>
      <trkpt lat="42.78443" lon="1.54441">
        <ele>705</ele>
        <time>2026-06-28T07:08:57.000Z</time>
      </trkpt>
      <trkpt lat="42.78442" lon="1.5444">
        <ele>705</ele>
        <time>2026-06-28T07:08:58.000Z</time>
      </trkpt>
      <trkpt lat="42.78442" lon="1.54439">
        <ele>704</ele>
        <time>2026-06-28T07:08:59.000Z</time>
      </trkpt>
      <trkpt lat="42.78441" lon="1.54437">
        <ele>704</ele>
        <time>2026-06-28T07:09:00.000Z</time>
      </trkpt>
      <trkpt lat="42.7844" lon="1.54435">
        <ele>705</ele>
        <time>2026-06-28T07:09:01.000Z</time>
      </trkpt>
      <trkpt lat="42.7844" lon="1.54433">
        <ele>705</ele>
        <time>2026-06-28T07:09:02.000Z</time>
      </trkpt>
      <trkpt lat="42.78439" lon="1.54431">
        <ele>705</ele>
        <time>2026-06-28T07:09:03.000Z</time>
      </trkpt>
      <trkpt lat="42.78438" lon="1.54429">
        <ele>705</ele>
        <time>2026-06-28T07:09:04.000Z</time>
      </trkpt>
      <trkpt lat="42.78437" lon="1.54427">
        <ele>705</ele>
        <time>2026-06-28T07:09:05.000Z</time>
      </trkpt>
      <trkpt lat="42.78436" lon="1.54426">
        <ele>705</ele>
        <time>2026-06-28T07:09:06.000Z</time>
      </trkpt>
      <trkpt lat="42.78435" lon="1.54424">
        <ele>705</ele>
        <time>2026-06-28T07:09:07.000Z</time>
      </trkpt>
      <trkpt lat="42.78433" lon="1.54422">
        <ele>705</ele>
        <time>2026-06-28T07:09:08.000Z</time>
      </trkpt>
      <trkpt lat="42.78431" lon="1.54419">
        <ele>704</ele>
        <time>2026-06-28T07:09:09.000Z</time>
      </trkpt>
      <trkpt lat="42.7843" lon="1.54417">
        <ele>704</ele>
        <time>2026-06-28T07:09:10.000Z</time>
      </trkpt>
      <trkpt lat="42.78428" lon="1.54415">
        <ele>704</ele>
        <time>2026-06-28T07:09:11.000Z</time>
      </trkpt>
      <trkpt lat="42.78426" lon="1.54412">
        <ele>704</ele>
        <time>2026-06-28T07:09:12.000Z</time>
      </trkpt>
      <trkpt lat="42.78424" lon="1.5441">
        <ele>704</ele>
        <time>2026-06-28T07:09:13.000Z</time>
      </trkpt>
      <trkpt lat="42.78422" lon="1.54408">
        <ele>703</ele>
        <time>2026-06-28T07:09:14.000Z</time>
      </trkpt>
      <trkpt lat="42.78419" lon="1.54406">
        <ele>702</ele>
        <time>2026-06-28T07:09:15.000Z</time>
      </trkpt>
      <trkpt lat="42.78416" lon="1.54404">
        <ele>702</ele>
        <time>2026-06-28T07:09:16.000Z</time>
      </trkpt>
      <trkpt lat="42.78413" lon="1.54403">
        <ele>702</ele>
        <time>2026-06-28T07:09:17.000Z</time>
      </trkpt>
      <trkpt lat="42.7841" lon="1.54401">
        <ele>702</ele>
        <time>2026-06-28T07:09:18.000Z</time>
      </trkpt>
      <trkpt lat="42.78409" lon="1.54398">
        <ele>701</ele>
        <time>2026-06-28T07:09:19.000Z</time>
      </trkpt>
      <trkpt lat="42.78408" lon="1.54396">
        <ele>702</ele>
        <time>2026-06-28T07:09:20.000Z</time>
      </trkpt>
      <trkpt lat="42.78408" lon="1.54393">
        <ele>702</ele>
        <time>2026-06-28T07:09:21.000Z</time>
      </trkpt>
      <trkpt lat="42.78407" lon="1.54391">
        <ele>702</ele>
        <time>2026-06-28T07:09:22.000Z</time>
      </trkpt>
      <trkpt lat="42.78406" lon="1.54387">
        <ele>703</ele>
        <time>2026-06-28T07:09:23.000Z</time>
      </trkpt>
      <trkpt lat="42.78406" lon="1.54383">
        <ele>703</ele>
        <time>2026-06-28T07:09:24.000Z</time>
      </trkpt>
      <trkpt lat="42.78405" lon="1.54381">
        <ele>703</ele>
        <time>2026-06-28T07:09:25.000Z</time>
      </trkpt>
      <trkpt lat="42.78403" lon="1.54378">
        <ele>703</ele>
        <time>2026-06-28T07:09:26.000Z</time>
      </trkpt>
      <trkpt lat="42.78402" lon="1.54374">
        <ele>702</ele>
        <time>2026-06-28T07:09:27.000Z</time>
      </trkpt>
      <trkpt lat="42.784" lon="1.54371">
        <ele>702</ele>
        <time>2026-06-28T07:09:28.000Z</time>
      </trkpt>
      <trkpt lat="42.78399" lon="1.54367">
        <ele>702</ele>
        <time>2026-06-28T07:09:29.000Z</time>
      </trkpt>
      <trkpt lat="42.78398" lon="1.54363">
        <ele>702</ele>
        <time>2026-06-28T07:09:30.000Z</time>
      </trkpt>
      <trkpt lat="42.78396" lon="1.54359">
        <ele>702</ele>
        <time>2026-06-28T07:09:31.000Z</time>
      </trkpt>
      <trkpt lat="42.78395" lon="1.54355">
        <ele>702</ele>
        <time>2026-06-28T07:09:32.000Z</time>
      </trkpt>
      <trkpt lat="42.78393" lon="1.54352">
        <ele>701</ele>
        <time>2026-06-28T07:09:33.000Z</time>
      </trkpt>
      <trkpt lat="42.78392" lon="1.54349">
        <ele>701</ele>
        <time>2026-06-28T07:09:34.000Z</time>
      </trkpt>
      <trkpt lat="42.78391" lon="1.54347">
        <ele>702</ele>
        <time>2026-06-28T07:09:35.000Z</time>
      </trkpt>
      <trkpt lat="42.78391" lon="1.54345">
        <ele>702</ele>
        <time>2026-06-28T07:09:36.000Z</time>
      </trkpt>
      <trkpt lat="42.78391" lon="1.54342">
        <ele>702</ele>
        <time>2026-06-28T07:09:37.000Z</time>
      </trkpt>
      <trkpt lat="42.78391" lon="1.5434">
        <ele>702</ele>
        <time>2026-06-28T07:09:38.000Z</time>
      </trkpt>
      <trkpt lat="42.78391" lon="1.54336">
        <ele>702</ele>
        <time>2026-06-28T07:09:39.000Z</time>
      </trkpt>
      <trkpt lat="42.7839" lon="1.54334">
        <ele>702</ele>
        <time>2026-06-28T07:09:40.000Z</time>
      </trkpt>
      <trkpt lat="42.7839" lon="1.54331">
        <ele>703</ele>
        <time>2026-06-28T07:09:41.000Z</time>
      </trkpt>
      <trkpt lat="42.7839" lon="1.54329">
        <ele>703</ele>
        <time>2026-06-28T07:09:42.000Z</time>
      </trkpt>
      <trkpt lat="42.78391" lon="1.54327">
        <ele>703</ele>
        <time>2026-06-28T07:09:43.000Z</time>
      </trkpt>
      <trkpt lat="42.78391" lon="1.54325">
        <ele>703</ele>
        <time>2026-06-28T07:09:44.000Z</time>
      </trkpt>
      <trkpt lat="42.78392" lon="1.54324">
        <ele>703</ele>
        <time>2026-06-28T07:09:45.000Z</time>
      </trkpt>
      <trkpt lat="42.78393" lon="1.54323">
        <ele>702</ele>
        <time>2026-06-28T07:09:46.000Z</time>
      </trkpt>
      <trkpt lat="42.78392" lon="1.54322">
        <ele>702</ele>
        <time>2026-06-28T07:09:47.000Z</time>
      </trkpt>
      <trkpt lat="42.78392" lon="1.54321">
        <ele>703</ele>
        <time>2026-06-28T07:09:48.000Z</time>
      </trkpt>
      <trkpt lat="42.78393" lon="1.5432">
        <ele>702</ele>
        <time>2026-06-28T07:09:49.000Z</time>
      </trkpt>
      <trkpt lat="42.78393" lon="1.54319">
        <ele>702</ele>
        <time>2026-06-28T07:09:50.000Z</time>
      </trkpt>
      <trkpt lat="42.78393" lon="1.54317">
        <ele>702</ele>
        <time>2026-06-28T07:09:51.000Z</time>
      </trkpt>
      <trkpt lat="42.78393" lon="1.54316">
        <ele>703</ele>
        <time>2026-06-28T07:09:52.000Z</time>
      </trkpt>
      <trkpt lat="42.78393" lon="1.54315">
        <ele>703</ele>
        <time>2026-06-28T07:09:53.000Z</time>
      </trkpt>
      <trkpt lat="42.78393" lon="1.54314">
        <ele>703</ele>
        <time>2026-06-28T07:09:54.000Z</time>
      </trkpt>
      <trkpt lat="42.78393" lon="1.54312">
        <ele>703</ele>
        <time>2026-06-28T07:09:55.000Z</time>
      </trkpt>
      <trkpt lat="42.78394" lon="1.54311">
        <ele>703</ele>
        <time>2026-06-28T07:09:56.000Z</time>
      </trkpt>
      <trkpt lat="42.78394" lon="1.54309">
        <ele>703</ele>
        <time>2026-06-28T07:09:57.000Z</time>
      </trkpt>
      <trkpt lat="42.78393" lon="1.54308">
        <ele>703</ele>
        <time>2026-06-28T07:09:58.000Z</time>
      </trkpt>
      <trkpt lat="42.78394" lon="1.54305">
        <ele>704</ele>
        <time>2026-06-28T07:09:59.000Z</time>
      </trkpt>
      <trkpt lat="42.78394" lon="1.54303">
        <ele>704</ele>
        <time>2026-06-28T07:10:00.000Z</time>
      </trkpt>
      <trkpt lat="42.78394" lon="1.543">
        <ele>704</ele>
        <time>2026-06-28T07:10:01.000Z</time>
      </trkpt>
      <trkpt lat="42.78395" lon="1.54296">
        <ele>704</ele>
        <time>2026-06-28T07:10:02.000Z</time>
      </trkpt>
      <trkpt lat="42.78396" lon="1.54292">
        <ele>704</ele>
        <time>2026-06-28T07:10:03.000Z</time>
      </trkpt>
      <trkpt lat="42.78396" lon="1.54289">
        <ele>705</ele>
        <time>2026-06-28T07:10:04.000Z</time>
      </trkpt>
      <trkpt lat="42.78397" lon="1.54285">
        <ele>706</ele>
        <time>2026-06-28T07:10:05.000Z</time>
      </trkpt>
      <trkpt lat="42.78396" lon="1.54281">
        <ele>706</ele>
        <time>2026-06-28T07:10:06.000Z</time>
      </trkpt>
      <trkpt lat="42.78396" lon="1.54277">
        <ele>706</ele>
        <time>2026-06-28T07:10:07.000Z</time>
      </trkpt>
      <trkpt lat="42.78397" lon="1.54272">
        <ele>706</ele>
        <time>2026-06-28T07:10:08.000Z</time>
      </trkpt>
      <trkpt lat="42.78397" lon="1.54268">
        <ele>706</ele>
        <time>2026-06-28T07:10:09.000Z</time>
      </trkpt>
      <trkpt lat="42.78397" lon="1.54264">
        <ele>706</ele>
        <time>2026-06-28T07:10:10.000Z</time>
      </trkpt>
      <trkpt lat="42.78396" lon="1.5426">
        <ele>706</ele>
        <time>2026-06-28T07:10:11.000Z</time>
      </trkpt>
      <trkpt lat="42.78396" lon="1.54256">
        <ele>706</ele>
        <time>2026-06-28T07:10:12.000Z</time>
      </trkpt>
      <trkpt lat="42.78395" lon="1.54252">
        <ele>707</ele>
        <time>2026-06-28T07:10:13.000Z</time>
      </trkpt>
      <trkpt lat="42.78394" lon="1.54248">
        <ele>706</ele>
        <time>2026-06-28T07:10:14.000Z</time>
      </trkpt>
      <trkpt lat="42.78393" lon="1.54244">
        <ele>706</ele>
        <time>2026-06-28T07:10:15.000Z</time>
      </trkpt>
      <trkpt lat="42.78392" lon="1.54241">
        <ele>706</ele>
        <time>2026-06-28T07:10:16.000Z</time>
      </trkpt>
      <trkpt lat="42.78392" lon="1.54237">
        <ele>707</ele>
        <time>2026-06-28T07:10:17.000Z</time>
      </trkpt>
      <trkpt lat="42.78392" lon="1.54233">
        <ele>707</ele>
        <time>2026-06-28T07:10:18.000Z</time>
      </trkpt>
      <trkpt lat="42.78392" lon="1.5423">
        <ele>707</ele>
        <time>2026-06-28T07:10:19.000Z</time>
      </trkpt>
      <trkpt lat="42.78391" lon="1.54228">
        <ele>707</ele>
        <time>2026-06-28T07:10:20.000Z</time>
      </trkpt>
      <trkpt lat="42.7839" lon="1.54225">
        <ele>707</ele>
        <time>2026-06-28T07:10:21.000Z</time>
      </trkpt>
      <trkpt lat="42.7839" lon="1.54222">
        <ele>707</ele>
        <time>2026-06-28T07:10:22.000Z</time>
      </trkpt>
      <trkpt lat="42.7839" lon="1.54219">
        <ele>707</ele>
        <time>2026-06-28T07:10:23.000Z</time>
      </trkpt>
      <trkpt lat="42.7839" lon="1.54216">
        <ele>707</ele>
        <time>2026-06-28T07:10:24.000Z</time>
      </trkpt>
      <trkpt lat="42.7839" lon="1.54212">
        <ele>707</ele>
        <time>2026-06-28T07:10:25.000Z</time>
      </trkpt>
      <trkpt lat="42.7839" lon="1.54209">
        <ele>708</ele>
        <time>2026-06-28T07:10:26.000Z</time>
      </trkpt>
      <trkpt lat="42.7839" lon="1.54205">
        <ele>708</ele>
        <time>2026-06-28T07:10:27.000Z</time>
      </trkpt>
      <trkpt lat="42.78389" lon="1.54202">
        <ele>708</ele>
        <time>2026-06-28T07:10:28.000Z</time>
      </trkpt>
      <trkpt lat="42.78389" lon="1.54198">
        <ele>708</ele>
        <time>2026-06-28T07:10:29.000Z</time>
      </trkpt>
      <trkpt lat="42.78388" lon="1.54195">
        <ele>708</ele>
        <time>2026-06-28T07:10:30.000Z</time>
      </trkpt>
      <trkpt lat="42.78387" lon="1.54191">
        <ele>708</ele>
        <time>2026-06-28T07:10:31.000Z</time>
      </trkpt>
      <trkpt lat="42.78385" lon="1.54189">
        <ele>708</ele>
        <time>2026-06-28T07:10:32.000Z</time>
      </trkpt>
      <trkpt lat="42.78383" lon="1.54186">
        <ele>709</ele>
        <time>2026-06-28T07:10:33.000Z</time>
      </trkpt>
      <trkpt lat="42.78381" lon="1.54184">
        <ele>709</ele>
        <time>2026-06-28T07:10:34.000Z</time>
      </trkpt>
      <trkpt lat="42.78378" lon="1.54182">
        <ele>711</ele>
        <time>2026-06-28T07:10:35.000Z</time>
      </trkpt>
      <trkpt lat="42.78376" lon="1.5418">
        <ele>711</ele>
        <time>2026-06-28T07:10:36.000Z</time>
      </trkpt>
      <trkpt lat="42.78375" lon="1.54179">
        <ele>712</ele>
        <time>2026-06-28T07:10:37.000Z</time>
      </trkpt>
      <trkpt lat="42.78373" lon="1.54177">
        <ele>713</ele>
        <time>2026-06-28T07:10:38.000Z</time>
      </trkpt>
      <trkpt lat="42.78371" lon="1.54176">
        <ele>712</ele>
        <time>2026-06-28T07:10:39.000Z</time>
      </trkpt>
      <trkpt lat="42.78369" lon="1.54174">
        <ele>713</ele>
        <time>2026-06-28T07:10:40.000Z</time>
      </trkpt>
      <trkpt lat="42.78367" lon="1.54172">
        <ele>714</ele>
        <time>2026-06-28T07:10:41.000Z</time>
      </trkpt>
      <trkpt lat="42.78365" lon="1.54169">
        <ele>715</ele>
        <time>2026-06-28T07:10:42.000Z</time>
      </trkpt>
      <trkpt lat="42.78362" lon="1.54167">
        <ele>715</ele>
        <time>2026-06-28T07:10:43.000Z</time>
      </trkpt>
      <trkpt lat="42.7836" lon="1.54163">
        <ele>716</ele>
        <time>2026-06-28T07:10:44.000Z</time>
      </trkpt>
      <trkpt lat="42.78359" lon="1.54161">
        <ele>716</ele>
        <time>2026-06-28T07:10:45.000Z</time>
      </trkpt>
      <trkpt lat="42.78357" lon="1.54158">
        <ele>717</ele>
        <time>2026-06-28T07:10:46.000Z</time>
      </trkpt>
      <trkpt lat="42.78355" lon="1.54155">
        <ele>717</ele>
        <time>2026-06-28T07:10:47.000Z</time>
      </trkpt>
      <trkpt lat="42.78354" lon="1.54153">
        <ele>717</ele>
        <time>2026-06-28T07:10:48.000Z</time>
      </trkpt>
      <trkpt lat="42.78353" lon="1.54151">
        <ele>717</ele>
        <time>2026-06-28T07:10:49.000Z</time>
      </trkpt>
      <trkpt lat="42.78351" lon="1.54149">
        <ele>717</ele>
        <time>2026-06-28T07:10:50.000Z</time>
      </trkpt>
      <trkpt lat="42.7835" lon="1.54147">
        <ele>716</ele>
        <time>2026-06-28T07:10:51.000Z</time>
      </trkpt>
      <trkpt lat="42.78348" lon="1.54145">
        <ele>716</ele>
        <time>2026-06-28T07:10:52.000Z</time>
      </trkpt>
      <trkpt lat="42.78346" lon="1.54142">
        <ele>716</ele>
        <time>2026-06-28T07:10:53.000Z</time>
      </trkpt>
      <trkpt lat="42.78345" lon="1.5414">
        <ele>716</ele>
        <time>2026-06-28T07:10:54.000Z</time>
      </trkpt>
      <trkpt lat="42.78343" lon="1.54137">
        <ele>715</ele>
        <time>2026-06-28T07:10:55.000Z</time>
      </trkpt>
      <trkpt lat="42.78342" lon="1.54135">
        <ele>715</ele>
        <time>2026-06-28T07:10:56.000Z</time>
      </trkpt>
      <trkpt lat="42.78341" lon="1.54132">
        <ele>715</ele>
        <time>2026-06-28T07:10:57.000Z</time>
      </trkpt>
      <trkpt lat="42.78339" lon="1.54129">
        <ele>715</ele>
        <time>2026-06-28T07:10:58.000Z</time>
      </trkpt>
      <trkpt lat="42.78338" lon="1.54126">
        <ele>715</ele>
        <time>2026-06-28T07:10:59.000Z</time>
      </trkpt>
      <trkpt lat="42.78335" lon="1.54123">
        <ele>715</ele>
        <time>2026-06-28T07:11:00.000Z</time>
      </trkpt>
      <trkpt lat="42.78332" lon="1.54119">
        <ele>714</ele>
        <time>2026-06-28T07:11:01.000Z</time>
      </trkpt>
      <trkpt lat="42.7833" lon="1.54115">
        <ele>713</ele>
        <time>2026-06-28T07:11:02.000Z</time>
      </trkpt>
      <trkpt lat="42.78327" lon="1.5411">
        <ele>713</ele>
        <time>2026-06-28T07:11:03.000Z</time>
      </trkpt>
      <trkpt lat="42.78324" lon="1.54105">
        <ele>713</ele>
        <time>2026-06-28T07:11:04.000Z</time>
      </trkpt>
      <trkpt lat="42.78321" lon="1.54101">
        <ele>713</ele>
        <time>2026-06-28T07:11:05.000Z</time>
      </trkpt>
      <trkpt lat="42.78319" lon="1.54096">
        <ele>713</ele>
        <time>2026-06-28T07:11:06.000Z</time>
      </trkpt>
      <trkpt lat="42.78316" lon="1.54091">
        <ele>713</ele>
        <time>2026-06-28T07:11:07.000Z</time>
      </trkpt>
      <trkpt lat="42.78314" lon="1.54087">
        <ele>713</ele>
        <time>2026-06-28T07:11:08.000Z</time>
      </trkpt>
      <trkpt lat="42.78312" lon="1.54083">
        <ele>713</ele>
        <time>2026-06-28T07:11:09.000Z</time>
      </trkpt>
      <trkpt lat="42.78311" lon="1.54079">
        <ele>713</ele>
        <time>2026-06-28T07:11:10.000Z</time>
      </trkpt>
      <trkpt lat="42.78308" lon="1.54075">
        <ele>713</ele>
        <time>2026-06-28T07:11:11.000Z</time>
      </trkpt>
      <trkpt lat="42.78306" lon="1.54072">
        <ele>713</ele>
        <time>2026-06-28T07:11:12.000Z</time>
      </trkpt>
      <trkpt lat="42.78303" lon="1.54069">
        <ele>714</ele>
        <time>2026-06-28T07:11:13.000Z</time>
      </trkpt>
      <trkpt lat="42.78301" lon="1.54066">
        <ele>714</ele>
        <time>2026-06-28T07:11:14.000Z</time>
      </trkpt>
      <trkpt lat="42.783" lon="1.54062">
        <ele>714</ele>
        <time>2026-06-28T07:11:15.000Z</time>
      </trkpt>
      <trkpt lat="42.78298" lon="1.54059">
        <ele>714</ele>
        <time>2026-06-28T07:11:16.000Z</time>
      </trkpt>
      <trkpt lat="42.78296" lon="1.54056">
        <ele>715</ele>
        <time>2026-06-28T07:11:17.000Z</time>
      </trkpt>
      <trkpt lat="42.78295" lon="1.54053">
        <ele>715</ele>
        <time>2026-06-28T07:11:18.000Z</time>
      </trkpt>
      <trkpt lat="42.78293" lon="1.5405">
        <ele>716</ele>
        <time>2026-06-28T07:11:19.000Z</time>
      </trkpt>
      <trkpt lat="42.78291" lon="1.54047">
        <ele>716</ele>
        <time>2026-06-28T07:11:20.000Z</time>
      </trkpt>
      <trkpt lat="42.78289" lon="1.54044">
        <ele>717</ele>
        <time>2026-06-28T07:11:21.000Z</time>
      </trkpt>
      <trkpt lat="42.78287" lon="1.5404">
        <ele>717</ele>
        <time>2026-06-28T07:11:22.000Z</time>
      </trkpt>
      <trkpt lat="42.78285" lon="1.54037">
        <ele>717</ele>
        <time>2026-06-28T07:11:23.000Z</time>
      </trkpt>
      <trkpt lat="42.78283" lon="1.54034">
        <ele>717</ele>
        <time>2026-06-28T07:11:24.000Z</time>
      </trkpt>
      <trkpt lat="42.7828" lon="1.54032">
        <ele>717</ele>
        <time>2026-06-28T07:11:25.000Z</time>
      </trkpt>
      <trkpt lat="42.78277" lon="1.54029">
        <ele>717</ele>
        <time>2026-06-28T07:11:26.000Z</time>
      </trkpt>
      <trkpt lat="42.78274" lon="1.54027">
        <ele>716</ele>
        <time>2026-06-28T07:11:27.000Z</time>
      </trkpt>
      <trkpt lat="42.78271" lon="1.54025">
        <ele>716</ele>
        <time>2026-06-28T07:11:28.000Z</time>
      </trkpt>
      <trkpt lat="42.78266" lon="1.54023">
        <ele>715</ele>
        <time>2026-06-28T07:11:29.000Z</time>
      </trkpt>
      <trkpt lat="42.78259" lon="1.5402">
        <ele>714</ele>
        <time>2026-06-28T07:11:30.000Z</time>
      </trkpt>
      <trkpt lat="42.78254" lon="1.54018">
        <ele>712</ele>
        <time>2026-06-28T07:11:31.000Z</time>
      </trkpt>
      <trkpt lat="42.78251" lon="1.54016">
        <ele>711</ele>
        <time>2026-06-28T07:11:32.000Z</time>
      </trkpt>
      <trkpt lat="42.78249" lon="1.54012">
        <ele>711</ele>
        <time>2026-06-28T07:11:33.000Z</time>
      </trkpt>
      <trkpt lat="42.78248" lon="1.54008">
        <ele>710</ele>
        <time>2026-06-28T07:11:34.000Z</time>
      </trkpt>
      <trkpt lat="42.78248" lon="1.54004">
        <ele>710</ele>
        <time>2026-06-28T07:11:35.000Z</time>
      </trkpt>
      <trkpt lat="42.78247" lon="1.54">
        <ele>711</ele>
        <time>2026-06-28T07:11:36.000Z</time>
      </trkpt>
      <trkpt lat="42.78246" lon="1.53995">
        <ele>711</ele>
        <time>2026-06-28T07:11:37.000Z</time>
      </trkpt>
      <trkpt lat="42.78245" lon="1.5399">
        <ele>711</ele>
        <time>2026-06-28T07:11:38.000Z</time>
      </trkpt>
      <trkpt lat="42.78244" lon="1.53985">
        <ele>712</ele>
        <time>2026-06-28T07:11:39.000Z</time>
      </trkpt>
      <trkpt lat="42.78243" lon="1.5398">
        <ele>712</ele>
        <time>2026-06-28T07:11:40.000Z</time>
      </trkpt>
      <trkpt lat="42.78243" lon="1.53975">
        <ele>713</ele>
        <time>2026-06-28T07:11:41.000Z</time>
      </trkpt>
      <trkpt lat="42.78242" lon="1.53969">
        <ele>713</ele>
        <time>2026-06-28T07:11:42.000Z</time>
      </trkpt>
      <trkpt lat="42.78242" lon="1.53965">
        <ele>713</ele>
        <time>2026-06-28T07:11:43.000Z</time>
      </trkpt>
      <trkpt lat="42.78241" lon="1.53961">
        <ele>713</ele>
        <time>2026-06-28T07:11:44.000Z</time>
      </trkpt>
      <trkpt lat="42.7824" lon="1.53958">
        <ele>713</ele>
        <time>2026-06-28T07:11:45.000Z</time>
      </trkpt>
      <trkpt lat="42.78239" lon="1.53956">
        <ele>713</ele>
        <time>2026-06-28T07:11:46.000Z</time>
      </trkpt>
      <trkpt lat="42.78238" lon="1.53953">
        <ele>713</ele>
        <time>2026-06-28T07:11:47.000Z</time>
      </trkpt>
      <trkpt lat="42.78236" lon="1.53951">
        <ele>713</ele>
        <time>2026-06-28T07:11:48.000Z</time>
      </trkpt>
      <trkpt lat="42.78234" lon="1.53948">
        <ele>713</ele>
        <time>2026-06-28T07:11:49.000Z</time>
      </trkpt>
      <trkpt lat="42.78233" lon="1.53945">
        <ele>712</ele>
        <time>2026-06-28T07:11:50.000Z</time>
      </trkpt>
      <trkpt lat="42.7823" lon="1.53941">
        <ele>712</ele>
        <time>2026-06-28T07:11:51.000Z</time>
      </trkpt>
      <trkpt lat="42.78228" lon="1.53938">
        <ele>711</ele>
        <time>2026-06-28T07:11:52.000Z</time>
      </trkpt>
      <trkpt lat="42.78227" lon="1.53933">
        <ele>711</ele>
        <time>2026-06-28T07:11:53.000Z</time>
      </trkpt>
      <trkpt lat="42.78226" lon="1.53929">
        <ele>710</ele>
        <time>2026-06-28T07:11:54.000Z</time>
      </trkpt>
      <trkpt lat="42.78225" lon="1.53923">
        <ele>709</ele>
        <time>2026-06-28T07:11:55.000Z</time>
      </trkpt>
      <trkpt lat="42.78223" lon="1.53918">
        <ele>709</ele>
        <time>2026-06-28T07:11:56.000Z</time>
      </trkpt>
      <trkpt lat="42.78222" lon="1.53914">
        <ele>709</ele>
        <time>2026-06-28T07:11:57.000Z</time>
      </trkpt>
      <trkpt lat="42.78222" lon="1.53911">
        <ele>709</ele>
        <time>2026-06-28T07:11:58.000Z</time>
      </trkpt>
      <trkpt lat="42.7822" lon="1.53909">
        <ele>709</ele>
        <time>2026-06-28T07:11:59.000Z</time>
      </trkpt>
      <trkpt lat="42.7822" lon="1.53908">
        <ele>709</ele>
        <time>2026-06-28T07:12:00.000Z</time>
      </trkpt>
      <trkpt lat="42.7822" lon="1.53907">
        <ele>709</ele>
        <time>2026-06-28T07:12:01.000Z</time>
      </trkpt>
      <trkpt lat="42.78221" lon="1.53905">
        <ele>710</ele>
        <time>2026-06-28T07:12:02.000Z</time>
      </trkpt>
      <trkpt lat="42.78221" lon="1.53905">
        <ele>710</ele>
        <time>2026-06-28T07:12:03.000Z</time>
      </trkpt>
      <trkpt lat="42.7822" lon="1.53905">
        <ele>709</ele>
        <time>2026-06-28T07:12:04.000Z</time>
      </trkpt>
      <trkpt lat="42.7822" lon="1.53904">
        <ele>709</ele>
        <time>2026-06-28T07:12:05.000Z</time>
      </trkpt>
      <trkpt lat="42.7822" lon="1.53903">
        <ele>708</ele>
        <time>2026-06-28T07:12:06.000Z</time>
      </trkpt>
      <trkpt lat="42.78219" lon="1.539">
        <ele>708</ele>
        <time>2026-06-28T07:12:07.000Z</time>
      </trkpt>
      <trkpt lat="42.78219" lon="1.53898">
        <ele>708</ele>
        <time>2026-06-28T07:12:08.000Z</time>
      </trkpt>
      <trkpt lat="42.7822" lon="1.53896">
        <ele>708</ele>
        <time>2026-06-28T07:12:09.000Z</time>
      </trkpt>
      <trkpt lat="42.7822" lon="1.53893">
        <ele>709</ele>
        <time>2026-06-28T07:12:10.000Z</time>
      </trkpt>
      <trkpt lat="42.7822" lon="1.5389">
        <ele>709</ele>
        <time>2026-06-28T07:12:11.000Z</time>
      </trkpt>
      <trkpt lat="42.7822" lon="1.53888">
        <ele>709</ele>
        <time>2026-06-28T07:12:12.000Z</time>
      </trkpt>
      <trkpt lat="42.78221" lon="1.53885">
        <ele>710</ele>
        <time>2026-06-28T07:12:13.000Z</time>
      </trkpt>
      <trkpt lat="42.78221" lon="1.53883">
        <ele>710</ele>
        <time>2026-06-28T07:12:14.000Z</time>
      </trkpt>
      <trkpt lat="42.78221" lon="1.53882">
        <ele>710</ele>
        <time>2026-06-28T07:12:15.000Z</time>
      </trkpt>
      <trkpt lat="42.78221" lon="1.53879">
        <ele>711</ele>
        <time>2026-06-28T07:12:16.000Z</time>
      </trkpt>
      <trkpt lat="42.7822" lon="1.53877">
        <ele>711</ele>
        <time>2026-06-28T07:12:17.000Z</time>
      </trkpt>
      <trkpt lat="42.78219" lon="1.53875">
        <ele>711</ele>
        <time>2026-06-28T07:12:18.000Z</time>
      </trkpt>
      <trkpt lat="42.78218" lon="1.53874">
        <ele>712</ele>
        <time>2026-06-28T07:12:19.000Z</time>
      </trkpt>
      <trkpt lat="42.78218" lon="1.53873">
        <ele>712</ele>
        <time>2026-06-28T07:12:20.000Z</time>
      </trkpt>
      <trkpt lat="42.78217" lon="1.53874">
        <ele>712</ele>
        <time>2026-06-28T07:12:21.000Z</time>
      </trkpt>
      <trkpt lat="42.78217" lon="1.53873">
        <ele>712</ele>
        <time>2026-06-28T07:12:22.000Z</time>
      </trkpt>
      <trkpt lat="42.78217" lon="1.53872">
        <ele>712</ele>
        <time>2026-06-28T07:12:23.000Z</time>
      </trkpt>
      <trkpt lat="42.78217" lon="1.53871">
        <ele>712</ele>
        <time>2026-06-28T07:12:24.000Z</time>
      </trkpt>
      <trkpt lat="42.78217" lon="1.53871">
        <ele>712</ele>
        <time>2026-06-28T07:12:25.000Z</time>
      </trkpt>
      <trkpt lat="42.78218" lon="1.5387">
        <ele>712</ele>
        <time>2026-06-28T07:12:26.000Z</time>
      </trkpt>
      <trkpt lat="42.78219" lon="1.5387">
        <ele>711</ele>
        <time>2026-06-28T07:12:27.000Z</time>
      </trkpt>
      <trkpt lat="42.78219" lon="1.53869">
        <ele>711</ele>
        <time>2026-06-28T07:12:28.000Z</time>
      </trkpt>
      <trkpt lat="42.78218" lon="1.53868">
        <ele>710</ele>
        <time>2026-06-28T07:12:29.000Z</time>
      </trkpt>
      <trkpt lat="42.78218" lon="1.53867">
        <ele>710</ele>
        <time>2026-06-28T07:12:30.000Z</time>
      </trkpt>
      <trkpt lat="42.78218" lon="1.53865">
        <ele>710</ele>
        <time>2026-06-28T07:12:31.000Z</time>
      </trkpt>
      <trkpt lat="42.78218" lon="1.53864">
        <ele>709</ele>
        <time>2026-06-28T07:12:32.000Z</time>
      </trkpt>
      <trkpt lat="42.78218" lon="1.53862">
        <ele>710</ele>
        <time>2026-06-28T07:12:33.000Z</time>
      </trkpt>
      <trkpt lat="42.78218" lon="1.53861">
        <ele>710</ele>
        <time>2026-06-28T07:12:34.000Z</time>
      </trkpt>
      <trkpt lat="42.78218" lon="1.53859">
        <ele>709</ele>
        <time>2026-06-28T07:12:35.000Z</time>
      </trkpt>
      <trkpt lat="42.78217" lon="1.53857">
        <ele>710</ele>
        <time>2026-06-28T07:12:36.000Z</time>
      </trkpt>
      <trkpt lat="42.78218" lon="1.53856">
        <ele>710</ele>
        <time>2026-06-28T07:12:37.000Z</time>
      </trkpt>
      <trkpt lat="42.78219" lon="1.53855">
        <ele>711</ele>
        <time>2026-06-28T07:12:38.000Z</time>
      </trkpt>
      <trkpt lat="42.78218" lon="1.53854">
        <ele>710</ele>
        <time>2026-06-28T07:12:39.000Z</time>
      </trkpt>
      <trkpt lat="42.78217" lon="1.53853">
        <ele>710</ele>
        <time>2026-06-28T07:12:40.000Z</time>
      </trkpt>
      <trkpt lat="42.78218" lon="1.53852">
        <ele>710</ele>
        <time>2026-06-28T07:12:41.000Z</time>
      </trkpt>
      <trkpt lat="42.78218" lon="1.5385">
        <ele>710</ele>
        <time>2026-06-28T07:12:42.000Z</time>
      </trkpt>
      <trkpt lat="42.78218" lon="1.53849">
        <ele>711</ele>
        <time>2026-06-28T07:12:43.000Z</time>
      </trkpt>
      <trkpt lat="42.78218" lon="1.53849">
        <ele>711</ele>
        <time>2026-06-28T07:12:44.000Z</time>
      </trkpt>
      <trkpt lat="42.78218" lon="1.53848">
        <ele>711</ele>
        <time>2026-06-28T07:12:45.000Z</time>
      </trkpt>
      <trkpt lat="42.78218" lon="1.53848">
        <ele>712</ele>
        <time>2026-06-28T07:12:46.000Z</time>
      </trkpt>
      <trkpt lat="42.78219" lon="1.53848">
        <ele>712</ele>
        <time>2026-06-28T07:12:47.000Z</time>
      </trkpt>
      <trkpt lat="42.78218" lon="1.53848">
        <ele>712</ele>
        <time>2026-06-28T07:12:48.000Z</time>
      </trkpt>
      <trkpt lat="42.78218" lon="1.53848">
        <ele>712</ele>
        <time>2026-06-28T07:12:49.000Z</time>
      </trkpt>
      <trkpt lat="42.78218" lon="1.53848">
        <ele>712</ele>
        <time>2026-06-28T07:12:50.000Z</time>
      </trkpt>
      <trkpt lat="42.78217" lon="1.53848">
        <ele>711</ele>
        <time>2026-06-28T07:12:51.000Z</time>
      </trkpt>
      <trkpt lat="42.78217" lon="1.53847">
        <ele>711</ele>
        <time>2026-06-28T07:12:52.000Z</time>
      </trkpt>
      <trkpt lat="42.78217" lon="1.53846">
        <ele>711</ele>
        <time>2026-06-28T07:12:53.000Z</time>
      </trkpt>
      <trkpt lat="42.78217" lon="1.53846">
        <ele>711</ele>
        <time>2026-06-28T07:12:54.000Z</time>
      </trkpt>
      <trkpt lat="42.78217" lon="1.53846">
        <ele>711</ele>
        <time>2026-06-28T07:12:55.000Z</time>
      </trkpt>
      <trkpt lat="42.78217" lon="1.53845">
        <ele>711</ele>
        <time>2026-06-28T07:12:56.000Z</time>
      </trkpt>
      <trkpt lat="42.78217" lon="1.53844">
        <ele>711</ele>
        <time>2026-06-28T07:12:57.000Z</time>
      </trkpt>
      <trkpt lat="42.78217" lon="1.53844">
        <ele>711</ele>
        <time>2026-06-28T07:12:58.000Z</time>
      </trkpt>
      <trkpt lat="42.78217" lon="1.53842">
        <ele>710</ele>
        <time>2026-06-28T07:12:59.000Z</time>
      </trkpt>
      <trkpt lat="42.78217" lon="1.53842">
        <ele>710</ele>
        <time>2026-06-28T07:13:00.000Z</time>
      </trkpt>
      <trkpt lat="42.78217" lon="1.53841">
        <ele>711</ele>
        <time>2026-06-28T07:13:01.000Z</time>
      </trkpt>
      <trkpt lat="42.78217" lon="1.53841">
        <ele>710</ele>
        <time>2026-06-28T07:13:02.000Z</time>
      </trkpt>
      <trkpt lat="42.78217" lon="1.5384">
        <ele>710</ele>
        <time>2026-06-28T07:13:03.000Z</time>
      </trkpt>
      <trkpt lat="42.78216" lon="1.53839">
        <ele>710</ele>
        <time>2026-06-28T07:13:04.000Z</time>
      </trkpt>
      <trkpt lat="42.78216" lon="1.53837">
        <ele>709</ele>
        <time>2026-06-28T07:13:05.000Z</time>
      </trkpt>
      <trkpt lat="42.78215" lon="1.53835">
        <ele>708</ele>
        <time>2026-06-28T07:13:06.000Z</time>
      </trkpt>
      <trkpt lat="42.78214" lon="1.53834">
        <ele>708</ele>
        <time>2026-06-28T07:13:07.000Z</time>
      </trkpt>
      <trkpt lat="42.78214" lon="1.53832">
        <ele>707</ele>
        <time>2026-06-28T07:13:08.000Z</time>
      </trkpt>
      <trkpt lat="42.78213" lon="1.5383">
        <ele>707</ele>
        <time>2026-06-28T07:13:09.000Z</time>
      </trkpt>
      <trkpt lat="42.78213" lon="1.53829">
        <ele>707</ele>
        <time>2026-06-28T07:13:10.000Z</time>
      </trkpt>
      <trkpt lat="42.78212" lon="1.53829">
        <ele>707</ele>
        <time>2026-06-28T07:13:11.000Z</time>
      </trkpt>
      <trkpt lat="42.78211" lon="1.53828">
        <ele>708</ele>
        <time>2026-06-28T07:13:12.000Z</time>
      </trkpt>
      <trkpt lat="42.78211" lon="1.53827">
        <ele>707</ele>
        <time>2026-06-28T07:13:13.000Z</time>
      </trkpt>
      <trkpt lat="42.78211" lon="1.53825">
        <ele>707</ele>
        <time>2026-06-28T07:13:14.000Z</time>
      </trkpt>
      <trkpt lat="42.78211" lon="1.53823">
        <ele>707</ele>
        <time>2026-06-28T07:13:15.000Z</time>
      </trkpt>
      <trkpt lat="42.78211" lon="1.53822">
        <ele>707</ele>
        <time>2026-06-28T07:13:16.000Z</time>
      </trkpt>
      <trkpt lat="42.78211" lon="1.53821">
        <ele>707</ele>
        <time>2026-06-28T07:13:17.000Z</time>
      </trkpt>
      <trkpt lat="42.7821" lon="1.53819">
        <ele>706</ele>
        <time>2026-06-28T07:13:18.000Z</time>
      </trkpt>
      <trkpt lat="42.78209" lon="1.53818">
        <ele>706</ele>
        <time>2026-06-28T07:13:19.000Z</time>
      </trkpt>
      <trkpt lat="42.78209" lon="1.53817">
        <ele>706</ele>
        <time>2026-06-28T07:13:20.000Z</time>
      </trkpt>
      <trkpt lat="42.78208" lon="1.53816">
        <ele>707</ele>
        <time>2026-06-28T07:13:21.000Z</time>
      </trkpt>
      <trkpt lat="42.78208" lon="1.53815">
        <ele>707</ele>
        <time>2026-06-28T07:13:22.000Z</time>
      </trkpt>
      <trkpt lat="42.78208" lon="1.53813">
        <ele>708</ele>
        <time>2026-06-28T07:13:23.000Z</time>
      </trkpt>
      <trkpt lat="42.78208" lon="1.53813">
        <ele>707</ele>
        <time>2026-06-28T07:13:24.000Z</time>
      </trkpt>
      <trkpt lat="42.78208" lon="1.53812">
        <ele>707</ele>
        <time>2026-06-28T07:13:25.000Z</time>
      </trkpt>
      <trkpt lat="42.78208" lon="1.53811">
        <ele>707</ele>
        <time>2026-06-28T07:13:26.000Z</time>
      </trkpt>
      <trkpt lat="42.78208" lon="1.5381">
        <ele>707</ele>
        <time>2026-06-28T07:13:27.000Z</time>
      </trkpt>
      <trkpt lat="42.78209" lon="1.5381">
        <ele>707</ele>
        <time>2026-06-28T07:13:28.000Z</time>
      </trkpt>
      <trkpt lat="42.78209" lon="1.5381">
        <ele>708</ele>
        <time>2026-06-28T07:13:29.000Z</time>
      </trkpt>
      <trkpt lat="42.78209" lon="1.53809">
        <ele>708</ele>
        <time>2026-06-28T07:13:30.000Z</time>
      </trkpt>
      <trkpt lat="42.78209" lon="1.53809">
        <ele>708</ele>
        <time>2026-06-28T07:13:31.000Z</time>
      </trkpt>
      <trkpt lat="42.78209" lon="1.53809">
        <ele>708</ele>
        <time>2026-06-28T07:13:32.000Z</time>
      </trkpt>
      <trkpt lat="42.78208" lon="1.53808">
        <ele>708</ele>
        <time>2026-06-28T07:13:33.000Z</time>
      </trkpt>
      <trkpt lat="42.78208" lon="1.53808">
        <ele>708</ele>
        <time>2026-06-28T07:13:34.000Z</time>
      </trkpt>
      <trkpt lat="42.78208" lon="1.53806">
        <ele>707</ele>
        <time>2026-06-28T07:13:35.000Z</time>
      </trkpt>
      <trkpt lat="42.78207" lon="1.53805">
        <ele>707</ele>
        <time>2026-06-28T07:13:36.000Z</time>
      </trkpt>
      <trkpt lat="42.78207" lon="1.53805">
        <ele>709</ele>
        <time>2026-06-28T07:13:37.000Z</time>
      </trkpt>
      <trkpt lat="42.78207" lon="1.53804">
        <ele>708</ele>
        <time>2026-06-28T07:13:38.000Z</time>
      </trkpt>
      <trkpt lat="42.78206" lon="1.53804">
        <ele>708</ele>
        <time>2026-06-28T07:13:39.000Z</time>
      </trkpt>
      <trkpt lat="42.78206" lon="1.53804">
        <ele>707</ele>
        <time>2026-06-28T07:13:40.000Z</time>
      </trkpt>
      <trkpt lat="42.78206" lon="1.53804">
        <ele>705</ele>
        <time>2026-06-28T07:13:41.000Z</time>
      </trkpt>
      <trkpt lat="42.78205" lon="1.53804">
        <ele>705</ele>
        <time>2026-06-28T07:13:42.000Z</time>
      </trkpt>
      <trkpt lat="42.78205" lon="1.53803">
        <ele>705</ele>
        <time>2026-06-28T07:13:43.000Z</time>
      </trkpt>
      <trkpt lat="42.78206" lon="1.53803">
        <ele>705</ele>
        <time>2026-06-28T07:13:44.000Z</time>
      </trkpt>
      <trkpt lat="42.78206" lon="1.53805">
        <ele>706</ele>
        <time>2026-06-28T07:13:45.000Z</time>
      </trkpt>
      <trkpt lat="42.78206" lon="1.53805">
        <ele>707</ele>
        <time>2026-06-28T07:13:46.000Z</time>
      </trkpt>
      <trkpt lat="42.78206" lon="1.53806">
        <ele>708</ele>
        <time>2026-06-28T07:13:47.000Z</time>
      </trkpt>
      <trkpt lat="42.78206" lon="1.53806">
        <ele>708</ele>
        <time>2026-06-28T07:13:48.000Z</time>
      </trkpt>
      <trkpt lat="42.78205" lon="1.53806">
        <ele>707</ele>
        <time>2026-06-28T07:13:49.000Z</time>
      </trkpt>
      <trkpt lat="42.78205" lon="1.53806">
        <ele>708</ele>
        <time>2026-06-28T07:13:50.000Z</time>
      </trkpt>
      <trkpt lat="42.78205" lon="1.53806">
        <ele>708</ele>
        <time>2026-06-28T07:13:51.000Z</time>
      </trkpt>
      <trkpt lat="42.78204" lon="1.53807">
        <ele>708</ele>
        <time>2026-06-28T07:13:52.000Z</time>
      </trkpt>
      <trkpt lat="42.78204" lon="1.53807">
        <ele>709</ele>
        <time>2026-06-28T07:13:53.000Z</time>
      </trkpt>
      <trkpt lat="42.78204" lon="1.53807">
        <ele>709</ele>
        <time>2026-06-28T07:13:54.000Z</time>
      </trkpt>
      <trkpt lat="42.78203" lon="1.53807">
        <ele>709</ele>
        <time>2026-06-28T07:13:55.000Z</time>
      </trkpt>
      <trkpt lat="42.78203" lon="1.53808">
        <ele>709</ele>
        <time>2026-06-28T07:13:56.000Z</time>
      </trkpt>
      <trkpt lat="42.78203" lon="1.53808">
        <ele>709</ele>
        <time>2026-06-28T07:13:57.000Z</time>
      </trkpt>
      <trkpt lat="42.78203" lon="1.53808">
        <ele>709</ele>
        <time>2026-06-28T07:13:58.000Z</time>
      </trkpt>
      <trkpt lat="42.78203" lon="1.53807">
        <ele>710</ele>
        <time>2026-06-28T07:13:59.000Z</time>
      </trkpt>
      <trkpt lat="42.78203" lon="1.53807">
        <ele>709</ele>
        <time>2026-06-28T07:14:00.000Z</time>
      </trkpt>
      <trkpt lat="42.78203" lon="1.53805">
        <ele>711</ele>
        <time>2026-06-28T07:14:01.000Z</time>
      </trkpt>
      <trkpt lat="42.78202" lon="1.53805">
        <ele>710</ele>
        <time>2026-06-28T07:14:02.000Z</time>
      </trkpt>
      <trkpt lat="42.78202" lon="1.53803">
        <ele>710</ele>
        <time>2026-06-28T07:14:03.000Z</time>
      </trkpt>
      <trkpt lat="42.78203" lon="1.53802">
        <ele>712</ele>
        <time>2026-06-28T07:14:04.000Z</time>
      </trkpt>
      <trkpt lat="42.78203" lon="1.53802">
        <ele>712</ele>
        <time>2026-06-28T07:14:05.000Z</time>
      </trkpt>
      <trkpt lat="42.78203" lon="1.53803">
        <ele>711</ele>
        <time>2026-06-28T07:14:06.000Z</time>
      </trkpt>
      <trkpt lat="42.78202" lon="1.53803">
        <ele>712</ele>
        <time>2026-06-28T07:14:07.000Z</time>
      </trkpt>
      <trkpt lat="42.78202" lon="1.53804">
        <ele>712</ele>
        <time>2026-06-28T07:14:08.000Z</time>
      </trkpt>
      <trkpt lat="42.78202" lon="1.53804">
        <ele>712</ele>
        <time>2026-06-28T07:14:09.000Z</time>
      </trkpt>
      <trkpt lat="42.78203" lon="1.53805">
        <ele>712</ele>
        <time>2026-06-28T07:14:10.000Z</time>
      </trkpt>
      <trkpt lat="42.78203" lon="1.53805">
        <ele>713</ele>
        <time>2026-06-28T07:14:11.000Z</time>
      </trkpt>
      <trkpt lat="42.78202" lon="1.53804">
        <ele>713</ele>
        <time>2026-06-28T07:14:12.000Z</time>
      </trkpt>
      <trkpt lat="42.78203" lon="1.53803">
        <ele>713</ele>
        <time>2026-06-28T07:14:13.000Z</time>
      </trkpt>
      <trkpt lat="42.78203" lon="1.53801">
        <ele>713</ele>
        <time>2026-06-28T07:14:14.000Z</time>
      </trkpt>
      <trkpt lat="42.78204" lon="1.538">
        <ele>709</ele>
        <time>2026-06-28T07:14:41.000Z</time>
      </trkpt>
      <trkpt lat="42.78204" lon="1.538">
        <ele>709</ele>
        <time>2026-06-28T07:14:42.000Z</time>
      </trkpt>
      <trkpt lat="42.78204" lon="1.538">
        <ele>709</ele>
        <time>2026-06-28T07:14:43.000Z</time>
      </trkpt>
      <trkpt lat="42.78203" lon="1.53801">
        <ele>706</ele>
        <time>2026-06-28T07:15:05.000Z</time>
      </trkpt>
      <trkpt lat="42.78204" lon="1.53801">
        <ele>706</ele>
        <time>2026-06-28T07:15:06.000Z</time>
      </trkpt>
      <trkpt lat="42.78204" lon="1.53802">
        <ele>706</ele>
        <time>2026-06-28T07:15:07.000Z</time>
      </trkpt>
      <trkpt lat="42.78204" lon="1.53802">
        <ele>706</ele>
        <time>2026-06-28T07:15:08.000Z</time>
      </trkpt>
      <trkpt lat="42.78203" lon="1.53799">
        <ele>706</ele>
        <time>2026-06-28T07:16:59.000Z</time>
      </trkpt>
      <trkpt lat="42.78203" lon="1.53799">
        <ele>707</ele>
        <time>2026-06-28T07:17:00.000Z</time>
      </trkpt>
      <trkpt lat="42.78203" lon="1.53799">
        <ele>706</ele>
        <time>2026-06-28T07:17:01.000Z</time>
      </trkpt>
      <trkpt lat="42.78204" lon="1.53799">
        <ele>706</ele>
        <time>2026-06-28T07:17:02.000Z</time>
      </trkpt>
      <trkpt lat="42.78205" lon="1.53801">
        <ele>711</ele>
        <time>2026-06-28T07:17:24.000Z</time>
      </trkpt>
      <trkpt lat="42.78205" lon="1.538">
        <ele>711</ele>
        <time>2026-06-28T07:17:25.000Z</time>
      </trkpt>
      <trkpt lat="42.78205" lon="1.53799">
        <ele>711</ele>
        <time>2026-06-28T07:17:26.000Z</time>
      </trkpt>
      <trkpt lat="42.78204" lon="1.538">
        <ele>711</ele>
        <time>2026-06-28T07:17:27.000Z</time>
      </trkpt>
      <trkpt lat="42.78204" lon="1.538">
        <ele>710</ele>
        <time>2026-06-28T07:17:28.000Z</time>
      </trkpt>
      <trkpt lat="42.78204" lon="1.538">
        <ele>710</ele>
        <time>2026-06-28T07:17:29.000Z</time>
      </trkpt>
      <trkpt lat="42.78203" lon="1.538">
        <ele>710</ele>
        <time>2026-06-28T07:17:30.000Z</time>
      </trkpt>
      <trkpt lat="42.78202" lon="1.53799">
        <ele>710</ele>
        <time>2026-06-28T07:17:31.000Z</time>
      </trkpt>
      <trkpt lat="42.78202" lon="1.53799">
        <ele>710</ele>
        <time>2026-06-28T07:17:32.000Z</time>
      </trkpt>
      <trkpt lat="42.78202" lon="1.53798">
        <ele>709</ele>
        <time>2026-06-28T07:17:33.000Z</time>
      </trkpt>
      <trkpt lat="42.78202" lon="1.53797">
        <ele>709</ele>
        <time>2026-06-28T07:17:34.000Z</time>
      </trkpt>
      <trkpt lat="42.78202" lon="1.53797">
        <ele>709</ele>
        <time>2026-06-28T07:17:35.000Z</time>
      </trkpt>
      <trkpt lat="42.78201" lon="1.53795">
        <ele>708</ele>
        <time>2026-06-28T07:17:36.000Z</time>
      </trkpt>
      <trkpt lat="42.782" lon="1.53794">
        <ele>709</ele>
        <time>2026-06-28T07:17:37.000Z</time>
      </trkpt>
      <trkpt lat="42.78198" lon="1.53792">
        <ele>709</ele>
        <time>2026-06-28T07:17:38.000Z</time>
      </trkpt>
      <trkpt lat="42.78195" lon="1.5379">
        <ele>708</ele>
        <time>2026-06-28T07:17:39.000Z</time>
      </trkpt>
      <trkpt lat="42.78192" lon="1.53787">
        <ele>707</ele>
        <time>2026-06-28T07:17:40.000Z</time>
      </trkpt>
      <trkpt lat="42.78189" lon="1.53785">
        <ele>708</ele>
        <time>2026-06-28T07:17:41.000Z</time>
      </trkpt>
      <trkpt lat="42.78187" lon="1.53781">
        <ele>708</ele>
        <time>2026-06-28T07:17:42.000Z</time>
      </trkpt>
      <trkpt lat="42.78187" lon="1.53779">
        <ele>708</ele>
        <time>2026-06-28T07:17:43.000Z</time>
      </trkpt>
      <trkpt lat="42.78187" lon="1.53777">
        <ele>709</ele>
        <time>2026-06-28T07:17:44.000Z</time>
      </trkpt>
      <trkpt lat="42.78188" lon="1.53777">
        <ele>709</ele>
        <time>2026-06-28T07:17:45.000Z</time>
      </trkpt>
      <trkpt lat="42.78187" lon="1.53775">
        <ele>709</ele>
        <time>2026-06-28T07:17:46.000Z</time>
      </trkpt>
      <trkpt lat="42.78187" lon="1.53774">
        <ele>708</ele>
        <time>2026-06-28T07:17:47.000Z</time>
      </trkpt>
      <trkpt lat="42.78187" lon="1.53773">
        <ele>708</ele>
        <time>2026-06-28T07:17:48.000Z</time>
      </trkpt>
      <trkpt lat="42.78186" lon="1.53772">
        <ele>708</ele>
        <time>2026-06-28T07:17:49.000Z</time>
      </trkpt>
      <trkpt lat="42.78186" lon="1.53771">
        <ele>708</ele>
        <time>2026-06-28T07:17:50.000Z</time>
      </trkpt>
      <trkpt lat="42.78185" lon="1.53771">
        <ele>709</ele>
        <time>2026-06-28T07:17:51.000Z</time>
      </trkpt>
      <trkpt lat="42.78185" lon="1.53769">
        <ele>708</ele>
        <time>2026-06-28T07:18:06.000Z</time>
      </trkpt>
      <trkpt lat="42.78185" lon="1.5377">
        <ele>708</ele>
        <time>2026-06-28T07:18:07.000Z</time>
      </trkpt>
      <trkpt lat="42.78186" lon="1.53769">
        <ele>708</ele>
        <time>2026-06-28T07:18:08.000Z</time>
      </trkpt>
      <trkpt lat="42.78185" lon="1.53764">
        <ele>712</ele>
        <time>2026-06-28T07:18:26.000Z</time>
      </trkpt>
      <trkpt lat="42.78185" lon="1.53762">
        <ele>713</ele>
        <time>2026-06-28T07:18:27.000Z</time>
      </trkpt>
      <trkpt lat="42.78184" lon="1.5376">
        <ele>713</ele>
        <time>2026-06-28T07:18:28.000Z</time>
      </trkpt>
      <trkpt lat="42.78185" lon="1.53758">
        <ele>713</ele>
        <time>2026-06-28T07:18:29.000Z</time>
      </trkpt>
      <trkpt lat="42.78184" lon="1.53756">
        <ele>713</ele>
        <time>2026-06-28T07:18:30.000Z</time>
      </trkpt>
      <trkpt lat="42.78184" lon="1.53754">
        <ele>712</ele>
        <time>2026-06-28T07:18:31.000Z</time>
      </trkpt>
      <trkpt lat="42.78183" lon="1.53753">
        <ele>712</ele>
        <time>2026-06-28T07:18:32.000Z</time>
      </trkpt>
      <trkpt lat="42.78184" lon="1.53751">
        <ele>713</ele>
        <time>2026-06-28T07:18:33.000Z</time>
      </trkpt>
      <trkpt lat="42.78184" lon="1.53749">
        <ele>713</ele>
        <time>2026-06-28T07:18:34.000Z</time>
      </trkpt>
      <trkpt lat="42.78183" lon="1.53747">
        <ele>713</ele>
        <time>2026-06-28T07:18:35.000Z</time>
      </trkpt>
      <trkpt lat="42.78183" lon="1.53745">
        <ele>713</ele>
        <time>2026-06-28T07:18:36.000Z</time>
      </trkpt>
      <trkpt lat="42.78182" lon="1.53745">
        <ele>713</ele>
        <time>2026-06-28T07:18:37.000Z</time>
      </trkpt>
      <trkpt lat="42.78182" lon="1.53743">
        <ele>713</ele>
        <time>2026-06-28T07:18:38.000Z</time>
      </trkpt>
      <trkpt lat="42.78181" lon="1.53742">
        <ele>714</ele>
        <time>2026-06-28T07:18:39.000Z</time>
      </trkpt>
      <trkpt lat="42.7818" lon="1.53741">
        <ele>714</ele>
        <time>2026-06-28T07:18:40.000Z</time>
      </trkpt>
      <trkpt lat="42.78179" lon="1.5374">
        <ele>714</ele>
        <time>2026-06-28T07:18:41.000Z</time>
      </trkpt>
      <trkpt lat="42.78179" lon="1.5374">
        <ele>715</ele>
        <time>2026-06-28T07:18:42.000Z</time>
      </trkpt>
      <trkpt lat="42.78178" lon="1.53739">
        <ele>715</ele>
        <time>2026-06-28T07:18:43.000Z</time>
      </trkpt>
      <trkpt lat="42.78178" lon="1.53738">
        <ele>715</ele>
        <time>2026-06-28T07:18:44.000Z</time>
      </trkpt>
      <trkpt lat="42.78178" lon="1.53738">
        <ele>716</ele>
        <time>2026-06-28T07:18:45.000Z</time>
      </trkpt>
      <trkpt lat="42.78178" lon="1.53737">
        <ele>715</ele>
        <time>2026-06-28T07:18:46.000Z</time>
      </trkpt>
      <trkpt lat="42.78178" lon="1.53736">
        <ele>715</ele>
        <time>2026-06-28T07:18:47.000Z</time>
      </trkpt>
      <trkpt lat="42.78177" lon="1.53734">
        <ele>716</ele>
        <time>2026-06-28T07:18:48.000Z</time>
      </trkpt>
      <trkpt lat="42.78177" lon="1.53731">
        <ele>716</ele>
        <time>2026-06-28T07:18:49.000Z</time>
      </trkpt>
      <trkpt lat="42.78176" lon="1.53729">
        <ele>716</ele>
        <time>2026-06-28T07:18:50.000Z</time>
      </trkpt>
      <trkpt lat="42.78176" lon="1.53726">
        <ele>716</ele>
        <time>2026-06-28T07:18:51.000Z</time>
      </trkpt>
      <trkpt lat="42.78175" lon="1.53723">
        <ele>716</ele>
        <time>2026-06-28T07:18:52.000Z</time>
      </trkpt>
      <trkpt lat="42.78174" lon="1.5372">
        <ele>716</ele>
        <time>2026-06-28T07:18:53.000Z</time>
      </trkpt>
      <trkpt lat="42.78173" lon="1.53716">
        <ele>716</ele>
        <time>2026-06-28T07:18:54.000Z</time>
      </trkpt>
      <trkpt lat="42.78173" lon="1.53713">
        <ele>715</ele>
        <time>2026-06-28T07:18:55.000Z</time>
      </trkpt>
      <trkpt lat="42.78173" lon="1.5371">
        <ele>715</ele>
        <time>2026-06-28T07:18:56.000Z</time>
      </trkpt>
      <trkpt lat="42.78174" lon="1.53706">
        <ele>715</ele>
        <time>2026-06-28T07:18:57.000Z</time>
      </trkpt>
      <trkpt lat="42.78175" lon="1.53702">
        <ele>715</ele>
        <time>2026-06-28T07:18:58.000Z</time>
      </trkpt>
      <trkpt lat="42.78176" lon="1.53698">
        <ele>715</ele>
        <time>2026-06-28T07:18:59.000Z</time>
      </trkpt>
      <trkpt lat="42.78176" lon="1.53693">
        <ele>714</ele>
        <time>2026-06-28T07:19:00.000Z</time>
      </trkpt>
      <trkpt lat="42.78176" lon="1.53689">
        <ele>713</ele>
        <time>2026-06-28T07:19:01.000Z</time>
      </trkpt>
      <trkpt lat="42.78175" lon="1.53687">
        <ele>713</ele>
        <time>2026-06-28T07:19:02.000Z</time>
      </trkpt>
      <trkpt lat="42.78174" lon="1.53684">
        <ele>714</ele>
        <time>2026-06-28T07:19:03.000Z</time>
      </trkpt>
      <trkpt lat="42.78173" lon="1.53681">
        <ele>714</ele>
        <time>2026-06-28T07:19:04.000Z</time>
      </trkpt>
      <trkpt lat="42.78173" lon="1.53679">
        <ele>714</ele>
        <time>2026-06-28T07:19:05.000Z</time>
      </trkpt>
      <trkpt lat="42.78172" lon="1.53676">
        <ele>714</ele>
        <time>2026-06-28T07:19:06.000Z</time>
      </trkpt>
      <trkpt lat="42.78171" lon="1.53673">
        <ele>715</ele>
        <time>2026-06-28T07:19:07.000Z</time>
      </trkpt>
      <trkpt lat="42.7817" lon="1.53671">
        <ele>715</ele>
        <time>2026-06-28T07:19:08.000Z</time>
      </trkpt>
      <trkpt lat="42.78169" lon="1.53669">
        <ele>715</ele>
        <time>2026-06-28T07:19:09.000Z</time>
      </trkpt>
      <trkpt lat="42.78169" lon="1.53669">
        <ele>715</ele>
        <time>2026-06-28T07:19:10.000Z</time>
      </trkpt>
      <trkpt lat="42.78168" lon="1.53669">
        <ele>716</ele>
        <time>2026-06-28T07:19:11.000Z</time>
      </trkpt>
      <trkpt lat="42.78168" lon="1.53667">
        <ele>715</ele>
        <time>2026-06-28T07:19:12.000Z</time>
      </trkpt>
      <trkpt lat="42.78169" lon="1.53665">
        <ele>716</ele>
        <time>2026-06-28T07:19:13.000Z</time>
      </trkpt>
      <trkpt lat="42.78168" lon="1.53663">
        <ele>716</ele>
        <time>2026-06-28T07:19:14.000Z</time>
      </trkpt>
      <trkpt lat="42.78168" lon="1.5366">
        <ele>716</ele>
        <time>2026-06-28T07:19:15.000Z</time>
      </trkpt>
      <trkpt lat="42.78167" lon="1.53656">
        <ele>715</ele>
        <time>2026-06-28T07:19:16.000Z</time>
      </trkpt>
      <trkpt lat="42.78166" lon="1.53652">
        <ele>716</ele>
        <time>2026-06-28T07:19:17.000Z</time>
      </trkpt>
      <trkpt lat="42.78165" lon="1.53649">
        <ele>716</ele>
        <time>2026-06-28T07:19:18.000Z</time>
      </trkpt>
      <trkpt lat="42.78164" lon="1.53646">
        <ele>716</ele>
        <time>2026-06-28T07:19:19.000Z</time>
      </trkpt>
      <trkpt lat="42.78163" lon="1.53642">
        <ele>715</ele>
        <time>2026-06-28T07:19:20.000Z</time>
      </trkpt>
      <trkpt lat="42.78161" lon="1.53638">
        <ele>715</ele>
        <time>2026-06-28T07:19:21.000Z</time>
      </trkpt>
      <trkpt lat="42.7816" lon="1.53635">
        <ele>716</ele>
        <time>2026-06-28T07:19:22.000Z</time>
      </trkpt>
      <trkpt lat="42.78159" lon="1.53631">
        <ele>716</ele>
        <time>2026-06-28T07:19:23.000Z</time>
      </trkpt>
      <trkpt lat="42.78158" lon="1.53628">
        <ele>716</ele>
        <time>2026-06-28T07:19:24.000Z</time>
      </trkpt>
      <trkpt lat="42.78158" lon="1.53624">
        <ele>716</ele>
        <time>2026-06-28T07:19:25.000Z</time>
      </trkpt>
      <trkpt lat="42.78157" lon="1.53621">
        <ele>715</ele>
        <time>2026-06-28T07:19:26.000Z</time>
      </trkpt>
      <trkpt lat="42.78157" lon="1.53618">
        <ele>715</ele>
        <time>2026-06-28T07:19:27.000Z</time>
      </trkpt>
      <trkpt lat="42.78156" lon="1.53615">
        <ele>716</ele>
        <time>2026-06-28T07:19:28.000Z</time>
      </trkpt>
      <trkpt lat="42.78156" lon="1.53613">
        <ele>716</ele>
        <time>2026-06-28T07:19:29.000Z</time>
      </trkpt>
      <trkpt lat="42.78155" lon="1.53611">
        <ele>716</ele>
        <time>2026-06-28T07:19:30.000Z</time>
      </trkpt>
      <trkpt lat="42.78154" lon="1.53608">
        <ele>716</ele>
        <time>2026-06-28T07:19:31.000Z</time>
      </trkpt>
      <trkpt lat="42.78152" lon="1.53604">
        <ele>715</ele>
        <time>2026-06-28T07:19:32.000Z</time>
      </trkpt>
      <trkpt lat="42.7815" lon="1.53601">
        <ele>715</ele>
        <time>2026-06-28T07:19:33.000Z</time>
      </trkpt>
      <trkpt lat="42.78148" lon="1.53598">
        <ele>715</ele>
        <time>2026-06-28T07:19:34.000Z</time>
      </trkpt>
      <trkpt lat="42.78146" lon="1.53594">
        <ele>715</ele>
        <time>2026-06-28T07:19:35.000Z</time>
      </trkpt>
      <trkpt lat="42.78144" lon="1.5359">
        <ele>716</ele>
        <time>2026-06-28T07:19:36.000Z</time>
      </trkpt>
      <trkpt lat="42.78142" lon="1.53587">
        <ele>716</ele>
        <time>2026-06-28T07:19:37.000Z</time>
      </trkpt>
      <trkpt lat="42.7814" lon="1.53583">
        <ele>716</ele>
        <time>2026-06-28T07:19:38.000Z</time>
      </trkpt>
      <trkpt lat="42.78137" lon="1.53579">
        <ele>717</ele>
        <time>2026-06-28T07:19:39.000Z</time>
      </trkpt>
      <trkpt lat="42.78135" lon="1.53576">
        <ele>717</ele>
        <time>2026-06-28T07:19:40.000Z</time>
      </trkpt>
      <trkpt lat="42.78134" lon="1.53573">
        <ele>717</ele>
        <time>2026-06-28T07:19:41.000Z</time>
      </trkpt>
      <trkpt lat="42.78133" lon="1.5357">
        <ele>717</ele>
        <time>2026-06-28T07:19:42.000Z</time>
      </trkpt>
      <trkpt lat="42.78132" lon="1.53567">
        <ele>717</ele>
        <time>2026-06-28T07:19:43.000Z</time>
      </trkpt>
      <trkpt lat="42.78131" lon="1.53563">
        <ele>717</ele>
        <time>2026-06-28T07:19:44.000Z</time>
      </trkpt>
      <trkpt lat="42.7813" lon="1.5356">
        <ele>717</ele>
        <time>2026-06-28T07:19:45.000Z</time>
      </trkpt>
      <trkpt lat="42.78128" lon="1.53556">
        <ele>717</ele>
        <time>2026-06-28T07:19:46.000Z</time>
      </trkpt>
      <trkpt lat="42.78127" lon="1.53551">
        <ele>717</ele>
        <time>2026-06-28T07:19:47.000Z</time>
      </trkpt>
      <trkpt lat="42.78126" lon="1.53548">
        <ele>716</ele>
        <time>2026-06-28T07:19:48.000Z</time>
      </trkpt>
      <trkpt lat="42.78125" lon="1.53545">
        <ele>716</ele>
        <time>2026-06-28T07:19:49.000Z</time>
      </trkpt>
      <trkpt lat="42.78124" lon="1.53543">
        <ele>716</ele>
        <time>2026-06-28T07:19:50.000Z</time>
      </trkpt>
      <trkpt lat="42.78123" lon="1.5354">
        <ele>716</ele>
        <time>2026-06-28T07:19:51.000Z</time>
      </trkpt>
      <trkpt lat="42.78122" lon="1.53537">
        <ele>716</ele>
        <time>2026-06-28T07:19:52.000Z</time>
      </trkpt>
      <trkpt lat="42.78121" lon="1.53533">
        <ele>716</ele>
        <time>2026-06-28T07:19:53.000Z</time>
      </trkpt>
      <trkpt lat="42.7812" lon="1.53529">
        <ele>716</ele>
        <time>2026-06-28T07:19:54.000Z</time>
      </trkpt>
      <trkpt lat="42.78119" lon="1.53525">
        <ele>716</ele>
        <time>2026-06-28T07:19:55.000Z</time>
      </trkpt>
      <trkpt lat="42.78119" lon="1.5352">
        <ele>716</ele>
        <time>2026-06-28T07:19:56.000Z</time>
      </trkpt>
      <trkpt lat="42.78118" lon="1.53517">
        <ele>716</ele>
        <time>2026-06-28T07:19:57.000Z</time>
      </trkpt>
      <trkpt lat="42.78118" lon="1.53513">
        <ele>716</ele>
        <time>2026-06-28T07:19:58.000Z</time>
      </trkpt>
      <trkpt lat="42.78118" lon="1.53509">
        <ele>716</ele>
        <time>2026-06-28T07:19:59.000Z</time>
      </trkpt>
      <trkpt lat="42.78117" lon="1.53504">
        <ele>716</ele>
        <time>2026-06-28T07:20:00.000Z</time>
      </trkpt>
      <trkpt lat="42.78116" lon="1.535">
        <ele>716</ele>
        <time>2026-06-28T07:20:01.000Z</time>
      </trkpt>
      <trkpt lat="42.78115" lon="1.53497">
        <ele>717</ele>
        <time>2026-06-28T07:20:02.000Z</time>
      </trkpt>
      <trkpt lat="42.78114" lon="1.53493">
        <ele>717</ele>
        <time>2026-06-28T07:20:03.000Z</time>
      </trkpt>
      <trkpt lat="42.78113" lon="1.53489">
        <ele>717</ele>
        <time>2026-06-28T07:20:04.000Z</time>
      </trkpt>
      <trkpt lat="42.78112" lon="1.53485">
        <ele>717</ele>
        <time>2026-06-28T07:20:05.000Z</time>
      </trkpt>
      <trkpt lat="42.78111" lon="1.53481">
        <ele>717</ele>
        <time>2026-06-28T07:20:06.000Z</time>
      </trkpt>
      <trkpt lat="42.7811" lon="1.53478">
        <ele>717</ele>
        <time>2026-06-28T07:20:07.000Z</time>
      </trkpt>
      <trkpt lat="42.78108" lon="1.53475">
        <ele>717</ele>
        <time>2026-06-28T07:20:08.000Z</time>
      </trkpt>
      <trkpt lat="42.78107" lon="1.5347">
        <ele>717</ele>
        <time>2026-06-28T07:20:09.000Z</time>
      </trkpt>
      <trkpt lat="42.78106" lon="1.53467">
        <ele>716</ele>
        <time>2026-06-28T07:20:10.000Z</time>
      </trkpt>
      <trkpt lat="42.78104" lon="1.53463">
        <ele>716</ele>
        <time>2026-06-28T07:20:11.000Z</time>
      </trkpt>
      <trkpt lat="42.78103" lon="1.5346">
        <ele>716</ele>
        <time>2026-06-28T07:20:12.000Z</time>
      </trkpt>
      <trkpt lat="42.78102" lon="1.53457">
        <ele>716</ele>
        <time>2026-06-28T07:20:13.000Z</time>
      </trkpt>
      <trkpt lat="42.78101" lon="1.53454">
        <ele>716</ele>
        <time>2026-06-28T07:20:14.000Z</time>
      </trkpt>
      <trkpt lat="42.78101" lon="1.53451">
        <ele>716</ele>
        <time>2026-06-28T07:20:15.000Z</time>
      </trkpt>
      <trkpt lat="42.78101" lon="1.53449">
        <ele>716</ele>
        <time>2026-06-28T07:20:16.000Z</time>
      </trkpt>
      <trkpt lat="42.781" lon="1.53446">
        <ele>717</ele>
        <time>2026-06-28T07:20:17.000Z</time>
      </trkpt>
      <trkpt lat="42.781" lon="1.53444">
        <ele>717</ele>
        <time>2026-06-28T07:20:18.000Z</time>
      </trkpt>
      <trkpt lat="42.78099" lon="1.53441">
        <ele>718</ele>
        <time>2026-06-28T07:20:19.000Z</time>
      </trkpt>
      <trkpt lat="42.78099" lon="1.53439">
        <ele>718</ele>
        <time>2026-06-28T07:20:20.000Z</time>
      </trkpt>
      <trkpt lat="42.78098" lon="1.53437">
        <ele>718</ele>
        <time>2026-06-28T07:20:21.000Z</time>
      </trkpt>
      <trkpt lat="42.78098" lon="1.53434">
        <ele>719</ele>
        <time>2026-06-28T07:20:22.000Z</time>
      </trkpt>
      <trkpt lat="42.78098" lon="1.53431">
        <ele>719</ele>
        <time>2026-06-28T07:20:23.000Z</time>
      </trkpt>
      <trkpt lat="42.78097" lon="1.53428">
        <ele>720</ele>
        <time>2026-06-28T07:20:24.000Z</time>
      </trkpt>
      <trkpt lat="42.78097" lon="1.53426">
        <ele>720</ele>
        <time>2026-06-28T07:20:25.000Z</time>
      </trkpt>
      <trkpt lat="42.78096" lon="1.53424">
        <ele>719</ele>
        <time>2026-06-28T07:20:26.000Z</time>
      </trkpt>
      <trkpt lat="42.78095" lon="1.53421">
        <ele>719</ele>
        <time>2026-06-28T07:20:27.000Z</time>
      </trkpt>
      <trkpt lat="42.78094" lon="1.53418">
        <ele>719</ele>
        <time>2026-06-28T07:20:28.000Z</time>
      </trkpt>
      <trkpt lat="42.78094" lon="1.53415">
        <ele>719</ele>
        <time>2026-06-28T07:20:29.000Z</time>
      </trkpt>
      <trkpt lat="42.78093" lon="1.53412">
        <ele>719</ele>
        <time>2026-06-28T07:20:30.000Z</time>
      </trkpt>
      <trkpt lat="42.78092" lon="1.53409">
        <ele>719</ele>
        <time>2026-06-28T07:20:31.000Z</time>
      </trkpt>
      <trkpt lat="42.7809" lon="1.53406">
        <ele>719</ele>
        <time>2026-06-28T07:20:32.000Z</time>
      </trkpt>
      <trkpt lat="42.78089" lon="1.53403">
        <ele>719</ele>
        <time>2026-06-28T07:20:33.000Z</time>
      </trkpt>
      <trkpt lat="42.78088" lon="1.53401">
        <ele>719</ele>
        <time>2026-06-28T07:20:34.000Z</time>
      </trkpt>
      <trkpt lat="42.78086" lon="1.53399">
        <ele>718</ele>
        <time>2026-06-28T07:20:35.000Z</time>
      </trkpt>
      <trkpt lat="42.78085" lon="1.53396">
        <ele>719</ele>
        <time>2026-06-28T07:20:36.000Z</time>
      </trkpt>
      <trkpt lat="42.78084" lon="1.53394">
        <ele>719</ele>
        <time>2026-06-28T07:20:37.000Z</time>
      </trkpt>
      <trkpt lat="42.78083" lon="1.5339">
        <ele>719</ele>
        <time>2026-06-28T07:20:38.000Z</time>
      </trkpt>
      <trkpt lat="42.78082" lon="1.53387">
        <ele>719</ele>
        <time>2026-06-28T07:20:39.000Z</time>
      </trkpt>
      <trkpt lat="42.78081" lon="1.53383">
        <ele>720</ele>
        <time>2026-06-28T07:20:40.000Z</time>
      </trkpt>
      <trkpt lat="42.7808" lon="1.5338">
        <ele>721</ele>
        <time>2026-06-28T07:20:41.000Z</time>
      </trkpt>
      <trkpt lat="42.78079" lon="1.53377">
        <ele>722</ele>
        <time>2026-06-28T07:20:42.000Z</time>
      </trkpt>
      <trkpt lat="42.78078" lon="1.53375">
        <ele>723</ele>
        <time>2026-06-28T07:20:43.000Z</time>
      </trkpt>
      <trkpt lat="42.78077" lon="1.53372">
        <ele>724</ele>
        <time>2026-06-28T07:20:44.000Z</time>
      </trkpt>
      <trkpt lat="42.78076" lon="1.53368">
        <ele>723</ele>
        <time>2026-06-28T07:20:45.000Z</time>
      </trkpt>
      <trkpt lat="42.78075" lon="1.53365">
        <ele>724</ele>
        <time>2026-06-28T07:20:46.000Z</time>
      </trkpt>
      <trkpt lat="42.78073" lon="1.53362">
        <ele>724</ele>
        <time>2026-06-28T07:20:47.000Z</time>
      </trkpt>
      <trkpt lat="42.78072" lon="1.53359">
        <ele>724</ele>
        <time>2026-06-28T07:20:48.000Z</time>
      </trkpt>
      <trkpt lat="42.78071" lon="1.53356">
        <ele>724</ele>
        <time>2026-06-28T07:20:49.000Z</time>
      </trkpt>
      <trkpt lat="42.78069" lon="1.53354">
        <ele>724</ele>
        <time>2026-06-28T07:20:50.000Z</time>
      </trkpt>
      <trkpt lat="42.78069" lon="1.53352">
        <ele>724</ele>
        <time>2026-06-28T07:20:51.000Z</time>
      </trkpt>
      <trkpt lat="42.78068" lon="1.53349">
        <ele>724</ele>
        <time>2026-06-28T07:20:52.000Z</time>
      </trkpt>
      <trkpt lat="42.78066" lon="1.53346">
        <ele>725</ele>
        <time>2026-06-28T07:20:53.000Z</time>
      </trkpt>
      <trkpt lat="42.78064" lon="1.53343">
        <ele>725</ele>
        <time>2026-06-28T07:20:54.000Z</time>
      </trkpt>
      <trkpt lat="42.78063" lon="1.5334">
        <ele>725</ele>
        <time>2026-06-28T07:20:55.000Z</time>
      </trkpt>
      <trkpt lat="42.78062" lon="1.53337">
        <ele>725</ele>
        <time>2026-06-28T07:20:56.000Z</time>
      </trkpt>
      <trkpt lat="42.78062" lon="1.53335">
        <ele>725</ele>
        <time>2026-06-28T07:20:57.000Z</time>
      </trkpt>
      <trkpt lat="42.78061" lon="1.53333">
        <ele>725</ele>
        <time>2026-06-28T07:20:58.000Z</time>
      </trkpt>
      <trkpt lat="42.7806" lon="1.5333">
        <ele>726</ele>
        <time>2026-06-28T07:20:59.000Z</time>
      </trkpt>
      <trkpt lat="42.78059" lon="1.53326">
        <ele>726</ele>
        <time>2026-06-28T07:21:00.000Z</time>
      </trkpt>
      <trkpt lat="42.78059" lon="1.53323">
        <ele>727</ele>
        <time>2026-06-28T07:21:01.000Z</time>
      </trkpt>
      <trkpt lat="42.78058" lon="1.5332">
        <ele>727</ele>
        <time>2026-06-28T07:21:02.000Z</time>
      </trkpt>
      <trkpt lat="42.78058" lon="1.53315">
        <ele>727</ele>
        <time>2026-06-28T07:21:03.000Z</time>
      </trkpt>
      <trkpt lat="42.78058" lon="1.5331">
        <ele>726</ele>
        <time>2026-06-28T07:21:04.000Z</time>
      </trkpt>
      <trkpt lat="42.78059" lon="1.53304">
        <ele>726</ele>
        <time>2026-06-28T07:21:05.000Z</time>
      </trkpt>
      <trkpt lat="42.78058" lon="1.53299">
        <ele>726</ele>
        <time>2026-06-28T07:21:06.000Z</time>
      </trkpt>
      <trkpt lat="42.78059" lon="1.53293">
        <ele>727</ele>
        <time>2026-06-28T07:21:07.000Z</time>
      </trkpt>
      <trkpt lat="42.78059" lon="1.53286">
        <ele>729</ele>
        <time>2026-06-28T07:21:08.000Z</time>
      </trkpt>
      <trkpt lat="42.7806" lon="1.53279">
        <ele>729</ele>
        <time>2026-06-28T07:21:09.000Z</time>
      </trkpt>
      <trkpt lat="42.78061" lon="1.53273">
        <ele>729</ele>
        <time>2026-06-28T07:21:10.000Z</time>
      </trkpt>
      <trkpt lat="42.78063" lon="1.53267">
        <ele>729</ele>
        <time>2026-06-28T07:21:11.000Z</time>
      </trkpt>
      <trkpt lat="42.78064" lon="1.53264">
        <ele>730</ele>
        <time>2026-06-28T07:21:12.000Z</time>
      </trkpt>
      <trkpt lat="42.78067" lon="1.5326">
        <ele>729</ele>
        <time>2026-06-28T07:21:13.000Z</time>
      </trkpt>
      <trkpt lat="42.7807" lon="1.53257">
        <ele>730</ele>
        <time>2026-06-28T07:21:14.000Z</time>
      </trkpt>
      <trkpt lat="42.78072" lon="1.53253">
        <ele>730</ele>
        <time>2026-06-28T07:21:15.000Z</time>
      </trkpt>
      <trkpt lat="42.78075" lon="1.53249">
        <ele>730</ele>
        <time>2026-06-28T07:21:16.000Z</time>
      </trkpt>
      <trkpt lat="42.78077" lon="1.53243">
        <ele>730</ele>
        <time>2026-06-28T07:21:17.000Z</time>
      </trkpt>
      <trkpt lat="42.78078" lon="1.53239">
        <ele>729</ele>
        <time>2026-06-28T07:21:18.000Z</time>
      </trkpt>
      <trkpt lat="42.78079" lon="1.53233">
        <ele>728</ele>
        <time>2026-06-28T07:21:19.000Z</time>
      </trkpt>
      <trkpt lat="42.78079" lon="1.53228">
        <ele>727</ele>
        <time>2026-06-28T07:21:20.000Z</time>
      </trkpt>
      <trkpt lat="42.78079" lon="1.53223">
        <ele>727</ele>
        <time>2026-06-28T07:21:21.000Z</time>
      </trkpt>
      <trkpt lat="42.78078" lon="1.53218">
        <ele>726</ele>
        <time>2026-06-28T07:21:22.000Z</time>
      </trkpt>
      <trkpt lat="42.78077" lon="1.53213">
        <ele>726</ele>
        <time>2026-06-28T07:21:23.000Z</time>
      </trkpt>
      <trkpt lat="42.78076" lon="1.53208">
        <ele>725</ele>
        <time>2026-06-28T07:21:24.000Z</time>
      </trkpt>
      <trkpt lat="42.78074" lon="1.53203">
        <ele>725</ele>
        <time>2026-06-28T07:21:25.000Z</time>
      </trkpt>
      <trkpt lat="42.78072" lon="1.532">
        <ele>725</ele>
        <time>2026-06-28T07:21:26.000Z</time>
      </trkpt>
      <trkpt lat="42.78071" lon="1.53196">
        <ele>725</ele>
        <time>2026-06-28T07:21:27.000Z</time>
      </trkpt>
      <trkpt lat="42.78069" lon="1.53193">
        <ele>725</ele>
        <time>2026-06-28T07:21:28.000Z</time>
      </trkpt>
      <trkpt lat="42.78067" lon="1.53189">
        <ele>724</ele>
        <time>2026-06-28T07:21:29.000Z</time>
      </trkpt>
      <trkpt lat="42.78065" lon="1.53185">
        <ele>724</ele>
        <time>2026-06-28T07:21:30.000Z</time>
      </trkpt>
      <trkpt lat="42.78064" lon="1.53181">
        <ele>723</ele>
        <time>2026-06-28T07:21:31.000Z</time>
      </trkpt>
      <trkpt lat="42.78063" lon="1.53177">
        <ele>723</ele>
        <time>2026-06-28T07:21:32.000Z</time>
      </trkpt>
      <trkpt lat="42.78062" lon="1.53172">
        <ele>722</ele>
        <time>2026-06-28T07:21:33.000Z</time>
      </trkpt>
      <trkpt lat="42.78061" lon="1.53168">
        <ele>722</ele>
        <time>2026-06-28T07:21:34.000Z</time>
      </trkpt>
      <trkpt lat="42.7806" lon="1.53163">
        <ele>723</ele>
        <time>2026-06-28T07:21:35.000Z</time>
      </trkpt>
      <trkpt lat="42.78058" lon="1.53158">
        <ele>722</ele>
        <time>2026-06-28T07:21:36.000Z</time>
      </trkpt>
      <trkpt lat="42.78056" lon="1.53151">
        <ele>722</ele>
        <time>2026-06-28T07:21:37.000Z</time>
      </trkpt>
      <trkpt lat="42.78054" lon="1.53145">
        <ele>722</ele>
        <time>2026-06-28T07:21:38.000Z</time>
      </trkpt>
      <trkpt lat="42.78052" lon="1.53137">
        <ele>722</ele>
        <time>2026-06-28T07:21:39.000Z</time>
      </trkpt>
      <trkpt lat="42.78049" lon="1.5313">
        <ele>722</ele>
        <time>2026-06-28T07:21:40.000Z</time>
      </trkpt>
      <trkpt lat="42.78047" lon="1.53122">
        <ele>722</ele>
        <time>2026-06-28T07:21:41.000Z</time>
      </trkpt>
      <trkpt lat="42.78045" lon="1.53115">
        <ele>722</ele>
        <time>2026-06-28T07:21:42.000Z</time>
      </trkpt>
      <trkpt lat="42.78043" lon="1.5311">
        <ele>722</ele>
        <time>2026-06-28T07:21:43.000Z</time>
      </trkpt>
      <trkpt lat="42.78041" lon="1.53105">
        <ele>722</ele>
        <time>2026-06-28T07:21:44.000Z</time>
      </trkpt>
      <trkpt lat="42.78039" lon="1.531">
        <ele>723</ele>
        <time>2026-06-28T07:21:45.000Z</time>
      </trkpt>
      <trkpt lat="42.78037" lon="1.53095">
        <ele>723</ele>
        <time>2026-06-28T07:21:46.000Z</time>
      </trkpt>
      <trkpt lat="42.78036" lon="1.53089">
        <ele>723</ele>
        <time>2026-06-28T07:21:47.000Z</time>
      </trkpt>
      <trkpt lat="42.78034" lon="1.53083">
        <ele>723</ele>
        <time>2026-06-28T07:21:48.000Z</time>
      </trkpt>
      <trkpt lat="42.78032" lon="1.53076">
        <ele>723</ele>
        <time>2026-06-28T07:21:49.000Z</time>
      </trkpt>
      <trkpt lat="42.7803" lon="1.5307">
        <ele>723</ele>
        <time>2026-06-28T07:21:50.000Z</time>
      </trkpt>
      <trkpt lat="42.78028" lon="1.53066">
        <ele>723</ele>
        <time>2026-06-28T07:21:51.000Z</time>
      </trkpt>
      <trkpt lat="42.78026" lon="1.53061">
        <ele>724</ele>
        <time>2026-06-28T07:21:52.000Z</time>
      </trkpt>
      <trkpt lat="42.78025" lon="1.53056">
        <ele>724</ele>
        <time>2026-06-28T07:21:53.000Z</time>
      </trkpt>
      <trkpt lat="42.78023" lon="1.53052">
        <ele>724</ele>
        <time>2026-06-28T07:21:54.000Z</time>
      </trkpt>
      <trkpt lat="42.78021" lon="1.53048">
        <ele>724</ele>
        <time>2026-06-28T07:21:55.000Z</time>
      </trkpt>
      <trkpt lat="42.78018" lon="1.53043">
        <ele>724</ele>
        <time>2026-06-28T07:21:56.000Z</time>
      </trkpt>
      <trkpt lat="42.78016" lon="1.53038">
        <ele>724</ele>
        <time>2026-06-28T07:21:57.000Z</time>
      </trkpt>
      <trkpt lat="42.78014" lon="1.53034">
        <ele>723</ele>
        <time>2026-06-28T07:21:58.000Z</time>
      </trkpt>
      <trkpt lat="42.78013" lon="1.53029">
        <ele>723</ele>
        <time>2026-06-28T07:21:59.000Z</time>
      </trkpt>
      <trkpt lat="42.78011" lon="1.53025">
        <ele>724</ele>
        <time>2026-06-28T07:22:00.000Z</time>
      </trkpt>
      <trkpt lat="42.7801" lon="1.53018">
        <ele>725</ele>
        <time>2026-06-28T07:22:01.000Z</time>
      </trkpt>
      <trkpt lat="42.78009" lon="1.53011">
        <ele>725</ele>
        <time>2026-06-28T07:22:02.000Z</time>
      </trkpt>
      <trkpt lat="42.78008" lon="1.53006">
        <ele>725</ele>
        <time>2026-06-28T07:22:03.000Z</time>
      </trkpt>
      <trkpt lat="42.78006" lon="1.53001">
        <ele>725</ele>
        <time>2026-06-28T07:22:04.000Z</time>
      </trkpt>
      <trkpt lat="42.78005" lon="1.52997">
        <ele>725</ele>
        <time>2026-06-28T07:22:05.000Z</time>
      </trkpt>
      <trkpt lat="42.78003" lon="1.52993">
        <ele>726</ele>
        <time>2026-06-28T07:22:06.000Z</time>
      </trkpt>
      <trkpt lat="42.78001" lon="1.52988">
        <ele>726</ele>
        <time>2026-06-28T07:22:07.000Z</time>
      </trkpt>
      <trkpt lat="42.78" lon="1.52985">
        <ele>725</ele>
        <time>2026-06-28T07:22:08.000Z</time>
      </trkpt>
      <trkpt lat="42.77998" lon="1.52982">
        <ele>726</ele>
        <time>2026-06-28T07:22:09.000Z</time>
      </trkpt>
      <trkpt lat="42.77996" lon="1.52978">
        <ele>726</ele>
        <time>2026-06-28T07:22:10.000Z</time>
      </trkpt>
      <trkpt lat="42.77994" lon="1.52974">
        <ele>726</ele>
        <time>2026-06-28T07:22:11.000Z</time>
      </trkpt>
      <trkpt lat="42.77992" lon="1.5297">
        <ele>726</ele>
        <time>2026-06-28T07:22:12.000Z</time>
      </trkpt>
      <trkpt lat="42.7799" lon="1.52966">
        <ele>725</ele>
        <time>2026-06-28T07:22:13.000Z</time>
      </trkpt>
      <trkpt lat="42.77989" lon="1.52962">
        <ele>725</ele>
        <time>2026-06-28T07:22:14.000Z</time>
      </trkpt>
      <trkpt lat="42.77987" lon="1.52958">
        <ele>725</ele>
        <time>2026-06-28T07:22:15.000Z</time>
      </trkpt>
      <trkpt lat="42.77985" lon="1.52953">
        <ele>724</ele>
        <time>2026-06-28T07:22:16.000Z</time>
      </trkpt>
      <trkpt lat="42.77984" lon="1.52949">
        <ele>724</ele>
        <time>2026-06-28T07:22:17.000Z</time>
      </trkpt>
      <trkpt lat="42.77982" lon="1.52945">
        <ele>724</ele>
        <time>2026-06-28T07:22:18.000Z</time>
      </trkpt>
      <trkpt lat="42.7798" lon="1.5294">
        <ele>724</ele>
        <time>2026-06-28T07:22:19.000Z</time>
      </trkpt>
      <trkpt lat="42.77978" lon="1.52936">
        <ele>724</ele>
        <time>2026-06-28T07:22:20.000Z</time>
      </trkpt>
      <trkpt lat="42.77975" lon="1.52931">
        <ele>724</ele>
        <time>2026-06-28T07:22:21.000Z</time>
      </trkpt>
      <trkpt lat="42.77971" lon="1.52927">
        <ele>723</ele>
        <time>2026-06-28T07:22:22.000Z</time>
      </trkpt>
      <trkpt lat="42.77969" lon="1.52923">
        <ele>723</ele>
        <time>2026-06-28T07:22:23.000Z</time>
      </trkpt>
      <trkpt lat="42.77967" lon="1.52918">
        <ele>722</ele>
        <time>2026-06-28T07:22:24.000Z</time>
      </trkpt>
      <trkpt lat="42.77964" lon="1.52914">
        <ele>722</ele>
        <time>2026-06-28T07:22:25.000Z</time>
      </trkpt>
      <trkpt lat="42.77962" lon="1.5291">
        <ele>722</ele>
        <time>2026-06-28T07:22:26.000Z</time>
      </trkpt>
      <trkpt lat="42.7796" lon="1.52905">
        <ele>722</ele>
        <time>2026-06-28T07:22:27.000Z</time>
      </trkpt>
      <trkpt lat="42.77957" lon="1.529">
        <ele>722</ele>
        <time>2026-06-28T07:22:28.000Z</time>
      </trkpt>
      <trkpt lat="42.77955" lon="1.52896">
        <ele>722</ele>
        <time>2026-06-28T07:22:29.000Z</time>
      </trkpt>
      <trkpt lat="42.77952" lon="1.52891">
        <ele>723</ele>
        <time>2026-06-28T07:22:30.000Z</time>
      </trkpt>
      <trkpt lat="42.7795" lon="1.52887">
        <ele>723</ele>
        <time>2026-06-28T07:22:31.000Z</time>
      </trkpt>
      <trkpt lat="42.77948" lon="1.52882">
        <ele>723</ele>
        <time>2026-06-28T07:22:32.000Z</time>
      </trkpt>
      <trkpt lat="42.77946" lon="1.52876">
        <ele>723</ele>
        <time>2026-06-28T07:22:33.000Z</time>
      </trkpt>
      <trkpt lat="42.77943" lon="1.5287">
        <ele>723</ele>
        <time>2026-06-28T07:22:34.000Z</time>
      </trkpt>
      <trkpt lat="42.77941" lon="1.52865">
        <ele>723</ele>
        <time>2026-06-28T07:22:35.000Z</time>
      </trkpt>
      <trkpt lat="42.77939" lon="1.5286">
        <ele>723</ele>
        <time>2026-06-28T07:22:36.000Z</time>
      </trkpt>
      <trkpt lat="42.77938" lon="1.52855">
        <ele>723</ele>
        <time>2026-06-28T07:22:37.000Z</time>
      </trkpt>
      <trkpt lat="42.77936" lon="1.5285">
        <ele>723</ele>
        <time>2026-06-28T07:22:38.000Z</time>
      </trkpt>
      <trkpt lat="42.77934" lon="1.52845">
        <ele>723</ele>
        <time>2026-06-28T07:22:39.000Z</time>
      </trkpt>
      <trkpt lat="42.77932" lon="1.52839">
        <ele>723</ele>
        <time>2026-06-28T07:22:40.000Z</time>
      </trkpt>
      <trkpt lat="42.7793" lon="1.52834">
        <ele>723</ele>
        <time>2026-06-28T07:22:41.000Z</time>
      </trkpt>
      <trkpt lat="42.77928" lon="1.52829">
        <ele>724</ele>
        <time>2026-06-28T07:22:42.000Z</time>
      </trkpt>
      <trkpt lat="42.77926" lon="1.52823">
        <ele>725</ele>
        <time>2026-06-28T07:22:43.000Z</time>
      </trkpt>
      <trkpt lat="42.77923" lon="1.52817">
        <ele>725</ele>
        <time>2026-06-28T07:22:44.000Z</time>
      </trkpt>
      <trkpt lat="42.7792" lon="1.52811">
        <ele>726</ele>
        <time>2026-06-28T07:22:45.000Z</time>
      </trkpt>
      <trkpt lat="42.77918" lon="1.52805">
        <ele>727</ele>
        <time>2026-06-28T07:22:46.000Z</time>
      </trkpt>
      <trkpt lat="42.77917" lon="1.528">
        <ele>727</ele>
        <time>2026-06-28T07:22:47.000Z</time>
      </trkpt>
      <trkpt lat="42.77915" lon="1.52795">
        <ele>727</ele>
        <time>2026-06-28T07:22:48.000Z</time>
      </trkpt>
      <trkpt lat="42.77914" lon="1.5279">
        <ele>727</ele>
        <time>2026-06-28T07:22:49.000Z</time>
      </trkpt>
      <trkpt lat="42.77914" lon="1.52781">
        <ele>728</ele>
        <time>2026-06-28T07:22:50.000Z</time>
      </trkpt>
      <trkpt lat="42.77914" lon="1.52774">
        <ele>728</ele>
        <time>2026-06-28T07:22:51.000Z</time>
      </trkpt>
      <trkpt lat="42.77914" lon="1.52767">
        <ele>728</ele>
        <time>2026-06-28T07:22:52.000Z</time>
      </trkpt>
      <trkpt lat="42.77914" lon="1.5276">
        <ele>728</ele>
        <time>2026-06-28T07:22:53.000Z</time>
      </trkpt>
      <trkpt lat="42.77914" lon="1.52753">
        <ele>728</ele>
        <time>2026-06-28T07:22:54.000Z</time>
      </trkpt>
      <trkpt lat="42.77914" lon="1.52746">
        <ele>728</ele>
        <time>2026-06-28T07:22:55.000Z</time>
      </trkpt>
      <trkpt lat="42.77914" lon="1.52739">
        <ele>728</ele>
        <time>2026-06-28T07:22:56.000Z</time>
      </trkpt>
      <trkpt lat="42.77914" lon="1.52733">
        <ele>727</ele>
        <time>2026-06-28T07:22:57.000Z</time>
      </trkpt>
      <trkpt lat="42.77914" lon="1.52727">
        <ele>727</ele>
        <time>2026-06-28T07:22:58.000Z</time>
      </trkpt>
      <trkpt lat="42.77913" lon="1.5272">
        <ele>727</ele>
        <time>2026-06-28T07:22:59.000Z</time>
      </trkpt>
      <trkpt lat="42.77913" lon="1.52714">
        <ele>727</ele>
        <time>2026-06-28T07:23:00.000Z</time>
      </trkpt>
      <trkpt lat="42.77912" lon="1.52708">
        <ele>726</ele>
        <time>2026-06-28T07:23:01.000Z</time>
      </trkpt>
      <trkpt lat="42.77911" lon="1.52702">
        <ele>726</ele>
        <time>2026-06-28T07:23:02.000Z</time>
      </trkpt>
      <trkpt lat="42.7791" lon="1.52696">
        <ele>726</ele>
        <time>2026-06-28T07:23:03.000Z</time>
      </trkpt>
      <trkpt lat="42.7791" lon="1.52688">
        <ele>726</ele>
        <time>2026-06-28T07:23:04.000Z</time>
      </trkpt>
      <trkpt lat="42.77909" lon="1.52682">
        <ele>725</ele>
        <time>2026-06-28T07:23:05.000Z</time>
      </trkpt>
      <trkpt lat="42.77909" lon="1.52674">
        <ele>725</ele>
        <time>2026-06-28T07:23:06.000Z</time>
      </trkpt>
      <trkpt lat="42.77908" lon="1.52667">
        <ele>725</ele>
        <time>2026-06-28T07:23:07.000Z</time>
      </trkpt>
      <trkpt lat="42.77907" lon="1.52662">
        <ele>726</ele>
        <time>2026-06-28T07:23:08.000Z</time>
      </trkpt>
      <trkpt lat="42.77906" lon="1.52656">
        <ele>726</ele>
        <time>2026-06-28T07:23:09.000Z</time>
      </trkpt>
      <trkpt lat="42.77905" lon="1.52649">
        <ele>726</ele>
        <time>2026-06-28T07:23:10.000Z</time>
      </trkpt>
      <trkpt lat="42.77904" lon="1.52643">
        <ele>726</ele>
        <time>2026-06-28T07:23:11.000Z</time>
      </trkpt>
      <trkpt lat="42.77903" lon="1.52637">
        <ele>727</ele>
        <time>2026-06-28T07:23:12.000Z</time>
      </trkpt>
      <trkpt lat="42.77901" lon="1.52632">
        <ele>727</ele>
        <time>2026-06-28T07:23:13.000Z</time>
      </trkpt>
      <trkpt lat="42.77901" lon="1.52627">
        <ele>727</ele>
        <time>2026-06-28T07:23:14.000Z</time>
      </trkpt>
      <trkpt lat="42.779" lon="1.52623">
        <ele>727</ele>
        <time>2026-06-28T07:23:15.000Z</time>
      </trkpt>
      <trkpt lat="42.779" lon="1.52618">
        <ele>727</ele>
        <time>2026-06-28T07:23:16.000Z</time>
      </trkpt>
      <trkpt lat="42.779" lon="1.52614">
        <ele>727</ele>
        <time>2026-06-28T07:23:17.000Z</time>
      </trkpt>
      <trkpt lat="42.77899" lon="1.52609">
        <ele>727</ele>
        <time>2026-06-28T07:23:18.000Z</time>
      </trkpt>
      <trkpt lat="42.77898" lon="1.52605">
        <ele>727</ele>
        <time>2026-06-28T07:23:19.000Z</time>
      </trkpt>
      <trkpt lat="42.77898" lon="1.526">
        <ele>727</ele>
        <time>2026-06-28T07:23:20.000Z</time>
      </trkpt>
      <trkpt lat="42.77896" lon="1.52596">
        <ele>727</ele>
        <time>2026-06-28T07:23:21.000Z</time>
      </trkpt>
      <trkpt lat="42.77894" lon="1.52591">
        <ele>727</ele>
        <time>2026-06-28T07:23:22.000Z</time>
      </trkpt>
      <trkpt lat="42.77892" lon="1.52587">
        <ele>726</ele>
        <time>2026-06-28T07:23:23.000Z</time>
      </trkpt>
      <trkpt lat="42.77891" lon="1.52582">
        <ele>726</ele>
        <time>2026-06-28T07:23:24.000Z</time>
      </trkpt>
      <trkpt lat="42.7789" lon="1.52577">
        <ele>726</ele>
        <time>2026-06-28T07:23:25.000Z</time>
      </trkpt>
      <trkpt lat="42.77889" lon="1.52573">
        <ele>726</ele>
        <time>2026-06-28T07:23:26.000Z</time>
      </trkpt>
      <trkpt lat="42.77888" lon="1.52567">
        <ele>725</ele>
        <time>2026-06-28T07:23:27.000Z</time>
      </trkpt>
      <trkpt lat="42.77887" lon="1.52562">
        <ele>726</ele>
        <time>2026-06-28T07:23:28.000Z</time>
      </trkpt>
      <trkpt lat="42.77887" lon="1.52557">
        <ele>726</ele>
        <time>2026-06-28T07:23:29.000Z</time>
      </trkpt>
      <trkpt lat="42.77888" lon="1.52552">
        <ele>726</ele>
        <time>2026-06-28T07:23:30.000Z</time>
      </trkpt>
      <trkpt lat="42.77888" lon="1.52546">
        <ele>726</ele>
        <time>2026-06-28T07:23:31.000Z</time>
      </trkpt>
      <trkpt lat="42.77888" lon="1.52541">
        <ele>727</ele>
        <time>2026-06-28T07:23:32.000Z</time>
      </trkpt>
      <trkpt lat="42.77889" lon="1.52536">
        <ele>727</ele>
        <time>2026-06-28T07:23:33.000Z</time>
      </trkpt>
      <trkpt lat="42.77889" lon="1.52532">
        <ele>727</ele>
        <time>2026-06-28T07:23:34.000Z</time>
      </trkpt>
      <trkpt lat="42.77889" lon="1.52528">
        <ele>727</ele>
        <time>2026-06-28T07:23:35.000Z</time>
      </trkpt>
      <trkpt lat="42.77889" lon="1.52523">
        <ele>727</ele>
        <time>2026-06-28T07:23:36.000Z</time>
      </trkpt>
      <trkpt lat="42.77889" lon="1.52519">
        <ele>727</ele>
        <time>2026-06-28T07:23:37.000Z</time>
      </trkpt>
      <trkpt lat="42.77889" lon="1.52513">
        <ele>727</ele>
        <time>2026-06-28T07:23:38.000Z</time>
      </trkpt>
      <trkpt lat="42.77888" lon="1.52508">
        <ele>726</ele>
        <time>2026-06-28T07:23:39.000Z</time>
      </trkpt>
      <trkpt lat="42.77888" lon="1.52502">
        <ele>726</ele>
        <time>2026-06-28T07:23:40.000Z</time>
      </trkpt>
      <trkpt lat="42.77887" lon="1.52497">
        <ele>726</ele>
        <time>2026-06-28T07:23:41.000Z</time>
      </trkpt>
      <trkpt lat="42.77887" lon="1.52491">
        <ele>726</ele>
        <time>2026-06-28T07:23:42.000Z</time>
      </trkpt>
      <trkpt lat="42.77887" lon="1.52486">
        <ele>726</ele>
        <time>2026-06-28T07:23:43.000Z</time>
      </trkpt>
      <trkpt lat="42.77887" lon="1.5248">
        <ele>726</ele>
        <time>2026-06-28T07:23:44.000Z</time>
      </trkpt>
      <trkpt lat="42.77886" lon="1.52474">
        <ele>726</ele>
        <time>2026-06-28T07:23:45.000Z</time>
      </trkpt>
      <trkpt lat="42.77885" lon="1.52469">
        <ele>726</ele>
        <time>2026-06-28T07:23:46.000Z</time>
      </trkpt>
      <trkpt lat="42.77885" lon="1.52463">
        <ele>727</ele>
        <time>2026-06-28T07:23:47.000Z</time>
      </trkpt>
      <trkpt lat="42.77884" lon="1.52458">
        <ele>727</ele>
        <time>2026-06-28T07:23:48.000Z</time>
      </trkpt>
      <trkpt lat="42.77884" lon="1.52453">
        <ele>727</ele>
        <time>2026-06-28T07:23:49.000Z</time>
      </trkpt>
      <trkpt lat="42.77884" lon="1.52448">
        <ele>727</ele>
        <time>2026-06-28T07:23:50.000Z</time>
      </trkpt>
      <trkpt lat="42.77884" lon="1.52443">
        <ele>727</ele>
        <time>2026-06-28T07:23:51.000Z</time>
      </trkpt>
      <trkpt lat="42.77883" lon="1.52438">
        <ele>727</ele>
        <time>2026-06-28T07:23:52.000Z</time>
      </trkpt>
      <trkpt lat="42.77883" lon="1.52434">
        <ele>727</ele>
        <time>2026-06-28T07:23:53.000Z</time>
      </trkpt>
      <trkpt lat="42.77882" lon="1.52429">
        <ele>727</ele>
        <time>2026-06-28T07:23:54.000Z</time>
      </trkpt>
      <trkpt lat="42.77881" lon="1.52425">
        <ele>727</ele>
        <time>2026-06-28T07:23:55.000Z</time>
      </trkpt>
      <trkpt lat="42.7788" lon="1.52422">
        <ele>727</ele>
        <time>2026-06-28T07:23:56.000Z</time>
      </trkpt>
      <trkpt lat="42.77879" lon="1.52418">
        <ele>727</ele>
        <time>2026-06-28T07:23:57.000Z</time>
      </trkpt>
      <trkpt lat="42.77878" lon="1.52414">
        <ele>728</ele>
        <time>2026-06-28T07:23:58.000Z</time>
      </trkpt>
      <trkpt lat="42.77878" lon="1.52411">
        <ele>728</ele>
        <time>2026-06-28T07:23:59.000Z</time>
      </trkpt>
      <trkpt lat="42.77877" lon="1.52408">
        <ele>728</ele>
        <time>2026-06-28T07:24:00.000Z</time>
      </trkpt>
      <trkpt lat="42.77877" lon="1.52405">
        <ele>728</ele>
        <time>2026-06-28T07:24:01.000Z</time>
      </trkpt>
      <trkpt lat="42.77877" lon="1.52401">
        <ele>728</ele>
        <time>2026-06-28T07:24:02.000Z</time>
      </trkpt>
      <trkpt lat="42.77877" lon="1.52397">
        <ele>729</ele>
        <time>2026-06-28T07:24:03.000Z</time>
      </trkpt>
      <trkpt lat="42.77876" lon="1.52394">
        <ele>729</ele>
        <time>2026-06-28T07:24:04.000Z</time>
      </trkpt>
      <trkpt lat="42.77875" lon="1.52391">
        <ele>729</ele>
        <time>2026-06-28T07:24:05.000Z</time>
      </trkpt>
      <trkpt lat="42.77874" lon="1.52388">
        <ele>730</ele>
        <time>2026-06-28T07:24:06.000Z</time>
      </trkpt>
      <trkpt lat="42.77872" lon="1.52386">
        <ele>730</ele>
        <time>2026-06-28T07:24:07.000Z</time>
      </trkpt>
      <trkpt lat="42.7787" lon="1.52382">
        <ele>730</ele>
        <time>2026-06-28T07:24:08.000Z</time>
      </trkpt>
      <trkpt lat="42.77868" lon="1.52379">
        <ele>731</ele>
        <time>2026-06-28T07:24:09.000Z</time>
      </trkpt>
      <trkpt lat="42.77866" lon="1.52376">
        <ele>731</ele>
        <time>2026-06-28T07:24:10.000Z</time>
      </trkpt>
      <trkpt lat="42.77864" lon="1.52373">
        <ele>731</ele>
        <time>2026-06-28T07:24:11.000Z</time>
      </trkpt>
      <trkpt lat="42.77862" lon="1.52372">
        <ele>732</ele>
        <time>2026-06-28T07:24:12.000Z</time>
      </trkpt>
      <trkpt lat="42.77861" lon="1.5237">
        <ele>733</ele>
        <time>2026-06-28T07:24:13.000Z</time>
      </trkpt>
      <trkpt lat="42.77859" lon="1.52368">
        <ele>734</ele>
        <time>2026-06-28T07:24:14.000Z</time>
      </trkpt>
      <trkpt lat="42.77858" lon="1.52365">
        <ele>735</ele>
        <time>2026-06-28T07:24:15.000Z</time>
      </trkpt>
      <trkpt lat="42.77857" lon="1.52362">
        <ele>736</ele>
        <time>2026-06-28T07:24:16.000Z</time>
      </trkpt>
      <trkpt lat="42.77856" lon="1.52359">
        <ele>736</ele>
        <time>2026-06-28T07:24:17.000Z</time>
      </trkpt>
      <trkpt lat="42.77855" lon="1.52355">
        <ele>736</ele>
        <time>2026-06-28T07:24:18.000Z</time>
      </trkpt>
      <trkpt lat="42.77854" lon="1.52352">
        <ele>736</ele>
        <time>2026-06-28T07:24:19.000Z</time>
      </trkpt>
      <trkpt lat="42.77852" lon="1.52348">
        <ele>735</ele>
        <time>2026-06-28T07:24:20.000Z</time>
      </trkpt>
      <trkpt lat="42.77851" lon="1.52343">
        <ele>735</ele>
        <time>2026-06-28T07:24:21.000Z</time>
      </trkpt>
      <trkpt lat="42.77851" lon="1.52339">
        <ele>735</ele>
        <time>2026-06-28T07:24:22.000Z</time>
      </trkpt>
      <trkpt lat="42.7785" lon="1.52335">
        <ele>734</ele>
        <time>2026-06-28T07:24:23.000Z</time>
      </trkpt>
      <trkpt lat="42.77849" lon="1.52331">
        <ele>733</ele>
        <time>2026-06-28T07:24:24.000Z</time>
      </trkpt>
      <trkpt lat="42.77849" lon="1.52327">
        <ele>733</ele>
        <time>2026-06-28T07:24:25.000Z</time>
      </trkpt>
      <trkpt lat="42.77849" lon="1.52323">
        <ele>732</ele>
        <time>2026-06-28T07:24:26.000Z</time>
      </trkpt>
      <trkpt lat="42.77848" lon="1.52319">
        <ele>731</ele>
        <time>2026-06-28T07:24:27.000Z</time>
      </trkpt>
      <trkpt lat="42.77847" lon="1.52315">
        <ele>730</ele>
        <time>2026-06-28T07:24:28.000Z</time>
      </trkpt>
      <trkpt lat="42.77846" lon="1.52311">
        <ele>729</ele>
        <time>2026-06-28T07:24:29.000Z</time>
      </trkpt>
      <trkpt lat="42.77845" lon="1.52306">
        <ele>727</ele>
        <time>2026-06-28T07:24:30.000Z</time>
      </trkpt>
      <trkpt lat="42.77845" lon="1.52301">
        <ele>725</ele>
        <time>2026-06-28T07:24:31.000Z</time>
      </trkpt>
      <trkpt lat="42.77844" lon="1.52295">
        <ele>724</ele>
        <time>2026-06-28T07:24:32.000Z</time>
      </trkpt>
      <trkpt lat="42.77842" lon="1.5229">
        <ele>724</ele>
        <time>2026-06-28T07:24:33.000Z</time>
      </trkpt>
      <trkpt lat="42.7784" lon="1.52284">
        <ele>724</ele>
        <time>2026-06-28T07:24:34.000Z</time>
      </trkpt>
      <trkpt lat="42.77839" lon="1.52276">
        <ele>724</ele>
        <time>2026-06-28T07:24:35.000Z</time>
      </trkpt>
      <trkpt lat="42.77837" lon="1.5227">
        <ele>724</ele>
        <time>2026-06-28T07:24:36.000Z</time>
      </trkpt>
      <trkpt lat="42.77836" lon="1.52263">
        <ele>725</ele>
        <time>2026-06-28T07:24:37.000Z</time>
      </trkpt>
      <trkpt lat="42.77835" lon="1.52254">
        <ele>724</ele>
        <time>2026-06-28T07:24:38.000Z</time>
      </trkpt>
      <trkpt lat="42.77833" lon="1.52246">
        <ele>725</ele>
        <time>2026-06-28T07:24:39.000Z</time>
      </trkpt>
      <trkpt lat="42.7783" lon="1.52236">
        <ele>725</ele>
        <time>2026-06-28T07:24:40.000Z</time>
      </trkpt>
      <trkpt lat="42.77828" lon="1.52227">
        <ele>724</ele>
        <time>2026-06-28T07:24:41.000Z</time>
      </trkpt>
      <trkpt lat="42.77825" lon="1.52219">
        <ele>724</ele>
        <time>2026-06-28T07:24:42.000Z</time>
      </trkpt>
      <trkpt lat="42.77821" lon="1.52212">
        <ele>725</ele>
        <time>2026-06-28T07:24:43.000Z</time>
      </trkpt>
      <trkpt lat="42.77818" lon="1.52204">
        <ele>725</ele>
        <time>2026-06-28T07:24:44.000Z</time>
      </trkpt>
      <trkpt lat="42.77815" lon="1.52197">
        <ele>725</ele>
        <time>2026-06-28T07:24:45.000Z</time>
      </trkpt>
      <trkpt lat="42.77812" lon="1.5219">
        <ele>725</ele>
        <time>2026-06-28T07:24:46.000Z</time>
      </trkpt>
      <trkpt lat="42.77809" lon="1.52184">
        <ele>725</ele>
        <time>2026-06-28T07:24:47.000Z</time>
      </trkpt>
      <trkpt lat="42.77806" lon="1.52177">
        <ele>726</ele>
        <time>2026-06-28T07:24:48.000Z</time>
      </trkpt>
      <trkpt lat="42.77803" lon="1.52172">
        <ele>725</ele>
        <time>2026-06-28T07:24:49.000Z</time>
      </trkpt>
      <trkpt lat="42.77799" lon="1.52167">
        <ele>726</ele>
        <time>2026-06-28T07:24:50.000Z</time>
      </trkpt>
      <trkpt lat="42.77795" lon="1.52162">
        <ele>726</ele>
        <time>2026-06-28T07:24:51.000Z</time>
      </trkpt>
      <trkpt lat="42.77791" lon="1.52157">
        <ele>727</ele>
        <time>2026-06-28T07:24:52.000Z</time>
      </trkpt>
      <trkpt lat="42.77788" lon="1.52153">
        <ele>727</ele>
        <time>2026-06-28T07:24:53.000Z</time>
      </trkpt>
      <trkpt lat="42.77786" lon="1.52149">
        <ele>727</ele>
        <time>2026-06-28T07:24:54.000Z</time>
      </trkpt>
      <trkpt lat="42.77783" lon="1.52146">
        <ele>727</ele>
        <time>2026-06-28T07:24:55.000Z</time>
      </trkpt>
      <trkpt lat="42.77781" lon="1.52144">
        <ele>727</ele>
        <time>2026-06-28T07:24:56.000Z</time>
      </trkpt>
      <trkpt lat="42.77778" lon="1.52141">
        <ele>728</ele>
        <time>2026-06-28T07:24:57.000Z</time>
      </trkpt>
      <trkpt lat="42.77776" lon="1.52137">
        <ele>727</ele>
        <time>2026-06-28T07:24:58.000Z</time>
      </trkpt>
      <trkpt lat="42.77773" lon="1.52135">
        <ele>727</ele>
        <time>2026-06-28T07:24:59.000Z</time>
      </trkpt>
      <trkpt lat="42.77771" lon="1.52132">
        <ele>727</ele>
        <time>2026-06-28T07:25:00.000Z</time>
      </trkpt>
      <trkpt lat="42.7777" lon="1.52128">
        <ele>726</ele>
        <time>2026-06-28T07:25:01.000Z</time>
      </trkpt>
      <trkpt lat="42.77768" lon="1.52124">
        <ele>725</ele>
        <time>2026-06-28T07:25:02.000Z</time>
      </trkpt>
      <trkpt lat="42.77765" lon="1.5212">
        <ele>725</ele>
        <time>2026-06-28T07:25:03.000Z</time>
      </trkpt>
      <trkpt lat="42.77763" lon="1.52116">
        <ele>725</ele>
        <time>2026-06-28T07:25:04.000Z</time>
      </trkpt>
      <trkpt lat="42.77761" lon="1.52113">
        <ele>725</ele>
        <time>2026-06-28T07:25:05.000Z</time>
      </trkpt>
      <trkpt lat="42.77758" lon="1.52109">
        <ele>726</ele>
        <time>2026-06-28T07:25:06.000Z</time>
      </trkpt>
      <trkpt lat="42.77756" lon="1.52105">
        <ele>726</ele>
        <time>2026-06-28T07:25:07.000Z</time>
      </trkpt>
      <trkpt lat="42.77753" lon="1.52102">
        <ele>726</ele>
        <time>2026-06-28T07:25:08.000Z</time>
      </trkpt>
      <trkpt lat="42.77751" lon="1.52098">
        <ele>727</ele>
        <time>2026-06-28T07:25:09.000Z</time>
      </trkpt>
      <trkpt lat="42.77749" lon="1.52095">
        <ele>727</ele>
        <time>2026-06-28T07:25:10.000Z</time>
      </trkpt>
      <trkpt lat="42.77747" lon="1.52091">
        <ele>727</ele>
        <time>2026-06-28T07:25:11.000Z</time>
      </trkpt>
      <trkpt lat="42.77744" lon="1.52088">
        <ele>727</ele>
        <time>2026-06-28T07:25:12.000Z</time>
      </trkpt>
      <trkpt lat="42.77742" lon="1.52084">
        <ele>727</ele>
        <time>2026-06-28T07:25:13.000Z</time>
      </trkpt>
      <trkpt lat="42.77739" lon="1.5208">
        <ele>727</ele>
        <time>2026-06-28T07:25:14.000Z</time>
      </trkpt>
      <trkpt lat="42.77736" lon="1.52075">
        <ele>727</ele>
        <time>2026-06-28T07:25:15.000Z</time>
      </trkpt>
      <trkpt lat="42.77734" lon="1.52071">
        <ele>728</ele>
        <time>2026-06-28T07:25:16.000Z</time>
      </trkpt>
      <trkpt lat="42.77732" lon="1.52067">
        <ele>728</ele>
        <time>2026-06-28T07:25:17.000Z</time>
      </trkpt>
      <trkpt lat="42.7773" lon="1.52063">
        <ele>728</ele>
        <time>2026-06-28T07:25:18.000Z</time>
      </trkpt>
      <trkpt lat="42.77728" lon="1.5206">
        <ele>728</ele>
        <time>2026-06-28T07:25:19.000Z</time>
      </trkpt>
      <trkpt lat="42.77726" lon="1.52056">
        <ele>728</ele>
        <time>2026-06-28T07:25:20.000Z</time>
      </trkpt>
      <trkpt lat="42.77724" lon="1.52053">
        <ele>728</ele>
        <time>2026-06-28T07:25:21.000Z</time>
      </trkpt>
      <trkpt lat="42.77722" lon="1.52048">
        <ele>729</ele>
        <time>2026-06-28T07:25:22.000Z</time>
      </trkpt>
      <trkpt lat="42.77721" lon="1.52044">
        <ele>729</ele>
        <time>2026-06-28T07:25:23.000Z</time>
      </trkpt>
      <trkpt lat="42.77719" lon="1.5204">
        <ele>729</ele>
        <time>2026-06-28T07:25:24.000Z</time>
      </trkpt>
      <trkpt lat="42.77717" lon="1.52036">
        <ele>730</ele>
        <time>2026-06-28T07:25:25.000Z</time>
      </trkpt>
      <trkpt lat="42.77715" lon="1.52032">
        <ele>730</ele>
        <time>2026-06-28T07:25:26.000Z</time>
      </trkpt>
      <trkpt lat="42.77714" lon="1.52027">
        <ele>730</ele>
        <time>2026-06-28T07:25:27.000Z</time>
      </trkpt>
      <trkpt lat="42.77713" lon="1.52022">
        <ele>730</ele>
        <time>2026-06-28T07:25:28.000Z</time>
      </trkpt>
      <trkpt lat="42.77712" lon="1.52017">
        <ele>731</ele>
        <time>2026-06-28T07:25:29.000Z</time>
      </trkpt>
      <trkpt lat="42.7771" lon="1.52012">
        <ele>731</ele>
        <time>2026-06-28T07:25:30.000Z</time>
      </trkpt>
      <trkpt lat="42.77709" lon="1.52009">
        <ele>732</ele>
        <time>2026-06-28T07:25:31.000Z</time>
      </trkpt>
      <trkpt lat="42.77707" lon="1.52005">
        <ele>731</ele>
        <time>2026-06-28T07:25:32.000Z</time>
      </trkpt>
      <trkpt lat="42.77706" lon="1.52001">
        <ele>731</ele>
        <time>2026-06-28T07:25:33.000Z</time>
      </trkpt>
      <trkpt lat="42.77705" lon="1.51997">
        <ele>732</ele>
        <time>2026-06-28T07:25:34.000Z</time>
      </trkpt>
      <trkpt lat="42.77704" lon="1.51992">
        <ele>732</ele>
        <time>2026-06-28T07:25:35.000Z</time>
      </trkpt>
      <trkpt lat="42.77703" lon="1.51987">
        <ele>731</ele>
        <time>2026-06-28T07:25:36.000Z</time>
      </trkpt>
      <trkpt lat="42.77702" lon="1.51982">
        <ele>732</ele>
        <time>2026-06-28T07:25:37.000Z</time>
      </trkpt>
      <trkpt lat="42.77702" lon="1.51978">
        <ele>732</ele>
        <time>2026-06-28T07:25:38.000Z</time>
      </trkpt>
      <trkpt lat="42.77701" lon="1.51973">
        <ele>732</ele>
        <time>2026-06-28T07:25:39.000Z</time>
      </trkpt>
      <trkpt lat="42.77701" lon="1.51968">
        <ele>732</ele>
        <time>2026-06-28T07:25:40.000Z</time>
      </trkpt>
      <trkpt lat="42.77701" lon="1.51964">
        <ele>732</ele>
        <time>2026-06-28T07:25:41.000Z</time>
      </trkpt>
      <trkpt lat="42.77701" lon="1.5196">
        <ele>732</ele>
        <time>2026-06-28T07:25:42.000Z</time>
      </trkpt>
      <trkpt lat="42.77701" lon="1.51956">
        <ele>732</ele>
        <time>2026-06-28T07:25:43.000Z</time>
      </trkpt>
      <trkpt lat="42.77701" lon="1.51951">
        <ele>732</ele>
        <time>2026-06-28T07:25:44.000Z</time>
      </trkpt>
      <trkpt lat="42.77701" lon="1.51946">
        <ele>733</ele>
        <time>2026-06-28T07:25:45.000Z</time>
      </trkpt>
      <trkpt lat="42.77701" lon="1.51942">
        <ele>733</ele>
        <time>2026-06-28T07:25:46.000Z</time>
      </trkpt>
      <trkpt lat="42.77701" lon="1.51937">
        <ele>733</ele>
        <time>2026-06-28T07:25:47.000Z</time>
      </trkpt>
      <trkpt lat="42.77701" lon="1.51933">
        <ele>733</ele>
        <time>2026-06-28T07:25:48.000Z</time>
      </trkpt>
      <trkpt lat="42.77701" lon="1.51929">
        <ele>733</ele>
        <time>2026-06-28T07:25:49.000Z</time>
      </trkpt>
      <trkpt lat="42.77701" lon="1.51925">
        <ele>734</ele>
        <time>2026-06-28T07:25:50.000Z</time>
      </trkpt>
      <trkpt lat="42.77701" lon="1.51921">
        <ele>734</ele>
        <time>2026-06-28T07:25:51.000Z</time>
      </trkpt>
      <trkpt lat="42.77701" lon="1.51917">
        <ele>734</ele>
        <time>2026-06-28T07:25:52.000Z</time>
      </trkpt>
      <trkpt lat="42.77701" lon="1.51913">
        <ele>734</ele>
        <time>2026-06-28T07:25:53.000Z</time>
      </trkpt>
      <trkpt lat="42.77701" lon="1.51909">
        <ele>734</ele>
        <time>2026-06-28T07:25:54.000Z</time>
      </trkpt>
      <trkpt lat="42.77701" lon="1.51905">
        <ele>734</ele>
        <time>2026-06-28T07:25:55.000Z</time>
      </trkpt>
      <trkpt lat="42.77701" lon="1.51901">
        <ele>734</ele>
        <time>2026-06-28T07:25:56.000Z</time>
      </trkpt>
      <trkpt lat="42.77701" lon="1.51897">
        <ele>734</ele>
        <time>2026-06-28T07:25:57.000Z</time>
      </trkpt>
      <trkpt lat="42.77701" lon="1.51893">
        <ele>734</ele>
        <time>2026-06-28T07:25:58.000Z</time>
      </trkpt>
      <trkpt lat="42.77702" lon="1.51889">
        <ele>734</ele>
        <time>2026-06-28T07:25:59.000Z</time>
      </trkpt>
      <trkpt lat="42.77702" lon="1.51884">
        <ele>734</ele>
        <time>2026-06-28T07:26:00.000Z</time>
      </trkpt>
      <trkpt lat="42.77702" lon="1.5188">
        <ele>735</ele>
        <time>2026-06-28T07:26:01.000Z</time>
      </trkpt>
      <trkpt lat="42.77702" lon="1.51876">
        <ele>736</ele>
        <time>2026-06-28T07:26:02.000Z</time>
      </trkpt>
      <trkpt lat="42.77702" lon="1.51873">
        <ele>736</ele>
        <time>2026-06-28T07:26:03.000Z</time>
      </trkpt>
      <trkpt lat="42.77703" lon="1.51869">
        <ele>736</ele>
        <time>2026-06-28T07:26:04.000Z</time>
      </trkpt>
      <trkpt lat="42.77703" lon="1.51865">
        <ele>736</ele>
        <time>2026-06-28T07:26:05.000Z</time>
      </trkpt>
      <trkpt lat="42.77703" lon="1.51862">
        <ele>736</ele>
        <time>2026-06-28T07:26:06.000Z</time>
      </trkpt>
      <trkpt lat="42.77704" lon="1.51857">
        <ele>736</ele>
        <time>2026-06-28T07:26:07.000Z</time>
      </trkpt>
      <trkpt lat="42.77705" lon="1.51854">
        <ele>736</ele>
        <time>2026-06-28T07:26:08.000Z</time>
      </trkpt>
      <trkpt lat="42.77705" lon="1.5185">
        <ele>737</ele>
        <time>2026-06-28T07:26:09.000Z</time>
      </trkpt>
      <trkpt lat="42.77705" lon="1.51846">
        <ele>737</ele>
        <time>2026-06-28T07:26:10.000Z</time>
      </trkpt>
      <trkpt lat="42.77706" lon="1.51843">
        <ele>737</ele>
        <time>2026-06-28T07:26:11.000Z</time>
      </trkpt>
      <trkpt lat="42.77707" lon="1.51839">
        <ele>737</ele>
        <time>2026-06-28T07:26:12.000Z</time>
      </trkpt>
      <trkpt lat="42.77707" lon="1.51836">
        <ele>738</ele>
        <time>2026-06-28T07:26:13.000Z</time>
      </trkpt>
      <trkpt lat="42.77708" lon="1.51833">
        <ele>738</ele>
        <time>2026-06-28T07:26:14.000Z</time>
      </trkpt>
      <trkpt lat="42.77708" lon="1.5183">
        <ele>739</ele>
        <time>2026-06-28T07:26:15.000Z</time>
      </trkpt>
      <trkpt lat="42.77709" lon="1.51826">
        <ele>739</ele>
        <time>2026-06-28T07:26:16.000Z</time>
      </trkpt>
      <trkpt lat="42.77709" lon="1.51823">
        <ele>739</ele>
        <time>2026-06-28T07:26:17.000Z</time>
      </trkpt>
      <trkpt lat="42.7771" lon="1.51819">
        <ele>739</ele>
        <time>2026-06-28T07:26:18.000Z</time>
      </trkpt>
      <trkpt lat="42.7771" lon="1.51815">
        <ele>740</ele>
        <time>2026-06-28T07:26:19.000Z</time>
      </trkpt>
      <trkpt lat="42.7771" lon="1.51812">
        <ele>740</ele>
        <time>2026-06-28T07:26:20.000Z</time>
      </trkpt>
      <trkpt lat="42.7771" lon="1.51808">
        <ele>740</ele>
        <time>2026-06-28T07:26:21.000Z</time>
      </trkpt>
      <trkpt lat="42.7771" lon="1.51804">
        <ele>741</ele>
        <time>2026-06-28T07:26:22.000Z</time>
      </trkpt>
      <trkpt lat="42.77709" lon="1.51801">
        <ele>741</ele>
        <time>2026-06-28T07:26:23.000Z</time>
      </trkpt>
      <trkpt lat="42.77709" lon="1.51797">
        <ele>741</ele>
        <time>2026-06-28T07:26:24.000Z</time>
      </trkpt>
      <trkpt lat="42.7771" lon="1.51793">
        <ele>741</ele>
        <time>2026-06-28T07:26:25.000Z</time>
      </trkpt>
      <trkpt lat="42.7771" lon="1.51789">
        <ele>741</ele>
        <time>2026-06-28T07:26:26.000Z</time>
      </trkpt>
      <trkpt lat="42.77711" lon="1.51786">
        <ele>742</ele>
        <time>2026-06-28T07:26:27.000Z</time>
      </trkpt>
      <trkpt lat="42.7771" lon="1.51783">
        <ele>741</ele>
        <time>2026-06-28T07:26:28.000Z</time>
      </trkpt>
      <trkpt lat="42.7771" lon="1.5178">
        <ele>742</ele>
        <time>2026-06-28T07:26:29.000Z</time>
      </trkpt>
      <trkpt lat="42.7771" lon="1.51776">
        <ele>742</ele>
        <time>2026-06-28T07:26:30.000Z</time>
      </trkpt>
      <trkpt lat="42.7771" lon="1.51773">
        <ele>742</ele>
        <time>2026-06-28T07:26:31.000Z</time>
      </trkpt>
      <trkpt lat="42.7771" lon="1.51769">
        <ele>743</ele>
        <time>2026-06-28T07:26:32.000Z</time>
      </trkpt>
      <trkpt lat="42.7771" lon="1.51766">
        <ele>743</ele>
        <time>2026-06-28T07:26:33.000Z</time>
      </trkpt>
      <trkpt lat="42.7771" lon="1.51762">
        <ele>742</ele>
        <time>2026-06-28T07:26:34.000Z</time>
      </trkpt>
      <trkpt lat="42.77709" lon="1.51758">
        <ele>742</ele>
        <time>2026-06-28T07:26:35.000Z</time>
      </trkpt>
      <trkpt lat="42.7771" lon="1.51755">
        <ele>742</ele>
        <time>2026-06-28T07:26:36.000Z</time>
      </trkpt>
      <trkpt lat="42.7771" lon="1.51751">
        <ele>743</ele>
        <time>2026-06-28T07:26:37.000Z</time>
      </trkpt>
      <trkpt lat="42.77709" lon="1.51747">
        <ele>743</ele>
        <time>2026-06-28T07:26:38.000Z</time>
      </trkpt>
      <trkpt lat="42.77709" lon="1.51744">
        <ele>743</ele>
        <time>2026-06-28T07:26:39.000Z</time>
      </trkpt>
      <trkpt lat="42.77708" lon="1.51741">
        <ele>743</ele>
        <time>2026-06-28T07:26:40.000Z</time>
      </trkpt>
      <trkpt lat="42.77707" lon="1.51737">
        <ele>743</ele>
        <time>2026-06-28T07:26:41.000Z</time>
      </trkpt>
      <trkpt lat="42.77706" lon="1.51734">
        <ele>743</ele>
        <time>2026-06-28T07:26:42.000Z</time>
      </trkpt>
      <trkpt lat="42.77706" lon="1.5173">
        <ele>743</ele>
        <time>2026-06-28T07:26:43.000Z</time>
      </trkpt>
      <trkpt lat="42.77705" lon="1.51726">
        <ele>744</ele>
        <time>2026-06-28T07:26:44.000Z</time>
      </trkpt>
      <trkpt lat="42.77704" lon="1.51723">
        <ele>744</ele>
        <time>2026-06-28T07:26:45.000Z</time>
      </trkpt>
      <trkpt lat="42.77703" lon="1.5172">
        <ele>744</ele>
        <time>2026-06-28T07:26:46.000Z</time>
      </trkpt>
      <trkpt lat="42.77702" lon="1.51717">
        <ele>745</ele>
        <time>2026-06-28T07:26:47.000Z</time>
      </trkpt>
      <trkpt lat="42.77702" lon="1.51714">
        <ele>745</ele>
        <time>2026-06-28T07:26:48.000Z</time>
      </trkpt>
      <trkpt lat="42.777" lon="1.51711">
        <ele>745</ele>
        <time>2026-06-28T07:26:49.000Z</time>
      </trkpt>
      <trkpt lat="42.77699" lon="1.51708">
        <ele>744</ele>
        <time>2026-06-28T07:26:50.000Z</time>
      </trkpt>
      <trkpt lat="42.77698" lon="1.51705">
        <ele>745</ele>
        <time>2026-06-28T07:26:51.000Z</time>
      </trkpt>
      <trkpt lat="42.77697" lon="1.51702">
        <ele>746</ele>
        <time>2026-06-28T07:26:52.000Z</time>
      </trkpt>
      <trkpt lat="42.77696" lon="1.51699">
        <ele>746</ele>
        <time>2026-06-28T07:26:53.000Z</time>
      </trkpt>
      <trkpt lat="42.77694" lon="1.51695">
        <ele>747</ele>
        <time>2026-06-28T07:26:54.000Z</time>
      </trkpt>
      <trkpt lat="42.77693" lon="1.51692">
        <ele>747</ele>
        <time>2026-06-28T07:26:55.000Z</time>
      </trkpt>
      <trkpt lat="42.77692" lon="1.51689">
        <ele>747</ele>
        <time>2026-06-28T07:26:56.000Z</time>
      </trkpt>
      <trkpt lat="42.77691" lon="1.51685">
        <ele>747</ele>
        <time>2026-06-28T07:26:57.000Z</time>
      </trkpt>
      <trkpt lat="42.7769" lon="1.51681">
        <ele>747</ele>
        <time>2026-06-28T07:26:58.000Z</time>
      </trkpt>
      <trkpt lat="42.77689" lon="1.51678">
        <ele>747</ele>
        <time>2026-06-28T07:26:59.000Z</time>
      </trkpt>
      <trkpt lat="42.77689" lon="1.51675">
        <ele>747</ele>
        <time>2026-06-28T07:27:00.000Z</time>
      </trkpt>
      <trkpt lat="42.77688" lon="1.51671">
        <ele>747</ele>
        <time>2026-06-28T07:27:01.000Z</time>
      </trkpt>
      <trkpt lat="42.77688" lon="1.51668">
        <ele>747</ele>
        <time>2026-06-28T07:27:02.000Z</time>
      </trkpt>
      <trkpt lat="42.77688" lon="1.51664">
        <ele>747</ele>
        <time>2026-06-28T07:27:03.000Z</time>
      </trkpt>
      <trkpt lat="42.77688" lon="1.5166">
        <ele>747</ele>
        <time>2026-06-28T07:27:04.000Z</time>
      </trkpt>
      <trkpt lat="42.77688" lon="1.51655">
        <ele>747</ele>
        <time>2026-06-28T07:27:05.000Z</time>
      </trkpt>
      <trkpt lat="42.77688" lon="1.5165">
        <ele>747</ele>
        <time>2026-06-28T07:27:06.000Z</time>
      </trkpt>
      <trkpt lat="42.77689" lon="1.51645">
        <ele>747</ele>
        <time>2026-06-28T07:27:07.000Z</time>
      </trkpt>
      <trkpt lat="42.77689" lon="1.5164">
        <ele>747</ele>
        <time>2026-06-28T07:27:08.000Z</time>
      </trkpt>
      <trkpt lat="42.77691" lon="1.51634">
        <ele>747</ele>
        <time>2026-06-28T07:27:09.000Z</time>
      </trkpt>
      <trkpt lat="42.77692" lon="1.51628">
        <ele>747</ele>
        <time>2026-06-28T07:27:10.000Z</time>
      </trkpt>
      <trkpt lat="42.77693" lon="1.51623">
        <ele>747</ele>
        <time>2026-06-28T07:27:11.000Z</time>
      </trkpt>
      <trkpt lat="42.77694" lon="1.51619">
        <ele>747</ele>
        <time>2026-06-28T07:27:12.000Z</time>
      </trkpt>
      <trkpt lat="42.77695" lon="1.51614">
        <ele>747</ele>
        <time>2026-06-28T07:27:13.000Z</time>
      </trkpt>
      <trkpt lat="42.77695" lon="1.5161">
        <ele>748</ele>
        <time>2026-06-28T07:27:14.000Z</time>
      </trkpt>
      <trkpt lat="42.77696" lon="1.51606">
        <ele>748</ele>
        <time>2026-06-28T07:27:15.000Z</time>
      </trkpt>
      <trkpt lat="42.77696" lon="1.51602">
        <ele>748</ele>
        <time>2026-06-28T07:27:16.000Z</time>
      </trkpt>
      <trkpt lat="42.77697" lon="1.51598">
        <ele>748</ele>
        <time>2026-06-28T07:27:17.000Z</time>
      </trkpt>
      <trkpt lat="42.77698" lon="1.51594">
        <ele>748</ele>
        <time>2026-06-28T07:27:18.000Z</time>
      </trkpt>
      <trkpt lat="42.77699" lon="1.5159">
        <ele>748</ele>
        <time>2026-06-28T07:27:19.000Z</time>
      </trkpt>
      <trkpt lat="42.777" lon="1.51585">
        <ele>748</ele>
        <time>2026-06-28T07:27:20.000Z</time>
      </trkpt>
      <trkpt lat="42.77701" lon="1.51579">
        <ele>749</ele>
        <time>2026-06-28T07:27:21.000Z</time>
      </trkpt>
      <trkpt lat="42.77702" lon="1.51575">
        <ele>749</ele>
        <time>2026-06-28T07:27:22.000Z</time>
      </trkpt>
      <trkpt lat="42.77703" lon="1.51569">
        <ele>749</ele>
        <time>2026-06-28T07:27:23.000Z</time>
      </trkpt>
      <trkpt lat="42.77704" lon="1.51564">
        <ele>749</ele>
        <time>2026-06-28T07:27:24.000Z</time>
      </trkpt>
      <trkpt lat="42.77704" lon="1.51559">
        <ele>749</ele>
        <time>2026-06-28T07:27:25.000Z</time>
      </trkpt>
      <trkpt lat="42.77706" lon="1.51553">
        <ele>750</ele>
        <time>2026-06-28T07:27:26.000Z</time>
      </trkpt>
      <trkpt lat="42.77707" lon="1.51548">
        <ele>750</ele>
        <time>2026-06-28T07:27:27.000Z</time>
      </trkpt>
      <trkpt lat="42.77708" lon="1.51541">
        <ele>749</ele>
        <time>2026-06-28T07:27:28.000Z</time>
      </trkpt>
      <trkpt lat="42.7771" lon="1.51536">
        <ele>749</ele>
        <time>2026-06-28T07:27:29.000Z</time>
      </trkpt>
      <trkpt lat="42.77711" lon="1.51529">
        <ele>749</ele>
        <time>2026-06-28T07:27:30.000Z</time>
      </trkpt>
      <trkpt lat="42.77712" lon="1.51522">
        <ele>749</ele>
        <time>2026-06-28T07:27:31.000Z</time>
      </trkpt>
      <trkpt lat="42.77713" lon="1.51515">
        <ele>749</ele>
        <time>2026-06-28T07:27:32.000Z</time>
      </trkpt>
      <trkpt lat="42.77713" lon="1.51506">
        <ele>749</ele>
        <time>2026-06-28T07:27:33.000Z</time>
      </trkpt>
      <trkpt lat="42.77714" lon="1.51496">
        <ele>749</ele>
        <time>2026-06-28T07:27:34.000Z</time>
      </trkpt>
      <trkpt lat="42.77715" lon="1.51486">
        <ele>748</ele>
        <time>2026-06-28T07:27:35.000Z</time>
      </trkpt>
      <trkpt lat="42.77716" lon="1.51477">
        <ele>748</ele>
        <time>2026-06-28T07:27:36.000Z</time>
      </trkpt>
      <trkpt lat="42.77717" lon="1.51465">
        <ele>748</ele>
        <time>2026-06-28T07:27:37.000Z</time>
      </trkpt>
      <trkpt lat="42.77718" lon="1.51453">
        <ele>748</ele>
        <time>2026-06-28T07:27:38.000Z</time>
      </trkpt>
      <trkpt lat="42.77716" lon="1.51441">
        <ele>747</ele>
        <time>2026-06-28T07:27:39.000Z</time>
      </trkpt>
      <trkpt lat="42.77714" lon="1.51429">
        <ele>746</ele>
        <time>2026-06-28T07:27:40.000Z</time>
      </trkpt>
      <trkpt lat="42.77713" lon="1.51417">
        <ele>745</ele>
        <time>2026-06-28T07:27:41.000Z</time>
      </trkpt>
      <trkpt lat="42.7771" lon="1.51406">
        <ele>745</ele>
        <time>2026-06-28T07:27:42.000Z</time>
      </trkpt>
      <trkpt lat="42.77708" lon="1.51395">
        <ele>744</ele>
        <time>2026-06-28T07:27:43.000Z</time>
      </trkpt>
      <trkpt lat="42.77705" lon="1.51384">
        <ele>744</ele>
        <time>2026-06-28T07:27:44.000Z</time>
      </trkpt>
      <trkpt lat="42.77702" lon="1.51373">
        <ele>744</ele>
        <time>2026-06-28T07:27:45.000Z</time>
      </trkpt>
      <trkpt lat="42.77699" lon="1.51363">
        <ele>744</ele>
        <time>2026-06-28T07:27:46.000Z</time>
      </trkpt>
      <trkpt lat="42.77697" lon="1.51353">
        <ele>743</ele>
        <time>2026-06-28T07:27:47.000Z</time>
      </trkpt>
      <trkpt lat="42.77695" lon="1.51343">
        <ele>743</ele>
        <time>2026-06-28T07:27:48.000Z</time>
      </trkpt>
      <trkpt lat="42.77694" lon="1.51333">
        <ele>744</ele>
        <time>2026-06-28T07:27:49.000Z</time>
      </trkpt>
      <trkpt lat="42.77693" lon="1.51324">
        <ele>744</ele>
        <time>2026-06-28T07:27:50.000Z</time>
      </trkpt>
      <trkpt lat="42.77692" lon="1.51316">
        <ele>743</ele>
        <time>2026-06-28T07:27:51.000Z</time>
      </trkpt>
      <trkpt lat="42.77691" lon="1.51307">
        <ele>744</ele>
        <time>2026-06-28T07:27:52.000Z</time>
      </trkpt>
      <trkpt lat="42.7769" lon="1.51299">
        <ele>744</ele>
        <time>2026-06-28T07:27:53.000Z</time>
      </trkpt>
      <trkpt lat="42.77689" lon="1.51291">
        <ele>743</ele>
        <time>2026-06-28T07:27:54.000Z</time>
      </trkpt>
      <trkpt lat="42.77689" lon="1.51285">
        <ele>743</ele>
        <time>2026-06-28T07:27:55.000Z</time>
      </trkpt>
      <trkpt lat="42.77688" lon="1.5128">
        <ele>743</ele>
        <time>2026-06-28T07:27:56.000Z</time>
      </trkpt>
      <trkpt lat="42.77687" lon="1.51275">
        <ele>743</ele>
        <time>2026-06-28T07:27:57.000Z</time>
      </trkpt>
      <trkpt lat="42.77686" lon="1.51269">
        <ele>742</ele>
        <time>2026-06-28T07:27:58.000Z</time>
      </trkpt>
      <trkpt lat="42.77685" lon="1.51264">
        <ele>743</ele>
        <time>2026-06-28T07:27:59.000Z</time>
      </trkpt>
      <trkpt lat="42.77685" lon="1.51259">
        <ele>743</ele>
        <time>2026-06-28T07:28:00.000Z</time>
      </trkpt>
      <trkpt lat="42.77684" lon="1.51254">
        <ele>742</ele>
        <time>2026-06-28T07:28:01.000Z</time>
      </trkpt>
      <trkpt lat="42.77683" lon="1.51249">
        <ele>742</ele>
        <time>2026-06-28T07:28:02.000Z</time>
      </trkpt>
      <trkpt lat="42.77682" lon="1.51244">
        <ele>742</ele>
        <time>2026-06-28T07:28:03.000Z</time>
      </trkpt>
      <trkpt lat="42.7768" lon="1.5124">
        <ele>742</ele>
        <time>2026-06-28T07:28:04.000Z</time>
      </trkpt>
      <trkpt lat="42.77679" lon="1.51235">
        <ele>742</ele>
        <time>2026-06-28T07:28:05.000Z</time>
      </trkpt>
      <trkpt lat="42.77678" lon="1.51231">
        <ele>743</ele>
        <time>2026-06-28T07:28:06.000Z</time>
      </trkpt>
      <trkpt lat="42.77677" lon="1.51226">
        <ele>743</ele>
        <time>2026-06-28T07:28:07.000Z</time>
      </trkpt>
      <trkpt lat="42.77676" lon="1.51222">
        <ele>743</ele>
        <time>2026-06-28T07:28:08.000Z</time>
      </trkpt>
      <trkpt lat="42.77674" lon="1.51218">
        <ele>743</ele>
        <time>2026-06-28T07:28:09.000Z</time>
      </trkpt>
      <trkpt lat="42.77672" lon="1.51215">
        <ele>743</ele>
        <time>2026-06-28T07:28:10.000Z</time>
      </trkpt>
      <trkpt lat="42.7767" lon="1.51211">
        <ele>743</ele>
        <time>2026-06-28T07:28:11.000Z</time>
      </trkpt>
      <trkpt lat="42.77668" lon="1.51206">
        <ele>743</ele>
        <time>2026-06-28T07:28:12.000Z</time>
      </trkpt>
      <trkpt lat="42.77665" lon="1.51201">
        <ele>743</ele>
        <time>2026-06-28T07:28:13.000Z</time>
      </trkpt>
      <trkpt lat="42.77663" lon="1.51196">
        <ele>742</ele>
        <time>2026-06-28T07:28:14.000Z</time>
      </trkpt>
      <trkpt lat="42.7766" lon="1.51191">
        <ele>743</ele>
        <time>2026-06-28T07:28:15.000Z</time>
      </trkpt>
      <trkpt lat="42.77658" lon="1.51187">
        <ele>742</ele>
        <time>2026-06-28T07:28:16.000Z</time>
      </trkpt>
      <trkpt lat="42.77655" lon="1.51182">
        <ele>742</ele>
        <time>2026-06-28T07:28:17.000Z</time>
      </trkpt>
      <trkpt lat="42.77653" lon="1.51179">
        <ele>742</ele>
        <time>2026-06-28T07:28:18.000Z</time>
      </trkpt>
      <trkpt lat="42.7765" lon="1.51175">
        <ele>742</ele>
        <time>2026-06-28T07:28:19.000Z</time>
      </trkpt>
      <trkpt lat="42.77648" lon="1.51171">
        <ele>742</ele>
        <time>2026-06-28T07:28:20.000Z</time>
      </trkpt>
      <trkpt lat="42.77647" lon="1.51167">
        <ele>742</ele>
        <time>2026-06-28T07:28:21.000Z</time>
      </trkpt>
      <trkpt lat="42.77645" lon="1.51164">
        <ele>742</ele>
        <time>2026-06-28T07:28:22.000Z</time>
      </trkpt>
      <trkpt lat="42.77643" lon="1.5116">
        <ele>742</ele>
        <time>2026-06-28T07:28:23.000Z</time>
      </trkpt>
      <trkpt lat="42.77641" lon="1.51155">
        <ele>741</ele>
        <time>2026-06-28T07:28:24.000Z</time>
      </trkpt>
      <trkpt lat="42.77639" lon="1.51152">
        <ele>741</ele>
        <time>2026-06-28T07:28:25.000Z</time>
      </trkpt>
      <trkpt lat="42.77636" lon="1.51148">
        <ele>741</ele>
        <time>2026-06-28T07:28:26.000Z</time>
      </trkpt>
      <trkpt lat="42.77634" lon="1.51146">
        <ele>741</ele>
        <time>2026-06-28T07:28:27.000Z</time>
      </trkpt>
      <trkpt lat="42.77631" lon="1.51143">
        <ele>741</ele>
        <time>2026-06-28T07:28:28.000Z</time>
      </trkpt>
      <trkpt lat="42.77628" lon="1.5114">
        <ele>741</ele>
        <time>2026-06-28T07:28:29.000Z</time>
      </trkpt>
      <trkpt lat="42.77626" lon="1.51137">
        <ele>741</ele>
        <time>2026-06-28T07:28:30.000Z</time>
      </trkpt>
      <trkpt lat="42.77623" lon="1.51134">
        <ele>741</ele>
        <time>2026-06-28T07:28:31.000Z</time>
      </trkpt>
      <trkpt lat="42.7762" lon="1.51132">
        <ele>741</ele>
        <time>2026-06-28T07:28:32.000Z</time>
      </trkpt>
      <trkpt lat="42.77616" lon="1.51129">
        <ele>741</ele>
        <time>2026-06-28T07:28:33.000Z</time>
      </trkpt>
      <trkpt lat="42.77613" lon="1.51127">
        <ele>741</ele>
        <time>2026-06-28T07:28:34.000Z</time>
      </trkpt>
      <trkpt lat="42.77611" lon="1.51124">
        <ele>741</ele>
        <time>2026-06-28T07:28:35.000Z</time>
      </trkpt>
      <trkpt lat="42.77608" lon="1.51123">
        <ele>741</ele>
        <time>2026-06-28T07:28:36.000Z</time>
      </trkpt>
      <trkpt lat="42.77606" lon="1.51121">
        <ele>741</ele>
        <time>2026-06-28T07:28:37.000Z</time>
      </trkpt>
      <trkpt lat="42.77603" lon="1.5112">
        <ele>742</ele>
        <time>2026-06-28T07:28:38.000Z</time>
      </trkpt>
      <trkpt lat="42.77601" lon="1.51119">
        <ele>742</ele>
        <time>2026-06-28T07:28:39.000Z</time>
      </trkpt>
      <trkpt lat="42.77598" lon="1.5112">
        <ele>742</ele>
        <time>2026-06-28T07:28:40.000Z</time>
      </trkpt>
      <trkpt lat="42.77596" lon="1.5112">
        <ele>742</ele>
        <time>2026-06-28T07:28:41.000Z</time>
      </trkpt>
      <trkpt lat="42.77593" lon="1.51121">
        <ele>741</ele>
        <time>2026-06-28T07:28:42.000Z</time>
      </trkpt>
      <trkpt lat="42.77591" lon="1.51121">
        <ele>741</ele>
        <time>2026-06-28T07:28:43.000Z</time>
      </trkpt>
      <trkpt lat="42.77588" lon="1.51121">
        <ele>741</ele>
        <time>2026-06-28T07:28:44.000Z</time>
      </trkpt>
      <trkpt lat="42.77585" lon="1.51122">
        <ele>741</ele>
        <time>2026-06-28T07:28:45.000Z</time>
      </trkpt>
      <trkpt lat="42.77582" lon="1.51122">
        <ele>741</ele>
        <time>2026-06-28T07:28:46.000Z</time>
      </trkpt>
      <trkpt lat="42.77579" lon="1.51122">
        <ele>741</ele>
        <time>2026-06-28T07:28:47.000Z</time>
      </trkpt>
      <trkpt lat="42.77576" lon="1.51122">
        <ele>741</ele>
        <time>2026-06-28T07:28:48.000Z</time>
      </trkpt>
      <trkpt lat="42.77573" lon="1.51123">
        <ele>741</ele>
        <time>2026-06-28T07:28:49.000Z</time>
      </trkpt>
      <trkpt lat="42.7757" lon="1.51124">
        <ele>741</ele>
        <time>2026-06-28T07:28:50.000Z</time>
      </trkpt>
      <trkpt lat="42.77566" lon="1.51123">
        <ele>740</ele>
        <time>2026-06-28T07:28:51.000Z</time>
      </trkpt>
      <trkpt lat="42.77563" lon="1.51123">
        <ele>740</ele>
        <time>2026-06-28T07:28:52.000Z</time>
      </trkpt>
      <trkpt lat="42.7756" lon="1.51123">
        <ele>740</ele>
        <time>2026-06-28T07:28:53.000Z</time>
      </trkpt>
      <trkpt lat="42.77558" lon="1.51122">
        <ele>740</ele>
        <time>2026-06-28T07:28:54.000Z</time>
      </trkpt>
      <trkpt lat="42.77555" lon="1.51121">
        <ele>740</ele>
        <time>2026-06-28T07:28:55.000Z</time>
      </trkpt>
      <trkpt lat="42.77552" lon="1.51121">
        <ele>740</ele>
        <time>2026-06-28T07:28:56.000Z</time>
      </trkpt>
      <trkpt lat="42.77549" lon="1.51121">
        <ele>740</ele>
        <time>2026-06-28T07:28:57.000Z</time>
      </trkpt>
      <trkpt lat="42.77547" lon="1.51121">
        <ele>740</ele>
        <time>2026-06-28T07:28:58.000Z</time>
      </trkpt>
      <trkpt lat="42.77544" lon="1.5112">
        <ele>740</ele>
        <time>2026-06-28T07:28:59.000Z</time>
      </trkpt>
      <trkpt lat="42.77541" lon="1.51119">
        <ele>739</ele>
        <time>2026-06-28T07:29:00.000Z</time>
      </trkpt>
      <trkpt lat="42.77538" lon="1.51119">
        <ele>739</ele>
        <time>2026-06-28T07:29:01.000Z</time>
      </trkpt>
      <trkpt lat="42.77536" lon="1.51118">
        <ele>739</ele>
        <time>2026-06-28T07:29:02.000Z</time>
      </trkpt>
      <trkpt lat="42.77533" lon="1.51116">
        <ele>739</ele>
        <time>2026-06-28T07:29:03.000Z</time>
      </trkpt>
      <trkpt lat="42.77531" lon="1.51116">
        <ele>739</ele>
        <time>2026-06-28T07:29:04.000Z</time>
      </trkpt>
      <trkpt lat="42.77528" lon="1.51115">
        <ele>740</ele>
        <time>2026-06-28T07:29:05.000Z</time>
      </trkpt>
      <trkpt lat="42.77525" lon="1.51114">
        <ele>740</ele>
        <time>2026-06-28T07:29:06.000Z</time>
      </trkpt>
      <trkpt lat="42.77523" lon="1.51114">
        <ele>740</ele>
        <time>2026-06-28T07:29:07.000Z</time>
      </trkpt>
      <trkpt lat="42.7752" lon="1.51113">
        <ele>740</ele>
        <time>2026-06-28T07:29:08.000Z</time>
      </trkpt>
      <trkpt lat="42.77518" lon="1.51113">
        <ele>740</ele>
        <time>2026-06-28T07:29:09.000Z</time>
      </trkpt>
      <trkpt lat="42.77515" lon="1.51112">
        <ele>739</ele>
        <time>2026-06-28T07:29:10.000Z</time>
      </trkpt>
      <trkpt lat="42.77513" lon="1.51112">
        <ele>739</ele>
        <time>2026-06-28T07:29:11.000Z</time>
      </trkpt>
      <trkpt lat="42.7751" lon="1.51112">
        <ele>739</ele>
        <time>2026-06-28T07:29:12.000Z</time>
      </trkpt>
      <trkpt lat="42.77507" lon="1.51112">
        <ele>739</ele>
        <time>2026-06-28T07:29:13.000Z</time>
      </trkpt>
      <trkpt lat="42.77505" lon="1.51111">
        <ele>739</ele>
        <time>2026-06-28T07:29:14.000Z</time>
      </trkpt>
      <trkpt lat="42.77503" lon="1.51111">
        <ele>739</ele>
        <time>2026-06-28T07:29:15.000Z</time>
      </trkpt>
      <trkpt lat="42.775" lon="1.51111">
        <ele>739</ele>
        <time>2026-06-28T07:29:16.000Z</time>
      </trkpt>
      <trkpt lat="42.77497" lon="1.5111">
        <ele>739</ele>
        <time>2026-06-28T07:29:17.000Z</time>
      </trkpt>
      <trkpt lat="42.77494" lon="1.51111">
        <ele>739</ele>
        <time>2026-06-28T07:29:18.000Z</time>
      </trkpt>
      <trkpt lat="42.7749" lon="1.51113">
        <ele>738</ele>
        <time>2026-06-28T07:29:19.000Z</time>
      </trkpt>
      <trkpt lat="42.77485" lon="1.51114">
        <ele>737</ele>
        <time>2026-06-28T07:29:20.000Z</time>
      </trkpt>
      <trkpt lat="42.7748" lon="1.51112">
        <ele>735</ele>
        <time>2026-06-28T07:29:21.000Z</time>
      </trkpt>
      <trkpt lat="42.77474" lon="1.5111">
        <ele>734</ele>
        <time>2026-06-28T07:29:22.000Z</time>
      </trkpt>
      <trkpt lat="42.7747" lon="1.51108">
        <ele>734</ele>
        <time>2026-06-28T07:29:23.000Z</time>
      </trkpt>
      <trkpt lat="42.77466" lon="1.51106">
        <ele>734</ele>
        <time>2026-06-28T07:29:24.000Z</time>
      </trkpt>
      <trkpt lat="42.77463" lon="1.51104">
        <ele>734</ele>
        <time>2026-06-28T07:29:25.000Z</time>
      </trkpt>
      <trkpt lat="42.77459" lon="1.51103">
        <ele>735</ele>
        <time>2026-06-28T07:29:26.000Z</time>
      </trkpt>
      <trkpt lat="42.77456" lon="1.51102">
        <ele>735</ele>
        <time>2026-06-28T07:29:27.000Z</time>
      </trkpt>
      <trkpt lat="42.77454" lon="1.51101">
        <ele>735</ele>
        <time>2026-06-28T07:29:28.000Z</time>
      </trkpt>
      <trkpt lat="42.7745" lon="1.51099">
        <ele>735</ele>
        <time>2026-06-28T07:29:29.000Z</time>
      </trkpt>
      <trkpt lat="42.77447" lon="1.51098">
        <ele>735</ele>
        <time>2026-06-28T07:29:30.000Z</time>
      </trkpt>
      <trkpt lat="42.77444" lon="1.51097">
        <ele>735</ele>
        <time>2026-06-28T07:29:31.000Z</time>
      </trkpt>
      <trkpt lat="42.77441" lon="1.51096">
        <ele>735</ele>
        <time>2026-06-28T07:29:32.000Z</time>
      </trkpt>
      <trkpt lat="42.77438" lon="1.51095">
        <ele>734</ele>
        <time>2026-06-28T07:29:33.000Z</time>
      </trkpt>
      <trkpt lat="42.77435" lon="1.51094">
        <ele>735</ele>
        <time>2026-06-28T07:29:34.000Z</time>
      </trkpt>
      <trkpt lat="42.77433" lon="1.51092">
        <ele>735</ele>
        <time>2026-06-28T07:29:35.000Z</time>
      </trkpt>
      <trkpt lat="42.7743" lon="1.51091">
        <ele>735</ele>
        <time>2026-06-28T07:29:36.000Z</time>
      </trkpt>
      <trkpt lat="42.77426" lon="1.5109">
        <ele>735</ele>
        <time>2026-06-28T07:29:37.000Z</time>
      </trkpt>
      <trkpt lat="42.77423" lon="1.51088">
        <ele>735</ele>
        <time>2026-06-28T07:29:38.000Z</time>
      </trkpt>
      <trkpt lat="42.77419" lon="1.51087">
        <ele>735</ele>
        <time>2026-06-28T07:29:39.000Z</time>
      </trkpt>
      <trkpt lat="42.77416" lon="1.51086">
        <ele>735</ele>
        <time>2026-06-28T07:29:40.000Z</time>
      </trkpt>
      <trkpt lat="42.77413" lon="1.51085">
        <ele>735</ele>
        <time>2026-06-28T07:29:41.000Z</time>
      </trkpt>
      <trkpt lat="42.7741" lon="1.51084">
        <ele>736</ele>
        <time>2026-06-28T07:29:42.000Z</time>
      </trkpt>
      <trkpt lat="42.77406" lon="1.51082">
        <ele>736</ele>
        <time>2026-06-28T07:29:43.000Z</time>
      </trkpt>
      <trkpt lat="42.77403" lon="1.51081">
        <ele>737</ele>
        <time>2026-06-28T07:29:44.000Z</time>
      </trkpt>
      <trkpt lat="42.77399" lon="1.5108">
        <ele>737</ele>
        <time>2026-06-28T07:29:45.000Z</time>
      </trkpt>
      <trkpt lat="42.77396" lon="1.51079">
        <ele>737</ele>
        <time>2026-06-28T07:29:46.000Z</time>
      </trkpt>
      <trkpt lat="42.77392" lon="1.51079">
        <ele>737</ele>
        <time>2026-06-28T07:29:47.000Z</time>
      </trkpt>
      <trkpt lat="42.77389" lon="1.51079">
        <ele>738</ele>
        <time>2026-06-28T07:29:48.000Z</time>
      </trkpt>
      <trkpt lat="42.77385" lon="1.51079">
        <ele>738</ele>
        <time>2026-06-28T07:29:49.000Z</time>
      </trkpt>
      <trkpt lat="42.77381" lon="1.51079">
        <ele>738</ele>
        <time>2026-06-28T07:29:50.000Z</time>
      </trkpt>
      <trkpt lat="42.77378" lon="1.51078">
        <ele>738</ele>
        <time>2026-06-28T07:29:51.000Z</time>
      </trkpt>
      <trkpt lat="42.77374" lon="1.51078">
        <ele>739</ele>
        <time>2026-06-28T07:29:52.000Z</time>
      </trkpt>
      <trkpt lat="42.7737" lon="1.51077">
        <ele>739</ele>
        <time>2026-06-28T07:29:53.000Z</time>
      </trkpt>
      <trkpt lat="42.77366" lon="1.51076">
        <ele>740</ele>
        <time>2026-06-28T07:29:54.000Z</time>
      </trkpt>
      <trkpt lat="42.77363" lon="1.51074">
        <ele>740</ele>
        <time>2026-06-28T07:29:55.000Z</time>
      </trkpt>
      <trkpt lat="42.7736" lon="1.51073">
        <ele>740</ele>
        <time>2026-06-28T07:29:56.000Z</time>
      </trkpt>
      <trkpt lat="42.77356" lon="1.51072">
        <ele>740</ele>
        <time>2026-06-28T07:29:57.000Z</time>
      </trkpt>
      <trkpt lat="42.77353" lon="1.5107">
        <ele>740</ele>
        <time>2026-06-28T07:29:58.000Z</time>
      </trkpt>
      <trkpt lat="42.77351" lon="1.51068">
        <ele>741</ele>
        <time>2026-06-28T07:29:59.000Z</time>
      </trkpt>
      <trkpt lat="42.77348" lon="1.51066">
        <ele>741</ele>
        <time>2026-06-28T07:30:00.000Z</time>
      </trkpt>
      <trkpt lat="42.77345" lon="1.51064">
        <ele>741</ele>
        <time>2026-06-28T07:30:01.000Z</time>
      </trkpt>
      <trkpt lat="42.77343" lon="1.51063">
        <ele>741</ele>
        <time>2026-06-28T07:30:02.000Z</time>
      </trkpt>
      <trkpt lat="42.7734" lon="1.51061">
        <ele>741</ele>
        <time>2026-06-28T07:30:03.000Z</time>
      </trkpt>
      <trkpt lat="42.77337" lon="1.51058">
        <ele>741</ele>
        <time>2026-06-28T07:30:04.000Z</time>
      </trkpt>
      <trkpt lat="42.77335" lon="1.51056">
        <ele>741</ele>
        <time>2026-06-28T07:30:05.000Z</time>
      </trkpt>
      <trkpt lat="42.77332" lon="1.51053">
        <ele>741</ele>
        <time>2026-06-28T07:30:06.000Z</time>
      </trkpt>
      <trkpt lat="42.77329" lon="1.51051">
        <ele>741</ele>
        <time>2026-06-28T07:30:07.000Z</time>
      </trkpt>
      <trkpt lat="42.77327" lon="1.51047">
        <ele>741</ele>
        <time>2026-06-28T07:30:08.000Z</time>
      </trkpt>
      <trkpt lat="42.77324" lon="1.51045">
        <ele>741</ele>
        <time>2026-06-28T07:30:09.000Z</time>
      </trkpt>
      <trkpt lat="42.77322" lon="1.51043">
        <ele>742</ele>
        <time>2026-06-28T07:30:10.000Z</time>
      </trkpt>
      <trkpt lat="42.77319" lon="1.5104">
        <ele>742</ele>
        <time>2026-06-28T07:30:11.000Z</time>
      </trkpt>
      <trkpt lat="42.77318" lon="1.51038">
        <ele>742</ele>
        <time>2026-06-28T07:30:12.000Z</time>
      </trkpt>
      <trkpt lat="42.77316" lon="1.51035">
        <ele>742</ele>
        <time>2026-06-28T07:30:13.000Z</time>
      </trkpt>
      <trkpt lat="42.77314" lon="1.51032">
        <ele>742</ele>
        <time>2026-06-28T07:30:14.000Z</time>
      </trkpt>
      <trkpt lat="42.77312" lon="1.5103">
        <ele>742</ele>
        <time>2026-06-28T07:30:15.000Z</time>
      </trkpt>
      <trkpt lat="42.77309" lon="1.51027">
        <ele>742</ele>
        <time>2026-06-28T07:30:16.000Z</time>
      </trkpt>
      <trkpt lat="42.77307" lon="1.51024">
        <ele>741</ele>
        <time>2026-06-28T07:30:17.000Z</time>
      </trkpt>
      <trkpt lat="42.77305" lon="1.51021">
        <ele>740</ele>
        <time>2026-06-28T07:30:18.000Z</time>
      </trkpt>
      <trkpt lat="42.77303" lon="1.51019">
        <ele>741</ele>
        <time>2026-06-28T07:30:19.000Z</time>
      </trkpt>
      <trkpt lat="42.77301" lon="1.51016">
        <ele>741</ele>
        <time>2026-06-28T07:30:20.000Z</time>
      </trkpt>
      <trkpt lat="42.77299" lon="1.51013">
        <ele>742</ele>
        <time>2026-06-28T07:30:21.000Z</time>
      </trkpt>
      <trkpt lat="42.77297" lon="1.5101">
        <ele>742</ele>
        <time>2026-06-28T07:30:22.000Z</time>
      </trkpt>
      <trkpt lat="42.77295" lon="1.51006">
        <ele>742</ele>
        <time>2026-06-28T07:30:23.000Z</time>
      </trkpt>
      <trkpt lat="42.77293" lon="1.51003">
        <ele>742</ele>
        <time>2026-06-28T07:30:24.000Z</time>
      </trkpt>
      <trkpt lat="42.7729" lon="1.51">
        <ele>742</ele>
        <time>2026-06-28T07:30:25.000Z</time>
      </trkpt>
      <trkpt lat="42.77289" lon="1.50997">
        <ele>743</ele>
        <time>2026-06-28T07:30:26.000Z</time>
      </trkpt>
      <trkpt lat="42.77288" lon="1.50993">
        <ele>743</ele>
        <time>2026-06-28T07:30:27.000Z</time>
      </trkpt>
      <trkpt lat="42.77287" lon="1.50989">
        <ele>743</ele>
        <time>2026-06-28T07:30:28.000Z</time>
      </trkpt>
      <trkpt lat="42.77286" lon="1.50985">
        <ele>744</ele>
        <time>2026-06-28T07:30:29.000Z</time>
      </trkpt>
      <trkpt lat="42.77286" lon="1.50982">
        <ele>744</ele>
        <time>2026-06-28T07:30:30.000Z</time>
      </trkpt>
      <trkpt lat="42.77285" lon="1.50978">
        <ele>744</ele>
        <time>2026-06-28T07:30:31.000Z</time>
      </trkpt>
      <trkpt lat="42.77284" lon="1.50974">
        <ele>744</ele>
        <time>2026-06-28T07:30:32.000Z</time>
      </trkpt>
      <trkpt lat="42.77284" lon="1.5097">
        <ele>744</ele>
        <time>2026-06-28T07:30:33.000Z</time>
      </trkpt>
      <trkpt lat="42.77284" lon="1.50966">
        <ele>744</ele>
        <time>2026-06-28T07:30:34.000Z</time>
      </trkpt>
      <trkpt lat="42.77283" lon="1.50962">
        <ele>744</ele>
        <time>2026-06-28T07:30:35.000Z</time>
      </trkpt>
      <trkpt lat="42.77282" lon="1.50958">
        <ele>744</ele>
        <time>2026-06-28T07:30:36.000Z</time>
      </trkpt>
      <trkpt lat="42.77281" lon="1.50955">
        <ele>744</ele>
        <time>2026-06-28T07:30:37.000Z</time>
      </trkpt>
      <trkpt lat="42.77281" lon="1.50951">
        <ele>744</ele>
        <time>2026-06-28T07:30:38.000Z</time>
      </trkpt>
      <trkpt lat="42.7728" lon="1.50947">
        <ele>744</ele>
        <time>2026-06-28T07:30:39.000Z</time>
      </trkpt>
      <trkpt lat="42.77279" lon="1.50943">
        <ele>745</ele>
        <time>2026-06-28T07:30:40.000Z</time>
      </trkpt>
      <trkpt lat="42.77278" lon="1.50939">
        <ele>744</ele>
        <time>2026-06-28T07:30:41.000Z</time>
      </trkpt>
      <trkpt lat="42.77277" lon="1.50935">
        <ele>745</ele>
        <time>2026-06-28T07:30:42.000Z</time>
      </trkpt>
      <trkpt lat="42.77276" lon="1.50932">
        <ele>745</ele>
        <time>2026-06-28T07:30:43.000Z</time>
      </trkpt>
      <trkpt lat="42.77275" lon="1.50928">
        <ele>745</ele>
        <time>2026-06-28T07:30:44.000Z</time>
      </trkpt>
      <trkpt lat="42.77274" lon="1.50924">
        <ele>745</ele>
        <time>2026-06-28T07:30:45.000Z</time>
      </trkpt>
      <trkpt lat="42.77273" lon="1.5092">
        <ele>745</ele>
        <time>2026-06-28T07:30:46.000Z</time>
      </trkpt>
      <trkpt lat="42.77271" lon="1.50916">
        <ele>745</ele>
        <time>2026-06-28T07:30:47.000Z</time>
      </trkpt>
      <trkpt lat="42.7727" lon="1.50913">
        <ele>745</ele>
        <time>2026-06-28T07:30:48.000Z</time>
      </trkpt>
      <trkpt lat="42.77268" lon="1.50908">
        <ele>745</ele>
        <time>2026-06-28T07:30:49.000Z</time>
      </trkpt>
      <trkpt lat="42.77266" lon="1.50904">
        <ele>745</ele>
        <time>2026-06-28T07:30:50.000Z</time>
      </trkpt>
      <trkpt lat="42.77265" lon="1.509">
        <ele>745</ele>
        <time>2026-06-28T07:30:51.000Z</time>
      </trkpt>
      <trkpt lat="42.77263" lon="1.50894">
        <ele>745</ele>
        <time>2026-06-28T07:30:52.000Z</time>
      </trkpt>
      <trkpt lat="42.77261" lon="1.5089">
        <ele>745</ele>
        <time>2026-06-28T07:30:53.000Z</time>
      </trkpt>
      <trkpt lat="42.77259" lon="1.50885">
        <ele>744</ele>
        <time>2026-06-28T07:30:54.000Z</time>
      </trkpt>
      <trkpt lat="42.77257" lon="1.5088">
        <ele>744</ele>
        <time>2026-06-28T07:30:55.000Z</time>
      </trkpt>
      <trkpt lat="42.77255" lon="1.50875">
        <ele>744</ele>
        <time>2026-06-28T07:30:56.000Z</time>
      </trkpt>
      <trkpt lat="42.77254" lon="1.50871">
        <ele>744</ele>
        <time>2026-06-28T07:30:57.000Z</time>
      </trkpt>
      <trkpt lat="42.77252" lon="1.50867">
        <ele>744</ele>
        <time>2026-06-28T07:30:58.000Z</time>
      </trkpt>
      <trkpt lat="42.7725" lon="1.50863">
        <ele>745</ele>
        <time>2026-06-28T07:30:59.000Z</time>
      </trkpt>
      <trkpt lat="42.77248" lon="1.50859">
        <ele>744</ele>
        <time>2026-06-28T07:31:00.000Z</time>
      </trkpt>
      <trkpt lat="42.77246" lon="1.50855">
        <ele>744</ele>
        <time>2026-06-28T07:31:01.000Z</time>
      </trkpt>
      <trkpt lat="42.77245" lon="1.5085">
        <ele>744</ele>
        <time>2026-06-28T07:31:02.000Z</time>
      </trkpt>
      <trkpt lat="42.77243" lon="1.50846">
        <ele>744</ele>
        <time>2026-06-28T07:31:03.000Z</time>
      </trkpt>
      <trkpt lat="42.77241" lon="1.50841">
        <ele>744</ele>
        <time>2026-06-28T07:31:04.000Z</time>
      </trkpt>
      <trkpt lat="42.77239" lon="1.50836">
        <ele>744</ele>
        <time>2026-06-28T07:31:05.000Z</time>
      </trkpt>
      <trkpt lat="42.77237" lon="1.50832">
        <ele>744</ele>
        <time>2026-06-28T07:31:06.000Z</time>
      </trkpt>
      <trkpt lat="42.77235" lon="1.50827">
        <ele>744</ele>
        <time>2026-06-28T07:31:07.000Z</time>
      </trkpt>
      <trkpt lat="42.77234" lon="1.50822">
        <ele>745</ele>
        <time>2026-06-28T07:31:08.000Z</time>
      </trkpt>
      <trkpt lat="42.77233" lon="1.50817">
        <ele>744</ele>
        <time>2026-06-28T07:31:09.000Z</time>
      </trkpt>
      <trkpt lat="42.77231" lon="1.50812">
        <ele>744</ele>
        <time>2026-06-28T07:31:10.000Z</time>
      </trkpt>
      <trkpt lat="42.7723" lon="1.50807">
        <ele>744</ele>
        <time>2026-06-28T07:31:11.000Z</time>
      </trkpt>
      <trkpt lat="42.77228" lon="1.50802">
        <ele>744</ele>
        <time>2026-06-28T07:31:12.000Z</time>
      </trkpt>
      <trkpt lat="42.77227" lon="1.50798">
        <ele>745</ele>
        <time>2026-06-28T07:31:13.000Z</time>
      </trkpt>
      <trkpt lat="42.77226" lon="1.50793">
        <ele>745</ele>
        <time>2026-06-28T07:31:14.000Z</time>
      </trkpt>
      <trkpt lat="42.77224" lon="1.50787">
        <ele>746</ele>
        <time>2026-06-28T07:31:15.000Z</time>
      </trkpt>
      <trkpt lat="42.77223" lon="1.50782">
        <ele>746</ele>
        <time>2026-06-28T07:31:16.000Z</time>
      </trkpt>
      <trkpt lat="42.77222" lon="1.50777">
        <ele>746</ele>
        <time>2026-06-28T07:31:17.000Z</time>
      </trkpt>
      <trkpt lat="42.77221" lon="1.50772">
        <ele>746</ele>
        <time>2026-06-28T07:31:18.000Z</time>
      </trkpt>
      <trkpt lat="42.77219" lon="1.50767">
        <ele>746</ele>
        <time>2026-06-28T07:31:19.000Z</time>
      </trkpt>
      <trkpt lat="42.77218" lon="1.50763">
        <ele>746</ele>
        <time>2026-06-28T07:31:20.000Z</time>
      </trkpt>
      <trkpt lat="42.77217" lon="1.50758">
        <ele>746</ele>
        <time>2026-06-28T07:31:21.000Z</time>
      </trkpt>
      <trkpt lat="42.77215" lon="1.50753">
        <ele>746</ele>
        <time>2026-06-28T07:31:22.000Z</time>
      </trkpt>
      <trkpt lat="42.77214" lon="1.50749">
        <ele>746</ele>
        <time>2026-06-28T07:31:23.000Z</time>
      </trkpt>
      <trkpt lat="42.77213" lon="1.50744">
        <ele>746</ele>
        <time>2026-06-28T07:31:24.000Z</time>
      </trkpt>
      <trkpt lat="42.77211" lon="1.50739">
        <ele>746</ele>
        <time>2026-06-28T07:31:25.000Z</time>
      </trkpt>
      <trkpt lat="42.7721" lon="1.50734">
        <ele>746</ele>
        <time>2026-06-28T07:31:26.000Z</time>
      </trkpt>
      <trkpt lat="42.77208" lon="1.5073">
        <ele>746</ele>
        <time>2026-06-28T07:31:27.000Z</time>
      </trkpt>
      <trkpt lat="42.77206" lon="1.50726">
        <ele>746</ele>
        <time>2026-06-28T07:31:28.000Z</time>
      </trkpt>
      <trkpt lat="42.77205" lon="1.50722">
        <ele>747</ele>
        <time>2026-06-28T07:31:29.000Z</time>
      </trkpt>
      <trkpt lat="42.77203" lon="1.50717">
        <ele>747</ele>
        <time>2026-06-28T07:31:30.000Z</time>
      </trkpt>
      <trkpt lat="42.77202" lon="1.50712">
        <ele>747</ele>
        <time>2026-06-28T07:31:31.000Z</time>
      </trkpt>
      <trkpt lat="42.77201" lon="1.50708">
        <ele>747</ele>
        <time>2026-06-28T07:31:32.000Z</time>
      </trkpt>
      <trkpt lat="42.77199" lon="1.50703">
        <ele>747</ele>
        <time>2026-06-28T07:31:33.000Z</time>
      </trkpt>
      <trkpt lat="42.77198" lon="1.50699">
        <ele>747</ele>
        <time>2026-06-28T07:31:34.000Z</time>
      </trkpt>
      <trkpt lat="42.77196" lon="1.50694">
        <ele>747</ele>
        <time>2026-06-28T07:31:35.000Z</time>
      </trkpt>
      <trkpt lat="42.77194" lon="1.5069">
        <ele>747</ele>
        <time>2026-06-28T07:31:36.000Z</time>
      </trkpt>
      <trkpt lat="42.77193" lon="1.50685">
        <ele>747</ele>
        <time>2026-06-28T07:31:37.000Z</time>
      </trkpt>
      <trkpt lat="42.77192" lon="1.50681">
        <ele>747</ele>
        <time>2026-06-28T07:31:38.000Z</time>
      </trkpt>
      <trkpt lat="42.7719" lon="1.50676">
        <ele>748</ele>
        <time>2026-06-28T07:31:39.000Z</time>
      </trkpt>
      <trkpt lat="42.77188" lon="1.50671">
        <ele>748</ele>
        <time>2026-06-28T07:31:40.000Z</time>
      </trkpt>
      <trkpt lat="42.77187" lon="1.50667">
        <ele>748</ele>
        <time>2026-06-28T07:31:41.000Z</time>
      </trkpt>
      <trkpt lat="42.77185" lon="1.50662">
        <ele>748</ele>
        <time>2026-06-28T07:31:42.000Z</time>
      </trkpt>
      <trkpt lat="42.77184" lon="1.50658">
        <ele>748</ele>
        <time>2026-06-28T07:31:43.000Z</time>
      </trkpt>
      <trkpt lat="42.77182" lon="1.50653">
        <ele>748</ele>
        <time>2026-06-28T07:31:44.000Z</time>
      </trkpt>
      <trkpt lat="42.7718" lon="1.50649">
        <ele>748</ele>
        <time>2026-06-28T07:31:45.000Z</time>
      </trkpt>
      <trkpt lat="42.77178" lon="1.50645">
        <ele>748</ele>
        <time>2026-06-28T07:31:46.000Z</time>
      </trkpt>
      <trkpt lat="42.77177" lon="1.50641">
        <ele>748</ele>
        <time>2026-06-28T07:31:47.000Z</time>
      </trkpt>
      <trkpt lat="42.77175" lon="1.50636">
        <ele>748</ele>
        <time>2026-06-28T07:31:48.000Z</time>
      </trkpt>
      <trkpt lat="42.77174" lon="1.50631">
        <ele>748</ele>
        <time>2026-06-28T07:31:49.000Z</time>
      </trkpt>
      <trkpt lat="42.77172" lon="1.50627">
        <ele>748</ele>
        <time>2026-06-28T07:31:50.000Z</time>
      </trkpt>
      <trkpt lat="42.77171" lon="1.50623">
        <ele>749</ele>
        <time>2026-06-28T07:31:51.000Z</time>
      </trkpt>
      <trkpt lat="42.77169" lon="1.50618">
        <ele>749</ele>
        <time>2026-06-28T07:31:52.000Z</time>
      </trkpt>
      <trkpt lat="42.77168" lon="1.50614">
        <ele>749</ele>
        <time>2026-06-28T07:31:53.000Z</time>
      </trkpt>
      <trkpt lat="42.77167" lon="1.5061">
        <ele>749</ele>
        <time>2026-06-28T07:31:54.000Z</time>
      </trkpt>
      <trkpt lat="42.77165" lon="1.50606">
        <ele>749</ele>
        <time>2026-06-28T07:31:55.000Z</time>
      </trkpt>
      <trkpt lat="42.77163" lon="1.50601">
        <ele>749</ele>
        <time>2026-06-28T07:31:56.000Z</time>
      </trkpt>
      <trkpt lat="42.77161" lon="1.50597">
        <ele>749</ele>
        <time>2026-06-28T07:31:57.000Z</time>
      </trkpt>
      <trkpt lat="42.77159" lon="1.50593">
        <ele>749</ele>
        <time>2026-06-28T07:31:58.000Z</time>
      </trkpt>
      <trkpt lat="42.77157" lon="1.50589">
        <ele>750</ele>
        <time>2026-06-28T07:31:59.000Z</time>
      </trkpt>
      <trkpt lat="42.77155" lon="1.50583">
        <ele>750</ele>
        <time>2026-06-28T07:32:00.000Z</time>
      </trkpt>
      <trkpt lat="42.77154" lon="1.50579">
        <ele>750</ele>
        <time>2026-06-28T07:32:01.000Z</time>
      </trkpt>
      <trkpt lat="42.77152" lon="1.50575">
        <ele>750</ele>
        <time>2026-06-28T07:32:02.000Z</time>
      </trkpt>
      <trkpt lat="42.77151" lon="1.50571">
        <ele>750</ele>
        <time>2026-06-28T07:32:03.000Z</time>
      </trkpt>
      <trkpt lat="42.77149" lon="1.50567">
        <ele>750</ele>
        <time>2026-06-28T07:32:04.000Z</time>
      </trkpt>
      <trkpt lat="42.77148" lon="1.50563">
        <ele>750</ele>
        <time>2026-06-28T07:32:05.000Z</time>
      </trkpt>
      <trkpt lat="42.77146" lon="1.5056">
        <ele>750</ele>
        <time>2026-06-28T07:32:06.000Z</time>
      </trkpt>
      <trkpt lat="42.77144" lon="1.50556">
        <ele>749</ele>
        <time>2026-06-28T07:32:07.000Z</time>
      </trkpt>
      <trkpt lat="42.77142" lon="1.50553">
        <ele>749</ele>
        <time>2026-06-28T07:32:08.000Z</time>
      </trkpt>
      <trkpt lat="42.7714" lon="1.5055">
        <ele>749</ele>
        <time>2026-06-28T07:32:09.000Z</time>
      </trkpt>
      <trkpt lat="42.77138" lon="1.50546">
        <ele>749</ele>
        <time>2026-06-28T07:32:10.000Z</time>
      </trkpt>
      <trkpt lat="42.77136" lon="1.50542">
        <ele>749</ele>
        <time>2026-06-28T07:32:11.000Z</time>
      </trkpt>
      <trkpt lat="42.77134" lon="1.50539">
        <ele>749</ele>
        <time>2026-06-28T07:32:12.000Z</time>
      </trkpt>
      <trkpt lat="42.77132" lon="1.50537">
        <ele>749</ele>
        <time>2026-06-28T07:32:13.000Z</time>
      </trkpt>
      <trkpt lat="42.7713" lon="1.50534">
        <ele>750</ele>
        <time>2026-06-28T07:32:14.000Z</time>
      </trkpt>
      <trkpt lat="42.77127" lon="1.5053">
        <ele>750</ele>
        <time>2026-06-28T07:32:15.000Z</time>
      </trkpt>
      <trkpt lat="42.77125" lon="1.50526">
        <ele>750</ele>
        <time>2026-06-28T07:32:16.000Z</time>
      </trkpt>
      <trkpt lat="42.77122" lon="1.50523">
        <ele>750</ele>
        <time>2026-06-28T07:32:17.000Z</time>
      </trkpt>
      <trkpt lat="42.77119" lon="1.50521">
        <ele>750</ele>
        <time>2026-06-28T07:32:18.000Z</time>
      </trkpt>
      <trkpt lat="42.77116" lon="1.50517">
        <ele>750</ele>
        <time>2026-06-28T07:32:19.000Z</time>
      </trkpt>
      <trkpt lat="42.77113" lon="1.50514">
        <ele>750</ele>
        <time>2026-06-28T07:32:20.000Z</time>
      </trkpt>
      <trkpt lat="42.7711" lon="1.50511">
        <ele>750</ele>
        <time>2026-06-28T07:32:21.000Z</time>
      </trkpt>
      <trkpt lat="42.77107" lon="1.50508">
        <ele>750</ele>
        <time>2026-06-28T07:32:22.000Z</time>
      </trkpt>
      <trkpt lat="42.77104" lon="1.50505">
        <ele>750</ele>
        <time>2026-06-28T07:32:23.000Z</time>
      </trkpt>
      <trkpt lat="42.77101" lon="1.50503">
        <ele>749</ele>
        <time>2026-06-28T07:32:24.000Z</time>
      </trkpt>
      <trkpt lat="42.77098" lon="1.505">
        <ele>749</ele>
        <time>2026-06-28T07:32:25.000Z</time>
      </trkpt>
      <trkpt lat="42.77095" lon="1.50497">
        <ele>749</ele>
        <time>2026-06-28T07:32:26.000Z</time>
      </trkpt>
      <trkpt lat="42.77093" lon="1.50495">
        <ele>749</ele>
        <time>2026-06-28T07:32:27.000Z</time>
      </trkpt>
      <trkpt lat="42.7709" lon="1.50491">
        <ele>748</ele>
        <time>2026-06-28T07:32:28.000Z</time>
      </trkpt>
      <trkpt lat="42.77088" lon="1.50488">
        <ele>748</ele>
        <time>2026-06-28T07:32:29.000Z</time>
      </trkpt>
      <trkpt lat="42.77085" lon="1.50485">
        <ele>748</ele>
        <time>2026-06-28T07:32:30.000Z</time>
      </trkpt>
      <trkpt lat="42.77083" lon="1.50482">
        <ele>748</ele>
        <time>2026-06-28T07:32:31.000Z</time>
      </trkpt>
      <trkpt lat="42.7708" lon="1.50479">
        <ele>747</ele>
        <time>2026-06-28T07:32:32.000Z</time>
      </trkpt>
      <trkpt lat="42.77077" lon="1.50475">
        <ele>747</ele>
        <time>2026-06-28T07:32:33.000Z</time>
      </trkpt>
      <trkpt lat="42.77074" lon="1.50472">
        <ele>746</ele>
        <time>2026-06-28T07:32:34.000Z</time>
      </trkpt>
      <trkpt lat="42.77071" lon="1.50469">
        <ele>746</ele>
        <time>2026-06-28T07:32:35.000Z</time>
      </trkpt>
      <trkpt lat="42.77069" lon="1.50466">
        <ele>747</ele>
        <time>2026-06-28T07:32:36.000Z</time>
      </trkpt>
      <trkpt lat="42.77067" lon="1.50463">
        <ele>747</ele>
        <time>2026-06-28T07:32:37.000Z</time>
      </trkpt>
      <trkpt lat="42.77064" lon="1.5046">
        <ele>747</ele>
        <time>2026-06-28T07:32:38.000Z</time>
      </trkpt>
      <trkpt lat="42.77061" lon="1.50457">
        <ele>747</ele>
        <time>2026-06-28T07:32:39.000Z</time>
      </trkpt>
      <trkpt lat="42.77058" lon="1.50454">
        <ele>747</ele>
        <time>2026-06-28T07:32:40.000Z</time>
      </trkpt>
      <trkpt lat="42.77056" lon="1.50451">
        <ele>748</ele>
        <time>2026-06-28T07:32:41.000Z</time>
      </trkpt>
      <trkpt lat="42.77053" lon="1.50448">
        <ele>748</ele>
        <time>2026-06-28T07:32:42.000Z</time>
      </trkpt>
      <trkpt lat="42.7705" lon="1.50445">
        <ele>748</ele>
        <time>2026-06-28T07:32:43.000Z</time>
      </trkpt>
      <trkpt lat="42.77047" lon="1.50443">
        <ele>748</ele>
        <time>2026-06-28T07:32:44.000Z</time>
      </trkpt>
      <trkpt lat="42.77044" lon="1.5044">
        <ele>748</ele>
        <time>2026-06-28T07:32:45.000Z</time>
      </trkpt>
      <trkpt lat="42.77042" lon="1.50437">
        <ele>748</ele>
        <time>2026-06-28T07:32:46.000Z</time>
      </trkpt>
      <trkpt lat="42.77039" lon="1.50434">
        <ele>748</ele>
        <time>2026-06-28T07:32:47.000Z</time>
      </trkpt>
      <trkpt lat="42.77036" lon="1.50431">
        <ele>749</ele>
        <time>2026-06-28T07:32:48.000Z</time>
      </trkpt>
      <trkpt lat="42.77033" lon="1.50428">
        <ele>748</ele>
        <time>2026-06-28T07:32:49.000Z</time>
      </trkpt>
      <trkpt lat="42.7703" lon="1.50426">
        <ele>748</ele>
        <time>2026-06-28T07:32:50.000Z</time>
      </trkpt>
      <trkpt lat="42.77026" lon="1.50423">
        <ele>748</ele>
        <time>2026-06-28T07:32:51.000Z</time>
      </trkpt>
      <trkpt lat="42.77023" lon="1.5042">
        <ele>747</ele>
        <time>2026-06-28T07:32:52.000Z</time>
      </trkpt>
      <trkpt lat="42.77019" lon="1.50417">
        <ele>748</ele>
        <time>2026-06-28T07:32:53.000Z</time>
      </trkpt>
      <trkpt lat="42.77016" lon="1.50413">
        <ele>747</ele>
        <time>2026-06-28T07:32:54.000Z</time>
      </trkpt>
      <trkpt lat="42.77013" lon="1.5041">
        <ele>748</ele>
        <time>2026-06-28T07:32:55.000Z</time>
      </trkpt>
      <trkpt lat="42.77011" lon="1.50408">
        <ele>748</ele>
        <time>2026-06-28T07:32:56.000Z</time>
      </trkpt>
      <trkpt lat="42.77008" lon="1.50405">
        <ele>748</ele>
        <time>2026-06-28T07:32:57.000Z</time>
      </trkpt>
      <trkpt lat="42.77005" lon="1.50402">
        <ele>748</ele>
        <time>2026-06-28T07:32:58.000Z</time>
      </trkpt>
      <trkpt lat="42.77002" lon="1.50398">
        <ele>748</ele>
        <time>2026-06-28T07:32:59.000Z</time>
      </trkpt>
      <trkpt lat="42.76999" lon="1.50395">
        <ele>748</ele>
        <time>2026-06-28T07:33:00.000Z</time>
      </trkpt>
      <trkpt lat="42.76997" lon="1.50391">
        <ele>748</ele>
        <time>2026-06-28T07:33:01.000Z</time>
      </trkpt>
      <trkpt lat="42.76994" lon="1.50388">
        <ele>748</ele>
        <time>2026-06-28T07:33:02.000Z</time>
      </trkpt>
      <trkpt lat="42.76992" lon="1.50385">
        <ele>748</ele>
        <time>2026-06-28T07:33:03.000Z</time>
      </trkpt>
      <trkpt lat="42.76989" lon="1.50382">
        <ele>748</ele>
        <time>2026-06-28T07:33:04.000Z</time>
      </trkpt>
      <trkpt lat="42.76986" lon="1.50379">
        <ele>748</ele>
        <time>2026-06-28T07:33:05.000Z</time>
      </trkpt>
      <trkpt lat="42.76983" lon="1.50378">
        <ele>748</ele>
        <time>2026-06-28T07:33:06.000Z</time>
      </trkpt>
      <trkpt lat="42.76983" lon="1.50377">
        <ele>748</ele>
        <time>2026-06-28T07:33:07.000Z</time>
      </trkpt>
      <trkpt lat="42.76982" lon="1.50375">
        <ele>748</ele>
        <time>2026-06-28T07:33:08.000Z</time>
      </trkpt>
      <trkpt lat="42.76981" lon="1.50371">
        <ele>748</ele>
        <time>2026-06-28T07:33:09.000Z</time>
      </trkpt>
      <trkpt lat="42.76979" lon="1.50367">
        <ele>749</ele>
        <time>2026-06-28T07:33:10.000Z</time>
      </trkpt>
      <trkpt lat="42.76976" lon="1.50364">
        <ele>749</ele>
        <time>2026-06-28T07:33:11.000Z</time>
      </trkpt>
      <trkpt lat="42.76973" lon="1.50361">
        <ele>749</ele>
        <time>2026-06-28T07:33:12.000Z</time>
      </trkpt>
      <trkpt lat="42.7697" lon="1.50358">
        <ele>749</ele>
        <time>2026-06-28T07:33:13.000Z</time>
      </trkpt>
      <trkpt lat="42.76969" lon="1.50355">
        <ele>750</ele>
        <time>2026-06-28T07:33:14.000Z</time>
      </trkpt>
      <trkpt lat="42.76967" lon="1.50351">
        <ele>750</ele>
        <time>2026-06-28T07:33:15.000Z</time>
      </trkpt>
      <trkpt lat="42.76964" lon="1.50349">
        <ele>750</ele>
        <time>2026-06-28T07:33:16.000Z</time>
      </trkpt>
      <trkpt lat="42.76961" lon="1.50346">
        <ele>750</ele>
        <time>2026-06-28T07:33:17.000Z</time>
      </trkpt>
      <trkpt lat="42.76958" lon="1.50344">
        <ele>750</ele>
        <time>2026-06-28T07:33:18.000Z</time>
      </trkpt>
      <trkpt lat="42.76956" lon="1.50341">
        <ele>750</ele>
        <time>2026-06-28T07:33:19.000Z</time>
      </trkpt>
      <trkpt lat="42.76953" lon="1.50338">
        <ele>749</ele>
        <time>2026-06-28T07:33:20.000Z</time>
      </trkpt>
      <trkpt lat="42.7695" lon="1.50335">
        <ele>750</ele>
        <time>2026-06-28T07:33:21.000Z</time>
      </trkpt>
      <trkpt lat="42.76947" lon="1.50331">
        <ele>749</ele>
        <time>2026-06-28T07:33:22.000Z</time>
      </trkpt>
      <trkpt lat="42.76945" lon="1.50327">
        <ele>749</ele>
        <time>2026-06-28T07:33:23.000Z</time>
      </trkpt>
      <trkpt lat="42.76943" lon="1.50323">
        <ele>749</ele>
        <time>2026-06-28T07:33:24.000Z</time>
      </trkpt>
      <trkpt lat="42.76942" lon="1.50319">
        <ele>749</ele>
        <time>2026-06-28T07:33:25.000Z</time>
      </trkpt>
      <trkpt lat="42.7694" lon="1.50316">
        <ele>750</ele>
        <time>2026-06-28T07:33:26.000Z</time>
      </trkpt>
      <trkpt lat="42.76939" lon="1.50311">
        <ele>750</ele>
        <time>2026-06-28T07:33:27.000Z</time>
      </trkpt>
      <trkpt lat="42.76939" lon="1.50307">
        <ele>751</ele>
        <time>2026-06-28T07:33:28.000Z</time>
      </trkpt>
      <trkpt lat="42.76938" lon="1.50302">
        <ele>751</ele>
        <time>2026-06-28T07:33:29.000Z</time>
      </trkpt>
      <trkpt lat="42.76938" lon="1.50297">
        <ele>751</ele>
        <time>2026-06-28T07:33:30.000Z</time>
      </trkpt>
      <trkpt lat="42.76937" lon="1.50292">
        <ele>751</ele>
        <time>2026-06-28T07:33:31.000Z</time>
      </trkpt>
      <trkpt lat="42.76937" lon="1.50287">
        <ele>751</ele>
        <time>2026-06-28T07:33:32.000Z</time>
      </trkpt>
      <trkpt lat="42.76937" lon="1.50284">
        <ele>751</ele>
        <time>2026-06-28T07:33:33.000Z</time>
      </trkpt>
      <trkpt lat="42.76936" lon="1.50279">
        <ele>752</ele>
        <time>2026-06-28T07:33:34.000Z</time>
      </trkpt>
      <trkpt lat="42.76936" lon="1.50275">
        <ele>752</ele>
        <time>2026-06-28T07:33:35.000Z</time>
      </trkpt>
      <trkpt lat="42.76935" lon="1.50271">
        <ele>752</ele>
        <time>2026-06-28T07:33:36.000Z</time>
      </trkpt>
      <trkpt lat="42.76934" lon="1.50267">
        <ele>752</ele>
        <time>2026-06-28T07:33:37.000Z</time>
      </trkpt>
      <trkpt lat="42.76933" lon="1.50263">
        <ele>752</ele>
        <time>2026-06-28T07:33:38.000Z</time>
      </trkpt>
      <trkpt lat="42.76931" lon="1.50258">
        <ele>752</ele>
        <time>2026-06-28T07:33:39.000Z</time>
      </trkpt>
      <trkpt lat="42.7693" lon="1.50254">
        <ele>752</ele>
        <time>2026-06-28T07:33:40.000Z</time>
      </trkpt>
      <trkpt lat="42.76929" lon="1.50251">
        <ele>753</ele>
        <time>2026-06-28T07:33:41.000Z</time>
      </trkpt>
      <trkpt lat="42.76928" lon="1.50247">
        <ele>753</ele>
        <time>2026-06-28T07:33:42.000Z</time>
      </trkpt>
      <trkpt lat="42.76927" lon="1.50244">
        <ele>753</ele>
        <time>2026-06-28T07:33:43.000Z</time>
      </trkpt>
      <trkpt lat="42.76926" lon="1.50241">
        <ele>753</ele>
        <time>2026-06-28T07:33:44.000Z</time>
      </trkpt>
      <trkpt lat="42.76925" lon="1.50237">
        <ele>753</ele>
        <time>2026-06-28T07:33:45.000Z</time>
      </trkpt>
      <trkpt lat="42.76924" lon="1.50234">
        <ele>753</ele>
        <time>2026-06-28T07:33:46.000Z</time>
      </trkpt>
      <trkpt lat="42.76923" lon="1.5023">
        <ele>753</ele>
        <time>2026-06-28T07:33:47.000Z</time>
      </trkpt>
      <trkpt lat="42.76922" lon="1.50227">
        <ele>754</ele>
        <time>2026-06-28T07:33:48.000Z</time>
      </trkpt>
      <trkpt lat="42.76921" lon="1.50224">
        <ele>754</ele>
        <time>2026-06-28T07:33:49.000Z</time>
      </trkpt>
      <trkpt lat="42.76919" lon="1.50221">
        <ele>754</ele>
        <time>2026-06-28T07:33:50.000Z</time>
      </trkpt>
      <trkpt lat="42.76918" lon="1.50217">
        <ele>754</ele>
        <time>2026-06-28T07:33:51.000Z</time>
      </trkpt>
      <trkpt lat="42.76917" lon="1.50213">
        <ele>753</ele>
        <time>2026-06-28T07:33:52.000Z</time>
      </trkpt>
      <trkpt lat="42.76916" lon="1.5021">
        <ele>753</ele>
        <time>2026-06-28T07:33:53.000Z</time>
      </trkpt>
      <trkpt lat="42.76914" lon="1.50207">
        <ele>753</ele>
        <time>2026-06-28T07:33:54.000Z</time>
      </trkpt>
      <trkpt lat="42.76912" lon="1.50203">
        <ele>753</ele>
        <time>2026-06-28T07:33:55.000Z</time>
      </trkpt>
      <trkpt lat="42.7691" lon="1.502">
        <ele>753</ele>
        <time>2026-06-28T07:33:56.000Z</time>
      </trkpt>
      <trkpt lat="42.76909" lon="1.50197">
        <ele>753</ele>
        <time>2026-06-28T07:33:57.000Z</time>
      </trkpt>
      <trkpt lat="42.76907" lon="1.50194">
        <ele>753</ele>
        <time>2026-06-28T07:33:58.000Z</time>
      </trkpt>
      <trkpt lat="42.76906" lon="1.50191">
        <ele>753</ele>
        <time>2026-06-28T07:33:59.000Z</time>
      </trkpt>
      <trkpt lat="42.76905" lon="1.50187">
        <ele>753</ele>
        <time>2026-06-28T07:34:00.000Z</time>
      </trkpt>
      <trkpt lat="42.76903" lon="1.50184">
        <ele>753</ele>
        <time>2026-06-28T07:34:01.000Z</time>
      </trkpt>
      <trkpt lat="42.76903" lon="1.50179">
        <ele>753</ele>
        <time>2026-06-28T07:34:02.000Z</time>
      </trkpt>
      <trkpt lat="42.76902" lon="1.50177">
        <ele>753</ele>
        <time>2026-06-28T07:34:03.000Z</time>
      </trkpt>
      <trkpt lat="42.76901" lon="1.50173">
        <ele>752</ele>
        <time>2026-06-28T07:34:04.000Z</time>
      </trkpt>
      <trkpt lat="42.769" lon="1.5017">
        <ele>752</ele>
        <time>2026-06-28T07:34:05.000Z</time>
      </trkpt>
      <trkpt lat="42.769" lon="1.50167">
        <ele>753</ele>
        <time>2026-06-28T07:34:06.000Z</time>
      </trkpt>
      <trkpt lat="42.76899" lon="1.50164">
        <ele>752</ele>
        <time>2026-06-28T07:34:07.000Z</time>
      </trkpt>
      <trkpt lat="42.76898" lon="1.50161">
        <ele>753</ele>
        <time>2026-06-28T07:34:08.000Z</time>
      </trkpt>
      <trkpt lat="42.76897" lon="1.50159">
        <ele>753</ele>
        <time>2026-06-28T07:34:09.000Z</time>
      </trkpt>
      <trkpt lat="42.76896" lon="1.50156">
        <ele>753</ele>
        <time>2026-06-28T07:34:10.000Z</time>
      </trkpt>
      <trkpt lat="42.76895" lon="1.50154">
        <ele>753</ele>
        <time>2026-06-28T07:34:11.000Z</time>
      </trkpt>
      <trkpt lat="42.76895" lon="1.50152">
        <ele>753</ele>
        <time>2026-06-28T07:34:12.000Z</time>
      </trkpt>
      <trkpt lat="42.76894" lon="1.5015">
        <ele>753</ele>
        <time>2026-06-28T07:34:13.000Z</time>
      </trkpt>
      <trkpt lat="42.76894" lon="1.50148">
        <ele>753</ele>
        <time>2026-06-28T07:34:14.000Z</time>
      </trkpt>
      <trkpt lat="42.76894" lon="1.50146">
        <ele>753</ele>
        <time>2026-06-28T07:34:15.000Z</time>
      </trkpt>
      <trkpt lat="42.76894" lon="1.50144">
        <ele>753</ele>
        <time>2026-06-28T07:34:16.000Z</time>
      </trkpt>
      <trkpt lat="42.76893" lon="1.50143">
        <ele>753</ele>
        <time>2026-06-28T07:34:17.000Z</time>
      </trkpt>
      <trkpt lat="42.76892" lon="1.50143">
        <ele>753</ele>
        <time>2026-06-28T07:34:18.000Z</time>
      </trkpt>
      <trkpt lat="42.76891" lon="1.50142">
        <ele>753</ele>
        <time>2026-06-28T07:34:19.000Z</time>
      </trkpt>
      <trkpt lat="42.76891" lon="1.50142">
        <ele>754</ele>
        <time>2026-06-28T07:34:20.000Z</time>
      </trkpt>
      <trkpt lat="42.76891" lon="1.50141">
        <ele>753</ele>
        <time>2026-06-28T07:34:21.000Z</time>
      </trkpt>
      <trkpt lat="42.7689" lon="1.50139">
        <ele>753</ele>
        <time>2026-06-28T07:34:22.000Z</time>
      </trkpt>
      <trkpt lat="42.7689" lon="1.50138">
        <ele>754</ele>
        <time>2026-06-28T07:34:23.000Z</time>
      </trkpt>
      <trkpt lat="42.7689" lon="1.50137">
        <ele>754</ele>
        <time>2026-06-28T07:34:24.000Z</time>
      </trkpt>
      <trkpt lat="42.7689" lon="1.50136">
        <ele>753</ele>
        <time>2026-06-28T07:34:25.000Z</time>
      </trkpt>
      <trkpt lat="42.7689" lon="1.50135">
        <ele>754</ele>
        <time>2026-06-28T07:34:26.000Z</time>
      </trkpt>
      <trkpt lat="42.7689" lon="1.50134">
        <ele>753</ele>
        <time>2026-06-28T07:34:27.000Z</time>
      </trkpt>
      <trkpt lat="42.76889" lon="1.50133">
        <ele>753</ele>
        <time>2026-06-28T07:34:28.000Z</time>
      </trkpt>
      <trkpt lat="42.7689" lon="1.50133">
        <ele>753</ele>
        <time>2026-06-28T07:34:29.000Z</time>
      </trkpt>
      <trkpt lat="42.76889" lon="1.50132">
        <ele>753</ele>
        <time>2026-06-28T07:34:30.000Z</time>
      </trkpt>
      <trkpt lat="42.76889" lon="1.50132">
        <ele>753</ele>
        <time>2026-06-28T07:34:31.000Z</time>
      </trkpt>
      <trkpt lat="42.76888" lon="1.50133">
        <ele>753</ele>
        <time>2026-06-28T07:34:32.000Z</time>
      </trkpt>
      <trkpt lat="42.76887" lon="1.50133">
        <ele>753</ele>
        <time>2026-06-28T07:34:33.000Z</time>
      </trkpt>
      <trkpt lat="42.76887" lon="1.50134">
        <ele>753</ele>
        <time>2026-06-28T07:34:34.000Z</time>
      </trkpt>
      <trkpt lat="42.76886" lon="1.50133">
        <ele>753</ele>
        <time>2026-06-28T07:34:35.000Z</time>
      </trkpt>
      <trkpt lat="42.76885" lon="1.50133">
        <ele>753</ele>
        <time>2026-06-28T07:34:36.000Z</time>
      </trkpt>
      <trkpt lat="42.76884" lon="1.50132">
        <ele>753</ele>
        <time>2026-06-28T07:34:37.000Z</time>
      </trkpt>
      <trkpt lat="42.76884" lon="1.50132">
        <ele>754</ele>
        <time>2026-06-28T07:34:38.000Z</time>
      </trkpt>
      <trkpt lat="42.76883" lon="1.50132">
        <ele>754</ele>
        <time>2026-06-28T07:34:39.000Z</time>
      </trkpt>
      <trkpt lat="42.76882" lon="1.50131">
        <ele>754</ele>
        <time>2026-06-28T07:34:40.000Z</time>
      </trkpt>
      <trkpt lat="42.76881" lon="1.50131">
        <ele>754</ele>
        <time>2026-06-28T07:34:41.000Z</time>
      </trkpt>
      <trkpt lat="42.7688" lon="1.50131">
        <ele>754</ele>
        <time>2026-06-28T07:34:42.000Z</time>
      </trkpt>
      <trkpt lat="42.7688" lon="1.50132">
        <ele>754</ele>
        <time>2026-06-28T07:34:43.000Z</time>
      </trkpt>
      <trkpt lat="42.7688" lon="1.50132">
        <ele>754</ele>
        <time>2026-06-28T07:34:44.000Z</time>
      </trkpt>
      <trkpt lat="42.7688" lon="1.50133">
        <ele>754</ele>
        <time>2026-06-28T07:34:45.000Z</time>
      </trkpt>
      <trkpt lat="42.7688" lon="1.50134">
        <ele>754</ele>
        <time>2026-06-28T07:34:46.000Z</time>
      </trkpt>
      <trkpt lat="42.7688" lon="1.50134">
        <ele>754</ele>
        <time>2026-06-28T07:34:47.000Z</time>
      </trkpt>
      <trkpt lat="42.76879" lon="1.50134">
        <ele>753</ele>
        <time>2026-06-28T07:34:48.000Z</time>
      </trkpt>
      <trkpt lat="42.76879" lon="1.50135">
        <ele>753</ele>
        <time>2026-06-28T07:34:49.000Z</time>
      </trkpt>
      <trkpt lat="42.76879" lon="1.50135">
        <ele>754</ele>
        <time>2026-06-28T07:34:50.000Z</time>
      </trkpt>
      <trkpt lat="42.7688" lon="1.50135">
        <ele>754</ele>
        <time>2026-06-28T07:34:51.000Z</time>
      </trkpt>
      <trkpt lat="42.76881" lon="1.50136">
        <ele>753</ele>
        <time>2026-06-28T07:34:52.000Z</time>
      </trkpt>
      <trkpt lat="42.76881" lon="1.50136">
        <ele>753</ele>
        <time>2026-06-28T07:34:53.000Z</time>
      </trkpt>
      <trkpt lat="42.76881" lon="1.50136">
        <ele>754</ele>
        <time>2026-06-28T07:34:54.000Z</time>
      </trkpt>
      <trkpt lat="42.76881" lon="1.50135">
        <ele>754</ele>
        <time>2026-06-28T07:34:55.000Z</time>
      </trkpt>
      <trkpt lat="42.76881" lon="1.50135">
        <ele>754</ele>
        <time>2026-06-28T07:34:56.000Z</time>
      </trkpt>
      <trkpt lat="42.76882" lon="1.50135">
        <ele>754</ele>
        <time>2026-06-28T07:34:57.000Z</time>
      </trkpt>
      <trkpt lat="42.76882" lon="1.50135">
        <ele>754</ele>
        <time>2026-06-28T07:34:58.000Z</time>
      </trkpt>
      <trkpt lat="42.76883" lon="1.50134">
        <ele>755</ele>
        <time>2026-06-28T07:34:59.000Z</time>
      </trkpt>
      <trkpt lat="42.76883" lon="1.50134">
        <ele>754</ele>
        <time>2026-06-28T07:35:00.000Z</time>
      </trkpt>
      <trkpt lat="42.76883" lon="1.50134">
        <ele>754</ele>
        <time>2026-06-28T07:35:01.000Z</time>
      </trkpt>
      <trkpt lat="42.76882" lon="1.50134">
        <ele>753</ele>
        <time>2026-06-28T07:35:02.000Z</time>
      </trkpt>
      <trkpt lat="42.76881" lon="1.50135">
        <ele>754</ele>
        <time>2026-06-28T07:35:03.000Z</time>
      </trkpt>
      <trkpt lat="42.76881" lon="1.50135">
        <ele>755</ele>
        <time>2026-06-28T07:35:04.000Z</time>
      </trkpt>
      <trkpt lat="42.76881" lon="1.50135">
        <ele>755</ele>
        <time>2026-06-28T07:35:05.000Z</time>
      </trkpt>
      <trkpt lat="42.76882" lon="1.50134">
        <ele>754</ele>
        <time>2026-06-28T07:35:06.000Z</time>
      </trkpt>
      <trkpt lat="42.76883" lon="1.50135">
        <ele>756</ele>
        <time>2026-06-28T07:35:53.000Z</time>
      </trkpt>
      <trkpt lat="42.76883" lon="1.50134">
        <ele>756</ele>
        <time>2026-06-28T07:35:54.000Z</time>
      </trkpt>
      <trkpt lat="42.76883" lon="1.50134">
        <ele>757</ele>
        <time>2026-06-28T07:35:55.000Z</time>
      </trkpt>
      <trkpt lat="42.76883" lon="1.50134">
        <ele>757</ele>
        <time>2026-06-28T07:35:56.000Z</time>
      </trkpt>
      <trkpt lat="42.76883" lon="1.50134">
        <ele>757</ele>
        <time>2026-06-28T07:35:57.000Z</time>
      </trkpt>
      <trkpt lat="42.76883" lon="1.50134">
        <ele>757</ele>
        <time>2026-06-28T07:35:58.000Z</time>
      </trkpt>
      <trkpt lat="42.76884" lon="1.50134">
        <ele>756</ele>
        <time>2026-06-28T07:35:59.000Z</time>
      </trkpt>
      <trkpt lat="42.76884" lon="1.50133">
        <ele>755</ele>
        <time>2026-06-28T07:36:00.000Z</time>
      </trkpt>
      <trkpt lat="42.76885" lon="1.50134">
        <ele>754</ele>
        <time>2026-06-28T07:36:01.000Z</time>
      </trkpt>
      <trkpt lat="42.76885" lon="1.50134">
        <ele>754</ele>
        <time>2026-06-28T07:36:02.000Z</time>
      </trkpt>
      <trkpt lat="42.76885" lon="1.50135">
        <ele>755</ele>
        <time>2026-06-28T07:36:03.000Z</time>
      </trkpt>
      <trkpt lat="42.76886" lon="1.50134">
        <ele>756</ele>
        <time>2026-06-28T07:36:04.000Z</time>
      </trkpt>
      <trkpt lat="42.76886" lon="1.50134">
        <ele>759</ele>
        <time>2026-06-28T07:37:01.000Z</time>
      </trkpt>
      <trkpt lat="42.76886" lon="1.50134">
        <ele>758</ele>
        <time>2026-06-28T07:37:02.000Z</time>
      </trkpt>
      <trkpt lat="42.76886" lon="1.50134">
        <ele>758</ele>
        <time>2026-06-28T07:37:03.000Z</time>
      </trkpt>
      <trkpt lat="42.76886" lon="1.50136">
        <ele>758</ele>
        <time>2026-06-28T07:37:04.000Z</time>
      </trkpt>
      <trkpt lat="42.76885" lon="1.50135">
        <ele>759</ele>
        <time>2026-06-28T07:37:05.000Z</time>
      </trkpt>
      <trkpt lat="42.76885" lon="1.50136">
        <ele>759</ele>
        <time>2026-06-28T07:37:06.000Z</time>
      </trkpt>
      <trkpt lat="42.76885" lon="1.50135">
        <ele>759</ele>
        <time>2026-06-28T07:37:07.000Z</time>
      </trkpt>
      <trkpt lat="42.76885" lon="1.50135">
        <ele>760</ele>
        <time>2026-06-28T07:37:08.000Z</time>
      </trkpt>
      <trkpt lat="42.76884" lon="1.50135">
        <ele>760</ele>
        <time>2026-06-28T07:37:09.000Z</time>
      </trkpt>
      <trkpt lat="42.76883" lon="1.50135">
        <ele>759</ele>
        <time>2026-06-28T07:37:10.000Z</time>
      </trkpt>
      <trkpt lat="42.76883" lon="1.50135">
        <ele>758</ele>
        <time>2026-06-28T07:37:11.000Z</time>
      </trkpt>
      <trkpt lat="42.76883" lon="1.50134">
        <ele>757</ele>
        <time>2026-06-28T07:37:12.000Z</time>
      </trkpt>
      <trkpt lat="42.76882" lon="1.50134">
        <ele>758</ele>
        <time>2026-06-28T07:37:13.000Z</time>
      </trkpt>
      <trkpt lat="42.76886" lon="1.50135">
        <ele>753</ele>
        <time>2026-06-28T07:47:37.000Z</time>
      </trkpt>
      <trkpt lat="42.76885" lon="1.50136">
        <ele>753</ele>
        <time>2026-06-28T07:47:38.000Z</time>
      </trkpt>
      <trkpt lat="42.76885" lon="1.50136">
        <ele>753</ele>
        <time>2026-06-28T07:47:39.000Z</time>
      </trkpt>
      <trkpt lat="42.76885" lon="1.50137">
        <ele>755</ele>
        <time>2026-06-28T07:51:13.000Z</time>
      </trkpt>
      <trkpt lat="42.76886" lon="1.50137">
        <ele>754</ele>
        <time>2026-06-28T07:51:14.000Z</time>
      </trkpt>
      <trkpt lat="42.76885" lon="1.50138">
        <ele>754</ele>
        <time>2026-06-28T07:51:15.000Z</time>
      </trkpt>
      <trkpt lat="42.76886" lon="1.50138">
        <ele>756</ele>
        <time>2026-06-28T07:51:44.000Z</time>
      </trkpt>
      <trkpt lat="42.76886" lon="1.50139">
        <ele>755</ele>
        <time>2026-06-28T07:51:45.000Z</time>
      </trkpt>
      <trkpt lat="42.76885" lon="1.50139">
        <ele>756</ele>
        <time>2026-06-28T07:51:46.000Z</time>
      </trkpt>
      <trkpt lat="42.76885" lon="1.50138">
        <ele>756</ele>
        <time>2026-06-28T07:51:47.000Z</time>
      </trkpt>
      <trkpt lat="42.76886" lon="1.50138">
        <ele>757</ele>
        <time>2026-06-28T07:51:48.000Z</time>
      </trkpt>
      <trkpt lat="42.76886" lon="1.50138">
        <ele>757</ele>
        <time>2026-06-28T07:51:49.000Z</time>
      </trkpt>
      <trkpt lat="42.76886" lon="1.50138">
        <ele>757</ele>
        <time>2026-06-28T07:51:50.000Z</time>
      </trkpt>
      <trkpt lat="42.76886" lon="1.50138">
        <ele>758</ele>
        <time>2026-06-28T07:51:51.000Z</time>
      </trkpt>
      <trkpt lat="42.76887" lon="1.50137">
        <ele>757</ele>
        <time>2026-06-28T07:51:52.000Z</time>
      </trkpt>
      <trkpt lat="42.76887" lon="1.50137">
        <ele>757</ele>
        <time>2026-06-28T07:51:53.000Z</time>
      </trkpt>
      <trkpt lat="42.76885" lon="1.50134">
        <ele>758</ele>
        <time>2026-06-28T07:52:07.000Z</time>
      </trkpt>
      <trkpt lat="42.76886" lon="1.50133">
        <ele>758</ele>
        <time>2026-06-28T07:52:08.000Z</time>
      </trkpt>
      <trkpt lat="42.76886" lon="1.50133">
        <ele>757</ele>
        <time>2026-06-28T07:52:09.000Z</time>
      </trkpt>
      <trkpt lat="42.76886" lon="1.50133">
        <ele>757</ele>
        <time>2026-06-28T07:52:10.000Z</time>
      </trkpt>
      <trkpt lat="42.76886" lon="1.50134">
        <ele>757</ele>
        <time>2026-06-28T07:52:11.000Z</time>
      </trkpt>
      <trkpt lat="42.76885" lon="1.50134">
        <ele>757</ele>
        <time>2026-06-28T07:52:12.000Z</time>
      </trkpt>
      <trkpt lat="42.76885" lon="1.50135">
        <ele>757</ele>
        <time>2026-06-28T07:52:13.000Z</time>
      </trkpt>
      <trkpt lat="42.76885" lon="1.50135">
        <ele>757</ele>
        <time>2026-06-28T07:52:14.000Z</time>
      </trkpt>
      <trkpt lat="42.76885" lon="1.50135">
        <ele>757</ele>
        <time>2026-06-28T07:52:15.000Z</time>
      </trkpt>
      <trkpt lat="42.76884" lon="1.50136">
        <ele>757</ele>
        <time>2026-06-28T07:52:16.000Z</time>
      </trkpt>
      <trkpt lat="42.76884" lon="1.50136">
        <ele>757</ele>
        <time>2026-06-28T07:52:17.000Z</time>
      </trkpt>
      <trkpt lat="42.76884" lon="1.50136">
        <ele>758</ele>
        <time>2026-06-28T07:52:18.000Z</time>
      </trkpt>
      <trkpt lat="42.76884" lon="1.50136">
        <ele>757</ele>
        <time>2026-06-28T07:52:19.000Z</time>
      </trkpt>
      <trkpt lat="42.76884" lon="1.50136">
        <ele>758</ele>
        <time>2026-06-28T07:52:20.000Z</time>
      </trkpt>
      <trkpt lat="42.76884" lon="1.50137">
        <ele>758</ele>
        <time>2026-06-28T07:52:21.000Z</time>
      </trkpt>
      <trkpt lat="42.76884" lon="1.50138">
        <ele>758</ele>
        <time>2026-06-28T07:52:22.000Z</time>
      </trkpt>
      <trkpt lat="42.76884" lon="1.50139">
        <ele>759</ele>
        <time>2026-06-28T07:52:23.000Z</time>
      </trkpt>
      <trkpt lat="42.76884" lon="1.50139">
        <ele>759</ele>
        <time>2026-06-28T07:52:24.000Z</time>
      </trkpt>
      <trkpt lat="42.76884" lon="1.50139">
        <ele>759</ele>
        <time>2026-06-28T07:52:25.000Z</time>
      </trkpt>
      <trkpt lat="42.76885" lon="1.50139">
        <ele>759</ele>
        <time>2026-06-28T07:52:26.000Z</time>
      </trkpt>
      <trkpt lat="42.76885" lon="1.50139">
        <ele>759</ele>
        <time>2026-06-28T07:52:27.000Z</time>
      </trkpt>
      <trkpt lat="42.76886" lon="1.50139">
        <ele>759</ele>
        <time>2026-06-28T07:52:28.000Z</time>
      </trkpt>
      <trkpt lat="42.76886" lon="1.50139">
        <ele>760</ele>
        <time>2026-06-28T07:52:29.000Z</time>
      </trkpt>
      <trkpt lat="42.76886" lon="1.5014">
        <ele>760</ele>
        <time>2026-06-28T07:52:30.000Z</time>
      </trkpt>
      <trkpt lat="42.76886" lon="1.5014">
        <ele>760</ele>
        <time>2026-06-28T07:52:31.000Z</time>
      </trkpt>
      <trkpt lat="42.76886" lon="1.5014">
        <ele>760</ele>
        <time>2026-06-28T07:52:32.000Z</time>
      </trkpt>
      <trkpt lat="42.76887" lon="1.5014">
        <ele>761</ele>
        <time>2026-06-28T07:52:33.000Z</time>
      </trkpt>
      <trkpt lat="42.76887" lon="1.50139">
        <ele>760</ele>
        <time>2026-06-28T07:52:34.000Z</time>
      </trkpt>
      <trkpt lat="42.76886" lon="1.50135">
        <ele>756</ele>
        <time>2026-06-28T07:52:48.000Z</time>
      </trkpt>
      <trkpt lat="42.76886" lon="1.50134">
        <ele>755</ele>
        <time>2026-06-28T07:52:49.000Z</time>
      </trkpt>
      <trkpt lat="42.76886" lon="1.50134">
        <ele>755</ele>
        <time>2026-06-28T07:52:50.000Z</time>
      </trkpt>
      <trkpt lat="42.76886" lon="1.50133">
        <ele>754</ele>
        <time>2026-06-28T07:52:51.000Z</time>
      </trkpt>
      <trkpt lat="42.76886" lon="1.50133">
        <ele>757</ele>
        <time>2026-06-28T07:53:11.000Z</time>
      </trkpt>
      <trkpt lat="42.76886" lon="1.50134">
        <ele>757</ele>
        <time>2026-06-28T07:53:12.000Z</time>
      </trkpt>
      <trkpt lat="42.76886" lon="1.50134">
        <ele>758</ele>
        <time>2026-06-28T07:53:13.000Z</time>
      </trkpt>
      <trkpt lat="42.76883" lon="1.50136">
        <ele>757</ele>
        <time>2026-06-28T07:53:27.000Z</time>
      </trkpt>
      <trkpt lat="42.76883" lon="1.50136">
        <ele>758</ele>
        <time>2026-06-28T07:53:28.000Z</time>
      </trkpt>
      <trkpt lat="42.76883" lon="1.50137">
        <ele>758</ele>
        <time>2026-06-28T07:53:29.000Z</time>
      </trkpt>
      <trkpt lat="42.76883" lon="1.50138">
        <ele>758</ele>
        <time>2026-06-28T07:53:30.000Z</time>
      </trkpt>
      <trkpt lat="42.76883" lon="1.50138">
        <ele>759</ele>
        <time>2026-06-28T07:53:31.000Z</time>
      </trkpt>
      <trkpt lat="42.76883" lon="1.50138">
        <ele>761</ele>
        <time>2026-06-28T07:53:49.000Z</time>
      </trkpt>
      <trkpt lat="42.76883" lon="1.50137">
        <ele>760</ele>
        <time>2026-06-28T07:53:50.000Z</time>
      </trkpt>
      <trkpt lat="42.76883" lon="1.50137">
        <ele>760</ele>
        <time>2026-06-28T07:53:51.000Z</time>
      </trkpt>
      <trkpt lat="42.76883" lon="1.50137">
        <ele>761</ele>
        <time>2026-06-28T07:53:52.000Z</time>
      </trkpt>
      <trkpt lat="42.76883" lon="1.50136">
        <ele>760</ele>
        <time>2026-06-28T07:53:53.000Z</time>
      </trkpt>
      <trkpt lat="42.76884" lon="1.50135">
        <ele>759</ele>
        <time>2026-06-28T07:53:54.000Z</time>
      </trkpt>
      <trkpt lat="42.76885" lon="1.50136">
        <ele>759</ele>
        <time>2026-06-28T07:53:55.000Z</time>
      </trkpt>
      <trkpt lat="42.76886" lon="1.50136">
        <ele>758</ele>
        <time>2026-06-28T07:53:56.000Z</time>
      </trkpt>
      <trkpt lat="42.76887" lon="1.50136">
        <ele>757</ele>
        <time>2026-06-28T07:53:57.000Z</time>
      </trkpt>
      <trkpt lat="42.76888" lon="1.50135">
        <ele>757</ele>
        <time>2026-06-28T07:53:58.000Z</time>
      </trkpt>
      <trkpt lat="42.76889" lon="1.50134">
        <ele>757</ele>
        <time>2026-06-28T07:53:59.000Z</time>
      </trkpt>
      <trkpt lat="42.76891" lon="1.50132">
        <ele>756</ele>
        <time>2026-06-28T07:54:00.000Z</time>
      </trkpt>
      <trkpt lat="42.76891" lon="1.5013">
        <ele>756</ele>
        <time>2026-06-28T07:54:01.000Z</time>
      </trkpt>
      <trkpt lat="42.76891" lon="1.50128">
        <ele>756</ele>
        <time>2026-06-28T07:54:02.000Z</time>
      </trkpt>
      <trkpt lat="42.76892" lon="1.50125">
        <ele>756</ele>
        <time>2026-06-28T07:54:03.000Z</time>
      </trkpt>
      <trkpt lat="42.76893" lon="1.50123">
        <ele>756</ele>
        <time>2026-06-28T07:54:04.000Z</time>
      </trkpt>
      <trkpt lat="42.76893" lon="1.50122">
        <ele>758</ele>
        <time>2026-06-28T07:54:05.000Z</time>
      </trkpt>
      <trkpt lat="42.76893" lon="1.50119">
        <ele>758</ele>
        <time>2026-06-28T07:54:06.000Z</time>
      </trkpt>
      <trkpt lat="42.76893" lon="1.50117">
        <ele>758</ele>
        <time>2026-06-28T07:54:07.000Z</time>
      </trkpt>
      <trkpt lat="42.76893" lon="1.50115">
        <ele>758</ele>
        <time>2026-06-28T07:54:08.000Z</time>
      </trkpt>
      <trkpt lat="42.76893" lon="1.50112">
        <ele>759</ele>
        <time>2026-06-28T07:54:09.000Z</time>
      </trkpt>
      <trkpt lat="42.76892" lon="1.5011">
        <ele>759</ele>
        <time>2026-06-28T07:54:10.000Z</time>
      </trkpt>
      <trkpt lat="42.76892" lon="1.50108">
        <ele>759</ele>
        <time>2026-06-28T07:54:11.000Z</time>
      </trkpt>
      <trkpt lat="42.76892" lon="1.50106">
        <ele>759</ele>
        <time>2026-06-28T07:54:12.000Z</time>
      </trkpt>
      <trkpt lat="42.76892" lon="1.50105">
        <ele>758</ele>
        <time>2026-06-28T07:54:13.000Z</time>
      </trkpt>
      <trkpt lat="42.76892" lon="1.50104">
        <ele>758</ele>
        <time>2026-06-28T07:54:14.000Z</time>
      </trkpt>
      <trkpt lat="42.76891" lon="1.50103">
        <ele>758</ele>
        <time>2026-06-28T07:54:15.000Z</time>
      </trkpt>
      <trkpt lat="42.7689" lon="1.50101">
        <ele>757</ele>
        <time>2026-06-28T07:54:16.000Z</time>
      </trkpt>
      <trkpt lat="42.76891" lon="1.501">
        <ele>757</ele>
        <time>2026-06-28T07:54:17.000Z</time>
      </trkpt>
      <trkpt lat="42.7689" lon="1.50099">
        <ele>758</ele>
        <time>2026-06-28T07:54:18.000Z</time>
      </trkpt>
      <trkpt lat="42.7689" lon="1.50097">
        <ele>758</ele>
        <time>2026-06-28T07:54:19.000Z</time>
      </trkpt>
      <trkpt lat="42.7689" lon="1.50096">
        <ele>758</ele>
        <time>2026-06-28T07:54:20.000Z</time>
      </trkpt>
      <trkpt lat="42.7689" lon="1.50093">
        <ele>758</ele>
        <time>2026-06-28T07:54:21.000Z</time>
      </trkpt>
      <trkpt lat="42.7689" lon="1.5009">
        <ele>758</ele>
        <time>2026-06-28T07:54:22.000Z</time>
      </trkpt>
      <trkpt lat="42.7689" lon="1.50086">
        <ele>759</ele>
        <time>2026-06-28T07:54:23.000Z</time>
      </trkpt>
      <trkpt lat="42.7689" lon="1.50083">
        <ele>759</ele>
        <time>2026-06-28T07:54:24.000Z</time>
      </trkpt>
      <trkpt lat="42.76889" lon="1.50081">
        <ele>759</ele>
        <time>2026-06-28T07:54:25.000Z</time>
      </trkpt>
      <trkpt lat="42.76888" lon="1.50079">
        <ele>759</ele>
        <time>2026-06-28T07:54:26.000Z</time>
      </trkpt>
      <trkpt lat="42.76887" lon="1.50077">
        <ele>759</ele>
        <time>2026-06-28T07:54:27.000Z</time>
      </trkpt>
      <trkpt lat="42.76887" lon="1.50075">
        <ele>759</ele>
        <time>2026-06-28T07:54:28.000Z</time>
      </trkpt>
      <trkpt lat="42.76886" lon="1.50073">
        <ele>759</ele>
        <time>2026-06-28T07:54:29.000Z</time>
      </trkpt>
      <trkpt lat="42.76885" lon="1.50071">
        <ele>759</ele>
        <time>2026-06-28T07:54:30.000Z</time>
      </trkpt>
      <trkpt lat="42.76884" lon="1.50068">
        <ele>759</ele>
        <time>2026-06-28T07:54:31.000Z</time>
      </trkpt>
      <trkpt lat="42.76883" lon="1.50066">
        <ele>759</ele>
        <time>2026-06-28T07:54:32.000Z</time>
      </trkpt>
      <trkpt lat="42.76881" lon="1.50063">
        <ele>760</ele>
        <time>2026-06-28T07:54:33.000Z</time>
      </trkpt>
      <trkpt lat="42.76881" lon="1.50062">
        <ele>759</ele>
        <time>2026-06-28T07:54:34.000Z</time>
      </trkpt>
      <trkpt lat="42.76881" lon="1.5006">
        <ele>760</ele>
        <time>2026-06-28T07:54:35.000Z</time>
      </trkpt>
      <trkpt lat="42.76881" lon="1.50059">
        <ele>759</ele>
        <time>2026-06-28T07:54:36.000Z</time>
      </trkpt>
      <trkpt lat="42.76881" lon="1.50058">
        <ele>759</ele>
        <time>2026-06-28T07:54:37.000Z</time>
      </trkpt>
      <trkpt lat="42.76881" lon="1.50057">
        <ele>758</ele>
        <time>2026-06-28T07:54:38.000Z</time>
      </trkpt>
      <trkpt lat="42.76882" lon="1.50057">
        <ele>757</ele>
        <time>2026-06-28T07:54:39.000Z</time>
      </trkpt>
      <trkpt lat="42.76883" lon="1.50056">
        <ele>757</ele>
        <time>2026-06-28T07:54:40.000Z</time>
      </trkpt>
      <trkpt lat="42.76885" lon="1.50055">
        <ele>757</ele>
        <time>2026-06-28T07:54:41.000Z</time>
      </trkpt>
      <trkpt lat="42.76886" lon="1.50054">
        <ele>758</ele>
        <time>2026-06-28T07:54:42.000Z</time>
      </trkpt>
      <trkpt lat="42.76889" lon="1.50053">
        <ele>758</ele>
        <time>2026-06-28T07:54:43.000Z</time>
      </trkpt>
      <trkpt lat="42.76891" lon="1.50053">
        <ele>758</ele>
        <time>2026-06-28T07:54:44.000Z</time>
      </trkpt>
      <trkpt lat="42.76894" lon="1.50052">
        <ele>758</ele>
        <time>2026-06-28T07:54:45.000Z</time>
      </trkpt>
      <trkpt lat="42.76896" lon="1.50052">
        <ele>759</ele>
        <time>2026-06-28T07:54:46.000Z</time>
      </trkpt>
      <trkpt lat="42.76898" lon="1.50052">
        <ele>759</ele>
        <time>2026-06-28T07:54:47.000Z</time>
      </trkpt>
      <trkpt lat="42.76901" lon="1.50052">
        <ele>759</ele>
        <time>2026-06-28T07:54:48.000Z</time>
      </trkpt>
      <trkpt lat="42.76903" lon="1.5005">
        <ele>759</ele>
        <time>2026-06-28T07:54:49.000Z</time>
      </trkpt>
      <trkpt lat="42.76906" lon="1.50048">
        <ele>759</ele>
        <time>2026-06-28T07:54:50.000Z</time>
      </trkpt>
      <trkpt lat="42.76909" lon="1.50046">
        <ele>759</ele>
        <time>2026-06-28T07:54:51.000Z</time>
      </trkpt>
      <trkpt lat="42.76912" lon="1.50045">
        <ele>759</ele>
        <time>2026-06-28T07:54:52.000Z</time>
      </trkpt>
      <trkpt lat="42.76915" lon="1.50044">
        <ele>758</ele>
        <time>2026-06-28T07:54:53.000Z</time>
      </trkpt>
      <trkpt lat="42.76918" lon="1.50043">
        <ele>759</ele>
        <time>2026-06-28T07:54:54.000Z</time>
      </trkpt>
      <trkpt lat="42.76921" lon="1.50041">
        <ele>759</ele>
        <time>2026-06-28T07:54:55.000Z</time>
      </trkpt>
      <trkpt lat="42.76925" lon="1.50041">
        <ele>760</ele>
        <time>2026-06-28T07:54:56.000Z</time>
      </trkpt>
      <trkpt lat="42.76929" lon="1.50038">
        <ele>760</ele>
        <time>2026-06-28T07:54:57.000Z</time>
      </trkpt>
      <trkpt lat="42.76933" lon="1.50036">
        <ele>760</ele>
        <time>2026-06-28T07:54:58.000Z</time>
      </trkpt>
      <trkpt lat="42.76936" lon="1.50034">
        <ele>761</ele>
        <time>2026-06-28T07:54:59.000Z</time>
      </trkpt>
      <trkpt lat="42.76942" lon="1.50031">
        <ele>761</ele>
        <time>2026-06-28T07:55:00.000Z</time>
      </trkpt>
      <trkpt lat="42.76947" lon="1.50027">
        <ele>760</ele>
        <time>2026-06-28T07:55:01.000Z</time>
      </trkpt>
      <trkpt lat="42.7695" lon="1.50027">
        <ele>760</ele>
        <time>2026-06-28T07:55:02.000Z</time>
      </trkpt>
      <trkpt lat="42.76953" lon="1.50027">
        <ele>761</ele>
        <time>2026-06-28T07:55:03.000Z</time>
      </trkpt>
      <trkpt lat="42.76957" lon="1.50027">
        <ele>760</ele>
        <time>2026-06-28T07:55:04.000Z</time>
      </trkpt>
      <trkpt lat="42.76961" lon="1.50027">
        <ele>761</ele>
        <time>2026-06-28T07:55:05.000Z</time>
      </trkpt>
      <trkpt lat="42.76965" lon="1.50027">
        <ele>760</ele>
        <time>2026-06-28T07:55:06.000Z</time>
      </trkpt>
      <trkpt lat="42.7697" lon="1.50027">
        <ele>760</ele>
        <time>2026-06-28T07:55:07.000Z</time>
      </trkpt>
      <trkpt lat="42.76975" lon="1.50025">
        <ele>760</ele>
        <time>2026-06-28T07:55:08.000Z</time>
      </trkpt>
      <trkpt lat="42.7698" lon="1.50025">
        <ele>760</ele>
        <time>2026-06-28T07:55:09.000Z</time>
      </trkpt>
      <trkpt lat="42.76984" lon="1.50025">
        <ele>760</ele>
        <time>2026-06-28T07:55:10.000Z</time>
      </trkpt>
      <trkpt lat="42.76987" lon="1.50028">
        <ele>760</ele>
        <time>2026-06-28T07:55:11.000Z</time>
      </trkpt>
      <trkpt lat="42.7699" lon="1.50029">
        <ele>761</ele>
        <time>2026-06-28T07:55:12.000Z</time>
      </trkpt>
      <trkpt lat="42.76993" lon="1.50029">
        <ele>761</ele>
        <time>2026-06-28T07:55:13.000Z</time>
      </trkpt>
      <trkpt lat="42.76996" lon="1.50029">
        <ele>761</ele>
        <time>2026-06-28T07:55:14.000Z</time>
      </trkpt>
      <trkpt lat="42.77" lon="1.50029">
        <ele>761</ele>
        <time>2026-06-28T07:55:15.000Z</time>
      </trkpt>
      <trkpt lat="42.77004" lon="1.5003">
        <ele>761</ele>
        <time>2026-06-28T07:55:16.000Z</time>
      </trkpt>
      <trkpt lat="42.77006" lon="1.50031">
        <ele>762</ele>
        <time>2026-06-28T07:55:17.000Z</time>
      </trkpt>
      <trkpt lat="42.77011" lon="1.50032">
        <ele>761</ele>
        <time>2026-06-28T07:55:18.000Z</time>
      </trkpt>
      <trkpt lat="42.77015" lon="1.50032">
        <ele>761</ele>
        <time>2026-06-28T07:55:19.000Z</time>
      </trkpt>
      <trkpt lat="42.77018" lon="1.50033">
        <ele>762</ele>
        <time>2026-06-28T07:55:20.000Z</time>
      </trkpt>
      <trkpt lat="42.77024" lon="1.50033">
        <ele>762</ele>
        <time>2026-06-28T07:55:21.000Z</time>
      </trkpt>
      <trkpt lat="42.77028" lon="1.50033">
        <ele>763</ele>
        <time>2026-06-28T07:55:22.000Z</time>
      </trkpt>
      <trkpt lat="42.77031" lon="1.50034">
        <ele>763</ele>
        <time>2026-06-28T07:55:23.000Z</time>
      </trkpt>
      <trkpt lat="42.77035" lon="1.50035">
        <ele>763</ele>
        <time>2026-06-28T07:55:24.000Z</time>
      </trkpt>
      <trkpt lat="42.77039" lon="1.50036">
        <ele>763</ele>
        <time>2026-06-28T07:55:25.000Z</time>
      </trkpt>
      <trkpt lat="42.77042" lon="1.50038">
        <ele>763</ele>
        <time>2026-06-28T07:55:26.000Z</time>
      </trkpt>
      <trkpt lat="42.77046" lon="1.50039">
        <ele>762</ele>
        <time>2026-06-28T07:55:27.000Z</time>
      </trkpt>
      <trkpt lat="42.77049" lon="1.50037">
        <ele>763</ele>
        <time>2026-06-28T07:55:28.000Z</time>
      </trkpt>
      <trkpt lat="42.77052" lon="1.50035">
        <ele>763</ele>
        <time>2026-06-28T07:55:29.000Z</time>
      </trkpt>
      <trkpt lat="42.77056" lon="1.50032">
        <ele>763</ele>
        <time>2026-06-28T07:55:30.000Z</time>
      </trkpt>
      <trkpt lat="42.77059" lon="1.50027">
        <ele>764</ele>
        <time>2026-06-28T07:55:31.000Z</time>
      </trkpt>
      <trkpt lat="42.77062" lon="1.50023">
        <ele>763</ele>
        <time>2026-06-28T07:55:32.000Z</time>
      </trkpt>
      <trkpt lat="42.77062" lon="1.50019">
        <ele>763</ele>
        <time>2026-06-28T07:55:33.000Z</time>
      </trkpt>
      <trkpt lat="42.77063" lon="1.50014">
        <ele>763</ele>
        <time>2026-06-28T07:55:34.000Z</time>
      </trkpt>
      <trkpt lat="42.77063" lon="1.50009">
        <ele>763</ele>
        <time>2026-06-28T07:55:35.000Z</time>
      </trkpt>
      <trkpt lat="42.77062" lon="1.50004">
        <ele>764</ele>
        <time>2026-06-28T07:55:36.000Z</time>
      </trkpt>
      <trkpt lat="42.77061" lon="1.49999">
        <ele>764</ele>
        <time>2026-06-28T07:55:37.000Z</time>
      </trkpt>
      <trkpt lat="42.7706" lon="1.49995">
        <ele>764</ele>
        <time>2026-06-28T07:55:38.000Z</time>
      </trkpt>
      <trkpt lat="42.7706" lon="1.49991">
        <ele>764</ele>
        <time>2026-06-28T07:55:39.000Z</time>
      </trkpt>
      <trkpt lat="42.7706" lon="1.49986">
        <ele>764</ele>
        <time>2026-06-28T07:55:40.000Z</time>
      </trkpt>
      <trkpt lat="42.77059" lon="1.49981">
        <ele>764</ele>
        <time>2026-06-28T07:55:41.000Z</time>
      </trkpt>
      <trkpt lat="42.77059" lon="1.49976">
        <ele>764</ele>
        <time>2026-06-28T07:55:42.000Z</time>
      </trkpt>
      <trkpt lat="42.77059" lon="1.49972">
        <ele>764</ele>
        <time>2026-06-28T07:55:43.000Z</time>
      </trkpt>
      <trkpt lat="42.77058" lon="1.49967">
        <ele>764</ele>
        <time>2026-06-28T07:55:44.000Z</time>
      </trkpt>
      <trkpt lat="42.77058" lon="1.49962">
        <ele>764</ele>
        <time>2026-06-28T07:55:45.000Z</time>
      </trkpt>
      <trkpt lat="42.77057" lon="1.49958">
        <ele>764</ele>
        <time>2026-06-28T07:55:46.000Z</time>
      </trkpt>
      <trkpt lat="42.77057" lon="1.49953">
        <ele>764</ele>
        <time>2026-06-28T07:55:47.000Z</time>
      </trkpt>
      <trkpt lat="42.77056" lon="1.49949">
        <ele>764</ele>
        <time>2026-06-28T07:55:48.000Z</time>
      </trkpt>
      <trkpt lat="42.77056" lon="1.49945">
        <ele>764</ele>
        <time>2026-06-28T07:55:49.000Z</time>
      </trkpt>
      <trkpt lat="42.77055" lon="1.49941">
        <ele>764</ele>
        <time>2026-06-28T07:55:50.000Z</time>
      </trkpt>
      <trkpt lat="42.77054" lon="1.49937">
        <ele>764</ele>
        <time>2026-06-28T07:55:51.000Z</time>
      </trkpt>
      <trkpt lat="42.77053" lon="1.49932">
        <ele>763</ele>
        <time>2026-06-28T07:55:52.000Z</time>
      </trkpt>
      <trkpt lat="42.77052" lon="1.49927">
        <ele>763</ele>
        <time>2026-06-28T07:55:53.000Z</time>
      </trkpt>
      <trkpt lat="42.77051" lon="1.49923">
        <ele>763</ele>
        <time>2026-06-28T07:55:54.000Z</time>
      </trkpt>
      <trkpt lat="42.7705" lon="1.49919">
        <ele>763</ele>
        <time>2026-06-28T07:55:55.000Z</time>
      </trkpt>
      <trkpt lat="42.77048" lon="1.49915">
        <ele>764</ele>
        <time>2026-06-28T07:55:56.000Z</time>
      </trkpt>
      <trkpt lat="42.77047" lon="1.4991">
        <ele>764</ele>
        <time>2026-06-28T07:55:57.000Z</time>
      </trkpt>
      <trkpt lat="42.77047" lon="1.49905">
        <ele>764</ele>
        <time>2026-06-28T07:55:58.000Z</time>
      </trkpt>
      <trkpt lat="42.77046" lon="1.499">
        <ele>763</ele>
        <time>2026-06-28T07:55:59.000Z</time>
      </trkpt>
      <trkpt lat="42.77044" lon="1.49896">
        <ele>763</ele>
        <time>2026-06-28T07:56:00.000Z</time>
      </trkpt>
      <trkpt lat="42.77043" lon="1.49891">
        <ele>762</ele>
        <time>2026-06-28T07:56:01.000Z</time>
      </trkpt>
      <trkpt lat="42.77042" lon="1.49886">
        <ele>762</ele>
        <time>2026-06-28T07:56:02.000Z</time>
      </trkpt>
      <trkpt lat="42.77041" lon="1.4988">
        <ele>763</ele>
        <time>2026-06-28T07:56:03.000Z</time>
      </trkpt>
      <trkpt lat="42.7704" lon="1.49876">
        <ele>763</ele>
        <time>2026-06-28T07:56:04.000Z</time>
      </trkpt>
      <trkpt lat="42.77039" lon="1.49874">
        <ele>762</ele>
        <time>2026-06-28T07:56:05.000Z</time>
      </trkpt>
      <trkpt lat="42.7704" lon="1.49874">
        <ele>762</ele>
        <time>2026-06-28T07:56:06.000Z</time>
      </trkpt>
      <trkpt lat="42.7704" lon="1.49873">
        <ele>763</ele>
        <time>2026-06-28T07:56:07.000Z</time>
      </trkpt>
      <trkpt lat="42.77041" lon="1.49873">
        <ele>763</ele>
        <time>2026-06-28T07:56:08.000Z</time>
      </trkpt>
      <trkpt lat="42.77044" lon="1.49873">
        <ele>763</ele>
        <time>2026-06-28T07:56:09.000Z</time>
      </trkpt>
      <trkpt lat="42.77047" lon="1.49872">
        <ele>764</ele>
        <time>2026-06-28T07:56:10.000Z</time>
      </trkpt>
      <trkpt lat="42.7705" lon="1.49871">
        <ele>764</ele>
        <time>2026-06-28T07:56:11.000Z</time>
      </trkpt>
      <trkpt lat="42.77053" lon="1.49869">
        <ele>765</ele>
        <time>2026-06-28T07:56:12.000Z</time>
      </trkpt>
      <trkpt lat="42.77056" lon="1.49868">
        <ele>765</ele>
        <time>2026-06-28T07:56:13.000Z</time>
      </trkpt>
      <trkpt lat="42.77059" lon="1.49866">
        <ele>765</ele>
        <time>2026-06-28T07:56:14.000Z</time>
      </trkpt>
      <trkpt lat="42.77061" lon="1.49864">
        <ele>765</ele>
        <time>2026-06-28T07:56:15.000Z</time>
      </trkpt>
      <trkpt lat="42.77063" lon="1.49861">
        <ele>765</ele>
        <time>2026-06-28T07:56:16.000Z</time>
      </trkpt>
      <trkpt lat="42.77066" lon="1.4986">
        <ele>764</ele>
        <time>2026-06-28T07:56:17.000Z</time>
      </trkpt>
      <trkpt lat="42.77069" lon="1.49858">
        <ele>764</ele>
        <time>2026-06-28T07:56:18.000Z</time>
      </trkpt>
      <trkpt lat="42.77071" lon="1.49856">
        <ele>764</ele>
        <time>2026-06-28T07:56:19.000Z</time>
      </trkpt>
      <trkpt lat="42.77072" lon="1.49851">
        <ele>765</ele>
        <time>2026-06-28T07:56:20.000Z</time>
      </trkpt>
      <trkpt lat="42.77072" lon="1.49848">
        <ele>765</ele>
        <time>2026-06-28T07:56:21.000Z</time>
      </trkpt>
      <trkpt lat="42.77072" lon="1.49844">
        <ele>766</ele>
        <time>2026-06-28T07:56:22.000Z</time>
      </trkpt>
      <trkpt lat="42.77073" lon="1.49841">
        <ele>766</ele>
        <time>2026-06-28T07:56:23.000Z</time>
      </trkpt>
      <trkpt lat="42.77074" lon="1.49837">
        <ele>767</ele>
        <time>2026-06-28T07:56:24.000Z</time>
      </trkpt>
      <trkpt lat="42.77075" lon="1.49833">
        <ele>767</ele>
        <time>2026-06-28T07:56:25.000Z</time>
      </trkpt>
      <trkpt lat="42.77076" lon="1.4983">
        <ele>768</ele>
        <time>2026-06-28T07:56:26.000Z</time>
      </trkpt>
      <trkpt lat="42.77077" lon="1.49825">
        <ele>768</ele>
        <time>2026-06-28T07:56:27.000Z</time>
      </trkpt>
      <trkpt lat="42.77078" lon="1.49821">
        <ele>769</ele>
        <time>2026-06-28T07:56:28.000Z</time>
      </trkpt>
      <trkpt lat="42.77078" lon="1.49816">
        <ele>769</ele>
        <time>2026-06-28T07:56:29.000Z</time>
      </trkpt>
      <trkpt lat="42.77079" lon="1.49811">
        <ele>769</ele>
        <time>2026-06-28T07:56:30.000Z</time>
      </trkpt>
      <trkpt lat="42.77079" lon="1.49806">
        <ele>769</ele>
        <time>2026-06-28T07:56:31.000Z</time>
      </trkpt>
      <trkpt lat="42.77079" lon="1.49801">
        <ele>769</ele>
        <time>2026-06-28T07:56:32.000Z</time>
      </trkpt>
      <trkpt lat="42.77078" lon="1.49796">
        <ele>769</ele>
        <time>2026-06-28T07:56:33.000Z</time>
      </trkpt>
      <trkpt lat="42.77078" lon="1.49792">
        <ele>769</ele>
        <time>2026-06-28T07:56:34.000Z</time>
      </trkpt>
      <trkpt lat="42.77079" lon="1.49787">
        <ele>770</ele>
        <time>2026-06-28T07:56:35.000Z</time>
      </trkpt>
      <trkpt lat="42.77079" lon="1.49782">
        <ele>769</ele>
        <time>2026-06-28T07:56:36.000Z</time>
      </trkpt>
      <trkpt lat="42.77079" lon="1.49777">
        <ele>769</ele>
        <time>2026-06-28T07:56:37.000Z</time>
      </trkpt>
      <trkpt lat="42.77079" lon="1.49772">
        <ele>769</ele>
        <time>2026-06-28T07:56:38.000Z</time>
      </trkpt>
      <trkpt lat="42.77078" lon="1.49765">
        <ele>768</ele>
        <time>2026-06-28T07:56:39.000Z</time>
      </trkpt>
      <trkpt lat="42.77078" lon="1.49761">
        <ele>767</ele>
        <time>2026-06-28T07:56:40.000Z</time>
      </trkpt>
      <trkpt lat="42.77078" lon="1.49756">
        <ele>767</ele>
        <time>2026-06-28T07:56:41.000Z</time>
      </trkpt>
      <trkpt lat="42.77079" lon="1.49751">
        <ele>767</ele>
        <time>2026-06-28T07:56:42.000Z</time>
      </trkpt>
      <trkpt lat="42.77079" lon="1.49747">
        <ele>767</ele>
        <time>2026-06-28T07:56:43.000Z</time>
      </trkpt>
      <trkpt lat="42.77078" lon="1.49742">
        <ele>767</ele>
        <time>2026-06-28T07:56:44.000Z</time>
      </trkpt>
      <trkpt lat="42.77077" lon="1.49736">
        <ele>767</ele>
        <time>2026-06-28T07:56:45.000Z</time>
      </trkpt>
      <trkpt lat="42.77076" lon="1.49732">
        <ele>767</ele>
        <time>2026-06-28T07:56:46.000Z</time>
      </trkpt>
      <trkpt lat="42.77075" lon="1.49727">
        <ele>767</ele>
        <time>2026-06-28T07:56:47.000Z</time>
      </trkpt>
      <trkpt lat="42.77075" lon="1.49722">
        <ele>767</ele>
        <time>2026-06-28T07:56:48.000Z</time>
      </trkpt>
      <trkpt lat="42.77075" lon="1.49716">
        <ele>767</ele>
        <time>2026-06-28T07:56:49.000Z</time>
      </trkpt>
      <trkpt lat="42.77074" lon="1.49712">
        <ele>767</ele>
        <time>2026-06-28T07:56:50.000Z</time>
      </trkpt>
      <trkpt lat="42.77074" lon="1.49707">
        <ele>767</ele>
        <time>2026-06-28T07:56:51.000Z</time>
      </trkpt>
      <trkpt lat="42.77073" lon="1.49703">
        <ele>766</ele>
        <time>2026-06-28T07:56:52.000Z</time>
      </trkpt>
      <trkpt lat="42.77073" lon="1.49698">
        <ele>766</ele>
        <time>2026-06-28T07:56:53.000Z</time>
      </trkpt>
      <trkpt lat="42.77072" lon="1.49694">
        <ele>766</ele>
        <time>2026-06-28T07:56:54.000Z</time>
      </trkpt>
      <trkpt lat="42.77071" lon="1.49689">
        <ele>765</ele>
        <time>2026-06-28T07:56:55.000Z</time>
      </trkpt>
      <trkpt lat="42.77071" lon="1.49684">
        <ele>765</ele>
        <time>2026-06-28T07:56:56.000Z</time>
      </trkpt>
      <trkpt lat="42.7707" lon="1.49679">
        <ele>765</ele>
        <time>2026-06-28T07:56:57.000Z</time>
      </trkpt>
      <trkpt lat="42.7707" lon="1.49674">
        <ele>765</ele>
        <time>2026-06-28T07:56:58.000Z</time>
      </trkpt>
      <trkpt lat="42.77069" lon="1.4967">
        <ele>764</ele>
        <time>2026-06-28T07:56:59.000Z</time>
      </trkpt>
      <trkpt lat="42.77069" lon="1.49665">
        <ele>764</ele>
        <time>2026-06-28T07:57:00.000Z</time>
      </trkpt>
      <trkpt lat="42.77068" lon="1.4966">
        <ele>764</ele>
        <time>2026-06-28T07:57:01.000Z</time>
      </trkpt>
      <trkpt lat="42.77068" lon="1.49655">
        <ele>764</ele>
        <time>2026-06-28T07:57:02.000Z</time>
      </trkpt>
      <trkpt lat="42.77067" lon="1.49651">
        <ele>764</ele>
        <time>2026-06-28T07:57:03.000Z</time>
      </trkpt>
      <trkpt lat="42.77066" lon="1.49646">
        <ele>764</ele>
        <time>2026-06-28T07:57:04.000Z</time>
      </trkpt>
      <trkpt lat="42.77066" lon="1.49641">
        <ele>764</ele>
        <time>2026-06-28T07:57:05.000Z</time>
      </trkpt>
      <trkpt lat="42.77065" lon="1.49637">
        <ele>764</ele>
        <time>2026-06-28T07:57:06.000Z</time>
      </trkpt>
      <trkpt lat="42.77065" lon="1.49633">
        <ele>763</ele>
        <time>2026-06-28T07:57:07.000Z</time>
      </trkpt>
      <trkpt lat="42.77065" lon="1.49628">
        <ele>763</ele>
        <time>2026-06-28T07:57:08.000Z</time>
      </trkpt>
      <trkpt lat="42.77064" lon="1.49625">
        <ele>764</ele>
        <time>2026-06-28T07:57:09.000Z</time>
      </trkpt>
      <trkpt lat="42.77064" lon="1.49621">
        <ele>764</ele>
        <time>2026-06-28T07:57:10.000Z</time>
      </trkpt>
      <trkpt lat="42.77063" lon="1.49618">
        <ele>764</ele>
        <time>2026-06-28T07:57:11.000Z</time>
      </trkpt>
      <trkpt lat="42.77062" lon="1.49614">
        <ele>764</ele>
        <time>2026-06-28T07:57:12.000Z</time>
      </trkpt>
      <trkpt lat="42.77062" lon="1.49609">
        <ele>764</ele>
        <time>2026-06-28T07:57:13.000Z</time>
      </trkpt>
      <trkpt lat="42.77062" lon="1.49605">
        <ele>764</ele>
        <time>2026-06-28T07:57:14.000Z</time>
      </trkpt>
      <trkpt lat="42.77061" lon="1.49602">
        <ele>764</ele>
        <time>2026-06-28T07:57:15.000Z</time>
      </trkpt>
      <trkpt lat="42.7706" lon="1.49598">
        <ele>765</ele>
        <time>2026-06-28T07:57:16.000Z</time>
      </trkpt>
      <trkpt lat="42.77059" lon="1.49595">
        <ele>765</ele>
        <time>2026-06-28T07:57:17.000Z</time>
      </trkpt>
      <trkpt lat="42.77059" lon="1.49591">
        <ele>765</ele>
        <time>2026-06-28T07:57:18.000Z</time>
      </trkpt>
      <trkpt lat="42.77058" lon="1.49587">
        <ele>765</ele>
        <time>2026-06-28T07:57:19.000Z</time>
      </trkpt>
      <trkpt lat="42.77057" lon="1.49583">
        <ele>765</ele>
        <time>2026-06-28T07:57:20.000Z</time>
      </trkpt>
      <trkpt lat="42.77056" lon="1.4958">
        <ele>765</ele>
        <time>2026-06-28T07:57:21.000Z</time>
      </trkpt>
      <trkpt lat="42.77055" lon="1.49576">
        <ele>765</ele>
        <time>2026-06-28T07:57:22.000Z</time>
      </trkpt>
      <trkpt lat="42.77055" lon="1.49573">
        <ele>765</ele>
        <time>2026-06-28T07:57:23.000Z</time>
      </trkpt>
      <trkpt lat="42.77054" lon="1.49569">
        <ele>765</ele>
        <time>2026-06-28T07:57:24.000Z</time>
      </trkpt>
      <trkpt lat="42.77054" lon="1.49565">
        <ele>765</ele>
        <time>2026-06-28T07:57:25.000Z</time>
      </trkpt>
      <trkpt lat="42.77053" lon="1.49561">
        <ele>765</ele>
        <time>2026-06-28T07:57:26.000Z</time>
      </trkpt>
      <trkpt lat="42.77053" lon="1.49557">
        <ele>765</ele>
        <time>2026-06-28T07:57:27.000Z</time>
      </trkpt>
      <trkpt lat="42.77052" lon="1.49553">
        <ele>765</ele>
        <time>2026-06-28T07:57:28.000Z</time>
      </trkpt>
      <trkpt lat="42.77052" lon="1.49548">
        <ele>765</ele>
        <time>2026-06-28T07:57:29.000Z</time>
      </trkpt>
      <trkpt lat="42.77052" lon="1.49544">
        <ele>765</ele>
        <time>2026-06-28T07:57:30.000Z</time>
      </trkpt>
      <trkpt lat="42.77052" lon="1.49539">
        <ele>765</ele>
        <time>2026-06-28T07:57:31.000Z</time>
      </trkpt>
      <trkpt lat="42.77051" lon="1.49535">
        <ele>765</ele>
        <time>2026-06-28T07:57:32.000Z</time>
      </trkpt>
      <trkpt lat="42.7705" lon="1.49531">
        <ele>766</ele>
        <time>2026-06-28T07:57:33.000Z</time>
      </trkpt>
      <trkpt lat="42.77049" lon="1.49528">
        <ele>766</ele>
        <time>2026-06-28T07:57:34.000Z</time>
      </trkpt>
      <trkpt lat="42.77049" lon="1.49524">
        <ele>767</ele>
        <time>2026-06-28T07:57:35.000Z</time>
      </trkpt>
      <trkpt lat="42.77048" lon="1.49521">
        <ele>767</ele>
        <time>2026-06-28T07:57:36.000Z</time>
      </trkpt>
      <trkpt lat="42.77048" lon="1.49517">
        <ele>767</ele>
        <time>2026-06-28T07:57:37.000Z</time>
      </trkpt>
      <trkpt lat="42.77047" lon="1.49513">
        <ele>768</ele>
        <time>2026-06-28T07:57:38.000Z</time>
      </trkpt>
      <trkpt lat="42.77047" lon="1.49508">
        <ele>768</ele>
        <time>2026-06-28T07:57:39.000Z</time>
      </trkpt>
      <trkpt lat="42.77047" lon="1.49504">
        <ele>768</ele>
        <time>2026-06-28T07:57:40.000Z</time>
      </trkpt>
      <trkpt lat="42.77046" lon="1.495">
        <ele>769</ele>
        <time>2026-06-28T07:57:41.000Z</time>
      </trkpt>
      <trkpt lat="42.77045" lon="1.49496">
        <ele>769</ele>
        <time>2026-06-28T07:57:42.000Z</time>
      </trkpt>
      <trkpt lat="42.77044" lon="1.49492">
        <ele>770</ele>
        <time>2026-06-28T07:57:43.000Z</time>
      </trkpt>
      <trkpt lat="42.77043" lon="1.49488">
        <ele>770</ele>
        <time>2026-06-28T07:57:44.000Z</time>
      </trkpt>
      <trkpt lat="42.77041" lon="1.49484">
        <ele>770</ele>
        <time>2026-06-28T07:57:45.000Z</time>
      </trkpt>
      <trkpt lat="42.7704" lon="1.49482">
        <ele>769</ele>
        <time>2026-06-28T07:57:46.000Z</time>
      </trkpt>
      <trkpt lat="42.77038" lon="1.49478">
        <ele>770</ele>
        <time>2026-06-28T07:57:47.000Z</time>
      </trkpt>
      <trkpt lat="42.77036" lon="1.49473">
        <ele>770</ele>
        <time>2026-06-28T07:57:48.000Z</time>
      </trkpt>
      <trkpt lat="42.77035" lon="1.49469">
        <ele>770</ele>
        <time>2026-06-28T07:57:49.000Z</time>
      </trkpt>
      <trkpt lat="42.77034" lon="1.49465">
        <ele>769</ele>
        <time>2026-06-28T07:57:50.000Z</time>
      </trkpt>
      <trkpt lat="42.77033" lon="1.49461">
        <ele>769</ele>
        <time>2026-06-28T07:57:51.000Z</time>
      </trkpt>
      <trkpt lat="42.77032" lon="1.49456">
        <ele>770</ele>
        <time>2026-06-28T07:57:52.000Z</time>
      </trkpt>
      <trkpt lat="42.77032" lon="1.49451">
        <ele>770</ele>
        <time>2026-06-28T07:57:53.000Z</time>
      </trkpt>
      <trkpt lat="42.77031" lon="1.49447">
        <ele>771</ele>
        <time>2026-06-28T07:57:54.000Z</time>
      </trkpt>
      <trkpt lat="42.7703" lon="1.49443">
        <ele>771</ele>
        <time>2026-06-28T07:57:55.000Z</time>
      </trkpt>
      <trkpt lat="42.77029" lon="1.49439">
        <ele>772</ele>
        <time>2026-06-28T07:57:56.000Z</time>
      </trkpt>
      <trkpt lat="42.77028" lon="1.49435">
        <ele>771</ele>
        <time>2026-06-28T07:57:57.000Z</time>
      </trkpt>
      <trkpt lat="42.77026" lon="1.49433">
        <ele>771</ele>
        <time>2026-06-28T07:57:58.000Z</time>
      </trkpt>
      <trkpt lat="42.77025" lon="1.4943">
        <ele>771</ele>
        <time>2026-06-28T07:57:59.000Z</time>
      </trkpt>
      <trkpt lat="42.77025" lon="1.49426">
        <ele>772</ele>
        <time>2026-06-28T07:58:00.000Z</time>
      </trkpt>
      <trkpt lat="42.77023" lon="1.49422">
        <ele>772</ele>
        <time>2026-06-28T07:58:01.000Z</time>
      </trkpt>
      <trkpt lat="42.77023" lon="1.49418">
        <ele>772</ele>
        <time>2026-06-28T07:58:02.000Z</time>
      </trkpt>
      <trkpt lat="42.77022" lon="1.49413">
        <ele>773</ele>
        <time>2026-06-28T07:58:03.000Z</time>
      </trkpt>
      <trkpt lat="42.77022" lon="1.4941">
        <ele>773</ele>
        <time>2026-06-28T07:58:04.000Z</time>
      </trkpt>
      <trkpt lat="42.77021" lon="1.49405">
        <ele>773</ele>
        <time>2026-06-28T07:58:05.000Z</time>
      </trkpt>
      <trkpt lat="42.77021" lon="1.49401">
        <ele>772</ele>
        <time>2026-06-28T07:58:06.000Z</time>
      </trkpt>
      <trkpt lat="42.77022" lon="1.49396">
        <ele>772</ele>
        <time>2026-06-28T07:58:07.000Z</time>
      </trkpt>
      <trkpt lat="42.77024" lon="1.49393">
        <ele>773</ele>
        <time>2026-06-28T07:58:08.000Z</time>
      </trkpt>
      <trkpt lat="42.77025" lon="1.4939">
        <ele>773</ele>
        <time>2026-06-28T07:58:09.000Z</time>
      </trkpt>
      <trkpt lat="42.77026" lon="1.49387">
        <ele>773</ele>
        <time>2026-06-28T07:58:10.000Z</time>
      </trkpt>
      <trkpt lat="42.77027" lon="1.49384">
        <ele>773</ele>
        <time>2026-06-28T07:58:11.000Z</time>
      </trkpt>
      <trkpt lat="42.77029" lon="1.49381">
        <ele>774</ele>
        <time>2026-06-28T07:58:12.000Z</time>
      </trkpt>
      <trkpt lat="42.7703" lon="1.49377">
        <ele>775</ele>
        <time>2026-06-28T07:58:13.000Z</time>
      </trkpt>
      <trkpt lat="42.77032" lon="1.49373">
        <ele>776</ele>
        <time>2026-06-28T07:58:14.000Z</time>
      </trkpt>
      <trkpt lat="42.77033" lon="1.49367">
        <ele>778</ele>
        <time>2026-06-28T07:58:15.000Z</time>
      </trkpt>
      <trkpt lat="42.77035" lon="1.49359">
        <ele>778</ele>
        <time>2026-06-28T07:58:16.000Z</time>
      </trkpt>
      <trkpt lat="42.77035" lon="1.49355">
        <ele>779</ele>
        <time>2026-06-28T07:58:17.000Z</time>
      </trkpt>
      <trkpt lat="42.7703" lon="1.49352">
        <ele>778</ele>
        <time>2026-06-28T07:58:18.000Z</time>
      </trkpt>
      <trkpt lat="42.77026" lon="1.4935">
        <ele>778</ele>
        <time>2026-06-28T07:58:19.000Z</time>
      </trkpt>
      <trkpt lat="42.77021" lon="1.49346">
        <ele>778</ele>
        <time>2026-06-28T07:58:20.000Z</time>
      </trkpt>
      <trkpt lat="42.77015" lon="1.49345">
        <ele>776</ele>
        <time>2026-06-28T07:58:21.000Z</time>
      </trkpt>
      <trkpt lat="42.77011" lon="1.49345">
        <ele>776</ele>
        <time>2026-06-28T07:58:22.000Z</time>
      </trkpt>
      <trkpt lat="42.77007" lon="1.49345">
        <ele>775</ele>
        <time>2026-06-28T07:58:23.000Z</time>
      </trkpt>
      <trkpt lat="42.77004" lon="1.49345">
        <ele>775</ele>
        <time>2026-06-28T07:58:24.000Z</time>
      </trkpt>
      <trkpt lat="42.77" lon="1.49345">
        <ele>775</ele>
        <time>2026-06-28T07:58:25.000Z</time>
      </trkpt>
      <trkpt lat="42.76996" lon="1.49346">
        <ele>774</ele>
        <time>2026-06-28T07:58:26.000Z</time>
      </trkpt>
      <trkpt lat="42.76992" lon="1.49348">
        <ele>774</ele>
        <time>2026-06-28T07:58:27.000Z</time>
      </trkpt>
      <trkpt lat="42.76988" lon="1.49351">
        <ele>773</ele>
        <time>2026-06-28T07:58:28.000Z</time>
      </trkpt>
      <trkpt lat="42.76984" lon="1.49352">
        <ele>773</ele>
        <time>2026-06-28T07:58:29.000Z</time>
      </trkpt>
      <trkpt lat="42.76982" lon="1.49352">
        <ele>773</ele>
        <time>2026-06-28T07:58:30.000Z</time>
      </trkpt>
      <trkpt lat="42.76979" lon="1.49352">
        <ele>773</ele>
        <time>2026-06-28T07:58:31.000Z</time>
      </trkpt>
      <trkpt lat="42.76977" lon="1.49352">
        <ele>774</ele>
        <time>2026-06-28T07:58:32.000Z</time>
      </trkpt>
      <trkpt lat="42.76976" lon="1.49351">
        <ele>774</ele>
        <time>2026-06-28T07:58:33.000Z</time>
      </trkpt>
      <trkpt lat="42.76976" lon="1.49349">
        <ele>775</ele>
        <time>2026-06-28T07:58:34.000Z</time>
      </trkpt>
      <trkpt lat="42.76976" lon="1.49345">
        <ele>775</ele>
        <time>2026-06-28T07:58:35.000Z</time>
      </trkpt>
      <trkpt lat="42.76976" lon="1.4934">
        <ele>776</ele>
        <time>2026-06-28T07:58:36.000Z</time>
      </trkpt>
      <trkpt lat="42.76978" lon="1.49334">
        <ele>776</ele>
        <time>2026-06-28T07:58:37.000Z</time>
      </trkpt>
      <trkpt lat="42.76978" lon="1.49327">
        <ele>776</ele>
        <time>2026-06-28T07:58:38.000Z</time>
      </trkpt>
      <trkpt lat="42.76978" lon="1.49324">
        <ele>777</ele>
        <time>2026-06-28T07:58:39.000Z</time>
      </trkpt>
      <trkpt lat="42.76978" lon="1.49321">
        <ele>778</ele>
        <time>2026-06-28T07:58:40.000Z</time>
      </trkpt>
      <trkpt lat="42.76979" lon="1.49317">
        <ele>778</ele>
        <time>2026-06-28T07:58:41.000Z</time>
      </trkpt>
      <trkpt lat="42.76979" lon="1.49311">
        <ele>779</ele>
        <time>2026-06-28T07:58:42.000Z</time>
      </trkpt>
      <trkpt lat="42.7698" lon="1.49304">
        <ele>779</ele>
        <time>2026-06-28T07:58:43.000Z</time>
      </trkpt>
      <trkpt lat="42.76982" lon="1.49297">
        <ele>779</ele>
        <time>2026-06-28T07:58:44.000Z</time>
      </trkpt>
      <trkpt lat="42.76984" lon="1.4929">
        <ele>778</ele>
        <time>2026-06-28T07:58:45.000Z</time>
      </trkpt>
      <trkpt lat="42.76985" lon="1.49285">
        <ele>779</ele>
        <time>2026-06-28T07:58:46.000Z</time>
      </trkpt>
      <trkpt lat="42.76987" lon="1.49279">
        <ele>778</ele>
        <time>2026-06-28T07:58:47.000Z</time>
      </trkpt>
      <trkpt lat="42.76988" lon="1.49275">
        <ele>777</ele>
        <time>2026-06-28T07:58:48.000Z</time>
      </trkpt>
      <trkpt lat="42.7699" lon="1.49268">
        <ele>777</ele>
        <time>2026-06-28T07:58:49.000Z</time>
      </trkpt>
      <trkpt lat="42.76991" lon="1.49263">
        <ele>776</ele>
        <time>2026-06-28T07:58:50.000Z</time>
      </trkpt>
      <trkpt lat="42.76993" lon="1.49257">
        <ele>775</ele>
        <time>2026-06-28T07:58:51.000Z</time>
      </trkpt>
      <trkpt lat="42.76994" lon="1.49252">
        <ele>775</ele>
        <time>2026-06-28T07:58:52.000Z</time>
      </trkpt>
      <trkpt lat="42.76995" lon="1.49246">
        <ele>775</ele>
        <time>2026-06-28T07:58:53.000Z</time>
      </trkpt>
      <trkpt lat="42.76995" lon="1.49241">
        <ele>774</ele>
        <time>2026-06-28T07:58:54.000Z</time>
      </trkpt>
      <trkpt lat="42.76995" lon="1.49236">
        <ele>775</ele>
        <time>2026-06-28T07:58:55.000Z</time>
      </trkpt>
      <trkpt lat="42.76996" lon="1.4923">
        <ele>775</ele>
        <time>2026-06-28T07:58:56.000Z</time>
      </trkpt>
      <trkpt lat="42.76996" lon="1.49224">
        <ele>775</ele>
        <time>2026-06-28T07:58:57.000Z</time>
      </trkpt>
      <trkpt lat="42.76996" lon="1.49219">
        <ele>775</ele>
        <time>2026-06-28T07:58:58.000Z</time>
      </trkpt>
      <trkpt lat="42.76996" lon="1.49213">
        <ele>776</ele>
        <time>2026-06-28T07:58:59.000Z</time>
      </trkpt>
      <trkpt lat="42.76996" lon="1.49208">
        <ele>775</ele>
        <time>2026-06-28T07:59:00.000Z</time>
      </trkpt>
      <trkpt lat="42.76997" lon="1.49203">
        <ele>775</ele>
        <time>2026-06-28T07:59:01.000Z</time>
      </trkpt>
      <trkpt lat="42.76997" lon="1.49198">
        <ele>775</ele>
        <time>2026-06-28T07:59:02.000Z</time>
      </trkpt>
      <trkpt lat="42.76997" lon="1.49193">
        <ele>775</ele>
        <time>2026-06-28T07:59:03.000Z</time>
      </trkpt>
      <trkpt lat="42.76997" lon="1.49189">
        <ele>775</ele>
        <time>2026-06-28T07:59:04.000Z</time>
      </trkpt>
      <trkpt lat="42.76996" lon="1.49183">
        <ele>775</ele>
        <time>2026-06-28T07:59:05.000Z</time>
      </trkpt>
      <trkpt lat="42.76996" lon="1.49178">
        <ele>775</ele>
        <time>2026-06-28T07:59:06.000Z</time>
      </trkpt>
      <trkpt lat="42.76996" lon="1.49172">
        <ele>775</ele>
        <time>2026-06-28T07:59:07.000Z</time>
      </trkpt>
      <trkpt lat="42.76996" lon="1.49166">
        <ele>775</ele>
        <time>2026-06-28T07:59:08.000Z</time>
      </trkpt>
      <trkpt lat="42.76996" lon="1.49161">
        <ele>775</ele>
        <time>2026-06-28T07:59:09.000Z</time>
      </trkpt>
      <trkpt lat="42.76996" lon="1.49157">
        <ele>776</ele>
        <time>2026-06-28T07:59:10.000Z</time>
      </trkpt>
      <trkpt lat="42.76996" lon="1.49151">
        <ele>776</ele>
        <time>2026-06-28T07:59:11.000Z</time>
      </trkpt>
      <trkpt lat="42.76996" lon="1.49147">
        <ele>776</ele>
        <time>2026-06-28T07:59:12.000Z</time>
      </trkpt>
      <trkpt lat="42.76996" lon="1.49142">
        <ele>776</ele>
        <time>2026-06-28T07:59:13.000Z</time>
      </trkpt>
      <trkpt lat="42.76996" lon="1.49138">
        <ele>776</ele>
        <time>2026-06-28T07:59:14.000Z</time>
      </trkpt>
      <trkpt lat="42.76997" lon="1.49133">
        <ele>777</ele>
        <time>2026-06-28T07:59:15.000Z</time>
      </trkpt>
      <trkpt lat="42.76998" lon="1.49128">
        <ele>777</ele>
        <time>2026-06-28T07:59:16.000Z</time>
      </trkpt>
      <trkpt lat="42.77" lon="1.49124">
        <ele>777</ele>
        <time>2026-06-28T07:59:17.000Z</time>
      </trkpt>
      <trkpt lat="42.77001" lon="1.4912">
        <ele>778</ele>
        <time>2026-06-28T07:59:18.000Z</time>
      </trkpt>
      <trkpt lat="42.77003" lon="1.49115">
        <ele>778</ele>
        <time>2026-06-28T07:59:19.000Z</time>
      </trkpt>
      <trkpt lat="42.77004" lon="1.49111">
        <ele>778</ele>
        <time>2026-06-28T07:59:20.000Z</time>
      </trkpt>
      <trkpt lat="42.77006" lon="1.49106">
        <ele>778</ele>
        <time>2026-06-28T07:59:21.000Z</time>
      </trkpt>
      <trkpt lat="42.77007" lon="1.49102">
        <ele>779</ele>
        <time>2026-06-28T07:59:22.000Z</time>
      </trkpt>
      <trkpt lat="42.77008" lon="1.49098">
        <ele>779</ele>
        <time>2026-06-28T07:59:23.000Z</time>
      </trkpt>
      <trkpt lat="42.7701" lon="1.49094">
        <ele>779</ele>
        <time>2026-06-28T07:59:24.000Z</time>
      </trkpt>
      <trkpt lat="42.77012" lon="1.4909">
        <ele>779</ele>
        <time>2026-06-28T07:59:25.000Z</time>
      </trkpt>
      <trkpt lat="42.77014" lon="1.49087">
        <ele>779</ele>
        <time>2026-06-28T07:59:26.000Z</time>
      </trkpt>
      <trkpt lat="42.77016" lon="1.49083">
        <ele>779</ele>
        <time>2026-06-28T07:59:27.000Z</time>
      </trkpt>
      <trkpt lat="42.77018" lon="1.4908">
        <ele>779</ele>
        <time>2026-06-28T07:59:28.000Z</time>
      </trkpt>
      <trkpt lat="42.77021" lon="1.49076">
        <ele>779</ele>
        <time>2026-06-28T07:59:29.000Z</time>
      </trkpt>
      <trkpt lat="42.77024" lon="1.49073">
        <ele>779</ele>
        <time>2026-06-28T07:59:30.000Z</time>
      </trkpt>
      <trkpt lat="42.77026" lon="1.49071">
        <ele>779</ele>
        <time>2026-06-28T07:59:31.000Z</time>
      </trkpt>
      <trkpt lat="42.77029" lon="1.49068">
        <ele>779</ele>
        <time>2026-06-28T07:59:32.000Z</time>
      </trkpt>
      <trkpt lat="42.77031" lon="1.49065">
        <ele>780</ele>
        <time>2026-06-28T07:59:33.000Z</time>
      </trkpt>
      <trkpt lat="42.77034" lon="1.49063">
        <ele>780</ele>
        <time>2026-06-28T07:59:34.000Z</time>
      </trkpt>
      <trkpt lat="42.77037" lon="1.49061">
        <ele>780</ele>
        <time>2026-06-28T07:59:35.000Z</time>
      </trkpt>
      <trkpt lat="42.7704" lon="1.49059">
        <ele>779</ele>
        <time>2026-06-28T07:59:36.000Z</time>
      </trkpt>
      <trkpt lat="42.77043" lon="1.49057">
        <ele>779</ele>
        <time>2026-06-28T07:59:37.000Z</time>
      </trkpt>
      <trkpt lat="42.77046" lon="1.49056">
        <ele>779</ele>
        <time>2026-06-28T07:59:38.000Z</time>
      </trkpt>
      <trkpt lat="42.77048" lon="1.49054">
        <ele>779</ele>
        <time>2026-06-28T07:59:39.000Z</time>
      </trkpt>
      <trkpt lat="42.7705" lon="1.49051">
        <ele>779</ele>
        <time>2026-06-28T07:59:40.000Z</time>
      </trkpt>
      <trkpt lat="42.77053" lon="1.49049">
        <ele>779</ele>
        <time>2026-06-28T07:59:41.000Z</time>
      </trkpt>
      <trkpt lat="42.77055" lon="1.49046">
        <ele>780</ele>
        <time>2026-06-28T07:59:42.000Z</time>
      </trkpt>
      <trkpt lat="42.77058" lon="1.49044">
        <ele>780</ele>
        <time>2026-06-28T07:59:43.000Z</time>
      </trkpt>
      <trkpt lat="42.77059" lon="1.49042">
        <ele>780</ele>
        <time>2026-06-28T07:59:44.000Z</time>
      </trkpt>
      <trkpt lat="42.77062" lon="1.49039">
        <ele>780</ele>
        <time>2026-06-28T07:59:45.000Z</time>
      </trkpt>
      <trkpt lat="42.77063" lon="1.49037">
        <ele>780</ele>
        <time>2026-06-28T07:59:46.000Z</time>
      </trkpt>
      <trkpt lat="42.77065" lon="1.49035">
        <ele>781</ele>
        <time>2026-06-28T07:59:47.000Z</time>
      </trkpt>
      <trkpt lat="42.77068" lon="1.49033">
        <ele>781</ele>
        <time>2026-06-28T07:59:48.000Z</time>
      </trkpt>
      <trkpt lat="42.7707" lon="1.4903">
        <ele>782</ele>
        <time>2026-06-28T07:59:49.000Z</time>
      </trkpt>
      <trkpt lat="42.77072" lon="1.49028">
        <ele>782</ele>
        <time>2026-06-28T07:59:50.000Z</time>
      </trkpt>
      <trkpt lat="42.77074" lon="1.49025">
        <ele>782</ele>
        <time>2026-06-28T07:59:51.000Z</time>
      </trkpt>
      <trkpt lat="42.77076" lon="1.49023">
        <ele>782</ele>
        <time>2026-06-28T07:59:52.000Z</time>
      </trkpt>
      <trkpt lat="42.77078" lon="1.49019">
        <ele>783</ele>
        <time>2026-06-28T07:59:53.000Z</time>
      </trkpt>
      <trkpt lat="42.7708" lon="1.49016">
        <ele>783</ele>
        <time>2026-06-28T07:59:54.000Z</time>
      </trkpt>
      <trkpt lat="42.77082" lon="1.49013">
        <ele>782</ele>
        <time>2026-06-28T07:59:55.000Z</time>
      </trkpt>
      <trkpt lat="42.77083" lon="1.4901">
        <ele>783</ele>
        <time>2026-06-28T07:59:56.000Z</time>
      </trkpt>
      <trkpt lat="42.77086" lon="1.49006">
        <ele>783</ele>
        <time>2026-06-28T07:59:57.000Z</time>
      </trkpt>
      <trkpt lat="42.77087" lon="1.49003">
        <ele>783</ele>
        <time>2026-06-28T07:59:58.000Z</time>
      </trkpt>
      <trkpt lat="42.77088" lon="1.49">
        <ele>783</ele>
        <time>2026-06-28T07:59:59.000Z</time>
      </trkpt>
      <trkpt lat="42.77089" lon="1.48996">
        <ele>783</ele>
        <time>2026-06-28T08:00:00.000Z</time>
      </trkpt>
      <trkpt lat="42.77091" lon="1.48993">
        <ele>783</ele>
        <time>2026-06-28T08:00:01.000Z</time>
      </trkpt>
      <trkpt lat="42.77092" lon="1.4899">
        <ele>784</ele>
        <time>2026-06-28T08:00:02.000Z</time>
      </trkpt>
      <trkpt lat="42.77094" lon="1.48986">
        <ele>784</ele>
        <time>2026-06-28T08:00:03.000Z</time>
      </trkpt>
      <trkpt lat="42.77095" lon="1.48984">
        <ele>785</ele>
        <time>2026-06-28T08:00:04.000Z</time>
      </trkpt>
      <trkpt lat="42.77097" lon="1.48981">
        <ele>785</ele>
        <time>2026-06-28T08:00:05.000Z</time>
      </trkpt>
      <trkpt lat="42.77098" lon="1.48978">
        <ele>785</ele>
        <time>2026-06-28T08:00:06.000Z</time>
      </trkpt>
      <trkpt lat="42.77099" lon="1.48976">
        <ele>786</ele>
        <time>2026-06-28T08:00:07.000Z</time>
      </trkpt>
      <trkpt lat="42.77101" lon="1.48973">
        <ele>787</ele>
        <time>2026-06-28T08:00:08.000Z</time>
      </trkpt>
      <trkpt lat="42.77102" lon="1.48971">
        <ele>787</ele>
        <time>2026-06-28T08:00:09.000Z</time>
      </trkpt>
      <trkpt lat="42.77104" lon="1.48968">
        <ele>787</ele>
        <time>2026-06-28T08:00:10.000Z</time>
      </trkpt>
      <trkpt lat="42.77105" lon="1.48966">
        <ele>787</ele>
        <time>2026-06-28T08:00:11.000Z</time>
      </trkpt>
      <trkpt lat="42.77106" lon="1.48963">
        <ele>789</ele>
        <time>2026-06-28T08:00:12.000Z</time>
      </trkpt>
      <trkpt lat="42.77107" lon="1.48961">
        <ele>790</ele>
        <time>2026-06-28T08:00:13.000Z</time>
      </trkpt>
      <trkpt lat="42.77108" lon="1.48958">
        <ele>790</ele>
        <time>2026-06-28T08:00:14.000Z</time>
      </trkpt>
      <trkpt lat="42.77109" lon="1.48955">
        <ele>791</ele>
        <time>2026-06-28T08:00:15.000Z</time>
      </trkpt>
      <trkpt lat="42.7711" lon="1.48952">
        <ele>791</ele>
        <time>2026-06-28T08:00:16.000Z</time>
      </trkpt>
      <trkpt lat="42.77111" lon="1.48949">
        <ele>791</ele>
        <time>2026-06-28T08:00:17.000Z</time>
      </trkpt>
      <trkpt lat="42.77112" lon="1.48947">
        <ele>791</ele>
        <time>2026-06-28T08:00:18.000Z</time>
      </trkpt>
      <trkpt lat="42.77113" lon="1.48944">
        <ele>792</ele>
        <time>2026-06-28T08:00:19.000Z</time>
      </trkpt>
      <trkpt lat="42.77114" lon="1.48941">
        <ele>792</ele>
        <time>2026-06-28T08:00:20.000Z</time>
      </trkpt>
      <trkpt lat="42.77114" lon="1.48936">
        <ele>792</ele>
        <time>2026-06-28T08:00:21.000Z</time>
      </trkpt>
      <trkpt lat="42.77116" lon="1.48933">
        <ele>792</ele>
        <time>2026-06-28T08:00:22.000Z</time>
      </trkpt>
      <trkpt lat="42.77117" lon="1.4893">
        <ele>792</ele>
        <time>2026-06-28T08:00:23.000Z</time>
      </trkpt>
      <trkpt lat="42.77117" lon="1.48926">
        <ele>791</ele>
        <time>2026-06-28T08:00:24.000Z</time>
      </trkpt>
      <trkpt lat="42.77119" lon="1.48923">
        <ele>791</ele>
        <time>2026-06-28T08:00:25.000Z</time>
      </trkpt>
      <trkpt lat="42.7712" lon="1.48919">
        <ele>792</ele>
        <time>2026-06-28T08:00:26.000Z</time>
      </trkpt>
      <trkpt lat="42.77121" lon="1.48915">
        <ele>792</ele>
        <time>2026-06-28T08:00:27.000Z</time>
      </trkpt>
      <trkpt lat="42.77122" lon="1.48912">
        <ele>792</ele>
        <time>2026-06-28T08:00:28.000Z</time>
      </trkpt>
      <trkpt lat="42.77123" lon="1.48908">
        <ele>792</ele>
        <time>2026-06-28T08:00:29.000Z</time>
      </trkpt>
      <trkpt lat="42.77124" lon="1.48905">
        <ele>792</ele>
        <time>2026-06-28T08:00:30.000Z</time>
      </trkpt>
      <trkpt lat="42.77125" lon="1.48902">
        <ele>792</ele>
        <time>2026-06-28T08:00:31.000Z</time>
      </trkpt>
      <trkpt lat="42.77125" lon="1.48898">
        <ele>792</ele>
        <time>2026-06-28T08:00:32.000Z</time>
      </trkpt>
      <trkpt lat="42.77126" lon="1.48895">
        <ele>792</ele>
        <time>2026-06-28T08:00:33.000Z</time>
      </trkpt>
      <trkpt lat="42.77127" lon="1.48891">
        <ele>793</ele>
        <time>2026-06-28T08:00:34.000Z</time>
      </trkpt>
      <trkpt lat="42.77128" lon="1.48888">
        <ele>792</ele>
        <time>2026-06-28T08:00:35.000Z</time>
      </trkpt>
      <trkpt lat="42.77128" lon="1.48884">
        <ele>793</ele>
        <time>2026-06-28T08:00:36.000Z</time>
      </trkpt>
      <trkpt lat="42.77129" lon="1.48881">
        <ele>792</ele>
        <time>2026-06-28T08:00:37.000Z</time>
      </trkpt>
      <trkpt lat="42.77131" lon="1.48879">
        <ele>792</ele>
        <time>2026-06-28T08:00:38.000Z</time>
      </trkpt>
      <trkpt lat="42.77131" lon="1.48876">
        <ele>792</ele>
        <time>2026-06-28T08:00:39.000Z</time>
      </trkpt>
      <trkpt lat="42.77132" lon="1.48872">
        <ele>793</ele>
        <time>2026-06-28T08:00:40.000Z</time>
      </trkpt>
      <trkpt lat="42.77132" lon="1.48869">
        <ele>793</ele>
        <time>2026-06-28T08:00:41.000Z</time>
      </trkpt>
      <trkpt lat="42.77133" lon="1.48866">
        <ele>793</ele>
        <time>2026-06-28T08:00:42.000Z</time>
      </trkpt>
      <trkpt lat="42.77135" lon="1.48863">
        <ele>793</ele>
        <time>2026-06-28T08:00:43.000Z</time>
      </trkpt>
      <trkpt lat="42.77136" lon="1.4886">
        <ele>794</ele>
        <time>2026-06-28T08:00:44.000Z</time>
      </trkpt>
      <trkpt lat="42.77137" lon="1.48858">
        <ele>794</ele>
        <time>2026-06-28T08:00:45.000Z</time>
      </trkpt>
      <trkpt lat="42.77139" lon="1.48856">
        <ele>794</ele>
        <time>2026-06-28T08:00:46.000Z</time>
      </trkpt>
      <trkpt lat="42.77141" lon="1.48853">
        <ele>795</ele>
        <time>2026-06-28T08:00:47.000Z</time>
      </trkpt>
      <trkpt lat="42.77142" lon="1.48852">
        <ele>795</ele>
        <time>2026-06-28T08:00:48.000Z</time>
      </trkpt>
      <trkpt lat="42.77144" lon="1.48849">
        <ele>795</ele>
        <time>2026-06-28T08:00:49.000Z</time>
      </trkpt>
      <trkpt lat="42.77146" lon="1.48848">
        <ele>796</ele>
        <time>2026-06-28T08:00:50.000Z</time>
      </trkpt>
      <trkpt lat="42.77148" lon="1.48845">
        <ele>796</ele>
        <time>2026-06-28T08:00:51.000Z</time>
      </trkpt>
      <trkpt lat="42.7715" lon="1.48844">
        <ele>797</ele>
        <time>2026-06-28T08:00:52.000Z</time>
      </trkpt>
      <trkpt lat="42.77152" lon="1.48842">
        <ele>797</ele>
        <time>2026-06-28T08:00:53.000Z</time>
      </trkpt>
      <trkpt lat="42.77154" lon="1.4884">
        <ele>797</ele>
        <time>2026-06-28T08:00:54.000Z</time>
      </trkpt>
      <trkpt lat="42.77156" lon="1.48839">
        <ele>797</ele>
        <time>2026-06-28T08:00:55.000Z</time>
      </trkpt>
      <trkpt lat="42.77158" lon="1.48838">
        <ele>797</ele>
        <time>2026-06-28T08:00:56.000Z</time>
      </trkpt>
      <trkpt lat="42.7716" lon="1.48837">
        <ele>797</ele>
        <time>2026-06-28T08:00:57.000Z</time>
      </trkpt>
      <trkpt lat="42.77162" lon="1.48835">
        <ele>797</ele>
        <time>2026-06-28T08:00:58.000Z</time>
      </trkpt>
      <trkpt lat="42.77165" lon="1.48833">
        <ele>798</ele>
        <time>2026-06-28T08:00:59.000Z</time>
      </trkpt>
      <trkpt lat="42.77167" lon="1.48832">
        <ele>798</ele>
        <time>2026-06-28T08:01:00.000Z</time>
      </trkpt>
      <trkpt lat="42.77168" lon="1.4883">
        <ele>799</ele>
        <time>2026-06-28T08:01:01.000Z</time>
      </trkpt>
      <trkpt lat="42.7717" lon="1.48827">
        <ele>799</ele>
        <time>2026-06-28T08:01:02.000Z</time>
      </trkpt>
      <trkpt lat="42.77172" lon="1.48826">
        <ele>799</ele>
        <time>2026-06-28T08:01:03.000Z</time>
      </trkpt>
      <trkpt lat="42.77174" lon="1.48824">
        <ele>799</ele>
        <time>2026-06-28T08:01:04.000Z</time>
      </trkpt>
      <trkpt lat="42.77176" lon="1.48822">
        <ele>798</ele>
        <time>2026-06-28T08:01:05.000Z</time>
      </trkpt>
      <trkpt lat="42.77178" lon="1.4882">
        <ele>798</ele>
        <time>2026-06-28T08:01:06.000Z</time>
      </trkpt>
      <trkpt lat="42.7718" lon="1.48819">
        <ele>798</ele>
        <time>2026-06-28T08:01:07.000Z</time>
      </trkpt>
      <trkpt lat="42.77182" lon="1.48816">
        <ele>798</ele>
        <time>2026-06-28T08:01:08.000Z</time>
      </trkpt>
      <trkpt lat="42.77184" lon="1.48814">
        <ele>798</ele>
        <time>2026-06-28T08:01:09.000Z</time>
      </trkpt>
      <trkpt lat="42.77185" lon="1.48812">
        <ele>798</ele>
        <time>2026-06-28T08:01:10.000Z</time>
      </trkpt>
      <trkpt lat="42.77187" lon="1.48809">
        <ele>799</ele>
        <time>2026-06-28T08:01:11.000Z</time>
      </trkpt>
      <trkpt lat="42.77189" lon="1.48806">
        <ele>798</ele>
        <time>2026-06-28T08:01:12.000Z</time>
      </trkpt>
      <trkpt lat="42.7719" lon="1.48804">
        <ele>799</ele>
        <time>2026-06-28T08:01:13.000Z</time>
      </trkpt>
      <trkpt lat="42.77193" lon="1.48801">
        <ele>799</ele>
        <time>2026-06-28T08:01:14.000Z</time>
      </trkpt>
      <trkpt lat="42.77194" lon="1.48798">
        <ele>799</ele>
        <time>2026-06-28T08:01:15.000Z</time>
      </trkpt>
      <trkpt lat="42.77196" lon="1.48794">
        <ele>799</ele>
        <time>2026-06-28T08:01:16.000Z</time>
      </trkpt>
      <trkpt lat="42.77197" lon="1.48791">
        <ele>800</ele>
        <time>2026-06-28T08:01:17.000Z</time>
      </trkpt>
      <trkpt lat="42.77199" lon="1.48789">
        <ele>800</ele>
        <time>2026-06-28T08:01:18.000Z</time>
      </trkpt>
      <trkpt lat="42.772" lon="1.48787">
        <ele>801</ele>
        <time>2026-06-28T08:01:19.000Z</time>
      </trkpt>
      <trkpt lat="42.77201" lon="1.48785">
        <ele>801</ele>
        <time>2026-06-28T08:01:20.000Z</time>
      </trkpt>
      <trkpt lat="42.77203" lon="1.48783">
        <ele>801</ele>
        <time>2026-06-28T08:01:21.000Z</time>
      </trkpt>
      <trkpt lat="42.77204" lon="1.4878">
        <ele>801</ele>
        <time>2026-06-28T08:01:22.000Z</time>
      </trkpt>
      <trkpt lat="42.77205" lon="1.48777">
        <ele>802</ele>
        <time>2026-06-28T08:01:23.000Z</time>
      </trkpt>
      <trkpt lat="42.77207" lon="1.48775">
        <ele>802</ele>
        <time>2026-06-28T08:01:24.000Z</time>
      </trkpt>
      <trkpt lat="42.77208" lon="1.48772">
        <ele>802</ele>
        <time>2026-06-28T08:01:25.000Z</time>
      </trkpt>
      <trkpt lat="42.77209" lon="1.48769">
        <ele>802</ele>
        <time>2026-06-28T08:01:26.000Z</time>
      </trkpt>
      <trkpt lat="42.77211" lon="1.48767">
        <ele>802</ele>
        <time>2026-06-28T08:01:27.000Z</time>
      </trkpt>
      <trkpt lat="42.77212" lon="1.48764">
        <ele>802</ele>
        <time>2026-06-28T08:01:28.000Z</time>
      </trkpt>
      <trkpt lat="42.77213" lon="1.48761">
        <ele>802</ele>
        <time>2026-06-28T08:01:29.000Z</time>
      </trkpt>
      <trkpt lat="42.77215" lon="1.48759">
        <ele>802</ele>
        <time>2026-06-28T08:01:30.000Z</time>
      </trkpt>
      <trkpt lat="42.77216" lon="1.48756">
        <ele>803</ele>
        <time>2026-06-28T08:01:31.000Z</time>
      </trkpt>
      <trkpt lat="42.77217" lon="1.48753">
        <ele>803</ele>
        <time>2026-06-28T08:01:32.000Z</time>
      </trkpt>
      <trkpt lat="42.77218" lon="1.4875">
        <ele>803</ele>
        <time>2026-06-28T08:01:33.000Z</time>
      </trkpt>
      <trkpt lat="42.77219" lon="1.48747">
        <ele>803</ele>
        <time>2026-06-28T08:01:34.000Z</time>
      </trkpt>
      <trkpt lat="42.77221" lon="1.48745">
        <ele>803</ele>
        <time>2026-06-28T08:01:35.000Z</time>
      </trkpt>
      <trkpt lat="42.77223" lon="1.48743">
        <ele>804</ele>
        <time>2026-06-28T08:01:36.000Z</time>
      </trkpt>
      <trkpt lat="42.77224" lon="1.4874">
        <ele>805</ele>
        <time>2026-06-28T08:01:37.000Z</time>
      </trkpt>
      <trkpt lat="42.77226" lon="1.48737">
        <ele>805</ele>
        <time>2026-06-28T08:01:38.000Z</time>
      </trkpt>
      <trkpt lat="42.77227" lon="1.48734">
        <ele>804</ele>
        <time>2026-06-28T08:01:39.000Z</time>
      </trkpt>
      <trkpt lat="42.77229" lon="1.48731">
        <ele>805</ele>
        <time>2026-06-28T08:01:40.000Z</time>
      </trkpt>
      <trkpt lat="42.7723" lon="1.48729">
        <ele>805</ele>
        <time>2026-06-28T08:01:41.000Z</time>
      </trkpt>
      <trkpt lat="42.77231" lon="1.48726">
        <ele>805</ele>
        <time>2026-06-28T08:01:42.000Z</time>
      </trkpt>
      <trkpt lat="42.77232" lon="1.48723">
        <ele>806</ele>
        <time>2026-06-28T08:01:43.000Z</time>
      </trkpt>
      <trkpt lat="42.77234" lon="1.48721">
        <ele>806</ele>
        <time>2026-06-28T08:01:44.000Z</time>
      </trkpt>
      <trkpt lat="42.77234" lon="1.48719">
        <ele>806</ele>
        <time>2026-06-28T08:01:45.000Z</time>
      </trkpt>
      <trkpt lat="42.77235" lon="1.48716">
        <ele>806</ele>
        <time>2026-06-28T08:01:46.000Z</time>
      </trkpt>
      <trkpt lat="42.77236" lon="1.48714">
        <ele>807</ele>
        <time>2026-06-28T08:01:47.000Z</time>
      </trkpt>
      <trkpt lat="42.77238" lon="1.48711">
        <ele>806</ele>
        <time>2026-06-28T08:01:48.000Z</time>
      </trkpt>
      <trkpt lat="42.77239" lon="1.48708">
        <ele>807</ele>
        <time>2026-06-28T08:01:49.000Z</time>
      </trkpt>
      <trkpt lat="42.77241" lon="1.48706">
        <ele>807</ele>
        <time>2026-06-28T08:01:50.000Z</time>
      </trkpt>
      <trkpt lat="42.77242" lon="1.48703">
        <ele>806</ele>
        <time>2026-06-28T08:01:51.000Z</time>
      </trkpt>
      <trkpt lat="42.77244" lon="1.48701">
        <ele>806</ele>
        <time>2026-06-28T08:01:52.000Z</time>
      </trkpt>
      <trkpt lat="42.77245" lon="1.48699">
        <ele>807</ele>
        <time>2026-06-28T08:01:53.000Z</time>
      </trkpt>
      <trkpt lat="42.77247" lon="1.48697">
        <ele>807</ele>
        <time>2026-06-28T08:01:54.000Z</time>
      </trkpt>
      <trkpt lat="42.77248" lon="1.48694">
        <ele>807</ele>
        <time>2026-06-28T08:01:55.000Z</time>
      </trkpt>
      <trkpt lat="42.7725" lon="1.48692">
        <ele>807</ele>
        <time>2026-06-28T08:01:56.000Z</time>
      </trkpt>
      <trkpt lat="42.77252" lon="1.48689">
        <ele>808</ele>
        <time>2026-06-28T08:01:57.000Z</time>
      </trkpt>
      <trkpt lat="42.77254" lon="1.48687">
        <ele>807</ele>
        <time>2026-06-28T08:01:58.000Z</time>
      </trkpt>
      <trkpt lat="42.77256" lon="1.48686">
        <ele>807</ele>
        <time>2026-06-28T08:01:59.000Z</time>
      </trkpt>
      <trkpt lat="42.77259" lon="1.48684">
        <ele>807</ele>
        <time>2026-06-28T08:02:00.000Z</time>
      </trkpt>
      <trkpt lat="42.77261" lon="1.48682">
        <ele>807</ele>
        <time>2026-06-28T08:02:01.000Z</time>
      </trkpt>
      <trkpt lat="42.77263" lon="1.48679">
        <ele>808</ele>
        <time>2026-06-28T08:02:02.000Z</time>
      </trkpt>
      <trkpt lat="42.77264" lon="1.48677">
        <ele>808</ele>
        <time>2026-06-28T08:02:03.000Z</time>
      </trkpt>
      <trkpt lat="42.77265" lon="1.48675">
        <ele>808</ele>
        <time>2026-06-28T08:02:04.000Z</time>
      </trkpt>
      <trkpt lat="42.77266" lon="1.48673">
        <ele>808</ele>
        <time>2026-06-28T08:02:05.000Z</time>
      </trkpt>
      <trkpt lat="42.77267" lon="1.48671">
        <ele>809</ele>
        <time>2026-06-28T08:02:06.000Z</time>
      </trkpt>
      <trkpt lat="42.77267" lon="1.48669">
        <ele>809</ele>
        <time>2026-06-28T08:02:07.000Z</time>
      </trkpt>
      <trkpt lat="42.77269" lon="1.48667">
        <ele>809</ele>
        <time>2026-06-28T08:02:08.000Z</time>
      </trkpt>
      <trkpt lat="42.7727" lon="1.48665">
        <ele>810</ele>
        <time>2026-06-28T08:02:09.000Z</time>
      </trkpt>
      <trkpt lat="42.77272" lon="1.48664">
        <ele>810</ele>
        <time>2026-06-28T08:02:10.000Z</time>
      </trkpt>
      <trkpt lat="42.77274" lon="1.48663">
        <ele>810</ele>
        <time>2026-06-28T08:02:11.000Z</time>
      </trkpt>
      <trkpt lat="42.77276" lon="1.48663">
        <ele>810</ele>
        <time>2026-06-28T08:02:12.000Z</time>
      </trkpt>
      <trkpt lat="42.77278" lon="1.48661">
        <ele>810</ele>
        <time>2026-06-28T08:02:13.000Z</time>
      </trkpt>
      <trkpt lat="42.7728" lon="1.48661">
        <ele>811</ele>
        <time>2026-06-28T08:02:14.000Z</time>
      </trkpt>
      <trkpt lat="42.77282" lon="1.48661">
        <ele>810</ele>
        <time>2026-06-28T08:02:15.000Z</time>
      </trkpt>
      <trkpt lat="42.77284" lon="1.4866">
        <ele>810</ele>
        <time>2026-06-28T08:02:16.000Z</time>
      </trkpt>
      <trkpt lat="42.77286" lon="1.48658">
        <ele>810</ele>
        <time>2026-06-28T08:02:17.000Z</time>
      </trkpt>
      <trkpt lat="42.77289" lon="1.48656">
        <ele>810</ele>
        <time>2026-06-28T08:02:18.000Z</time>
      </trkpt>
      <trkpt lat="42.77292" lon="1.48655">
        <ele>810</ele>
        <time>2026-06-28T08:02:19.000Z</time>
      </trkpt>
      <trkpt lat="42.77294" lon="1.48655">
        <ele>810</ele>
        <time>2026-06-28T08:02:20.000Z</time>
      </trkpt>
      <trkpt lat="42.77296" lon="1.48654">
        <ele>810</ele>
        <time>2026-06-28T08:02:21.000Z</time>
      </trkpt>
      <trkpt lat="42.77298" lon="1.48653">
        <ele>811</ele>
        <time>2026-06-28T08:02:22.000Z</time>
      </trkpt>
      <trkpt lat="42.773" lon="1.48653">
        <ele>811</ele>
        <time>2026-06-28T08:02:23.000Z</time>
      </trkpt>
      <trkpt lat="42.77301" lon="1.48654">
        <ele>812</ele>
        <time>2026-06-28T08:02:24.000Z</time>
      </trkpt>
      <trkpt lat="42.77303" lon="1.48653">
        <ele>812</ele>
        <time>2026-06-28T08:02:25.000Z</time>
      </trkpt>
      <trkpt lat="42.77305" lon="1.48653">
        <ele>811</ele>
        <time>2026-06-28T08:02:26.000Z</time>
      </trkpt>
      <trkpt lat="42.77307" lon="1.48653">
        <ele>812</ele>
        <time>2026-06-28T08:02:27.000Z</time>
      </trkpt>
      <trkpt lat="42.77309" lon="1.48653">
        <ele>813</ele>
        <time>2026-06-28T08:02:28.000Z</time>
      </trkpt>
      <trkpt lat="42.77311" lon="1.48654">
        <ele>813</ele>
        <time>2026-06-28T08:02:29.000Z</time>
      </trkpt>
      <trkpt lat="42.77313" lon="1.48654">
        <ele>813</ele>
        <time>2026-06-28T08:02:30.000Z</time>
      </trkpt>
      <trkpt lat="42.77316" lon="1.48655">
        <ele>813</ele>
        <time>2026-06-28T08:02:31.000Z</time>
      </trkpt>
      <trkpt lat="42.77319" lon="1.48655">
        <ele>813</ele>
        <time>2026-06-28T08:02:32.000Z</time>
      </trkpt>
      <trkpt lat="42.77323" lon="1.48657">
        <ele>814</ele>
        <time>2026-06-28T08:02:33.000Z</time>
      </trkpt>
      <trkpt lat="42.77326" lon="1.48658">
        <ele>814</ele>
        <time>2026-06-28T08:02:34.000Z</time>
      </trkpt>
      <trkpt lat="42.77328" lon="1.48659">
        <ele>814</ele>
        <time>2026-06-28T08:02:35.000Z</time>
      </trkpt>
      <trkpt lat="42.7733" lon="1.4866">
        <ele>814</ele>
        <time>2026-06-28T08:02:36.000Z</time>
      </trkpt>
      <trkpt lat="42.77332" lon="1.4866">
        <ele>814</ele>
        <time>2026-06-28T08:02:37.000Z</time>
      </trkpt>
      <trkpt lat="42.77333" lon="1.48659">
        <ele>813</ele>
        <time>2026-06-28T08:02:38.000Z</time>
      </trkpt>
      <trkpt lat="42.77335" lon="1.48659">
        <ele>813</ele>
        <time>2026-06-28T08:02:39.000Z</time>
      </trkpt>
      <trkpt lat="42.77338" lon="1.48659">
        <ele>814</ele>
        <time>2026-06-28T08:02:40.000Z</time>
      </trkpt>
      <trkpt lat="42.7734" lon="1.48659">
        <ele>814</ele>
        <time>2026-06-28T08:02:41.000Z</time>
      </trkpt>
      <trkpt lat="42.77343" lon="1.48658">
        <ele>815</ele>
        <time>2026-06-28T08:02:42.000Z</time>
      </trkpt>
      <trkpt lat="42.77345" lon="1.48658">
        <ele>814</ele>
        <time>2026-06-28T08:02:43.000Z</time>
      </trkpt>
      <trkpt lat="42.77348" lon="1.48658">
        <ele>815</ele>
        <time>2026-06-28T08:02:44.000Z</time>
      </trkpt>
      <trkpt lat="42.77351" lon="1.48657">
        <ele>815</ele>
        <time>2026-06-28T08:02:45.000Z</time>
      </trkpt>
      <trkpt lat="42.77354" lon="1.48655">
        <ele>816</ele>
        <time>2026-06-28T08:02:46.000Z</time>
      </trkpt>
      <trkpt lat="42.77356" lon="1.48654">
        <ele>816</ele>
        <time>2026-06-28T08:02:47.000Z</time>
      </trkpt>
      <trkpt lat="42.77358" lon="1.48652">
        <ele>816</ele>
        <time>2026-06-28T08:02:48.000Z</time>
      </trkpt>
      <trkpt lat="42.7736" lon="1.4865">
        <ele>816</ele>
        <time>2026-06-28T08:02:49.000Z</time>
      </trkpt>
      <trkpt lat="42.77362" lon="1.48647">
        <ele>816</ele>
        <time>2026-06-28T08:02:50.000Z</time>
      </trkpt>
      <trkpt lat="42.77363" lon="1.48646">
        <ele>816</ele>
        <time>2026-06-28T08:02:51.000Z</time>
      </trkpt>
      <trkpt lat="42.77363" lon="1.48645">
        <ele>816</ele>
        <time>2026-06-28T08:02:52.000Z</time>
      </trkpt>
      <trkpt lat="42.77364" lon="1.48643">
        <ele>817</ele>
        <time>2026-06-28T08:02:53.000Z</time>
      </trkpt>
      <trkpt lat="42.77365" lon="1.48643">
        <ele>817</ele>
        <time>2026-06-28T08:02:54.000Z</time>
      </trkpt>
      <trkpt lat="42.77367" lon="1.48643">
        <ele>817</ele>
        <time>2026-06-28T08:02:55.000Z</time>
      </trkpt>
      <trkpt lat="42.77367" lon="1.48641">
        <ele>817</ele>
        <time>2026-06-28T08:02:56.000Z</time>
      </trkpt>
      <trkpt lat="42.77368" lon="1.48639">
        <ele>817</ele>
        <time>2026-06-28T08:02:57.000Z</time>
      </trkpt>
      <trkpt lat="42.77368" lon="1.48636">
        <ele>817</ele>
        <time>2026-06-28T08:02:58.000Z</time>
      </trkpt>
      <trkpt lat="42.77368" lon="1.48632">
        <ele>816</ele>
        <time>2026-06-28T08:02:59.000Z</time>
      </trkpt>
      <trkpt lat="42.77368" lon="1.48629">
        <ele>816</ele>
        <time>2026-06-28T08:03:00.000Z</time>
      </trkpt>
      <trkpt lat="42.77368" lon="1.48626">
        <ele>816</ele>
        <time>2026-06-28T08:03:01.000Z</time>
      </trkpt>
      <trkpt lat="42.77368" lon="1.48622">
        <ele>816</ele>
        <time>2026-06-28T08:03:02.000Z</time>
      </trkpt>
      <trkpt lat="42.77368" lon="1.48621">
        <ele>816</ele>
        <time>2026-06-28T08:03:03.000Z</time>
      </trkpt>
      <trkpt lat="42.77368" lon="1.48619">
        <ele>816</ele>
        <time>2026-06-28T08:03:04.000Z</time>
      </trkpt>
      <trkpt lat="42.77368" lon="1.48617">
        <ele>816</ele>
        <time>2026-06-28T08:03:05.000Z</time>
      </trkpt>
      <trkpt lat="42.77367" lon="1.48615">
        <ele>816</ele>
        <time>2026-06-28T08:03:06.000Z</time>
      </trkpt>
      <trkpt lat="42.77366" lon="1.48613">
        <ele>816</ele>
        <time>2026-06-28T08:03:07.000Z</time>
      </trkpt>
      <trkpt lat="42.77366" lon="1.48612">
        <ele>815</ele>
        <time>2026-06-28T08:03:08.000Z</time>
      </trkpt>
      <trkpt lat="42.77365" lon="1.4861">
        <ele>815</ele>
        <time>2026-06-28T08:03:09.000Z</time>
      </trkpt>
      <trkpt lat="42.77364" lon="1.48609">
        <ele>815</ele>
        <time>2026-06-28T08:03:10.000Z</time>
      </trkpt>
      <trkpt lat="42.77363" lon="1.48607">
        <ele>815</ele>
        <time>2026-06-28T08:03:11.000Z</time>
      </trkpt>
      <trkpt lat="42.77362" lon="1.48605">
        <ele>815</ele>
        <time>2026-06-28T08:03:12.000Z</time>
      </trkpt>
      <trkpt lat="42.77361" lon="1.48603">
        <ele>815</ele>
        <time>2026-06-28T08:03:13.000Z</time>
      </trkpt>
      <trkpt lat="42.7736" lon="1.48601">
        <ele>814</ele>
        <time>2026-06-28T08:03:14.000Z</time>
      </trkpt>
      <trkpt lat="42.77359" lon="1.48599">
        <ele>815</ele>
        <time>2026-06-28T08:03:15.000Z</time>
      </trkpt>
      <trkpt lat="42.77357" lon="1.48598">
        <ele>814</ele>
        <time>2026-06-28T08:03:16.000Z</time>
      </trkpt>
      <trkpt lat="42.77355" lon="1.48597">
        <ele>815</ele>
        <time>2026-06-28T08:03:17.000Z</time>
      </trkpt>
      <trkpt lat="42.77354" lon="1.48596">
        <ele>815</ele>
        <time>2026-06-28T08:03:18.000Z</time>
      </trkpt>
      <trkpt lat="42.77353" lon="1.48594">
        <ele>815</ele>
        <time>2026-06-28T08:03:19.000Z</time>
      </trkpt>
      <trkpt lat="42.77351" lon="1.48594">
        <ele>816</ele>
        <time>2026-06-28T08:03:20.000Z</time>
      </trkpt>
      <trkpt lat="42.7735" lon="1.48593">
        <ele>816</ele>
        <time>2026-06-28T08:03:21.000Z</time>
      </trkpt>
      <trkpt lat="42.77349" lon="1.48592">
        <ele>816</ele>
        <time>2026-06-28T08:03:22.000Z</time>
      </trkpt>
      <trkpt lat="42.77347" lon="1.4859">
        <ele>817</ele>
        <time>2026-06-28T08:03:23.000Z</time>
      </trkpt>
      <trkpt lat="42.77345" lon="1.48588">
        <ele>817</ele>
        <time>2026-06-28T08:03:24.000Z</time>
      </trkpt>
      <trkpt lat="42.77344" lon="1.48585">
        <ele>818</ele>
        <time>2026-06-28T08:03:25.000Z</time>
      </trkpt>
      <trkpt lat="42.77342" lon="1.48583">
        <ele>819</ele>
        <time>2026-06-28T08:03:26.000Z</time>
      </trkpt>
      <trkpt lat="42.7734" lon="1.4858">
        <ele>819</ele>
        <time>2026-06-28T08:03:27.000Z</time>
      </trkpt>
      <trkpt lat="42.77338" lon="1.48578">
        <ele>820</ele>
        <time>2026-06-28T08:03:28.000Z</time>
      </trkpt>
      <trkpt lat="42.77334" lon="1.48576">
        <ele>821</ele>
        <time>2026-06-28T08:03:29.000Z</time>
      </trkpt>
      <trkpt lat="42.77331" lon="1.48573">
        <ele>822</ele>
        <time>2026-06-28T08:03:30.000Z</time>
      </trkpt>
      <trkpt lat="42.77327" lon="1.48571">
        <ele>823</ele>
        <time>2026-06-28T08:03:31.000Z</time>
      </trkpt>
      <trkpt lat="42.77323" lon="1.48569">
        <ele>824</ele>
        <time>2026-06-28T08:03:32.000Z</time>
      </trkpt>
      <trkpt lat="42.77316" lon="1.48565">
        <ele>826</ele>
        <time>2026-06-28T08:03:33.000Z</time>
      </trkpt>
      <trkpt lat="42.7731" lon="1.48562">
        <ele>829</ele>
        <time>2026-06-28T08:03:34.000Z</time>
      </trkpt>
      <trkpt lat="42.77306" lon="1.4856">
        <ele>830</ele>
        <time>2026-06-28T08:03:35.000Z</time>
      </trkpt>
      <trkpt lat="42.77301" lon="1.48559">
        <ele>831</ele>
        <time>2026-06-28T08:03:36.000Z</time>
      </trkpt>
      <trkpt lat="42.77297" lon="1.48557">
        <ele>831</ele>
        <time>2026-06-28T08:03:37.000Z</time>
      </trkpt>
      <trkpt lat="42.77293" lon="1.48555">
        <ele>830</ele>
        <time>2026-06-28T08:03:38.000Z</time>
      </trkpt>
      <trkpt lat="42.77289" lon="1.48553">
        <ele>829</ele>
        <time>2026-06-28T08:03:39.000Z</time>
      </trkpt>
      <trkpt lat="42.77285" lon="1.48552">
        <ele>829</ele>
        <time>2026-06-28T08:03:40.000Z</time>
      </trkpt>
      <trkpt lat="42.77281" lon="1.48551">
        <ele>830</ele>
        <time>2026-06-28T08:03:41.000Z</time>
      </trkpt>
      <trkpt lat="42.77278" lon="1.48552">
        <ele>830</ele>
        <time>2026-06-28T08:03:42.000Z</time>
      </trkpt>
      <trkpt lat="42.77276" lon="1.48552">
        <ele>829</ele>
        <time>2026-06-28T08:03:43.000Z</time>
      </trkpt>
      <trkpt lat="42.77273" lon="1.48551">
        <ele>829</ele>
        <time>2026-06-28T08:03:44.000Z</time>
      </trkpt>
      <trkpt lat="42.7727" lon="1.48552">
        <ele>829</ele>
        <time>2026-06-28T08:03:45.000Z</time>
      </trkpt>
      <trkpt lat="42.77268" lon="1.48553">
        <ele>829</ele>
        <time>2026-06-28T08:03:46.000Z</time>
      </trkpt>
      <trkpt lat="42.77267" lon="1.48553">
        <ele>829</ele>
        <time>2026-06-28T08:03:47.000Z</time>
      </trkpt>
      <trkpt lat="42.77265" lon="1.48553">
        <ele>829</ele>
        <time>2026-06-28T08:03:48.000Z</time>
      </trkpt>
      <trkpt lat="42.77263" lon="1.48553">
        <ele>828</ele>
        <time>2026-06-28T08:03:49.000Z</time>
      </trkpt>
      <trkpt lat="42.77261" lon="1.48554">
        <ele>828</ele>
        <time>2026-06-28T08:03:50.000Z</time>
      </trkpt>
      <trkpt lat="42.77259" lon="1.48555">
        <ele>828</ele>
        <time>2026-06-28T08:03:51.000Z</time>
      </trkpt>
      <trkpt lat="42.77257" lon="1.48556">
        <ele>828</ele>
        <time>2026-06-28T08:03:52.000Z</time>
      </trkpt>
      <trkpt lat="42.77254" lon="1.48558">
        <ele>827</ele>
        <time>2026-06-28T08:03:53.000Z</time>
      </trkpt>
      <trkpt lat="42.77252" lon="1.48559">
        <ele>827</ele>
        <time>2026-06-28T08:03:54.000Z</time>
      </trkpt>
      <trkpt lat="42.7725" lon="1.4856">
        <ele>827</ele>
        <time>2026-06-28T08:03:55.000Z</time>
      </trkpt>
      <trkpt lat="42.77247" lon="1.48561">
        <ele>827</ele>
        <time>2026-06-28T08:03:56.000Z</time>
      </trkpt>
      <trkpt lat="42.77247" lon="1.48561">
        <ele>828</ele>
        <time>2026-06-28T08:03:57.000Z</time>
      </trkpt>
      <trkpt lat="42.77247" lon="1.48562">
        <ele>829</ele>
        <time>2026-06-28T08:03:58.000Z</time>
      </trkpt>
      <trkpt lat="42.77248" lon="1.48562">
        <ele>831</ele>
        <time>2026-06-28T08:03:59.000Z</time>
      </trkpt>
      <trkpt lat="42.77249" lon="1.48561">
        <ele>832</ele>
        <time>2026-06-28T08:04:00.000Z</time>
      </trkpt>
      <trkpt lat="42.77249" lon="1.4856">
        <ele>833</ele>
        <time>2026-06-28T08:04:01.000Z</time>
      </trkpt>
      <trkpt lat="42.7725" lon="1.4856">
        <ele>833</ele>
        <time>2026-06-28T08:04:02.000Z</time>
      </trkpt>
      <trkpt lat="42.77251" lon="1.48559">
        <ele>834</ele>
        <time>2026-06-28T08:04:03.000Z</time>
      </trkpt>
      <trkpt lat="42.77252" lon="1.48558">
        <ele>834</ele>
        <time>2026-06-28T08:04:04.000Z</time>
      </trkpt>
      <trkpt lat="42.77253" lon="1.48556">
        <ele>835</ele>
        <time>2026-06-28T08:04:05.000Z</time>
      </trkpt>
      <trkpt lat="42.77254" lon="1.48555">
        <ele>835</ele>
        <time>2026-06-28T08:04:06.000Z</time>
      </trkpt>
      <trkpt lat="42.77254" lon="1.48554">
        <ele>836</ele>
        <time>2026-06-28T08:04:07.000Z</time>
      </trkpt>
      <trkpt lat="42.77255" lon="1.48552">
        <ele>836</ele>
        <time>2026-06-28T08:04:08.000Z</time>
      </trkpt>
      <trkpt lat="42.77256" lon="1.48549">
        <ele>837</ele>
        <time>2026-06-28T08:04:09.000Z</time>
      </trkpt>
      <trkpt lat="42.77257" lon="1.48547">
        <ele>837</ele>
        <time>2026-06-28T08:04:10.000Z</time>
      </trkpt>
      <trkpt lat="42.77258" lon="1.48544">
        <ele>837</ele>
        <time>2026-06-28T08:04:11.000Z</time>
      </trkpt>
      <trkpt lat="42.77259" lon="1.48541">
        <ele>837</ele>
        <time>2026-06-28T08:04:12.000Z</time>
      </trkpt>
      <trkpt lat="42.77259" lon="1.48538">
        <ele>837</ele>
        <time>2026-06-28T08:04:13.000Z</time>
      </trkpt>
      <trkpt lat="42.7726" lon="1.48535">
        <ele>837</ele>
        <time>2026-06-28T08:04:14.000Z</time>
      </trkpt>
      <trkpt lat="42.77261" lon="1.48532">
        <ele>837</ele>
        <time>2026-06-28T08:04:15.000Z</time>
      </trkpt>
      <trkpt lat="42.77261" lon="1.4853">
        <ele>838</ele>
        <time>2026-06-28T08:04:16.000Z</time>
      </trkpt>
      <trkpt lat="42.77261" lon="1.48528">
        <ele>838</ele>
        <time>2026-06-28T08:04:17.000Z</time>
      </trkpt>
      <trkpt lat="42.7726" lon="1.48525">
        <ele>838</ele>
        <time>2026-06-28T08:04:18.000Z</time>
      </trkpt>
      <trkpt lat="42.7726" lon="1.48522">
        <ele>838</ele>
        <time>2026-06-28T08:04:19.000Z</time>
      </trkpt>
      <trkpt lat="42.77259" lon="1.48519">
        <ele>838</ele>
        <time>2026-06-28T08:04:20.000Z</time>
      </trkpt>
      <trkpt lat="42.77258" lon="1.48516">
        <ele>838</ele>
        <time>2026-06-28T08:04:21.000Z</time>
      </trkpt>
      <trkpt lat="42.77257" lon="1.48514">
        <ele>838</ele>
        <time>2026-06-28T08:04:22.000Z</time>
      </trkpt>
      <trkpt lat="42.77255" lon="1.48513">
        <ele>838</ele>
        <time>2026-06-28T08:04:23.000Z</time>
      </trkpt>
      <trkpt lat="42.77255" lon="1.48512">
        <ele>838</ele>
        <time>2026-06-28T08:04:24.000Z</time>
      </trkpt>
      <trkpt lat="42.77253" lon="1.48512">
        <ele>838</ele>
        <time>2026-06-28T08:04:25.000Z</time>
      </trkpt>
      <trkpt lat="42.77252" lon="1.48511">
        <ele>838</ele>
        <time>2026-06-28T08:04:26.000Z</time>
      </trkpt>
      <trkpt lat="42.77251" lon="1.48511">
        <ele>838</ele>
        <time>2026-06-28T08:04:27.000Z</time>
      </trkpt>
      <trkpt lat="42.77249" lon="1.48509">
        <ele>838</ele>
        <time>2026-06-28T08:04:28.000Z</time>
      </trkpt>
      <trkpt lat="42.77248" lon="1.48507">
        <ele>838</ele>
        <time>2026-06-28T08:04:29.000Z</time>
      </trkpt>
      <trkpt lat="42.77245" lon="1.48506">
        <ele>838</ele>
        <time>2026-06-28T08:04:30.000Z</time>
      </trkpt>
      <trkpt lat="42.77242" lon="1.48505">
        <ele>838</ele>
        <time>2026-06-28T08:04:31.000Z</time>
      </trkpt>
      <trkpt lat="42.7724" lon="1.48503">
        <ele>838</ele>
        <time>2026-06-28T08:04:32.000Z</time>
      </trkpt>
      <trkpt lat="42.77237" lon="1.48502">
        <ele>838</ele>
        <time>2026-06-28T08:04:33.000Z</time>
      </trkpt>
      <trkpt lat="42.77235" lon="1.48501">
        <ele>837</ele>
        <time>2026-06-28T08:04:34.000Z</time>
      </trkpt>
      <trkpt lat="42.77232" lon="1.48501">
        <ele>837</ele>
        <time>2026-06-28T08:04:35.000Z</time>
      </trkpt>
      <trkpt lat="42.77229" lon="1.485">
        <ele>837</ele>
        <time>2026-06-28T08:04:36.000Z</time>
      </trkpt>
      <trkpt lat="42.77227" lon="1.48501">
        <ele>837</ele>
        <time>2026-06-28T08:04:37.000Z</time>
      </trkpt>
      <trkpt lat="42.77224" lon="1.48501">
        <ele>837</ele>
        <time>2026-06-28T08:04:38.000Z</time>
      </trkpt>
      <trkpt lat="42.77222" lon="1.485">
        <ele>837</ele>
        <time>2026-06-28T08:04:39.000Z</time>
      </trkpt>
      <trkpt lat="42.7722" lon="1.485">
        <ele>837</ele>
        <time>2026-06-28T08:04:40.000Z</time>
      </trkpt>
      <trkpt lat="42.77216" lon="1.48501">
        <ele>837</ele>
        <time>2026-06-28T08:04:41.000Z</time>
      </trkpt>
      <trkpt lat="42.77213" lon="1.48502">
        <ele>837</ele>
        <time>2026-06-28T08:04:42.000Z</time>
      </trkpt>
      <trkpt lat="42.77209" lon="1.48503">
        <ele>837</ele>
        <time>2026-06-28T08:04:43.000Z</time>
      </trkpt>
      <trkpt lat="42.77205" lon="1.48504">
        <ele>837</ele>
        <time>2026-06-28T08:04:44.000Z</time>
      </trkpt>
      <trkpt lat="42.77201" lon="1.48505">
        <ele>837</ele>
        <time>2026-06-28T08:04:45.000Z</time>
      </trkpt>
      <trkpt lat="42.77198" lon="1.48505">
        <ele>837</ele>
        <time>2026-06-28T08:04:46.000Z</time>
      </trkpt>
      <trkpt lat="42.77195" lon="1.48505">
        <ele>837</ele>
        <time>2026-06-28T08:04:47.000Z</time>
      </trkpt>
      <trkpt lat="42.77192" lon="1.48505">
        <ele>837</ele>
        <time>2026-06-28T08:04:48.000Z</time>
      </trkpt>
      <trkpt lat="42.77189" lon="1.48505">
        <ele>837</ele>
        <time>2026-06-28T08:04:49.000Z</time>
      </trkpt>
      <trkpt lat="42.77185" lon="1.48506">
        <ele>837</ele>
        <time>2026-06-28T08:04:50.000Z</time>
      </trkpt>
      <trkpt lat="42.77183" lon="1.48506">
        <ele>837</ele>
        <time>2026-06-28T08:04:51.000Z</time>
      </trkpt>
      <trkpt lat="42.7718" lon="1.48507">
        <ele>837</ele>
        <time>2026-06-28T08:04:52.000Z</time>
      </trkpt>
      <trkpt lat="42.77178" lon="1.48507">
        <ele>837</ele>
        <time>2026-06-28T08:04:53.000Z</time>
      </trkpt>
      <trkpt lat="42.77175" lon="1.48508">
        <ele>838</ele>
        <time>2026-06-28T08:04:54.000Z</time>
      </trkpt>
      <trkpt lat="42.77173" lon="1.48509">
        <ele>838</ele>
        <time>2026-06-28T08:04:55.000Z</time>
      </trkpt>
      <trkpt lat="42.77171" lon="1.48509">
        <ele>838</ele>
        <time>2026-06-28T08:04:56.000Z</time>
      </trkpt>
      <trkpt lat="42.7717" lon="1.48509">
        <ele>838</ele>
        <time>2026-06-28T08:04:57.000Z</time>
      </trkpt>
      <trkpt lat="42.77168" lon="1.48509">
        <ele>838</ele>
        <time>2026-06-28T08:04:58.000Z</time>
      </trkpt>
      <trkpt lat="42.77167" lon="1.48509">
        <ele>838</ele>
        <time>2026-06-28T08:04:59.000Z</time>
      </trkpt>
      <trkpt lat="42.77165" lon="1.4851">
        <ele>838</ele>
        <time>2026-06-28T08:05:00.000Z</time>
      </trkpt>
      <trkpt lat="42.77164" lon="1.48509">
        <ele>839</ele>
        <time>2026-06-28T08:05:01.000Z</time>
      </trkpt>
      <trkpt lat="42.77162" lon="1.48508">
        <ele>839</ele>
        <time>2026-06-28T08:05:02.000Z</time>
      </trkpt>
      <trkpt lat="42.7716" lon="1.48507">
        <ele>838</ele>
        <time>2026-06-28T08:05:03.000Z</time>
      </trkpt>
      <trkpt lat="42.77159" lon="1.48506">
        <ele>838</ele>
        <time>2026-06-28T08:05:04.000Z</time>
      </trkpt>
      <trkpt lat="42.77158" lon="1.48506">
        <ele>838</ele>
        <time>2026-06-28T08:05:05.000Z</time>
      </trkpt>
      <trkpt lat="42.77156" lon="1.48506">
        <ele>839</ele>
        <time>2026-06-28T08:05:06.000Z</time>
      </trkpt>
      <trkpt lat="42.77154" lon="1.48507">
        <ele>839</ele>
        <time>2026-06-28T08:05:07.000Z</time>
      </trkpt>
      <trkpt lat="42.77153" lon="1.48507">
        <ele>840</ele>
        <time>2026-06-28T08:05:08.000Z</time>
      </trkpt>
      <trkpt lat="42.77152" lon="1.48506">
        <ele>841</ele>
        <time>2026-06-28T08:05:09.000Z</time>
      </trkpt>
      <trkpt lat="42.77152" lon="1.48506">
        <ele>841</ele>
        <time>2026-06-28T08:05:10.000Z</time>
      </trkpt>
      <trkpt lat="42.77151" lon="1.48507">
        <ele>841</ele>
        <time>2026-06-28T08:05:11.000Z</time>
      </trkpt>
      <trkpt lat="42.77149" lon="1.48507">
        <ele>841</ele>
        <time>2026-06-28T08:05:12.000Z</time>
      </trkpt>
      <trkpt lat="42.77148" lon="1.48507">
        <ele>840</ele>
        <time>2026-06-28T08:05:13.000Z</time>
      </trkpt>
      <trkpt lat="42.77147" lon="1.48507">
        <ele>841</ele>
        <time>2026-06-28T08:05:14.000Z</time>
      </trkpt>
      <trkpt lat="42.77146" lon="1.48507">
        <ele>841</ele>
        <time>2026-06-28T08:05:15.000Z</time>
      </trkpt>
      <trkpt lat="42.77144" lon="1.48506">
        <ele>842</ele>
        <time>2026-06-28T08:05:16.000Z</time>
      </trkpt>
      <trkpt lat="42.77144" lon="1.48506">
        <ele>842</ele>
        <time>2026-06-28T08:05:17.000Z</time>
      </trkpt>
      <trkpt lat="42.77143" lon="1.48504">
        <ele>843</ele>
        <time>2026-06-28T08:05:18.000Z</time>
      </trkpt>
      <trkpt lat="42.77142" lon="1.48503">
        <ele>842</ele>
        <time>2026-06-28T08:05:19.000Z</time>
      </trkpt>
      <trkpt lat="42.77141" lon="1.48502">
        <ele>842</ele>
        <time>2026-06-28T08:05:20.000Z</time>
      </trkpt>
      <trkpt lat="42.7714" lon="1.485">
        <ele>843</ele>
        <time>2026-06-28T08:05:21.000Z</time>
      </trkpt>
      <trkpt lat="42.77139" lon="1.48499">
        <ele>843</ele>
        <time>2026-06-28T08:05:22.000Z</time>
      </trkpt>
      <trkpt lat="42.77136" lon="1.48498">
        <ele>844</ele>
        <time>2026-06-28T08:05:23.000Z</time>
      </trkpt>
      <trkpt lat="42.77133" lon="1.48497">
        <ele>845</ele>
        <time>2026-06-28T08:05:24.000Z</time>
      </trkpt>
      <trkpt lat="42.7713" lon="1.48496">
        <ele>846</ele>
        <time>2026-06-28T08:05:25.000Z</time>
      </trkpt>
      <trkpt lat="42.77129" lon="1.48494">
        <ele>847</ele>
        <time>2026-06-28T08:05:26.000Z</time>
      </trkpt>
      <trkpt lat="42.77128" lon="1.48494">
        <ele>847</ele>
        <time>2026-06-28T08:05:27.000Z</time>
      </trkpt>
      <trkpt lat="42.77126" lon="1.48492">
        <ele>848</ele>
        <time>2026-06-28T08:05:28.000Z</time>
      </trkpt>
      <trkpt lat="42.77125" lon="1.48491">
        <ele>849</ele>
        <time>2026-06-28T08:05:29.000Z</time>
      </trkpt>
      <trkpt lat="42.77124" lon="1.4849">
        <ele>849</ele>
        <time>2026-06-28T08:05:30.000Z</time>
      </trkpt>
      <trkpt lat="42.77123" lon="1.48488">
        <ele>849</ele>
        <time>2026-06-28T08:05:31.000Z</time>
      </trkpt>
      <trkpt lat="42.77123" lon="1.48487">
        <ele>849</ele>
        <time>2026-06-28T08:05:32.000Z</time>
      </trkpt>
      <trkpt lat="42.77123" lon="1.48486">
        <ele>850</ele>
        <time>2026-06-28T08:05:33.000Z</time>
      </trkpt>
      <trkpt lat="42.77123" lon="1.48486">
        <ele>850</ele>
        <time>2026-06-28T08:05:34.000Z</time>
      </trkpt>
      <trkpt lat="42.77123" lon="1.48485">
        <ele>851</ele>
        <time>2026-06-28T08:05:35.000Z</time>
      </trkpt>
      <trkpt lat="42.77123" lon="1.48484">
        <ele>852</ele>
        <time>2026-06-28T08:05:36.000Z</time>
      </trkpt>
      <trkpt lat="42.77123" lon="1.48483">
        <ele>853</ele>
        <time>2026-06-28T08:05:37.000Z</time>
      </trkpt>
      <trkpt lat="42.77125" lon="1.48483">
        <ele>854</ele>
        <time>2026-06-28T08:05:38.000Z</time>
      </trkpt>
      <trkpt lat="42.77125" lon="1.48482">
        <ele>854</ele>
        <time>2026-06-28T08:05:39.000Z</time>
      </trkpt>
      <trkpt lat="42.77126" lon="1.48481">
        <ele>855</ele>
        <time>2026-06-28T08:05:40.000Z</time>
      </trkpt>
      <trkpt lat="42.77127" lon="1.48479">
        <ele>855</ele>
        <time>2026-06-28T08:05:41.000Z</time>
      </trkpt>
      <trkpt lat="42.77128" lon="1.48478">
        <ele>856</ele>
        <time>2026-06-28T08:05:42.000Z</time>
      </trkpt>
      <trkpt lat="42.77129" lon="1.48477">
        <ele>857</ele>
        <time>2026-06-28T08:05:43.000Z</time>
      </trkpt>
      <trkpt lat="42.77131" lon="1.48475">
        <ele>857</ele>
        <time>2026-06-28T08:05:44.000Z</time>
      </trkpt>
      <trkpt lat="42.77132" lon="1.48474">
        <ele>858</ele>
        <time>2026-06-28T08:05:45.000Z</time>
      </trkpt>
      <trkpt lat="42.77133" lon="1.48474">
        <ele>859</ele>
        <time>2026-06-28T08:05:46.000Z</time>
      </trkpt>
      <trkpt lat="42.77134" lon="1.48473">
        <ele>860</ele>
        <time>2026-06-28T08:05:47.000Z</time>
      </trkpt>
      <trkpt lat="42.77134" lon="1.48473">
        <ele>860</ele>
        <time>2026-06-28T08:05:48.000Z</time>
      </trkpt>
      <trkpt lat="42.77135" lon="1.48471">
        <ele>860</ele>
        <time>2026-06-28T08:05:49.000Z</time>
      </trkpt>
      <trkpt lat="42.77135" lon="1.4847">
        <ele>859</ele>
        <time>2026-06-28T08:05:50.000Z</time>
      </trkpt>
      <trkpt lat="42.77135" lon="1.48468">
        <ele>859</ele>
        <time>2026-06-28T08:05:51.000Z</time>
      </trkpt>
      <trkpt lat="42.77135" lon="1.48467">
        <ele>859</ele>
        <time>2026-06-28T08:05:52.000Z</time>
      </trkpt>
      <trkpt lat="42.77136" lon="1.48466">
        <ele>859</ele>
        <time>2026-06-28T08:05:53.000Z</time>
      </trkpt>
      <trkpt lat="42.77135" lon="1.48465">
        <ele>858</ele>
        <time>2026-06-28T08:05:54.000Z</time>
      </trkpt>
      <trkpt lat="42.77136" lon="1.48463">
        <ele>857</ele>
        <time>2026-06-28T08:05:55.000Z</time>
      </trkpt>
      <trkpt lat="42.77135" lon="1.48463">
        <ele>858</ele>
        <time>2026-06-28T08:05:56.000Z</time>
      </trkpt>
      <trkpt lat="42.77135" lon="1.48462">
        <ele>858</ele>
        <time>2026-06-28T08:05:57.000Z</time>
      </trkpt>
      <trkpt lat="42.77135" lon="1.48461">
        <ele>858</ele>
        <time>2026-06-28T08:05:58.000Z</time>
      </trkpt>
      <trkpt lat="42.77135" lon="1.4846">
        <ele>858</ele>
        <time>2026-06-28T08:05:59.000Z</time>
      </trkpt>
      <trkpt lat="42.77135" lon="1.4846">
        <ele>858</ele>
        <time>2026-06-28T08:06:00.000Z</time>
      </trkpt>
      <trkpt lat="42.77134" lon="1.4846">
        <ele>858</ele>
        <time>2026-06-28T08:06:01.000Z</time>
      </trkpt>
      <trkpt lat="42.77135" lon="1.48459">
        <ele>858</ele>
        <time>2026-06-28T08:06:02.000Z</time>
      </trkpt>
      <trkpt lat="42.77135" lon="1.48459">
        <ele>858</ele>
        <time>2026-06-28T08:06:03.000Z</time>
      </trkpt>
      <trkpt lat="42.77135" lon="1.48458">
        <ele>858</ele>
        <time>2026-06-28T08:06:04.000Z</time>
      </trkpt>
      <trkpt lat="42.77135" lon="1.48458">
        <ele>858</ele>
        <time>2026-06-28T08:06:05.000Z</time>
      </trkpt>
      <trkpt lat="42.77134" lon="1.48458">
        <ele>858</ele>
        <time>2026-06-28T08:06:06.000Z</time>
      </trkpt>
      <trkpt lat="42.77134" lon="1.48457">
        <ele>857</ele>
        <time>2026-06-28T08:06:07.000Z</time>
      </trkpt>
      <trkpt lat="42.77136" lon="1.48459">
        <ele>855</ele>
        <time>2026-06-28T08:06:21.000Z</time>
      </trkpt>
      <trkpt lat="42.77136" lon="1.48458">
        <ele>855</ele>
        <time>2026-06-28T08:06:22.000Z</time>
      </trkpt>
      <trkpt lat="42.77137" lon="1.48457">
        <ele>855</ele>
        <time>2026-06-28T08:06:23.000Z</time>
      </trkpt>
      <trkpt lat="42.77139" lon="1.48457">
        <ele>855</ele>
        <time>2026-06-28T08:06:24.000Z</time>
      </trkpt>
      <trkpt lat="42.7714" lon="1.48457">
        <ele>855</ele>
        <time>2026-06-28T08:06:25.000Z</time>
      </trkpt>
      <trkpt lat="42.77141" lon="1.48458">
        <ele>856</ele>
        <time>2026-06-28T08:06:26.000Z</time>
      </trkpt>
      <trkpt lat="42.77143" lon="1.48457">
        <ele>857</ele>
        <time>2026-06-28T08:06:27.000Z</time>
      </trkpt>
      <trkpt lat="42.77144" lon="1.48457">
        <ele>857</ele>
        <time>2026-06-28T08:06:28.000Z</time>
      </trkpt>
      <trkpt lat="42.77146" lon="1.48457">
        <ele>858</ele>
        <time>2026-06-28T08:06:29.000Z</time>
      </trkpt>
      <trkpt lat="42.77147" lon="1.48456">
        <ele>859</ele>
        <time>2026-06-28T08:06:30.000Z</time>
      </trkpt>
      <trkpt lat="42.77148" lon="1.48455">
        <ele>861</ele>
        <time>2026-06-28T08:06:31.000Z</time>
      </trkpt>
      <trkpt lat="42.7715" lon="1.48454">
        <ele>862</ele>
        <time>2026-06-28T08:06:32.000Z</time>
      </trkpt>
      <trkpt lat="42.77152" lon="1.48454">
        <ele>862</ele>
        <time>2026-06-28T08:06:33.000Z</time>
      </trkpt>
      <trkpt lat="42.77153" lon="1.48453">
        <ele>863</ele>
        <time>2026-06-28T08:06:34.000Z</time>
      </trkpt>
      <trkpt lat="42.77155" lon="1.48452">
        <ele>863</ele>
        <time>2026-06-28T08:06:35.000Z</time>
      </trkpt>
      <trkpt lat="42.77156" lon="1.48451">
        <ele>863</ele>
        <time>2026-06-28T08:06:36.000Z</time>
      </trkpt>
      <trkpt lat="42.77157" lon="1.4845">
        <ele>863</ele>
        <time>2026-06-28T08:06:37.000Z</time>
      </trkpt>
      <trkpt lat="42.77158" lon="1.48448">
        <ele>863</ele>
        <time>2026-06-28T08:06:38.000Z</time>
      </trkpt>
      <trkpt lat="42.7716" lon="1.48447">
        <ele>863</ele>
        <time>2026-06-28T08:06:39.000Z</time>
      </trkpt>
      <trkpt lat="42.77161" lon="1.48446">
        <ele>864</ele>
        <time>2026-06-28T08:06:40.000Z</time>
      </trkpt>
      <trkpt lat="42.77162" lon="1.48444">
        <ele>866</ele>
        <time>2026-06-28T08:06:41.000Z</time>
      </trkpt>
      <trkpt lat="42.77161" lon="1.48441">
        <ele>866</ele>
        <time>2026-06-28T08:06:42.000Z</time>
      </trkpt>
      <trkpt lat="42.77161" lon="1.48438">
        <ele>866</ele>
        <time>2026-06-28T08:06:43.000Z</time>
      </trkpt>
      <trkpt lat="42.7716" lon="1.48436">
        <ele>867</ele>
        <time>2026-06-28T08:06:44.000Z</time>
      </trkpt>
      <trkpt lat="42.77159" lon="1.48433">
        <ele>866</ele>
        <time>2026-06-28T08:06:45.000Z</time>
      </trkpt>
      <trkpt lat="42.77157" lon="1.48431">
        <ele>866</ele>
        <time>2026-06-28T08:06:46.000Z</time>
      </trkpt>
      <trkpt lat="42.77155" lon="1.4843">
        <ele>867</ele>
        <time>2026-06-28T08:06:47.000Z</time>
      </trkpt>
      <trkpt lat="42.77153" lon="1.48428">
        <ele>868</ele>
        <time>2026-06-28T08:06:48.000Z</time>
      </trkpt>
      <trkpt lat="42.77152" lon="1.48426">
        <ele>867</ele>
        <time>2026-06-28T08:06:49.000Z</time>
      </trkpt>
      <trkpt lat="42.77151" lon="1.48425">
        <ele>868</ele>
        <time>2026-06-28T08:06:50.000Z</time>
      </trkpt>
      <trkpt lat="42.77149" lon="1.48423">
        <ele>868</ele>
        <time>2026-06-28T08:06:51.000Z</time>
      </trkpt>
      <trkpt lat="42.77148" lon="1.48422">
        <ele>868</ele>
        <time>2026-06-28T08:06:52.000Z</time>
      </trkpt>
      <trkpt lat="42.77147" lon="1.48421">
        <ele>868</ele>
        <time>2026-06-28T08:06:53.000Z</time>
      </trkpt>
      <trkpt lat="42.77147" lon="1.4842">
        <ele>868</ele>
        <time>2026-06-28T08:06:54.000Z</time>
      </trkpt>
      <trkpt lat="42.77146" lon="1.48419">
        <ele>868</ele>
        <time>2026-06-28T08:06:55.000Z</time>
      </trkpt>
      <trkpt lat="42.77145" lon="1.48417">
        <ele>868</ele>
        <time>2026-06-28T08:06:56.000Z</time>
      </trkpt>
      <trkpt lat="42.77144" lon="1.48416">
        <ele>869</ele>
        <time>2026-06-28T08:06:57.000Z</time>
      </trkpt>
      <trkpt lat="42.77143" lon="1.48414">
        <ele>869</ele>
        <time>2026-06-28T08:06:58.000Z</time>
      </trkpt>
      <trkpt lat="42.77143" lon="1.48413">
        <ele>868</ele>
        <time>2026-06-28T08:06:59.000Z</time>
      </trkpt>
      <trkpt lat="42.77142" lon="1.48412">
        <ele>869</ele>
        <time>2026-06-28T08:07:00.000Z</time>
      </trkpt>
      <trkpt lat="42.77141" lon="1.48412">
        <ele>868</ele>
        <time>2026-06-28T08:07:01.000Z</time>
      </trkpt>
      <trkpt lat="42.7714" lon="1.48411">
        <ele>869</ele>
        <time>2026-06-28T08:07:02.000Z</time>
      </trkpt>
      <trkpt lat="42.77139" lon="1.48409">
        <ele>869</ele>
        <time>2026-06-28T08:07:03.000Z</time>
      </trkpt>
      <trkpt lat="42.77138" lon="1.48408">
        <ele>869</ele>
        <time>2026-06-28T08:07:04.000Z</time>
      </trkpt>
      <trkpt lat="42.77137" lon="1.48407">
        <ele>869</ele>
        <time>2026-06-28T08:07:05.000Z</time>
      </trkpt>
      <trkpt lat="42.77135" lon="1.48406">
        <ele>870</ele>
        <time>2026-06-28T08:07:06.000Z</time>
      </trkpt>
      <trkpt lat="42.77134" lon="1.48404">
        <ele>870</ele>
        <time>2026-06-28T08:07:07.000Z</time>
      </trkpt>
      <trkpt lat="42.77133" lon="1.48403">
        <ele>871</ele>
        <time>2026-06-28T08:07:08.000Z</time>
      </trkpt>
      <trkpt lat="42.77132" lon="1.48402">
        <ele>870</ele>
        <time>2026-06-28T08:07:09.000Z</time>
      </trkpt>
      <trkpt lat="42.77132" lon="1.484">
        <ele>871</ele>
        <time>2026-06-28T08:07:10.000Z</time>
      </trkpt>
      <trkpt lat="42.77131" lon="1.48399">
        <ele>871</ele>
        <time>2026-06-28T08:07:11.000Z</time>
      </trkpt>
      <trkpt lat="42.7713" lon="1.48398">
        <ele>871</ele>
        <time>2026-06-28T08:07:12.000Z</time>
      </trkpt>
      <trkpt lat="42.77129" lon="1.48396">
        <ele>872</ele>
        <time>2026-06-28T08:07:13.000Z</time>
      </trkpt>
      <trkpt lat="42.77129" lon="1.48395">
        <ele>872</ele>
        <time>2026-06-28T08:07:14.000Z</time>
      </trkpt>
      <trkpt lat="42.77128" lon="1.48395">
        <ele>872</ele>
        <time>2026-06-28T08:07:15.000Z</time>
      </trkpt>
      <trkpt lat="42.77128" lon="1.48394">
        <ele>873</ele>
        <time>2026-06-28T08:07:16.000Z</time>
      </trkpt>
      <trkpt lat="42.77127" lon="1.48394">
        <ele>874</ele>
        <time>2026-06-28T08:07:17.000Z</time>
      </trkpt>
      <trkpt lat="42.77126" lon="1.48393">
        <ele>874</ele>
        <time>2026-06-28T08:07:18.000Z</time>
      </trkpt>
      <trkpt lat="42.77125" lon="1.48392">
        <ele>874</ele>
        <time>2026-06-28T08:07:19.000Z</time>
      </trkpt>
      <trkpt lat="42.77123" lon="1.48391">
        <ele>874</ele>
        <time>2026-06-28T08:07:20.000Z</time>
      </trkpt>
      <trkpt lat="42.77122" lon="1.4839">
        <ele>875</ele>
        <time>2026-06-28T08:07:21.000Z</time>
      </trkpt>
      <trkpt lat="42.7712" lon="1.48389">
        <ele>874</ele>
        <time>2026-06-28T08:07:22.000Z</time>
      </trkpt>
      <trkpt lat="42.77119" lon="1.48388">
        <ele>874</ele>
        <time>2026-06-28T08:07:23.000Z</time>
      </trkpt>
      <trkpt lat="42.77118" lon="1.48387">
        <ele>874</ele>
        <time>2026-06-28T08:07:24.000Z</time>
      </trkpt>
      <trkpt lat="42.77117" lon="1.48386">
        <ele>874</ele>
        <time>2026-06-28T08:07:25.000Z</time>
      </trkpt>
      <trkpt lat="42.77116" lon="1.48385">
        <ele>875</ele>
        <time>2026-06-28T08:07:26.000Z</time>
      </trkpt>
      <trkpt lat="42.77115" lon="1.48384">
        <ele>875</ele>
        <time>2026-06-28T08:07:27.000Z</time>
      </trkpt>
      <trkpt lat="42.77114" lon="1.48384">
        <ele>875</ele>
        <time>2026-06-28T08:07:28.000Z</time>
      </trkpt>
      <trkpt lat="42.77113" lon="1.48383">
        <ele>875</ele>
        <time>2026-06-28T08:07:29.000Z</time>
      </trkpt>
      <trkpt lat="42.77112" lon="1.48383">
        <ele>875</ele>
        <time>2026-06-28T08:07:30.000Z</time>
      </trkpt>
      <trkpt lat="42.77112" lon="1.48382">
        <ele>875</ele>
        <time>2026-06-28T08:07:31.000Z</time>
      </trkpt>
      <trkpt lat="42.77111" lon="1.48382">
        <ele>875</ele>
        <time>2026-06-28T08:07:32.000Z</time>
      </trkpt>
      <trkpt lat="42.7711" lon="1.48382">
        <ele>874</ele>
        <time>2026-06-28T08:07:33.000Z</time>
      </trkpt>
      <trkpt lat="42.77109" lon="1.48381">
        <ele>874</ele>
        <time>2026-06-28T08:07:34.000Z</time>
      </trkpt>
      <trkpt lat="42.77108" lon="1.48381">
        <ele>875</ele>
        <time>2026-06-28T08:07:35.000Z</time>
      </trkpt>
      <trkpt lat="42.77107" lon="1.4838">
        <ele>874</ele>
        <time>2026-06-28T08:07:36.000Z</time>
      </trkpt>
      <trkpt lat="42.77106" lon="1.48379">
        <ele>874</ele>
        <time>2026-06-28T08:07:37.000Z</time>
      </trkpt>
      <trkpt lat="42.77105" lon="1.48378">
        <ele>874</ele>
        <time>2026-06-28T08:07:38.000Z</time>
      </trkpt>
      <trkpt lat="42.77104" lon="1.48377">
        <ele>874</ele>
        <time>2026-06-28T08:07:39.000Z</time>
      </trkpt>
      <trkpt lat="42.77103" lon="1.48377">
        <ele>874</ele>
        <time>2026-06-28T08:07:40.000Z</time>
      </trkpt>
      <trkpt lat="42.77102" lon="1.48377">
        <ele>874</ele>
        <time>2026-06-28T08:07:41.000Z</time>
      </trkpt>
      <trkpt lat="42.771" lon="1.48377">
        <ele>874</ele>
        <time>2026-06-28T08:07:42.000Z</time>
      </trkpt>
      <trkpt lat="42.77099" lon="1.48377">
        <ele>874</ele>
        <time>2026-06-28T08:07:43.000Z</time>
      </trkpt>
      <trkpt lat="42.77099" lon="1.48377">
        <ele>874</ele>
        <time>2026-06-28T08:07:44.000Z</time>
      </trkpt>
      <trkpt lat="42.77098" lon="1.48376">
        <ele>874</ele>
        <time>2026-06-28T08:07:45.000Z</time>
      </trkpt>
      <trkpt lat="42.77098" lon="1.48375">
        <ele>874</ele>
        <time>2026-06-28T08:07:46.000Z</time>
      </trkpt>
      <trkpt lat="42.77097" lon="1.48375">
        <ele>874</ele>
        <time>2026-06-28T08:07:47.000Z</time>
      </trkpt>
      <trkpt lat="42.77096" lon="1.48375">
        <ele>874</ele>
        <time>2026-06-28T08:07:48.000Z</time>
      </trkpt>
      <trkpt lat="42.77095" lon="1.48374">
        <ele>874</ele>
        <time>2026-06-28T08:07:49.000Z</time>
      </trkpt>
      <trkpt lat="42.77094" lon="1.48373">
        <ele>874</ele>
        <time>2026-06-28T08:07:50.000Z</time>
      </trkpt>
      <trkpt lat="42.77093" lon="1.48373">
        <ele>874</ele>
        <time>2026-06-28T08:07:51.000Z</time>
      </trkpt>
      <trkpt lat="42.77092" lon="1.48373">
        <ele>875</ele>
        <time>2026-06-28T08:07:52.000Z</time>
      </trkpt>
      <trkpt lat="42.77091" lon="1.48372">
        <ele>875</ele>
        <time>2026-06-28T08:07:53.000Z</time>
      </trkpt>
      <trkpt lat="42.7709" lon="1.48372">
        <ele>875</ele>
        <time>2026-06-28T08:07:54.000Z</time>
      </trkpt>
      <trkpt lat="42.77089" lon="1.48372">
        <ele>875</ele>
        <time>2026-06-28T08:07:55.000Z</time>
      </trkpt>
      <trkpt lat="42.77088" lon="1.48372">
        <ele>876</ele>
        <time>2026-06-28T08:07:56.000Z</time>
      </trkpt>
      <trkpt lat="42.77088" lon="1.48372">
        <ele>876</ele>
        <time>2026-06-28T08:07:57.000Z</time>
      </trkpt>
      <trkpt lat="42.77088" lon="1.48373">
        <ele>876</ele>
        <time>2026-06-28T08:07:58.000Z</time>
      </trkpt>
      <trkpt lat="42.77087" lon="1.48373">
        <ele>877</ele>
        <time>2026-06-28T08:07:59.000Z</time>
      </trkpt>
      <trkpt lat="42.77087" lon="1.48373">
        <ele>877</ele>
        <time>2026-06-28T08:08:00.000Z</time>
      </trkpt>
      <trkpt lat="42.77086" lon="1.48373">
        <ele>878</ele>
        <time>2026-06-28T08:08:01.000Z</time>
      </trkpt>
      <trkpt lat="42.77086" lon="1.48372">
        <ele>879</ele>
        <time>2026-06-28T08:08:02.000Z</time>
      </trkpt>
      <trkpt lat="42.77085" lon="1.48372">
        <ele>879</ele>
        <time>2026-06-28T08:08:03.000Z</time>
      </trkpt>
      <trkpt lat="42.77086" lon="1.48371">
        <ele>880</ele>
        <time>2026-06-28T08:08:04.000Z</time>
      </trkpt>
      <trkpt lat="42.77086" lon="1.4837">
        <ele>881</ele>
        <time>2026-06-28T08:08:05.000Z</time>
      </trkpt>
      <trkpt lat="42.77087" lon="1.4837">
        <ele>881</ele>
        <time>2026-06-28T08:08:06.000Z</time>
      </trkpt>
      <trkpt lat="42.77087" lon="1.48368">
        <ele>881</ele>
        <time>2026-06-28T08:08:07.000Z</time>
      </trkpt>
      <trkpt lat="42.77088" lon="1.48368">
        <ele>881</ele>
        <time>2026-06-28T08:08:08.000Z</time>
      </trkpt>
      <trkpt lat="42.77089" lon="1.48367">
        <ele>882</ele>
        <time>2026-06-28T08:08:09.000Z</time>
      </trkpt>
      <trkpt lat="42.7709" lon="1.48367">
        <ele>882</ele>
        <time>2026-06-28T08:08:10.000Z</time>
      </trkpt>
      <trkpt lat="42.77091" lon="1.48367">
        <ele>883</ele>
        <time>2026-06-28T08:08:11.000Z</time>
      </trkpt>
      <trkpt lat="42.77091" lon="1.48367">
        <ele>884</ele>
        <time>2026-06-28T08:08:12.000Z</time>
      </trkpt>
      <trkpt lat="42.77092" lon="1.48366">
        <ele>885</ele>
        <time>2026-06-28T08:08:13.000Z</time>
      </trkpt>
      <trkpt lat="42.77093" lon="1.48366">
        <ele>886</ele>
        <time>2026-06-28T08:08:14.000Z</time>
      </trkpt>
      <trkpt lat="42.77094" lon="1.48366">
        <ele>887</ele>
        <time>2026-06-28T08:08:15.000Z</time>
      </trkpt>
      <trkpt lat="42.77093" lon="1.48365">
        <ele>888</ele>
        <time>2026-06-28T08:08:16.000Z</time>
      </trkpt>
      <trkpt lat="42.77093" lon="1.48364">
        <ele>889</ele>
        <time>2026-06-28T08:08:17.000Z</time>
      </trkpt>
      <trkpt lat="42.77092" lon="1.48363">
        <ele>889</ele>
        <time>2026-06-28T08:08:18.000Z</time>
      </trkpt>
      <trkpt lat="42.77091" lon="1.48363">
        <ele>890</ele>
        <time>2026-06-28T08:08:19.000Z</time>
      </trkpt>
      <trkpt lat="42.7709" lon="1.48362">
        <ele>890</ele>
        <time>2026-06-28T08:08:20.000Z</time>
      </trkpt>
      <trkpt lat="42.7709" lon="1.4836">
        <ele>890</ele>
        <time>2026-06-28T08:08:21.000Z</time>
      </trkpt>
      <trkpt lat="42.77089" lon="1.4836">
        <ele>891</ele>
        <time>2026-06-28T08:08:22.000Z</time>
      </trkpt>
      <trkpt lat="42.77088" lon="1.48358">
        <ele>892</ele>
        <time>2026-06-28T08:08:23.000Z</time>
      </trkpt>
      <trkpt lat="42.77087" lon="1.48357">
        <ele>893</ele>
        <time>2026-06-28T08:08:24.000Z</time>
      </trkpt>
      <trkpt lat="42.77087" lon="1.48356">
        <ele>893</ele>
        <time>2026-06-28T08:08:25.000Z</time>
      </trkpt>
      <trkpt lat="42.77085" lon="1.48356">
        <ele>893</ele>
        <time>2026-06-28T08:08:26.000Z</time>
      </trkpt>
      <trkpt lat="42.77084" lon="1.48355">
        <ele>893</ele>
        <time>2026-06-28T08:08:27.000Z</time>
      </trkpt>
      <trkpt lat="42.77081" lon="1.48355">
        <ele>893</ele>
        <time>2026-06-28T08:08:28.000Z</time>
      </trkpt>
      <trkpt lat="42.7708" lon="1.48355">
        <ele>894</ele>
        <time>2026-06-28T08:08:29.000Z</time>
      </trkpt>
      <trkpt lat="42.7708" lon="1.48354">
        <ele>894</ele>
        <time>2026-06-28T08:08:30.000Z</time>
      </trkpt>
      <trkpt lat="42.77079" lon="1.48354">
        <ele>894</ele>
        <time>2026-06-28T08:08:31.000Z</time>
      </trkpt>
      <trkpt lat="42.77078" lon="1.48353">
        <ele>894</ele>
        <time>2026-06-28T08:08:32.000Z</time>
      </trkpt>
      <trkpt lat="42.77076" lon="1.48354">
        <ele>894</ele>
        <time>2026-06-28T08:08:33.000Z</time>
      </trkpt>
      <trkpt lat="42.77075" lon="1.48354">
        <ele>894</ele>
        <time>2026-06-28T08:08:34.000Z</time>
      </trkpt>
      <trkpt lat="42.77073" lon="1.48355">
        <ele>894</ele>
        <time>2026-06-28T08:08:35.000Z</time>
      </trkpt>
      <trkpt lat="42.77072" lon="1.48355">
        <ele>894</ele>
        <time>2026-06-28T08:08:36.000Z</time>
      </trkpt>
      <trkpt lat="42.77071" lon="1.48355">
        <ele>895</ele>
        <time>2026-06-28T08:08:37.000Z</time>
      </trkpt>
      <trkpt lat="42.7707" lon="1.48357">
        <ele>895</ele>
        <time>2026-06-28T08:08:38.000Z</time>
      </trkpt>
      <trkpt lat="42.77069" lon="1.48358">
        <ele>895</ele>
        <time>2026-06-28T08:08:39.000Z</time>
      </trkpt>
      <trkpt lat="42.77068" lon="1.48359">
        <ele>895</ele>
        <time>2026-06-28T08:08:40.000Z</time>
      </trkpt>
      <trkpt lat="42.77066" lon="1.4836">
        <ele>894</ele>
        <time>2026-06-28T08:08:41.000Z</time>
      </trkpt>
      <trkpt lat="42.77065" lon="1.48361">
        <ele>894</ele>
        <time>2026-06-28T08:08:42.000Z</time>
      </trkpt>
      <trkpt lat="42.77063" lon="1.48361">
        <ele>894</ele>
        <time>2026-06-28T08:08:43.000Z</time>
      </trkpt>
      <trkpt lat="42.77063" lon="1.48361">
        <ele>894</ele>
        <time>2026-06-28T08:08:44.000Z</time>
      </trkpt>
      <trkpt lat="42.77061" lon="1.48362">
        <ele>893</ele>
        <time>2026-06-28T08:08:45.000Z</time>
      </trkpt>
      <trkpt lat="42.7706" lon="1.48362">
        <ele>894</ele>
        <time>2026-06-28T08:08:46.000Z</time>
      </trkpt>
      <trkpt lat="42.77058" lon="1.48362">
        <ele>894</ele>
        <time>2026-06-28T08:08:47.000Z</time>
      </trkpt>
      <trkpt lat="42.77057" lon="1.48362">
        <ele>894</ele>
        <time>2026-06-28T08:08:48.000Z</time>
      </trkpt>
      <trkpt lat="42.77055" lon="1.48362">
        <ele>894</ele>
        <time>2026-06-28T08:08:49.000Z</time>
      </trkpt>
      <trkpt lat="42.77054" lon="1.48361">
        <ele>894</ele>
        <time>2026-06-28T08:08:50.000Z</time>
      </trkpt>
      <trkpt lat="42.77053" lon="1.48361">
        <ele>894</ele>
        <time>2026-06-28T08:08:51.000Z</time>
      </trkpt>
      <trkpt lat="42.77052" lon="1.48361">
        <ele>894</ele>
        <time>2026-06-28T08:08:52.000Z</time>
      </trkpt>
      <trkpt lat="42.77051" lon="1.48361">
        <ele>894</ele>
        <time>2026-06-28T08:08:53.000Z</time>
      </trkpt>
      <trkpt lat="42.77049" lon="1.48362">
        <ele>894</ele>
        <time>2026-06-28T08:08:54.000Z</time>
      </trkpt>
      <trkpt lat="42.77047" lon="1.48361">
        <ele>894</ele>
        <time>2026-06-28T08:08:55.000Z</time>
      </trkpt>
      <trkpt lat="42.77046" lon="1.48361">
        <ele>895</ele>
        <time>2026-06-28T08:08:56.000Z</time>
      </trkpt>
      <trkpt lat="42.77045" lon="1.4836">
        <ele>895</ele>
        <time>2026-06-28T08:08:57.000Z</time>
      </trkpt>
      <trkpt lat="42.77044" lon="1.4836">
        <ele>895</ele>
        <time>2026-06-28T08:08:58.000Z</time>
      </trkpt>
      <trkpt lat="42.77043" lon="1.4836">
        <ele>895</ele>
        <time>2026-06-28T08:08:59.000Z</time>
      </trkpt>
      <trkpt lat="42.77041" lon="1.4836">
        <ele>895</ele>
        <time>2026-06-28T08:09:00.000Z</time>
      </trkpt>
      <trkpt lat="42.7704" lon="1.4836">
        <ele>895</ele>
        <time>2026-06-28T08:09:01.000Z</time>
      </trkpt>
      <trkpt lat="42.77039" lon="1.4836">
        <ele>895</ele>
        <time>2026-06-28T08:09:02.000Z</time>
      </trkpt>
      <trkpt lat="42.77037" lon="1.4836">
        <ele>895</ele>
        <time>2026-06-28T08:09:03.000Z</time>
      </trkpt>
      <trkpt lat="42.77036" lon="1.48359">
        <ele>895</ele>
        <time>2026-06-28T08:09:04.000Z</time>
      </trkpt>
      <trkpt lat="42.77035" lon="1.48359">
        <ele>896</ele>
        <time>2026-06-28T08:09:05.000Z</time>
      </trkpt>
      <trkpt lat="42.77033" lon="1.48359">
        <ele>896</ele>
        <time>2026-06-28T08:09:06.000Z</time>
      </trkpt>
      <trkpt lat="42.77032" lon="1.48359">
        <ele>897</ele>
        <time>2026-06-28T08:09:07.000Z</time>
      </trkpt>
      <trkpt lat="42.77031" lon="1.48359">
        <ele>897</ele>
        <time>2026-06-28T08:09:08.000Z</time>
      </trkpt>
      <trkpt lat="42.7703" lon="1.48359">
        <ele>897</ele>
        <time>2026-06-28T08:09:09.000Z</time>
      </trkpt>
      <trkpt lat="42.77028" lon="1.4836">
        <ele>897</ele>
        <time>2026-06-28T08:09:10.000Z</time>
      </trkpt>
      <trkpt lat="42.77027" lon="1.4836">
        <ele>897</ele>
        <time>2026-06-28T08:09:11.000Z</time>
      </trkpt>
      <trkpt lat="42.77026" lon="1.4836">
        <ele>897</ele>
        <time>2026-06-28T08:09:12.000Z</time>
      </trkpt>
      <trkpt lat="42.77025" lon="1.4836">
        <ele>897</ele>
        <time>2026-06-28T08:09:13.000Z</time>
      </trkpt>
      <trkpt lat="42.77024" lon="1.4836">
        <ele>897</ele>
        <time>2026-06-28T08:09:14.000Z</time>
      </trkpt>
      <trkpt lat="42.77022" lon="1.4836">
        <ele>897</ele>
        <time>2026-06-28T08:09:15.000Z</time>
      </trkpt>
      <trkpt lat="42.77021" lon="1.4836">
        <ele>897</ele>
        <time>2026-06-28T08:09:16.000Z</time>
      </trkpt>
      <trkpt lat="42.7702" lon="1.4836">
        <ele>897</ele>
        <time>2026-06-28T08:09:17.000Z</time>
      </trkpt>
      <trkpt lat="42.77018" lon="1.4836">
        <ele>897</ele>
        <time>2026-06-28T08:09:18.000Z</time>
      </trkpt>
      <trkpt lat="42.77017" lon="1.48359">
        <ele>898</ele>
        <time>2026-06-28T08:09:19.000Z</time>
      </trkpt>
      <trkpt lat="42.77015" lon="1.48359">
        <ele>898</ele>
        <time>2026-06-28T08:09:20.000Z</time>
      </trkpt>
      <trkpt lat="42.77014" lon="1.48359">
        <ele>898</ele>
        <time>2026-06-28T08:09:21.000Z</time>
      </trkpt>
      <trkpt lat="42.77012" lon="1.48358">
        <ele>898</ele>
        <time>2026-06-28T08:09:22.000Z</time>
      </trkpt>
      <trkpt lat="42.77011" lon="1.48358">
        <ele>898</ele>
        <time>2026-06-28T08:09:23.000Z</time>
      </trkpt>
      <trkpt lat="42.77011" lon="1.48358">
        <ele>898</ele>
        <time>2026-06-28T08:09:24.000Z</time>
      </trkpt>
      <trkpt lat="42.7701" lon="1.48359">
        <ele>898</ele>
        <time>2026-06-28T08:09:25.000Z</time>
      </trkpt>
      <trkpt lat="42.77008" lon="1.48359">
        <ele>899</ele>
        <time>2026-06-28T08:09:26.000Z</time>
      </trkpt>
      <trkpt lat="42.77007" lon="1.48359">
        <ele>899</ele>
        <time>2026-06-28T08:09:27.000Z</time>
      </trkpt>
      <trkpt lat="42.77006" lon="1.48359">
        <ele>899</ele>
        <time>2026-06-28T08:09:28.000Z</time>
      </trkpt>
      <trkpt lat="42.77004" lon="1.4836">
        <ele>899</ele>
        <time>2026-06-28T08:09:29.000Z</time>
      </trkpt>
      <trkpt lat="42.77002" lon="1.4836">
        <ele>899</ele>
        <time>2026-06-28T08:09:30.000Z</time>
      </trkpt>
      <trkpt lat="42.77" lon="1.48361">
        <ele>900</ele>
        <time>2026-06-28T08:09:31.000Z</time>
      </trkpt>
      <trkpt lat="42.76999" lon="1.48362">
        <ele>900</ele>
        <time>2026-06-28T08:09:32.000Z</time>
      </trkpt>
      <trkpt lat="42.76998" lon="1.48362">
        <ele>901</ele>
        <time>2026-06-28T08:09:33.000Z</time>
      </trkpt>
      <trkpt lat="42.76997" lon="1.48362">
        <ele>901</ele>
        <time>2026-06-28T08:09:34.000Z</time>
      </trkpt>
      <trkpt lat="42.76996" lon="1.48362">
        <ele>902</ele>
        <time>2026-06-28T08:09:35.000Z</time>
      </trkpt>
      <trkpt lat="42.76995" lon="1.48361">
        <ele>901</ele>
        <time>2026-06-28T08:09:36.000Z</time>
      </trkpt>
      <trkpt lat="42.76994" lon="1.48361">
        <ele>901</ele>
        <time>2026-06-28T08:09:37.000Z</time>
      </trkpt>
      <trkpt lat="42.76994" lon="1.48361">
        <ele>901</ele>
        <time>2026-06-28T08:09:38.000Z</time>
      </trkpt>
      <trkpt lat="42.76993" lon="1.48362">
        <ele>901</ele>
        <time>2026-06-28T08:09:39.000Z</time>
      </trkpt>
      <trkpt lat="42.76993" lon="1.48362">
        <ele>901</ele>
        <time>2026-06-28T08:09:40.000Z</time>
      </trkpt>
      <trkpt lat="42.76992" lon="1.48363">
        <ele>901</ele>
        <time>2026-06-28T08:09:41.000Z</time>
      </trkpt>
      <trkpt lat="42.76992" lon="1.48363">
        <ele>901</ele>
        <time>2026-06-28T08:09:42.000Z</time>
      </trkpt>
      <trkpt lat="42.76992" lon="1.48364">
        <ele>900</ele>
        <time>2026-06-28T08:09:43.000Z</time>
      </trkpt>
      <trkpt lat="42.76991" lon="1.48363">
        <ele>900</ele>
        <time>2026-06-28T08:09:44.000Z</time>
      </trkpt>
      <trkpt lat="42.76991" lon="1.48364">
        <ele>900</ele>
        <time>2026-06-28T08:09:45.000Z</time>
      </trkpt>
      <trkpt lat="42.76991" lon="1.48364">
        <ele>901</ele>
        <time>2026-06-28T08:09:46.000Z</time>
      </trkpt>
      <trkpt lat="42.7699" lon="1.48364">
        <ele>901</ele>
        <time>2026-06-28T08:09:47.000Z</time>
      </trkpt>
      <trkpt lat="42.7699" lon="1.48364">
        <ele>901</ele>
        <time>2026-06-28T08:09:48.000Z</time>
      </trkpt>
      <trkpt lat="42.76989" lon="1.48365">
        <ele>901</ele>
        <time>2026-06-28T08:09:49.000Z</time>
      </trkpt>
      <trkpt lat="42.76989" lon="1.48365">
        <ele>900</ele>
        <time>2026-06-28T08:09:50.000Z</time>
      </trkpt>
      <trkpt lat="42.76989" lon="1.48366">
        <ele>899</ele>
        <time>2026-06-28T08:09:51.000Z</time>
      </trkpt>
      <trkpt lat="42.76988" lon="1.48366">
        <ele>899</ele>
        <time>2026-06-28T08:09:52.000Z</time>
      </trkpt>
      <trkpt lat="42.76988" lon="1.48367">
        <ele>899</ele>
        <time>2026-06-28T08:09:53.000Z</time>
      </trkpt>
      <trkpt lat="42.76988" lon="1.48367">
        <ele>900</ele>
        <time>2026-06-28T08:09:54.000Z</time>
      </trkpt>
      <trkpt lat="42.76987" lon="1.48366">
        <ele>901</ele>
        <time>2026-06-28T08:09:55.000Z</time>
      </trkpt>
      <trkpt lat="42.76986" lon="1.48366">
        <ele>902</ele>
        <time>2026-06-28T08:09:56.000Z</time>
      </trkpt>
      <trkpt lat="42.76985" lon="1.48366">
        <ele>903</ele>
        <time>2026-06-28T08:09:57.000Z</time>
      </trkpt>
      <trkpt lat="42.76984" lon="1.48365">
        <ele>903</ele>
        <time>2026-06-28T08:09:58.000Z</time>
      </trkpt>
      <trkpt lat="42.76982" lon="1.48365">
        <ele>904</ele>
        <time>2026-06-28T08:09:59.000Z</time>
      </trkpt>
      <trkpt lat="42.76981" lon="1.48365">
        <ele>904</ele>
        <time>2026-06-28T08:10:00.000Z</time>
      </trkpt>
      <trkpt lat="42.76979" lon="1.48365">
        <ele>905</ele>
        <time>2026-06-28T08:10:01.000Z</time>
      </trkpt>
      <trkpt lat="42.76978" lon="1.48365">
        <ele>905</ele>
        <time>2026-06-28T08:10:02.000Z</time>
      </trkpt>
      <trkpt lat="42.76977" lon="1.48366">
        <ele>906</ele>
        <time>2026-06-28T08:10:03.000Z</time>
      </trkpt>
      <trkpt lat="42.76976" lon="1.48366">
        <ele>907</ele>
        <time>2026-06-28T08:10:04.000Z</time>
      </trkpt>
      <trkpt lat="42.76975" lon="1.48367">
        <ele>908</ele>
        <time>2026-06-28T08:10:05.000Z</time>
      </trkpt>
      <trkpt lat="42.76973" lon="1.48367">
        <ele>909</ele>
        <time>2026-06-28T08:10:06.000Z</time>
      </trkpt>
      <trkpt lat="42.76972" lon="1.48368">
        <ele>909</ele>
        <time>2026-06-28T08:10:07.000Z</time>
      </trkpt>
      <trkpt lat="42.7697" lon="1.48368">
        <ele>909</ele>
        <time>2026-06-28T08:10:08.000Z</time>
      </trkpt>
      <trkpt lat="42.76969" lon="1.48368">
        <ele>910</ele>
        <time>2026-06-28T08:10:09.000Z</time>
      </trkpt>
      <trkpt lat="42.76968" lon="1.48369">
        <ele>910</ele>
        <time>2026-06-28T08:10:10.000Z</time>
      </trkpt>
      <trkpt lat="42.76967" lon="1.48369">
        <ele>910</ele>
        <time>2026-06-28T08:10:11.000Z</time>
      </trkpt>
      <trkpt lat="42.76966" lon="1.4837">
        <ele>911</ele>
        <time>2026-06-28T08:10:12.000Z</time>
      </trkpt>
      <trkpt lat="42.76964" lon="1.4837">
        <ele>912</ele>
        <time>2026-06-28T08:10:13.000Z</time>
      </trkpt>
      <trkpt lat="42.76962" lon="1.48371">
        <ele>912</ele>
        <time>2026-06-28T08:10:14.000Z</time>
      </trkpt>
      <trkpt lat="42.7696" lon="1.48372">
        <ele>912</ele>
        <time>2026-06-28T08:10:15.000Z</time>
      </trkpt>
      <trkpt lat="42.76958" lon="1.48374">
        <ele>913</ele>
        <time>2026-06-28T08:10:16.000Z</time>
      </trkpt>
      <trkpt lat="42.76956" lon="1.48376">
        <ele>914</ele>
        <time>2026-06-28T08:10:17.000Z</time>
      </trkpt>
      <trkpt lat="42.76955" lon="1.48377">
        <ele>914</ele>
        <time>2026-06-28T08:10:18.000Z</time>
      </trkpt>
      <trkpt lat="42.76954" lon="1.4838">
        <ele>915</ele>
        <time>2026-06-28T08:10:19.000Z</time>
      </trkpt>
      <trkpt lat="42.76952" lon="1.48382">
        <ele>916</ele>
        <time>2026-06-28T08:10:20.000Z</time>
      </trkpt>
      <trkpt lat="42.7695" lon="1.48386">
        <ele>916</ele>
        <time>2026-06-28T08:10:21.000Z</time>
      </trkpt>
      <trkpt lat="42.76949" lon="1.48388">
        <ele>916</ele>
        <time>2026-06-28T08:10:22.000Z</time>
      </trkpt>
      <trkpt lat="42.76948" lon="1.4839">
        <ele>917</ele>
        <time>2026-06-28T08:10:23.000Z</time>
      </trkpt>
      <trkpt lat="42.76947" lon="1.48393">
        <ele>917</ele>
        <time>2026-06-28T08:10:24.000Z</time>
      </trkpt>
      <trkpt lat="42.76946" lon="1.48396">
        <ele>918</ele>
        <time>2026-06-28T08:10:25.000Z</time>
      </trkpt>
      <trkpt lat="42.76945" lon="1.48398">
        <ele>919</ele>
        <time>2026-06-28T08:10:26.000Z</time>
      </trkpt>
      <trkpt lat="42.76945" lon="1.484">
        <ele>919</ele>
        <time>2026-06-28T08:10:27.000Z</time>
      </trkpt>
      <trkpt lat="42.76944" lon="1.48403">
        <ele>920</ele>
        <time>2026-06-28T08:10:28.000Z</time>
      </trkpt>
      <trkpt lat="42.76944" lon="1.48406">
        <ele>920</ele>
        <time>2026-06-28T08:10:29.000Z</time>
      </trkpt>
      <trkpt lat="42.76943" lon="1.48408">
        <ele>921</ele>
        <time>2026-06-28T08:10:30.000Z</time>
      </trkpt>
      <trkpt lat="42.76942" lon="1.4841">
        <ele>921</ele>
        <time>2026-06-28T08:10:31.000Z</time>
      </trkpt>
      <trkpt lat="42.7694" lon="1.48413">
        <ele>921</ele>
        <time>2026-06-28T08:10:32.000Z</time>
      </trkpt>
      <trkpt lat="42.76939" lon="1.48415">
        <ele>921</ele>
        <time>2026-06-28T08:10:33.000Z</time>
      </trkpt>
      <trkpt lat="42.76937" lon="1.48417">
        <ele>921</ele>
        <time>2026-06-28T08:10:34.000Z</time>
      </trkpt>
      <trkpt lat="42.76936" lon="1.48419">
        <ele>921</ele>
        <time>2026-06-28T08:10:35.000Z</time>
      </trkpt>
      <trkpt lat="42.76934" lon="1.48421">
        <ele>921</ele>
        <time>2026-06-28T08:10:36.000Z</time>
      </trkpt>
      <trkpt lat="42.76933" lon="1.48423">
        <ele>922</ele>
        <time>2026-06-28T08:10:37.000Z</time>
      </trkpt>
      <trkpt lat="42.76932" lon="1.48425">
        <ele>922</ele>
        <time>2026-06-28T08:10:38.000Z</time>
      </trkpt>
      <trkpt lat="42.7693" lon="1.48427">
        <ele>923</ele>
        <time>2026-06-28T08:10:39.000Z</time>
      </trkpt>
      <trkpt lat="42.76928" lon="1.48428">
        <ele>923</ele>
        <time>2026-06-28T08:10:40.000Z</time>
      </trkpt>
      <trkpt lat="42.76926" lon="1.48428">
        <ele>924</ele>
        <time>2026-06-28T08:10:41.000Z</time>
      </trkpt>
      <trkpt lat="42.76925" lon="1.48426">
        <ele>924</ele>
        <time>2026-06-28T08:10:42.000Z</time>
      </trkpt>
      <trkpt lat="42.76923" lon="1.48425">
        <ele>925</ele>
        <time>2026-06-28T08:10:43.000Z</time>
      </trkpt>
      <trkpt lat="42.76922" lon="1.48423">
        <ele>925</ele>
        <time>2026-06-28T08:10:44.000Z</time>
      </trkpt>
      <trkpt lat="42.76921" lon="1.48422">
        <ele>926</ele>
        <time>2026-06-28T08:10:45.000Z</time>
      </trkpt>
      <trkpt lat="42.7692" lon="1.4842">
        <ele>927</ele>
        <time>2026-06-28T08:10:46.000Z</time>
      </trkpt>
      <trkpt lat="42.76919" lon="1.48418">
        <ele>927</ele>
        <time>2026-06-28T08:10:47.000Z</time>
      </trkpt>
      <trkpt lat="42.7692" lon="1.48416">
        <ele>927</ele>
        <time>2026-06-28T08:10:48.000Z</time>
      </trkpt>
      <trkpt lat="42.7692" lon="1.48414">
        <ele>928</ele>
        <time>2026-06-28T08:10:49.000Z</time>
      </trkpt>
      <trkpt lat="42.7692" lon="1.48411">
        <ele>928</ele>
        <time>2026-06-28T08:10:50.000Z</time>
      </trkpt>
      <trkpt lat="42.7692" lon="1.48409">
        <ele>928</ele>
        <time>2026-06-28T08:10:51.000Z</time>
      </trkpt>
      <trkpt lat="42.7692" lon="1.48407">
        <ele>928</ele>
        <time>2026-06-28T08:10:52.000Z</time>
      </trkpt>
      <trkpt lat="42.7692" lon="1.48407">
        <ele>929</ele>
        <time>2026-06-28T08:10:53.000Z</time>
      </trkpt>
      <trkpt lat="42.76921" lon="1.48406">
        <ele>930</ele>
        <time>2026-06-28T08:10:54.000Z</time>
      </trkpt>
      <trkpt lat="42.7692" lon="1.48404">
        <ele>930</ele>
        <time>2026-06-28T08:10:55.000Z</time>
      </trkpt>
      <trkpt lat="42.76919" lon="1.48403">
        <ele>930</ele>
        <time>2026-06-28T08:10:56.000Z</time>
      </trkpt>
      <trkpt lat="42.76918" lon="1.48402">
        <ele>930</ele>
        <time>2026-06-28T08:10:57.000Z</time>
      </trkpt>
      <trkpt lat="42.76917" lon="1.48401">
        <ele>931</ele>
        <time>2026-06-28T08:10:58.000Z</time>
      </trkpt>
      <trkpt lat="42.76916" lon="1.48398">
        <ele>931</ele>
        <time>2026-06-28T08:10:59.000Z</time>
      </trkpt>
      <trkpt lat="42.76916" lon="1.48395">
        <ele>931</ele>
        <time>2026-06-28T08:11:00.000Z</time>
      </trkpt>
      <trkpt lat="42.76915" lon="1.48392">
        <ele>931</ele>
        <time>2026-06-28T08:11:01.000Z</time>
      </trkpt>
      <trkpt lat="42.76914" lon="1.48389">
        <ele>931</ele>
        <time>2026-06-28T08:11:02.000Z</time>
      </trkpt>
      <trkpt lat="42.76913" lon="1.48386">
        <ele>931</ele>
        <time>2026-06-28T08:11:03.000Z</time>
      </trkpt>
      <trkpt lat="42.76914" lon="1.48384">
        <ele>931</ele>
        <time>2026-06-28T08:11:04.000Z</time>
      </trkpt>
      <trkpt lat="42.76914" lon="1.48382">
        <ele>931</ele>
        <time>2026-06-28T08:11:05.000Z</time>
      </trkpt>
      <trkpt lat="42.76914" lon="1.48379">
        <ele>931</ele>
        <time>2026-06-28T08:11:06.000Z</time>
      </trkpt>
      <trkpt lat="42.76914" lon="1.48377">
        <ele>931</ele>
        <time>2026-06-28T08:11:07.000Z</time>
      </trkpt>
      <trkpt lat="42.76914" lon="1.48375">
        <ele>931</ele>
        <time>2026-06-28T08:11:08.000Z</time>
      </trkpt>
      <trkpt lat="42.76914" lon="1.48375">
        <ele>932</ele>
        <time>2026-06-28T08:11:09.000Z</time>
      </trkpt>
      <trkpt lat="42.76914" lon="1.48374">
        <ele>932</ele>
        <time>2026-06-28T08:11:10.000Z</time>
      </trkpt>
      <trkpt lat="42.76915" lon="1.48373">
        <ele>933</ele>
        <time>2026-06-28T08:11:11.000Z</time>
      </trkpt>
      <trkpt lat="42.76915" lon="1.48371">
        <ele>933</ele>
        <time>2026-06-28T08:11:12.000Z</time>
      </trkpt>
      <trkpt lat="42.76916" lon="1.4837">
        <ele>934</ele>
        <time>2026-06-28T08:11:13.000Z</time>
      </trkpt>
      <trkpt lat="42.76917" lon="1.48368">
        <ele>935</ele>
        <time>2026-06-28T08:11:14.000Z</time>
      </trkpt>
      <trkpt lat="42.76918" lon="1.48365">
        <ele>936</ele>
        <time>2026-06-28T08:11:15.000Z</time>
      </trkpt>
      <trkpt lat="42.76919" lon="1.48361">
        <ele>936</ele>
        <time>2026-06-28T08:11:16.000Z</time>
      </trkpt>
      <trkpt lat="42.76921" lon="1.48357">
        <ele>937</ele>
        <time>2026-06-28T08:11:17.000Z</time>
      </trkpt>
      <trkpt lat="42.76922" lon="1.48353">
        <ele>938</ele>
        <time>2026-06-28T08:11:18.000Z</time>
      </trkpt>
      <trkpt lat="42.76924" lon="1.48347">
        <ele>937</ele>
        <time>2026-06-28T08:11:19.000Z</time>
      </trkpt>
      <trkpt lat="42.76925" lon="1.48343">
        <ele>937</ele>
        <time>2026-06-28T08:11:20.000Z</time>
      </trkpt>
      <trkpt lat="42.76927" lon="1.4834">
        <ele>936</ele>
        <time>2026-06-28T08:11:21.000Z</time>
      </trkpt>
      <trkpt lat="42.76928" lon="1.48336">
        <ele>936</ele>
        <time>2026-06-28T08:11:22.000Z</time>
      </trkpt>
      <trkpt lat="42.76928" lon="1.48333">
        <ele>936</ele>
        <time>2026-06-28T08:11:23.000Z</time>
      </trkpt>
      <trkpt lat="42.76929" lon="1.48329">
        <ele>936</ele>
        <time>2026-06-28T08:11:24.000Z</time>
      </trkpt>
      <trkpt lat="42.7693" lon="1.48324">
        <ele>936</ele>
        <time>2026-06-28T08:11:25.000Z</time>
      </trkpt>
      <trkpt lat="42.7693" lon="1.4832">
        <ele>937</ele>
        <time>2026-06-28T08:11:26.000Z</time>
      </trkpt>
      <trkpt lat="42.76931" lon="1.48315">
        <ele>936</ele>
        <time>2026-06-28T08:11:27.000Z</time>
      </trkpt>
      <trkpt lat="42.76932" lon="1.48312">
        <ele>936</ele>
        <time>2026-06-28T08:11:28.000Z</time>
      </trkpt>
      <trkpt lat="42.76932" lon="1.48308">
        <ele>936</ele>
        <time>2026-06-28T08:11:29.000Z</time>
      </trkpt>
      <trkpt lat="42.76932" lon="1.48304">
        <ele>936</ele>
        <time>2026-06-28T08:11:30.000Z</time>
      </trkpt>
      <trkpt lat="42.76933" lon="1.483">
        <ele>935</ele>
        <time>2026-06-28T08:11:31.000Z</time>
      </trkpt>
      <trkpt lat="42.76933" lon="1.48296">
        <ele>935</ele>
        <time>2026-06-28T08:11:32.000Z</time>
      </trkpt>
      <trkpt lat="42.76933" lon="1.48292">
        <ele>935</ele>
        <time>2026-06-28T08:11:33.000Z</time>
      </trkpt>
      <trkpt lat="42.76933" lon="1.48289">
        <ele>935</ele>
        <time>2026-06-28T08:11:34.000Z</time>
      </trkpt>
      <trkpt lat="42.76933" lon="1.48284">
        <ele>935</ele>
        <time>2026-06-28T08:11:35.000Z</time>
      </trkpt>
      <trkpt lat="42.76933" lon="1.4828">
        <ele>936</ele>
        <time>2026-06-28T08:11:36.000Z</time>
      </trkpt>
      <trkpt lat="42.76934" lon="1.48276">
        <ele>935</ele>
        <time>2026-06-28T08:11:37.000Z</time>
      </trkpt>
      <trkpt lat="42.76934" lon="1.48271">
        <ele>935</ele>
        <time>2026-06-28T08:11:38.000Z</time>
      </trkpt>
      <trkpt lat="42.76935" lon="1.48268">
        <ele>935</ele>
        <time>2026-06-28T08:11:39.000Z</time>
      </trkpt>
      <trkpt lat="42.76935" lon="1.48264">
        <ele>934</ele>
        <time>2026-06-28T08:11:40.000Z</time>
      </trkpt>
      <trkpt lat="42.76936" lon="1.4826">
        <ele>934</ele>
        <time>2026-06-28T08:11:41.000Z</time>
      </trkpt>
      <trkpt lat="42.76936" lon="1.48257">
        <ele>934</ele>
        <time>2026-06-28T08:11:42.000Z</time>
      </trkpt>
      <trkpt lat="42.76936" lon="1.48254">
        <ele>934</ele>
        <time>2026-06-28T08:11:43.000Z</time>
      </trkpt>
      <trkpt lat="42.76936" lon="1.48251">
        <ele>934</ele>
        <time>2026-06-28T08:11:44.000Z</time>
      </trkpt>
      <trkpt lat="42.76935" lon="1.48246">
        <ele>934</ele>
        <time>2026-06-28T08:11:45.000Z</time>
      </trkpt>
      <trkpt lat="42.76935" lon="1.48243">
        <ele>933</ele>
        <time>2026-06-28T08:11:46.000Z</time>
      </trkpt>
      <trkpt lat="42.76934" lon="1.48239">
        <ele>932</ele>
        <time>2026-06-28T08:11:47.000Z</time>
      </trkpt>
      <trkpt lat="42.76932" lon="1.48235">
        <ele>931</ele>
        <time>2026-06-28T08:11:48.000Z</time>
      </trkpt>
      <trkpt lat="42.7693" lon="1.48229">
        <ele>930</ele>
        <time>2026-06-28T08:11:49.000Z</time>
      </trkpt>
      <trkpt lat="42.76929" lon="1.48224">
        <ele>929</ele>
        <time>2026-06-28T08:11:50.000Z</time>
      </trkpt>
      <trkpt lat="42.76929" lon="1.48221">
        <ele>929</ele>
        <time>2026-06-28T08:11:51.000Z</time>
      </trkpt>
      <trkpt lat="42.76929" lon="1.48219">
        <ele>928</ele>
        <time>2026-06-28T08:11:52.000Z</time>
      </trkpt>
      <trkpt lat="42.76928" lon="1.48217">
        <ele>927</ele>
        <time>2026-06-28T08:11:53.000Z</time>
      </trkpt>
      <trkpt lat="42.76927" lon="1.48213">
        <ele>927</ele>
        <time>2026-06-28T08:11:54.000Z</time>
      </trkpt>
      <trkpt lat="42.76928" lon="1.4821">
        <ele>927</ele>
        <time>2026-06-28T08:11:55.000Z</time>
      </trkpt>
      <trkpt lat="42.76928" lon="1.48206">
        <ele>927</ele>
        <time>2026-06-28T08:11:56.000Z</time>
      </trkpt>
      <trkpt lat="42.76928" lon="1.48201">
        <ele>927</ele>
        <time>2026-06-28T08:11:57.000Z</time>
      </trkpt>
      <trkpt lat="42.76928" lon="1.48197">
        <ele>927</ele>
        <time>2026-06-28T08:11:58.000Z</time>
      </trkpt>
      <trkpt lat="42.76929" lon="1.48194">
        <ele>926</ele>
        <time>2026-06-28T08:11:59.000Z</time>
      </trkpt>
      <trkpt lat="42.76929" lon="1.48191">
        <ele>926</ele>
        <time>2026-06-28T08:12:00.000Z</time>
      </trkpt>
      <trkpt lat="42.76929" lon="1.48189">
        <ele>926</ele>
        <time>2026-06-28T08:12:01.000Z</time>
      </trkpt>
      <trkpt lat="42.76929" lon="1.48186">
        <ele>926</ele>
        <time>2026-06-28T08:12:02.000Z</time>
      </trkpt>
      <trkpt lat="42.76929" lon="1.48183">
        <ele>926</ele>
        <time>2026-06-28T08:12:03.000Z</time>
      </trkpt>
      <trkpt lat="42.76928" lon="1.48179">
        <ele>925</ele>
        <time>2026-06-28T08:12:04.000Z</time>
      </trkpt>
      <trkpt lat="42.76928" lon="1.48175">
        <ele>925</ele>
        <time>2026-06-28T08:12:05.000Z</time>
      </trkpt>
      <trkpt lat="42.76928" lon="1.48171">
        <ele>924</ele>
        <time>2026-06-28T08:12:06.000Z</time>
      </trkpt>
      <trkpt lat="42.76927" lon="1.48167">
        <ele>924</ele>
        <time>2026-06-28T08:12:07.000Z</time>
      </trkpt>
      <trkpt lat="42.76927" lon="1.48163">
        <ele>924</ele>
        <time>2026-06-28T08:12:08.000Z</time>
      </trkpt>
      <trkpt lat="42.76926" lon="1.48158">
        <ele>923</ele>
        <time>2026-06-28T08:12:09.000Z</time>
      </trkpt>
      <trkpt lat="42.76926" lon="1.48154">
        <ele>923</ele>
        <time>2026-06-28T08:12:10.000Z</time>
      </trkpt>
      <trkpt lat="42.76926" lon="1.48149">
        <ele>922</ele>
        <time>2026-06-28T08:12:11.000Z</time>
      </trkpt>
      <trkpt lat="42.76926" lon="1.48144">
        <ele>922</ele>
        <time>2026-06-28T08:12:12.000Z</time>
      </trkpt>
      <trkpt lat="42.76925" lon="1.48139">
        <ele>922</ele>
        <time>2026-06-28T08:12:13.000Z</time>
      </trkpt>
      <trkpt lat="42.76925" lon="1.48133">
        <ele>922</ele>
        <time>2026-06-28T08:12:14.000Z</time>
      </trkpt>
      <trkpt lat="42.76924" lon="1.48127">
        <ele>921</ele>
        <time>2026-06-28T08:12:15.000Z</time>
      </trkpt>
      <trkpt lat="42.76924" lon="1.48122">
        <ele>921</ele>
        <time>2026-06-28T08:12:16.000Z</time>
      </trkpt>
      <trkpt lat="42.76924" lon="1.48116">
        <ele>920</ele>
        <time>2026-06-28T08:12:17.000Z</time>
      </trkpt>
      <trkpt lat="42.76923" lon="1.48112">
        <ele>920</ele>
        <time>2026-06-28T08:12:18.000Z</time>
      </trkpt>
      <trkpt lat="42.76922" lon="1.48107">
        <ele>920</ele>
        <time>2026-06-28T08:12:19.000Z</time>
      </trkpt>
      <trkpt lat="42.76922" lon="1.48102">
        <ele>920</ele>
        <time>2026-06-28T08:12:20.000Z</time>
      </trkpt>
      <trkpt lat="42.76921" lon="1.48098">
        <ele>920</ele>
        <time>2026-06-28T08:12:21.000Z</time>
      </trkpt>
      <trkpt lat="42.7692" lon="1.48093">
        <ele>920</ele>
        <time>2026-06-28T08:12:22.000Z</time>
      </trkpt>
      <trkpt lat="42.76918" lon="1.48087">
        <ele>919</ele>
        <time>2026-06-28T08:12:23.000Z</time>
      </trkpt>
      <trkpt lat="42.76916" lon="1.48081">
        <ele>919</ele>
        <time>2026-06-28T08:12:24.000Z</time>
      </trkpt>
      <trkpt lat="42.76916" lon="1.48076">
        <ele>918</ele>
        <time>2026-06-28T08:12:25.000Z</time>
      </trkpt>
      <trkpt lat="42.76915" lon="1.48071">
        <ele>919</ele>
        <time>2026-06-28T08:12:26.000Z</time>
      </trkpt>
      <trkpt lat="42.76915" lon="1.48066">
        <ele>919</ele>
        <time>2026-06-28T08:12:27.000Z</time>
      </trkpt>
      <trkpt lat="42.76915" lon="1.48061">
        <ele>919</ele>
        <time>2026-06-28T08:12:28.000Z</time>
      </trkpt>
      <trkpt lat="42.76915" lon="1.48056">
        <ele>919</ele>
        <time>2026-06-28T08:12:29.000Z</time>
      </trkpt>
      <trkpt lat="42.76915" lon="1.48052">
        <ele>919</ele>
        <time>2026-06-28T08:12:30.000Z</time>
      </trkpt>
      <trkpt lat="42.76915" lon="1.48047">
        <ele>919</ele>
        <time>2026-06-28T08:12:31.000Z</time>
      </trkpt>
      <trkpt lat="42.76915" lon="1.48041">
        <ele>919</ele>
        <time>2026-06-28T08:12:32.000Z</time>
      </trkpt>
      <trkpt lat="42.76914" lon="1.48036">
        <ele>920</ele>
        <time>2026-06-28T08:12:33.000Z</time>
      </trkpt>
      <trkpt lat="42.76914" lon="1.4803">
        <ele>920</ele>
        <time>2026-06-28T08:12:34.000Z</time>
      </trkpt>
      <trkpt lat="42.76913" lon="1.48024">
        <ele>920</ele>
        <time>2026-06-28T08:12:35.000Z</time>
      </trkpt>
      <trkpt lat="42.76912" lon="1.48017">
        <ele>919</ele>
        <time>2026-06-28T08:12:36.000Z</time>
      </trkpt>
      <trkpt lat="42.76911" lon="1.48011">
        <ele>918</ele>
        <time>2026-06-28T08:12:37.000Z</time>
      </trkpt>
      <trkpt lat="42.7691" lon="1.48005">
        <ele>918</ele>
        <time>2026-06-28T08:12:38.000Z</time>
      </trkpt>
      <trkpt lat="42.7691" lon="1.47999">
        <ele>918</ele>
        <time>2026-06-28T08:12:39.000Z</time>
      </trkpt>
      <trkpt lat="42.76908" lon="1.47993">
        <ele>917</ele>
        <time>2026-06-28T08:12:40.000Z</time>
      </trkpt>
      <trkpt lat="42.76906" lon="1.47986">
        <ele>916</ele>
        <time>2026-06-28T08:12:41.000Z</time>
      </trkpt>
      <trkpt lat="42.76904" lon="1.47979">
        <ele>916</ele>
        <time>2026-06-28T08:12:42.000Z</time>
      </trkpt>
      <trkpt lat="42.76904" lon="1.47973">
        <ele>916</ele>
        <time>2026-06-28T08:12:43.000Z</time>
      </trkpt>
      <trkpt lat="42.76903" lon="1.47968">
        <ele>915</ele>
        <time>2026-06-28T08:12:44.000Z</time>
      </trkpt>
      <trkpt lat="42.76902" lon="1.47963">
        <ele>915</ele>
        <time>2026-06-28T08:12:45.000Z</time>
      </trkpt>
      <trkpt lat="42.76901" lon="1.47957">
        <ele>915</ele>
        <time>2026-06-28T08:12:46.000Z</time>
      </trkpt>
      <trkpt lat="42.76899" lon="1.47951">
        <ele>914</ele>
        <time>2026-06-28T08:12:47.000Z</time>
      </trkpt>
      <trkpt lat="42.76897" lon="1.47945">
        <ele>913</ele>
        <time>2026-06-28T08:12:48.000Z</time>
      </trkpt>
      <trkpt lat="42.76896" lon="1.47938">
        <ele>913</ele>
        <time>2026-06-28T08:12:49.000Z</time>
      </trkpt>
      <trkpt lat="42.76894" lon="1.47931">
        <ele>912</ele>
        <time>2026-06-28T08:12:50.000Z</time>
      </trkpt>
      <trkpt lat="42.76892" lon="1.47926">
        <ele>912</ele>
        <time>2026-06-28T08:12:51.000Z</time>
      </trkpt>
      <trkpt lat="42.7689" lon="1.47921">
        <ele>911</ele>
        <time>2026-06-28T08:12:52.000Z</time>
      </trkpt>
      <trkpt lat="42.76889" lon="1.47916">
        <ele>911</ele>
        <time>2026-06-28T08:12:53.000Z</time>
      </trkpt>
      <trkpt lat="42.76887" lon="1.47912">
        <ele>910</ele>
        <time>2026-06-28T08:12:54.000Z</time>
      </trkpt>
      <trkpt lat="42.76886" lon="1.47905">
        <ele>910</ele>
        <time>2026-06-28T08:12:55.000Z</time>
      </trkpt>
      <trkpt lat="42.76883" lon="1.47899">
        <ele>909</ele>
        <time>2026-06-28T08:12:56.000Z</time>
      </trkpt>
      <trkpt lat="42.76882" lon="1.47894">
        <ele>908</ele>
        <time>2026-06-28T08:12:57.000Z</time>
      </trkpt>
      <trkpt lat="42.76881" lon="1.4789">
        <ele>908</ele>
        <time>2026-06-28T08:12:58.000Z</time>
      </trkpt>
      <trkpt lat="42.7688" lon="1.47887">
        <ele>908</ele>
        <time>2026-06-28T08:12:59.000Z</time>
      </trkpt>
      <trkpt lat="42.7688" lon="1.47885">
        <ele>908</ele>
        <time>2026-06-28T08:13:00.000Z</time>
      </trkpt>
      <trkpt lat="42.7688" lon="1.47883">
        <ele>907</ele>
        <time>2026-06-28T08:13:01.000Z</time>
      </trkpt>
      <trkpt lat="42.76879" lon="1.4788">
        <ele>907</ele>
        <time>2026-06-28T08:13:02.000Z</time>
      </trkpt>
      <trkpt lat="42.76879" lon="1.47878">
        <ele>907</ele>
        <time>2026-06-28T08:13:03.000Z</time>
      </trkpt>
      <trkpt lat="42.76879" lon="1.47874">
        <ele>907</ele>
        <time>2026-06-28T08:13:04.000Z</time>
      </trkpt>
      <trkpt lat="42.76879" lon="1.47872">
        <ele>907</ele>
        <time>2026-06-28T08:13:05.000Z</time>
      </trkpt>
      <trkpt lat="42.76879" lon="1.47868">
        <ele>907</ele>
        <time>2026-06-28T08:13:06.000Z</time>
      </trkpt>
      <trkpt lat="42.76879" lon="1.47865">
        <ele>907</ele>
        <time>2026-06-28T08:13:07.000Z</time>
      </trkpt>
      <trkpt lat="42.76878" lon="1.47863">
        <ele>907</ele>
        <time>2026-06-28T08:13:08.000Z</time>
      </trkpt>
      <trkpt lat="42.76878" lon="1.47861">
        <ele>907</ele>
        <time>2026-06-28T08:13:09.000Z</time>
      </trkpt>
      <trkpt lat="42.76877" lon="1.47858">
        <ele>907</ele>
        <time>2026-06-28T08:13:10.000Z</time>
      </trkpt>
      <trkpt lat="42.76876" lon="1.47856">
        <ele>907</ele>
        <time>2026-06-28T08:13:11.000Z</time>
      </trkpt>
      <trkpt lat="42.76875" lon="1.47854">
        <ele>907</ele>
        <time>2026-06-28T08:13:12.000Z</time>
      </trkpt>
      <trkpt lat="42.76875" lon="1.47851">
        <ele>907</ele>
        <time>2026-06-28T08:13:13.000Z</time>
      </trkpt>
      <trkpt lat="42.76876" lon="1.47848">
        <ele>907</ele>
        <time>2026-06-28T08:13:14.000Z</time>
      </trkpt>
      <trkpt lat="42.76876" lon="1.47846">
        <ele>907</ele>
        <time>2026-06-28T08:13:15.000Z</time>
      </trkpt>
      <trkpt lat="42.76876" lon="1.47844">
        <ele>907</ele>
        <time>2026-06-28T08:13:16.000Z</time>
      </trkpt>
      <trkpt lat="42.76875" lon="1.47841">
        <ele>907</ele>
        <time>2026-06-28T08:13:17.000Z</time>
      </trkpt>
      <trkpt lat="42.76874" lon="1.47838">
        <ele>907</ele>
        <time>2026-06-28T08:13:18.000Z</time>
      </trkpt>
      <trkpt lat="42.76874" lon="1.47835">
        <ele>907</ele>
        <time>2026-06-28T08:13:19.000Z</time>
      </trkpt>
      <trkpt lat="42.76874" lon="1.47832">
        <ele>908</ele>
        <time>2026-06-28T08:13:20.000Z</time>
      </trkpt>
      <trkpt lat="42.76874" lon="1.47829">
        <ele>907</ele>
        <time>2026-06-28T08:13:21.000Z</time>
      </trkpt>
      <trkpt lat="42.76874" lon="1.47825">
        <ele>907</ele>
        <time>2026-06-28T08:13:22.000Z</time>
      </trkpt>
      <trkpt lat="42.76874" lon="1.47822">
        <ele>907</ele>
        <time>2026-06-28T08:13:23.000Z</time>
      </trkpt>
      <trkpt lat="42.76874" lon="1.47818">
        <ele>907</ele>
        <time>2026-06-28T08:13:24.000Z</time>
      </trkpt>
      <trkpt lat="42.76874" lon="1.47815">
        <ele>907</ele>
        <time>2026-06-28T08:13:25.000Z</time>
      </trkpt>
      <trkpt lat="42.76875" lon="1.47811">
        <ele>907</ele>
        <time>2026-06-28T08:13:26.000Z</time>
      </trkpt>
      <trkpt lat="42.76875" lon="1.47808">
        <ele>907</ele>
        <time>2026-06-28T08:13:27.000Z</time>
      </trkpt>
      <trkpt lat="42.76876" lon="1.47806">
        <ele>907</ele>
        <time>2026-06-28T08:13:28.000Z</time>
      </trkpt>
      <trkpt lat="42.76876" lon="1.47803">
        <ele>906</ele>
        <time>2026-06-28T08:13:29.000Z</time>
      </trkpt>
      <trkpt lat="42.76877" lon="1.478">
        <ele>906</ele>
        <time>2026-06-28T08:13:30.000Z</time>
      </trkpt>
      <trkpt lat="42.76877" lon="1.47798">
        <ele>906</ele>
        <time>2026-06-28T08:13:31.000Z</time>
      </trkpt>
      <trkpt lat="42.76878" lon="1.47794">
        <ele>907</ele>
        <time>2026-06-28T08:13:32.000Z</time>
      </trkpt>
      <trkpt lat="42.76878" lon="1.47791">
        <ele>907</ele>
        <time>2026-06-28T08:13:33.000Z</time>
      </trkpt>
      <trkpt lat="42.76878" lon="1.47788">
        <ele>907</ele>
        <time>2026-06-28T08:13:34.000Z</time>
      </trkpt>
      <trkpt lat="42.76879" lon="1.47784">
        <ele>907</ele>
        <time>2026-06-28T08:13:35.000Z</time>
      </trkpt>
      <trkpt lat="42.76879" lon="1.47781">
        <ele>907</ele>
        <time>2026-06-28T08:13:36.000Z</time>
      </trkpt>
      <trkpt lat="42.7688" lon="1.47778">
        <ele>907</ele>
        <time>2026-06-28T08:13:37.000Z</time>
      </trkpt>
      <trkpt lat="42.7688" lon="1.47774">
        <ele>907</ele>
        <time>2026-06-28T08:13:38.000Z</time>
      </trkpt>
      <trkpt lat="42.76881" lon="1.47771">
        <ele>907</ele>
        <time>2026-06-28T08:13:39.000Z</time>
      </trkpt>
      <trkpt lat="42.76882" lon="1.47768">
        <ele>906</ele>
        <time>2026-06-28T08:13:40.000Z</time>
      </trkpt>
      <trkpt lat="42.76882" lon="1.47766">
        <ele>907</ele>
        <time>2026-06-28T08:13:41.000Z</time>
      </trkpt>
      <trkpt lat="42.76882" lon="1.47764">
        <ele>907</ele>
        <time>2026-06-28T08:13:42.000Z</time>
      </trkpt>
      <trkpt lat="42.76883" lon="1.47761">
        <ele>908</ele>
        <time>2026-06-28T08:13:43.000Z</time>
      </trkpt>
      <trkpt lat="42.76884" lon="1.47758">
        <ele>908</ele>
        <time>2026-06-28T08:13:44.000Z</time>
      </trkpt>
      <trkpt lat="42.76884" lon="1.47755">
        <ele>908</ele>
        <time>2026-06-28T08:13:45.000Z</time>
      </trkpt>
      <trkpt lat="42.76885" lon="1.47753">
        <ele>908</ele>
        <time>2026-06-28T08:13:46.000Z</time>
      </trkpt>
      <trkpt lat="42.76885" lon="1.47751">
        <ele>907</ele>
        <time>2026-06-28T08:13:47.000Z</time>
      </trkpt>
      <trkpt lat="42.76885" lon="1.47749">
        <ele>907</ele>
        <time>2026-06-28T08:13:48.000Z</time>
      </trkpt>
      <trkpt lat="42.76886" lon="1.47747">
        <ele>907</ele>
        <time>2026-06-28T08:13:49.000Z</time>
      </trkpt>
      <trkpt lat="42.76886" lon="1.47745">
        <ele>907</ele>
        <time>2026-06-28T08:13:50.000Z</time>
      </trkpt>
      <trkpt lat="42.76886" lon="1.47743">
        <ele>908</ele>
        <time>2026-06-28T08:13:51.000Z</time>
      </trkpt>
      <trkpt lat="42.76886" lon="1.47741">
        <ele>908</ele>
        <time>2026-06-28T08:13:52.000Z</time>
      </trkpt>
      <trkpt lat="42.76887" lon="1.4774">
        <ele>907</ele>
        <time>2026-06-28T08:13:53.000Z</time>
      </trkpt>
      <trkpt lat="42.76887" lon="1.47738">
        <ele>908</ele>
        <time>2026-06-28T08:13:54.000Z</time>
      </trkpt>
      <trkpt lat="42.76887" lon="1.47736">
        <ele>908</ele>
        <time>2026-06-28T08:13:55.000Z</time>
      </trkpt>
      <trkpt lat="42.76887" lon="1.47735">
        <ele>908</ele>
        <time>2026-06-28T08:13:56.000Z</time>
      </trkpt>
      <trkpt lat="42.76887" lon="1.47732">
        <ele>908</ele>
        <time>2026-06-28T08:13:57.000Z</time>
      </trkpt>
      <trkpt lat="42.76888" lon="1.4773">
        <ele>908</ele>
        <time>2026-06-28T08:13:58.000Z</time>
      </trkpt>
      <trkpt lat="42.76888" lon="1.47729">
        <ele>907</ele>
        <time>2026-06-28T08:13:59.000Z</time>
      </trkpt>
      <trkpt lat="42.76888" lon="1.47728">
        <ele>907</ele>
        <time>2026-06-28T08:14:00.000Z</time>
      </trkpt>
      <trkpt lat="42.76888" lon="1.47727">
        <ele>907</ele>
        <time>2026-06-28T08:14:01.000Z</time>
      </trkpt>
      <trkpt lat="42.76888" lon="1.47725">
        <ele>907</ele>
        <time>2026-06-28T08:14:02.000Z</time>
      </trkpt>
      <trkpt lat="42.76888" lon="1.47724">
        <ele>906</ele>
        <time>2026-06-28T08:14:03.000Z</time>
      </trkpt>
      <trkpt lat="42.76888" lon="1.47723">
        <ele>907</ele>
        <time>2026-06-28T08:14:04.000Z</time>
      </trkpt>
      <trkpt lat="42.76888" lon="1.47722">
        <ele>907</ele>
        <time>2026-06-28T08:14:05.000Z</time>
      </trkpt>
      <trkpt lat="42.76889" lon="1.4772">
        <ele>907</ele>
        <time>2026-06-28T08:14:06.000Z</time>
      </trkpt>
      <trkpt lat="42.76889" lon="1.47719">
        <ele>907</ele>
        <time>2026-06-28T08:14:07.000Z</time>
      </trkpt>
      <trkpt lat="42.76888" lon="1.47718">
        <ele>907</ele>
        <time>2026-06-28T08:14:08.000Z</time>
      </trkpt>
      <trkpt lat="42.76889" lon="1.47716">
        <ele>907</ele>
        <time>2026-06-28T08:14:09.000Z</time>
      </trkpt>
      <trkpt lat="42.76889" lon="1.47715">
        <ele>906</ele>
        <time>2026-06-28T08:14:10.000Z</time>
      </trkpt>
      <trkpt lat="42.76889" lon="1.47713">
        <ele>906</ele>
        <time>2026-06-28T08:14:11.000Z</time>
      </trkpt>
      <trkpt lat="42.76889" lon="1.47711">
        <ele>906</ele>
        <time>2026-06-28T08:14:12.000Z</time>
      </trkpt>
      <trkpt lat="42.76888" lon="1.47709">
        <ele>907</ele>
        <time>2026-06-28T08:14:13.000Z</time>
      </trkpt>
      <trkpt lat="42.76888" lon="1.47707">
        <ele>907</ele>
        <time>2026-06-28T08:14:14.000Z</time>
      </trkpt>
      <trkpt lat="42.76887" lon="1.47705">
        <ele>908</ele>
        <time>2026-06-28T08:14:15.000Z</time>
      </trkpt>
      <trkpt lat="42.76888" lon="1.47703">
        <ele>908</ele>
        <time>2026-06-28T08:14:16.000Z</time>
      </trkpt>
      <trkpt lat="42.76888" lon="1.47701">
        <ele>909</ele>
        <time>2026-06-28T08:14:17.000Z</time>
      </trkpt>
      <trkpt lat="42.76888" lon="1.47699">
        <ele>910</ele>
        <time>2026-06-28T08:14:18.000Z</time>
      </trkpt>
      <trkpt lat="42.76888" lon="1.47697">
        <ele>910</ele>
        <time>2026-06-28T08:14:19.000Z</time>
      </trkpt>
      <trkpt lat="42.76888" lon="1.47694">
        <ele>911</ele>
        <time>2026-06-28T08:14:20.000Z</time>
      </trkpt>
      <trkpt lat="42.76889" lon="1.47693">
        <ele>912</ele>
        <time>2026-06-28T08:14:21.000Z</time>
      </trkpt>
      <trkpt lat="42.76889" lon="1.47691">
        <ele>913</ele>
        <time>2026-06-28T08:14:22.000Z</time>
      </trkpt>
      <trkpt lat="42.76889" lon="1.47689">
        <ele>913</ele>
        <time>2026-06-28T08:14:23.000Z</time>
      </trkpt>
      <trkpt lat="42.76889" lon="1.47686">
        <ele>913</ele>
        <time>2026-06-28T08:14:24.000Z</time>
      </trkpt>
      <trkpt lat="42.76889" lon="1.47684">
        <ele>914</ele>
        <time>2026-06-28T08:14:25.000Z</time>
      </trkpt>
      <trkpt lat="42.76889" lon="1.47683">
        <ele>915</ele>
        <time>2026-06-28T08:14:26.000Z</time>
      </trkpt>
      <trkpt lat="42.76889" lon="1.47681">
        <ele>915</ele>
        <time>2026-06-28T08:14:27.000Z</time>
      </trkpt>
      <trkpt lat="42.76889" lon="1.47679">
        <ele>916</ele>
        <time>2026-06-28T08:14:28.000Z</time>
      </trkpt>
      <trkpt lat="42.76888" lon="1.47677">
        <ele>916</ele>
        <time>2026-06-28T08:14:29.000Z</time>
      </trkpt>
      <trkpt lat="42.76888" lon="1.47674">
        <ele>917</ele>
        <time>2026-06-28T08:14:30.000Z</time>
      </trkpt>
      <trkpt lat="42.76888" lon="1.47672">
        <ele>918</ele>
        <time>2026-06-28T08:14:31.000Z</time>
      </trkpt>
      <trkpt lat="42.76888" lon="1.47669">
        <ele>919</ele>
        <time>2026-06-28T08:14:32.000Z</time>
      </trkpt>
      <trkpt lat="42.76888" lon="1.47667">
        <ele>920</ele>
        <time>2026-06-28T08:14:33.000Z</time>
      </trkpt>
      <trkpt lat="42.76887" lon="1.47664">
        <ele>922</ele>
        <time>2026-06-28T08:14:34.000Z</time>
      </trkpt>
      <trkpt lat="42.76887" lon="1.47662">
        <ele>923</ele>
        <time>2026-06-28T08:14:35.000Z</time>
      </trkpt>
      <trkpt lat="42.76888" lon="1.4766">
        <ele>924</ele>
        <time>2026-06-28T08:14:36.000Z</time>
      </trkpt>
      <trkpt lat="42.76887" lon="1.47658">
        <ele>924</ele>
        <time>2026-06-28T08:14:37.000Z</time>
      </trkpt>
      <trkpt lat="42.76888" lon="1.47655">
        <ele>925</ele>
        <time>2026-06-28T08:14:38.000Z</time>
      </trkpt>
      <trkpt lat="42.76888" lon="1.47653">
        <ele>925</ele>
        <time>2026-06-28T08:14:39.000Z</time>
      </trkpt>
      <trkpt lat="42.76888" lon="1.47651">
        <ele>926</ele>
        <time>2026-06-28T08:14:40.000Z</time>
      </trkpt>
      <trkpt lat="42.76889" lon="1.47649">
        <ele>926</ele>
        <time>2026-06-28T08:14:41.000Z</time>
      </trkpt>
      <trkpt lat="42.76889" lon="1.47647">
        <ele>926</ele>
        <time>2026-06-28T08:14:42.000Z</time>
      </trkpt>
      <trkpt lat="42.76889" lon="1.47645">
        <ele>927</ele>
        <time>2026-06-28T08:14:43.000Z</time>
      </trkpt>
      <trkpt lat="42.76889" lon="1.47643">
        <ele>928</ele>
        <time>2026-06-28T08:14:44.000Z</time>
      </trkpt>
      <trkpt lat="42.76889" lon="1.47641">
        <ele>928</ele>
        <time>2026-06-28T08:14:45.000Z</time>
      </trkpt>
      <trkpt lat="42.76889" lon="1.47638">
        <ele>929</ele>
        <time>2026-06-28T08:14:46.000Z</time>
      </trkpt>
      <trkpt lat="42.76889" lon="1.47636">
        <ele>930</ele>
        <time>2026-06-28T08:14:47.000Z</time>
      </trkpt>
      <trkpt lat="42.76889" lon="1.47633">
        <ele>930</ele>
        <time>2026-06-28T08:14:48.000Z</time>
      </trkpt>
      <trkpt lat="42.76889" lon="1.4763">
        <ele>930</ele>
        <time>2026-06-28T08:14:49.000Z</time>
      </trkpt>
      <trkpt lat="42.76889" lon="1.47628">
        <ele>930</ele>
        <time>2026-06-28T08:14:50.000Z</time>
      </trkpt>
      <trkpt lat="42.76888" lon="1.47625">
        <ele>930</ele>
        <time>2026-06-28T08:14:51.000Z</time>
      </trkpt>
      <trkpt lat="42.76888" lon="1.47622">
        <ele>931</ele>
        <time>2026-06-28T08:14:52.000Z</time>
      </trkpt>
      <trkpt lat="42.76888" lon="1.47619">
        <ele>931</ele>
        <time>2026-06-28T08:14:53.000Z</time>
      </trkpt>
      <trkpt lat="42.76888" lon="1.47616">
        <ele>932</ele>
        <time>2026-06-28T08:14:54.000Z</time>
      </trkpt>
      <trkpt lat="42.76888" lon="1.47614">
        <ele>933</ele>
        <time>2026-06-28T08:14:55.000Z</time>
      </trkpt>
      <trkpt lat="42.76889" lon="1.47611">
        <ele>933</ele>
        <time>2026-06-28T08:14:56.000Z</time>
      </trkpt>
      <trkpt lat="42.7689" lon="1.47609">
        <ele>933</ele>
        <time>2026-06-28T08:14:57.000Z</time>
      </trkpt>
      <trkpt lat="42.7689" lon="1.47606">
        <ele>933</ele>
        <time>2026-06-28T08:14:58.000Z</time>
      </trkpt>
      <trkpt lat="42.7689" lon="1.47603">
        <ele>933</ele>
        <time>2026-06-28T08:14:59.000Z</time>
      </trkpt>
      <trkpt lat="42.76891" lon="1.476">
        <ele>934</ele>
        <time>2026-06-28T08:15:00.000Z</time>
      </trkpt>
      <trkpt lat="42.76892" lon="1.47598">
        <ele>934</ele>
        <time>2026-06-28T08:15:01.000Z</time>
      </trkpt>
      <trkpt lat="42.76892" lon="1.47595">
        <ele>935</ele>
        <time>2026-06-28T08:15:02.000Z</time>
      </trkpt>
      <trkpt lat="42.76893" lon="1.47592">
        <ele>934</ele>
        <time>2026-06-28T08:15:03.000Z</time>
      </trkpt>
      <trkpt lat="42.76894" lon="1.4759">
        <ele>934</ele>
        <time>2026-06-28T08:15:04.000Z</time>
      </trkpt>
      <trkpt lat="42.76894" lon="1.47587">
        <ele>934</ele>
        <time>2026-06-28T08:15:05.000Z</time>
      </trkpt>
      <trkpt lat="42.76895" lon="1.47584">
        <ele>934</ele>
        <time>2026-06-28T08:15:06.000Z</time>
      </trkpt>
      <trkpt lat="42.76896" lon="1.47582">
        <ele>934</ele>
        <time>2026-06-28T08:15:07.000Z</time>
      </trkpt>
      <trkpt lat="42.76897" lon="1.47579">
        <ele>934</ele>
        <time>2026-06-28T08:15:08.000Z</time>
      </trkpt>
      <trkpt lat="42.76897" lon="1.47576">
        <ele>934</ele>
        <time>2026-06-28T08:15:09.000Z</time>
      </trkpt>
      <trkpt lat="42.76898" lon="1.47573">
        <ele>935</ele>
        <time>2026-06-28T08:15:10.000Z</time>
      </trkpt>
      <trkpt lat="42.76899" lon="1.47571">
        <ele>934</ele>
        <time>2026-06-28T08:15:11.000Z</time>
      </trkpt>
      <trkpt lat="42.76899" lon="1.47568">
        <ele>934</ele>
        <time>2026-06-28T08:15:12.000Z</time>
      </trkpt>
      <trkpt lat="42.76901" lon="1.47565">
        <ele>934</ele>
        <time>2026-06-28T08:15:13.000Z</time>
      </trkpt>
      <trkpt lat="42.76902" lon="1.47562">
        <ele>934</ele>
        <time>2026-06-28T08:15:14.000Z</time>
      </trkpt>
      <trkpt lat="42.76903" lon="1.47559">
        <ele>934</ele>
        <time>2026-06-28T08:15:15.000Z</time>
      </trkpt>
      <trkpt lat="42.76903" lon="1.47556">
        <ele>934</ele>
        <time>2026-06-28T08:15:16.000Z</time>
      </trkpt>
      <trkpt lat="42.76904" lon="1.47554">
        <ele>933</ele>
        <time>2026-06-28T08:15:17.000Z</time>
      </trkpt>
      <trkpt lat="42.76905" lon="1.47552">
        <ele>933</ele>
        <time>2026-06-28T08:15:18.000Z</time>
      </trkpt>
      <trkpt lat="42.76906" lon="1.47549">
        <ele>932</ele>
        <time>2026-06-28T08:15:19.000Z</time>
      </trkpt>
      <trkpt lat="42.76907" lon="1.47547">
        <ele>933</ele>
        <time>2026-06-28T08:15:20.000Z</time>
      </trkpt>
      <trkpt lat="42.76907" lon="1.47544">
        <ele>932</ele>
        <time>2026-06-28T08:15:21.000Z</time>
      </trkpt>
      <trkpt lat="42.76908" lon="1.47542">
        <ele>932</ele>
        <time>2026-06-28T08:15:22.000Z</time>
      </trkpt>
      <trkpt lat="42.76908" lon="1.47539">
        <ele>933</ele>
        <time>2026-06-28T08:15:23.000Z</time>
      </trkpt>
      <trkpt lat="42.76909" lon="1.47537">
        <ele>933</ele>
        <time>2026-06-28T08:15:24.000Z</time>
      </trkpt>
      <trkpt lat="42.76909" lon="1.47534">
        <ele>933</ele>
        <time>2026-06-28T08:15:25.000Z</time>
      </trkpt>
      <trkpt lat="42.7691" lon="1.47532">
        <ele>933</ele>
        <time>2026-06-28T08:15:26.000Z</time>
      </trkpt>
      <trkpt lat="42.76911" lon="1.47528">
        <ele>933</ele>
        <time>2026-06-28T08:15:27.000Z</time>
      </trkpt>
      <trkpt lat="42.76912" lon="1.47525">
        <ele>933</ele>
        <time>2026-06-28T08:15:28.000Z</time>
      </trkpt>
      <trkpt lat="42.76913" lon="1.47521">
        <ele>933</ele>
        <time>2026-06-28T08:15:29.000Z</time>
      </trkpt>
      <trkpt lat="42.76914" lon="1.47519">
        <ele>933</ele>
        <time>2026-06-28T08:15:30.000Z</time>
      </trkpt>
      <trkpt lat="42.76915" lon="1.47517">
        <ele>933</ele>
        <time>2026-06-28T08:15:31.000Z</time>
      </trkpt>
      <trkpt lat="42.76916" lon="1.47515">
        <ele>932</ele>
        <time>2026-06-28T08:15:32.000Z</time>
      </trkpt>
      <trkpt lat="42.76917" lon="1.47512">
        <ele>932</ele>
        <time>2026-06-28T08:15:33.000Z</time>
      </trkpt>
      <trkpt lat="42.76919" lon="1.47509">
        <ele>932</ele>
        <time>2026-06-28T08:15:34.000Z</time>
      </trkpt>
      <trkpt lat="42.7692" lon="1.47505">
        <ele>932</ele>
        <time>2026-06-28T08:15:35.000Z</time>
      </trkpt>
      <trkpt lat="42.76922" lon="1.47502">
        <ele>931</ele>
        <time>2026-06-28T08:15:36.000Z</time>
      </trkpt>
      <trkpt lat="42.76923" lon="1.47499">
        <ele>930</ele>
        <time>2026-06-28T08:15:37.000Z</time>
      </trkpt>
      <trkpt lat="42.76925" lon="1.47497">
        <ele>929</ele>
        <time>2026-06-28T08:15:38.000Z</time>
      </trkpt>
      <trkpt lat="42.76926" lon="1.47494">
        <ele>929</ele>
        <time>2026-06-28T08:15:39.000Z</time>
      </trkpt>
      <trkpt lat="42.76927" lon="1.47491">
        <ele>929</ele>
        <time>2026-06-28T08:15:40.000Z</time>
      </trkpt>
      <trkpt lat="42.76929" lon="1.47488">
        <ele>929</ele>
        <time>2026-06-28T08:15:41.000Z</time>
      </trkpt>
      <trkpt lat="42.76931" lon="1.47484">
        <ele>929</ele>
        <time>2026-06-28T08:15:42.000Z</time>
      </trkpt>
      <trkpt lat="42.76933" lon="1.47482">
        <ele>930</ele>
        <time>2026-06-28T08:15:43.000Z</time>
      </trkpt>
      <trkpt lat="42.76933" lon="1.47479">
        <ele>929</ele>
        <time>2026-06-28T08:15:44.000Z</time>
      </trkpt>
      <trkpt lat="42.76935" lon="1.47476">
        <ele>929</ele>
        <time>2026-06-28T08:15:45.000Z</time>
      </trkpt>
      <trkpt lat="42.76935" lon="1.47473">
        <ele>929</ele>
        <time>2026-06-28T08:15:46.000Z</time>
      </trkpt>
      <trkpt lat="42.76936" lon="1.4747">
        <ele>930</ele>
        <time>2026-06-28T08:15:47.000Z</time>
      </trkpt>
      <trkpt lat="42.76937" lon="1.47467">
        <ele>930</ele>
        <time>2026-06-28T08:15:48.000Z</time>
      </trkpt>
      <trkpt lat="42.76938" lon="1.47465">
        <ele>930</ele>
        <time>2026-06-28T08:15:49.000Z</time>
      </trkpt>
      <trkpt lat="42.76939" lon="1.47463">
        <ele>930</ele>
        <time>2026-06-28T08:15:50.000Z</time>
      </trkpt>
      <trkpt lat="42.76941" lon="1.4746">
        <ele>930</ele>
        <time>2026-06-28T08:15:51.000Z</time>
      </trkpt>
      <trkpt lat="42.76942" lon="1.47457">
        <ele>929</ele>
        <time>2026-06-28T08:15:52.000Z</time>
      </trkpt>
      <trkpt lat="42.76943" lon="1.47454">
        <ele>930</ele>
        <time>2026-06-28T08:15:53.000Z</time>
      </trkpt>
      <trkpt lat="42.76945" lon="1.47452">
        <ele>930</ele>
        <time>2026-06-28T08:15:54.000Z</time>
      </trkpt>
      <trkpt lat="42.76946" lon="1.4745">
        <ele>930</ele>
        <time>2026-06-28T08:15:55.000Z</time>
      </trkpt>
      <trkpt lat="42.76947" lon="1.47447">
        <ele>929</ele>
        <time>2026-06-28T08:15:56.000Z</time>
      </trkpt>
      <trkpt lat="42.76947" lon="1.47445">
        <ele>930</ele>
        <time>2026-06-28T08:15:57.000Z</time>
      </trkpt>
      <trkpt lat="42.76948" lon="1.47442">
        <ele>930</ele>
        <time>2026-06-28T08:15:58.000Z</time>
      </trkpt>
      <trkpt lat="42.7695" lon="1.4744">
        <ele>930</ele>
        <time>2026-06-28T08:15:59.000Z</time>
      </trkpt>
      <trkpt lat="42.76951" lon="1.47437">
        <ele>930</ele>
        <time>2026-06-28T08:16:00.000Z</time>
      </trkpt>
      <trkpt lat="42.76952" lon="1.47435">
        <ele>930</ele>
        <time>2026-06-28T08:16:01.000Z</time>
      </trkpt>
      <trkpt lat="42.76954" lon="1.47432">
        <ele>930</ele>
        <time>2026-06-28T08:16:02.000Z</time>
      </trkpt>
      <trkpt lat="42.76955" lon="1.4743">
        <ele>930</ele>
        <time>2026-06-28T08:16:03.000Z</time>
      </trkpt>
      <trkpt lat="42.76955" lon="1.47427">
        <ele>931</ele>
        <time>2026-06-28T08:16:04.000Z</time>
      </trkpt>
      <trkpt lat="42.76957" lon="1.47424">
        <ele>931</ele>
        <time>2026-06-28T08:16:05.000Z</time>
      </trkpt>
      <trkpt lat="42.76957" lon="1.4742">
        <ele>932</ele>
        <time>2026-06-28T08:16:06.000Z</time>
      </trkpt>
      <trkpt lat="42.76959" lon="1.47418">
        <ele>931</ele>
        <time>2026-06-28T08:16:07.000Z</time>
      </trkpt>
      <trkpt lat="42.7696" lon="1.47415">
        <ele>932</ele>
        <time>2026-06-28T08:16:08.000Z</time>
      </trkpt>
      <trkpt lat="42.76962" lon="1.47413">
        <ele>932</ele>
        <time>2026-06-28T08:16:09.000Z</time>
      </trkpt>
      <trkpt lat="42.76963" lon="1.4741">
        <ele>933</ele>
        <time>2026-06-28T08:16:10.000Z</time>
      </trkpt>
      <trkpt lat="42.76964" lon="1.47408">
        <ele>933</ele>
        <time>2026-06-28T08:16:11.000Z</time>
      </trkpt>
      <trkpt lat="42.76965" lon="1.47405">
        <ele>933</ele>
        <time>2026-06-28T08:16:12.000Z</time>
      </trkpt>
      <trkpt lat="42.76966" lon="1.47402">
        <ele>933</ele>
        <time>2026-06-28T08:16:13.000Z</time>
      </trkpt>
      <trkpt lat="42.76967" lon="1.47399">
        <ele>933</ele>
        <time>2026-06-28T08:16:14.000Z</time>
      </trkpt>
      <trkpt lat="42.76968" lon="1.47396">
        <ele>933</ele>
        <time>2026-06-28T08:16:15.000Z</time>
      </trkpt>
      <trkpt lat="42.76969" lon="1.47392">
        <ele>934</ele>
        <time>2026-06-28T08:16:16.000Z</time>
      </trkpt>
      <trkpt lat="42.76971" lon="1.47389">
        <ele>934</ele>
        <time>2026-06-28T08:16:17.000Z</time>
      </trkpt>
      <trkpt lat="42.76972" lon="1.47385">
        <ele>933</ele>
        <time>2026-06-28T08:16:18.000Z</time>
      </trkpt>
      <trkpt lat="42.76973" lon="1.47381">
        <ele>934</ele>
        <time>2026-06-28T08:16:19.000Z</time>
      </trkpt>
      <trkpt lat="42.76973" lon="1.47378">
        <ele>934</ele>
        <time>2026-06-28T08:16:20.000Z</time>
      </trkpt>
      <trkpt lat="42.76974" lon="1.47374">
        <ele>934</ele>
        <time>2026-06-28T08:16:21.000Z</time>
      </trkpt>
      <trkpt lat="42.76975" lon="1.4737">
        <ele>933</ele>
        <time>2026-06-28T08:16:22.000Z</time>
      </trkpt>
      <trkpt lat="42.76976" lon="1.47366">
        <ele>933</ele>
        <time>2026-06-28T08:16:23.000Z</time>
      </trkpt>
      <trkpt lat="42.76977" lon="1.47363">
        <ele>933</ele>
        <time>2026-06-28T08:16:24.000Z</time>
      </trkpt>
      <trkpt lat="42.76977" lon="1.47359">
        <ele>933</ele>
        <time>2026-06-28T08:16:25.000Z</time>
      </trkpt>
      <trkpt lat="42.76979" lon="1.47355">
        <ele>933</ele>
        <time>2026-06-28T08:16:26.000Z</time>
      </trkpt>
      <trkpt lat="42.7698" lon="1.47352">
        <ele>933</ele>
        <time>2026-06-28T08:16:27.000Z</time>
      </trkpt>
      <trkpt lat="42.76981" lon="1.47349">
        <ele>933</ele>
        <time>2026-06-28T08:16:28.000Z</time>
      </trkpt>
      <trkpt lat="42.76983" lon="1.47346">
        <ele>933</ele>
        <time>2026-06-28T08:16:29.000Z</time>
      </trkpt>
      <trkpt lat="42.76985" lon="1.47342">
        <ele>934</ele>
        <time>2026-06-28T08:16:30.000Z</time>
      </trkpt>
      <trkpt lat="42.76986" lon="1.47339">
        <ele>934</ele>
        <time>2026-06-28T08:16:31.000Z</time>
      </trkpt>
      <trkpt lat="42.76989" lon="1.47336">
        <ele>934</ele>
        <time>2026-06-28T08:16:32.000Z</time>
      </trkpt>
      <trkpt lat="42.76991" lon="1.47334">
        <ele>935</ele>
        <time>2026-06-28T08:16:33.000Z</time>
      </trkpt>
      <trkpt lat="42.76992" lon="1.47331">
        <ele>935</ele>
        <time>2026-06-28T08:16:34.000Z</time>
      </trkpt>
      <trkpt lat="42.76994" lon="1.47328">
        <ele>935</ele>
        <time>2026-06-28T08:16:35.000Z</time>
      </trkpt>
      <trkpt lat="42.76996" lon="1.47324">
        <ele>935</ele>
        <time>2026-06-28T08:16:36.000Z</time>
      </trkpt>
      <trkpt lat="42.76997" lon="1.4732">
        <ele>934</ele>
        <time>2026-06-28T08:16:37.000Z</time>
      </trkpt>
      <trkpt lat="42.77" lon="1.47317">
        <ele>934</ele>
        <time>2026-06-28T08:16:38.000Z</time>
      </trkpt>
      <trkpt lat="42.77001" lon="1.47314">
        <ele>934</ele>
        <time>2026-06-28T08:16:39.000Z</time>
      </trkpt>
      <trkpt lat="42.77003" lon="1.47311">
        <ele>934</ele>
        <time>2026-06-28T08:16:40.000Z</time>
      </trkpt>
      <trkpt lat="42.77005" lon="1.47308">
        <ele>934</ele>
        <time>2026-06-28T08:16:41.000Z</time>
      </trkpt>
      <trkpt lat="42.77006" lon="1.47305">
        <ele>934</ele>
        <time>2026-06-28T08:16:42.000Z</time>
      </trkpt>
      <trkpt lat="42.77007" lon="1.47302">
        <ele>934</ele>
        <time>2026-06-28T08:16:43.000Z</time>
      </trkpt>
      <trkpt lat="42.77008" lon="1.47299">
        <ele>934</ele>
        <time>2026-06-28T08:16:44.000Z</time>
      </trkpt>
      <trkpt lat="42.77009" lon="1.47295">
        <ele>933</ele>
        <time>2026-06-28T08:16:45.000Z</time>
      </trkpt>
      <trkpt lat="42.7701" lon="1.47292">
        <ele>934</ele>
        <time>2026-06-28T08:16:46.000Z</time>
      </trkpt>
      <trkpt lat="42.7701" lon="1.47289">
        <ele>935</ele>
        <time>2026-06-28T08:16:47.000Z</time>
      </trkpt>
      <trkpt lat="42.7701" lon="1.47285">
        <ele>935</ele>
        <time>2026-06-28T08:16:48.000Z</time>
      </trkpt>
      <trkpt lat="42.7701" lon="1.47281">
        <ele>935</ele>
        <time>2026-06-28T08:16:49.000Z</time>
      </trkpt>
      <trkpt lat="42.77011" lon="1.47277">
        <ele>935</ele>
        <time>2026-06-28T08:16:50.000Z</time>
      </trkpt>
      <trkpt lat="42.77011" lon="1.47273">
        <ele>935</ele>
        <time>2026-06-28T08:16:51.000Z</time>
      </trkpt>
      <trkpt lat="42.7701" lon="1.47268">
        <ele>935</ele>
        <time>2026-06-28T08:16:52.000Z</time>
      </trkpt>
      <trkpt lat="42.77011" lon="1.47264">
        <ele>936</ele>
        <time>2026-06-28T08:16:53.000Z</time>
      </trkpt>
      <trkpt lat="42.77012" lon="1.47261">
        <ele>936</ele>
        <time>2026-06-28T08:16:54.000Z</time>
      </trkpt>
      <trkpt lat="42.77015" lon="1.47259">
        <ele>937</ele>
        <time>2026-06-28T08:16:55.000Z</time>
      </trkpt>
      <trkpt lat="42.77017" lon="1.47256">
        <ele>937</ele>
        <time>2026-06-28T08:16:56.000Z</time>
      </trkpt>
      <trkpt lat="42.7702" lon="1.47253">
        <ele>937</ele>
        <time>2026-06-28T08:16:57.000Z</time>
      </trkpt>
      <trkpt lat="42.77022" lon="1.4725">
        <ele>937</ele>
        <time>2026-06-28T08:16:58.000Z</time>
      </trkpt>
      <trkpt lat="42.77024" lon="1.47248">
        <ele>936</ele>
        <time>2026-06-28T08:16:59.000Z</time>
      </trkpt>
      <trkpt lat="42.77026" lon="1.47245">
        <ele>937</ele>
        <time>2026-06-28T08:17:00.000Z</time>
      </trkpt>
      <trkpt lat="42.77027" lon="1.47241">
        <ele>937</ele>
        <time>2026-06-28T08:17:01.000Z</time>
      </trkpt>
      <trkpt lat="42.77029" lon="1.47237">
        <ele>938</ele>
        <time>2026-06-28T08:17:02.000Z</time>
      </trkpt>
      <trkpt lat="42.7703" lon="1.47233">
        <ele>938</ele>
        <time>2026-06-28T08:17:03.000Z</time>
      </trkpt>
      <trkpt lat="42.77032" lon="1.47229">
        <ele>939</ele>
        <time>2026-06-28T08:17:04.000Z</time>
      </trkpt>
      <trkpt lat="42.77034" lon="1.47225">
        <ele>939</ele>
        <time>2026-06-28T08:17:05.000Z</time>
      </trkpt>
      <trkpt lat="42.77036" lon="1.4722">
        <ele>939</ele>
        <time>2026-06-28T08:17:06.000Z</time>
      </trkpt>
      <trkpt lat="42.77038" lon="1.47217">
        <ele>939</ele>
        <time>2026-06-28T08:17:07.000Z</time>
      </trkpt>
      <trkpt lat="42.7704" lon="1.47213">
        <ele>939</ele>
        <time>2026-06-28T08:17:08.000Z</time>
      </trkpt>
      <trkpt lat="42.77042" lon="1.4721">
        <ele>940</ele>
        <time>2026-06-28T08:17:09.000Z</time>
      </trkpt>
      <trkpt lat="42.77044" lon="1.47205">
        <ele>940</ele>
        <time>2026-06-28T08:17:10.000Z</time>
      </trkpt>
      <trkpt lat="42.77045" lon="1.47199">
        <ele>939</ele>
        <time>2026-06-28T08:17:11.000Z</time>
      </trkpt>
      <trkpt lat="42.77045" lon="1.47195">
        <ele>940</ele>
        <time>2026-06-28T08:17:12.000Z</time>
      </trkpt>
      <trkpt lat="42.77046" lon="1.4719">
        <ele>939</ele>
        <time>2026-06-28T08:17:13.000Z</time>
      </trkpt>
      <trkpt lat="42.77046" lon="1.47185">
        <ele>939</ele>
        <time>2026-06-28T08:17:14.000Z</time>
      </trkpt>
      <trkpt lat="42.77048" lon="1.47179">
        <ele>939</ele>
        <time>2026-06-28T08:17:15.000Z</time>
      </trkpt>
      <trkpt lat="42.7705" lon="1.47175">
        <ele>939</ele>
        <time>2026-06-28T08:17:16.000Z</time>
      </trkpt>
      <trkpt lat="42.77051" lon="1.47171">
        <ele>939</ele>
        <time>2026-06-28T08:17:17.000Z</time>
      </trkpt>
      <trkpt lat="42.77052" lon="1.47165">
        <ele>939</ele>
        <time>2026-06-28T08:17:18.000Z</time>
      </trkpt>
      <trkpt lat="42.77054" lon="1.4716">
        <ele>940</ele>
        <time>2026-06-28T08:17:19.000Z</time>
      </trkpt>
      <trkpt lat="42.77055" lon="1.47155">
        <ele>940</ele>
        <time>2026-06-28T08:17:20.000Z</time>
      </trkpt>
      <trkpt lat="42.77057" lon="1.47149">
        <ele>941</ele>
        <time>2026-06-28T08:17:21.000Z</time>
      </trkpt>
      <trkpt lat="42.77058" lon="1.47144">
        <ele>941</ele>
        <time>2026-06-28T08:17:22.000Z</time>
      </trkpt>
      <trkpt lat="42.77061" lon="1.47138">
        <ele>941</ele>
        <time>2026-06-28T08:17:23.000Z</time>
      </trkpt>
      <trkpt lat="42.77062" lon="1.47132">
        <ele>941</ele>
        <time>2026-06-28T08:17:24.000Z</time>
      </trkpt>
      <trkpt lat="42.77064" lon="1.47126">
        <ele>942</ele>
        <time>2026-06-28T08:17:25.000Z</time>
      </trkpt>
      <trkpt lat="42.77066" lon="1.4712">
        <ele>942</ele>
        <time>2026-06-28T08:17:26.000Z</time>
      </trkpt>
      <trkpt lat="42.77069" lon="1.47115">
        <ele>942</ele>
        <time>2026-06-28T08:17:27.000Z</time>
      </trkpt>
      <trkpt lat="42.77071" lon="1.47109">
        <ele>942</ele>
        <time>2026-06-28T08:17:28.000Z</time>
      </trkpt>
      <trkpt lat="42.77073" lon="1.47103">
        <ele>942</ele>
        <time>2026-06-28T08:17:29.000Z</time>
      </trkpt>
      <trkpt lat="42.77075" lon="1.47097">
        <ele>941</ele>
        <time>2026-06-28T08:17:30.000Z</time>
      </trkpt>
      <trkpt lat="42.77078" lon="1.47091">
        <ele>941</ele>
        <time>2026-06-28T08:17:31.000Z</time>
      </trkpt>
      <trkpt lat="42.7708" lon="1.47086">
        <ele>941</ele>
        <time>2026-06-28T08:17:32.000Z</time>
      </trkpt>
      <trkpt lat="42.77083" lon="1.47082">
        <ele>942</ele>
        <time>2026-06-28T08:17:33.000Z</time>
      </trkpt>
      <trkpt lat="42.77086" lon="1.47077">
        <ele>941</ele>
        <time>2026-06-28T08:17:34.000Z</time>
      </trkpt>
      <trkpt lat="42.77089" lon="1.47073">
        <ele>941</ele>
        <time>2026-06-28T08:17:35.000Z</time>
      </trkpt>
      <trkpt lat="42.77092" lon="1.47071">
        <ele>941</ele>
        <time>2026-06-28T08:17:36.000Z</time>
      </trkpt>
      <trkpt lat="42.77094" lon="1.47068">
        <ele>941</ele>
        <time>2026-06-28T08:17:37.000Z</time>
      </trkpt>
      <trkpt lat="42.77095" lon="1.47066">
        <ele>941</ele>
        <time>2026-06-28T08:17:38.000Z</time>
      </trkpt>
      <trkpt lat="42.77097" lon="1.47064">
        <ele>941</ele>
        <time>2026-06-28T08:17:39.000Z</time>
      </trkpt>
      <trkpt lat="42.77098" lon="1.47061">
        <ele>941</ele>
        <time>2026-06-28T08:17:40.000Z</time>
      </trkpt>
      <trkpt lat="42.77099" lon="1.4706">
        <ele>940</ele>
        <time>2026-06-28T08:17:41.000Z</time>
      </trkpt>
      <trkpt lat="42.771" lon="1.47059">
        <ele>940</ele>
        <time>2026-06-28T08:17:42.000Z</time>
      </trkpt>
      <trkpt lat="42.77101" lon="1.47058">
        <ele>940</ele>
        <time>2026-06-28T08:17:43.000Z</time>
      </trkpt>
      <trkpt lat="42.77101" lon="1.47056">
        <ele>940</ele>
        <time>2026-06-28T08:17:44.000Z</time>
      </trkpt>
      <trkpt lat="42.77101" lon="1.47053">
        <ele>940</ele>
        <time>2026-06-28T08:17:45.000Z</time>
      </trkpt>
      <trkpt lat="42.77101" lon="1.47049">
        <ele>941</ele>
        <time>2026-06-28T08:17:46.000Z</time>
      </trkpt>
      <trkpt lat="42.77101" lon="1.47046">
        <ele>941</ele>
        <time>2026-06-28T08:17:47.000Z</time>
      </trkpt>
      <trkpt lat="42.771" lon="1.47041">
        <ele>941</ele>
        <time>2026-06-28T08:17:48.000Z</time>
      </trkpt>
      <trkpt lat="42.77099" lon="1.47037">
        <ele>941</ele>
        <time>2026-06-28T08:17:49.000Z</time>
      </trkpt>
      <trkpt lat="42.77098" lon="1.47033">
        <ele>941</ele>
        <time>2026-06-28T08:17:50.000Z</time>
      </trkpt>
      <trkpt lat="42.77098" lon="1.47029">
        <ele>941</ele>
        <time>2026-06-28T08:17:51.000Z</time>
      </trkpt>
      <trkpt lat="42.77097" lon="1.47025">
        <ele>941</ele>
        <time>2026-06-28T08:17:52.000Z</time>
      </trkpt>
      <trkpt lat="42.77096" lon="1.47021">
        <ele>941</ele>
        <time>2026-06-28T08:17:53.000Z</time>
      </trkpt>
      <trkpt lat="42.77096" lon="1.47016">
        <ele>940</ele>
        <time>2026-06-28T08:17:54.000Z</time>
      </trkpt>
      <trkpt lat="42.77095" lon="1.47012">
        <ele>940</ele>
        <time>2026-06-28T08:17:55.000Z</time>
      </trkpt>
      <trkpt lat="42.77095" lon="1.47007">
        <ele>939</ele>
        <time>2026-06-28T08:17:56.000Z</time>
      </trkpt>
      <trkpt lat="42.77095" lon="1.47">
        <ele>939</ele>
        <time>2026-06-28T08:17:57.000Z</time>
      </trkpt>
      <trkpt lat="42.77094" lon="1.46993">
        <ele>938</ele>
        <time>2026-06-28T08:17:58.000Z</time>
      </trkpt>
      <trkpt lat="42.77094" lon="1.46986">
        <ele>936</ele>
        <time>2026-06-28T08:17:59.000Z</time>
      </trkpt>
      <trkpt lat="42.77095" lon="1.46978">
        <ele>936</ele>
        <time>2026-06-28T08:18:00.000Z</time>
      </trkpt>
      <trkpt lat="42.77095" lon="1.46971">
        <ele>935</ele>
        <time>2026-06-28T08:18:01.000Z</time>
      </trkpt>
      <trkpt lat="42.77097" lon="1.46965">
        <ele>935</ele>
        <time>2026-06-28T08:18:02.000Z</time>
      </trkpt>
      <trkpt lat="42.77098" lon="1.46957">
        <ele>934</ele>
        <time>2026-06-28T08:18:03.000Z</time>
      </trkpt>
      <trkpt lat="42.771" lon="1.4695">
        <ele>933</ele>
        <time>2026-06-28T08:18:04.000Z</time>
      </trkpt>
      <trkpt lat="42.77103" lon="1.46943">
        <ele>933</ele>
        <time>2026-06-28T08:18:05.000Z</time>
      </trkpt>
      <trkpt lat="42.77106" lon="1.46936">
        <ele>933</ele>
        <time>2026-06-28T08:18:06.000Z</time>
      </trkpt>
      <trkpt lat="42.7711" lon="1.46931">
        <ele>933</ele>
        <time>2026-06-28T08:18:07.000Z</time>
      </trkpt>
      <trkpt lat="42.77112" lon="1.46924">
        <ele>933</ele>
        <time>2026-06-28T08:18:08.000Z</time>
      </trkpt>
      <trkpt lat="42.77115" lon="1.46917">
        <ele>933</ele>
        <time>2026-06-28T08:18:09.000Z</time>
      </trkpt>
      <trkpt lat="42.77116" lon="1.46909">
        <ele>933</ele>
        <time>2026-06-28T08:18:10.000Z</time>
      </trkpt>
      <trkpt lat="42.77117" lon="1.46898">
        <ele>933</ele>
        <time>2026-06-28T08:18:11.000Z</time>
      </trkpt>
      <trkpt lat="42.77115" lon="1.46884">
        <ele>932</ele>
        <time>2026-06-28T08:18:12.000Z</time>
      </trkpt>
      <trkpt lat="42.77112" lon="1.46873">
        <ele>932</ele>
        <time>2026-06-28T08:18:13.000Z</time>
      </trkpt>
      <trkpt lat="42.7711" lon="1.46865">
        <ele>931</ele>
        <time>2026-06-28T08:18:14.000Z</time>
      </trkpt>
      <trkpt lat="42.77111" lon="1.46857">
        <ele>931</ele>
        <time>2026-06-28T08:18:15.000Z</time>
      </trkpt>
      <trkpt lat="42.77112" lon="1.4685">
        <ele>929</ele>
        <time>2026-06-28T08:18:16.000Z</time>
      </trkpt>
      <trkpt lat="42.77115" lon="1.46843">
        <ele>928</ele>
        <time>2026-06-28T08:18:17.000Z</time>
      </trkpt>
      <trkpt lat="42.77119" lon="1.46837">
        <ele>927</ele>
        <time>2026-06-28T08:18:18.000Z</time>
      </trkpt>
      <trkpt lat="42.77122" lon="1.4683">
        <ele>927</ele>
        <time>2026-06-28T08:18:19.000Z</time>
      </trkpt>
      <trkpt lat="42.77125" lon="1.46824">
        <ele>926</ele>
        <time>2026-06-28T08:18:20.000Z</time>
      </trkpt>
      <trkpt lat="42.77128" lon="1.46817">
        <ele>926</ele>
        <time>2026-06-28T08:18:21.000Z</time>
      </trkpt>
      <trkpt lat="42.77128" lon="1.46809">
        <ele>925</ele>
        <time>2026-06-28T08:18:22.000Z</time>
      </trkpt>
      <trkpt lat="42.77129" lon="1.468">
        <ele>925</ele>
        <time>2026-06-28T08:18:23.000Z</time>
      </trkpt>
      <trkpt lat="42.77128" lon="1.46789">
        <ele>924</ele>
        <time>2026-06-28T08:18:24.000Z</time>
      </trkpt>
      <trkpt lat="42.77127" lon="1.4678">
        <ele>924</ele>
        <time>2026-06-28T08:18:25.000Z</time>
      </trkpt>
      <trkpt lat="42.77127" lon="1.46772">
        <ele>923</ele>
        <time>2026-06-28T08:18:26.000Z</time>
      </trkpt>
      <trkpt lat="42.77125" lon="1.46765">
        <ele>922</ele>
        <time>2026-06-28T08:18:27.000Z</time>
      </trkpt>
      <trkpt lat="42.77123" lon="1.46757">
        <ele>922</ele>
        <time>2026-06-28T08:18:28.000Z</time>
      </trkpt>
      <trkpt lat="42.77121" lon="1.46751">
        <ele>922</ele>
        <time>2026-06-28T08:18:29.000Z</time>
      </trkpt>
      <trkpt lat="42.77117" lon="1.46746">
        <ele>919</ele>
        <time>2026-06-28T08:18:30.000Z</time>
      </trkpt>
      <trkpt lat="42.77113" lon="1.46741">
        <ele>918</ele>
        <time>2026-06-28T08:18:31.000Z</time>
      </trkpt>
      <trkpt lat="42.77108" lon="1.46737">
        <ele>917</ele>
        <time>2026-06-28T08:18:32.000Z</time>
      </trkpt>
      <trkpt lat="42.77104" lon="1.46734">
        <ele>917</ele>
        <time>2026-06-28T08:18:33.000Z</time>
      </trkpt>
      <trkpt lat="42.77098" lon="1.46732">
        <ele>917</ele>
        <time>2026-06-28T08:18:34.000Z</time>
      </trkpt>
      <trkpt lat="42.77093" lon="1.46728">
        <ele>916</ele>
        <time>2026-06-28T08:18:35.000Z</time>
      </trkpt>
      <trkpt lat="42.7709" lon="1.46725">
        <ele>915</ele>
        <time>2026-06-28T08:18:36.000Z</time>
      </trkpt>
      <trkpt lat="42.77088" lon="1.46722">
        <ele>913</ele>
        <time>2026-06-28T08:18:37.000Z</time>
      </trkpt>
      <trkpt lat="42.77089" lon="1.46719">
        <ele>912</ele>
        <time>2026-06-28T08:18:38.000Z</time>
      </trkpt>
      <trkpt lat="42.7709" lon="1.46716">
        <ele>912</ele>
        <time>2026-06-28T08:18:39.000Z</time>
      </trkpt>
      <trkpt lat="42.77091" lon="1.46711">
        <ele>912</ele>
        <time>2026-06-28T08:18:40.000Z</time>
      </trkpt>
      <trkpt lat="42.77093" lon="1.46707">
        <ele>912</ele>
        <time>2026-06-28T08:18:41.000Z</time>
      </trkpt>
      <trkpt lat="42.77095" lon="1.46703">
        <ele>912</ele>
        <time>2026-06-28T08:18:42.000Z</time>
      </trkpt>
      <trkpt lat="42.77095" lon="1.467">
        <ele>911</ele>
        <time>2026-06-28T08:18:43.000Z</time>
      </trkpt>
      <trkpt lat="42.77096" lon="1.46697">
        <ele>910</ele>
        <time>2026-06-28T08:18:44.000Z</time>
      </trkpt>
      <trkpt lat="42.77095" lon="1.46694">
        <ele>910</ele>
        <time>2026-06-28T08:18:45.000Z</time>
      </trkpt>
      <trkpt lat="42.77093" lon="1.46692">
        <ele>909</ele>
        <time>2026-06-28T08:18:46.000Z</time>
      </trkpt>
      <trkpt lat="42.77092" lon="1.46692">
        <ele>909</ele>
        <time>2026-06-28T08:18:47.000Z</time>
      </trkpt>
      <trkpt lat="42.7709" lon="1.46691">
        <ele>908</ele>
        <time>2026-06-28T08:18:48.000Z</time>
      </trkpt>
      <trkpt lat="42.77089" lon="1.46692">
        <ele>908</ele>
        <time>2026-06-28T08:18:49.000Z</time>
      </trkpt>
      <trkpt lat="42.77086" lon="1.46693">
        <ele>907</ele>
        <time>2026-06-28T08:18:50.000Z</time>
      </trkpt>
      <trkpt lat="42.77084" lon="1.46694">
        <ele>907</ele>
        <time>2026-06-28T08:18:51.000Z</time>
      </trkpt>
      <trkpt lat="42.77083" lon="1.46695">
        <ele>907</ele>
        <time>2026-06-28T08:18:52.000Z</time>
      </trkpt>
      <trkpt lat="42.77081" lon="1.46696">
        <ele>907</ele>
        <time>2026-06-28T08:18:53.000Z</time>
      </trkpt>
      <trkpt lat="42.77079" lon="1.46697">
        <ele>907</ele>
        <time>2026-06-28T08:18:54.000Z</time>
      </trkpt>
      <trkpt lat="42.77077" lon="1.46698">
        <ele>907</ele>
        <time>2026-06-28T08:18:55.000Z</time>
      </trkpt>
      <trkpt lat="42.77076" lon="1.46699">
        <ele>907</ele>
        <time>2026-06-28T08:18:56.000Z</time>
      </trkpt>
      <trkpt lat="42.77075" lon="1.46701">
        <ele>907</ele>
        <time>2026-06-28T08:18:57.000Z</time>
      </trkpt>
      <trkpt lat="42.77074" lon="1.46703">
        <ele>906</ele>
        <time>2026-06-28T08:18:58.000Z</time>
      </trkpt>
      <trkpt lat="42.77072" lon="1.46704">
        <ele>906</ele>
        <time>2026-06-28T08:18:59.000Z</time>
      </trkpt>
      <trkpt lat="42.7707" lon="1.46706">
        <ele>906</ele>
        <time>2026-06-28T08:19:00.000Z</time>
      </trkpt>
      <trkpt lat="42.77069" lon="1.46709">
        <ele>906</ele>
        <time>2026-06-28T08:19:01.000Z</time>
      </trkpt>
      <trkpt lat="42.77067" lon="1.46712">
        <ele>906</ele>
        <time>2026-06-28T08:19:02.000Z</time>
      </trkpt>
      <trkpt lat="42.77066" lon="1.46716">
        <ele>906</ele>
        <time>2026-06-28T08:19:03.000Z</time>
      </trkpt>
      <trkpt lat="42.77064" lon="1.46718">
        <ele>906</ele>
        <time>2026-06-28T08:19:04.000Z</time>
      </trkpt>
      <trkpt lat="42.77061" lon="1.46721">
        <ele>905</ele>
        <time>2026-06-28T08:19:05.000Z</time>
      </trkpt>
      <trkpt lat="42.7706" lon="1.46722">
        <ele>905</ele>
        <time>2026-06-28T08:19:06.000Z</time>
      </trkpt>
      <trkpt lat="42.77059" lon="1.46724">
        <ele>905</ele>
        <time>2026-06-28T08:19:07.000Z</time>
      </trkpt>
      <trkpt lat="42.77059" lon="1.46726">
        <ele>905</ele>
        <time>2026-06-28T08:19:08.000Z</time>
      </trkpt>
      <trkpt lat="42.77058" lon="1.46726">
        <ele>905</ele>
        <time>2026-06-28T08:19:09.000Z</time>
      </trkpt>
      <trkpt lat="42.77056" lon="1.46728">
        <ele>905</ele>
        <time>2026-06-28T08:19:10.000Z</time>
      </trkpt>
      <trkpt lat="42.77054" lon="1.46729">
        <ele>905</ele>
        <time>2026-06-28T08:19:11.000Z</time>
      </trkpt>
      <trkpt lat="42.77052" lon="1.46731">
        <ele>905</ele>
        <time>2026-06-28T08:19:12.000Z</time>
      </trkpt>
      <trkpt lat="42.7705" lon="1.46732">
        <ele>905</ele>
        <time>2026-06-28T08:19:13.000Z</time>
      </trkpt>
      <trkpt lat="42.77048" lon="1.46734">
        <ele>904</ele>
        <time>2026-06-28T08:19:14.000Z</time>
      </trkpt>
      <trkpt lat="42.77046" lon="1.46737">
        <ele>904</ele>
        <time>2026-06-28T08:19:15.000Z</time>
      </trkpt>
      <trkpt lat="42.77045" lon="1.46738">
        <ele>904</ele>
        <time>2026-06-28T08:19:16.000Z</time>
      </trkpt>
      <trkpt lat="42.77042" lon="1.46741">
        <ele>903</ele>
        <time>2026-06-28T08:19:17.000Z</time>
      </trkpt>
      <trkpt lat="42.77041" lon="1.46743">
        <ele>903</ele>
        <time>2026-06-28T08:19:18.000Z</time>
      </trkpt>
      <trkpt lat="42.77039" lon="1.46745">
        <ele>903</ele>
        <time>2026-06-28T08:19:19.000Z</time>
      </trkpt>
      <trkpt lat="42.77038" lon="1.46748">
        <ele>902</ele>
        <time>2026-06-28T08:19:20.000Z</time>
      </trkpt>
      <trkpt lat="42.77037" lon="1.46749">
        <ele>902</ele>
        <time>2026-06-28T08:19:21.000Z</time>
      </trkpt>
      <trkpt lat="42.77036" lon="1.4675">
        <ele>901</ele>
        <time>2026-06-28T08:19:22.000Z</time>
      </trkpt>
      <trkpt lat="42.77034" lon="1.4675">
        <ele>901</ele>
        <time>2026-06-28T08:19:23.000Z</time>
      </trkpt>
      <trkpt lat="42.77032" lon="1.46751">
        <ele>901</ele>
        <time>2026-06-28T08:19:24.000Z</time>
      </trkpt>
      <trkpt lat="42.7703" lon="1.46753">
        <ele>901</ele>
        <time>2026-06-28T08:19:25.000Z</time>
      </trkpt>
      <trkpt lat="42.77028" lon="1.46755">
        <ele>901</ele>
        <time>2026-06-28T08:19:26.000Z</time>
      </trkpt>
      <trkpt lat="42.77026" lon="1.46756">
        <ele>901</ele>
        <time>2026-06-28T08:19:27.000Z</time>
      </trkpt>
      <trkpt lat="42.77025" lon="1.46756">
        <ele>900</ele>
        <time>2026-06-28T08:19:28.000Z</time>
      </trkpt>
      <trkpt lat="42.77024" lon="1.46755">
        <ele>900</ele>
        <time>2026-06-28T08:19:29.000Z</time>
      </trkpt>
      <trkpt lat="42.77023" lon="1.46756">
        <ele>900</ele>
        <time>2026-06-28T08:19:30.000Z</time>
      </trkpt>
      <trkpt lat="42.77021" lon="1.46755">
        <ele>899</ele>
        <time>2026-06-28T08:19:31.000Z</time>
      </trkpt>
      <trkpt lat="42.7702" lon="1.46756">
        <ele>899</ele>
        <time>2026-06-28T08:19:32.000Z</time>
      </trkpt>
      <trkpt lat="42.77018" lon="1.46757">
        <ele>900</ele>
        <time>2026-06-28T08:19:33.000Z</time>
      </trkpt>
      <trkpt lat="42.77016" lon="1.46758">
        <ele>900</ele>
        <time>2026-06-28T08:19:34.000Z</time>
      </trkpt>
      <trkpt lat="42.77014" lon="1.46758">
        <ele>901</ele>
        <time>2026-06-28T08:19:35.000Z</time>
      </trkpt>
      <trkpt lat="42.77011" lon="1.46758">
        <ele>900</ele>
        <time>2026-06-28T08:19:36.000Z</time>
      </trkpt>
      <trkpt lat="42.77009" lon="1.4676">
        <ele>901</ele>
        <time>2026-06-28T08:19:37.000Z</time>
      </trkpt>
      <trkpt lat="42.77006" lon="1.46761">
        <ele>901</ele>
        <time>2026-06-28T08:19:38.000Z</time>
      </trkpt>
      <trkpt lat="42.77002" lon="1.46762">
        <ele>901</ele>
        <time>2026-06-28T08:19:39.000Z</time>
      </trkpt>
      <trkpt lat="42.77" lon="1.46764">
        <ele>901</ele>
        <time>2026-06-28T08:19:40.000Z</time>
      </trkpt>
      <trkpt lat="42.76997" lon="1.46767">
        <ele>900</ele>
        <time>2026-06-28T08:19:41.000Z</time>
      </trkpt>
      <trkpt lat="42.76994" lon="1.4677">
        <ele>900</ele>
        <time>2026-06-28T08:19:42.000Z</time>
      </trkpt>
      <trkpt lat="42.76992" lon="1.46771">
        <ele>900</ele>
        <time>2026-06-28T08:19:43.000Z</time>
      </trkpt>
      <trkpt lat="42.76989" lon="1.46773">
        <ele>900</ele>
        <time>2026-06-28T08:19:44.000Z</time>
      </trkpt>
      <trkpt lat="42.76987" lon="1.46774">
        <ele>900</ele>
        <time>2026-06-28T08:19:45.000Z</time>
      </trkpt>
      <trkpt lat="42.76985" lon="1.46776">
        <ele>899</ele>
        <time>2026-06-28T08:19:46.000Z</time>
      </trkpt>
      <trkpt lat="42.76983" lon="1.46778">
        <ele>900</ele>
        <time>2026-06-28T08:19:47.000Z</time>
      </trkpt>
      <trkpt lat="42.76981" lon="1.46779">
        <ele>900</ele>
        <time>2026-06-28T08:19:48.000Z</time>
      </trkpt>
      <trkpt lat="42.76978" lon="1.4678">
        <ele>899</ele>
        <time>2026-06-28T08:19:49.000Z</time>
      </trkpt>
      <trkpt lat="42.76976" lon="1.46781">
        <ele>899</ele>
        <time>2026-06-28T08:19:50.000Z</time>
      </trkpt>
      <trkpt lat="42.76976" lon="1.46782">
        <ele>899</ele>
        <time>2026-06-28T08:19:51.000Z</time>
      </trkpt>
      <trkpt lat="42.76975" lon="1.46783">
        <ele>899</ele>
        <time>2026-06-28T08:19:52.000Z</time>
      </trkpt>
      <trkpt lat="42.76974" lon="1.46785">
        <ele>899</ele>
        <time>2026-06-28T08:19:53.000Z</time>
      </trkpt>
      <trkpt lat="42.76973" lon="1.46786">
        <ele>899</ele>
        <time>2026-06-28T08:19:54.000Z</time>
      </trkpt>
      <trkpt lat="42.76971" lon="1.46786">
        <ele>899</ele>
        <time>2026-06-28T08:19:55.000Z</time>
      </trkpt>
      <trkpt lat="42.7697" lon="1.46788">
        <ele>898</ele>
        <time>2026-06-28T08:19:56.000Z</time>
      </trkpt>
      <trkpt lat="42.76968" lon="1.46788">
        <ele>898</ele>
        <time>2026-06-28T08:19:57.000Z</time>
      </trkpt>
      <trkpt lat="42.76967" lon="1.46789">
        <ele>897</ele>
        <time>2026-06-28T08:19:58.000Z</time>
      </trkpt>
      <trkpt lat="42.76966" lon="1.46791">
        <ele>897</ele>
        <time>2026-06-28T08:19:59.000Z</time>
      </trkpt>
      <trkpt lat="42.76965" lon="1.46793">
        <ele>897</ele>
        <time>2026-06-28T08:20:00.000Z</time>
      </trkpt>
      <trkpt lat="42.76963" lon="1.46795">
        <ele>897</ele>
        <time>2026-06-28T08:20:01.000Z</time>
      </trkpt>
      <trkpt lat="42.76962" lon="1.46795">
        <ele>896</ele>
        <time>2026-06-28T08:20:02.000Z</time>
      </trkpt>
      <trkpt lat="42.7696" lon="1.46795">
        <ele>896</ele>
        <time>2026-06-28T08:20:03.000Z</time>
      </trkpt>
      <trkpt lat="42.76959" lon="1.46796">
        <ele>897</ele>
        <time>2026-06-28T08:20:04.000Z</time>
      </trkpt>
      <trkpt lat="42.76957" lon="1.46799">
        <ele>897</ele>
        <time>2026-06-28T08:20:05.000Z</time>
      </trkpt>
      <trkpt lat="42.76955" lon="1.46801">
        <ele>897</ele>
        <time>2026-06-28T08:20:06.000Z</time>
      </trkpt>
      <trkpt lat="42.76952" lon="1.46804">
        <ele>896</ele>
        <time>2026-06-28T08:20:07.000Z</time>
      </trkpt>
      <trkpt lat="42.76951" lon="1.46806">
        <ele>896</ele>
        <time>2026-06-28T08:20:08.000Z</time>
      </trkpt>
      <trkpt lat="42.76948" lon="1.46807">
        <ele>896</ele>
        <time>2026-06-28T08:20:09.000Z</time>
      </trkpt>
      <trkpt lat="42.76945" lon="1.46808">
        <ele>896</ele>
        <time>2026-06-28T08:20:10.000Z</time>
      </trkpt>
      <trkpt lat="42.76943" lon="1.46809">
        <ele>896</ele>
        <time>2026-06-28T08:20:11.000Z</time>
      </trkpt>
      <trkpt lat="42.76941" lon="1.46811">
        <ele>896</ele>
        <time>2026-06-28T08:20:12.000Z</time>
      </trkpt>
      <trkpt lat="42.76939" lon="1.46812">
        <ele>896</ele>
        <time>2026-06-28T08:20:13.000Z</time>
      </trkpt>
      <trkpt lat="42.76938" lon="1.46815">
        <ele>896</ele>
        <time>2026-06-28T08:20:14.000Z</time>
      </trkpt>
      <trkpt lat="42.76936" lon="1.46817">
        <ele>897</ele>
        <time>2026-06-28T08:20:15.000Z</time>
      </trkpt>
      <trkpt lat="42.76934" lon="1.46819">
        <ele>898</ele>
        <time>2026-06-28T08:20:16.000Z</time>
      </trkpt>
      <trkpt lat="42.76933" lon="1.46822">
        <ele>899</ele>
        <time>2026-06-28T08:20:17.000Z</time>
      </trkpt>
      <trkpt lat="42.76931" lon="1.46824">
        <ele>900</ele>
        <time>2026-06-28T08:20:18.000Z</time>
      </trkpt>
      <trkpt lat="42.76929" lon="1.46828">
        <ele>901</ele>
        <time>2026-06-28T08:20:19.000Z</time>
      </trkpt>
      <trkpt lat="42.76928" lon="1.4683">
        <ele>902</ele>
        <time>2026-06-28T08:20:20.000Z</time>
      </trkpt>
      <trkpt lat="42.76927" lon="1.46833">
        <ele>903</ele>
        <time>2026-06-28T08:20:21.000Z</time>
      </trkpt>
      <trkpt lat="42.76926" lon="1.46837">
        <ele>905</ele>
        <time>2026-06-28T08:20:22.000Z</time>
      </trkpt>
      <trkpt lat="42.76924" lon="1.46841">
        <ele>906</ele>
        <time>2026-06-28T08:20:23.000Z</time>
      </trkpt>
      <trkpt lat="42.76923" lon="1.46844">
        <ele>908</ele>
        <time>2026-06-28T08:20:24.000Z</time>
      </trkpt>
      <trkpt lat="42.76921" lon="1.46848">
        <ele>910</ele>
        <time>2026-06-28T08:20:25.000Z</time>
      </trkpt>
      <trkpt lat="42.76921" lon="1.46852">
        <ele>912</ele>
        <time>2026-06-28T08:20:26.000Z</time>
      </trkpt>
      <trkpt lat="42.76921" lon="1.46857">
        <ele>913</ele>
        <time>2026-06-28T08:20:27.000Z</time>
      </trkpt>
      <trkpt lat="42.7692" lon="1.46861">
        <ele>915</ele>
        <time>2026-06-28T08:20:28.000Z</time>
      </trkpt>
      <trkpt lat="42.7692" lon="1.46864">
        <ele>916</ele>
        <time>2026-06-28T08:20:29.000Z</time>
      </trkpt>
      <trkpt lat="42.7692" lon="1.46869">
        <ele>916</ele>
        <time>2026-06-28T08:20:30.000Z</time>
      </trkpt>
      <trkpt lat="42.76919" lon="1.46874">
        <ele>915</ele>
        <time>2026-06-28T08:20:31.000Z</time>
      </trkpt>
      <trkpt lat="42.7692" lon="1.46878">
        <ele>914</ele>
        <time>2026-06-28T08:20:32.000Z</time>
      </trkpt>
      <trkpt lat="42.7692" lon="1.46884">
        <ele>914</ele>
        <time>2026-06-28T08:20:33.000Z</time>
      </trkpt>
      <trkpt lat="42.76921" lon="1.46891">
        <ele>913</ele>
        <time>2026-06-28T08:20:34.000Z</time>
      </trkpt>
      <trkpt lat="42.76921" lon="1.46895">
        <ele>913</ele>
        <time>2026-06-28T08:20:35.000Z</time>
      </trkpt>
      <trkpt lat="42.76921" lon="1.469">
        <ele>912</ele>
        <time>2026-06-28T08:20:36.000Z</time>
      </trkpt>
      <trkpt lat="42.76921" lon="1.46905">
        <ele>911</ele>
        <time>2026-06-28T08:20:37.000Z</time>
      </trkpt>
      <trkpt lat="42.76919" lon="1.4691">
        <ele>911</ele>
        <time>2026-06-28T08:20:38.000Z</time>
      </trkpt>
      <trkpt lat="42.76917" lon="1.46915">
        <ele>910</ele>
        <time>2026-06-28T08:20:39.000Z</time>
      </trkpt>
      <trkpt lat="42.76915" lon="1.46918">
        <ele>909</ele>
        <time>2026-06-28T08:20:40.000Z</time>
      </trkpt>
      <trkpt lat="42.76913" lon="1.46922">
        <ele>909</ele>
        <time>2026-06-28T08:20:41.000Z</time>
      </trkpt>
      <trkpt lat="42.76908" lon="1.46929">
        <ele>909</ele>
        <time>2026-06-28T08:20:42.000Z</time>
      </trkpt>
      <trkpt lat="42.76903" lon="1.46935">
        <ele>909</ele>
        <time>2026-06-28T08:20:43.000Z</time>
      </trkpt>
      <trkpt lat="42.76899" lon="1.46941">
        <ele>908</ele>
        <time>2026-06-28T08:20:44.000Z</time>
      </trkpt>
      <trkpt lat="42.76896" lon="1.46947">
        <ele>908</ele>
        <time>2026-06-28T08:20:45.000Z</time>
      </trkpt>
      <trkpt lat="42.76892" lon="1.46953">
        <ele>907</ele>
        <time>2026-06-28T08:20:46.000Z</time>
      </trkpt>
      <trkpt lat="42.7689" lon="1.46957">
        <ele>907</ele>
        <time>2026-06-28T08:20:47.000Z</time>
      </trkpt>
      <trkpt lat="42.76888" lon="1.46961">
        <ele>906</ele>
        <time>2026-06-28T08:20:48.000Z</time>
      </trkpt>
      <trkpt lat="42.76884" lon="1.46965">
        <ele>906</ele>
        <time>2026-06-28T08:20:49.000Z</time>
      </trkpt>
      <trkpt lat="42.76881" lon="1.4697">
        <ele>905</ele>
        <time>2026-06-28T08:20:50.000Z</time>
      </trkpt>
      <trkpt lat="42.76877" lon="1.46975">
        <ele>905</ele>
        <time>2026-06-28T08:20:51.000Z</time>
      </trkpt>
      <trkpt lat="42.76873" lon="1.46981">
        <ele>906</ele>
        <time>2026-06-28T08:20:52.000Z</time>
      </trkpt>
      <trkpt lat="42.76871" lon="1.46985">
        <ele>905</ele>
        <time>2026-06-28T08:20:53.000Z</time>
      </trkpt>
      <trkpt lat="42.76868" lon="1.46989">
        <ele>905</ele>
        <time>2026-06-28T08:20:54.000Z</time>
      </trkpt>
      <trkpt lat="42.76864" lon="1.46993">
        <ele>905</ele>
        <time>2026-06-28T08:20:55.000Z</time>
      </trkpt>
      <trkpt lat="42.76861" lon="1.46996">
        <ele>905</ele>
        <time>2026-06-28T08:20:56.000Z</time>
      </trkpt>
      <trkpt lat="42.76859" lon="1.47">
        <ele>905</ele>
        <time>2026-06-28T08:20:57.000Z</time>
      </trkpt>
      <trkpt lat="42.76856" lon="1.47004">
        <ele>905</ele>
        <time>2026-06-28T08:20:58.000Z</time>
      </trkpt>
      <trkpt lat="42.76853" lon="1.47007">
        <ele>906</ele>
        <time>2026-06-28T08:20:59.000Z</time>
      </trkpt>
      <trkpt lat="42.76852" lon="1.4701">
        <ele>905</ele>
        <time>2026-06-28T08:21:00.000Z</time>
      </trkpt>
      <trkpt lat="42.76849" lon="1.47013">
        <ele>905</ele>
        <time>2026-06-28T08:21:01.000Z</time>
      </trkpt>
      <trkpt lat="42.76846" lon="1.47017">
        <ele>904</ele>
        <time>2026-06-28T08:21:02.000Z</time>
      </trkpt>
      <trkpt lat="42.76844" lon="1.47021">
        <ele>904</ele>
        <time>2026-06-28T08:21:03.000Z</time>
      </trkpt>
      <trkpt lat="42.76843" lon="1.47025">
        <ele>904</ele>
        <time>2026-06-28T08:21:04.000Z</time>
      </trkpt>
      <trkpt lat="42.76841" lon="1.4703">
        <ele>904</ele>
        <time>2026-06-28T08:21:05.000Z</time>
      </trkpt>
      <trkpt lat="42.76839" lon="1.47035">
        <ele>904</ele>
        <time>2026-06-28T08:21:06.000Z</time>
      </trkpt>
      <trkpt lat="42.76836" lon="1.47039">
        <ele>904</ele>
        <time>2026-06-28T08:21:07.000Z</time>
      </trkpt>
      <trkpt lat="42.76832" lon="1.47045">
        <ele>904</ele>
        <time>2026-06-28T08:21:08.000Z</time>
      </trkpt>
      <trkpt lat="42.76828" lon="1.47049">
        <ele>904</ele>
        <time>2026-06-28T08:21:09.000Z</time>
      </trkpt>
      <trkpt lat="42.76826" lon="1.47053">
        <ele>904</ele>
        <time>2026-06-28T08:21:10.000Z</time>
      </trkpt>
      <trkpt lat="42.76824" lon="1.47057">
        <ele>904</ele>
        <time>2026-06-28T08:21:11.000Z</time>
      </trkpt>
      <trkpt lat="42.76822" lon="1.47062">
        <ele>903</ele>
        <time>2026-06-28T08:21:12.000Z</time>
      </trkpt>
      <trkpt lat="42.76822" lon="1.47065">
        <ele>903</ele>
        <time>2026-06-28T08:21:13.000Z</time>
      </trkpt>
      <trkpt lat="42.76821" lon="1.47071">
        <ele>903</ele>
        <time>2026-06-28T08:21:14.000Z</time>
      </trkpt>
      <trkpt lat="42.7682" lon="1.47076">
        <ele>902</ele>
        <time>2026-06-28T08:21:15.000Z</time>
      </trkpt>
      <trkpt lat="42.76818" lon="1.47082">
        <ele>902</ele>
        <time>2026-06-28T08:21:16.000Z</time>
      </trkpt>
      <trkpt lat="42.76816" lon="1.47086">
        <ele>902</ele>
        <time>2026-06-28T08:21:17.000Z</time>
      </trkpt>
      <trkpt lat="42.76815" lon="1.4709">
        <ele>901</ele>
        <time>2026-06-28T08:21:18.000Z</time>
      </trkpt>
      <trkpt lat="42.76812" lon="1.47094">
        <ele>901</ele>
        <time>2026-06-28T08:21:19.000Z</time>
      </trkpt>
      <trkpt lat="42.76811" lon="1.47098">
        <ele>900</ele>
        <time>2026-06-28T08:21:20.000Z</time>
      </trkpt>
      <trkpt lat="42.76809" lon="1.47102">
        <ele>900</ele>
        <time>2026-06-28T08:21:21.000Z</time>
      </trkpt>
      <trkpt lat="42.76806" lon="1.47106">
        <ele>900</ele>
        <time>2026-06-28T08:21:22.000Z</time>
      </trkpt>
      <trkpt lat="42.76803" lon="1.47112">
        <ele>899</ele>
        <time>2026-06-28T08:21:23.000Z</time>
      </trkpt>
      <trkpt lat="42.76801" lon="1.47117">
        <ele>899</ele>
        <time>2026-06-28T08:21:24.000Z</time>
      </trkpt>
      <trkpt lat="42.76798" lon="1.47122">
        <ele>899</ele>
        <time>2026-06-28T08:21:25.000Z</time>
      </trkpt>
      <trkpt lat="42.76796" lon="1.47127">
        <ele>898</ele>
        <time>2026-06-28T08:21:26.000Z</time>
      </trkpt>
      <trkpt lat="42.76793" lon="1.47132">
        <ele>898</ele>
        <time>2026-06-28T08:21:27.000Z</time>
      </trkpt>
      <trkpt lat="42.7679" lon="1.47138">
        <ele>898</ele>
        <time>2026-06-28T08:21:28.000Z</time>
      </trkpt>
      <trkpt lat="42.76787" lon="1.47142">
        <ele>898</ele>
        <time>2026-06-28T08:21:29.000Z</time>
      </trkpt>
      <trkpt lat="42.76785" lon="1.47146">
        <ele>897</ele>
        <time>2026-06-28T08:21:30.000Z</time>
      </trkpt>
      <trkpt lat="42.76783" lon="1.4715">
        <ele>897</ele>
        <time>2026-06-28T08:21:31.000Z</time>
      </trkpt>
      <trkpt lat="42.76782" lon="1.47154">
        <ele>897</ele>
        <time>2026-06-28T08:21:32.000Z</time>
      </trkpt>
      <trkpt lat="42.7678" lon="1.47158">
        <ele>896</ele>
        <time>2026-06-28T08:21:33.000Z</time>
      </trkpt>
      <trkpt lat="42.76778" lon="1.47162">
        <ele>896</ele>
        <time>2026-06-28T08:21:34.000Z</time>
      </trkpt>
      <trkpt lat="42.76776" lon="1.47167">
        <ele>896</ele>
        <time>2026-06-28T08:21:35.000Z</time>
      </trkpt>
      <trkpt lat="42.76773" lon="1.47173">
        <ele>896</ele>
        <time>2026-06-28T08:21:36.000Z</time>
      </trkpt>
      <trkpt lat="42.76771" lon="1.47178">
        <ele>895</ele>
        <time>2026-06-28T08:21:37.000Z</time>
      </trkpt>
      <trkpt lat="42.76769" lon="1.47181">
        <ele>895</ele>
        <time>2026-06-28T08:21:38.000Z</time>
      </trkpt>
      <trkpt lat="42.76767" lon="1.47184">
        <ele>894</ele>
        <time>2026-06-28T08:21:39.000Z</time>
      </trkpt>
      <trkpt lat="42.76765" lon="1.47188">
        <ele>893</ele>
        <time>2026-06-28T08:21:40.000Z</time>
      </trkpt>
      <trkpt lat="42.76764" lon="1.47191">
        <ele>892</ele>
        <time>2026-06-28T08:21:41.000Z</time>
      </trkpt>
      <trkpt lat="42.76763" lon="1.47194">
        <ele>892</ele>
        <time>2026-06-28T08:21:42.000Z</time>
      </trkpt>
      <trkpt lat="42.76761" lon="1.47198">
        <ele>891</ele>
        <time>2026-06-28T08:21:43.000Z</time>
      </trkpt>
      <trkpt lat="42.7676" lon="1.472">
        <ele>892</ele>
        <time>2026-06-28T08:21:44.000Z</time>
      </trkpt>
      <trkpt lat="42.76759" lon="1.47203">
        <ele>892</ele>
        <time>2026-06-28T08:21:45.000Z</time>
      </trkpt>
      <trkpt lat="42.76758" lon="1.47204">
        <ele>891</ele>
        <time>2026-06-28T08:21:46.000Z</time>
      </trkpt>
      <trkpt lat="42.76758" lon="1.47206">
        <ele>891</ele>
        <time>2026-06-28T08:21:47.000Z</time>
      </trkpt>
      <trkpt lat="42.76757" lon="1.47207">
        <ele>890</ele>
        <time>2026-06-28T08:21:48.000Z</time>
      </trkpt>
      <trkpt lat="42.76756" lon="1.47209">
        <ele>890</ele>
        <time>2026-06-28T08:21:49.000Z</time>
      </trkpt>
      <trkpt lat="42.76756" lon="1.4721">
        <ele>891</ele>
        <time>2026-06-28T08:21:50.000Z</time>
      </trkpt>
      <trkpt lat="42.76755" lon="1.47209">
        <ele>890</ele>
        <time>2026-06-28T08:21:51.000Z</time>
      </trkpt>
      <trkpt lat="42.76754" lon="1.4721">
        <ele>891</ele>
        <time>2026-06-28T08:21:52.000Z</time>
      </trkpt>
      <trkpt lat="42.76754" lon="1.47211">
        <ele>891</ele>
        <time>2026-06-28T08:21:53.000Z</time>
      </trkpt>
      <trkpt lat="42.76753" lon="1.47213">
        <ele>891</ele>
        <time>2026-06-28T08:21:54.000Z</time>
      </trkpt>
      <trkpt lat="42.76752" lon="1.47215">
        <ele>891</ele>
        <time>2026-06-28T08:21:55.000Z</time>
      </trkpt>
      <trkpt lat="42.76751" lon="1.47217">
        <ele>890</ele>
        <time>2026-06-28T08:21:56.000Z</time>
      </trkpt>
      <trkpt lat="42.76749" lon="1.47218">
        <ele>890</ele>
        <time>2026-06-28T08:21:57.000Z</time>
      </trkpt>
      <trkpt lat="42.76748" lon="1.4722">
        <ele>889</ele>
        <time>2026-06-28T08:21:58.000Z</time>
      </trkpt>
      <trkpt lat="42.76747" lon="1.47221">
        <ele>889</ele>
        <time>2026-06-28T08:21:59.000Z</time>
      </trkpt>
      <trkpt lat="42.76746" lon="1.47222">
        <ele>889</ele>
        <time>2026-06-28T08:22:00.000Z</time>
      </trkpt>
      <trkpt lat="42.76746" lon="1.47225">
        <ele>888</ele>
        <time>2026-06-28T08:22:01.000Z</time>
      </trkpt>
      <trkpt lat="42.76744" lon="1.47227">
        <ele>888</ele>
        <time>2026-06-28T08:22:02.000Z</time>
      </trkpt>
      <trkpt lat="42.76744" lon="1.4723">
        <ele>887</ele>
        <time>2026-06-28T08:22:03.000Z</time>
      </trkpt>
      <trkpt lat="42.76742" lon="1.47233">
        <ele>887</ele>
        <time>2026-06-28T08:22:04.000Z</time>
      </trkpt>
      <trkpt lat="42.76741" lon="1.47237">
        <ele>887</ele>
        <time>2026-06-28T08:22:05.000Z</time>
      </trkpt>
      <trkpt lat="42.7674" lon="1.47241">
        <ele>886</ele>
        <time>2026-06-28T08:22:06.000Z</time>
      </trkpt>
      <trkpt lat="42.76739" lon="1.47244">
        <ele>886</ele>
        <time>2026-06-28T08:22:07.000Z</time>
      </trkpt>
      <trkpt lat="42.76737" lon="1.47248">
        <ele>885</ele>
        <time>2026-06-28T08:22:08.000Z</time>
      </trkpt>
      <trkpt lat="42.76736" lon="1.47251">
        <ele>885</ele>
        <time>2026-06-28T08:22:09.000Z</time>
      </trkpt>
      <trkpt lat="42.76734" lon="1.47255">
        <ele>885</ele>
        <time>2026-06-28T08:22:10.000Z</time>
      </trkpt>
      <trkpt lat="42.76732" lon="1.47259">
        <ele>885</ele>
        <time>2026-06-28T08:22:11.000Z</time>
      </trkpt>
      <trkpt lat="42.7673" lon="1.47261">
        <ele>885</ele>
        <time>2026-06-28T08:22:12.000Z</time>
      </trkpt>
      <trkpt lat="42.76729" lon="1.47264">
        <ele>885</ele>
        <time>2026-06-28T08:22:13.000Z</time>
      </trkpt>
      <trkpt lat="42.76729" lon="1.47267">
        <ele>885</ele>
        <time>2026-06-28T08:22:14.000Z</time>
      </trkpt>
      <trkpt lat="42.76727" lon="1.47269">
        <ele>884</ele>
        <time>2026-06-28T08:22:15.000Z</time>
      </trkpt>
      <trkpt lat="42.76726" lon="1.47271">
        <ele>884</ele>
        <time>2026-06-28T08:22:16.000Z</time>
      </trkpt>
      <trkpt lat="42.76724" lon="1.47272">
        <ele>884</ele>
        <time>2026-06-28T08:22:17.000Z</time>
      </trkpt>
      <trkpt lat="42.76722" lon="1.47275">
        <ele>883</ele>
        <time>2026-06-28T08:22:18.000Z</time>
      </trkpt>
      <trkpt lat="42.76721" lon="1.47277">
        <ele>882</ele>
        <time>2026-06-28T08:22:19.000Z</time>
      </trkpt>
      <trkpt lat="42.76719" lon="1.47279">
        <ele>882</ele>
        <time>2026-06-28T08:22:20.000Z</time>
      </trkpt>
      <trkpt lat="42.76718" lon="1.47282">
        <ele>882</ele>
        <time>2026-06-28T08:22:21.000Z</time>
      </trkpt>
      <trkpt lat="42.76716" lon="1.47285">
        <ele>881</ele>
        <time>2026-06-28T08:22:22.000Z</time>
      </trkpt>
      <trkpt lat="42.76714" lon="1.47288">
        <ele>881</ele>
        <time>2026-06-28T08:22:23.000Z</time>
      </trkpt>
      <trkpt lat="42.76712" lon="1.47293">
        <ele>881</ele>
        <time>2026-06-28T08:22:24.000Z</time>
      </trkpt>
      <trkpt lat="42.7671" lon="1.473">
        <ele>880</ele>
        <time>2026-06-28T08:22:25.000Z</time>
      </trkpt>
      <trkpt lat="42.76708" lon="1.47304">
        <ele>880</ele>
        <time>2026-06-28T08:22:26.000Z</time>
      </trkpt>
      <trkpt lat="42.76705" lon="1.47309">
        <ele>880</ele>
        <time>2026-06-28T08:22:27.000Z</time>
      </trkpt>
      <trkpt lat="42.76703" lon="1.47314">
        <ele>880</ele>
        <time>2026-06-28T08:22:28.000Z</time>
      </trkpt>
      <trkpt lat="42.76701" lon="1.47318">
        <ele>879</ele>
        <time>2026-06-28T08:22:29.000Z</time>
      </trkpt>
      <trkpt lat="42.76699" lon="1.47324">
        <ele>879</ele>
        <time>2026-06-28T08:22:30.000Z</time>
      </trkpt>
      <trkpt lat="42.76697" lon="1.47328">
        <ele>879</ele>
        <time>2026-06-28T08:22:31.000Z</time>
      </trkpt>
      <trkpt lat="42.76695" lon="1.47333">
        <ele>879</ele>
        <time>2026-06-28T08:22:32.000Z</time>
      </trkpt>
      <trkpt lat="42.76695" lon="1.47338">
        <ele>879</ele>
        <time>2026-06-28T08:22:33.000Z</time>
      </trkpt>
      <trkpt lat="42.76694" lon="1.47341">
        <ele>878</ele>
        <time>2026-06-28T08:22:34.000Z</time>
      </trkpt>
      <trkpt lat="42.76692" lon="1.47344">
        <ele>878</ele>
        <time>2026-06-28T08:22:35.000Z</time>
      </trkpt>
      <trkpt lat="42.76689" lon="1.47348">
        <ele>878</ele>
        <time>2026-06-28T08:22:36.000Z</time>
      </trkpt>
      <trkpt lat="42.76686" lon="1.47353">
        <ele>878</ele>
        <time>2026-06-28T08:22:37.000Z</time>
      </trkpt>
      <trkpt lat="42.76683" lon="1.47359">
        <ele>878</ele>
        <time>2026-06-28T08:22:38.000Z</time>
      </trkpt>
      <trkpt lat="42.76679" lon="1.47365">
        <ele>879</ele>
        <time>2026-06-28T08:22:39.000Z</time>
      </trkpt>
      <trkpt lat="42.76674" lon="1.47371">
        <ele>879</ele>
        <time>2026-06-28T08:22:40.000Z</time>
      </trkpt>
      <trkpt lat="42.76669" lon="1.47376">
        <ele>878</ele>
        <time>2026-06-28T08:22:41.000Z</time>
      </trkpt>
      <trkpt lat="42.76663" lon="1.47382">
        <ele>878</ele>
        <time>2026-06-28T08:22:42.000Z</time>
      </trkpt>
      <trkpt lat="42.76659" lon="1.47386">
        <ele>878</ele>
        <time>2026-06-28T08:22:43.000Z</time>
      </trkpt>
      <trkpt lat="42.76656" lon="1.47391">
        <ele>877</ele>
        <time>2026-06-28T08:22:44.000Z</time>
      </trkpt>
      <trkpt lat="42.76652" lon="1.47395">
        <ele>877</ele>
        <time>2026-06-28T08:22:45.000Z</time>
      </trkpt>
      <trkpt lat="42.76648" lon="1.47398">
        <ele>877</ele>
        <time>2026-06-28T08:22:46.000Z</time>
      </trkpt>
      <trkpt lat="42.76644" lon="1.47401">
        <ele>877</ele>
        <time>2026-06-28T08:22:47.000Z</time>
      </trkpt>
      <trkpt lat="42.76637" lon="1.47406">
        <ele>877</ele>
        <time>2026-06-28T08:22:48.000Z</time>
      </trkpt>
      <trkpt lat="42.76631" lon="1.47412">
        <ele>877</ele>
        <time>2026-06-28T08:22:49.000Z</time>
      </trkpt>
      <trkpt lat="42.76627" lon="1.47417">
        <ele>877</ele>
        <time>2026-06-28T08:22:50.000Z</time>
      </trkpt>
      <trkpt lat="42.76623" lon="1.47418">
        <ele>877</ele>
        <time>2026-06-28T08:22:51.000Z</time>
      </trkpt>
      <trkpt lat="42.76616" lon="1.47419">
        <ele>875</ele>
        <time>2026-06-28T08:22:52.000Z</time>
      </trkpt>
      <trkpt lat="42.76611" lon="1.47419">
        <ele>874</ele>
        <time>2026-06-28T08:22:53.000Z</time>
      </trkpt>
      <trkpt lat="42.76606" lon="1.47421">
        <ele>873</ele>
        <time>2026-06-28T08:22:54.000Z</time>
      </trkpt>
      <trkpt lat="42.76604" lon="1.47422">
        <ele>873</ele>
        <time>2026-06-28T08:22:55.000Z</time>
      </trkpt>
      <trkpt lat="42.76602" lon="1.47425">
        <ele>872</ele>
        <time>2026-06-28T08:22:56.000Z</time>
      </trkpt>
      <trkpt lat="42.766" lon="1.47426">
        <ele>872</ele>
        <time>2026-06-28T08:22:57.000Z</time>
      </trkpt>
      <trkpt lat="42.76598" lon="1.47427">
        <ele>872</ele>
        <time>2026-06-28T08:22:58.000Z</time>
      </trkpt>
      <trkpt lat="42.76597" lon="1.47429">
        <ele>873</ele>
        <time>2026-06-28T08:22:59.000Z</time>
      </trkpt>
      <trkpt lat="42.76596" lon="1.4743">
        <ele>873</ele>
        <time>2026-06-28T08:23:00.000Z</time>
      </trkpt>
      <trkpt lat="42.76594" lon="1.47432">
        <ele>872</ele>
        <time>2026-06-28T08:23:01.000Z</time>
      </trkpt>
      <trkpt lat="42.76592" lon="1.47432">
        <ele>872</ele>
        <time>2026-06-28T08:23:02.000Z</time>
      </trkpt>
      <trkpt lat="42.7659" lon="1.47434">
        <ele>871</ele>
        <time>2026-06-28T08:23:03.000Z</time>
      </trkpt>
      <trkpt lat="42.76588" lon="1.47435">
        <ele>871</ele>
        <time>2026-06-28T08:23:04.000Z</time>
      </trkpt>
      <trkpt lat="42.76586" lon="1.47437">
        <ele>871</ele>
        <time>2026-06-28T08:23:05.000Z</time>
      </trkpt>
      <trkpt lat="42.76582" lon="1.47441">
        <ele>870</ele>
        <time>2026-06-28T08:23:06.000Z</time>
      </trkpt>
      <trkpt lat="42.76577" lon="1.47444">
        <ele>870</ele>
        <time>2026-06-28T08:23:07.000Z</time>
      </trkpt>
      <trkpt lat="42.76574" lon="1.47447">
        <ele>870</ele>
        <time>2026-06-28T08:23:08.000Z</time>
      </trkpt>
      <trkpt lat="42.7657" lon="1.4745">
        <ele>869</ele>
        <time>2026-06-28T08:23:09.000Z</time>
      </trkpt>
      <trkpt lat="42.76567" lon="1.47452">
        <ele>870</ele>
        <time>2026-06-28T08:23:10.000Z</time>
      </trkpt>
      <trkpt lat="42.76563" lon="1.47455">
        <ele>869</ele>
        <time>2026-06-28T08:23:11.000Z</time>
      </trkpt>
      <trkpt lat="42.76559" lon="1.47458">
        <ele>869</ele>
        <time>2026-06-28T08:23:12.000Z</time>
      </trkpt>
      <trkpt lat="42.76556" lon="1.47461">
        <ele>869</ele>
        <time>2026-06-28T08:23:13.000Z</time>
      </trkpt>
      <trkpt lat="42.76551" lon="1.47464">
        <ele>867</ele>
        <time>2026-06-28T08:23:14.000Z</time>
      </trkpt>
      <trkpt lat="42.76548" lon="1.47467">
        <ele>867</ele>
        <time>2026-06-28T08:23:15.000Z</time>
      </trkpt>
      <trkpt lat="42.76545" lon="1.47469">
        <ele>867</ele>
        <time>2026-06-28T08:23:16.000Z</time>
      </trkpt>
      <trkpt lat="42.76542" lon="1.47472">
        <ele>867</ele>
        <time>2026-06-28T08:23:17.000Z</time>
      </trkpt>
      <trkpt lat="42.76538" lon="1.47475">
        <ele>866</ele>
        <time>2026-06-28T08:23:18.000Z</time>
      </trkpt>
      <trkpt lat="42.76535" lon="1.47476">
        <ele>866</ele>
        <time>2026-06-28T08:23:19.000Z</time>
      </trkpt>
      <trkpt lat="42.76532" lon="1.47478">
        <ele>865</ele>
        <time>2026-06-28T08:23:20.000Z</time>
      </trkpt>
      <trkpt lat="42.76529" lon="1.4748">
        <ele>865</ele>
        <time>2026-06-28T08:23:21.000Z</time>
      </trkpt>
      <trkpt lat="42.76526" lon="1.47482">
        <ele>865</ele>
        <time>2026-06-28T08:23:22.000Z</time>
      </trkpt>
      <trkpt lat="42.76523" lon="1.47484">
        <ele>865</ele>
        <time>2026-06-28T08:23:23.000Z</time>
      </trkpt>
      <trkpt lat="42.7652" lon="1.47487">
        <ele>865</ele>
        <time>2026-06-28T08:23:24.000Z</time>
      </trkpt>
      <trkpt lat="42.76517" lon="1.47489">
        <ele>865</ele>
        <time>2026-06-28T08:23:25.000Z</time>
      </trkpt>
      <trkpt lat="42.76512" lon="1.47492">
        <ele>864</ele>
        <time>2026-06-28T08:23:26.000Z</time>
      </trkpt>
      <trkpt lat="42.76507" lon="1.47496">
        <ele>864</ele>
        <time>2026-06-28T08:23:27.000Z</time>
      </trkpt>
      <trkpt lat="42.76504" lon="1.47499">
        <ele>863</ele>
        <time>2026-06-28T08:23:28.000Z</time>
      </trkpt>
      <trkpt lat="42.76502" lon="1.47501">
        <ele>863</ele>
        <time>2026-06-28T08:23:29.000Z</time>
      </trkpt>
      <trkpt lat="42.76499" lon="1.47503">
        <ele>863</ele>
        <time>2026-06-28T08:23:30.000Z</time>
      </trkpt>
      <trkpt lat="42.76497" lon="1.47505">
        <ele>863</ele>
        <time>2026-06-28T08:23:31.000Z</time>
      </trkpt>
      <trkpt lat="42.76493" lon="1.47508">
        <ele>862</ele>
        <time>2026-06-28T08:23:32.000Z</time>
      </trkpt>
      <trkpt lat="42.76489" lon="1.47511">
        <ele>862</ele>
        <time>2026-06-28T08:23:33.000Z</time>
      </trkpt>
      <trkpt lat="42.76485" lon="1.47513">
        <ele>862</ele>
        <time>2026-06-28T08:23:34.000Z</time>
      </trkpt>
      <trkpt lat="42.76481" lon="1.47517">
        <ele>861</ele>
        <time>2026-06-28T08:23:35.000Z</time>
      </trkpt>
      <trkpt lat="42.76475" lon="1.4752">
        <ele>861</ele>
        <time>2026-06-28T08:23:36.000Z</time>
      </trkpt>
      <trkpt lat="42.76468" lon="1.47524">
        <ele>861</ele>
        <time>2026-06-28T08:23:37.000Z</time>
      </trkpt>
      <trkpt lat="42.76463" lon="1.47526">
        <ele>861</ele>
        <time>2026-06-28T08:23:38.000Z</time>
      </trkpt>
      <trkpt lat="42.76457" lon="1.47529">
        <ele>860</ele>
        <time>2026-06-28T08:23:39.000Z</time>
      </trkpt>
      <trkpt lat="42.76451" lon="1.47532">
        <ele>860</ele>
        <time>2026-06-28T08:23:40.000Z</time>
      </trkpt>
      <trkpt lat="42.76444" lon="1.47532">
        <ele>860</ele>
        <time>2026-06-28T08:23:41.000Z</time>
      </trkpt>
      <trkpt lat="42.76435" lon="1.4753">
        <ele>861</ele>
        <time>2026-06-28T08:23:42.000Z</time>
      </trkpt>
      <trkpt lat="42.76429" lon="1.47527">
        <ele>859</ele>
        <time>2026-06-28T08:23:43.000Z</time>
      </trkpt>
      <trkpt lat="42.76423" lon="1.47524">
        <ele>859</ele>
        <time>2026-06-28T08:23:44.000Z</time>
      </trkpt>
      <trkpt lat="42.76417" lon="1.47522">
        <ele>858</ele>
        <time>2026-06-28T08:23:45.000Z</time>
      </trkpt>
      <trkpt lat="42.76411" lon="1.4752">
        <ele>858</ele>
        <time>2026-06-28T08:23:46.000Z</time>
      </trkpt>
      <trkpt lat="42.76405" lon="1.47519">
        <ele>857</ele>
        <time>2026-06-28T08:23:47.000Z</time>
      </trkpt>
      <trkpt lat="42.764" lon="1.4752">
        <ele>857</ele>
        <time>2026-06-28T08:23:48.000Z</time>
      </trkpt>
      <trkpt lat="42.76394" lon="1.47521">
        <ele>856</ele>
        <time>2026-06-28T08:23:49.000Z</time>
      </trkpt>
      <trkpt lat="42.76389" lon="1.47523">
        <ele>856</ele>
        <time>2026-06-28T08:23:50.000Z</time>
      </trkpt>
      <trkpt lat="42.7638" lon="1.47523">
        <ele>855</ele>
        <time>2026-06-28T08:23:51.000Z</time>
      </trkpt>
      <trkpt lat="42.7637" lon="1.47521">
        <ele>855</ele>
        <time>2026-06-28T08:23:52.000Z</time>
      </trkpt>
      <trkpt lat="42.76361" lon="1.47519">
        <ele>855</ele>
        <time>2026-06-28T08:23:53.000Z</time>
      </trkpt>
      <trkpt lat="42.76354" lon="1.47516">
        <ele>855</ele>
        <time>2026-06-28T08:23:54.000Z</time>
      </trkpt>
      <trkpt lat="42.76346" lon="1.47514">
        <ele>855</ele>
        <time>2026-06-28T08:23:55.000Z</time>
      </trkpt>
      <trkpt lat="42.7634" lon="1.47511">
        <ele>855</ele>
        <time>2026-06-28T08:23:56.000Z</time>
      </trkpt>
      <trkpt lat="42.76336" lon="1.47508">
        <ele>854</ele>
        <time>2026-06-28T08:23:57.000Z</time>
      </trkpt>
      <trkpt lat="42.76334" lon="1.47507">
        <ele>854</ele>
        <time>2026-06-28T08:23:58.000Z</time>
      </trkpt>
      <trkpt lat="42.76331" lon="1.47506">
        <ele>853</ele>
        <time>2026-06-28T08:23:59.000Z</time>
      </trkpt>
      <trkpt lat="42.7633" lon="1.47505">
        <ele>853</ele>
        <time>2026-06-28T08:24:00.000Z</time>
      </trkpt>
      <trkpt lat="42.76327" lon="1.47504">
        <ele>853</ele>
        <time>2026-06-28T08:24:01.000Z</time>
      </trkpt>
      <trkpt lat="42.76325" lon="1.47503">
        <ele>853</ele>
        <time>2026-06-28T08:24:02.000Z</time>
      </trkpt>
      <trkpt lat="42.76322" lon="1.47503">
        <ele>852</ele>
        <time>2026-06-28T08:24:03.000Z</time>
      </trkpt>
      <trkpt lat="42.76319" lon="1.47503">
        <ele>852</ele>
        <time>2026-06-28T08:24:04.000Z</time>
      </trkpt>
      <trkpt lat="42.76318" lon="1.47502">
        <ele>852</ele>
        <time>2026-06-28T08:24:05.000Z</time>
      </trkpt>
      <trkpt lat="42.76315" lon="1.47501">
        <ele>852</ele>
        <time>2026-06-28T08:24:06.000Z</time>
      </trkpt>
      <trkpt lat="42.76311" lon="1.47499">
        <ele>852</ele>
        <time>2026-06-28T08:24:07.000Z</time>
      </trkpt>
      <trkpt lat="42.76307" lon="1.475">
        <ele>852</ele>
        <time>2026-06-28T08:24:08.000Z</time>
      </trkpt>
      <trkpt lat="42.76303" lon="1.47502">
        <ele>851</ele>
        <time>2026-06-28T08:24:09.000Z</time>
      </trkpt>
      <trkpt lat="42.76298" lon="1.47503">
        <ele>850</ele>
        <time>2026-06-28T08:24:10.000Z</time>
      </trkpt>
      <trkpt lat="42.76293" lon="1.47502">
        <ele>850</ele>
        <time>2026-06-28T08:24:11.000Z</time>
      </trkpt>
      <trkpt lat="42.76288" lon="1.47501">
        <ele>850</ele>
        <time>2026-06-28T08:24:12.000Z</time>
      </trkpt>
      <trkpt lat="42.76284" lon="1.475">
        <ele>849</ele>
        <time>2026-06-28T08:24:13.000Z</time>
      </trkpt>
      <trkpt lat="42.7628" lon="1.47503">
        <ele>849</ele>
        <time>2026-06-28T08:24:14.000Z</time>
      </trkpt>
      <trkpt lat="42.76276" lon="1.47508">
        <ele>849</ele>
        <time>2026-06-28T08:24:15.000Z</time>
      </trkpt>
      <trkpt lat="42.76272" lon="1.47516">
        <ele>849</ele>
        <time>2026-06-28T08:24:16.000Z</time>
      </trkpt>
      <trkpt lat="42.76269" lon="1.47522">
        <ele>849</ele>
        <time>2026-06-28T08:24:17.000Z</time>
      </trkpt>
      <trkpt lat="42.76266" lon="1.47529">
        <ele>849</ele>
        <time>2026-06-28T08:24:18.000Z</time>
      </trkpt>
      <trkpt lat="42.76262" lon="1.47535">
        <ele>849</ele>
        <time>2026-06-28T08:24:19.000Z</time>
      </trkpt>
      <trkpt lat="42.76259" lon="1.47541">
        <ele>849</ele>
        <time>2026-06-28T08:24:20.000Z</time>
      </trkpt>
      <trkpt lat="42.76255" lon="1.47551">
        <ele>848</ele>
        <time>2026-06-28T08:24:21.000Z</time>
      </trkpt>
      <trkpt lat="42.76252" lon="1.47556">
        <ele>848</ele>
        <time>2026-06-28T08:24:22.000Z</time>
      </trkpt>
      <trkpt lat="42.76248" lon="1.4756">
        <ele>848</ele>
        <time>2026-06-28T08:24:23.000Z</time>
      </trkpt>
      <trkpt lat="42.76241" lon="1.47567">
        <ele>848</ele>
        <time>2026-06-28T08:24:24.000Z</time>
      </trkpt>
      <trkpt lat="42.76235" lon="1.47573">
        <ele>847</ele>
        <time>2026-06-28T08:24:25.000Z</time>
      </trkpt>
      <trkpt lat="42.76227" lon="1.47578">
        <ele>846</ele>
        <time>2026-06-28T08:24:26.000Z</time>
      </trkpt>
      <trkpt lat="42.76218" lon="1.47582">
        <ele>845</ele>
        <time>2026-06-28T08:24:27.000Z</time>
      </trkpt>
      <trkpt lat="42.76211" lon="1.47585">
        <ele>844</ele>
        <time>2026-06-28T08:24:28.000Z</time>
      </trkpt>
      <trkpt lat="42.76204" lon="1.47588">
        <ele>843</ele>
        <time>2026-06-28T08:24:29.000Z</time>
      </trkpt>
      <trkpt lat="42.76198" lon="1.4759">
        <ele>842</ele>
        <time>2026-06-28T08:24:30.000Z</time>
      </trkpt>
      <trkpt lat="42.76191" lon="1.47593">
        <ele>842</ele>
        <time>2026-06-28T08:24:31.000Z</time>
      </trkpt>
      <trkpt lat="42.76182" lon="1.47593">
        <ele>842</ele>
        <time>2026-06-28T08:24:32.000Z</time>
      </trkpt>
      <trkpt lat="42.76172" lon="1.47593">
        <ele>841</ele>
        <time>2026-06-28T08:24:33.000Z</time>
      </trkpt>
      <trkpt lat="42.76162" lon="1.47593">
        <ele>842</ele>
        <time>2026-06-28T08:24:34.000Z</time>
      </trkpt>
      <trkpt lat="42.76157" lon="1.47594">
        <ele>841</ele>
        <time>2026-06-28T08:24:35.000Z</time>
      </trkpt>
      <trkpt lat="42.76151" lon="1.47599">
        <ele>839</ele>
        <time>2026-06-28T08:24:36.000Z</time>
      </trkpt>
      <trkpt lat="42.76145" lon="1.47604">
        <ele>838</ele>
        <time>2026-06-28T08:24:37.000Z</time>
      </trkpt>
      <trkpt lat="42.7614" lon="1.4761">
        <ele>836</ele>
        <time>2026-06-28T08:24:38.000Z</time>
      </trkpt>
      <trkpt lat="42.76138" lon="1.47616">
        <ele>835</ele>
        <time>2026-06-28T08:24:39.000Z</time>
      </trkpt>
      <trkpt lat="42.76136" lon="1.47621">
        <ele>835</ele>
        <time>2026-06-28T08:24:40.000Z</time>
      </trkpt>
      <trkpt lat="42.76132" lon="1.47628">
        <ele>834</ele>
        <time>2026-06-28T08:24:41.000Z</time>
      </trkpt>
      <trkpt lat="42.7613" lon="1.47636">
        <ele>834</ele>
        <time>2026-06-28T08:24:42.000Z</time>
      </trkpt>
      <trkpt lat="42.7613" lon="1.47642">
        <ele>833</ele>
        <time>2026-06-28T08:24:43.000Z</time>
      </trkpt>
      <trkpt lat="42.76133" lon="1.47648">
        <ele>833</ele>
        <time>2026-06-28T08:24:44.000Z</time>
      </trkpt>
      <trkpt lat="42.76138" lon="1.47651">
        <ele>831</ele>
        <time>2026-06-28T08:24:45.000Z</time>
      </trkpt>
      <trkpt lat="42.76143" lon="1.47654">
        <ele>831</ele>
        <time>2026-06-28T08:24:46.000Z</time>
      </trkpt>
      <trkpt lat="42.76148" lon="1.47656">
        <ele>830</ele>
        <time>2026-06-28T08:24:47.000Z</time>
      </trkpt>
      <trkpt lat="42.76153" lon="1.47659">
        <ele>830</ele>
        <time>2026-06-28T08:24:48.000Z</time>
      </trkpt>
      <trkpt lat="42.76159" lon="1.47662">
        <ele>830</ele>
        <time>2026-06-28T08:24:49.000Z</time>
      </trkpt>
      <trkpt lat="42.76164" lon="1.47664">
        <ele>829</ele>
        <time>2026-06-28T08:24:50.000Z</time>
      </trkpt>
      <trkpt lat="42.76169" lon="1.47666">
        <ele>829</ele>
        <time>2026-06-28T08:24:51.000Z</time>
      </trkpt>
      <trkpt lat="42.76176" lon="1.47667">
        <ele>828</ele>
        <time>2026-06-28T08:24:52.000Z</time>
      </trkpt>
      <trkpt lat="42.76182" lon="1.47668">
        <ele>828</ele>
        <time>2026-06-28T08:24:53.000Z</time>
      </trkpt>
      <trkpt lat="42.76189" lon="1.47667">
        <ele>827</ele>
        <time>2026-06-28T08:24:54.000Z</time>
      </trkpt>
      <trkpt lat="42.76195" lon="1.47665">
        <ele>827</ele>
        <time>2026-06-28T08:24:55.000Z</time>
      </trkpt>
      <trkpt lat="42.76201" lon="1.47662">
        <ele>827</ele>
        <time>2026-06-28T08:24:56.000Z</time>
      </trkpt>
      <trkpt lat="42.76207" lon="1.47661">
        <ele>826</ele>
        <time>2026-06-28T08:24:57.000Z</time>
      </trkpt>
      <trkpt lat="42.76212" lon="1.47663">
        <ele>826</ele>
        <time>2026-06-28T08:24:58.000Z</time>
      </trkpt>
      <trkpt lat="42.76215" lon="1.47667">
        <ele>824</ele>
        <time>2026-06-28T08:24:59.000Z</time>
      </trkpt>
      <trkpt lat="42.76217" lon="1.47674">
        <ele>824</ele>
        <time>2026-06-28T08:25:00.000Z</time>
      </trkpt>
      <trkpt lat="42.76215" lon="1.47682">
        <ele>824</ele>
        <time>2026-06-28T08:25:01.000Z</time>
      </trkpt>
      <trkpt lat="42.76211" lon="1.47689">
        <ele>824</ele>
        <time>2026-06-28T08:25:02.000Z</time>
      </trkpt>
      <trkpt lat="42.76204" lon="1.47695">
        <ele>823</ele>
        <time>2026-06-28T08:25:03.000Z</time>
      </trkpt>
      <trkpt lat="42.76197" lon="1.47699">
        <ele>823</ele>
        <time>2026-06-28T08:25:04.000Z</time>
      </trkpt>
      <trkpt lat="42.76189" lon="1.47703">
        <ele>822</ele>
        <time>2026-06-28T08:25:05.000Z</time>
      </trkpt>
      <trkpt lat="42.76181" lon="1.47707">
        <ele>821</ele>
        <time>2026-06-28T08:25:06.000Z</time>
      </trkpt>
      <trkpt lat="42.76174" lon="1.47711">
        <ele>820</ele>
        <time>2026-06-28T08:25:07.000Z</time>
      </trkpt>
      <trkpt lat="42.76166" lon="1.47714">
        <ele>818</ele>
        <time>2026-06-28T08:25:08.000Z</time>
      </trkpt>
      <trkpt lat="42.76159" lon="1.47715">
        <ele>817</ele>
        <time>2026-06-28T08:25:09.000Z</time>
      </trkpt>
      <trkpt lat="42.76152" lon="1.47718">
        <ele>816</ele>
        <time>2026-06-28T08:25:10.000Z</time>
      </trkpt>
      <trkpt lat="42.76146" lon="1.4772">
        <ele>815</ele>
        <time>2026-06-28T08:25:11.000Z</time>
      </trkpt>
      <trkpt lat="42.7614" lon="1.47721">
        <ele>813</ele>
        <time>2026-06-28T08:25:12.000Z</time>
      </trkpt>
      <trkpt lat="42.76134" lon="1.47724">
        <ele>813</ele>
        <time>2026-06-28T08:25:13.000Z</time>
      </trkpt>
      <trkpt lat="42.7613" lon="1.47728">
        <ele>813</ele>
        <time>2026-06-28T08:25:14.000Z</time>
      </trkpt>
      <trkpt lat="42.76126" lon="1.47734">
        <ele>813</ele>
        <time>2026-06-28T08:25:15.000Z</time>
      </trkpt>
      <trkpt lat="42.76127" lon="1.47742">
        <ele>813</ele>
        <time>2026-06-28T08:25:16.000Z</time>
      </trkpt>
      <trkpt lat="42.7613" lon="1.47749">
        <ele>813</ele>
        <time>2026-06-28T08:25:17.000Z</time>
      </trkpt>
      <trkpt lat="42.76134" lon="1.47753">
        <ele>813</ele>
        <time>2026-06-28T08:25:18.000Z</time>
      </trkpt>
      <trkpt lat="42.76138" lon="1.47757">
        <ele>812</ele>
        <time>2026-06-28T08:25:19.000Z</time>
      </trkpt>
      <trkpt lat="42.76141" lon="1.4776">
        <ele>812</ele>
        <time>2026-06-28T08:25:20.000Z</time>
      </trkpt>
      <trkpt lat="42.76141" lon="1.47763">
        <ele>812</ele>
        <time>2026-06-28T08:25:21.000Z</time>
      </trkpt>
      <trkpt lat="42.76141" lon="1.47766">
        <ele>812</ele>
        <time>2026-06-28T08:25:22.000Z</time>
      </trkpt>
      <trkpt lat="42.7614" lon="1.47768">
        <ele>812</ele>
        <time>2026-06-28T08:25:23.000Z</time>
      </trkpt>
      <trkpt lat="42.76136" lon="1.47768">
        <ele>811</ele>
        <time>2026-06-28T08:25:24.000Z</time>
      </trkpt>
      <trkpt lat="42.76134" lon="1.47769">
        <ele>811</ele>
        <time>2026-06-28T08:25:25.000Z</time>
      </trkpt>
      <trkpt lat="42.76131" lon="1.47769">
        <ele>811</ele>
        <time>2026-06-28T08:25:26.000Z</time>
      </trkpt>
      <trkpt lat="42.76127" lon="1.47769">
        <ele>811</ele>
        <time>2026-06-28T08:25:27.000Z</time>
      </trkpt>
      <trkpt lat="42.76123" lon="1.47769">
        <ele>811</ele>
        <time>2026-06-28T08:25:28.000Z</time>
      </trkpt>
      <trkpt lat="42.76119" lon="1.47768">
        <ele>811</ele>
        <time>2026-06-28T08:25:29.000Z</time>
      </trkpt>
      <trkpt lat="42.76114" lon="1.47767">
        <ele>810</ele>
        <time>2026-06-28T08:25:30.000Z</time>
      </trkpt>
      <trkpt lat="42.7611" lon="1.47766">
        <ele>810</ele>
        <time>2026-06-28T08:25:31.000Z</time>
      </trkpt>
      <trkpt lat="42.76105" lon="1.47765">
        <ele>810</ele>
        <time>2026-06-28T08:25:32.000Z</time>
      </trkpt>
      <trkpt lat="42.76101" lon="1.47763">
        <ele>809</ele>
        <time>2026-06-28T08:25:33.000Z</time>
      </trkpt>
      <trkpt lat="42.76098" lon="1.47762">
        <ele>809</ele>
        <time>2026-06-28T08:25:34.000Z</time>
      </trkpt>
      <trkpt lat="42.76097" lon="1.4776">
        <ele>809</ele>
        <time>2026-06-28T08:25:35.000Z</time>
      </trkpt>
      <trkpt lat="42.76096" lon="1.47759">
        <ele>809</ele>
        <time>2026-06-28T08:25:36.000Z</time>
      </trkpt>
      <trkpt lat="42.76095" lon="1.47759">
        <ele>809</ele>
        <time>2026-06-28T08:25:37.000Z</time>
      </trkpt>
      <trkpt lat="42.76093" lon="1.47752">
        <ele>807</ele>
        <time>2026-06-28T08:25:50.000Z</time>
      </trkpt>
      <trkpt lat="42.76093" lon="1.47751">
        <ele>807</ele>
        <time>2026-06-28T08:25:51.000Z</time>
      </trkpt>
      <trkpt lat="42.76092" lon="1.47749">
        <ele>807</ele>
        <time>2026-06-28T08:25:52.000Z</time>
      </trkpt>
      <trkpt lat="42.7609" lon="1.47747">
        <ele>806</ele>
        <time>2026-06-28T08:25:53.000Z</time>
      </trkpt>
      <trkpt lat="42.76088" lon="1.47745">
        <ele>807</ele>
        <time>2026-06-28T08:25:54.000Z</time>
      </trkpt>
      <trkpt lat="42.76086" lon="1.47743">
        <ele>807</ele>
        <time>2026-06-28T08:25:55.000Z</time>
      </trkpt>
      <trkpt lat="42.76084" lon="1.47741">
        <ele>807</ele>
        <time>2026-06-28T08:25:56.000Z</time>
      </trkpt>
      <trkpt lat="42.76081" lon="1.47738">
        <ele>807</ele>
        <time>2026-06-28T08:25:57.000Z</time>
      </trkpt>
      <trkpt lat="42.76078" lon="1.47736">
        <ele>807</ele>
        <time>2026-06-28T08:25:58.000Z</time>
      </trkpt>
      <trkpt lat="42.76075" lon="1.47734">
        <ele>807</ele>
        <time>2026-06-28T08:25:59.000Z</time>
      </trkpt>
      <trkpt lat="42.76072" lon="1.47732">
        <ele>807</ele>
        <time>2026-06-28T08:26:00.000Z</time>
      </trkpt>
      <trkpt lat="42.76069" lon="1.4773">
        <ele>807</ele>
        <time>2026-06-28T08:26:01.000Z</time>
      </trkpt>
      <trkpt lat="42.76066" lon="1.47729">
        <ele>807</ele>
        <time>2026-06-28T08:26:02.000Z</time>
      </trkpt>
      <trkpt lat="42.76063" lon="1.47728">
        <ele>808</ele>
        <time>2026-06-28T08:26:03.000Z</time>
      </trkpt>
      <trkpt lat="42.76058" lon="1.47727">
        <ele>807</ele>
        <time>2026-06-28T08:26:04.000Z</time>
      </trkpt>
      <trkpt lat="42.76054" lon="1.47727">
        <ele>808</ele>
        <time>2026-06-28T08:26:05.000Z</time>
      </trkpt>
      <trkpt lat="42.76051" lon="1.47727">
        <ele>808</ele>
        <time>2026-06-28T08:26:06.000Z</time>
      </trkpt>
      <trkpt lat="42.76047" lon="1.47727">
        <ele>808</ele>
        <time>2026-06-28T08:26:07.000Z</time>
      </trkpt>
      <trkpt lat="42.76044" lon="1.47727">
        <ele>808</ele>
        <time>2026-06-28T08:26:08.000Z</time>
      </trkpt>
      <trkpt lat="42.76042" lon="1.47727">
        <ele>808</ele>
        <time>2026-06-28T08:26:09.000Z</time>
      </trkpt>
      <trkpt lat="42.76039" lon="1.47727">
        <ele>808</ele>
        <time>2026-06-28T08:26:10.000Z</time>
      </trkpt>
      <trkpt lat="42.76036" lon="1.47727">
        <ele>808</ele>
        <time>2026-06-28T08:26:11.000Z</time>
      </trkpt>
      <trkpt lat="42.76032" lon="1.47727">
        <ele>808</ele>
        <time>2026-06-28T08:26:12.000Z</time>
      </trkpt>
      <trkpt lat="42.76029" lon="1.47726">
        <ele>808</ele>
        <time>2026-06-28T08:26:13.000Z</time>
      </trkpt>
      <trkpt lat="42.76025" lon="1.47725">
        <ele>809</ele>
        <time>2026-06-28T08:26:14.000Z</time>
      </trkpt>
      <trkpt lat="42.76022" lon="1.47724">
        <ele>809</ele>
        <time>2026-06-28T08:26:15.000Z</time>
      </trkpt>
      <trkpt lat="42.76018" lon="1.47724">
        <ele>809</ele>
        <time>2026-06-28T08:26:16.000Z</time>
      </trkpt>
      <trkpt lat="42.76015" lon="1.47723">
        <ele>809</ele>
        <time>2026-06-28T08:26:17.000Z</time>
      </trkpt>
      <trkpt lat="42.76012" lon="1.47722">
        <ele>809</ele>
        <time>2026-06-28T08:26:18.000Z</time>
      </trkpt>
      <trkpt lat="42.76008" lon="1.47722">
        <ele>809</ele>
        <time>2026-06-28T08:26:19.000Z</time>
      </trkpt>
      <trkpt lat="42.76005" lon="1.47721">
        <ele>809</ele>
        <time>2026-06-28T08:26:20.000Z</time>
      </trkpt>
      <trkpt lat="42.76002" lon="1.4772">
        <ele>809</ele>
        <time>2026-06-28T08:26:21.000Z</time>
      </trkpt>
      <trkpt lat="42.75998" lon="1.4772">
        <ele>808</ele>
        <time>2026-06-28T08:26:22.000Z</time>
      </trkpt>
      <trkpt lat="42.75995" lon="1.4772">
        <ele>808</ele>
        <time>2026-06-28T08:26:23.000Z</time>
      </trkpt>
      <trkpt lat="42.75991" lon="1.4772">
        <ele>808</ele>
        <time>2026-06-28T08:26:24.000Z</time>
      </trkpt>
      <trkpt lat="42.75988" lon="1.4772">
        <ele>809</ele>
        <time>2026-06-28T08:26:25.000Z</time>
      </trkpt>
      <trkpt lat="42.75985" lon="1.47719">
        <ele>809</ele>
        <time>2026-06-28T08:26:26.000Z</time>
      </trkpt>
      <trkpt lat="42.75982" lon="1.47719">
        <ele>809</ele>
        <time>2026-06-28T08:26:27.000Z</time>
      </trkpt>
      <trkpt lat="42.75978" lon="1.47718">
        <ele>809</ele>
        <time>2026-06-28T08:26:28.000Z</time>
      </trkpt>
      <trkpt lat="42.75975" lon="1.47719">
        <ele>809</ele>
        <time>2026-06-28T08:26:29.000Z</time>
      </trkpt>
      <trkpt lat="42.75971" lon="1.47719">
        <ele>810</ele>
        <time>2026-06-28T08:26:30.000Z</time>
      </trkpt>
      <trkpt lat="42.75967" lon="1.47718">
        <ele>810</ele>
        <time>2026-06-28T08:26:31.000Z</time>
      </trkpt>
      <trkpt lat="42.75963" lon="1.47718">
        <ele>809</ele>
        <time>2026-06-28T08:26:32.000Z</time>
      </trkpt>
      <trkpt lat="42.7596" lon="1.47716">
        <ele>809</ele>
        <time>2026-06-28T08:26:33.000Z</time>
      </trkpt>
      <trkpt lat="42.75957" lon="1.47716">
        <ele>809</ele>
        <time>2026-06-28T08:26:34.000Z</time>
      </trkpt>
      <trkpt lat="42.75954" lon="1.47716">
        <ele>810</ele>
        <time>2026-06-28T08:26:35.000Z</time>
      </trkpt>
      <trkpt lat="42.75952" lon="1.47715">
        <ele>810</ele>
        <time>2026-06-28T08:26:36.000Z</time>
      </trkpt>
      <trkpt lat="42.7595" lon="1.47714">
        <ele>811</ele>
        <time>2026-06-28T08:26:37.000Z</time>
      </trkpt>
      <trkpt lat="42.75948" lon="1.47713">
        <ele>811</ele>
        <time>2026-06-28T08:26:38.000Z</time>
      </trkpt>
      <trkpt lat="42.75945" lon="1.47713">
        <ele>811</ele>
        <time>2026-06-28T08:26:39.000Z</time>
      </trkpt>
      <trkpt lat="42.75942" lon="1.47713">
        <ele>811</ele>
        <time>2026-06-28T08:26:40.000Z</time>
      </trkpt>
      <trkpt lat="42.75939" lon="1.47713">
        <ele>811</ele>
        <time>2026-06-28T08:26:41.000Z</time>
      </trkpt>
      <trkpt lat="42.75936" lon="1.47713">
        <ele>811</ele>
        <time>2026-06-28T08:26:42.000Z</time>
      </trkpt>
      <trkpt lat="42.75933" lon="1.47713">
        <ele>811</ele>
        <time>2026-06-28T08:26:43.000Z</time>
      </trkpt>
      <trkpt lat="42.75931" lon="1.47713">
        <ele>811</ele>
        <time>2026-06-28T08:26:44.000Z</time>
      </trkpt>
      <trkpt lat="42.75929" lon="1.47713">
        <ele>812</ele>
        <time>2026-06-28T08:26:45.000Z</time>
      </trkpt>
      <trkpt lat="42.75927" lon="1.47714">
        <ele>812</ele>
        <time>2026-06-28T08:26:46.000Z</time>
      </trkpt>
      <trkpt lat="42.75926" lon="1.47714">
        <ele>813</ele>
        <time>2026-06-28T08:26:47.000Z</time>
      </trkpt>
      <trkpt lat="42.75924" lon="1.47714">
        <ele>813</ele>
        <time>2026-06-28T08:26:48.000Z</time>
      </trkpt>
      <trkpt lat="42.75921" lon="1.47713">
        <ele>813</ele>
        <time>2026-06-28T08:26:49.000Z</time>
      </trkpt>
      <trkpt lat="42.75918" lon="1.47712">
        <ele>813</ele>
        <time>2026-06-28T08:26:50.000Z</time>
      </trkpt>
      <trkpt lat="42.75915" lon="1.47712">
        <ele>813</ele>
        <time>2026-06-28T08:26:51.000Z</time>
      </trkpt>
      <trkpt lat="42.75913" lon="1.47712">
        <ele>813</ele>
        <time>2026-06-28T08:26:52.000Z</time>
      </trkpt>
      <trkpt lat="42.7591" lon="1.47712">
        <ele>813</ele>
        <time>2026-06-28T08:26:53.000Z</time>
      </trkpt>
      <trkpt lat="42.75908" lon="1.47711">
        <ele>813</ele>
        <time>2026-06-28T08:26:54.000Z</time>
      </trkpt>
      <trkpt lat="42.75905" lon="1.47711">
        <ele>813</ele>
        <time>2026-06-28T08:26:55.000Z</time>
      </trkpt>
      <trkpt lat="42.75903" lon="1.4771">
        <ele>812</ele>
        <time>2026-06-28T08:26:56.000Z</time>
      </trkpt>
      <trkpt lat="42.759" lon="1.4771">
        <ele>812</ele>
        <time>2026-06-28T08:26:57.000Z</time>
      </trkpt>
      <trkpt lat="42.75897" lon="1.4771">
        <ele>811</ele>
        <time>2026-06-28T08:26:58.000Z</time>
      </trkpt>
      <trkpt lat="42.75894" lon="1.47709">
        <ele>811</ele>
        <time>2026-06-28T08:26:59.000Z</time>
      </trkpt>
      <trkpt lat="42.75891" lon="1.47708">
        <ele>811</ele>
        <time>2026-06-28T08:27:00.000Z</time>
      </trkpt>
      <trkpt lat="42.75889" lon="1.47707">
        <ele>811</ele>
        <time>2026-06-28T08:27:01.000Z</time>
      </trkpt>
      <trkpt lat="42.75887" lon="1.47706">
        <ele>811</ele>
        <time>2026-06-28T08:27:02.000Z</time>
      </trkpt>
      <trkpt lat="42.75884" lon="1.47705">
        <ele>811</ele>
        <time>2026-06-28T08:27:03.000Z</time>
      </trkpt>
      <trkpt lat="42.75881" lon="1.47704">
        <ele>811</ele>
        <time>2026-06-28T08:27:04.000Z</time>
      </trkpt>
      <trkpt lat="42.75878" lon="1.47704">
        <ele>811</ele>
        <time>2026-06-28T08:27:05.000Z</time>
      </trkpt>
      <trkpt lat="42.75874" lon="1.47703">
        <ele>811</ele>
        <time>2026-06-28T08:27:06.000Z</time>
      </trkpt>
      <trkpt lat="42.75871" lon="1.47702">
        <ele>812</ele>
        <time>2026-06-28T08:27:07.000Z</time>
      </trkpt>
      <trkpt lat="42.75869" lon="1.47701">
        <ele>812</ele>
        <time>2026-06-28T08:27:08.000Z</time>
      </trkpt>
      <trkpt lat="42.75865" lon="1.47699">
        <ele>812</ele>
        <time>2026-06-28T08:27:09.000Z</time>
      </trkpt>
      <trkpt lat="42.75863" lon="1.47698">
        <ele>812</ele>
        <time>2026-06-28T08:27:10.000Z</time>
      </trkpt>
      <trkpt lat="42.7586" lon="1.47696">
        <ele>812</ele>
        <time>2026-06-28T08:27:11.000Z</time>
      </trkpt>
      <trkpt lat="42.75858" lon="1.47694">
        <ele>812</ele>
        <time>2026-06-28T08:27:12.000Z</time>
      </trkpt>
      <trkpt lat="42.75857" lon="1.47692">
        <ele>813</ele>
        <time>2026-06-28T08:27:13.000Z</time>
      </trkpt>
      <trkpt lat="42.75855" lon="1.47689">
        <ele>813</ele>
        <time>2026-06-28T08:27:14.000Z</time>
      </trkpt>
      <trkpt lat="42.75854" lon="1.47686">
        <ele>813</ele>
        <time>2026-06-28T08:27:15.000Z</time>
      </trkpt>
      <trkpt lat="42.75852" lon="1.47683">
        <ele>814</ele>
        <time>2026-06-28T08:27:16.000Z</time>
      </trkpt>
      <trkpt lat="42.7585" lon="1.47681">
        <ele>814</ele>
        <time>2026-06-28T08:27:17.000Z</time>
      </trkpt>
      <trkpt lat="42.75847" lon="1.47678">
        <ele>814</ele>
        <time>2026-06-28T08:27:18.000Z</time>
      </trkpt>
      <trkpt lat="42.75845" lon="1.47676">
        <ele>814</ele>
        <time>2026-06-28T08:27:19.000Z</time>
      </trkpt>
      <trkpt lat="42.75842" lon="1.47675">
        <ele>814</ele>
        <time>2026-06-28T08:27:20.000Z</time>
      </trkpt>
      <trkpt lat="42.7584" lon="1.47672">
        <ele>814</ele>
        <time>2026-06-28T08:27:21.000Z</time>
      </trkpt>
      <trkpt lat="42.75838" lon="1.4767">
        <ele>814</ele>
        <time>2026-06-28T08:27:22.000Z</time>
      </trkpt>
      <trkpt lat="42.75835" lon="1.47669">
        <ele>813</ele>
        <time>2026-06-28T08:27:23.000Z</time>
      </trkpt>
      <trkpt lat="42.75833" lon="1.47668">
        <ele>813</ele>
        <time>2026-06-28T08:27:24.000Z</time>
      </trkpt>
      <trkpt lat="42.7583" lon="1.47667">
        <ele>813</ele>
        <time>2026-06-28T08:27:25.000Z</time>
      </trkpt>
      <trkpt lat="42.75826" lon="1.47667">
        <ele>813</ele>
        <time>2026-06-28T08:27:26.000Z</time>
      </trkpt>
      <trkpt lat="42.75823" lon="1.47666">
        <ele>812</ele>
        <time>2026-06-28T08:27:27.000Z</time>
      </trkpt>
      <trkpt lat="42.7582" lon="1.47666">
        <ele>812</ele>
        <time>2026-06-28T08:27:28.000Z</time>
      </trkpt>
      <trkpt lat="42.75817" lon="1.47666">
        <ele>812</ele>
        <time>2026-06-28T08:27:29.000Z</time>
      </trkpt>
      <trkpt lat="42.75814" lon="1.47665">
        <ele>812</ele>
        <time>2026-06-28T08:27:30.000Z</time>
      </trkpt>
      <trkpt lat="42.75811" lon="1.47665">
        <ele>811</ele>
        <time>2026-06-28T08:27:31.000Z</time>
      </trkpt>
      <trkpt lat="42.75808" lon="1.47664">
        <ele>811</ele>
        <time>2026-06-28T08:27:32.000Z</time>
      </trkpt>
      <trkpt lat="42.75804" lon="1.47662">
        <ele>811</ele>
        <time>2026-06-28T08:27:33.000Z</time>
      </trkpt>
      <trkpt lat="42.75801" lon="1.47661">
        <ele>811</ele>
        <time>2026-06-28T08:27:34.000Z</time>
      </trkpt>
      <trkpt lat="42.75798" lon="1.4766">
        <ele>811</ele>
        <time>2026-06-28T08:27:35.000Z</time>
      </trkpt>
      <trkpt lat="42.75795" lon="1.47659">
        <ele>811</ele>
        <time>2026-06-28T08:27:36.000Z</time>
      </trkpt>
      <trkpt lat="42.75791" lon="1.47658">
        <ele>811</ele>
        <time>2026-06-28T08:27:37.000Z</time>
      </trkpt>
      <trkpt lat="42.75788" lon="1.47658">
        <ele>811</ele>
        <time>2026-06-28T08:27:38.000Z</time>
      </trkpt>
      <trkpt lat="42.75785" lon="1.47658">
        <ele>812</ele>
        <time>2026-06-28T08:27:39.000Z</time>
      </trkpt>
      <trkpt lat="42.75782" lon="1.47658">
        <ele>811</ele>
        <time>2026-06-28T08:27:40.000Z</time>
      </trkpt>
      <trkpt lat="42.75779" lon="1.47658">
        <ele>811</ele>
        <time>2026-06-28T08:27:41.000Z</time>
      </trkpt>
      <trkpt lat="42.75776" lon="1.47658">
        <ele>811</ele>
        <time>2026-06-28T08:27:42.000Z</time>
      </trkpt>
      <trkpt lat="42.75774" lon="1.47657">
        <ele>811</ele>
        <time>2026-06-28T08:27:43.000Z</time>
      </trkpt>
      <trkpt lat="42.75771" lon="1.47656">
        <ele>812</ele>
        <time>2026-06-28T08:27:44.000Z</time>
      </trkpt>
      <trkpt lat="42.75769" lon="1.47656">
        <ele>811</ele>
        <time>2026-06-28T08:27:45.000Z</time>
      </trkpt>
      <trkpt lat="42.75766" lon="1.47655">
        <ele>811</ele>
        <time>2026-06-28T08:27:46.000Z</time>
      </trkpt>
      <trkpt lat="42.75763" lon="1.47654">
        <ele>812</ele>
        <time>2026-06-28T08:27:47.000Z</time>
      </trkpt>
      <trkpt lat="42.7576" lon="1.47654">
        <ele>813</ele>
        <time>2026-06-28T08:27:48.000Z</time>
      </trkpt>
      <trkpt lat="42.75756" lon="1.47653">
        <ele>813</ele>
        <time>2026-06-28T08:27:49.000Z</time>
      </trkpt>
      <trkpt lat="42.75753" lon="1.47654">
        <ele>812</ele>
        <time>2026-06-28T08:27:50.000Z</time>
      </trkpt>
      <trkpt lat="42.7575" lon="1.47653">
        <ele>813</ele>
        <time>2026-06-28T08:27:51.000Z</time>
      </trkpt>
      <trkpt lat="42.75747" lon="1.47653">
        <ele>813</ele>
        <time>2026-06-28T08:27:52.000Z</time>
      </trkpt>
      <trkpt lat="42.75744" lon="1.47653">
        <ele>814</ele>
        <time>2026-06-28T08:27:53.000Z</time>
      </trkpt>
      <trkpt lat="42.75741" lon="1.47653">
        <ele>815</ele>
        <time>2026-06-28T08:27:54.000Z</time>
      </trkpt>
      <trkpt lat="42.75739" lon="1.47652">
        <ele>815</ele>
        <time>2026-06-28T08:27:55.000Z</time>
      </trkpt>
      <trkpt lat="42.75735" lon="1.47652">
        <ele>815</ele>
        <time>2026-06-28T08:27:56.000Z</time>
      </trkpt>
      <trkpt lat="42.75732" lon="1.47653">
        <ele>815</ele>
        <time>2026-06-28T08:27:57.000Z</time>
      </trkpt>
      <trkpt lat="42.75729" lon="1.47652">
        <ele>815</ele>
        <time>2026-06-28T08:27:58.000Z</time>
      </trkpt>
      <trkpt lat="42.75726" lon="1.47651">
        <ele>815</ele>
        <time>2026-06-28T08:27:59.000Z</time>
      </trkpt>
      <trkpt lat="42.75724" lon="1.47651">
        <ele>815</ele>
        <time>2026-06-28T08:28:00.000Z</time>
      </trkpt>
      <trkpt lat="42.75721" lon="1.4765">
        <ele>815</ele>
        <time>2026-06-28T08:28:01.000Z</time>
      </trkpt>
      <trkpt lat="42.75719" lon="1.47649">
        <ele>815</ele>
        <time>2026-06-28T08:28:02.000Z</time>
      </trkpt>
      <trkpt lat="42.75716" lon="1.47649">
        <ele>815</ele>
        <time>2026-06-28T08:28:03.000Z</time>
      </trkpt>
      <trkpt lat="42.75713" lon="1.47648">
        <ele>815</ele>
        <time>2026-06-28T08:28:04.000Z</time>
      </trkpt>
      <trkpt lat="42.75711" lon="1.47648">
        <ele>815</ele>
        <time>2026-06-28T08:28:05.000Z</time>
      </trkpt>
      <trkpt lat="42.75708" lon="1.47647">
        <ele>815</ele>
        <time>2026-06-28T08:28:06.000Z</time>
      </trkpt>
      <trkpt lat="42.75705" lon="1.47646">
        <ele>815</ele>
        <time>2026-06-28T08:28:07.000Z</time>
      </trkpt>
      <trkpt lat="42.75703" lon="1.47645">
        <ele>816</ele>
        <time>2026-06-28T08:28:08.000Z</time>
      </trkpt>
      <trkpt lat="42.757" lon="1.47645">
        <ele>816</ele>
        <time>2026-06-28T08:28:09.000Z</time>
      </trkpt>
      <trkpt lat="42.75697" lon="1.47644">
        <ele>816</ele>
        <time>2026-06-28T08:28:10.000Z</time>
      </trkpt>
      <trkpt lat="42.75694" lon="1.47643">
        <ele>817</ele>
        <time>2026-06-28T08:28:11.000Z</time>
      </trkpt>
      <trkpt lat="42.75691" lon="1.47643">
        <ele>817</ele>
        <time>2026-06-28T08:28:12.000Z</time>
      </trkpt>
      <trkpt lat="42.75688" lon="1.47643">
        <ele>818</ele>
        <time>2026-06-28T08:28:13.000Z</time>
      </trkpt>
      <trkpt lat="42.75685" lon="1.47642">
        <ele>818</ele>
        <time>2026-06-28T08:28:14.000Z</time>
      </trkpt>
      <trkpt lat="42.75683" lon="1.47642">
        <ele>819</ele>
        <time>2026-06-28T08:28:15.000Z</time>
      </trkpt>
      <trkpt lat="42.7568" lon="1.47642">
        <ele>819</ele>
        <time>2026-06-28T08:28:16.000Z</time>
      </trkpt>
      <trkpt lat="42.75677" lon="1.47642">
        <ele>820</ele>
        <time>2026-06-28T08:28:17.000Z</time>
      </trkpt>
      <trkpt lat="42.75675" lon="1.47641">
        <ele>821</ele>
        <time>2026-06-28T08:28:18.000Z</time>
      </trkpt>
      <trkpt lat="42.75672" lon="1.47642">
        <ele>821</ele>
        <time>2026-06-28T08:28:19.000Z</time>
      </trkpt>
      <trkpt lat="42.75669" lon="1.47641">
        <ele>822</ele>
        <time>2026-06-28T08:28:20.000Z</time>
      </trkpt>
      <trkpt lat="42.75666" lon="1.4764">
        <ele>822</ele>
        <time>2026-06-28T08:28:21.000Z</time>
      </trkpt>
      <trkpt lat="42.75663" lon="1.47641">
        <ele>823</ele>
        <time>2026-06-28T08:28:22.000Z</time>
      </trkpt>
      <trkpt lat="42.75661" lon="1.4764">
        <ele>823</ele>
        <time>2026-06-28T08:28:23.000Z</time>
      </trkpt>
      <trkpt lat="42.75658" lon="1.4764">
        <ele>823</ele>
        <time>2026-06-28T08:28:24.000Z</time>
      </trkpt>
      <trkpt lat="42.75655" lon="1.4764">
        <ele>824</ele>
        <time>2026-06-28T08:28:25.000Z</time>
      </trkpt>
      <trkpt lat="42.75652" lon="1.4764">
        <ele>824</ele>
        <time>2026-06-28T08:28:26.000Z</time>
      </trkpt>
      <trkpt lat="42.75649" lon="1.47639">
        <ele>824</ele>
        <time>2026-06-28T08:28:27.000Z</time>
      </trkpt>
      <trkpt lat="42.75646" lon="1.4764">
        <ele>825</ele>
        <time>2026-06-28T08:28:28.000Z</time>
      </trkpt>
      <trkpt lat="42.75644" lon="1.47641">
        <ele>825</ele>
        <time>2026-06-28T08:28:29.000Z</time>
      </trkpt>
      <trkpt lat="42.7564" lon="1.47641">
        <ele>825</ele>
        <time>2026-06-28T08:28:30.000Z</time>
      </trkpt>
      <trkpt lat="42.75638" lon="1.47641">
        <ele>825</ele>
        <time>2026-06-28T08:28:31.000Z</time>
      </trkpt>
      <trkpt lat="42.75634" lon="1.47642">
        <ele>825</ele>
        <time>2026-06-28T08:28:32.000Z</time>
      </trkpt>
      <trkpt lat="42.75632" lon="1.47642">
        <ele>825</ele>
        <time>2026-06-28T08:28:33.000Z</time>
      </trkpt>
      <trkpt lat="42.75629" lon="1.47642">
        <ele>825</ele>
        <time>2026-06-28T08:28:34.000Z</time>
      </trkpt>
      <trkpt lat="42.75626" lon="1.47642">
        <ele>825</ele>
        <time>2026-06-28T08:28:35.000Z</time>
      </trkpt>
      <trkpt lat="42.75624" lon="1.47642">
        <ele>825</ele>
        <time>2026-06-28T08:28:36.000Z</time>
      </trkpt>
      <trkpt lat="42.75621" lon="1.47643">
        <ele>825</ele>
        <time>2026-06-28T08:28:37.000Z</time>
      </trkpt>
      <trkpt lat="42.75618" lon="1.47643">
        <ele>825</ele>
        <time>2026-06-28T08:28:38.000Z</time>
      </trkpt>
      <trkpt lat="42.75615" lon="1.47643">
        <ele>825</ele>
        <time>2026-06-28T08:28:39.000Z</time>
      </trkpt>
      <trkpt lat="42.75612" lon="1.47644">
        <ele>825</ele>
        <time>2026-06-28T08:28:40.000Z</time>
      </trkpt>
      <trkpt lat="42.75609" lon="1.47645">
        <ele>825</ele>
        <time>2026-06-28T08:28:41.000Z</time>
      </trkpt>
      <trkpt lat="42.75607" lon="1.47645">
        <ele>825</ele>
        <time>2026-06-28T08:28:42.000Z</time>
      </trkpt>
      <trkpt lat="42.75605" lon="1.47645">
        <ele>825</ele>
        <time>2026-06-28T08:28:43.000Z</time>
      </trkpt>
      <trkpt lat="42.75602" lon="1.47646">
        <ele>825</ele>
        <time>2026-06-28T08:28:44.000Z</time>
      </trkpt>
      <trkpt lat="42.75599" lon="1.47646">
        <ele>825</ele>
        <time>2026-06-28T08:28:45.000Z</time>
      </trkpt>
      <trkpt lat="42.75597" lon="1.47646">
        <ele>825</ele>
        <time>2026-06-28T08:28:46.000Z</time>
      </trkpt>
      <trkpt lat="42.75594" lon="1.47646">
        <ele>825</ele>
        <time>2026-06-28T08:28:47.000Z</time>
      </trkpt>
      <trkpt lat="42.75592" lon="1.47647">
        <ele>825</ele>
        <time>2026-06-28T08:28:48.000Z</time>
      </trkpt>
      <trkpt lat="42.7559" lon="1.47647">
        <ele>825</ele>
        <time>2026-06-28T08:28:49.000Z</time>
      </trkpt>
      <trkpt lat="42.75587" lon="1.47647">
        <ele>825</ele>
        <time>2026-06-28T08:28:50.000Z</time>
      </trkpt>
      <trkpt lat="42.75584" lon="1.47647">
        <ele>825</ele>
        <time>2026-06-28T08:28:51.000Z</time>
      </trkpt>
      <trkpt lat="42.7558" lon="1.47646">
        <ele>826</ele>
        <time>2026-06-28T08:28:52.000Z</time>
      </trkpt>
      <trkpt lat="42.75578" lon="1.47646">
        <ele>826</ele>
        <time>2026-06-28T08:28:53.000Z</time>
      </trkpt>
      <trkpt lat="42.75575" lon="1.47646">
        <ele>826</ele>
        <time>2026-06-28T08:28:54.000Z</time>
      </trkpt>
      <trkpt lat="42.75572" lon="1.47645">
        <ele>826</ele>
        <time>2026-06-28T08:28:55.000Z</time>
      </trkpt>
      <trkpt lat="42.75569" lon="1.47645">
        <ele>826</ele>
        <time>2026-06-28T08:28:56.000Z</time>
      </trkpt>
      <trkpt lat="42.75567" lon="1.47645">
        <ele>826</ele>
        <time>2026-06-28T08:28:57.000Z</time>
      </trkpt>
      <trkpt lat="42.75565" lon="1.47644">
        <ele>827</ele>
        <time>2026-06-28T08:28:58.000Z</time>
      </trkpt>
      <trkpt lat="42.75562" lon="1.47643">
        <ele>826</ele>
        <time>2026-06-28T08:28:59.000Z</time>
      </trkpt>
      <trkpt lat="42.7556" lon="1.47643">
        <ele>826</ele>
        <time>2026-06-28T08:29:00.000Z</time>
      </trkpt>
      <trkpt lat="42.75557" lon="1.47643">
        <ele>826</ele>
        <time>2026-06-28T08:29:01.000Z</time>
      </trkpt>
      <trkpt lat="42.75554" lon="1.47641">
        <ele>826</ele>
        <time>2026-06-28T08:29:02.000Z</time>
      </trkpt>
      <trkpt lat="42.75552" lon="1.4764">
        <ele>825</ele>
        <time>2026-06-28T08:29:03.000Z</time>
      </trkpt>
      <trkpt lat="42.75549" lon="1.4764">
        <ele>825</ele>
        <time>2026-06-28T08:29:04.000Z</time>
      </trkpt>
      <trkpt lat="42.75547" lon="1.47638">
        <ele>825</ele>
        <time>2026-06-28T08:29:05.000Z</time>
      </trkpt>
      <trkpt lat="42.75545" lon="1.47636">
        <ele>825</ele>
        <time>2026-06-28T08:29:06.000Z</time>
      </trkpt>
      <trkpt lat="42.75543" lon="1.47635">
        <ele>825</ele>
        <time>2026-06-28T08:29:07.000Z</time>
      </trkpt>
      <trkpt lat="42.7554" lon="1.47634">
        <ele>825</ele>
        <time>2026-06-28T08:29:08.000Z</time>
      </trkpt>
      <trkpt lat="42.75537" lon="1.47632">
        <ele>826</ele>
        <time>2026-06-28T08:29:09.000Z</time>
      </trkpt>
      <trkpt lat="42.75535" lon="1.47631">
        <ele>825</ele>
        <time>2026-06-28T08:29:10.000Z</time>
      </trkpt>
      <trkpt lat="42.75533" lon="1.47629">
        <ele>826</ele>
        <time>2026-06-28T08:29:11.000Z</time>
      </trkpt>
      <trkpt lat="42.7553" lon="1.47627">
        <ele>826</ele>
        <time>2026-06-28T08:29:12.000Z</time>
      </trkpt>
      <trkpt lat="42.75528" lon="1.47625">
        <ele>826</ele>
        <time>2026-06-28T08:29:13.000Z</time>
      </trkpt>
      <trkpt lat="42.75526" lon="1.47624">
        <ele>826</ele>
        <time>2026-06-28T08:29:14.000Z</time>
      </trkpt>
      <trkpt lat="42.75524" lon="1.47622">
        <ele>827</ele>
        <time>2026-06-28T08:29:15.000Z</time>
      </trkpt>
      <trkpt lat="42.75521" lon="1.4762">
        <ele>827</ele>
        <time>2026-06-28T08:29:16.000Z</time>
      </trkpt>
      <trkpt lat="42.75518" lon="1.47618">
        <ele>827</ele>
        <time>2026-06-28T08:29:17.000Z</time>
      </trkpt>
      <trkpt lat="42.75516" lon="1.47615">
        <ele>828</ele>
        <time>2026-06-28T08:29:18.000Z</time>
      </trkpt>
      <trkpt lat="42.75513" lon="1.47614">
        <ele>829</ele>
        <time>2026-06-28T08:29:19.000Z</time>
      </trkpt>
      <trkpt lat="42.75511" lon="1.47612">
        <ele>830</ele>
        <time>2026-06-28T08:29:20.000Z</time>
      </trkpt>
      <trkpt lat="42.75508" lon="1.4761">
        <ele>830</ele>
        <time>2026-06-28T08:29:21.000Z</time>
      </trkpt>
      <trkpt lat="42.75505" lon="1.47608">
        <ele>831</ele>
        <time>2026-06-28T08:29:22.000Z</time>
      </trkpt>
      <trkpt lat="42.75503" lon="1.47606">
        <ele>831</ele>
        <time>2026-06-28T08:29:23.000Z</time>
      </trkpt>
      <trkpt lat="42.75501" lon="1.47605">
        <ele>831</ele>
        <time>2026-06-28T08:29:24.000Z</time>
      </trkpt>
      <trkpt lat="42.75499" lon="1.47603">
        <ele>832</ele>
        <time>2026-06-28T08:29:25.000Z</time>
      </trkpt>
      <trkpt lat="42.75496" lon="1.47601">
        <ele>832</ele>
        <time>2026-06-28T08:29:26.000Z</time>
      </trkpt>
      <trkpt lat="42.75494" lon="1.47599">
        <ele>833</ele>
        <time>2026-06-28T08:29:27.000Z</time>
      </trkpt>
      <trkpt lat="42.75491" lon="1.47597">
        <ele>833</ele>
        <time>2026-06-28T08:29:28.000Z</time>
      </trkpt>
      <trkpt lat="42.75488" lon="1.47596">
        <ele>833</ele>
        <time>2026-06-28T08:29:29.000Z</time>
      </trkpt>
      <trkpt lat="42.75485" lon="1.47595">
        <ele>833</ele>
        <time>2026-06-28T08:29:30.000Z</time>
      </trkpt>
      <trkpt lat="42.75482" lon="1.47593">
        <ele>833</ele>
        <time>2026-06-28T08:29:31.000Z</time>
      </trkpt>
      <trkpt lat="42.75479" lon="1.47592">
        <ele>833</ele>
        <time>2026-06-28T08:29:32.000Z</time>
      </trkpt>
      <trkpt lat="42.75476" lon="1.4759">
        <ele>833</ele>
        <time>2026-06-28T08:29:33.000Z</time>
      </trkpt>
      <trkpt lat="42.75473" lon="1.47589">
        <ele>833</ele>
        <time>2026-06-28T08:29:34.000Z</time>
      </trkpt>
      <trkpt lat="42.7547" lon="1.47587">
        <ele>833</ele>
        <time>2026-06-28T08:29:35.000Z</time>
      </trkpt>
      <trkpt lat="42.75468" lon="1.47585">
        <ele>834</ele>
        <time>2026-06-28T08:29:36.000Z</time>
      </trkpt>
      <trkpt lat="42.75466" lon="1.47583">
        <ele>833</ele>
        <time>2026-06-28T08:29:37.000Z</time>
      </trkpt>
      <trkpt lat="42.75463" lon="1.47581">
        <ele>833</ele>
        <time>2026-06-28T08:29:38.000Z</time>
      </trkpt>
      <trkpt lat="42.75461" lon="1.47579">
        <ele>834</ele>
        <time>2026-06-28T08:29:39.000Z</time>
      </trkpt>
      <trkpt lat="42.75459" lon="1.47576">
        <ele>834</ele>
        <time>2026-06-28T08:29:40.000Z</time>
      </trkpt>
      <trkpt lat="42.75457" lon="1.47574">
        <ele>834</ele>
        <time>2026-06-28T08:29:41.000Z</time>
      </trkpt>
      <trkpt lat="42.75455" lon="1.47572">
        <ele>835</ele>
        <time>2026-06-28T08:29:42.000Z</time>
      </trkpt>
      <trkpt lat="42.75452" lon="1.4757">
        <ele>835</ele>
        <time>2026-06-28T08:29:43.000Z</time>
      </trkpt>
      <trkpt lat="42.7545" lon="1.47568">
        <ele>836</ele>
        <time>2026-06-28T08:29:44.000Z</time>
      </trkpt>
      <trkpt lat="42.75447" lon="1.47566">
        <ele>836</ele>
        <time>2026-06-28T08:29:45.000Z</time>
      </trkpt>
      <trkpt lat="42.75446" lon="1.47564">
        <ele>836</ele>
        <time>2026-06-28T08:29:46.000Z</time>
      </trkpt>
      <trkpt lat="42.75443" lon="1.47562">
        <ele>837</ele>
        <time>2026-06-28T08:29:47.000Z</time>
      </trkpt>
      <trkpt lat="42.75441" lon="1.4756">
        <ele>837</ele>
        <time>2026-06-28T08:29:48.000Z</time>
      </trkpt>
      <trkpt lat="42.75438" lon="1.47557">
        <ele>836</ele>
        <time>2026-06-28T08:29:49.000Z</time>
      </trkpt>
      <trkpt lat="42.75436" lon="1.47555">
        <ele>837</ele>
        <time>2026-06-28T08:29:50.000Z</time>
      </trkpt>
      <trkpt lat="42.75433" lon="1.47552">
        <ele>837</ele>
        <time>2026-06-28T08:29:51.000Z</time>
      </trkpt>
      <trkpt lat="42.75431" lon="1.4755">
        <ele>838</ele>
        <time>2026-06-28T08:29:52.000Z</time>
      </trkpt>
      <trkpt lat="42.75429" lon="1.47547">
        <ele>838</ele>
        <time>2026-06-28T08:29:53.000Z</time>
      </trkpt>
      <trkpt lat="42.75426" lon="1.47545">
        <ele>838</ele>
        <time>2026-06-28T08:29:54.000Z</time>
      </trkpt>
      <trkpt lat="42.75424" lon="1.47542">
        <ele>838</ele>
        <time>2026-06-28T08:29:55.000Z</time>
      </trkpt>
      <trkpt lat="42.75421" lon="1.4754">
        <ele>838</ele>
        <time>2026-06-28T08:29:56.000Z</time>
      </trkpt>
      <trkpt lat="42.75418" lon="1.47538">
        <ele>838</ele>
        <time>2026-06-28T08:29:57.000Z</time>
      </trkpt>
      <trkpt lat="42.75415" lon="1.47536">
        <ele>838</ele>
        <time>2026-06-28T08:29:58.000Z</time>
      </trkpt>
      <trkpt lat="42.75412" lon="1.47534">
        <ele>838</ele>
        <time>2026-06-28T08:29:59.000Z</time>
      </trkpt>
      <trkpt lat="42.75409" lon="1.47532">
        <ele>838</ele>
        <time>2026-06-28T08:30:00.000Z</time>
      </trkpt>
      <trkpt lat="42.75406" lon="1.47529">
        <ele>838</ele>
        <time>2026-06-28T08:30:01.000Z</time>
      </trkpt>
      <trkpt lat="42.75404" lon="1.47526">
        <ele>839</ele>
        <time>2026-06-28T08:30:02.000Z</time>
      </trkpt>
      <trkpt lat="42.75402" lon="1.47524">
        <ele>839</ele>
        <time>2026-06-28T08:30:03.000Z</time>
      </trkpt>
      <trkpt lat="42.75399" lon="1.47521">
        <ele>840</ele>
        <time>2026-06-28T08:30:04.000Z</time>
      </trkpt>
      <trkpt lat="42.75396" lon="1.47519">
        <ele>840</ele>
        <time>2026-06-28T08:30:05.000Z</time>
      </trkpt>
      <trkpt lat="42.75394" lon="1.47516">
        <ele>841</ele>
        <time>2026-06-28T08:30:06.000Z</time>
      </trkpt>
      <trkpt lat="42.75391" lon="1.47514">
        <ele>840</ele>
        <time>2026-06-28T08:30:07.000Z</time>
      </trkpt>
      <trkpt lat="42.75388" lon="1.47512">
        <ele>840</ele>
        <time>2026-06-28T08:30:08.000Z</time>
      </trkpt>
      <trkpt lat="42.75385" lon="1.47509">
        <ele>840</ele>
        <time>2026-06-28T08:30:09.000Z</time>
      </trkpt>
      <trkpt lat="42.75383" lon="1.47507">
        <ele>840</ele>
        <time>2026-06-28T08:30:10.000Z</time>
      </trkpt>
      <trkpt lat="42.7538" lon="1.47504">
        <ele>840</ele>
        <time>2026-06-28T08:30:11.000Z</time>
      </trkpt>
      <trkpt lat="42.75378" lon="1.47502">
        <ele>839</ele>
        <time>2026-06-28T08:30:12.000Z</time>
      </trkpt>
      <trkpt lat="42.75375" lon="1.475">
        <ele>839</ele>
        <time>2026-06-28T08:30:13.000Z</time>
      </trkpt>
      <trkpt lat="42.75372" lon="1.47497">
        <ele>839</ele>
        <time>2026-06-28T08:30:14.000Z</time>
      </trkpt>
      <trkpt lat="42.7537" lon="1.47494">
        <ele>840</ele>
        <time>2026-06-28T08:30:15.000Z</time>
      </trkpt>
      <trkpt lat="42.75367" lon="1.47492">
        <ele>841</ele>
        <time>2026-06-28T08:30:16.000Z</time>
      </trkpt>
      <trkpt lat="42.75365" lon="1.4749">
        <ele>840</ele>
        <time>2026-06-28T08:30:17.000Z</time>
      </trkpt>
      <trkpt lat="42.75362" lon="1.47488">
        <ele>840</ele>
        <time>2026-06-28T08:30:18.000Z</time>
      </trkpt>
      <trkpt lat="42.7536" lon="1.47485">
        <ele>840</ele>
        <time>2026-06-28T08:30:19.000Z</time>
      </trkpt>
      <trkpt lat="42.75357" lon="1.47483">
        <ele>840</ele>
        <time>2026-06-28T08:30:20.000Z</time>
      </trkpt>
      <trkpt lat="42.75355" lon="1.4748">
        <ele>840</ele>
        <time>2026-06-28T08:30:21.000Z</time>
      </trkpt>
      <trkpt lat="42.75352" lon="1.47479">
        <ele>839</ele>
        <time>2026-06-28T08:30:22.000Z</time>
      </trkpt>
      <trkpt lat="42.7535" lon="1.47476">
        <ele>840</ele>
        <time>2026-06-28T08:30:23.000Z</time>
      </trkpt>
      <trkpt lat="42.75347" lon="1.47474">
        <ele>840</ele>
        <time>2026-06-28T08:30:24.000Z</time>
      </trkpt>
      <trkpt lat="42.75344" lon="1.47471">
        <ele>840</ele>
        <time>2026-06-28T08:30:25.000Z</time>
      </trkpt>
      <trkpt lat="42.75342" lon="1.47469">
        <ele>840</ele>
        <time>2026-06-28T08:30:26.000Z</time>
      </trkpt>
      <trkpt lat="42.75338" lon="1.47466">
        <ele>840</ele>
        <time>2026-06-28T08:30:27.000Z</time>
      </trkpt>
      <trkpt lat="42.75335" lon="1.47464">
        <ele>840</ele>
        <time>2026-06-28T08:30:28.000Z</time>
      </trkpt>
      <trkpt lat="42.75332" lon="1.47462">
        <ele>840</ele>
        <time>2026-06-28T08:30:29.000Z</time>
      </trkpt>
      <trkpt lat="42.75328" lon="1.4746">
        <ele>840</ele>
        <time>2026-06-28T08:30:30.000Z</time>
      </trkpt>
      <trkpt lat="42.75326" lon="1.47458">
        <ele>840</ele>
        <time>2026-06-28T08:30:31.000Z</time>
      </trkpt>
      <trkpt lat="42.75323" lon="1.47457">
        <ele>841</ele>
        <time>2026-06-28T08:30:32.000Z</time>
      </trkpt>
      <trkpt lat="42.7532" lon="1.47455">
        <ele>841</ele>
        <time>2026-06-28T08:30:33.000Z</time>
      </trkpt>
      <trkpt lat="42.75317" lon="1.47455">
        <ele>841</ele>
        <time>2026-06-28T08:30:34.000Z</time>
      </trkpt>
      <trkpt lat="42.75313" lon="1.47453">
        <ele>842</ele>
        <time>2026-06-28T08:30:35.000Z</time>
      </trkpt>
      <trkpt lat="42.7531" lon="1.47452">
        <ele>842</ele>
        <time>2026-06-28T08:30:36.000Z</time>
      </trkpt>
      <trkpt lat="42.75307" lon="1.47451">
        <ele>842</ele>
        <time>2026-06-28T08:30:37.000Z</time>
      </trkpt>
      <trkpt lat="42.75304" lon="1.4745">
        <ele>843</ele>
        <time>2026-06-28T08:30:38.000Z</time>
      </trkpt>
      <trkpt lat="42.753" lon="1.4745">
        <ele>843</ele>
        <time>2026-06-28T08:30:39.000Z</time>
      </trkpt>
      <trkpt lat="42.75296" lon="1.4745">
        <ele>843</ele>
        <time>2026-06-28T08:30:40.000Z</time>
      </trkpt>
      <trkpt lat="42.75292" lon="1.47449">
        <ele>843</ele>
        <time>2026-06-28T08:30:41.000Z</time>
      </trkpt>
      <trkpt lat="42.75289" lon="1.47449">
        <ele>843</ele>
        <time>2026-06-28T08:30:42.000Z</time>
      </trkpt>
      <trkpt lat="42.75286" lon="1.47448">
        <ele>843</ele>
        <time>2026-06-28T08:30:43.000Z</time>
      </trkpt>
      <trkpt lat="42.75282" lon="1.47448">
        <ele>843</ele>
        <time>2026-06-28T08:30:44.000Z</time>
      </trkpt>
      <trkpt lat="42.75279" lon="1.47447">
        <ele>843</ele>
        <time>2026-06-28T08:30:45.000Z</time>
      </trkpt>
      <trkpt lat="42.75277" lon="1.47446">
        <ele>844</ele>
        <time>2026-06-28T08:30:46.000Z</time>
      </trkpt>
      <trkpt lat="42.75274" lon="1.47446">
        <ele>844</ele>
        <time>2026-06-28T08:30:47.000Z</time>
      </trkpt>
      <trkpt lat="42.7527" lon="1.47446">
        <ele>843</ele>
        <time>2026-06-28T08:30:48.000Z</time>
      </trkpt>
      <trkpt lat="42.75267" lon="1.47445">
        <ele>843</ele>
        <time>2026-06-28T08:30:49.000Z</time>
      </trkpt>
      <trkpt lat="42.75263" lon="1.47445">
        <ele>844</ele>
        <time>2026-06-28T08:30:50.000Z</time>
      </trkpt>
      <trkpt lat="42.75261" lon="1.47445">
        <ele>843</ele>
        <time>2026-06-28T08:30:51.000Z</time>
      </trkpt>
      <trkpt lat="42.75258" lon="1.47445">
        <ele>844</ele>
        <time>2026-06-28T08:30:52.000Z</time>
      </trkpt>
      <trkpt lat="42.75255" lon="1.47446">
        <ele>843</ele>
        <time>2026-06-28T08:30:53.000Z</time>
      </trkpt>
      <trkpt lat="42.75252" lon="1.47446">
        <ele>842</ele>
        <time>2026-06-28T08:30:54.000Z</time>
      </trkpt>
      <trkpt lat="42.75249" lon="1.47447">
        <ele>842</ele>
        <time>2026-06-28T08:30:55.000Z</time>
      </trkpt>
      <trkpt lat="42.75246" lon="1.47448">
        <ele>842</ele>
        <time>2026-06-28T08:30:56.000Z</time>
      </trkpt>
      <trkpt lat="42.75243" lon="1.47448">
        <ele>842</ele>
        <time>2026-06-28T08:30:57.000Z</time>
      </trkpt>
      <trkpt lat="42.75241" lon="1.47449">
        <ele>842</ele>
        <time>2026-06-28T08:30:58.000Z</time>
      </trkpt>
      <trkpt lat="42.75238" lon="1.47449">
        <ele>842</ele>
        <time>2026-06-28T08:30:59.000Z</time>
      </trkpt>
      <trkpt lat="42.75234" lon="1.4745">
        <ele>842</ele>
        <time>2026-06-28T08:31:00.000Z</time>
      </trkpt>
      <trkpt lat="42.75232" lon="1.47451">
        <ele>842</ele>
        <time>2026-06-28T08:31:01.000Z</time>
      </trkpt>
      <trkpt lat="42.75229" lon="1.47452">
        <ele>841</ele>
        <time>2026-06-28T08:31:02.000Z</time>
      </trkpt>
      <trkpt lat="42.75225" lon="1.47452">
        <ele>842</ele>
        <time>2026-06-28T08:31:03.000Z</time>
      </trkpt>
      <trkpt lat="42.75222" lon="1.47453">
        <ele>841</ele>
        <time>2026-06-28T08:31:04.000Z</time>
      </trkpt>
      <trkpt lat="42.75219" lon="1.47453">
        <ele>842</ele>
        <time>2026-06-28T08:31:05.000Z</time>
      </trkpt>
      <trkpt lat="42.75217" lon="1.47453">
        <ele>842</ele>
        <time>2026-06-28T08:31:06.000Z</time>
      </trkpt>
      <trkpt lat="42.75214" lon="1.47453">
        <ele>841</ele>
        <time>2026-06-28T08:31:07.000Z</time>
      </trkpt>
      <trkpt lat="42.75213" lon="1.47452">
        <ele>841</ele>
        <time>2026-06-28T08:31:08.000Z</time>
      </trkpt>
      <trkpt lat="42.75211" lon="1.47452">
        <ele>841</ele>
        <time>2026-06-28T08:31:09.000Z</time>
      </trkpt>
      <trkpt lat="42.75209" lon="1.47451">
        <ele>841</ele>
        <time>2026-06-28T08:31:10.000Z</time>
      </trkpt>
      <trkpt lat="42.75206" lon="1.47451">
        <ele>841</ele>
        <time>2026-06-28T08:31:11.000Z</time>
      </trkpt>
      <trkpt lat="42.75203" lon="1.47451">
        <ele>841</ele>
        <time>2026-06-28T08:31:12.000Z</time>
      </trkpt>
      <trkpt lat="42.75201" lon="1.47451">
        <ele>841</ele>
        <time>2026-06-28T08:31:13.000Z</time>
      </trkpt>
      <trkpt lat="42.75198" lon="1.4745">
        <ele>842</ele>
        <time>2026-06-28T08:31:14.000Z</time>
      </trkpt>
      <trkpt lat="42.75195" lon="1.4745">
        <ele>842</ele>
        <time>2026-06-28T08:31:15.000Z</time>
      </trkpt>
      <trkpt lat="42.75191" lon="1.47449">
        <ele>842</ele>
        <time>2026-06-28T08:31:16.000Z</time>
      </trkpt>
      <trkpt lat="42.75188" lon="1.47449">
        <ele>842</ele>
        <time>2026-06-28T08:31:17.000Z</time>
      </trkpt>
      <trkpt lat="42.75184" lon="1.47448">
        <ele>842</ele>
        <time>2026-06-28T08:31:18.000Z</time>
      </trkpt>
      <trkpt lat="42.75181" lon="1.47447">
        <ele>841</ele>
        <time>2026-06-28T08:31:19.000Z</time>
      </trkpt>
      <trkpt lat="42.75178" lon="1.47447">
        <ele>842</ele>
        <time>2026-06-28T08:31:20.000Z</time>
      </trkpt>
      <trkpt lat="42.75175" lon="1.47446">
        <ele>841</ele>
        <time>2026-06-28T08:31:21.000Z</time>
      </trkpt>
      <trkpt lat="42.75172" lon="1.47445">
        <ele>841</ele>
        <time>2026-06-28T08:31:22.000Z</time>
      </trkpt>
      <trkpt lat="42.75169" lon="1.47444">
        <ele>841</ele>
        <time>2026-06-28T08:31:23.000Z</time>
      </trkpt>
      <trkpt lat="42.75166" lon="1.47444">
        <ele>840</ele>
        <time>2026-06-28T08:31:24.000Z</time>
      </trkpt>
      <trkpt lat="42.75164" lon="1.47444">
        <ele>840</ele>
        <time>2026-06-28T08:31:25.000Z</time>
      </trkpt>
      <trkpt lat="42.75161" lon="1.47443">
        <ele>840</ele>
        <time>2026-06-28T08:31:26.000Z</time>
      </trkpt>
      <trkpt lat="42.75158" lon="1.47443">
        <ele>839</ele>
        <time>2026-06-28T08:31:27.000Z</time>
      </trkpt>
      <trkpt lat="42.75156" lon="1.47443">
        <ele>839</ele>
        <time>2026-06-28T08:31:28.000Z</time>
      </trkpt>
      <trkpt lat="42.75153" lon="1.47443">
        <ele>840</ele>
        <time>2026-06-28T08:31:29.000Z</time>
      </trkpt>
      <trkpt lat="42.75151" lon="1.47442">
        <ele>841</ele>
        <time>2026-06-28T08:31:30.000Z</time>
      </trkpt>
      <trkpt lat="42.7515" lon="1.47442">
        <ele>841</ele>
        <time>2026-06-28T08:31:31.000Z</time>
      </trkpt>
      <trkpt lat="42.75148" lon="1.47442">
        <ele>841</ele>
        <time>2026-06-28T08:31:32.000Z</time>
      </trkpt>
      <trkpt lat="42.75145" lon="1.47442">
        <ele>841</ele>
        <time>2026-06-28T08:31:33.000Z</time>
      </trkpt>
      <trkpt lat="42.75143" lon="1.47441">
        <ele>840</ele>
        <time>2026-06-28T08:31:34.000Z</time>
      </trkpt>
      <trkpt lat="42.7514" lon="1.4744">
        <ele>840</ele>
        <time>2026-06-28T08:31:35.000Z</time>
      </trkpt>
      <trkpt lat="42.75137" lon="1.4744">
        <ele>840</ele>
        <time>2026-06-28T08:31:36.000Z</time>
      </trkpt>
      <trkpt lat="42.75134" lon="1.4744">
        <ele>840</ele>
        <time>2026-06-28T08:31:37.000Z</time>
      </trkpt>
      <trkpt lat="42.75131" lon="1.4744">
        <ele>841</ele>
        <time>2026-06-28T08:31:38.000Z</time>
      </trkpt>
      <trkpt lat="42.75128" lon="1.47439">
        <ele>841</ele>
        <time>2026-06-28T08:31:39.000Z</time>
      </trkpt>
      <trkpt lat="42.75124" lon="1.47439">
        <ele>841</ele>
        <time>2026-06-28T08:31:40.000Z</time>
      </trkpt>
      <trkpt lat="42.7512" lon="1.47438">
        <ele>840</ele>
        <time>2026-06-28T08:31:41.000Z</time>
      </trkpt>
      <trkpt lat="42.75115" lon="1.47437">
        <ele>839</ele>
        <time>2026-06-28T08:31:42.000Z</time>
      </trkpt>
      <trkpt lat="42.75111" lon="1.47436">
        <ele>839</ele>
        <time>2026-06-28T08:31:43.000Z</time>
      </trkpt>
      <trkpt lat="42.75107" lon="1.47435">
        <ele>839</ele>
        <time>2026-06-28T08:31:44.000Z</time>
      </trkpt>
      <trkpt lat="42.75103" lon="1.47435">
        <ele>839</ele>
        <time>2026-06-28T08:31:45.000Z</time>
      </trkpt>
      <trkpt lat="42.75099" lon="1.47434">
        <ele>839</ele>
        <time>2026-06-28T08:31:46.000Z</time>
      </trkpt>
      <trkpt lat="42.75095" lon="1.47434">
        <ele>840</ele>
        <time>2026-06-28T08:31:47.000Z</time>
      </trkpt>
      <trkpt lat="42.75091" lon="1.47434">
        <ele>840</ele>
        <time>2026-06-28T08:31:48.000Z</time>
      </trkpt>
      <trkpt lat="42.75087" lon="1.47433">
        <ele>840</ele>
        <time>2026-06-28T08:31:49.000Z</time>
      </trkpt>
      <trkpt lat="42.75083" lon="1.47433">
        <ele>840</ele>
        <time>2026-06-28T08:31:50.000Z</time>
      </trkpt>
      <trkpt lat="42.75079" lon="1.47432">
        <ele>841</ele>
        <time>2026-06-28T08:31:51.000Z</time>
      </trkpt>
      <trkpt lat="42.75076" lon="1.47431">
        <ele>841</ele>
        <time>2026-06-28T08:31:52.000Z</time>
      </trkpt>
      <trkpt lat="42.75072" lon="1.47429">
        <ele>841</ele>
        <time>2026-06-28T08:31:53.000Z</time>
      </trkpt>
      <trkpt lat="42.75068" lon="1.47427">
        <ele>840</ele>
        <time>2026-06-28T08:31:54.000Z</time>
      </trkpt>
      <trkpt lat="42.75064" lon="1.47426">
        <ele>840</ele>
        <time>2026-06-28T08:31:55.000Z</time>
      </trkpt>
      <trkpt lat="42.7506" lon="1.47426">
        <ele>840</ele>
        <time>2026-06-28T08:31:56.000Z</time>
      </trkpt>
      <trkpt lat="42.75055" lon="1.47425">
        <ele>841</ele>
        <time>2026-06-28T08:31:57.000Z</time>
      </trkpt>
      <trkpt lat="42.75051" lon="1.47424">
        <ele>840</ele>
        <time>2026-06-28T08:31:58.000Z</time>
      </trkpt>
      <trkpt lat="42.75046" lon="1.47423">
        <ele>841</ele>
        <time>2026-06-28T08:31:59.000Z</time>
      </trkpt>
      <trkpt lat="42.75042" lon="1.47421">
        <ele>841</ele>
        <time>2026-06-28T08:32:00.000Z</time>
      </trkpt>
      <trkpt lat="42.75037" lon="1.47419">
        <ele>841</ele>
        <time>2026-06-28T08:32:01.000Z</time>
      </trkpt>
      <trkpt lat="42.75033" lon="1.47418">
        <ele>842</ele>
        <time>2026-06-28T08:32:02.000Z</time>
      </trkpt>
      <trkpt lat="42.75029" lon="1.47416">
        <ele>842</ele>
        <time>2026-06-28T08:32:03.000Z</time>
      </trkpt>
      <trkpt lat="42.75026" lon="1.47414">
        <ele>843</ele>
        <time>2026-06-28T08:32:04.000Z</time>
      </trkpt>
      <trkpt lat="42.75021" lon="1.47413">
        <ele>842</ele>
        <time>2026-06-28T08:32:05.000Z</time>
      </trkpt>
      <trkpt lat="42.75016" lon="1.47411">
        <ele>843</ele>
        <time>2026-06-28T08:32:06.000Z</time>
      </trkpt>
      <trkpt lat="42.75012" lon="1.47409">
        <ele>844</ele>
        <time>2026-06-28T08:32:07.000Z</time>
      </trkpt>
      <trkpt lat="42.75008" lon="1.47406">
        <ele>844</ele>
        <time>2026-06-28T08:32:08.000Z</time>
      </trkpt>
      <trkpt lat="42.75005" lon="1.47405">
        <ele>844</ele>
        <time>2026-06-28T08:32:09.000Z</time>
      </trkpt>
      <trkpt lat="42.75002" lon="1.47403">
        <ele>844</ele>
        <time>2026-06-28T08:32:10.000Z</time>
      </trkpt>
      <trkpt lat="42.75" lon="1.47402">
        <ele>844</ele>
        <time>2026-06-28T08:32:11.000Z</time>
      </trkpt>
      <trkpt lat="42.74997" lon="1.47401">
        <ele>844</ele>
        <time>2026-06-28T08:32:12.000Z</time>
      </trkpt>
      <trkpt lat="42.74994" lon="1.474">
        <ele>844</ele>
        <time>2026-06-28T08:32:13.000Z</time>
      </trkpt>
      <trkpt lat="42.7499" lon="1.47398">
        <ele>844</ele>
        <time>2026-06-28T08:32:14.000Z</time>
      </trkpt>
      <trkpt lat="42.74987" lon="1.47396">
        <ele>844</ele>
        <time>2026-06-28T08:32:15.000Z</time>
      </trkpt>
      <trkpt lat="42.74984" lon="1.47394">
        <ele>844</ele>
        <time>2026-06-28T08:32:16.000Z</time>
      </trkpt>
      <trkpt lat="42.74982" lon="1.47392">
        <ele>844</ele>
        <time>2026-06-28T08:32:17.000Z</time>
      </trkpt>
      <trkpt lat="42.74979" lon="1.47391">
        <ele>844</ele>
        <time>2026-06-28T08:32:18.000Z</time>
      </trkpt>
      <trkpt lat="42.74976" lon="1.47389">
        <ele>844</ele>
        <time>2026-06-28T08:32:19.000Z</time>
      </trkpt>
      <trkpt lat="42.74973" lon="1.47387">
        <ele>844</ele>
        <time>2026-06-28T08:32:20.000Z</time>
      </trkpt>
      <trkpt lat="42.7497" lon="1.47386">
        <ele>844</ele>
        <time>2026-06-28T08:32:21.000Z</time>
      </trkpt>
      <trkpt lat="42.74968" lon="1.47384">
        <ele>844</ele>
        <time>2026-06-28T08:32:22.000Z</time>
      </trkpt>
      <trkpt lat="42.74965" lon="1.47383">
        <ele>844</ele>
        <time>2026-06-28T08:32:23.000Z</time>
      </trkpt>
      <trkpt lat="42.74963" lon="1.47382">
        <ele>845</ele>
        <time>2026-06-28T08:32:24.000Z</time>
      </trkpt>
      <trkpt lat="42.74961" lon="1.4738">
        <ele>845</ele>
        <time>2026-06-28T08:32:25.000Z</time>
      </trkpt>
      <trkpt lat="42.74958" lon="1.47379">
        <ele>845</ele>
        <time>2026-06-28T08:32:26.000Z</time>
      </trkpt>
      <trkpt lat="42.74956" lon="1.47377">
        <ele>845</ele>
        <time>2026-06-28T08:32:27.000Z</time>
      </trkpt>
      <trkpt lat="42.74953" lon="1.47376">
        <ele>845</ele>
        <time>2026-06-28T08:32:28.000Z</time>
      </trkpt>
      <trkpt lat="42.74951" lon="1.47374">
        <ele>845</ele>
        <time>2026-06-28T08:32:29.000Z</time>
      </trkpt>
      <trkpt lat="42.74949" lon="1.47372">
        <ele>845</ele>
        <time>2026-06-28T08:32:30.000Z</time>
      </trkpt>
      <trkpt lat="42.74947" lon="1.47369">
        <ele>846</ele>
        <time>2026-06-28T08:32:31.000Z</time>
      </trkpt>
      <trkpt lat="42.74945" lon="1.47368">
        <ele>845</ele>
        <time>2026-06-28T08:32:32.000Z</time>
      </trkpt>
      <trkpt lat="42.74943" lon="1.47366">
        <ele>846</ele>
        <time>2026-06-28T08:32:33.000Z</time>
      </trkpt>
      <trkpt lat="42.74941" lon="1.47364">
        <ele>846</ele>
        <time>2026-06-28T08:32:34.000Z</time>
      </trkpt>
      <trkpt lat="42.74939" lon="1.47363">
        <ele>846</ele>
        <time>2026-06-28T08:32:35.000Z</time>
      </trkpt>
      <trkpt lat="42.74936" lon="1.47361">
        <ele>846</ele>
        <time>2026-06-28T08:32:36.000Z</time>
      </trkpt>
      <trkpt lat="42.74934" lon="1.47359">
        <ele>847</ele>
        <time>2026-06-28T08:32:37.000Z</time>
      </trkpt>
      <trkpt lat="42.74932" lon="1.47357">
        <ele>847</ele>
        <time>2026-06-28T08:32:38.000Z</time>
      </trkpt>
      <trkpt lat="42.7493" lon="1.47354">
        <ele>847</ele>
        <time>2026-06-28T08:32:39.000Z</time>
      </trkpt>
      <trkpt lat="42.74928" lon="1.47352">
        <ele>848</ele>
        <time>2026-06-28T08:32:40.000Z</time>
      </trkpt>
      <trkpt lat="42.74925" lon="1.4735">
        <ele>848</ele>
        <time>2026-06-28T08:32:41.000Z</time>
      </trkpt>
      <trkpt lat="42.74923" lon="1.47347">
        <ele>848</ele>
        <time>2026-06-28T08:32:42.000Z</time>
      </trkpt>
      <trkpt lat="42.74921" lon="1.47344">
        <ele>848</ele>
        <time>2026-06-28T08:32:43.000Z</time>
      </trkpt>
      <trkpt lat="42.74919" lon="1.47341">
        <ele>848</ele>
        <time>2026-06-28T08:32:44.000Z</time>
      </trkpt>
      <trkpt lat="42.74918" lon="1.47337">
        <ele>848</ele>
        <time>2026-06-28T08:32:45.000Z</time>
      </trkpt>
      <trkpt lat="42.74916" lon="1.47334">
        <ele>849</ele>
        <time>2026-06-28T08:32:46.000Z</time>
      </trkpt>
      <trkpt lat="42.74914" lon="1.4733">
        <ele>849</ele>
        <time>2026-06-28T08:32:47.000Z</time>
      </trkpt>
      <trkpt lat="42.74912" lon="1.47327">
        <ele>849</ele>
        <time>2026-06-28T08:32:48.000Z</time>
      </trkpt>
      <trkpt lat="42.7491" lon="1.47324">
        <ele>849</ele>
        <time>2026-06-28T08:32:49.000Z</time>
      </trkpt>
      <trkpt lat="42.74908" lon="1.47321">
        <ele>849</ele>
        <time>2026-06-28T08:32:50.000Z</time>
      </trkpt>
      <trkpt lat="42.74906" lon="1.47317">
        <ele>849</ele>
        <time>2026-06-28T08:32:51.000Z</time>
      </trkpt>
      <trkpt lat="42.74903" lon="1.47313">
        <ele>849</ele>
        <time>2026-06-28T08:32:52.000Z</time>
      </trkpt>
      <trkpt lat="42.74901" lon="1.47309">
        <ele>849</ele>
        <time>2026-06-28T08:32:53.000Z</time>
      </trkpt>
      <trkpt lat="42.749" lon="1.47305">
        <ele>849</ele>
        <time>2026-06-28T08:32:54.000Z</time>
      </trkpt>
      <trkpt lat="42.74898" lon="1.47302">
        <ele>849</ele>
        <time>2026-06-28T08:32:55.000Z</time>
      </trkpt>
      <trkpt lat="42.74896" lon="1.47299">
        <ele>849</ele>
        <time>2026-06-28T08:32:56.000Z</time>
      </trkpt>
      <trkpt lat="42.74895" lon="1.47295">
        <ele>849</ele>
        <time>2026-06-28T08:32:57.000Z</time>
      </trkpt>
      <trkpt lat="42.74893" lon="1.47292">
        <ele>849</ele>
        <time>2026-06-28T08:32:58.000Z</time>
      </trkpt>
      <trkpt lat="42.74892" lon="1.47289">
        <ele>849</ele>
        <time>2026-06-28T08:32:59.000Z</time>
      </trkpt>
      <trkpt lat="42.74891" lon="1.47285">
        <ele>849</ele>
        <time>2026-06-28T08:33:00.000Z</time>
      </trkpt>
      <trkpt lat="42.74889" lon="1.47282">
        <ele>850</ele>
        <time>2026-06-28T08:33:01.000Z</time>
      </trkpt>
      <trkpt lat="42.74888" lon="1.47279">
        <ele>850</ele>
        <time>2026-06-28T08:33:02.000Z</time>
      </trkpt>
      <trkpt lat="42.74887" lon="1.47275">
        <ele>849</ele>
        <time>2026-06-28T08:33:03.000Z</time>
      </trkpt>
      <trkpt lat="42.74886" lon="1.47271">
        <ele>849</ele>
        <time>2026-06-28T08:33:04.000Z</time>
      </trkpt>
      <trkpt lat="42.74885" lon="1.47268">
        <ele>849</ele>
        <time>2026-06-28T08:33:05.000Z</time>
      </trkpt>
      <trkpt lat="42.74885" lon="1.47264">
        <ele>849</ele>
        <time>2026-06-28T08:33:06.000Z</time>
      </trkpt>
      <trkpt lat="42.74884" lon="1.4726">
        <ele>849</ele>
        <time>2026-06-28T08:33:07.000Z</time>
      </trkpt>
      <trkpt lat="42.74884" lon="1.47255">
        <ele>849</ele>
        <time>2026-06-28T08:33:08.000Z</time>
      </trkpt>
      <trkpt lat="42.74882" lon="1.4725">
        <ele>849</ele>
        <time>2026-06-28T08:33:09.000Z</time>
      </trkpt>
      <trkpt lat="42.74881" lon="1.47246">
        <ele>849</ele>
        <time>2026-06-28T08:33:10.000Z</time>
      </trkpt>
      <trkpt lat="42.7488" lon="1.47241">
        <ele>849</ele>
        <time>2026-06-28T08:33:11.000Z</time>
      </trkpt>
      <trkpt lat="42.74879" lon="1.47238">
        <ele>849</ele>
        <time>2026-06-28T08:33:12.000Z</time>
      </trkpt>
      <trkpt lat="42.74878" lon="1.47234">
        <ele>849</ele>
        <time>2026-06-28T08:33:13.000Z</time>
      </trkpt>
      <trkpt lat="42.74877" lon="1.4723">
        <ele>849</ele>
        <time>2026-06-28T08:33:14.000Z</time>
      </trkpt>
      <trkpt lat="42.74876" lon="1.47226">
        <ele>850</ele>
        <time>2026-06-28T08:33:15.000Z</time>
      </trkpt>
      <trkpt lat="42.74874" lon="1.47221">
        <ele>850</ele>
        <time>2026-06-28T08:33:16.000Z</time>
      </trkpt>
      <trkpt lat="42.74872" lon="1.47218">
        <ele>850</ele>
        <time>2026-06-28T08:33:17.000Z</time>
      </trkpt>
      <trkpt lat="42.7487" lon="1.47215">
        <ele>849</ele>
        <time>2026-06-28T08:33:18.000Z</time>
      </trkpt>
      <trkpt lat="42.74868" lon="1.47212">
        <ele>850</ele>
        <time>2026-06-28T08:33:19.000Z</time>
      </trkpt>
      <trkpt lat="42.74867" lon="1.47208">
        <ele>850</ele>
        <time>2026-06-28T08:33:20.000Z</time>
      </trkpt>
      <trkpt lat="42.74865" lon="1.47205">
        <ele>850</ele>
        <time>2026-06-28T08:33:21.000Z</time>
      </trkpt>
      <trkpt lat="42.74865" lon="1.47201">
        <ele>849</ele>
        <time>2026-06-28T08:33:22.000Z</time>
      </trkpt>
      <trkpt lat="42.74863" lon="1.47197">
        <ele>849</ele>
        <time>2026-06-28T08:33:23.000Z</time>
      </trkpt>
      <trkpt lat="42.74862" lon="1.47193">
        <ele>849</ele>
        <time>2026-06-28T08:33:24.000Z</time>
      </trkpt>
      <trkpt lat="42.7486" lon="1.47189">
        <ele>849</ele>
        <time>2026-06-28T08:33:25.000Z</time>
      </trkpt>
      <trkpt lat="42.74858" lon="1.47186">
        <ele>850</ele>
        <time>2026-06-28T08:33:26.000Z</time>
      </trkpt>
      <trkpt lat="42.74856" lon="1.47183">
        <ele>849</ele>
        <time>2026-06-28T08:33:27.000Z</time>
      </trkpt>
      <trkpt lat="42.74855" lon="1.4718">
        <ele>849</ele>
        <time>2026-06-28T08:33:28.000Z</time>
      </trkpt>
      <trkpt lat="42.74853" lon="1.47176">
        <ele>849</ele>
        <time>2026-06-28T08:33:29.000Z</time>
      </trkpt>
      <trkpt lat="42.74851" lon="1.47171">
        <ele>849</ele>
        <time>2026-06-28T08:33:30.000Z</time>
      </trkpt>
      <trkpt lat="42.74849" lon="1.47167">
        <ele>849</ele>
        <time>2026-06-28T08:33:31.000Z</time>
      </trkpt>
      <trkpt lat="42.74847" lon="1.47165">
        <ele>849</ele>
        <time>2026-06-28T08:33:32.000Z</time>
      </trkpt>
      <trkpt lat="42.74846" lon="1.47161">
        <ele>849</ele>
        <time>2026-06-28T08:33:33.000Z</time>
      </trkpt>
      <trkpt lat="42.74844" lon="1.47159">
        <ele>849</ele>
        <time>2026-06-28T08:33:34.000Z</time>
      </trkpt>
      <trkpt lat="42.74843" lon="1.47156">
        <ele>849</ele>
        <time>2026-06-28T08:33:35.000Z</time>
      </trkpt>
      <trkpt lat="42.74841" lon="1.47153">
        <ele>849</ele>
        <time>2026-06-28T08:33:36.000Z</time>
      </trkpt>
      <trkpt lat="42.74839" lon="1.4715">
        <ele>849</ele>
        <time>2026-06-28T08:33:37.000Z</time>
      </trkpt>
      <trkpt lat="42.74838" lon="1.47148">
        <ele>849</ele>
        <time>2026-06-28T08:33:38.000Z</time>
      </trkpt>
      <trkpt lat="42.74836" lon="1.47145">
        <ele>850</ele>
        <time>2026-06-28T08:33:39.000Z</time>
      </trkpt>
      <trkpt lat="42.74834" lon="1.47142">
        <ele>850</ele>
        <time>2026-06-28T08:33:40.000Z</time>
      </trkpt>
      <trkpt lat="42.74832" lon="1.47138">
        <ele>850</ele>
        <time>2026-06-28T08:33:41.000Z</time>
      </trkpt>
      <trkpt lat="42.7483" lon="1.47134">
        <ele>850</ele>
        <time>2026-06-28T08:33:42.000Z</time>
      </trkpt>
      <trkpt lat="42.74828" lon="1.47129">
        <ele>851</ele>
        <time>2026-06-28T08:33:43.000Z</time>
      </trkpt>
      <trkpt lat="42.74825" lon="1.47126">
        <ele>851</ele>
        <time>2026-06-28T08:33:44.000Z</time>
      </trkpt>
      <trkpt lat="42.74823" lon="1.47123">
        <ele>852</ele>
        <time>2026-06-28T08:33:45.000Z</time>
      </trkpt>
      <trkpt lat="42.7482" lon="1.4712">
        <ele>852</ele>
        <time>2026-06-28T08:33:46.000Z</time>
      </trkpt>
      <trkpt lat="42.74817" lon="1.47117">
        <ele>852</ele>
        <time>2026-06-28T08:33:47.000Z</time>
      </trkpt>
      <trkpt lat="42.74814" lon="1.47115">
        <ele>853</ele>
        <time>2026-06-28T08:33:48.000Z</time>
      </trkpt>
      <trkpt lat="42.74811" lon="1.47113">
        <ele>853</ele>
        <time>2026-06-28T08:33:49.000Z</time>
      </trkpt>
      <trkpt lat="42.74808" lon="1.47111">
        <ele>853</ele>
        <time>2026-06-28T08:33:50.000Z</time>
      </trkpt>
      <trkpt lat="42.74805" lon="1.47109">
        <ele>852</ele>
        <time>2026-06-28T08:33:51.000Z</time>
      </trkpt>
      <trkpt lat="42.74802" lon="1.47107">
        <ele>852</ele>
        <time>2026-06-28T08:33:52.000Z</time>
      </trkpt>
      <trkpt lat="42.74799" lon="1.47105">
        <ele>853</ele>
        <time>2026-06-28T08:33:53.000Z</time>
      </trkpt>
      <trkpt lat="42.74796" lon="1.47102">
        <ele>853</ele>
        <time>2026-06-28T08:33:54.000Z</time>
      </trkpt>
      <trkpt lat="42.74793" lon="1.47101">
        <ele>853</ele>
        <time>2026-06-28T08:33:55.000Z</time>
      </trkpt>
      <trkpt lat="42.7479" lon="1.47098">
        <ele>854</ele>
        <time>2026-06-28T08:33:56.000Z</time>
      </trkpt>
      <trkpt lat="42.74787" lon="1.47095">
        <ele>854</ele>
        <time>2026-06-28T08:33:57.000Z</time>
      </trkpt>
      <trkpt lat="42.74784" lon="1.47092">
        <ele>855</ele>
        <time>2026-06-28T08:33:58.000Z</time>
      </trkpt>
      <trkpt lat="42.74782" lon="1.47089">
        <ele>856</ele>
        <time>2026-06-28T08:33:59.000Z</time>
      </trkpt>
      <trkpt lat="42.74779" lon="1.47087">
        <ele>855</ele>
        <time>2026-06-28T08:34:00.000Z</time>
      </trkpt>
      <trkpt lat="42.74777" lon="1.47082">
        <ele>855</ele>
        <time>2026-06-28T08:34:01.000Z</time>
      </trkpt>
      <trkpt lat="42.74774" lon="1.47079">
        <ele>856</ele>
        <time>2026-06-28T08:34:02.000Z</time>
      </trkpt>
      <trkpt lat="42.74771" lon="1.47076">
        <ele>857</ele>
        <time>2026-06-28T08:34:03.000Z</time>
      </trkpt>
      <trkpt lat="42.74769" lon="1.47072">
        <ele>857</ele>
        <time>2026-06-28T08:34:04.000Z</time>
      </trkpt>
      <trkpt lat="42.74766" lon="1.47067">
        <ele>857</ele>
        <time>2026-06-28T08:34:05.000Z</time>
      </trkpt>
      <trkpt lat="42.74764" lon="1.47063">
        <ele>857</ele>
        <time>2026-06-28T08:34:06.000Z</time>
      </trkpt>
      <trkpt lat="42.74761" lon="1.47059">
        <ele>857</ele>
        <time>2026-06-28T08:34:07.000Z</time>
      </trkpt>
      <trkpt lat="42.74759" lon="1.47055">
        <ele>857</ele>
        <time>2026-06-28T08:34:08.000Z</time>
      </trkpt>
      <trkpt lat="42.74756" lon="1.47052">
        <ele>858</ele>
        <time>2026-06-28T08:34:09.000Z</time>
      </trkpt>
      <trkpt lat="42.74754" lon="1.47048">
        <ele>858</ele>
        <time>2026-06-28T08:34:10.000Z</time>
      </trkpt>
      <trkpt lat="42.74752" lon="1.47044">
        <ele>859</ele>
        <time>2026-06-28T08:34:11.000Z</time>
      </trkpt>
      <trkpt lat="42.74749" lon="1.4704">
        <ele>858</ele>
        <time>2026-06-28T08:34:12.000Z</time>
      </trkpt>
      <trkpt lat="42.74747" lon="1.47037">
        <ele>859</ele>
        <time>2026-06-28T08:34:13.000Z</time>
      </trkpt>
      <trkpt lat="42.74745" lon="1.47034">
        <ele>859</ele>
        <time>2026-06-28T08:34:14.000Z</time>
      </trkpt>
      <trkpt lat="42.74743" lon="1.47031">
        <ele>860</ele>
        <time>2026-06-28T08:34:15.000Z</time>
      </trkpt>
      <trkpt lat="42.7474" lon="1.47027">
        <ele>859</ele>
        <time>2026-06-28T08:34:16.000Z</time>
      </trkpt>
      <trkpt lat="42.74737" lon="1.47024">
        <ele>859</ele>
        <time>2026-06-28T08:34:17.000Z</time>
      </trkpt>
      <trkpt lat="42.74735" lon="1.47021">
        <ele>860</ele>
        <time>2026-06-28T08:34:18.000Z</time>
      </trkpt>
      <trkpt lat="42.74733" lon="1.47018">
        <ele>860</ele>
        <time>2026-06-28T08:34:19.000Z</time>
      </trkpt>
      <trkpt lat="42.7473" lon="1.47014">
        <ele>860</ele>
        <time>2026-06-28T08:34:20.000Z</time>
      </trkpt>
      <trkpt lat="42.74728" lon="1.47012">
        <ele>860</ele>
        <time>2026-06-28T08:34:21.000Z</time>
      </trkpt>
      <trkpt lat="42.74725" lon="1.4701">
        <ele>860</ele>
        <time>2026-06-28T08:34:22.000Z</time>
      </trkpt>
      <trkpt lat="42.74723" lon="1.47006">
        <ele>860</ele>
        <time>2026-06-28T08:34:23.000Z</time>
      </trkpt>
      <trkpt lat="42.74721" lon="1.47002">
        <ele>860</ele>
        <time>2026-06-28T08:34:24.000Z</time>
      </trkpt>
      <trkpt lat="42.74719" lon="1.46999">
        <ele>861</ele>
        <time>2026-06-28T08:34:25.000Z</time>
      </trkpt>
      <trkpt lat="42.74717" lon="1.46996">
        <ele>862</ele>
        <time>2026-06-28T08:34:26.000Z</time>
      </trkpt>
      <trkpt lat="42.74714" lon="1.46992">
        <ele>862</ele>
        <time>2026-06-28T08:34:27.000Z</time>
      </trkpt>
      <trkpt lat="42.74712" lon="1.46989">
        <ele>863</ele>
        <time>2026-06-28T08:34:28.000Z</time>
      </trkpt>
      <trkpt lat="42.74709" lon="1.46986">
        <ele>862</ele>
        <time>2026-06-28T08:34:29.000Z</time>
      </trkpt>
      <trkpt lat="42.74706" lon="1.46983">
        <ele>863</ele>
        <time>2026-06-28T08:34:30.000Z</time>
      </trkpt>
      <trkpt lat="42.74704" lon="1.46982">
        <ele>863</ele>
        <time>2026-06-28T08:34:31.000Z</time>
      </trkpt>
      <trkpt lat="42.74703" lon="1.4698">
        <ele>864</ele>
        <time>2026-06-28T08:34:32.000Z</time>
      </trkpt>
      <trkpt lat="42.74701" lon="1.46978">
        <ele>864</ele>
        <time>2026-06-28T08:34:33.000Z</time>
      </trkpt>
      <trkpt lat="42.74699" lon="1.46976">
        <ele>865</ele>
        <time>2026-06-28T08:34:34.000Z</time>
      </trkpt>
      <trkpt lat="42.74697" lon="1.46973">
        <ele>865</ele>
        <time>2026-06-28T08:34:35.000Z</time>
      </trkpt>
      <trkpt lat="42.74695" lon="1.4697">
        <ele>865</ele>
        <time>2026-06-28T08:34:36.000Z</time>
      </trkpt>
      <trkpt lat="42.74693" lon="1.46968">
        <ele>866</ele>
        <time>2026-06-28T08:34:37.000Z</time>
      </trkpt>
      <trkpt lat="42.7469" lon="1.46964">
        <ele>865</ele>
        <time>2026-06-28T08:34:38.000Z</time>
      </trkpt>
      <trkpt lat="42.74688" lon="1.46962">
        <ele>865</ele>
        <time>2026-06-28T08:34:39.000Z</time>
      </trkpt>
      <trkpt lat="42.74686" lon="1.46959">
        <ele>865</ele>
        <time>2026-06-28T08:34:40.000Z</time>
      </trkpt>
      <trkpt lat="42.74684" lon="1.46955">
        <ele>865</ele>
        <time>2026-06-28T08:34:41.000Z</time>
      </trkpt>
      <trkpt lat="42.74683" lon="1.46953">
        <ele>865</ele>
        <time>2026-06-28T08:34:42.000Z</time>
      </trkpt>
      <trkpt lat="42.74681" lon="1.4695">
        <ele>865</ele>
        <time>2026-06-28T08:34:43.000Z</time>
      </trkpt>
      <trkpt lat="42.74679" lon="1.46947">
        <ele>864</ele>
        <time>2026-06-28T08:34:44.000Z</time>
      </trkpt>
      <trkpt lat="42.74677" lon="1.46945">
        <ele>864</ele>
        <time>2026-06-28T08:34:45.000Z</time>
      </trkpt>
      <trkpt lat="42.74675" lon="1.46942">
        <ele>863</ele>
        <time>2026-06-28T08:34:46.000Z</time>
      </trkpt>
      <trkpt lat="42.74674" lon="1.46938">
        <ele>863</ele>
        <time>2026-06-28T08:34:47.000Z</time>
      </trkpt>
      <trkpt lat="42.74672" lon="1.46936">
        <ele>864</ele>
        <time>2026-06-28T08:34:48.000Z</time>
      </trkpt>
      <trkpt lat="42.74669" lon="1.46933">
        <ele>864</ele>
        <time>2026-06-28T08:34:49.000Z</time>
      </trkpt>
      <trkpt lat="42.74667" lon="1.46932">
        <ele>864</ele>
        <time>2026-06-28T08:34:50.000Z</time>
      </trkpt>
      <trkpt lat="42.74666" lon="1.4693">
        <ele>864</ele>
        <time>2026-06-28T08:34:51.000Z</time>
      </trkpt>
      <trkpt lat="42.74663" lon="1.46927">
        <ele>864</ele>
        <time>2026-06-28T08:34:52.000Z</time>
      </trkpt>
      <trkpt lat="42.74661" lon="1.46925">
        <ele>864</ele>
        <time>2026-06-28T08:34:53.000Z</time>
      </trkpt>
      <trkpt lat="42.74658" lon="1.46922">
        <ele>864</ele>
        <time>2026-06-28T08:34:54.000Z</time>
      </trkpt>
      <trkpt lat="42.74656" lon="1.46919">
        <ele>865</ele>
        <time>2026-06-28T08:34:55.000Z</time>
      </trkpt>
      <trkpt lat="42.74654" lon="1.46917">
        <ele>864</ele>
        <time>2026-06-28T08:34:56.000Z</time>
      </trkpt>
      <trkpt lat="42.74651" lon="1.46914">
        <ele>864</ele>
        <time>2026-06-28T08:34:57.000Z</time>
      </trkpt>
      <trkpt lat="42.74649" lon="1.46912">
        <ele>865</ele>
        <time>2026-06-28T08:34:58.000Z</time>
      </trkpt>
      <trkpt lat="42.74646" lon="1.46909">
        <ele>864</ele>
        <time>2026-06-28T08:34:59.000Z</time>
      </trkpt>
      <trkpt lat="42.74643" lon="1.46907">
        <ele>864</ele>
        <time>2026-06-28T08:35:00.000Z</time>
      </trkpt>
      <trkpt lat="42.74641" lon="1.46905">
        <ele>864</ele>
        <time>2026-06-28T08:35:01.000Z</time>
      </trkpt>
      <trkpt lat="42.74638" lon="1.46902">
        <ele>864</ele>
        <time>2026-06-28T08:35:02.000Z</time>
      </trkpt>
      <trkpt lat="42.74636" lon="1.469">
        <ele>865</ele>
        <time>2026-06-28T08:35:03.000Z</time>
      </trkpt>
      <trkpt lat="42.74633" lon="1.46897">
        <ele>864</ele>
        <time>2026-06-28T08:35:04.000Z</time>
      </trkpt>
      <trkpt lat="42.74631" lon="1.46894">
        <ele>865</ele>
        <time>2026-06-28T08:35:05.000Z</time>
      </trkpt>
      <trkpt lat="42.74629" lon="1.46891">
        <ele>865</ele>
        <time>2026-06-28T08:35:06.000Z</time>
      </trkpt>
      <trkpt lat="42.74627" lon="1.46888">
        <ele>865</ele>
        <time>2026-06-28T08:35:07.000Z</time>
      </trkpt>
      <trkpt lat="42.74625" lon="1.46885">
        <ele>865</ele>
        <time>2026-06-28T08:35:08.000Z</time>
      </trkpt>
      <trkpt lat="42.74623" lon="1.46882">
        <ele>865</ele>
        <time>2026-06-28T08:35:09.000Z</time>
      </trkpt>
      <trkpt lat="42.74621" lon="1.46879">
        <ele>865</ele>
        <time>2026-06-28T08:35:10.000Z</time>
      </trkpt>
      <trkpt lat="42.74619" lon="1.46877">
        <ele>865</ele>
        <time>2026-06-28T08:35:11.000Z</time>
      </trkpt>
      <trkpt lat="42.74618" lon="1.46874">
        <ele>865</ele>
        <time>2026-06-28T08:35:12.000Z</time>
      </trkpt>
      <trkpt lat="42.74616" lon="1.46871">
        <ele>866</ele>
        <time>2026-06-28T08:35:13.000Z</time>
      </trkpt>
      <trkpt lat="42.74614" lon="1.46869">
        <ele>865</ele>
        <time>2026-06-28T08:35:14.000Z</time>
      </trkpt>
      <trkpt lat="42.74612" lon="1.46867">
        <ele>865</ele>
        <time>2026-06-28T08:35:15.000Z</time>
      </trkpt>
      <trkpt lat="42.7461" lon="1.46865">
        <ele>865</ele>
        <time>2026-06-28T08:35:16.000Z</time>
      </trkpt>
      <trkpt lat="42.74608" lon="1.46864">
        <ele>865</ele>
        <time>2026-06-28T08:35:17.000Z</time>
      </trkpt>
      <trkpt lat="42.74606" lon="1.46861">
        <ele>865</ele>
        <time>2026-06-28T08:35:18.000Z</time>
      </trkpt>
      <trkpt lat="42.74604" lon="1.46858">
        <ele>865</ele>
        <time>2026-06-28T08:35:19.000Z</time>
      </trkpt>
      <trkpt lat="42.74602" lon="1.46855">
        <ele>865</ele>
        <time>2026-06-28T08:35:20.000Z</time>
      </trkpt>
      <trkpt lat="42.746" lon="1.46853">
        <ele>865</ele>
        <time>2026-06-28T08:35:21.000Z</time>
      </trkpt>
      <trkpt lat="42.74598" lon="1.4685">
        <ele>865</ele>
        <time>2026-06-28T08:35:22.000Z</time>
      </trkpt>
      <trkpt lat="42.74596" lon="1.46848">
        <ele>865</ele>
        <time>2026-06-28T08:35:23.000Z</time>
      </trkpt>
      <trkpt lat="42.74594" lon="1.46846">
        <ele>865</ele>
        <time>2026-06-28T08:35:24.000Z</time>
      </trkpt>
      <trkpt lat="42.74592" lon="1.46843">
        <ele>865</ele>
        <time>2026-06-28T08:35:25.000Z</time>
      </trkpt>
      <trkpt lat="42.74591" lon="1.4684">
        <ele>865</ele>
        <time>2026-06-28T08:35:26.000Z</time>
      </trkpt>
      <trkpt lat="42.74589" lon="1.46836">
        <ele>866</ele>
        <time>2026-06-28T08:35:27.000Z</time>
      </trkpt>
      <trkpt lat="42.74587" lon="1.46834">
        <ele>866</ele>
        <time>2026-06-28T08:35:28.000Z</time>
      </trkpt>
      <trkpt lat="42.74585" lon="1.46831">
        <ele>867</ele>
        <time>2026-06-28T08:35:29.000Z</time>
      </trkpt>
      <trkpt lat="42.74583" lon="1.46828">
        <ele>867</ele>
        <time>2026-06-28T08:35:30.000Z</time>
      </trkpt>
      <trkpt lat="42.74581" lon="1.46826">
        <ele>867</ele>
        <time>2026-06-28T08:35:31.000Z</time>
      </trkpt>
      <trkpt lat="42.74579" lon="1.46824">
        <ele>867</ele>
        <time>2026-06-28T08:35:32.000Z</time>
      </trkpt>
      <trkpt lat="42.74578" lon="1.46821">
        <ele>868</ele>
        <time>2026-06-28T08:35:33.000Z</time>
      </trkpt>
      <trkpt lat="42.74576" lon="1.46819">
        <ele>869</ele>
        <time>2026-06-28T08:35:34.000Z</time>
      </trkpt>
      <trkpt lat="42.74574" lon="1.46816">
        <ele>869</ele>
        <time>2026-06-28T08:35:35.000Z</time>
      </trkpt>
      <trkpt lat="42.74573" lon="1.46813">
        <ele>870</ele>
        <time>2026-06-28T08:35:36.000Z</time>
      </trkpt>
      <trkpt lat="42.74572" lon="1.4681">
        <ele>871</ele>
        <time>2026-06-28T08:35:37.000Z</time>
      </trkpt>
      <trkpt lat="42.7457" lon="1.46807">
        <ele>872</ele>
        <time>2026-06-28T08:35:38.000Z</time>
      </trkpt>
      <trkpt lat="42.74568" lon="1.46804">
        <ele>873</ele>
        <time>2026-06-28T08:35:39.000Z</time>
      </trkpt>
      <trkpt lat="42.74566" lon="1.46801">
        <ele>873</ele>
        <time>2026-06-28T08:35:40.000Z</time>
      </trkpt>
      <trkpt lat="42.74564" lon="1.46798">
        <ele>873</ele>
        <time>2026-06-28T08:35:41.000Z</time>
      </trkpt>
      <trkpt lat="42.74562" lon="1.46795">
        <ele>874</ele>
        <time>2026-06-28T08:35:42.000Z</time>
      </trkpt>
      <trkpt lat="42.7456" lon="1.46792">
        <ele>874</ele>
        <time>2026-06-28T08:35:43.000Z</time>
      </trkpt>
      <trkpt lat="42.74558" lon="1.4679">
        <ele>874</ele>
        <time>2026-06-28T08:35:44.000Z</time>
      </trkpt>
      <trkpt lat="42.74555" lon="1.46787">
        <ele>874</ele>
        <time>2026-06-28T08:35:45.000Z</time>
      </trkpt>
      <trkpt lat="42.74553" lon="1.46783">
        <ele>874</ele>
        <time>2026-06-28T08:35:46.000Z</time>
      </trkpt>
      <trkpt lat="42.74551" lon="1.46781">
        <ele>874</ele>
        <time>2026-06-28T08:35:47.000Z</time>
      </trkpt>
      <trkpt lat="42.7455" lon="1.46777">
        <ele>874</ele>
        <time>2026-06-28T08:35:48.000Z</time>
      </trkpt>
      <trkpt lat="42.74548" lon="1.46774">
        <ele>875</ele>
        <time>2026-06-28T08:35:49.000Z</time>
      </trkpt>
      <trkpt lat="42.74546" lon="1.46771">
        <ele>875</ele>
        <time>2026-06-28T08:35:50.000Z</time>
      </trkpt>
      <trkpt lat="42.74545" lon="1.46767">
        <ele>875</ele>
        <time>2026-06-28T08:35:51.000Z</time>
      </trkpt>
      <trkpt lat="42.74543" lon="1.46765">
        <ele>876</ele>
        <time>2026-06-28T08:35:52.000Z</time>
      </trkpt>
      <trkpt lat="42.74541" lon="1.46762">
        <ele>875</ele>
        <time>2026-06-28T08:35:53.000Z</time>
      </trkpt>
      <trkpt lat="42.74539" lon="1.46759">
        <ele>876</ele>
        <time>2026-06-28T08:35:54.000Z</time>
      </trkpt>
      <trkpt lat="42.74538" lon="1.46755">
        <ele>876</ele>
        <time>2026-06-28T08:35:55.000Z</time>
      </trkpt>
      <trkpt lat="42.74536" lon="1.46752">
        <ele>877</ele>
        <time>2026-06-28T08:35:56.000Z</time>
      </trkpt>
      <trkpt lat="42.74534" lon="1.46749">
        <ele>877</ele>
        <time>2026-06-28T08:35:57.000Z</time>
      </trkpt>
      <trkpt lat="42.74532" lon="1.46746">
        <ele>877</ele>
        <time>2026-06-28T08:35:58.000Z</time>
      </trkpt>
      <trkpt lat="42.74531" lon="1.46744">
        <ele>877</ele>
        <time>2026-06-28T08:35:59.000Z</time>
      </trkpt>
      <trkpt lat="42.74531" lon="1.46742">
        <ele>878</ele>
        <time>2026-06-28T08:36:00.000Z</time>
      </trkpt>
      <trkpt lat="42.7453" lon="1.46739">
        <ele>878</ele>
        <time>2026-06-28T08:36:01.000Z</time>
      </trkpt>
      <trkpt lat="42.74528" lon="1.46736">
        <ele>879</ele>
        <time>2026-06-28T08:36:02.000Z</time>
      </trkpt>
      <trkpt lat="42.74527" lon="1.46734">
        <ele>878</ele>
        <time>2026-06-28T08:36:03.000Z</time>
      </trkpt>
      <trkpt lat="42.74526" lon="1.46731">
        <ele>878</ele>
        <time>2026-06-28T08:36:04.000Z</time>
      </trkpt>
      <trkpt lat="42.74524" lon="1.46728">
        <ele>878</ele>
        <time>2026-06-28T08:36:05.000Z</time>
      </trkpt>
      <trkpt lat="42.74522" lon="1.46724">
        <ele>878</ele>
        <time>2026-06-28T08:36:06.000Z</time>
      </trkpt>
      <trkpt lat="42.74521" lon="1.4672">
        <ele>878</ele>
        <time>2026-06-28T08:36:07.000Z</time>
      </trkpt>
      <trkpt lat="42.74519" lon="1.46716">
        <ele>878</ele>
        <time>2026-06-28T08:36:08.000Z</time>
      </trkpt>
      <trkpt lat="42.74518" lon="1.46712">
        <ele>879</ele>
        <time>2026-06-28T08:36:09.000Z</time>
      </trkpt>
      <trkpt lat="42.74516" lon="1.46709">
        <ele>880</ele>
        <time>2026-06-28T08:36:10.000Z</time>
      </trkpt>
      <trkpt lat="42.74515" lon="1.46706">
        <ele>880</ele>
        <time>2026-06-28T08:36:11.000Z</time>
      </trkpt>
      <trkpt lat="42.74514" lon="1.46703">
        <ele>881</ele>
        <time>2026-06-28T08:36:12.000Z</time>
      </trkpt>
      <trkpt lat="42.74514" lon="1.46699">
        <ele>882</ele>
        <time>2026-06-28T08:36:13.000Z</time>
      </trkpt>
      <trkpt lat="42.74513" lon="1.46696">
        <ele>883</ele>
        <time>2026-06-28T08:36:14.000Z</time>
      </trkpt>
      <trkpt lat="42.74512" lon="1.46693">
        <ele>883</ele>
        <time>2026-06-28T08:36:15.000Z</time>
      </trkpt>
      <trkpt lat="42.74511" lon="1.4669">
        <ele>884</ele>
        <time>2026-06-28T08:36:16.000Z</time>
      </trkpt>
      <trkpt lat="42.7451" lon="1.46686">
        <ele>884</ele>
        <time>2026-06-28T08:36:17.000Z</time>
      </trkpt>
      <trkpt lat="42.74509" lon="1.46683">
        <ele>884</ele>
        <time>2026-06-28T08:36:18.000Z</time>
      </trkpt>
      <trkpt lat="42.74508" lon="1.4668">
        <ele>885</ele>
        <time>2026-06-28T08:36:19.000Z</time>
      </trkpt>
      <trkpt lat="42.74506" lon="1.46676">
        <ele>885</ele>
        <time>2026-06-28T08:36:20.000Z</time>
      </trkpt>
      <trkpt lat="42.74505" lon="1.46673">
        <ele>885</ele>
        <time>2026-06-28T08:36:21.000Z</time>
      </trkpt>
      <trkpt lat="42.74504" lon="1.46669">
        <ele>885</ele>
        <time>2026-06-28T08:36:22.000Z</time>
      </trkpt>
      <trkpt lat="42.74502" lon="1.46666">
        <ele>886</ele>
        <time>2026-06-28T08:36:23.000Z</time>
      </trkpt>
      <trkpt lat="42.745" lon="1.46662">
        <ele>885</ele>
        <time>2026-06-28T08:36:24.000Z</time>
      </trkpt>
      <trkpt lat="42.74499" lon="1.46657">
        <ele>886</ele>
        <time>2026-06-28T08:36:25.000Z</time>
      </trkpt>
      <trkpt lat="42.74497" lon="1.46654">
        <ele>885</ele>
        <time>2026-06-28T08:36:26.000Z</time>
      </trkpt>
      <trkpt lat="42.74496" lon="1.4665">
        <ele>885</ele>
        <time>2026-06-28T08:36:27.000Z</time>
      </trkpt>
      <trkpt lat="42.74494" lon="1.46646">
        <ele>885</ele>
        <time>2026-06-28T08:36:28.000Z</time>
      </trkpt>
      <trkpt lat="42.74493" lon="1.46642">
        <ele>885</ele>
        <time>2026-06-28T08:36:29.000Z</time>
      </trkpt>
      <trkpt lat="42.74492" lon="1.46639">
        <ele>886</ele>
        <time>2026-06-28T08:36:30.000Z</time>
      </trkpt>
      <trkpt lat="42.7449" lon="1.46636">
        <ele>885</ele>
        <time>2026-06-28T08:36:31.000Z</time>
      </trkpt>
      <trkpt lat="42.74488" lon="1.46633">
        <ele>886</ele>
        <time>2026-06-28T08:36:32.000Z</time>
      </trkpt>
      <trkpt lat="42.74486" lon="1.46629">
        <ele>886</ele>
        <time>2026-06-28T08:36:33.000Z</time>
      </trkpt>
      <trkpt lat="42.74484" lon="1.46626">
        <ele>886</ele>
        <time>2026-06-28T08:36:34.000Z</time>
      </trkpt>
      <trkpt lat="42.74482" lon="1.46622">
        <ele>886</ele>
        <time>2026-06-28T08:36:35.000Z</time>
      </trkpt>
      <trkpt lat="42.74479" lon="1.46619">
        <ele>885</ele>
        <time>2026-06-28T08:36:36.000Z</time>
      </trkpt>
      <trkpt lat="42.74477" lon="1.46615">
        <ele>884</ele>
        <time>2026-06-28T08:36:37.000Z</time>
      </trkpt>
      <trkpt lat="42.74475" lon="1.46612">
        <ele>884</ele>
        <time>2026-06-28T08:36:38.000Z</time>
      </trkpt>
      <trkpt lat="42.74473" lon="1.46609">
        <ele>884</ele>
        <time>2026-06-28T08:36:39.000Z</time>
      </trkpt>
      <trkpt lat="42.74471" lon="1.46607">
        <ele>884</ele>
        <time>2026-06-28T08:36:40.000Z</time>
      </trkpt>
      <trkpt lat="42.74469" lon="1.46605">
        <ele>884</ele>
        <time>2026-06-28T08:36:41.000Z</time>
      </trkpt>
      <trkpt lat="42.74467" lon="1.46602">
        <ele>884</ele>
        <time>2026-06-28T08:36:42.000Z</time>
      </trkpt>
      <trkpt lat="42.74465" lon="1.46599">
        <ele>883</ele>
        <time>2026-06-28T08:36:43.000Z</time>
      </trkpt>
      <trkpt lat="42.74463" lon="1.46595">
        <ele>883</ele>
        <time>2026-06-28T08:36:44.000Z</time>
      </trkpt>
      <trkpt lat="42.74461" lon="1.46592">
        <ele>883</ele>
        <time>2026-06-28T08:36:45.000Z</time>
      </trkpt>
      <trkpt lat="42.74459" lon="1.46589">
        <ele>882</ele>
        <time>2026-06-28T08:36:46.000Z</time>
      </trkpt>
      <trkpt lat="42.74458" lon="1.46585">
        <ele>882</ele>
        <time>2026-06-28T08:36:47.000Z</time>
      </trkpt>
      <trkpt lat="42.74456" lon="1.46581">
        <ele>882</ele>
        <time>2026-06-28T08:36:48.000Z</time>
      </trkpt>
      <trkpt lat="42.74454" lon="1.46579">
        <ele>882</ele>
        <time>2026-06-28T08:36:49.000Z</time>
      </trkpt>
      <trkpt lat="42.74453" lon="1.46575">
        <ele>882</ele>
        <time>2026-06-28T08:36:50.000Z</time>
      </trkpt>
      <trkpt lat="42.74451" lon="1.46572">
        <ele>882</ele>
        <time>2026-06-28T08:36:51.000Z</time>
      </trkpt>
      <trkpt lat="42.74449" lon="1.46569">
        <ele>882</ele>
        <time>2026-06-28T08:36:52.000Z</time>
      </trkpt>
      <trkpt lat="42.74447" lon="1.46566">
        <ele>882</ele>
        <time>2026-06-28T08:36:53.000Z</time>
      </trkpt>
      <trkpt lat="42.74447" lon="1.46563">
        <ele>882</ele>
        <time>2026-06-28T08:36:54.000Z</time>
      </trkpt>
      <trkpt lat="42.74446" lon="1.46559">
        <ele>882</ele>
        <time>2026-06-28T08:36:55.000Z</time>
      </trkpt>
      <trkpt lat="42.74444" lon="1.46556">
        <ele>882</ele>
        <time>2026-06-28T08:36:56.000Z</time>
      </trkpt>
      <trkpt lat="42.74443" lon="1.46552">
        <ele>882</ele>
        <time>2026-06-28T08:36:57.000Z</time>
      </trkpt>
      <trkpt lat="42.74441" lon="1.46549">
        <ele>882</ele>
        <time>2026-06-28T08:36:58.000Z</time>
      </trkpt>
      <trkpt lat="42.7444" lon="1.46545">
        <ele>882</ele>
        <time>2026-06-28T08:36:59.000Z</time>
      </trkpt>
      <trkpt lat="42.74439" lon="1.46544">
        <ele>882</ele>
        <time>2026-06-28T08:37:00.000Z</time>
      </trkpt>
      <trkpt lat="42.74438" lon="1.46541">
        <ele>883</ele>
        <time>2026-06-28T08:37:01.000Z</time>
      </trkpt>
      <trkpt lat="42.74436" lon="1.46539">
        <ele>883</ele>
        <time>2026-06-28T08:37:02.000Z</time>
      </trkpt>
      <trkpt lat="42.74435" lon="1.46536">
        <ele>883</ele>
        <time>2026-06-28T08:37:03.000Z</time>
      </trkpt>
      <trkpt lat="42.74433" lon="1.46532">
        <ele>883</ele>
        <time>2026-06-28T08:37:04.000Z</time>
      </trkpt>
      <trkpt lat="42.74433" lon="1.4653">
        <ele>883</ele>
        <time>2026-06-28T08:37:05.000Z</time>
      </trkpt>
      <trkpt lat="42.74432" lon="1.46526">
        <ele>883</ele>
        <time>2026-06-28T08:37:06.000Z</time>
      </trkpt>
      <trkpt lat="42.74431" lon="1.46524">
        <ele>882</ele>
        <time>2026-06-28T08:37:07.000Z</time>
      </trkpt>
      <trkpt lat="42.7443" lon="1.46521">
        <ele>882</ele>
        <time>2026-06-28T08:37:08.000Z</time>
      </trkpt>
      <trkpt lat="42.74429" lon="1.46519">
        <ele>882</ele>
        <time>2026-06-28T08:37:09.000Z</time>
      </trkpt>
      <trkpt lat="42.74427" lon="1.46515">
        <ele>881</ele>
        <time>2026-06-28T08:37:10.000Z</time>
      </trkpt>
      <trkpt lat="42.74426" lon="1.46511">
        <ele>881</ele>
        <time>2026-06-28T08:37:11.000Z</time>
      </trkpt>
      <trkpt lat="42.74425" lon="1.46507">
        <ele>881</ele>
        <time>2026-06-28T08:37:12.000Z</time>
      </trkpt>
      <trkpt lat="42.74423" lon="1.46503">
        <ele>882</ele>
        <time>2026-06-28T08:37:13.000Z</time>
      </trkpt>
      <trkpt lat="42.74422" lon="1.46499">
        <ele>882</ele>
        <time>2026-06-28T08:37:14.000Z</time>
      </trkpt>
      <trkpt lat="42.7442" lon="1.46496">
        <ele>882</ele>
        <time>2026-06-28T08:37:15.000Z</time>
      </trkpt>
      <trkpt lat="42.74419" lon="1.46493">
        <ele>883</ele>
        <time>2026-06-28T08:37:16.000Z</time>
      </trkpt>
      <trkpt lat="42.74417" lon="1.46489">
        <ele>882</ele>
        <time>2026-06-28T08:37:17.000Z</time>
      </trkpt>
      <trkpt lat="42.74416" lon="1.46485">
        <ele>883</ele>
        <time>2026-06-28T08:37:18.000Z</time>
      </trkpt>
      <trkpt lat="42.74415" lon="1.46481">
        <ele>883</ele>
        <time>2026-06-28T08:37:19.000Z</time>
      </trkpt>
      <trkpt lat="42.74413" lon="1.46478">
        <ele>883</ele>
        <time>2026-06-28T08:37:20.000Z</time>
      </trkpt>
      <trkpt lat="42.74412" lon="1.46474">
        <ele>883</ele>
        <time>2026-06-28T08:37:21.000Z</time>
      </trkpt>
      <trkpt lat="42.74411" lon="1.4647">
        <ele>884</ele>
        <time>2026-06-28T08:37:22.000Z</time>
      </trkpt>
      <trkpt lat="42.74409" lon="1.46466">
        <ele>884</ele>
        <time>2026-06-28T08:37:23.000Z</time>
      </trkpt>
      <trkpt lat="42.74407" lon="1.46462">
        <ele>884</ele>
        <time>2026-06-28T08:37:24.000Z</time>
      </trkpt>
      <trkpt lat="42.74405" lon="1.46458">
        <ele>885</ele>
        <time>2026-06-28T08:37:25.000Z</time>
      </trkpt>
      <trkpt lat="42.74403" lon="1.46454">
        <ele>884</ele>
        <time>2026-06-28T08:37:26.000Z</time>
      </trkpt>
      <trkpt lat="42.74402" lon="1.46451">
        <ele>884</ele>
        <time>2026-06-28T08:37:27.000Z</time>
      </trkpt>
      <trkpt lat="42.744" lon="1.46447">
        <ele>884</ele>
        <time>2026-06-28T08:37:28.000Z</time>
      </trkpt>
      <trkpt lat="42.74399" lon="1.46445">
        <ele>885</ele>
        <time>2026-06-28T08:37:29.000Z</time>
      </trkpt>
      <trkpt lat="42.74397" lon="1.46442">
        <ele>885</ele>
        <time>2026-06-28T08:37:30.000Z</time>
      </trkpt>
      <trkpt lat="42.74396" lon="1.4644">
        <ele>885</ele>
        <time>2026-06-28T08:37:31.000Z</time>
      </trkpt>
      <trkpt lat="42.74394" lon="1.46436">
        <ele>885</ele>
        <time>2026-06-28T08:37:32.000Z</time>
      </trkpt>
      <trkpt lat="42.74393" lon="1.46434">
        <ele>885</ele>
        <time>2026-06-28T08:37:33.000Z</time>
      </trkpt>
      <trkpt lat="42.74391" lon="1.46432">
        <ele>886</ele>
        <time>2026-06-28T08:37:34.000Z</time>
      </trkpt>
      <trkpt lat="42.7439" lon="1.46429">
        <ele>885</ele>
        <time>2026-06-28T08:37:35.000Z</time>
      </trkpt>
      <trkpt lat="42.74388" lon="1.46427">
        <ele>886</ele>
        <time>2026-06-28T08:37:36.000Z</time>
      </trkpt>
      <trkpt lat="42.74386" lon="1.46424">
        <ele>885</ele>
        <time>2026-06-28T08:37:37.000Z</time>
      </trkpt>
      <trkpt lat="42.74384" lon="1.46421">
        <ele>885</ele>
        <time>2026-06-28T08:37:38.000Z</time>
      </trkpt>
      <trkpt lat="42.74382" lon="1.46418">
        <ele>885</ele>
        <time>2026-06-28T08:37:39.000Z</time>
      </trkpt>
      <trkpt lat="42.7438" lon="1.46416">
        <ele>885</ele>
        <time>2026-06-28T08:37:40.000Z</time>
      </trkpt>
      <trkpt lat="42.74378" lon="1.46413">
        <ele>885</ele>
        <time>2026-06-28T08:37:41.000Z</time>
      </trkpt>
      <trkpt lat="42.74376" lon="1.4641">
        <ele>885</ele>
        <time>2026-06-28T08:37:42.000Z</time>
      </trkpt>
      <trkpt lat="42.74375" lon="1.46408">
        <ele>885</ele>
        <time>2026-06-28T08:37:43.000Z</time>
      </trkpt>
      <trkpt lat="42.74373" lon="1.46405">
        <ele>885</ele>
        <time>2026-06-28T08:37:44.000Z</time>
      </trkpt>
      <trkpt lat="42.74372" lon="1.46403">
        <ele>885</ele>
        <time>2026-06-28T08:37:45.000Z</time>
      </trkpt>
      <trkpt lat="42.74371" lon="1.46402">
        <ele>886</ele>
        <time>2026-06-28T08:37:46.000Z</time>
      </trkpt>
      <trkpt lat="42.74369" lon="1.46398">
        <ele>886</ele>
        <time>2026-06-28T08:37:47.000Z</time>
      </trkpt>
      <trkpt lat="42.74368" lon="1.46395">
        <ele>886</ele>
        <time>2026-06-28T08:37:48.000Z</time>
      </trkpt>
      <trkpt lat="42.74367" lon="1.46392">
        <ele>886</ele>
        <time>2026-06-28T08:37:49.000Z</time>
      </trkpt>
      <trkpt lat="42.74365" lon="1.46389">
        <ele>886</ele>
        <time>2026-06-28T08:37:50.000Z</time>
      </trkpt>
      <trkpt lat="42.74364" lon="1.46386">
        <ele>886</ele>
        <time>2026-06-28T08:37:51.000Z</time>
      </trkpt>
      <trkpt lat="42.74363" lon="1.46383">
        <ele>886</ele>
        <time>2026-06-28T08:37:52.000Z</time>
      </trkpt>
      <trkpt lat="42.74363" lon="1.4638">
        <ele>887</ele>
        <time>2026-06-28T08:37:53.000Z</time>
      </trkpt>
      <trkpt lat="42.74362" lon="1.46377">
        <ele>887</ele>
        <time>2026-06-28T08:37:54.000Z</time>
      </trkpt>
      <trkpt lat="42.74361" lon="1.46375">
        <ele>888</ele>
        <time>2026-06-28T08:37:55.000Z</time>
      </trkpt>
      <trkpt lat="42.74359" lon="1.46372">
        <ele>888</ele>
        <time>2026-06-28T08:37:56.000Z</time>
      </trkpt>
      <trkpt lat="42.74359" lon="1.46369">
        <ele>889</ele>
        <time>2026-06-28T08:37:57.000Z</time>
      </trkpt>
      <trkpt lat="42.74358" lon="1.46365">
        <ele>888</ele>
        <time>2026-06-28T08:37:58.000Z</time>
      </trkpt>
      <trkpt lat="42.74357" lon="1.46363">
        <ele>889</ele>
        <time>2026-06-28T08:37:59.000Z</time>
      </trkpt>
      <trkpt lat="42.74357" lon="1.4636">
        <ele>890</ele>
        <time>2026-06-28T08:38:00.000Z</time>
      </trkpt>
      <trkpt lat="42.74356" lon="1.46357">
        <ele>890</ele>
        <time>2026-06-28T08:38:01.000Z</time>
      </trkpt>
      <trkpt lat="42.74355" lon="1.46355">
        <ele>891</ele>
        <time>2026-06-28T08:38:02.000Z</time>
      </trkpt>
      <trkpt lat="42.74354" lon="1.46353">
        <ele>892</ele>
        <time>2026-06-28T08:38:03.000Z</time>
      </trkpt>
      <trkpt lat="42.74353" lon="1.4635">
        <ele>893</ele>
        <time>2026-06-28T08:38:04.000Z</time>
      </trkpt>
      <trkpt lat="42.74352" lon="1.46347">
        <ele>893</ele>
        <time>2026-06-28T08:38:05.000Z</time>
      </trkpt>
      <trkpt lat="42.74351" lon="1.46344">
        <ele>893</ele>
        <time>2026-06-28T08:38:06.000Z</time>
      </trkpt>
      <trkpt lat="42.7435" lon="1.46341">
        <ele>893</ele>
        <time>2026-06-28T08:38:07.000Z</time>
      </trkpt>
      <trkpt lat="42.74348" lon="1.46338">
        <ele>893</ele>
        <time>2026-06-28T08:38:08.000Z</time>
      </trkpt>
      <trkpt lat="42.74347" lon="1.46335">
        <ele>894</ele>
        <time>2026-06-28T08:38:09.000Z</time>
      </trkpt>
      <trkpt lat="42.74345" lon="1.46333">
        <ele>894</ele>
        <time>2026-06-28T08:38:10.000Z</time>
      </trkpt>
      <trkpt lat="42.74344" lon="1.46331">
        <ele>894</ele>
        <time>2026-06-28T08:38:11.000Z</time>
      </trkpt>
      <trkpt lat="42.74342" lon="1.46328">
        <ele>894</ele>
        <time>2026-06-28T08:38:12.000Z</time>
      </trkpt>
      <trkpt lat="42.7434" lon="1.46325">
        <ele>894</ele>
        <time>2026-06-28T08:38:13.000Z</time>
      </trkpt>
      <trkpt lat="42.74339" lon="1.46322">
        <ele>894</ele>
        <time>2026-06-28T08:38:14.000Z</time>
      </trkpt>
      <trkpt lat="42.74337" lon="1.46319">
        <ele>894</ele>
        <time>2026-06-28T08:38:15.000Z</time>
      </trkpt>
      <trkpt lat="42.74335" lon="1.46316">
        <ele>894</ele>
        <time>2026-06-28T08:38:16.000Z</time>
      </trkpt>
      <trkpt lat="42.74333" lon="1.46313">
        <ele>894</ele>
        <time>2026-06-28T08:38:17.000Z</time>
      </trkpt>
      <trkpt lat="42.74331" lon="1.46312">
        <ele>894</ele>
        <time>2026-06-28T08:38:18.000Z</time>
      </trkpt>
      <trkpt lat="42.74329" lon="1.4631">
        <ele>894</ele>
        <time>2026-06-28T08:38:19.000Z</time>
      </trkpt>
      <trkpt lat="42.74328" lon="1.46309">
        <ele>894</ele>
        <time>2026-06-28T08:38:20.000Z</time>
      </trkpt>
      <trkpt lat="42.74326" lon="1.46306">
        <ele>894</ele>
        <time>2026-06-28T08:38:21.000Z</time>
      </trkpt>
      <trkpt lat="42.74325" lon="1.46305">
        <ele>894</ele>
        <time>2026-06-28T08:38:22.000Z</time>
      </trkpt>
      <trkpt lat="42.74323" lon="1.46303">
        <ele>894</ele>
        <time>2026-06-28T08:38:23.000Z</time>
      </trkpt>
      <trkpt lat="42.74322" lon="1.46301">
        <ele>894</ele>
        <time>2026-06-28T08:38:24.000Z</time>
      </trkpt>
      <trkpt lat="42.7432" lon="1.46298">
        <ele>894</ele>
        <time>2026-06-28T08:38:25.000Z</time>
      </trkpt>
      <trkpt lat="42.74319" lon="1.46295">
        <ele>894</ele>
        <time>2026-06-28T08:38:26.000Z</time>
      </trkpt>
      <trkpt lat="42.74317" lon="1.46293">
        <ele>894</ele>
        <time>2026-06-28T08:38:27.000Z</time>
      </trkpt>
      <trkpt lat="42.74315" lon="1.4629">
        <ele>894</ele>
        <time>2026-06-28T08:38:28.000Z</time>
      </trkpt>
      <trkpt lat="42.74313" lon="1.46287">
        <ele>894</ele>
        <time>2026-06-28T08:38:29.000Z</time>
      </trkpt>
      <trkpt lat="42.74312" lon="1.46285">
        <ele>895</ele>
        <time>2026-06-28T08:38:30.000Z</time>
      </trkpt>
      <trkpt lat="42.74311" lon="1.46283">
        <ele>895</ele>
        <time>2026-06-28T08:38:31.000Z</time>
      </trkpt>
      <trkpt lat="42.74309" lon="1.46283">
        <ele>894</ele>
        <time>2026-06-28T08:38:32.000Z</time>
      </trkpt>
      <trkpt lat="42.74307" lon="1.46283">
        <ele>894</ele>
        <time>2026-06-28T08:38:33.000Z</time>
      </trkpt>
      <trkpt lat="42.74305" lon="1.46283">
        <ele>894</ele>
        <time>2026-06-28T08:38:34.000Z</time>
      </trkpt>
      <trkpt lat="42.74304" lon="1.46286">
        <ele>895</ele>
        <time>2026-06-28T08:38:35.000Z</time>
      </trkpt>
      <trkpt lat="42.74302" lon="1.46287">
        <ele>894</ele>
        <time>2026-06-28T08:38:36.000Z</time>
      </trkpt>
      <trkpt lat="42.743" lon="1.4629">
        <ele>893</ele>
        <time>2026-06-28T08:38:37.000Z</time>
      </trkpt>
      <trkpt lat="42.74298" lon="1.46292">
        <ele>894</ele>
        <time>2026-06-28T08:38:38.000Z</time>
      </trkpt>
      <trkpt lat="42.74298" lon="1.46295">
        <ele>894</ele>
        <time>2026-06-28T08:38:39.000Z</time>
      </trkpt>
      <trkpt lat="42.74298" lon="1.46299">
        <ele>894</ele>
        <time>2026-06-28T08:38:40.000Z</time>
      </trkpt>
      <trkpt lat="42.74298" lon="1.46302">
        <ele>894</ele>
        <time>2026-06-28T08:38:41.000Z</time>
      </trkpt>
      <trkpt lat="42.74299" lon="1.46304">
        <ele>894</ele>
        <time>2026-06-28T08:38:42.000Z</time>
      </trkpt>
      <trkpt lat="42.743" lon="1.46307">
        <ele>893</ele>
        <time>2026-06-28T08:38:43.000Z</time>
      </trkpt>
      <trkpt lat="42.743" lon="1.4631">
        <ele>893</ele>
        <time>2026-06-28T08:38:44.000Z</time>
      </trkpt>
      <trkpt lat="42.74302" lon="1.46313">
        <ele>893</ele>
        <time>2026-06-28T08:38:45.000Z</time>
      </trkpt>
      <trkpt lat="42.74303" lon="1.46315">
        <ele>894</ele>
        <time>2026-06-28T08:38:46.000Z</time>
      </trkpt>
      <trkpt lat="42.74305" lon="1.46318">
        <ele>894</ele>
        <time>2026-06-28T08:38:47.000Z</time>
      </trkpt>
      <trkpt lat="42.74305" lon="1.46321">
        <ele>894</ele>
        <time>2026-06-28T08:38:48.000Z</time>
      </trkpt>
      <trkpt lat="42.74307" lon="1.46324">
        <ele>895</ele>
        <time>2026-06-28T08:38:49.000Z</time>
      </trkpt>
      <trkpt lat="42.74308" lon="1.46327">
        <ele>894</ele>
        <time>2026-06-28T08:38:50.000Z</time>
      </trkpt>
      <trkpt lat="42.74309" lon="1.4633">
        <ele>894</ele>
        <time>2026-06-28T08:38:51.000Z</time>
      </trkpt>
      <trkpt lat="42.74311" lon="1.46333">
        <ele>894</ele>
        <time>2026-06-28T08:38:52.000Z</time>
      </trkpt>
      <trkpt lat="42.74312" lon="1.46335">
        <ele>894</ele>
        <time>2026-06-28T08:38:53.000Z</time>
      </trkpt>
      <trkpt lat="42.74313" lon="1.46339">
        <ele>894</ele>
        <time>2026-06-28T08:38:54.000Z</time>
      </trkpt>
      <trkpt lat="42.74314" lon="1.46342">
        <ele>894</ele>
        <time>2026-06-28T08:38:55.000Z</time>
      </trkpt>
      <trkpt lat="42.74313" lon="1.46345">
        <ele>894</ele>
        <time>2026-06-28T08:38:56.000Z</time>
      </trkpt>
      <trkpt lat="42.74311" lon="1.46348">
        <ele>894</ele>
        <time>2026-06-28T08:38:57.000Z</time>
      </trkpt>
      <trkpt lat="42.74309" lon="1.4635">
        <ele>894</ele>
        <time>2026-06-28T08:38:58.000Z</time>
      </trkpt>
      <trkpt lat="42.74308" lon="1.46352">
        <ele>894</ele>
        <time>2026-06-28T08:38:59.000Z</time>
      </trkpt>
      <trkpt lat="42.74305" lon="1.46352">
        <ele>893</ele>
        <time>2026-06-28T08:39:00.000Z</time>
      </trkpt>
      <trkpt lat="42.74303" lon="1.46351">
        <ele>893</ele>
        <time>2026-06-28T08:39:01.000Z</time>
      </trkpt>
      <trkpt lat="42.74301" lon="1.4635">
        <ele>893</ele>
        <time>2026-06-28T08:39:02.000Z</time>
      </trkpt>
      <trkpt lat="42.743" lon="1.4635">
        <ele>894</ele>
        <time>2026-06-28T08:39:03.000Z</time>
      </trkpt>
      <trkpt lat="42.74298" lon="1.46349">
        <ele>894</ele>
        <time>2026-06-28T08:39:04.000Z</time>
      </trkpt>
      <trkpt lat="42.74297" lon="1.46347">
        <ele>895</ele>
        <time>2026-06-28T08:39:05.000Z</time>
      </trkpt>
      <trkpt lat="42.74295" lon="1.46344">
        <ele>894</ele>
        <time>2026-06-28T08:39:06.000Z</time>
      </trkpt>
      <trkpt lat="42.74295" lon="1.46342">
        <ele>894</ele>
        <time>2026-06-28T08:39:07.000Z</time>
      </trkpt>
      <trkpt lat="42.74294" lon="1.46339">
        <ele>894</ele>
        <time>2026-06-28T08:39:08.000Z</time>
      </trkpt>
      <trkpt lat="42.74294" lon="1.46336">
        <ele>895</ele>
        <time>2026-06-28T08:39:09.000Z</time>
      </trkpt>
      <trkpt lat="42.74293" lon="1.46334">
        <ele>895</ele>
        <time>2026-06-28T08:39:10.000Z</time>
      </trkpt>
      <trkpt lat="42.74291" lon="1.46332">
        <ele>895</ele>
        <time>2026-06-28T08:39:11.000Z</time>
      </trkpt>
      <trkpt lat="42.7429" lon="1.46329">
        <ele>896</ele>
        <time>2026-06-28T08:39:12.000Z</time>
      </trkpt>
      <trkpt lat="42.74288" lon="1.46327">
        <ele>896</ele>
        <time>2026-06-28T08:39:13.000Z</time>
      </trkpt>
      <trkpt lat="42.74287" lon="1.46325">
        <ele>897</ele>
        <time>2026-06-28T08:39:14.000Z</time>
      </trkpt>
      <trkpt lat="42.74286" lon="1.46322">
        <ele>897</ele>
        <time>2026-06-28T08:39:15.000Z</time>
      </trkpt>
      <trkpt lat="42.74285" lon="1.4632">
        <ele>898</ele>
        <time>2026-06-28T08:39:16.000Z</time>
      </trkpt>
      <trkpt lat="42.74283" lon="1.46317">
        <ele>899</ele>
        <time>2026-06-28T08:39:17.000Z</time>
      </trkpt>
      <trkpt lat="42.74282" lon="1.46315">
        <ele>899</ele>
        <time>2026-06-28T08:39:18.000Z</time>
      </trkpt>
      <trkpt lat="42.7428" lon="1.46313">
        <ele>899</ele>
        <time>2026-06-28T08:39:19.000Z</time>
      </trkpt>
      <trkpt lat="42.74278" lon="1.46311">
        <ele>899</ele>
        <time>2026-06-28T08:39:20.000Z</time>
      </trkpt>
      <trkpt lat="42.74277" lon="1.46309">
        <ele>900</ele>
        <time>2026-06-28T08:39:21.000Z</time>
      </trkpt>
      <trkpt lat="42.74275" lon="1.46306">
        <ele>900</ele>
        <time>2026-06-28T08:39:22.000Z</time>
      </trkpt>
      <trkpt lat="42.74274" lon="1.46304">
        <ele>900</ele>
        <time>2026-06-28T08:39:23.000Z</time>
      </trkpt>
      <trkpt lat="42.74273" lon="1.46301">
        <ele>902</ele>
        <time>2026-06-28T08:39:24.000Z</time>
      </trkpt>
      <trkpt lat="42.74271" lon="1.46299">
        <ele>902</ele>
        <time>2026-06-28T08:39:25.000Z</time>
      </trkpt>
      <trkpt lat="42.7427" lon="1.46296">
        <ele>902</ele>
        <time>2026-06-28T08:39:26.000Z</time>
      </trkpt>
      <trkpt lat="42.74268" lon="1.46293">
        <ele>902</ele>
        <time>2026-06-28T08:39:27.000Z</time>
      </trkpt>
      <trkpt lat="42.74267" lon="1.46291">
        <ele>902</ele>
        <time>2026-06-28T08:39:28.000Z</time>
      </trkpt>
      <trkpt lat="42.74265" lon="1.46289">
        <ele>903</ele>
        <time>2026-06-28T08:39:29.000Z</time>
      </trkpt>
      <trkpt lat="42.74263" lon="1.46287">
        <ele>903</ele>
        <time>2026-06-28T08:39:30.000Z</time>
      </trkpt>
      <trkpt lat="42.74262" lon="1.46285">
        <ele>903</ele>
        <time>2026-06-28T08:39:31.000Z</time>
      </trkpt>
      <trkpt lat="42.74261" lon="1.46282">
        <ele>904</ele>
        <time>2026-06-28T08:39:32.000Z</time>
      </trkpt>
      <trkpt lat="42.74259" lon="1.4628">
        <ele>903</ele>
        <time>2026-06-28T08:39:33.000Z</time>
      </trkpt>
      <trkpt lat="42.74258" lon="1.46278">
        <ele>903</ele>
        <time>2026-06-28T08:39:34.000Z</time>
      </trkpt>
      <trkpt lat="42.74256" lon="1.46276">
        <ele>903</ele>
        <time>2026-06-28T08:39:35.000Z</time>
      </trkpt>
      <trkpt lat="42.74255" lon="1.46274">
        <ele>904</ele>
        <time>2026-06-28T08:39:36.000Z</time>
      </trkpt>
      <trkpt lat="42.74253" lon="1.46272">
        <ele>904</ele>
        <time>2026-06-28T08:39:37.000Z</time>
      </trkpt>
      <trkpt lat="42.74252" lon="1.4627">
        <ele>905</ele>
        <time>2026-06-28T08:39:38.000Z</time>
      </trkpt>
      <trkpt lat="42.7425" lon="1.46269">
        <ele>904</ele>
        <time>2026-06-28T08:39:39.000Z</time>
      </trkpt>
      <trkpt lat="42.74249" lon="1.46267">
        <ele>904</ele>
        <time>2026-06-28T08:39:40.000Z</time>
      </trkpt>
      <trkpt lat="42.74247" lon="1.46265">
        <ele>905</ele>
        <time>2026-06-28T08:39:41.000Z</time>
      </trkpt>
      <trkpt lat="42.74245" lon="1.46264">
        <ele>905</ele>
        <time>2026-06-28T08:39:42.000Z</time>
      </trkpt>
      <trkpt lat="42.74244" lon="1.46263">
        <ele>906</ele>
        <time>2026-06-28T08:39:43.000Z</time>
      </trkpt>
      <trkpt lat="42.74242" lon="1.46262">
        <ele>906</ele>
        <time>2026-06-28T08:39:44.000Z</time>
      </trkpt>
      <trkpt lat="42.7424" lon="1.46261">
        <ele>906</ele>
        <time>2026-06-28T08:39:45.000Z</time>
      </trkpt>
      <trkpt lat="42.74238" lon="1.46259">
        <ele>906</ele>
        <time>2026-06-28T08:39:46.000Z</time>
      </trkpt>
      <trkpt lat="42.74237" lon="1.46258">
        <ele>907</ele>
        <time>2026-06-28T08:39:47.000Z</time>
      </trkpt>
      <trkpt lat="42.74235" lon="1.46257">
        <ele>907</ele>
        <time>2026-06-28T08:39:48.000Z</time>
      </trkpt>
      <trkpt lat="42.74233" lon="1.46254">
        <ele>906</ele>
        <time>2026-06-28T08:39:49.000Z</time>
      </trkpt>
      <trkpt lat="42.7423" lon="1.46253">
        <ele>906</ele>
        <time>2026-06-28T08:39:50.000Z</time>
      </trkpt>
      <trkpt lat="42.74228" lon="1.46251">
        <ele>906</ele>
        <time>2026-06-28T08:39:51.000Z</time>
      </trkpt>
      <trkpt lat="42.74227" lon="1.4625">
        <ele>907</ele>
        <time>2026-06-28T08:39:52.000Z</time>
      </trkpt>
      <trkpt lat="42.74225" lon="1.46249">
        <ele>907</ele>
        <time>2026-06-28T08:39:53.000Z</time>
      </trkpt>
      <trkpt lat="42.74223" lon="1.46248">
        <ele>907</ele>
        <time>2026-06-28T08:39:54.000Z</time>
      </trkpt>
      <trkpt lat="42.74221" lon="1.46247">
        <ele>907</ele>
        <time>2026-06-28T08:39:55.000Z</time>
      </trkpt>
      <trkpt lat="42.74219" lon="1.46247">
        <ele>907</ele>
        <time>2026-06-28T08:39:56.000Z</time>
      </trkpt>
      <trkpt lat="42.74217" lon="1.46245">
        <ele>908</ele>
        <time>2026-06-28T08:39:57.000Z</time>
      </trkpt>
      <trkpt lat="42.74215" lon="1.46244">
        <ele>907</ele>
        <time>2026-06-28T08:39:58.000Z</time>
      </trkpt>
      <trkpt lat="42.74214" lon="1.46243">
        <ele>908</ele>
        <time>2026-06-28T08:39:59.000Z</time>
      </trkpt>
      <trkpt lat="42.74212" lon="1.46242">
        <ele>907</ele>
        <time>2026-06-28T08:40:00.000Z</time>
      </trkpt>
      <trkpt lat="42.74209" lon="1.46241">
        <ele>908</ele>
        <time>2026-06-28T08:40:01.000Z</time>
      </trkpt>
      <trkpt lat="42.74207" lon="1.4624">
        <ele>908</ele>
        <time>2026-06-28T08:40:02.000Z</time>
      </trkpt>
      <trkpt lat="42.74206" lon="1.46239">
        <ele>908</ele>
        <time>2026-06-28T08:40:03.000Z</time>
      </trkpt>
      <trkpt lat="42.74204" lon="1.46238">
        <ele>909</ele>
        <time>2026-06-28T08:40:04.000Z</time>
      </trkpt>
      <trkpt lat="42.74202" lon="1.46237">
        <ele>909</ele>
        <time>2026-06-28T08:40:05.000Z</time>
      </trkpt>
      <trkpt lat="42.74199" lon="1.46236">
        <ele>909</ele>
        <time>2026-06-28T08:40:06.000Z</time>
      </trkpt>
      <trkpt lat="42.74197" lon="1.46235">
        <ele>910</ele>
        <time>2026-06-28T08:40:07.000Z</time>
      </trkpt>
      <trkpt lat="42.74195" lon="1.46234">
        <ele>910</ele>
        <time>2026-06-28T08:40:08.000Z</time>
      </trkpt>
      <trkpt lat="42.74193" lon="1.46233">
        <ele>910</ele>
        <time>2026-06-28T08:40:09.000Z</time>
      </trkpt>
      <trkpt lat="42.74192" lon="1.46232">
        <ele>910</ele>
        <time>2026-06-28T08:40:10.000Z</time>
      </trkpt>
      <trkpt lat="42.74189" lon="1.46231">
        <ele>910</ele>
        <time>2026-06-28T08:40:11.000Z</time>
      </trkpt>
      <trkpt lat="42.74187" lon="1.4623">
        <ele>910</ele>
        <time>2026-06-28T08:40:12.000Z</time>
      </trkpt>
      <trkpt lat="42.74185" lon="1.46229">
        <ele>910</ele>
        <time>2026-06-28T08:40:13.000Z</time>
      </trkpt>
      <trkpt lat="42.74183" lon="1.46228">
        <ele>910</ele>
        <time>2026-06-28T08:40:14.000Z</time>
      </trkpt>
      <trkpt lat="42.74181" lon="1.46227">
        <ele>909</ele>
        <time>2026-06-28T08:40:15.000Z</time>
      </trkpt>
      <trkpt lat="42.74179" lon="1.46226">
        <ele>909</ele>
        <time>2026-06-28T08:40:16.000Z</time>
      </trkpt>
      <trkpt lat="42.74176" lon="1.46226">
        <ele>909</ele>
        <time>2026-06-28T08:40:17.000Z</time>
      </trkpt>
      <trkpt lat="42.74174" lon="1.46226">
        <ele>909</ele>
        <time>2026-06-28T08:40:18.000Z</time>
      </trkpt>
      <trkpt lat="42.74171" lon="1.46226">
        <ele>909</ele>
        <time>2026-06-28T08:40:19.000Z</time>
      </trkpt>
      <trkpt lat="42.74168" lon="1.46226">
        <ele>908</ele>
        <time>2026-06-28T08:40:20.000Z</time>
      </trkpt>
      <trkpt lat="42.74166" lon="1.46225">
        <ele>909</ele>
        <time>2026-06-28T08:40:21.000Z</time>
      </trkpt>
      <trkpt lat="42.74164" lon="1.46225">
        <ele>909</ele>
        <time>2026-06-28T08:40:22.000Z</time>
      </trkpt>
      <trkpt lat="42.74161" lon="1.46223">
        <ele>909</ele>
        <time>2026-06-28T08:40:23.000Z</time>
      </trkpt>
      <trkpt lat="42.7416" lon="1.46222">
        <ele>909</ele>
        <time>2026-06-28T08:40:24.000Z</time>
      </trkpt>
      <trkpt lat="42.74159" lon="1.4622">
        <ele>909</ele>
        <time>2026-06-28T08:40:25.000Z</time>
      </trkpt>
      <trkpt lat="42.74157" lon="1.46218">
        <ele>911</ele>
        <time>2026-06-28T08:40:26.000Z</time>
      </trkpt>
      <trkpt lat="42.74156" lon="1.46215">
        <ele>912</ele>
        <time>2026-06-28T08:40:27.000Z</time>
      </trkpt>
      <trkpt lat="42.74155" lon="1.46213">
        <ele>911</ele>
        <time>2026-06-28T08:40:28.000Z</time>
      </trkpt>
      <trkpt lat="42.74154" lon="1.46212">
        <ele>911</ele>
        <time>2026-06-28T08:40:29.000Z</time>
      </trkpt>
      <trkpt lat="42.74152" lon="1.4621">
        <ele>912</ele>
        <time>2026-06-28T08:40:30.000Z</time>
      </trkpt>
      <trkpt lat="42.7415" lon="1.46209">
        <ele>912</ele>
        <time>2026-06-28T08:40:31.000Z</time>
      </trkpt>
      <trkpt lat="42.74148" lon="1.46207">
        <ele>912</ele>
        <time>2026-06-28T08:40:32.000Z</time>
      </trkpt>
      <trkpt lat="42.74146" lon="1.46206">
        <ele>912</ele>
        <time>2026-06-28T08:40:33.000Z</time>
      </trkpt>
      <trkpt lat="42.74144" lon="1.46205">
        <ele>913</ele>
        <time>2026-06-28T08:40:34.000Z</time>
      </trkpt>
      <trkpt lat="42.74142" lon="1.46204">
        <ele>913</ele>
        <time>2026-06-28T08:40:35.000Z</time>
      </trkpt>
      <trkpt lat="42.74141" lon="1.46203">
        <ele>913</ele>
        <time>2026-06-28T08:40:36.000Z</time>
      </trkpt>
      <trkpt lat="42.74139" lon="1.46202">
        <ele>914</ele>
        <time>2026-06-28T08:40:37.000Z</time>
      </trkpt>
      <trkpt lat="42.74136" lon="1.46201">
        <ele>914</ele>
        <time>2026-06-28T08:40:38.000Z</time>
      </trkpt>
      <trkpt lat="42.74134" lon="1.462">
        <ele>914</ele>
        <time>2026-06-28T08:40:39.000Z</time>
      </trkpt>
      <trkpt lat="42.74132" lon="1.46199">
        <ele>914</ele>
        <time>2026-06-28T08:40:40.000Z</time>
      </trkpt>
      <trkpt lat="42.74129" lon="1.46199">
        <ele>914</ele>
        <time>2026-06-28T08:40:41.000Z</time>
      </trkpt>
      <trkpt lat="42.74127" lon="1.46199">
        <ele>914</ele>
        <time>2026-06-28T08:40:42.000Z</time>
      </trkpt>
      <trkpt lat="42.74124" lon="1.46199">
        <ele>915</ele>
        <time>2026-06-28T08:40:43.000Z</time>
      </trkpt>
      <trkpt lat="42.74122" lon="1.46199">
        <ele>915</ele>
        <time>2026-06-28T08:40:44.000Z</time>
      </trkpt>
      <trkpt lat="42.7412" lon="1.46199">
        <ele>916</ele>
        <time>2026-06-28T08:40:45.000Z</time>
      </trkpt>
      <trkpt lat="42.74118" lon="1.46199">
        <ele>916</ele>
        <time>2026-06-28T08:40:46.000Z</time>
      </trkpt>
      <trkpt lat="42.74116" lon="1.46199">
        <ele>917</ele>
        <time>2026-06-28T08:40:47.000Z</time>
      </trkpt>
      <trkpt lat="42.74114" lon="1.46198">
        <ele>917</ele>
        <time>2026-06-28T08:40:48.000Z</time>
      </trkpt>
      <trkpt lat="42.74111" lon="1.46198">
        <ele>918</ele>
        <time>2026-06-28T08:40:49.000Z</time>
      </trkpt>
      <trkpt lat="42.7411" lon="1.46198">
        <ele>917</ele>
        <time>2026-06-28T08:40:50.000Z</time>
      </trkpt>
      <trkpt lat="42.74108" lon="1.46199">
        <ele>918</ele>
        <time>2026-06-28T08:40:51.000Z</time>
      </trkpt>
      <trkpt lat="42.74105" lon="1.46199">
        <ele>918</ele>
        <time>2026-06-28T08:40:52.000Z</time>
      </trkpt>
      <trkpt lat="42.74103" lon="1.46199">
        <ele>918</ele>
        <time>2026-06-28T08:40:53.000Z</time>
      </trkpt>
      <trkpt lat="42.74101" lon="1.46198">
        <ele>918</ele>
        <time>2026-06-28T08:40:54.000Z</time>
      </trkpt>
      <trkpt lat="42.741" lon="1.46198">
        <ele>919</ele>
        <time>2026-06-28T08:40:55.000Z</time>
      </trkpt>
      <trkpt lat="42.74098" lon="1.46198">
        <ele>919</ele>
        <time>2026-06-28T08:40:56.000Z</time>
      </trkpt>
      <trkpt lat="42.74095" lon="1.46198">
        <ele>919</ele>
        <time>2026-06-28T08:40:57.000Z</time>
      </trkpt>
      <trkpt lat="42.74093" lon="1.46197">
        <ele>918</ele>
        <time>2026-06-28T08:40:58.000Z</time>
      </trkpt>
      <trkpt lat="42.74092" lon="1.46197">
        <ele>919</ele>
        <time>2026-06-28T08:40:59.000Z</time>
      </trkpt>
      <trkpt lat="42.7409" lon="1.46196">
        <ele>919</ele>
        <time>2026-06-28T08:41:00.000Z</time>
      </trkpt>
      <trkpt lat="42.74088" lon="1.46195">
        <ele>919</ele>
        <time>2026-06-28T08:41:01.000Z</time>
      </trkpt>
      <trkpt lat="42.74087" lon="1.46194">
        <ele>920</ele>
        <time>2026-06-28T08:41:02.000Z</time>
      </trkpt>
      <trkpt lat="42.74085" lon="1.46194">
        <ele>920</ele>
        <time>2026-06-28T08:41:03.000Z</time>
      </trkpt>
      <trkpt lat="42.74084" lon="1.46193">
        <ele>920</ele>
        <time>2026-06-28T08:41:04.000Z</time>
      </trkpt>
      <trkpt lat="42.74082" lon="1.46193">
        <ele>920</ele>
        <time>2026-06-28T08:41:05.000Z</time>
      </trkpt>
      <trkpt lat="42.7408" lon="1.46192">
        <ele>920</ele>
        <time>2026-06-28T08:41:06.000Z</time>
      </trkpt>
      <trkpt lat="42.74078" lon="1.46191">
        <ele>920</ele>
        <time>2026-06-28T08:41:07.000Z</time>
      </trkpt>
      <trkpt lat="42.74077" lon="1.4619">
        <ele>921</ele>
        <time>2026-06-28T08:41:08.000Z</time>
      </trkpt>
      <trkpt lat="42.74075" lon="1.46189">
        <ele>921</ele>
        <time>2026-06-28T08:41:09.000Z</time>
      </trkpt>
      <trkpt lat="42.74073" lon="1.46187">
        <ele>921</ele>
        <time>2026-06-28T08:41:10.000Z</time>
      </trkpt>
      <trkpt lat="42.74071" lon="1.46187">
        <ele>921</ele>
        <time>2026-06-28T08:41:11.000Z</time>
      </trkpt>
      <trkpt lat="42.74069" lon="1.46186">
        <ele>922</ele>
        <time>2026-06-28T08:41:12.000Z</time>
      </trkpt>
      <trkpt lat="42.74067" lon="1.46186">
        <ele>922</ele>
        <time>2026-06-28T08:41:13.000Z</time>
      </trkpt>
      <trkpt lat="42.74066" lon="1.46185">
        <ele>923</ele>
        <time>2026-06-28T08:41:14.000Z</time>
      </trkpt>
      <trkpt lat="42.74064" lon="1.46183">
        <ele>923</ele>
        <time>2026-06-28T08:41:15.000Z</time>
      </trkpt>
      <trkpt lat="42.74062" lon="1.46183">
        <ele>923</ele>
        <time>2026-06-28T08:41:16.000Z</time>
      </trkpt>
      <trkpt lat="42.74061" lon="1.46182">
        <ele>923</ele>
        <time>2026-06-28T08:41:17.000Z</time>
      </trkpt>
      <trkpt lat="42.74059" lon="1.46181">
        <ele>923</ele>
        <time>2026-06-28T08:41:18.000Z</time>
      </trkpt>
      <trkpt lat="42.74056" lon="1.4618">
        <ele>923</ele>
        <time>2026-06-28T08:41:19.000Z</time>
      </trkpt>
      <trkpt lat="42.74054" lon="1.4618">
        <ele>923</ele>
        <time>2026-06-28T08:41:20.000Z</time>
      </trkpt>
      <trkpt lat="42.74053" lon="1.46179">
        <ele>924</ele>
        <time>2026-06-28T08:41:21.000Z</time>
      </trkpt>
      <trkpt lat="42.74051" lon="1.46178">
        <ele>924</ele>
        <time>2026-06-28T08:41:22.000Z</time>
      </trkpt>
      <trkpt lat="42.74049" lon="1.46177">
        <ele>924</ele>
        <time>2026-06-28T08:41:23.000Z</time>
      </trkpt>
      <trkpt lat="42.74048" lon="1.46176">
        <ele>925</ele>
        <time>2026-06-28T08:41:24.000Z</time>
      </trkpt>
      <trkpt lat="42.74046" lon="1.46175">
        <ele>925</ele>
        <time>2026-06-28T08:41:25.000Z</time>
      </trkpt>
      <trkpt lat="42.74045" lon="1.46174">
        <ele>926</ele>
        <time>2026-06-28T08:41:26.000Z</time>
      </trkpt>
      <trkpt lat="42.74044" lon="1.46173">
        <ele>927</ele>
        <time>2026-06-28T08:41:27.000Z</time>
      </trkpt>
      <trkpt lat="42.74042" lon="1.46172">
        <ele>927</ele>
        <time>2026-06-28T08:41:28.000Z</time>
      </trkpt>
      <trkpt lat="42.74041" lon="1.4617">
        <ele>927</ele>
        <time>2026-06-28T08:41:29.000Z</time>
      </trkpt>
      <trkpt lat="42.7404" lon="1.46169">
        <ele>928</ele>
        <time>2026-06-28T08:41:30.000Z</time>
      </trkpt>
      <trkpt lat="42.74038" lon="1.46168">
        <ele>928</ele>
        <time>2026-06-28T08:41:31.000Z</time>
      </trkpt>
      <trkpt lat="42.74036" lon="1.46166">
        <ele>928</ele>
        <time>2026-06-28T08:41:32.000Z</time>
      </trkpt>
      <trkpt lat="42.74034" lon="1.46165">
        <ele>928</ele>
        <time>2026-06-28T08:41:33.000Z</time>
      </trkpt>
      <trkpt lat="42.74032" lon="1.46164">
        <ele>928</ele>
        <time>2026-06-28T08:41:34.000Z</time>
      </trkpt>
      <trkpt lat="42.74031" lon="1.46163">
        <ele>928</ele>
        <time>2026-06-28T08:41:35.000Z</time>
      </trkpt>
      <trkpt lat="42.7403" lon="1.46162">
        <ele>929</ele>
        <time>2026-06-28T08:41:36.000Z</time>
      </trkpt>
      <trkpt lat="42.74028" lon="1.46161">
        <ele>929</ele>
        <time>2026-06-28T08:41:37.000Z</time>
      </trkpt>
      <trkpt lat="42.74026" lon="1.46159">
        <ele>930</ele>
        <time>2026-06-28T08:41:38.000Z</time>
      </trkpt>
      <trkpt lat="42.74025" lon="1.46158">
        <ele>930</ele>
        <time>2026-06-28T08:41:39.000Z</time>
      </trkpt>
      <trkpt lat="42.74022" lon="1.46158">
        <ele>929</ele>
        <time>2026-06-28T08:41:40.000Z</time>
      </trkpt>
      <trkpt lat="42.7402" lon="1.46157">
        <ele>930</ele>
        <time>2026-06-28T08:41:41.000Z</time>
      </trkpt>
      <trkpt lat="42.74018" lon="1.46156">
        <ele>930</ele>
        <time>2026-06-28T08:41:42.000Z</time>
      </trkpt>
      <trkpt lat="42.74016" lon="1.46154">
        <ele>930</ele>
        <time>2026-06-28T08:41:43.000Z</time>
      </trkpt>
      <trkpt lat="42.74015" lon="1.46152">
        <ele>930</ele>
        <time>2026-06-28T08:41:44.000Z</time>
      </trkpt>
      <trkpt lat="42.74012" lon="1.46151">
        <ele>930</ele>
        <time>2026-06-28T08:41:45.000Z</time>
      </trkpt>
      <trkpt lat="42.7401" lon="1.46149">
        <ele>930</ele>
        <time>2026-06-28T08:41:46.000Z</time>
      </trkpt>
      <trkpt lat="42.74008" lon="1.46148">
        <ele>931</ele>
        <time>2026-06-28T08:41:47.000Z</time>
      </trkpt>
      <trkpt lat="42.74006" lon="1.46147">
        <ele>931</ele>
        <time>2026-06-28T08:41:48.000Z</time>
      </trkpt>
      <trkpt lat="42.74004" lon="1.46146">
        <ele>932</ele>
        <time>2026-06-28T08:41:49.000Z</time>
      </trkpt>
      <trkpt lat="42.74001" lon="1.46144">
        <ele>932</ele>
        <time>2026-06-28T08:41:50.000Z</time>
      </trkpt>
      <trkpt lat="42.73999" lon="1.46143">
        <ele>932</ele>
        <time>2026-06-28T08:41:51.000Z</time>
      </trkpt>
      <trkpt lat="42.73997" lon="1.46142">
        <ele>932</ele>
        <time>2026-06-28T08:41:52.000Z</time>
      </trkpt>
      <trkpt lat="42.73995" lon="1.46141">
        <ele>932</ele>
        <time>2026-06-28T08:41:53.000Z</time>
      </trkpt>
      <trkpt lat="42.73993" lon="1.46139">
        <ele>932</ele>
        <time>2026-06-28T08:41:54.000Z</time>
      </trkpt>
      <trkpt lat="42.73991" lon="1.46139">
        <ele>933</ele>
        <time>2026-06-28T08:41:55.000Z</time>
      </trkpt>
      <trkpt lat="42.73989" lon="1.46137">
        <ele>934</ele>
        <time>2026-06-28T08:41:56.000Z</time>
      </trkpt>
      <trkpt lat="42.73987" lon="1.46136">
        <ele>934</ele>
        <time>2026-06-28T08:41:57.000Z</time>
      </trkpt>
      <trkpt lat="42.73986" lon="1.46134">
        <ele>934</ele>
        <time>2026-06-28T08:41:58.000Z</time>
      </trkpt>
      <trkpt lat="42.73984" lon="1.46133">
        <ele>935</ele>
        <time>2026-06-28T08:41:59.000Z</time>
      </trkpt>
      <trkpt lat="42.73982" lon="1.46131">
        <ele>935</ele>
        <time>2026-06-28T08:42:00.000Z</time>
      </trkpt>
      <trkpt lat="42.7398" lon="1.4613">
        <ele>935</ele>
        <time>2026-06-28T08:42:01.000Z</time>
      </trkpt>
      <trkpt lat="42.73978" lon="1.46129">
        <ele>935</ele>
        <time>2026-06-28T08:42:02.000Z</time>
      </trkpt>
      <trkpt lat="42.73977" lon="1.46127">
        <ele>935</ele>
        <time>2026-06-28T08:42:03.000Z</time>
      </trkpt>
      <trkpt lat="42.73975" lon="1.46126">
        <ele>936</ele>
        <time>2026-06-28T08:42:04.000Z</time>
      </trkpt>
      <trkpt lat="42.73973" lon="1.46125">
        <ele>935</ele>
        <time>2026-06-28T08:42:05.000Z</time>
      </trkpt>
      <trkpt lat="42.73971" lon="1.46124">
        <ele>935</ele>
        <time>2026-06-28T08:42:06.000Z</time>
      </trkpt>
      <trkpt lat="42.73969" lon="1.46124">
        <ele>935</ele>
        <time>2026-06-28T08:42:07.000Z</time>
      </trkpt>
      <trkpt lat="42.73967" lon="1.46123">
        <ele>935</ele>
        <time>2026-06-28T08:42:08.000Z</time>
      </trkpt>
      <trkpt lat="42.73966" lon="1.46122">
        <ele>935</ele>
        <time>2026-06-28T08:42:09.000Z</time>
      </trkpt>
      <trkpt lat="42.73964" lon="1.4612">
        <ele>935</ele>
        <time>2026-06-28T08:42:10.000Z</time>
      </trkpt>
      <trkpt lat="42.73961" lon="1.46118">
        <ele>935</ele>
        <time>2026-06-28T08:42:11.000Z</time>
      </trkpt>
      <trkpt lat="42.7396" lon="1.46117">
        <ele>936</ele>
        <time>2026-06-28T08:42:12.000Z</time>
      </trkpt>
      <trkpt lat="42.73958" lon="1.46116">
        <ele>936</ele>
        <time>2026-06-28T08:42:13.000Z</time>
      </trkpt>
      <trkpt lat="42.73957" lon="1.46113">
        <ele>936</ele>
        <time>2026-06-28T08:42:14.000Z</time>
      </trkpt>
      <trkpt lat="42.73955" lon="1.46112">
        <ele>937</ele>
        <time>2026-06-28T08:42:15.000Z</time>
      </trkpt>
      <trkpt lat="42.73953" lon="1.46111">
        <ele>937</ele>
        <time>2026-06-28T08:42:16.000Z</time>
      </trkpt>
      <trkpt lat="42.7395" lon="1.46111">
        <ele>937</ele>
        <time>2026-06-28T08:42:17.000Z</time>
      </trkpt>
      <trkpt lat="42.73948" lon="1.4611">
        <ele>937</ele>
        <time>2026-06-28T08:42:18.000Z</time>
      </trkpt>
      <trkpt lat="42.73946" lon="1.46109">
        <ele>938</ele>
        <time>2026-06-28T08:42:19.000Z</time>
      </trkpt>
      <trkpt lat="42.73944" lon="1.46109">
        <ele>939</ele>
        <time>2026-06-28T08:42:20.000Z</time>
      </trkpt>
      <trkpt lat="42.73942" lon="1.46108">
        <ele>939</ele>
        <time>2026-06-28T08:42:21.000Z</time>
      </trkpt>
      <trkpt lat="42.7394" lon="1.46107">
        <ele>939</ele>
        <time>2026-06-28T08:42:22.000Z</time>
      </trkpt>
      <trkpt lat="42.73939" lon="1.46106">
        <ele>940</ele>
        <time>2026-06-28T08:42:23.000Z</time>
      </trkpt>
      <trkpt lat="42.73937" lon="1.46105">
        <ele>940</ele>
        <time>2026-06-28T08:42:24.000Z</time>
      </trkpt>
      <trkpt lat="42.73935" lon="1.46105">
        <ele>939</ele>
        <time>2026-06-28T08:42:25.000Z</time>
      </trkpt>
      <trkpt lat="42.73932" lon="1.46104">
        <ele>939</ele>
        <time>2026-06-28T08:42:26.000Z</time>
      </trkpt>
      <trkpt lat="42.7393" lon="1.46103">
        <ele>939</ele>
        <time>2026-06-28T08:42:27.000Z</time>
      </trkpt>
      <trkpt lat="42.73928" lon="1.46103">
        <ele>940</ele>
        <time>2026-06-28T08:42:28.000Z</time>
      </trkpt>
      <trkpt lat="42.73926" lon="1.46101">
        <ele>940</ele>
        <time>2026-06-28T08:42:29.000Z</time>
      </trkpt>
      <trkpt lat="42.73925" lon="1.461">
        <ele>940</ele>
        <time>2026-06-28T08:42:30.000Z</time>
      </trkpt>
      <trkpt lat="42.73922" lon="1.46099">
        <ele>940</ele>
        <time>2026-06-28T08:42:31.000Z</time>
      </trkpt>
      <trkpt lat="42.7392" lon="1.46099">
        <ele>941</ele>
        <time>2026-06-28T08:42:32.000Z</time>
      </trkpt>
      <trkpt lat="42.73918" lon="1.46098">
        <ele>941</ele>
        <time>2026-06-28T08:42:33.000Z</time>
      </trkpt>
      <trkpt lat="42.73917" lon="1.46096">
        <ele>941</ele>
        <time>2026-06-28T08:42:34.000Z</time>
      </trkpt>
      <trkpt lat="42.73915" lon="1.46095">
        <ele>941</ele>
        <time>2026-06-28T08:42:35.000Z</time>
      </trkpt>
      <trkpt lat="42.73912" lon="1.46095">
        <ele>941</ele>
        <time>2026-06-28T08:42:36.000Z</time>
      </trkpt>
      <trkpt lat="42.7391" lon="1.46094">
        <ele>941</ele>
        <time>2026-06-28T08:42:37.000Z</time>
      </trkpt>
      <trkpt lat="42.73908" lon="1.46093">
        <ele>941</ele>
        <time>2026-06-28T08:42:38.000Z</time>
      </trkpt>
      <trkpt lat="42.73907" lon="1.46092">
        <ele>942</ele>
        <time>2026-06-28T08:42:39.000Z</time>
      </trkpt>
      <trkpt lat="42.73905" lon="1.46091">
        <ele>942</ele>
        <time>2026-06-28T08:42:40.000Z</time>
      </trkpt>
      <trkpt lat="42.73902" lon="1.46091">
        <ele>942</ele>
        <time>2026-06-28T08:42:41.000Z</time>
      </trkpt>
      <trkpt lat="42.739" lon="1.4609">
        <ele>943</ele>
        <time>2026-06-28T08:42:42.000Z</time>
      </trkpt>
      <trkpt lat="42.73898" lon="1.46089">
        <ele>944</ele>
        <time>2026-06-28T08:42:43.000Z</time>
      </trkpt>
      <trkpt lat="42.73896" lon="1.46088">
        <ele>943</ele>
        <time>2026-06-28T08:42:44.000Z</time>
      </trkpt>
      <trkpt lat="42.73894" lon="1.46087">
        <ele>944</ele>
        <time>2026-06-28T08:42:45.000Z</time>
      </trkpt>
      <trkpt lat="42.73891" lon="1.46086">
        <ele>944</ele>
        <time>2026-06-28T08:42:46.000Z</time>
      </trkpt>
      <trkpt lat="42.7389" lon="1.46085">
        <ele>944</ele>
        <time>2026-06-28T08:42:47.000Z</time>
      </trkpt>
      <trkpt lat="42.73888" lon="1.46084">
        <ele>944</ele>
        <time>2026-06-28T08:42:48.000Z</time>
      </trkpt>
      <trkpt lat="42.73886" lon="1.46084">
        <ele>944</ele>
        <time>2026-06-28T08:42:49.000Z</time>
      </trkpt>
      <trkpt lat="42.73884" lon="1.46083">
        <ele>944</ele>
        <time>2026-06-28T08:42:50.000Z</time>
      </trkpt>
      <trkpt lat="42.73881" lon="1.46083">
        <ele>943</ele>
        <time>2026-06-28T08:42:51.000Z</time>
      </trkpt>
      <trkpt lat="42.73878" lon="1.46083">
        <ele>943</ele>
        <time>2026-06-28T08:42:52.000Z</time>
      </trkpt>
      <trkpt lat="42.73875" lon="1.46083">
        <ele>944</ele>
        <time>2026-06-28T08:42:53.000Z</time>
      </trkpt>
      <trkpt lat="42.73873" lon="1.46083">
        <ele>944</ele>
        <time>2026-06-28T08:42:54.000Z</time>
      </trkpt>
      <trkpt lat="42.7387" lon="1.46083">
        <ele>944</ele>
        <time>2026-06-28T08:42:55.000Z</time>
      </trkpt>
      <trkpt lat="42.73867" lon="1.46083">
        <ele>944</ele>
        <time>2026-06-28T08:42:56.000Z</time>
      </trkpt>
      <trkpt lat="42.73865" lon="1.46083">
        <ele>943</ele>
        <time>2026-06-28T08:42:57.000Z</time>
      </trkpt>
      <trkpt lat="42.73862" lon="1.46083">
        <ele>944</ele>
        <time>2026-06-28T08:42:58.000Z</time>
      </trkpt>
      <trkpt lat="42.7386" lon="1.46083">
        <ele>944</ele>
        <time>2026-06-28T08:42:59.000Z</time>
      </trkpt>
      <trkpt lat="42.73857" lon="1.46083">
        <ele>944</ele>
        <time>2026-06-28T08:43:00.000Z</time>
      </trkpt>
      <trkpt lat="42.73855" lon="1.46084">
        <ele>945</ele>
        <time>2026-06-28T08:43:01.000Z</time>
      </trkpt>
      <trkpt lat="42.73853" lon="1.46084">
        <ele>945</ele>
        <time>2026-06-28T08:43:02.000Z</time>
      </trkpt>
      <trkpt lat="42.73851" lon="1.46084">
        <ele>945</ele>
        <time>2026-06-28T08:43:03.000Z</time>
      </trkpt>
      <trkpt lat="42.73849" lon="1.46083">
        <ele>945</ele>
        <time>2026-06-28T08:43:04.000Z</time>
      </trkpt>
      <trkpt lat="42.73847" lon="1.46084">
        <ele>945</ele>
        <time>2026-06-28T08:43:05.000Z</time>
      </trkpt>
      <trkpt lat="42.73845" lon="1.46084">
        <ele>946</ele>
        <time>2026-06-28T08:43:06.000Z</time>
      </trkpt>
      <trkpt lat="42.73842" lon="1.46085">
        <ele>946</ele>
        <time>2026-06-28T08:43:07.000Z</time>
      </trkpt>
      <trkpt lat="42.73841" lon="1.46085">
        <ele>947</ele>
        <time>2026-06-28T08:43:08.000Z</time>
      </trkpt>
      <trkpt lat="42.73838" lon="1.46086">
        <ele>947</ele>
        <time>2026-06-28T08:43:09.000Z</time>
      </trkpt>
      <trkpt lat="42.73836" lon="1.46086">
        <ele>947</ele>
        <time>2026-06-28T08:43:10.000Z</time>
      </trkpt>
      <trkpt lat="42.73833" lon="1.46086">
        <ele>947</ele>
        <time>2026-06-28T08:43:11.000Z</time>
      </trkpt>
      <trkpt lat="42.7383" lon="1.46086">
        <ele>947</ele>
        <time>2026-06-28T08:43:12.000Z</time>
      </trkpt>
      <trkpt lat="42.73827" lon="1.46086">
        <ele>947</ele>
        <time>2026-06-28T08:43:13.000Z</time>
      </trkpt>
      <trkpt lat="42.73825" lon="1.46086">
        <ele>946</ele>
        <time>2026-06-28T08:43:14.000Z</time>
      </trkpt>
      <trkpt lat="42.73822" lon="1.46087">
        <ele>947</ele>
        <time>2026-06-28T08:43:15.000Z</time>
      </trkpt>
      <trkpt lat="42.7382" lon="1.46087">
        <ele>948</ele>
        <time>2026-06-28T08:43:16.000Z</time>
      </trkpt>
      <trkpt lat="42.73818" lon="1.46087">
        <ele>947</ele>
        <time>2026-06-28T08:43:17.000Z</time>
      </trkpt>
      <trkpt lat="42.73816" lon="1.46087">
        <ele>948</ele>
        <time>2026-06-28T08:43:18.000Z</time>
      </trkpt>
      <trkpt lat="42.73814" lon="1.46087">
        <ele>947</ele>
        <time>2026-06-28T08:43:19.000Z</time>
      </trkpt>
      <trkpt lat="42.73812" lon="1.46086">
        <ele>947</ele>
        <time>2026-06-28T08:43:20.000Z</time>
      </trkpt>
      <trkpt lat="42.73811" lon="1.46085">
        <ele>948</ele>
        <time>2026-06-28T08:43:21.000Z</time>
      </trkpt>
      <trkpt lat="42.73809" lon="1.46085">
        <ele>948</ele>
        <time>2026-06-28T08:43:22.000Z</time>
      </trkpt>
      <trkpt lat="42.73807" lon="1.46085">
        <ele>948</ele>
        <time>2026-06-28T08:43:23.000Z</time>
      </trkpt>
      <trkpt lat="42.73805" lon="1.46085">
        <ele>948</ele>
        <time>2026-06-28T08:43:24.000Z</time>
      </trkpt>
      <trkpt lat="42.73803" lon="1.46085">
        <ele>948</ele>
        <time>2026-06-28T08:43:25.000Z</time>
      </trkpt>
      <trkpt lat="42.738" lon="1.46086">
        <ele>949</ele>
        <time>2026-06-28T08:43:26.000Z</time>
      </trkpt>
      <trkpt lat="42.73797" lon="1.46086">
        <ele>949</ele>
        <time>2026-06-28T08:43:27.000Z</time>
      </trkpt>
      <trkpt lat="42.73794" lon="1.46086">
        <ele>949</ele>
        <time>2026-06-28T08:43:28.000Z</time>
      </trkpt>
      <trkpt lat="42.73792" lon="1.46087">
        <ele>949</ele>
        <time>2026-06-28T08:43:29.000Z</time>
      </trkpt>
      <trkpt lat="42.7379" lon="1.46087">
        <ele>950</ele>
        <time>2026-06-28T08:43:30.000Z</time>
      </trkpt>
      <trkpt lat="42.73788" lon="1.46087">
        <ele>950</ele>
        <time>2026-06-28T08:43:31.000Z</time>
      </trkpt>
      <trkpt lat="42.73786" lon="1.46088">
        <ele>951</ele>
        <time>2026-06-28T08:43:32.000Z</time>
      </trkpt>
      <trkpt lat="42.73784" lon="1.46088">
        <ele>951</ele>
        <time>2026-06-28T08:43:33.000Z</time>
      </trkpt>
      <trkpt lat="42.73782" lon="1.46088">
        <ele>951</ele>
        <time>2026-06-28T08:43:34.000Z</time>
      </trkpt>
      <trkpt lat="42.73779" lon="1.46087">
        <ele>952</ele>
        <time>2026-06-28T08:43:35.000Z</time>
      </trkpt>
      <trkpt lat="42.73776" lon="1.46086">
        <ele>953</ele>
        <time>2026-06-28T08:43:36.000Z</time>
      </trkpt>
      <trkpt lat="42.73773" lon="1.46086">
        <ele>953</ele>
        <time>2026-06-28T08:43:37.000Z</time>
      </trkpt>
      <trkpt lat="42.73771" lon="1.46087">
        <ele>954</ele>
        <time>2026-06-28T08:43:38.000Z</time>
      </trkpt>
      <trkpt lat="42.73768" lon="1.46087">
        <ele>953</ele>
        <time>2026-06-28T08:43:39.000Z</time>
      </trkpt>
      <trkpt lat="42.73766" lon="1.46087">
        <ele>954</ele>
        <time>2026-06-28T08:43:40.000Z</time>
      </trkpt>
      <trkpt lat="42.73763" lon="1.46088">
        <ele>954</ele>
        <time>2026-06-28T08:43:41.000Z</time>
      </trkpt>
      <trkpt lat="42.73761" lon="1.46087">
        <ele>954</ele>
        <time>2026-06-28T08:43:42.000Z</time>
      </trkpt>
      <trkpt lat="42.73759" lon="1.46087">
        <ele>954</ele>
        <time>2026-06-28T08:43:43.000Z</time>
      </trkpt>
      <trkpt lat="42.73757" lon="1.46087">
        <ele>954</ele>
        <time>2026-06-28T08:43:44.000Z</time>
      </trkpt>
      <trkpt lat="42.73754" lon="1.46086">
        <ele>954</ele>
        <time>2026-06-28T08:43:45.000Z</time>
      </trkpt>
      <trkpt lat="42.73751" lon="1.46086">
        <ele>954</ele>
        <time>2026-06-28T08:43:46.000Z</time>
      </trkpt>
      <trkpt lat="42.73749" lon="1.46085">
        <ele>955</ele>
        <time>2026-06-28T08:43:47.000Z</time>
      </trkpt>
      <trkpt lat="42.73746" lon="1.46084">
        <ele>956</ele>
        <time>2026-06-28T08:43:48.000Z</time>
      </trkpt>
      <trkpt lat="42.73744" lon="1.46084">
        <ele>956</ele>
        <time>2026-06-28T08:43:49.000Z</time>
      </trkpt>
      <trkpt lat="42.73743" lon="1.46083">
        <ele>956</ele>
        <time>2026-06-28T08:43:50.000Z</time>
      </trkpt>
      <trkpt lat="42.73741" lon="1.46082">
        <ele>956</ele>
        <time>2026-06-28T08:43:51.000Z</time>
      </trkpt>
      <trkpt lat="42.73739" lon="1.46081">
        <ele>956</ele>
        <time>2026-06-28T08:43:52.000Z</time>
      </trkpt>
      <trkpt lat="42.73737" lon="1.46081">
        <ele>957</ele>
        <time>2026-06-28T08:43:53.000Z</time>
      </trkpt>
      <trkpt lat="42.73736" lon="1.46081">
        <ele>957</ele>
        <time>2026-06-28T08:43:54.000Z</time>
      </trkpt>
      <trkpt lat="42.73735" lon="1.46081">
        <ele>958</ele>
        <time>2026-06-28T08:43:55.000Z</time>
      </trkpt>
      <trkpt lat="42.73734" lon="1.4608">
        <ele>958</ele>
        <time>2026-06-28T08:43:56.000Z</time>
      </trkpt>
      <trkpt lat="42.73732" lon="1.4608">
        <ele>959</ele>
        <time>2026-06-28T08:43:57.000Z</time>
      </trkpt>
      <trkpt lat="42.7373" lon="1.46079">
        <ele>959</ele>
        <time>2026-06-28T08:43:58.000Z</time>
      </trkpt>
      <trkpt lat="42.73729" lon="1.46079">
        <ele>959</ele>
        <time>2026-06-28T08:43:59.000Z</time>
      </trkpt>
      <trkpt lat="42.73728" lon="1.46078">
        <ele>959</ele>
        <time>2026-06-28T08:44:00.000Z</time>
      </trkpt>
      <trkpt lat="42.73726" lon="1.46077">
        <ele>960</ele>
        <time>2026-06-28T08:44:01.000Z</time>
      </trkpt>
      <trkpt lat="42.73724" lon="1.46077">
        <ele>960</ele>
        <time>2026-06-28T08:44:02.000Z</time>
      </trkpt>
      <trkpt lat="42.73722" lon="1.46077">
        <ele>960</ele>
        <time>2026-06-28T08:44:03.000Z</time>
      </trkpt>
      <trkpt lat="42.7372" lon="1.46076">
        <ele>960</ele>
        <time>2026-06-28T08:44:04.000Z</time>
      </trkpt>
      <trkpt lat="42.73717" lon="1.46075">
        <ele>960</ele>
        <time>2026-06-28T08:44:05.000Z</time>
      </trkpt>
      <trkpt lat="42.73715" lon="1.46075">
        <ele>960</ele>
        <time>2026-06-28T08:44:06.000Z</time>
      </trkpt>
      <trkpt lat="42.73714" lon="1.46075">
        <ele>960</ele>
        <time>2026-06-28T08:44:07.000Z</time>
      </trkpt>
      <trkpt lat="42.73712" lon="1.46076">
        <ele>960</ele>
        <time>2026-06-28T08:44:08.000Z</time>
      </trkpt>
      <trkpt lat="42.73711" lon="1.46077">
        <ele>961</ele>
        <time>2026-06-28T08:44:09.000Z</time>
      </trkpt>
      <trkpt lat="42.73707" lon="1.46078">
        <ele>961</ele>
        <time>2026-06-28T08:44:10.000Z</time>
      </trkpt>
      <trkpt lat="42.73704" lon="1.46078">
        <ele>961</ele>
        <time>2026-06-28T08:44:11.000Z</time>
      </trkpt>
      <trkpt lat="42.73701" lon="1.46078">
        <ele>961</ele>
        <time>2026-06-28T08:44:12.000Z</time>
      </trkpt>
      <trkpt lat="42.73698" lon="1.46077">
        <ele>960</ele>
        <time>2026-06-28T08:44:13.000Z</time>
      </trkpt>
      <trkpt lat="42.73696" lon="1.46077">
        <ele>960</ele>
        <time>2026-06-28T08:44:14.000Z</time>
      </trkpt>
      <trkpt lat="42.73694" lon="1.46076">
        <ele>961</ele>
        <time>2026-06-28T08:44:15.000Z</time>
      </trkpt>
      <trkpt lat="42.73692" lon="1.46075">
        <ele>961</ele>
        <time>2026-06-28T08:44:16.000Z</time>
      </trkpt>
      <trkpt lat="42.73688" lon="1.46076">
        <ele>960</ele>
        <time>2026-06-28T08:44:17.000Z</time>
      </trkpt>
      <trkpt lat="42.73686" lon="1.46075">
        <ele>961</ele>
        <time>2026-06-28T08:44:18.000Z</time>
      </trkpt>
      <trkpt lat="42.73683" lon="1.46075">
        <ele>961</ele>
        <time>2026-06-28T08:44:19.000Z</time>
      </trkpt>
      <trkpt lat="42.73679" lon="1.46076">
        <ele>961</ele>
        <time>2026-06-28T08:44:20.000Z</time>
      </trkpt>
      <trkpt lat="42.73677" lon="1.46075">
        <ele>962</ele>
        <time>2026-06-28T08:44:21.000Z</time>
      </trkpt>
      <trkpt lat="42.73673" lon="1.46076">
        <ele>961</ele>
        <time>2026-06-28T08:44:22.000Z</time>
      </trkpt>
      <trkpt lat="42.7367" lon="1.46076">
        <ele>961</ele>
        <time>2026-06-28T08:44:23.000Z</time>
      </trkpt>
      <trkpt lat="42.73666" lon="1.46077">
        <ele>962</ele>
        <time>2026-06-28T08:44:24.000Z</time>
      </trkpt>
      <trkpt lat="42.73663" lon="1.46076">
        <ele>962</ele>
        <time>2026-06-28T08:44:25.000Z</time>
      </trkpt>
      <trkpt lat="42.7366" lon="1.46076">
        <ele>961</ele>
        <time>2026-06-28T08:44:26.000Z</time>
      </trkpt>
      <trkpt lat="42.73657" lon="1.46075">
        <ele>961</ele>
        <time>2026-06-28T08:44:27.000Z</time>
      </trkpt>
      <trkpt lat="42.73653" lon="1.46074">
        <ele>962</ele>
        <time>2026-06-28T08:44:28.000Z</time>
      </trkpt>
      <trkpt lat="42.7365" lon="1.46073">
        <ele>962</ele>
        <time>2026-06-28T08:44:29.000Z</time>
      </trkpt>
      <trkpt lat="42.73648" lon="1.46072">
        <ele>962</ele>
        <time>2026-06-28T08:44:30.000Z</time>
      </trkpt>
      <trkpt lat="42.73645" lon="1.46072">
        <ele>963</ele>
        <time>2026-06-28T08:44:31.000Z</time>
      </trkpt>
      <trkpt lat="42.73642" lon="1.46071">
        <ele>964</ele>
        <time>2026-06-28T08:44:32.000Z</time>
      </trkpt>
      <trkpt lat="42.73638" lon="1.46071">
        <ele>964</ele>
        <time>2026-06-28T08:44:33.000Z</time>
      </trkpt>
      <trkpt lat="42.73635" lon="1.46071">
        <ele>965</ele>
        <time>2026-06-28T08:44:34.000Z</time>
      </trkpt>
      <trkpt lat="42.73632" lon="1.4607">
        <ele>965</ele>
        <time>2026-06-28T08:44:35.000Z</time>
      </trkpt>
      <trkpt lat="42.7363" lon="1.46068">
        <ele>966</ele>
        <time>2026-06-28T08:44:36.000Z</time>
      </trkpt>
      <trkpt lat="42.73627" lon="1.46067">
        <ele>966</ele>
        <time>2026-06-28T08:44:37.000Z</time>
      </trkpt>
      <trkpt lat="42.73625" lon="1.46066">
        <ele>966</ele>
        <time>2026-06-28T08:44:38.000Z</time>
      </trkpt>
      <trkpt lat="42.73622" lon="1.46065">
        <ele>966</ele>
        <time>2026-06-28T08:44:39.000Z</time>
      </trkpt>
      <trkpt lat="42.7362" lon="1.46063">
        <ele>965</ele>
        <time>2026-06-28T08:44:40.000Z</time>
      </trkpt>
      <trkpt lat="42.73618" lon="1.46061">
        <ele>966</ele>
        <time>2026-06-28T08:44:41.000Z</time>
      </trkpt>
      <trkpt lat="42.73616" lon="1.46059">
        <ele>966</ele>
        <time>2026-06-28T08:44:42.000Z</time>
      </trkpt>
      <trkpt lat="42.73614" lon="1.46057">
        <ele>966</ele>
        <time>2026-06-28T08:44:43.000Z</time>
      </trkpt>
      <trkpt lat="42.73612" lon="1.46055">
        <ele>965</ele>
        <time>2026-06-28T08:44:44.000Z</time>
      </trkpt>
      <trkpt lat="42.7361" lon="1.46052">
        <ele>965</ele>
        <time>2026-06-28T08:44:45.000Z</time>
      </trkpt>
      <trkpt lat="42.73607" lon="1.4605">
        <ele>965</ele>
        <time>2026-06-28T08:44:46.000Z</time>
      </trkpt>
      <trkpt lat="42.73604" lon="1.46049">
        <ele>964</ele>
        <time>2026-06-28T08:44:47.000Z</time>
      </trkpt>
      <trkpt lat="42.73601" lon="1.46046">
        <ele>965</ele>
        <time>2026-06-28T08:44:48.000Z</time>
      </trkpt>
      <trkpt lat="42.73599" lon="1.46042">
        <ele>966</ele>
        <time>2026-06-28T08:44:49.000Z</time>
      </trkpt>
      <trkpt lat="42.73596" lon="1.4604">
        <ele>966</ele>
        <time>2026-06-28T08:44:50.000Z</time>
      </trkpt>
      <trkpt lat="42.73595" lon="1.46037">
        <ele>966</ele>
        <time>2026-06-28T08:44:51.000Z</time>
      </trkpt>
      <trkpt lat="42.73593" lon="1.46034">
        <ele>965</ele>
        <time>2026-06-28T08:44:52.000Z</time>
      </trkpt>
      <trkpt lat="42.73591" lon="1.4603">
        <ele>966</ele>
        <time>2026-06-28T08:44:53.000Z</time>
      </trkpt>
      <trkpt lat="42.73588" lon="1.46025">
        <ele>968</ele>
        <time>2026-06-28T08:44:54.000Z</time>
      </trkpt>
      <trkpt lat="42.73584" lon="1.46022">
        <ele>970</ele>
        <time>2026-06-28T08:44:55.000Z</time>
      </trkpt>
      <trkpt lat="42.73582" lon="1.46018">
        <ele>971</ele>
        <time>2026-06-28T08:44:56.000Z</time>
      </trkpt>
      <trkpt lat="42.7358" lon="1.46014">
        <ele>971</ele>
        <time>2026-06-28T08:44:57.000Z</time>
      </trkpt>
      <trkpt lat="42.73577" lon="1.4601">
        <ele>970</ele>
        <time>2026-06-28T08:44:58.000Z</time>
      </trkpt>
      <trkpt lat="42.73573" lon="1.46006">
        <ele>970</ele>
        <time>2026-06-28T08:44:59.000Z</time>
      </trkpt>
      <trkpt lat="42.7357" lon="1.46002">
        <ele>969</ele>
        <time>2026-06-28T08:45:00.000Z</time>
      </trkpt>
      <trkpt lat="42.73567" lon="1.45997">
        <ele>969</ele>
        <time>2026-06-28T08:45:01.000Z</time>
      </trkpt>
      <trkpt lat="42.73563" lon="1.45993">
        <ele>969</ele>
        <time>2026-06-28T08:45:02.000Z</time>
      </trkpt>
      <trkpt lat="42.73559" lon="1.45988">
        <ele>970</ele>
        <time>2026-06-28T08:45:03.000Z</time>
      </trkpt>
      <trkpt lat="42.73556" lon="1.45982">
        <ele>970</ele>
        <time>2026-06-28T08:45:04.000Z</time>
      </trkpt>
      <trkpt lat="42.73552" lon="1.45976">
        <ele>970</ele>
        <time>2026-06-28T08:45:05.000Z</time>
      </trkpt>
      <trkpt lat="42.73549" lon="1.45968">
        <ele>971</ele>
        <time>2026-06-28T08:45:06.000Z</time>
      </trkpt>
      <trkpt lat="42.73546" lon="1.45961">
        <ele>972</ele>
        <time>2026-06-28T08:45:07.000Z</time>
      </trkpt>
      <trkpt lat="42.73541" lon="1.45955">
        <ele>973</ele>
        <time>2026-06-28T08:45:08.000Z</time>
      </trkpt>
      <trkpt lat="42.73537" lon="1.45948">
        <ele>973</ele>
        <time>2026-06-28T08:45:09.000Z</time>
      </trkpt>
      <trkpt lat="42.73534" lon="1.45942">
        <ele>974</ele>
        <time>2026-06-28T08:45:10.000Z</time>
      </trkpt>
      <trkpt lat="42.7353" lon="1.45936">
        <ele>974</ele>
        <time>2026-06-28T08:45:11.000Z</time>
      </trkpt>
      <trkpt lat="42.73527" lon="1.4593">
        <ele>974</ele>
        <time>2026-06-28T08:45:12.000Z</time>
      </trkpt>
      <trkpt lat="42.73524" lon="1.45925">
        <ele>974</ele>
        <time>2026-06-28T08:45:13.000Z</time>
      </trkpt>
      <trkpt lat="42.73521" lon="1.4592">
        <ele>974</ele>
        <time>2026-06-28T08:45:14.000Z</time>
      </trkpt>
      <trkpt lat="42.73518" lon="1.45915">
        <ele>973</ele>
        <time>2026-06-28T08:45:15.000Z</time>
      </trkpt>
      <trkpt lat="42.73515" lon="1.4591">
        <ele>973</ele>
        <time>2026-06-28T08:45:16.000Z</time>
      </trkpt>
      <trkpt lat="42.73513" lon="1.45905">
        <ele>972</ele>
        <time>2026-06-28T08:45:17.000Z</time>
      </trkpt>
      <trkpt lat="42.7351" lon="1.45901">
        <ele>972</ele>
        <time>2026-06-28T08:45:18.000Z</time>
      </trkpt>
      <trkpt lat="42.73508" lon="1.45898">
        <ele>972</ele>
        <time>2026-06-28T08:45:19.000Z</time>
      </trkpt>
      <trkpt lat="42.73506" lon="1.45894">
        <ele>971</ele>
        <time>2026-06-28T08:45:20.000Z</time>
      </trkpt>
      <trkpt lat="42.73505" lon="1.45892">
        <ele>971</ele>
        <time>2026-06-28T08:45:21.000Z</time>
      </trkpt>
      <trkpt lat="42.73504" lon="1.4589">
        <ele>971</ele>
        <time>2026-06-28T08:45:22.000Z</time>
      </trkpt>
      <trkpt lat="42.73502" lon="1.45887">
        <ele>971</ele>
        <time>2026-06-28T08:45:23.000Z</time>
      </trkpt>
      <trkpt lat="42.735" lon="1.45883">
        <ele>971</ele>
        <time>2026-06-28T08:45:24.000Z</time>
      </trkpt>
      <trkpt lat="42.73498" lon="1.45879">
        <ele>971</ele>
        <time>2026-06-28T08:45:25.000Z</time>
      </trkpt>
      <trkpt lat="42.73497" lon="1.45876">
        <ele>971</ele>
        <time>2026-06-28T08:45:26.000Z</time>
      </trkpt>
      <trkpt lat="42.73495" lon="1.45872">
        <ele>971</ele>
        <time>2026-06-28T08:45:27.000Z</time>
      </trkpt>
      <trkpt lat="42.73493" lon="1.45869">
        <ele>971</ele>
        <time>2026-06-28T08:45:28.000Z</time>
      </trkpt>
      <trkpt lat="42.73491" lon="1.45865">
        <ele>971</ele>
        <time>2026-06-28T08:45:29.000Z</time>
      </trkpt>
      <trkpt lat="42.73488" lon="1.45862">
        <ele>970</ele>
        <time>2026-06-28T08:45:30.000Z</time>
      </trkpt>
      <trkpt lat="42.73487" lon="1.45859">
        <ele>970</ele>
        <time>2026-06-28T08:45:31.000Z</time>
      </trkpt>
      <trkpt lat="42.73484" lon="1.45857">
        <ele>970</ele>
        <time>2026-06-28T08:45:32.000Z</time>
      </trkpt>
      <trkpt lat="42.73481" lon="1.45856">
        <ele>970</ele>
        <time>2026-06-28T08:45:33.000Z</time>
      </trkpt>
      <trkpt lat="42.73478" lon="1.45854">
        <ele>970</ele>
        <time>2026-06-28T08:45:34.000Z</time>
      </trkpt>
      <trkpt lat="42.73475" lon="1.45853">
        <ele>970</ele>
        <time>2026-06-28T08:45:35.000Z</time>
      </trkpt>
      <trkpt lat="42.73473" lon="1.45852">
        <ele>970</ele>
        <time>2026-06-28T08:45:36.000Z</time>
      </trkpt>
      <trkpt lat="42.73471" lon="1.45851">
        <ele>970</ele>
        <time>2026-06-28T08:45:37.000Z</time>
      </trkpt>
      <trkpt lat="42.73468" lon="1.45852">
        <ele>971</ele>
        <time>2026-06-28T08:45:38.000Z</time>
      </trkpt>
      <trkpt lat="42.73467" lon="1.45853">
        <ele>971</ele>
        <time>2026-06-28T08:45:39.000Z</time>
      </trkpt>
      <trkpt lat="42.73464" lon="1.45855">
        <ele>971</ele>
        <time>2026-06-28T08:45:40.000Z</time>
      </trkpt>
      <trkpt lat="42.73462" lon="1.45856">
        <ele>971</ele>
        <time>2026-06-28T08:45:41.000Z</time>
      </trkpt>
      <trkpt lat="42.7346" lon="1.45858">
        <ele>971</ele>
        <time>2026-06-28T08:45:42.000Z</time>
      </trkpt>
      <trkpt lat="42.73458" lon="1.4586">
        <ele>970</ele>
        <time>2026-06-28T08:45:43.000Z</time>
      </trkpt>
      <trkpt lat="42.73456" lon="1.45862">
        <ele>971</ele>
        <time>2026-06-28T08:45:44.000Z</time>
      </trkpt>
      <trkpt lat="42.73454" lon="1.45863">
        <ele>970</ele>
        <time>2026-06-28T08:45:45.000Z</time>
      </trkpt>
      <trkpt lat="42.73452" lon="1.45865">
        <ele>970</ele>
        <time>2026-06-28T08:45:46.000Z</time>
      </trkpt>
      <trkpt lat="42.7345" lon="1.45867">
        <ele>970</ele>
        <time>2026-06-28T08:45:47.000Z</time>
      </trkpt>
      <trkpt lat="42.73448" lon="1.4587">
        <ele>970</ele>
        <time>2026-06-28T08:45:48.000Z</time>
      </trkpt>
      <trkpt lat="42.73447" lon="1.45872">
        <ele>970</ele>
        <time>2026-06-28T08:45:49.000Z</time>
      </trkpt>
      <trkpt lat="42.73445" lon="1.45874">
        <ele>970</ele>
        <time>2026-06-28T08:45:50.000Z</time>
      </trkpt>
      <trkpt lat="42.73443" lon="1.45876">
        <ele>970</ele>
        <time>2026-06-28T08:45:51.000Z</time>
      </trkpt>
      <trkpt lat="42.73441" lon="1.45878">
        <ele>970</ele>
        <time>2026-06-28T08:45:52.000Z</time>
      </trkpt>
      <trkpt lat="42.73439" lon="1.4588">
        <ele>969</ele>
        <time>2026-06-28T08:45:53.000Z</time>
      </trkpt>
      <trkpt lat="42.73437" lon="1.45881">
        <ele>970</ele>
        <time>2026-06-28T08:45:54.000Z</time>
      </trkpt>
      <trkpt lat="42.73435" lon="1.45883">
        <ele>970</ele>
        <time>2026-06-28T08:45:55.000Z</time>
      </trkpt>
      <trkpt lat="42.73432" lon="1.45884">
        <ele>970</ele>
        <time>2026-06-28T08:45:56.000Z</time>
      </trkpt>
      <trkpt lat="42.73429" lon="1.45884">
        <ele>970</ele>
        <time>2026-06-28T08:45:57.000Z</time>
      </trkpt>
      <trkpt lat="42.73427" lon="1.45885">
        <ele>970</ele>
        <time>2026-06-28T08:45:58.000Z</time>
      </trkpt>
      <trkpt lat="42.73424" lon="1.45886">
        <ele>970</ele>
        <time>2026-06-28T08:45:59.000Z</time>
      </trkpt>
      <trkpt lat="42.73422" lon="1.45886">
        <ele>970</ele>
        <time>2026-06-28T08:46:00.000Z</time>
      </trkpt>
      <trkpt lat="42.73419" lon="1.45886">
        <ele>970</ele>
        <time>2026-06-28T08:46:01.000Z</time>
      </trkpt>
      <trkpt lat="42.73416" lon="1.45886">
        <ele>970</ele>
        <time>2026-06-28T08:46:02.000Z</time>
      </trkpt>
      <trkpt lat="42.73412" lon="1.45886">
        <ele>970</ele>
        <time>2026-06-28T08:46:03.000Z</time>
      </trkpt>
      <trkpt lat="42.73409" lon="1.45885">
        <ele>969</ele>
        <time>2026-06-28T08:46:04.000Z</time>
      </trkpt>
      <trkpt lat="42.73405" lon="1.45884">
        <ele>969</ele>
        <time>2026-06-28T08:46:05.000Z</time>
      </trkpt>
      <trkpt lat="42.734" lon="1.45883">
        <ele>969</ele>
        <time>2026-06-28T08:46:06.000Z</time>
      </trkpt>
      <trkpt lat="42.73396" lon="1.45881">
        <ele>969</ele>
        <time>2026-06-28T08:46:07.000Z</time>
      </trkpt>
      <trkpt lat="42.73392" lon="1.4588">
        <ele>969</ele>
        <time>2026-06-28T08:46:08.000Z</time>
      </trkpt>
      <trkpt lat="42.73389" lon="1.45878">
        <ele>969</ele>
        <time>2026-06-28T08:46:09.000Z</time>
      </trkpt>
      <trkpt lat="42.73385" lon="1.45874">
        <ele>969</ele>
        <time>2026-06-28T08:46:10.000Z</time>
      </trkpt>
      <trkpt lat="42.73381" lon="1.4587">
        <ele>969</ele>
        <time>2026-06-28T08:46:11.000Z</time>
      </trkpt>
      <trkpt lat="42.73376" lon="1.45867">
        <ele>969</ele>
        <time>2026-06-28T08:46:12.000Z</time>
      </trkpt>
      <trkpt lat="42.73372" lon="1.45863">
        <ele>969</ele>
        <time>2026-06-28T08:46:13.000Z</time>
      </trkpt>
      <trkpt lat="42.73367" lon="1.45859">
        <ele>969</ele>
        <time>2026-06-28T08:46:14.000Z</time>
      </trkpt>
      <trkpt lat="42.73363" lon="1.45855">
        <ele>970</ele>
        <time>2026-06-28T08:46:15.000Z</time>
      </trkpt>
      <trkpt lat="42.73359" lon="1.45851">
        <ele>970</ele>
        <time>2026-06-28T08:46:16.000Z</time>
      </trkpt>
      <trkpt lat="42.73355" lon="1.45847">
        <ele>971</ele>
        <time>2026-06-28T08:46:17.000Z</time>
      </trkpt>
      <trkpt lat="42.73352" lon="1.45843">
        <ele>971</ele>
        <time>2026-06-28T08:46:18.000Z</time>
      </trkpt>
      <trkpt lat="42.73348" lon="1.4584">
        <ele>972</ele>
        <time>2026-06-28T08:46:19.000Z</time>
      </trkpt>
      <trkpt lat="42.73345" lon="1.45837">
        <ele>972</ele>
        <time>2026-06-28T08:46:20.000Z</time>
      </trkpt>
      <trkpt lat="42.73341" lon="1.45833">
        <ele>972</ele>
        <time>2026-06-28T08:46:21.000Z</time>
      </trkpt>
      <trkpt lat="42.73339" lon="1.45829">
        <ele>972</ele>
        <time>2026-06-28T08:46:22.000Z</time>
      </trkpt>
      <trkpt lat="42.73337" lon="1.45825">
        <ele>972</ele>
        <time>2026-06-28T08:46:23.000Z</time>
      </trkpt>
      <trkpt lat="42.73335" lon="1.45821">
        <ele>972</ele>
        <time>2026-06-28T08:46:24.000Z</time>
      </trkpt>
      <trkpt lat="42.73333" lon="1.45817">
        <ele>972</ele>
        <time>2026-06-28T08:46:25.000Z</time>
      </trkpt>
      <trkpt lat="42.7333" lon="1.45814">
        <ele>972</ele>
        <time>2026-06-28T08:46:26.000Z</time>
      </trkpt>
      <trkpt lat="42.73328" lon="1.45812">
        <ele>972</ele>
        <time>2026-06-28T08:46:27.000Z</time>
      </trkpt>
      <trkpt lat="42.73325" lon="1.45809">
        <ele>972</ele>
        <time>2026-06-28T08:46:28.000Z</time>
      </trkpt>
      <trkpt lat="42.73323" lon="1.45806">
        <ele>972</ele>
        <time>2026-06-28T08:46:29.000Z</time>
      </trkpt>
      <trkpt lat="42.73319" lon="1.45804">
        <ele>972</ele>
        <time>2026-06-28T08:46:30.000Z</time>
      </trkpt>
      <trkpt lat="42.73317" lon="1.45801">
        <ele>972</ele>
        <time>2026-06-28T08:46:31.000Z</time>
      </trkpt>
      <trkpt lat="42.73313" lon="1.45799">
        <ele>972</ele>
        <time>2026-06-28T08:46:32.000Z</time>
      </trkpt>
      <trkpt lat="42.7331" lon="1.45796">
        <ele>972</ele>
        <time>2026-06-28T08:46:33.000Z</time>
      </trkpt>
      <trkpt lat="42.73307" lon="1.45795">
        <ele>972</ele>
        <time>2026-06-28T08:46:34.000Z</time>
      </trkpt>
      <trkpt lat="42.73304" lon="1.45793">
        <ele>972</ele>
        <time>2026-06-28T08:46:35.000Z</time>
      </trkpt>
      <trkpt lat="42.73301" lon="1.45791">
        <ele>972</ele>
        <time>2026-06-28T08:46:36.000Z</time>
      </trkpt>
      <trkpt lat="42.73298" lon="1.45791">
        <ele>971</ele>
        <time>2026-06-28T08:46:37.000Z</time>
      </trkpt>
      <trkpt lat="42.73295" lon="1.45791">
        <ele>972</ele>
        <time>2026-06-28T08:46:38.000Z</time>
      </trkpt>
      <trkpt lat="42.73293" lon="1.45792">
        <ele>972</ele>
        <time>2026-06-28T08:46:39.000Z</time>
      </trkpt>
      <trkpt lat="42.73289" lon="1.45792">
        <ele>972</ele>
        <time>2026-06-28T08:46:40.000Z</time>
      </trkpt>
      <trkpt lat="42.73286" lon="1.45792">
        <ele>971</ele>
        <time>2026-06-28T08:46:41.000Z</time>
      </trkpt>
      <trkpt lat="42.73283" lon="1.45792">
        <ele>972</ele>
        <time>2026-06-28T08:46:42.000Z</time>
      </trkpt>
      <trkpt lat="42.73281" lon="1.45793">
        <ele>971</ele>
        <time>2026-06-28T08:46:43.000Z</time>
      </trkpt>
      <trkpt lat="42.73278" lon="1.45793">
        <ele>971</ele>
        <time>2026-06-28T08:46:44.000Z</time>
      </trkpt>
      <trkpt lat="42.73274" lon="1.45794">
        <ele>971</ele>
        <time>2026-06-28T08:46:45.000Z</time>
      </trkpt>
      <trkpt lat="42.73272" lon="1.45794">
        <ele>972</ele>
        <time>2026-06-28T08:46:46.000Z</time>
      </trkpt>
      <trkpt lat="42.73269" lon="1.45795">
        <ele>972</ele>
        <time>2026-06-28T08:46:47.000Z</time>
      </trkpt>
      <trkpt lat="42.73266" lon="1.45796">
        <ele>971</ele>
        <time>2026-06-28T08:46:48.000Z</time>
      </trkpt>
      <trkpt lat="42.73264" lon="1.45797">
        <ele>971</ele>
        <time>2026-06-28T08:46:49.000Z</time>
      </trkpt>
      <trkpt lat="42.73261" lon="1.45797">
        <ele>971</ele>
        <time>2026-06-28T08:46:50.000Z</time>
      </trkpt>
      <trkpt lat="42.73259" lon="1.45798">
        <ele>972</ele>
        <time>2026-06-28T08:46:51.000Z</time>
      </trkpt>
      <trkpt lat="42.73256" lon="1.45799">
        <ele>972</ele>
        <time>2026-06-28T08:46:52.000Z</time>
      </trkpt>
      <trkpt lat="42.73254" lon="1.45799">
        <ele>972</ele>
        <time>2026-06-28T08:46:53.000Z</time>
      </trkpt>
      <trkpt lat="42.73251" lon="1.458">
        <ele>973</ele>
        <time>2026-06-28T08:46:54.000Z</time>
      </trkpt>
      <trkpt lat="42.73249" lon="1.45801">
        <ele>973</ele>
        <time>2026-06-28T08:46:55.000Z</time>
      </trkpt>
      <trkpt lat="42.73246" lon="1.45801">
        <ele>973</ele>
        <time>2026-06-28T08:46:56.000Z</time>
      </trkpt>
      <trkpt lat="42.73244" lon="1.45802">
        <ele>974</ele>
        <time>2026-06-28T08:46:57.000Z</time>
      </trkpt>
      <trkpt lat="42.73241" lon="1.45803">
        <ele>974</ele>
        <time>2026-06-28T08:46:58.000Z</time>
      </trkpt>
      <trkpt lat="42.73238" lon="1.45804">
        <ele>973</ele>
        <time>2026-06-28T08:46:59.000Z</time>
      </trkpt>
      <trkpt lat="42.73234" lon="1.45804">
        <ele>973</ele>
        <time>2026-06-28T08:47:00.000Z</time>
      </trkpt>
      <trkpt lat="42.73231" lon="1.45805">
        <ele>973</ele>
        <time>2026-06-28T08:47:01.000Z</time>
      </trkpt>
      <trkpt lat="42.73229" lon="1.45805">
        <ele>973</ele>
        <time>2026-06-28T08:47:02.000Z</time>
      </trkpt>
      <trkpt lat="42.73226" lon="1.45805">
        <ele>973</ele>
        <time>2026-06-28T08:47:03.000Z</time>
      </trkpt>
      <trkpt lat="42.73223" lon="1.45805">
        <ele>973</ele>
        <time>2026-06-28T08:47:04.000Z</time>
      </trkpt>
      <trkpt lat="42.7322" lon="1.45805">
        <ele>972</ele>
        <time>2026-06-28T08:47:05.000Z</time>
      </trkpt>
      <trkpt lat="42.73217" lon="1.45804">
        <ele>972</ele>
        <time>2026-06-28T08:47:06.000Z</time>
      </trkpt>
      <trkpt lat="42.73213" lon="1.45804">
        <ele>972</ele>
        <time>2026-06-28T08:47:07.000Z</time>
      </trkpt>
      <trkpt lat="42.73208" lon="1.45803">
        <ele>972</ele>
        <time>2026-06-28T08:47:08.000Z</time>
      </trkpt>
      <trkpt lat="42.73204" lon="1.45802">
        <ele>972</ele>
        <time>2026-06-28T08:47:09.000Z</time>
      </trkpt>
      <trkpt lat="42.732" lon="1.45801">
        <ele>972</ele>
        <time>2026-06-28T08:47:10.000Z</time>
      </trkpt>
      <trkpt lat="42.73196" lon="1.458">
        <ele>972</ele>
        <time>2026-06-28T08:47:11.000Z</time>
      </trkpt>
      <trkpt lat="42.73192" lon="1.458">
        <ele>972</ele>
        <time>2026-06-28T08:47:12.000Z</time>
      </trkpt>
      <trkpt lat="42.73188" lon="1.458">
        <ele>973</ele>
        <time>2026-06-28T08:47:13.000Z</time>
      </trkpt>
      <trkpt lat="42.73185" lon="1.45799">
        <ele>973</ele>
        <time>2026-06-28T08:47:14.000Z</time>
      </trkpt>
      <trkpt lat="42.73181" lon="1.45799">
        <ele>974</ele>
        <time>2026-06-28T08:47:15.000Z</time>
      </trkpt>
      <trkpt lat="42.73176" lon="1.45798">
        <ele>974</ele>
        <time>2026-06-28T08:47:16.000Z</time>
      </trkpt>
      <trkpt lat="42.73172" lon="1.45798">
        <ele>974</ele>
        <time>2026-06-28T08:47:17.000Z</time>
      </trkpt>
      <trkpt lat="42.73166" lon="1.45798">
        <ele>977</ele>
        <time>2026-06-28T08:47:18.000Z</time>
      </trkpt>
      <trkpt lat="42.7316" lon="1.45796">
        <ele>978</ele>
        <time>2026-06-28T08:47:19.000Z</time>
      </trkpt>
      <trkpt lat="42.73157" lon="1.45796">
        <ele>978</ele>
        <time>2026-06-28T08:47:20.000Z</time>
      </trkpt>
      <trkpt lat="42.73153" lon="1.45796">
        <ele>979</ele>
        <time>2026-06-28T08:47:21.000Z</time>
      </trkpt>
      <trkpt lat="42.73149" lon="1.45795">
        <ele>979</ele>
        <time>2026-06-28T08:47:22.000Z</time>
      </trkpt>
      <trkpt lat="42.73145" lon="1.45794">
        <ele>979</ele>
        <time>2026-06-28T08:47:23.000Z</time>
      </trkpt>
      <trkpt lat="42.73141" lon="1.45794">
        <ele>979</ele>
        <time>2026-06-28T08:47:24.000Z</time>
      </trkpt>
      <trkpt lat="42.73137" lon="1.45793">
        <ele>979</ele>
        <time>2026-06-28T08:47:25.000Z</time>
      </trkpt>
      <trkpt lat="42.73134" lon="1.45791">
        <ele>978</ele>
        <time>2026-06-28T08:47:26.000Z</time>
      </trkpt>
      <trkpt lat="42.7313" lon="1.45788">
        <ele>978</ele>
        <time>2026-06-28T08:47:27.000Z</time>
      </trkpt>
      <trkpt lat="42.73125" lon="1.45787">
        <ele>979</ele>
        <time>2026-06-28T08:47:28.000Z</time>
      </trkpt>
      <trkpt lat="42.73121" lon="1.45784">
        <ele>979</ele>
        <time>2026-06-28T08:47:29.000Z</time>
      </trkpt>
      <trkpt lat="42.73118" lon="1.45782">
        <ele>979</ele>
        <time>2026-06-28T08:47:30.000Z</time>
      </trkpt>
      <trkpt lat="42.73116" lon="1.45778">
        <ele>979</ele>
        <time>2026-06-28T08:47:31.000Z</time>
      </trkpt>
      <trkpt lat="42.73115" lon="1.45775">
        <ele>980</ele>
        <time>2026-06-28T08:47:32.000Z</time>
      </trkpt>
      <trkpt lat="42.73115" lon="1.45771">
        <ele>979</ele>
        <time>2026-06-28T08:47:33.000Z</time>
      </trkpt>
      <trkpt lat="42.73116" lon="1.45767">
        <ele>980</ele>
        <time>2026-06-28T08:47:34.000Z</time>
      </trkpt>
      <trkpt lat="42.73117" lon="1.45765">
        <ele>979</ele>
        <time>2026-06-28T08:47:35.000Z</time>
      </trkpt>
      <trkpt lat="42.73118" lon="1.45763">
        <ele>979</ele>
        <time>2026-06-28T08:47:36.000Z</time>
      </trkpt>
      <trkpt lat="42.73119" lon="1.45761">
        <ele>980</ele>
        <time>2026-06-28T08:47:37.000Z</time>
      </trkpt>
      <trkpt lat="42.7312" lon="1.4576">
        <ele>980</ele>
        <time>2026-06-28T08:47:38.000Z</time>
      </trkpt>
      <trkpt lat="42.73122" lon="1.45758">
        <ele>979</ele>
        <time>2026-06-28T08:47:39.000Z</time>
      </trkpt>
      <trkpt lat="42.73124" lon="1.45757">
        <ele>979</ele>
        <time>2026-06-28T08:47:40.000Z</time>
      </trkpt>
      <trkpt lat="42.73126" lon="1.45756">
        <ele>979</ele>
        <time>2026-06-28T08:47:41.000Z</time>
      </trkpt>
      <trkpt lat="42.73129" lon="1.45754">
        <ele>978</ele>
        <time>2026-06-28T08:47:42.000Z</time>
      </trkpt>
      <trkpt lat="42.73131" lon="1.45753">
        <ele>978</ele>
        <time>2026-06-28T08:47:43.000Z</time>
      </trkpt>
      <trkpt lat="42.73134" lon="1.45751">
        <ele>978</ele>
        <time>2026-06-28T08:47:44.000Z</time>
      </trkpt>
      <trkpt lat="42.73137" lon="1.4575">
        <ele>978</ele>
        <time>2026-06-28T08:47:45.000Z</time>
      </trkpt>
      <trkpt lat="42.7314" lon="1.45749">
        <ele>978</ele>
        <time>2026-06-28T08:47:46.000Z</time>
      </trkpt>
      <trkpt lat="42.73142" lon="1.45749">
        <ele>979</ele>
        <time>2026-06-28T08:47:47.000Z</time>
      </trkpt>
      <trkpt lat="42.73144" lon="1.45749">
        <ele>979</ele>
        <time>2026-06-28T08:47:48.000Z</time>
      </trkpt>
      <trkpt lat="42.73146" lon="1.45748">
        <ele>979</ele>
        <time>2026-06-28T08:47:49.000Z</time>
      </trkpt>
      <trkpt lat="42.73148" lon="1.45748">
        <ele>979</ele>
        <time>2026-06-28T08:47:50.000Z</time>
      </trkpt>
      <trkpt lat="42.7315" lon="1.45747">
        <ele>979</ele>
        <time>2026-06-28T08:47:51.000Z</time>
      </trkpt>
      <trkpt lat="42.73151" lon="1.45745">
        <ele>979</ele>
        <time>2026-06-28T08:47:52.000Z</time>
      </trkpt>
      <trkpt lat="42.73152" lon="1.45743">
        <ele>980</ele>
        <time>2026-06-28T08:47:53.000Z</time>
      </trkpt>
      <trkpt lat="42.73153" lon="1.4574">
        <ele>980</ele>
        <time>2026-06-28T08:47:54.000Z</time>
      </trkpt>
      <trkpt lat="42.73153" lon="1.45737">
        <ele>981</ele>
        <time>2026-06-28T08:47:55.000Z</time>
      </trkpt>
      <trkpt lat="42.73152" lon="1.45734">
        <ele>981</ele>
        <time>2026-06-28T08:47:56.000Z</time>
      </trkpt>
      <trkpt lat="42.73151" lon="1.45731">
        <ele>981</ele>
        <time>2026-06-28T08:47:57.000Z</time>
      </trkpt>
      <trkpt lat="42.7315" lon="1.45728">
        <ele>982</ele>
        <time>2026-06-28T08:47:58.000Z</time>
      </trkpt>
      <trkpt lat="42.73149" lon="1.45726">
        <ele>982</ele>
        <time>2026-06-28T08:47:59.000Z</time>
      </trkpt>
      <trkpt lat="42.73148" lon="1.45723">
        <ele>982</ele>
        <time>2026-06-28T08:48:00.000Z</time>
      </trkpt>
      <trkpt lat="42.73147" lon="1.4572">
        <ele>982</ele>
        <time>2026-06-28T08:48:01.000Z</time>
      </trkpt>
      <trkpt lat="42.73145" lon="1.45717">
        <ele>983</ele>
        <time>2026-06-28T08:48:02.000Z</time>
      </trkpt>
      <trkpt lat="42.73145" lon="1.45714">
        <ele>983</ele>
        <time>2026-06-28T08:48:03.000Z</time>
      </trkpt>
      <trkpt lat="42.73143" lon="1.45711">
        <ele>983</ele>
        <time>2026-06-28T08:48:04.000Z</time>
      </trkpt>
      <trkpt lat="42.73142" lon="1.45708">
        <ele>984</ele>
        <time>2026-06-28T08:48:05.000Z</time>
      </trkpt>
      <trkpt lat="42.7314" lon="1.45706">
        <ele>985</ele>
        <time>2026-06-28T08:48:06.000Z</time>
      </trkpt>
      <trkpt lat="42.73139" lon="1.45704">
        <ele>985</ele>
        <time>2026-06-28T08:48:07.000Z</time>
      </trkpt>
      <trkpt lat="42.73137" lon="1.45701">
        <ele>986</ele>
        <time>2026-06-28T08:48:08.000Z</time>
      </trkpt>
      <trkpt lat="42.73136" lon="1.45699">
        <ele>986</ele>
        <time>2026-06-28T08:48:09.000Z</time>
      </trkpt>
      <trkpt lat="42.73134" lon="1.45696">
        <ele>986</ele>
        <time>2026-06-28T08:48:10.000Z</time>
      </trkpt>
      <trkpt lat="42.73132" lon="1.45693">
        <ele>987</ele>
        <time>2026-06-28T08:48:11.000Z</time>
      </trkpt>
      <trkpt lat="42.73131" lon="1.45691">
        <ele>987</ele>
        <time>2026-06-28T08:48:12.000Z</time>
      </trkpt>
      <trkpt lat="42.73129" lon="1.45689">
        <ele>987</ele>
        <time>2026-06-28T08:48:13.000Z</time>
      </trkpt>
      <trkpt lat="42.73127" lon="1.45686">
        <ele>987</ele>
        <time>2026-06-28T08:48:14.000Z</time>
      </trkpt>
      <trkpt lat="42.73125" lon="1.45684">
        <ele>987</ele>
        <time>2026-06-28T08:48:15.000Z</time>
      </trkpt>
      <trkpt lat="42.73124" lon="1.45681">
        <ele>987</ele>
        <time>2026-06-28T08:48:16.000Z</time>
      </trkpt>
      <trkpt lat="42.73122" lon="1.45679">
        <ele>988</ele>
        <time>2026-06-28T08:48:17.000Z</time>
      </trkpt>
      <trkpt lat="42.7312" lon="1.45678">
        <ele>988</ele>
        <time>2026-06-28T08:48:18.000Z</time>
      </trkpt>
      <trkpt lat="42.73118" lon="1.45677">
        <ele>988</ele>
        <time>2026-06-28T08:48:19.000Z</time>
      </trkpt>
      <trkpt lat="42.73116" lon="1.45676">
        <ele>988</ele>
        <time>2026-06-28T08:48:20.000Z</time>
      </trkpt>
      <trkpt lat="42.73114" lon="1.45675">
        <ele>989</ele>
        <time>2026-06-28T08:48:21.000Z</time>
      </trkpt>
      <trkpt lat="42.73113" lon="1.45674">
        <ele>989</ele>
        <time>2026-06-28T08:48:22.000Z</time>
      </trkpt>
      <trkpt lat="42.73112" lon="1.45672">
        <ele>989</ele>
        <time>2026-06-28T08:48:23.000Z</time>
      </trkpt>
      <trkpt lat="42.7311" lon="1.4567">
        <ele>989</ele>
        <time>2026-06-28T08:48:24.000Z</time>
      </trkpt>
      <trkpt lat="42.73109" lon="1.45668">
        <ele>990</ele>
        <time>2026-06-28T08:48:25.000Z</time>
      </trkpt>
      <trkpt lat="42.73107" lon="1.45666">
        <ele>991</ele>
        <time>2026-06-28T08:48:26.000Z</time>
      </trkpt>
      <trkpt lat="42.73106" lon="1.45664">
        <ele>991</ele>
        <time>2026-06-28T08:48:27.000Z</time>
      </trkpt>
      <trkpt lat="42.73105" lon="1.45661">
        <ele>991</ele>
        <time>2026-06-28T08:48:28.000Z</time>
      </trkpt>
      <trkpt lat="42.73103" lon="1.4566">
        <ele>992</ele>
        <time>2026-06-28T08:48:29.000Z</time>
      </trkpt>
      <trkpt lat="42.73101" lon="1.45658">
        <ele>992</ele>
        <time>2026-06-28T08:48:30.000Z</time>
      </trkpt>
      <trkpt lat="42.731" lon="1.45656">
        <ele>992</ele>
        <time>2026-06-28T08:48:31.000Z</time>
      </trkpt>
      <trkpt lat="42.73099" lon="1.45653">
        <ele>992</ele>
        <time>2026-06-28T08:48:32.000Z</time>
      </trkpt>
      <trkpt lat="42.73098" lon="1.45652">
        <ele>992</ele>
        <time>2026-06-28T08:48:33.000Z</time>
      </trkpt>
      <trkpt lat="42.73097" lon="1.4565">
        <ele>992</ele>
        <time>2026-06-28T08:48:34.000Z</time>
      </trkpt>
      <trkpt lat="42.73095" lon="1.45647">
        <ele>993</ele>
        <time>2026-06-28T08:48:35.000Z</time>
      </trkpt>
      <trkpt lat="42.73094" lon="1.45645">
        <ele>993</ele>
        <time>2026-06-28T08:48:36.000Z</time>
      </trkpt>
      <trkpt lat="42.73092" lon="1.45643">
        <ele>992</ele>
        <time>2026-06-28T08:48:37.000Z</time>
      </trkpt>
      <trkpt lat="42.73091" lon="1.45641">
        <ele>992</ele>
        <time>2026-06-28T08:48:38.000Z</time>
      </trkpt>
      <trkpt lat="42.7309" lon="1.45639">
        <ele>992</ele>
        <time>2026-06-28T08:48:39.000Z</time>
      </trkpt>
      <trkpt lat="42.73089" lon="1.45635">
        <ele>993</ele>
        <time>2026-06-28T08:48:40.000Z</time>
      </trkpt>
      <trkpt lat="42.73087" lon="1.45633">
        <ele>993</ele>
        <time>2026-06-28T08:48:41.000Z</time>
      </trkpt>
      <trkpt lat="42.73086" lon="1.4563">
        <ele>994</ele>
        <time>2026-06-28T08:48:42.000Z</time>
      </trkpt>
      <trkpt lat="42.73086" lon="1.45628">
        <ele>994</ele>
        <time>2026-06-28T08:48:43.000Z</time>
      </trkpt>
      <trkpt lat="42.73085" lon="1.45626">
        <ele>994</ele>
        <time>2026-06-28T08:48:44.000Z</time>
      </trkpt>
      <trkpt lat="42.73084" lon="1.45624">
        <ele>994</ele>
        <time>2026-06-28T08:48:45.000Z</time>
      </trkpt>
      <trkpt lat="42.73084" lon="1.45622">
        <ele>995</ele>
        <time>2026-06-28T08:48:46.000Z</time>
      </trkpt>
      <trkpt lat="42.73083" lon="1.4562">
        <ele>995</ele>
        <time>2026-06-28T08:48:47.000Z</time>
      </trkpt>
      <trkpt lat="42.73082" lon="1.45618">
        <ele>994</ele>
        <time>2026-06-28T08:48:48.000Z</time>
      </trkpt>
      <trkpt lat="42.73081" lon="1.45616">
        <ele>994</ele>
        <time>2026-06-28T08:48:49.000Z</time>
      </trkpt>
      <trkpt lat="42.7308" lon="1.45614">
        <ele>993</ele>
        <time>2026-06-28T08:48:50.000Z</time>
      </trkpt>
      <trkpt lat="42.73079" lon="1.45611">
        <ele>994</ele>
        <time>2026-06-28T08:48:51.000Z</time>
      </trkpt>
      <trkpt lat="42.73078" lon="1.45609">
        <ele>994</ele>
        <time>2026-06-28T08:48:52.000Z</time>
      </trkpt>
      <trkpt lat="42.73077" lon="1.45606">
        <ele>995</ele>
        <time>2026-06-28T08:48:53.000Z</time>
      </trkpt>
      <trkpt lat="42.73076" lon="1.45602">
        <ele>995</ele>
        <time>2026-06-28T08:48:54.000Z</time>
      </trkpt>
      <trkpt lat="42.73075" lon="1.456">
        <ele>995</ele>
        <time>2026-06-28T08:48:55.000Z</time>
      </trkpt>
      <trkpt lat="42.73074" lon="1.45597">
        <ele>996</ele>
        <time>2026-06-28T08:48:56.000Z</time>
      </trkpt>
      <trkpt lat="42.73073" lon="1.45594">
        <ele>996</ele>
        <time>2026-06-28T08:48:57.000Z</time>
      </trkpt>
      <trkpt lat="42.73072" lon="1.45591">
        <ele>996</ele>
        <time>2026-06-28T08:48:58.000Z</time>
      </trkpt>
      <trkpt lat="42.73071" lon="1.45589">
        <ele>996</ele>
        <time>2026-06-28T08:48:59.000Z</time>
      </trkpt>
      <trkpt lat="42.73071" lon="1.45589">
        <ele>997</ele>
        <time>2026-06-28T08:49:00.000Z</time>
      </trkpt>
      <trkpt lat="42.73071" lon="1.4559">
        <ele>997</ele>
        <time>2026-06-28T08:49:01.000Z</time>
      </trkpt>
      <trkpt lat="42.7307" lon="1.45591">
        <ele>996</ele>
        <time>2026-06-28T08:49:02.000Z</time>
      </trkpt>
      <trkpt lat="42.7307" lon="1.45591">
        <ele>996</ele>
        <time>2026-06-28T08:49:03.000Z</time>
      </trkpt>
      <trkpt lat="42.7307" lon="1.45592">
        <ele>997</ele>
        <time>2026-06-28T08:49:04.000Z</time>
      </trkpt>
      <trkpt lat="42.73071" lon="1.45593">
        <ele>997</ele>
        <time>2026-06-28T08:49:05.000Z</time>
      </trkpt>
      <trkpt lat="42.73071" lon="1.45595">
        <ele>997</ele>
        <time>2026-06-28T08:49:06.000Z</time>
      </trkpt>
      <trkpt lat="42.73071" lon="1.45596">
        <ele>996</ele>
        <time>2026-06-28T08:49:07.000Z</time>
      </trkpt>
      <trkpt lat="42.73071" lon="1.45597">
        <ele>996</ele>
        <time>2026-06-28T08:49:08.000Z</time>
      </trkpt>
      <trkpt lat="42.73071" lon="1.45598">
        <ele>996</ele>
        <time>2026-06-28T08:49:09.000Z</time>
      </trkpt>
      <trkpt lat="42.73072" lon="1.456">
        <ele>996</ele>
        <time>2026-06-28T08:49:10.000Z</time>
      </trkpt>
      <trkpt lat="42.73073" lon="1.45602">
        <ele>996</ele>
        <time>2026-06-28T08:49:11.000Z</time>
      </trkpt>
      <trkpt lat="42.73073" lon="1.45603">
        <ele>996</ele>
        <time>2026-06-28T08:49:12.000Z</time>
      </trkpt>
      <trkpt lat="42.73074" lon="1.45606">
        <ele>997</ele>
        <time>2026-06-28T08:49:13.000Z</time>
      </trkpt>
      <trkpt lat="42.73076" lon="1.45609">
        <ele>997</ele>
        <time>2026-06-28T08:49:14.000Z</time>
      </trkpt>
      <trkpt lat="42.73077" lon="1.45611">
        <ele>998</ele>
        <time>2026-06-28T08:49:15.000Z</time>
      </trkpt>
      <trkpt lat="42.73078" lon="1.45614">
        <ele>998</ele>
        <time>2026-06-28T08:49:16.000Z</time>
      </trkpt>
      <trkpt lat="42.7308" lon="1.45616">
        <ele>998</ele>
        <time>2026-06-28T08:49:17.000Z</time>
      </trkpt>
      <trkpt lat="42.73082" lon="1.45617">
        <ele>999</ele>
        <time>2026-06-28T08:49:18.000Z</time>
      </trkpt>
      <trkpt lat="42.73082" lon="1.45618">
        <ele>999</ele>
        <time>2026-06-28T08:49:19.000Z</time>
      </trkpt>
      <trkpt lat="42.73084" lon="1.45621">
        <ele>1000</ele>
        <time>2026-06-28T08:49:20.000Z</time>
      </trkpt>
      <trkpt lat="42.73086" lon="1.45623">
        <ele>999</ele>
        <time>2026-06-28T08:49:21.000Z</time>
      </trkpt>
      <trkpt lat="42.73088" lon="1.45626">
        <ele>1000</ele>
        <time>2026-06-28T08:49:22.000Z</time>
      </trkpt>
      <trkpt lat="42.7309" lon="1.45627">
        <ele>1000</ele>
        <time>2026-06-28T08:49:23.000Z</time>
      </trkpt>
      <trkpt lat="42.73091" lon="1.45629">
        <ele>1000</ele>
        <time>2026-06-28T08:49:24.000Z</time>
      </trkpt>
      <trkpt lat="42.73093" lon="1.4563">
        <ele>1000</ele>
        <time>2026-06-28T08:49:25.000Z</time>
      </trkpt>
      <trkpt lat="42.73094" lon="1.45632">
        <ele>1000</ele>
        <time>2026-06-28T08:49:26.000Z</time>
      </trkpt>
      <trkpt lat="42.73096" lon="1.45634">
        <ele>1000</ele>
        <time>2026-06-28T08:49:27.000Z</time>
      </trkpt>
      <trkpt lat="42.73097" lon="1.45636">
        <ele>1001</ele>
        <time>2026-06-28T08:49:28.000Z</time>
      </trkpt>
      <trkpt lat="42.73098" lon="1.45638">
        <ele>1001</ele>
        <time>2026-06-28T08:49:29.000Z</time>
      </trkpt>
      <trkpt lat="42.73099" lon="1.45639">
        <ele>1002</ele>
        <time>2026-06-28T08:49:30.000Z</time>
      </trkpt>
      <trkpt lat="42.731" lon="1.4564">
        <ele>1002</ele>
        <time>2026-06-28T08:49:31.000Z</time>
      </trkpt>
      <trkpt lat="42.73101" lon="1.45641">
        <ele>1002</ele>
        <time>2026-06-28T08:49:32.000Z</time>
      </trkpt>
      <trkpt lat="42.73102" lon="1.45643">
        <ele>1002</ele>
        <time>2026-06-28T08:49:33.000Z</time>
      </trkpt>
      <trkpt lat="42.73104" lon="1.45645">
        <ele>1002</ele>
        <time>2026-06-28T08:49:34.000Z</time>
      </trkpt>
      <trkpt lat="42.73106" lon="1.45645">
        <ele>1003</ele>
        <time>2026-06-28T08:49:35.000Z</time>
      </trkpt>
      <trkpt lat="42.73108" lon="1.45648">
        <ele>1003</ele>
        <time>2026-06-28T08:49:36.000Z</time>
      </trkpt>
      <trkpt lat="42.7311" lon="1.4565">
        <ele>1003</ele>
        <time>2026-06-28T08:49:37.000Z</time>
      </trkpt>
      <trkpt lat="42.73112" lon="1.45652">
        <ele>1004</ele>
        <time>2026-06-28T08:49:38.000Z</time>
      </trkpt>
      <trkpt lat="42.73114" lon="1.45655">
        <ele>1003</ele>
        <time>2026-06-28T08:49:39.000Z</time>
      </trkpt>
      <trkpt lat="42.73116" lon="1.45657">
        <ele>1004</ele>
        <time>2026-06-28T08:49:40.000Z</time>
      </trkpt>
      <trkpt lat="42.73117" lon="1.45659">
        <ele>1004</ele>
        <time>2026-06-28T08:49:41.000Z</time>
      </trkpt>
      <trkpt lat="42.7312" lon="1.45659">
        <ele>1004</ele>
        <time>2026-06-28T08:49:42.000Z</time>
      </trkpt>
      <trkpt lat="42.73121" lon="1.4566">
        <ele>1004</ele>
        <time>2026-06-28T08:49:43.000Z</time>
      </trkpt>
      <trkpt lat="42.73123" lon="1.45662">
        <ele>1005</ele>
        <time>2026-06-28T08:49:44.000Z</time>
      </trkpt>
      <trkpt lat="42.73125" lon="1.45663">
        <ele>1005</ele>
        <time>2026-06-28T08:49:45.000Z</time>
      </trkpt>
      <trkpt lat="42.73126" lon="1.45665">
        <ele>1005</ele>
        <time>2026-06-28T08:49:46.000Z</time>
      </trkpt>
      <trkpt lat="42.73127" lon="1.45667">
        <ele>1005</ele>
        <time>2026-06-28T08:49:47.000Z</time>
      </trkpt>
      <trkpt lat="42.73128" lon="1.45668">
        <ele>1005</ele>
        <time>2026-06-28T08:49:48.000Z</time>
      </trkpt>
      <trkpt lat="42.73129" lon="1.4567">
        <ele>1006</ele>
        <time>2026-06-28T08:49:49.000Z</time>
      </trkpt>
      <trkpt lat="42.73131" lon="1.45672">
        <ele>1006</ele>
        <time>2026-06-28T08:49:50.000Z</time>
      </trkpt>
      <trkpt lat="42.73133" lon="1.45673">
        <ele>1007</ele>
        <time>2026-06-28T08:49:51.000Z</time>
      </trkpt>
      <trkpt lat="42.73135" lon="1.45674">
        <ele>1008</ele>
        <time>2026-06-28T08:49:52.000Z</time>
      </trkpt>
      <trkpt lat="42.73137" lon="1.45675">
        <ele>1008</ele>
        <time>2026-06-28T08:49:53.000Z</time>
      </trkpt>
      <trkpt lat="42.73138" lon="1.45676">
        <ele>1008</ele>
        <time>2026-06-28T08:49:54.000Z</time>
      </trkpt>
      <trkpt lat="42.7314" lon="1.45678">
        <ele>1008</ele>
        <time>2026-06-28T08:49:55.000Z</time>
      </trkpt>
      <trkpt lat="42.73142" lon="1.4568">
        <ele>1009</ele>
        <time>2026-06-28T08:49:56.000Z</time>
      </trkpt>
      <trkpt lat="42.73143" lon="1.45681">
        <ele>1009</ele>
        <time>2026-06-28T08:49:57.000Z</time>
      </trkpt>
      <trkpt lat="42.73145" lon="1.45683">
        <ele>1009</ele>
        <time>2026-06-28T08:49:58.000Z</time>
      </trkpt>
      <trkpt lat="42.73146" lon="1.45685">
        <ele>1010</ele>
        <time>2026-06-28T08:49:59.000Z</time>
      </trkpt>
      <trkpt lat="42.73147" lon="1.45687">
        <ele>1011</ele>
        <time>2026-06-28T08:50:00.000Z</time>
      </trkpt>
      <trkpt lat="42.73149" lon="1.45689">
        <ele>1012</ele>
        <time>2026-06-28T08:50:01.000Z</time>
      </trkpt>
      <trkpt lat="42.73151" lon="1.4569">
        <ele>1012</ele>
        <time>2026-06-28T08:50:02.000Z</time>
      </trkpt>
      <trkpt lat="42.73153" lon="1.45693">
        <ele>1012</ele>
        <time>2026-06-28T08:50:03.000Z</time>
      </trkpt>
      <trkpt lat="42.73155" lon="1.45695">
        <ele>1013</ele>
        <time>2026-06-28T08:50:04.000Z</time>
      </trkpt>
      <trkpt lat="42.73157" lon="1.45696">
        <ele>1013</ele>
        <time>2026-06-28T08:50:05.000Z</time>
      </trkpt>
      <trkpt lat="42.73159" lon="1.45697">
        <ele>1013</ele>
        <time>2026-06-28T08:50:06.000Z</time>
      </trkpt>
      <trkpt lat="42.73162" lon="1.45698">
        <ele>1013</ele>
        <time>2026-06-28T08:50:07.000Z</time>
      </trkpt>
      <trkpt lat="42.73164" lon="1.45698">
        <ele>1012</ele>
        <time>2026-06-28T08:50:08.000Z</time>
      </trkpt>
      <trkpt lat="42.73167" lon="1.45698">
        <ele>1012</ele>
        <time>2026-06-28T08:50:09.000Z</time>
      </trkpt>
      <trkpt lat="42.7317" lon="1.45698">
        <ele>1012</ele>
        <time>2026-06-28T08:50:10.000Z</time>
      </trkpt>
      <trkpt lat="42.73173" lon="1.45696">
        <ele>1012</ele>
        <time>2026-06-28T08:50:11.000Z</time>
      </trkpt>
      <trkpt lat="42.73176" lon="1.45696">
        <ele>1012</ele>
        <time>2026-06-28T08:50:12.000Z</time>
      </trkpt>
      <trkpt lat="42.73179" lon="1.45694">
        <ele>1012</ele>
        <time>2026-06-28T08:50:13.000Z</time>
      </trkpt>
      <trkpt lat="42.73181" lon="1.45693">
        <ele>1013</ele>
        <time>2026-06-28T08:50:14.000Z</time>
      </trkpt>
      <trkpt lat="42.73184" lon="1.45692">
        <ele>1013</ele>
        <time>2026-06-28T08:50:15.000Z</time>
      </trkpt>
      <trkpt lat="42.73187" lon="1.45692">
        <ele>1013</ele>
        <time>2026-06-28T08:50:16.000Z</time>
      </trkpt>
      <trkpt lat="42.7319" lon="1.45692">
        <ele>1013</ele>
        <time>2026-06-28T08:50:17.000Z</time>
      </trkpt>
      <trkpt lat="42.73192" lon="1.45692">
        <ele>1013</ele>
        <time>2026-06-28T08:50:18.000Z</time>
      </trkpt>
      <trkpt lat="42.73194" lon="1.45692">
        <ele>1014</ele>
        <time>2026-06-28T08:50:19.000Z</time>
      </trkpt>
      <trkpt lat="42.73197" lon="1.45693">
        <ele>1014</ele>
        <time>2026-06-28T08:50:20.000Z</time>
      </trkpt>
      <trkpt lat="42.732" lon="1.45694">
        <ele>1014</ele>
        <time>2026-06-28T08:50:21.000Z</time>
      </trkpt>
      <trkpt lat="42.73202" lon="1.45693">
        <ele>1014</ele>
        <time>2026-06-28T08:50:22.000Z</time>
      </trkpt>
      <trkpt lat="42.73205" lon="1.45693">
        <ele>1015</ele>
        <time>2026-06-28T08:50:23.000Z</time>
      </trkpt>
      <trkpt lat="42.73208" lon="1.45692">
        <ele>1015</ele>
        <time>2026-06-28T08:50:24.000Z</time>
      </trkpt>
      <trkpt lat="42.73211" lon="1.45692">
        <ele>1015</ele>
        <time>2026-06-28T08:50:25.000Z</time>
      </trkpt>
      <trkpt lat="42.73213" lon="1.45691">
        <ele>1015</ele>
        <time>2026-06-28T08:50:26.000Z</time>
      </trkpt>
      <trkpt lat="42.73216" lon="1.45691">
        <ele>1016</ele>
        <time>2026-06-28T08:50:27.000Z</time>
      </trkpt>
      <trkpt lat="42.73218" lon="1.45691">
        <ele>1016</ele>
        <time>2026-06-28T08:50:28.000Z</time>
      </trkpt>
      <trkpt lat="42.73221" lon="1.4569">
        <ele>1017</ele>
        <time>2026-06-28T08:50:29.000Z</time>
      </trkpt>
      <trkpt lat="42.73223" lon="1.45689">
        <ele>1018</ele>
        <time>2026-06-28T08:50:30.000Z</time>
      </trkpt>
      <trkpt lat="42.73226" lon="1.45689">
        <ele>1019</ele>
        <time>2026-06-28T08:50:31.000Z</time>
      </trkpt>
      <trkpt lat="42.73228" lon="1.45689">
        <ele>1019</ele>
        <time>2026-06-28T08:50:32.000Z</time>
      </trkpt>
      <trkpt lat="42.73231" lon="1.45689">
        <ele>1019</ele>
        <time>2026-06-28T08:50:33.000Z</time>
      </trkpt>
      <trkpt lat="42.73233" lon="1.45689">
        <ele>1019</ele>
        <time>2026-06-28T08:50:34.000Z</time>
      </trkpt>
      <trkpt lat="42.73236" lon="1.45688">
        <ele>1020</ele>
        <time>2026-06-28T08:50:35.000Z</time>
      </trkpt>
      <trkpt lat="42.73239" lon="1.45687">
        <ele>1021</ele>
        <time>2026-06-28T08:50:36.000Z</time>
      </trkpt>
      <trkpt lat="42.73242" lon="1.45686">
        <ele>1022</ele>
        <time>2026-06-28T08:50:37.000Z</time>
      </trkpt>
      <trkpt lat="42.73244" lon="1.45684">
        <ele>1023</ele>
        <time>2026-06-28T08:50:38.000Z</time>
      </trkpt>
      <trkpt lat="42.73247" lon="1.45683">
        <ele>1024</ele>
        <time>2026-06-28T08:50:39.000Z</time>
      </trkpt>
      <trkpt lat="42.7325" lon="1.45682">
        <ele>1025</ele>
        <time>2026-06-28T08:50:40.000Z</time>
      </trkpt>
      <trkpt lat="42.73252" lon="1.45678">
        <ele>1026</ele>
        <time>2026-06-28T08:50:41.000Z</time>
      </trkpt>
      <trkpt lat="42.73255" lon="1.45676">
        <ele>1026</ele>
        <time>2026-06-28T08:50:42.000Z</time>
      </trkpt>
      <trkpt lat="42.73257" lon="1.45673">
        <ele>1026</ele>
        <time>2026-06-28T08:50:43.000Z</time>
      </trkpt>
      <trkpt lat="42.73261" lon="1.45671">
        <ele>1027</ele>
        <time>2026-06-28T08:50:44.000Z</time>
      </trkpt>
      <trkpt lat="42.73263" lon="1.4567">
        <ele>1027</ele>
        <time>2026-06-28T08:50:45.000Z</time>
      </trkpt>
      <trkpt lat="42.73266" lon="1.4567">
        <ele>1029</ele>
        <time>2026-06-28T08:50:46.000Z</time>
      </trkpt>
      <trkpt lat="42.73268" lon="1.45668">
        <ele>1030</ele>
        <time>2026-06-28T08:50:47.000Z</time>
      </trkpt>
      <trkpt lat="42.73271" lon="1.45667">
        <ele>1029</ele>
        <time>2026-06-28T08:50:48.000Z</time>
      </trkpt>
      <trkpt lat="42.73274" lon="1.45665">
        <ele>1030</ele>
        <time>2026-06-28T08:50:49.000Z</time>
      </trkpt>
      <trkpt lat="42.73277" lon="1.45664">
        <ele>1031</ele>
        <time>2026-06-28T08:50:50.000Z</time>
      </trkpt>
      <trkpt lat="42.7328" lon="1.45662">
        <ele>1031</ele>
        <time>2026-06-28T08:50:51.000Z</time>
      </trkpt>
      <trkpt lat="42.73282" lon="1.45663">
        <ele>1031</ele>
        <time>2026-06-28T08:50:52.000Z</time>
      </trkpt>
      <trkpt lat="42.73283" lon="1.45663">
        <ele>1031</ele>
        <time>2026-06-28T08:50:53.000Z</time>
      </trkpt>
      <trkpt lat="42.73285" lon="1.45663">
        <ele>1032</ele>
        <time>2026-06-28T08:50:54.000Z</time>
      </trkpt>
      <trkpt lat="42.73287" lon="1.45663">
        <ele>1033</ele>
        <time>2026-06-28T08:50:55.000Z</time>
      </trkpt>
      <trkpt lat="42.73288" lon="1.45664">
        <ele>1034</ele>
        <time>2026-06-28T08:50:56.000Z</time>
      </trkpt>
      <trkpt lat="42.73289" lon="1.45664">
        <ele>1036</ele>
        <time>2026-06-28T08:50:57.000Z</time>
      </trkpt>
      <trkpt lat="42.73291" lon="1.45665">
        <ele>1038</ele>
        <time>2026-06-28T08:50:58.000Z</time>
      </trkpt>
      <trkpt lat="42.73292" lon="1.45666">
        <ele>1040</ele>
        <time>2026-06-28T08:50:59.000Z</time>
      </trkpt>
      <trkpt lat="42.73293" lon="1.45667">
        <ele>1042</ele>
        <time>2026-06-28T08:51:00.000Z</time>
      </trkpt>
      <trkpt lat="42.73294" lon="1.45667">
        <ele>1044</ele>
        <time>2026-06-28T08:51:01.000Z</time>
      </trkpt>
      <trkpt lat="42.73295" lon="1.45667">
        <ele>1047</ele>
        <time>2026-06-28T08:51:02.000Z</time>
      </trkpt>
      <trkpt lat="42.73295" lon="1.45668">
        <ele>1050</ele>
        <time>2026-06-28T08:51:03.000Z</time>
      </trkpt>
      <trkpt lat="42.73296" lon="1.45669">
        <ele>1053</ele>
        <time>2026-06-28T08:51:04.000Z</time>
      </trkpt>
      <trkpt lat="42.73296" lon="1.4567">
        <ele>1057</ele>
        <time>2026-06-28T08:51:05.000Z</time>
      </trkpt>
      <trkpt lat="42.73297" lon="1.45671">
        <ele>1060</ele>
        <time>2026-06-28T08:51:06.000Z</time>
      </trkpt>
      <trkpt lat="42.73297" lon="1.45672">
        <ele>1063</ele>
        <time>2026-06-28T08:51:07.000Z</time>
      </trkpt>
      <trkpt lat="42.73298" lon="1.45674">
        <ele>1067</ele>
        <time>2026-06-28T08:51:08.000Z</time>
      </trkpt>
      <trkpt lat="42.73298" lon="1.45676">
        <ele>1071</ele>
        <time>2026-06-28T08:51:09.000Z</time>
      </trkpt>
      <trkpt lat="42.73299" lon="1.45678">
        <ele>1074</ele>
        <time>2026-06-28T08:51:10.000Z</time>
      </trkpt>
      <trkpt lat="42.733" lon="1.4568">
        <ele>1078</ele>
        <time>2026-06-28T08:51:11.000Z</time>
      </trkpt>
      <trkpt lat="42.73301" lon="1.45682">
        <ele>1080</ele>
        <time>2026-06-28T08:51:12.000Z</time>
      </trkpt>
      <trkpt lat="42.73302" lon="1.45683">
        <ele>1083</ele>
        <time>2026-06-28T08:51:13.000Z</time>
      </trkpt>
      <trkpt lat="42.73303" lon="1.45685">
        <ele>1085</ele>
        <time>2026-06-28T08:51:14.000Z</time>
      </trkpt>
      <trkpt lat="42.73304" lon="1.45686">
        <ele>1087</ele>
        <time>2026-06-28T08:51:15.000Z</time>
      </trkpt>
      <trkpt lat="42.73306" lon="1.45688">
        <ele>1089</ele>
        <time>2026-06-28T08:51:16.000Z</time>
      </trkpt>
      <trkpt lat="42.73309" lon="1.4569">
        <ele>1090</ele>
        <time>2026-06-28T08:51:17.000Z</time>
      </trkpt>
      <trkpt lat="42.73312" lon="1.45691">
        <ele>1090</ele>
        <time>2026-06-28T08:51:18.000Z</time>
      </trkpt>
      <trkpt lat="42.73314" lon="1.45691">
        <ele>1090</ele>
        <time>2026-06-28T08:51:19.000Z</time>
      </trkpt>
      <trkpt lat="42.73318" lon="1.45691">
        <ele>1090</ele>
        <time>2026-06-28T08:51:20.000Z</time>
      </trkpt>
      <trkpt lat="42.73321" lon="1.45691">
        <ele>1090</ele>
        <time>2026-06-28T08:51:21.000Z</time>
      </trkpt>
      <trkpt lat="42.73325" lon="1.45692">
        <ele>1089</ele>
        <time>2026-06-28T08:51:22.000Z</time>
      </trkpt>
      <trkpt lat="42.73328" lon="1.45692">
        <ele>1090</ele>
        <time>2026-06-28T08:51:23.000Z</time>
      </trkpt>
      <trkpt lat="42.73331" lon="1.45693">
        <ele>1090</ele>
        <time>2026-06-28T08:51:24.000Z</time>
      </trkpt>
      <trkpt lat="42.73334" lon="1.45693">
        <ele>1089</ele>
        <time>2026-06-28T08:51:25.000Z</time>
      </trkpt>
      <trkpt lat="42.73337" lon="1.45694">
        <ele>1088</ele>
        <time>2026-06-28T08:51:26.000Z</time>
      </trkpt>
      <trkpt lat="42.73341" lon="1.45695">
        <ele>1087</ele>
        <time>2026-06-28T08:51:27.000Z</time>
      </trkpt>
      <trkpt lat="42.73344" lon="1.45695">
        <ele>1086</ele>
        <time>2026-06-28T08:51:28.000Z</time>
      </trkpt>
      <trkpt lat="42.73347" lon="1.45695">
        <ele>1085</ele>
        <time>2026-06-28T08:51:29.000Z</time>
      </trkpt>
      <trkpt lat="42.7335" lon="1.45695">
        <ele>1084</ele>
        <time>2026-06-28T08:51:30.000Z</time>
      </trkpt>
      <trkpt lat="42.73353" lon="1.45695">
        <ele>1082</ele>
        <time>2026-06-28T08:51:31.000Z</time>
      </trkpt>
      <trkpt lat="42.73356" lon="1.45694">
        <ele>1081</ele>
        <time>2026-06-28T08:51:32.000Z</time>
      </trkpt>
      <trkpt lat="42.7336" lon="1.45693">
        <ele>1080</ele>
        <time>2026-06-28T08:51:33.000Z</time>
      </trkpt>
      <trkpt lat="42.73363" lon="1.45691">
        <ele>1079</ele>
        <time>2026-06-28T08:51:34.000Z</time>
      </trkpt>
      <trkpt lat="42.73366" lon="1.4569">
        <ele>1078</ele>
        <time>2026-06-28T08:51:35.000Z</time>
      </trkpt>
      <trkpt lat="42.73369" lon="1.45689">
        <ele>1077</ele>
        <time>2026-06-28T08:51:36.000Z</time>
      </trkpt>
      <trkpt lat="42.73372" lon="1.45687">
        <ele>1076</ele>
        <time>2026-06-28T08:51:37.000Z</time>
      </trkpt>
      <trkpt lat="42.73375" lon="1.45685">
        <ele>1074</ele>
        <time>2026-06-28T08:51:38.000Z</time>
      </trkpt>
      <trkpt lat="42.73378" lon="1.45684">
        <ele>1073</ele>
        <time>2026-06-28T08:51:39.000Z</time>
      </trkpt>
      <trkpt lat="42.7338" lon="1.45682">
        <ele>1072</ele>
        <time>2026-06-28T08:51:40.000Z</time>
      </trkpt>
      <trkpt lat="42.73382" lon="1.4568">
        <ele>1070</ele>
        <time>2026-06-28T08:51:41.000Z</time>
      </trkpt>
      <trkpt lat="42.73384" lon="1.45678">
        <ele>1069</ele>
        <time>2026-06-28T08:51:42.000Z</time>
      </trkpt>
      <trkpt lat="42.73385" lon="1.45675">
        <ele>1068</ele>
        <time>2026-06-28T08:51:43.000Z</time>
      </trkpt>
      <trkpt lat="42.73387" lon="1.45672">
        <ele>1067</ele>
        <time>2026-06-28T08:51:44.000Z</time>
      </trkpt>
      <trkpt lat="42.73388" lon="1.4567">
        <ele>1066</ele>
        <time>2026-06-28T08:51:45.000Z</time>
      </trkpt>
      <trkpt lat="42.73389" lon="1.45667">
        <ele>1065</ele>
        <time>2026-06-28T08:51:46.000Z</time>
      </trkpt>
      <trkpt lat="42.7339" lon="1.45664">
        <ele>1064</ele>
        <time>2026-06-28T08:51:47.000Z</time>
      </trkpt>
      <trkpt lat="42.73391" lon="1.45662">
        <ele>1064</ele>
        <time>2026-06-28T08:51:48.000Z</time>
      </trkpt>
      <trkpt lat="42.73393" lon="1.4566">
        <ele>1063</ele>
        <time>2026-06-28T08:51:49.000Z</time>
      </trkpt>
      <trkpt lat="42.73394" lon="1.45658">
        <ele>1063</ele>
        <time>2026-06-28T08:51:50.000Z</time>
      </trkpt>
      <trkpt lat="42.73395" lon="1.45655">
        <ele>1063</ele>
        <time>2026-06-28T08:51:51.000Z</time>
      </trkpt>
      <trkpt lat="42.73396" lon="1.45653">
        <ele>1062</ele>
        <time>2026-06-28T08:51:52.000Z</time>
      </trkpt>
      <trkpt lat="42.73398" lon="1.4565">
        <ele>1061</ele>
        <time>2026-06-28T08:51:53.000Z</time>
      </trkpt>
      <trkpt lat="42.73399" lon="1.45648">
        <ele>1061</ele>
        <time>2026-06-28T08:51:54.000Z</time>
      </trkpt>
      <trkpt lat="42.73401" lon="1.45645">
        <ele>1061</ele>
        <time>2026-06-28T08:51:55.000Z</time>
      </trkpt>
      <trkpt lat="42.73402" lon="1.45643">
        <ele>1060</ele>
        <time>2026-06-28T08:51:56.000Z</time>
      </trkpt>
      <trkpt lat="42.73404" lon="1.45639">
        <ele>1060</ele>
        <time>2026-06-28T08:51:57.000Z</time>
      </trkpt>
      <trkpt lat="42.73405" lon="1.45636">
        <ele>1060</ele>
        <time>2026-06-28T08:51:58.000Z</time>
      </trkpt>
      <trkpt lat="42.73407" lon="1.45633">
        <ele>1060</ele>
        <time>2026-06-28T08:51:59.000Z</time>
      </trkpt>
      <trkpt lat="42.73408" lon="1.4563">
        <ele>1060</ele>
        <time>2026-06-28T08:52:00.000Z</time>
      </trkpt>
      <trkpt lat="42.7341" lon="1.45627">
        <ele>1060</ele>
        <time>2026-06-28T08:52:01.000Z</time>
      </trkpt>
      <trkpt lat="42.73412" lon="1.45624">
        <ele>1060</ele>
        <time>2026-06-28T08:52:02.000Z</time>
      </trkpt>
      <trkpt lat="42.73414" lon="1.45621">
        <ele>1060</ele>
        <time>2026-06-28T08:52:03.000Z</time>
      </trkpt>
      <trkpt lat="42.73415" lon="1.45618">
        <ele>1061</ele>
        <time>2026-06-28T08:52:04.000Z</time>
      </trkpt>
      <trkpt lat="42.73417" lon="1.45615">
        <ele>1061</ele>
        <time>2026-06-28T08:52:05.000Z</time>
      </trkpt>
      <trkpt lat="42.73418" lon="1.45613">
        <ele>1060</ele>
        <time>2026-06-28T08:52:06.000Z</time>
      </trkpt>
      <trkpt lat="42.7342" lon="1.4561">
        <ele>1060</ele>
        <time>2026-06-28T08:52:07.000Z</time>
      </trkpt>
      <trkpt lat="42.73421" lon="1.45609">
        <ele>1061</ele>
        <time>2026-06-28T08:52:08.000Z</time>
      </trkpt>
      <trkpt lat="42.73423" lon="1.45606">
        <ele>1060</ele>
        <time>2026-06-28T08:52:09.000Z</time>
      </trkpt>
      <trkpt lat="42.73424" lon="1.45604">
        <ele>1060</ele>
        <time>2026-06-28T08:52:10.000Z</time>
      </trkpt>
      <trkpt lat="42.73426" lon="1.45602">
        <ele>1059</ele>
        <time>2026-06-28T08:52:11.000Z</time>
      </trkpt>
      <trkpt lat="42.73427" lon="1.45599">
        <ele>1060</ele>
        <time>2026-06-28T08:52:12.000Z</time>
      </trkpt>
      <trkpt lat="42.73428" lon="1.45595">
        <ele>1060</ele>
        <time>2026-06-28T08:52:13.000Z</time>
      </trkpt>
      <trkpt lat="42.7343" lon="1.4559">
        <ele>1059</ele>
        <time>2026-06-28T08:52:14.000Z</time>
      </trkpt>
      <trkpt lat="42.73431" lon="1.45585">
        <ele>1060</ele>
        <time>2026-06-28T08:52:15.000Z</time>
      </trkpt>
      <trkpt lat="42.73432" lon="1.4558">
        <ele>1060</ele>
        <time>2026-06-28T08:52:16.000Z</time>
      </trkpt>
      <trkpt lat="42.73433" lon="1.45576">
        <ele>1059</ele>
        <time>2026-06-28T08:52:17.000Z</time>
      </trkpt>
      <trkpt lat="42.73434" lon="1.45572">
        <ele>1059</ele>
        <time>2026-06-28T08:52:18.000Z</time>
      </trkpt>
      <trkpt lat="42.73435" lon="1.45568">
        <ele>1059</ele>
        <time>2026-06-28T08:52:19.000Z</time>
      </trkpt>
      <trkpt lat="42.73436" lon="1.45566">
        <ele>1059</ele>
        <time>2026-06-28T08:52:20.000Z</time>
      </trkpt>
      <trkpt lat="42.73436" lon="1.45563">
        <ele>1060</ele>
        <time>2026-06-28T08:52:21.000Z</time>
      </trkpt>
      <trkpt lat="42.73437" lon="1.45561">
        <ele>1060</ele>
        <time>2026-06-28T08:52:22.000Z</time>
      </trkpt>
      <trkpt lat="42.73437" lon="1.45558">
        <ele>1060</ele>
        <time>2026-06-28T08:52:23.000Z</time>
      </trkpt>
      <trkpt lat="42.73439" lon="1.45555">
        <ele>1060</ele>
        <time>2026-06-28T08:52:24.000Z</time>
      </trkpt>
      <trkpt lat="42.7344" lon="1.45553">
        <ele>1060</ele>
        <time>2026-06-28T08:52:25.000Z</time>
      </trkpt>
      <trkpt lat="42.73441" lon="1.45551">
        <ele>1060</ele>
        <time>2026-06-28T08:52:26.000Z</time>
      </trkpt>
      <trkpt lat="42.73442" lon="1.45549">
        <ele>1060</ele>
        <time>2026-06-28T08:52:27.000Z</time>
      </trkpt>
      <trkpt lat="42.73444" lon="1.45548">
        <ele>1060</ele>
        <time>2026-06-28T08:52:28.000Z</time>
      </trkpt>
      <trkpt lat="42.73445" lon="1.45547">
        <ele>1061</ele>
        <time>2026-06-28T08:52:29.000Z</time>
      </trkpt>
      <trkpt lat="42.73446" lon="1.45546">
        <ele>1061</ele>
        <time>2026-06-28T08:52:30.000Z</time>
      </trkpt>
      <trkpt lat="42.73446" lon="1.45547">
        <ele>1061</ele>
        <time>2026-06-28T08:52:31.000Z</time>
      </trkpt>
      <trkpt lat="42.73448" lon="1.45548">
        <ele>1061</ele>
        <time>2026-06-28T08:52:32.000Z</time>
      </trkpt>
      <trkpt lat="42.7345" lon="1.4555">
        <ele>1061</ele>
        <time>2026-06-28T08:52:33.000Z</time>
      </trkpt>
      <trkpt lat="42.73451" lon="1.4555">
        <ele>1061</ele>
        <time>2026-06-28T08:52:34.000Z</time>
      </trkpt>
      <trkpt lat="42.73453" lon="1.45549">
        <ele>1061</ele>
        <time>2026-06-28T08:52:35.000Z</time>
      </trkpt>
      <trkpt lat="42.73455" lon="1.45549">
        <ele>1061</ele>
        <time>2026-06-28T08:52:36.000Z</time>
      </trkpt>
      <trkpt lat="42.73456" lon="1.4555">
        <ele>1061</ele>
        <time>2026-06-28T08:52:37.000Z</time>
      </trkpt>
      <trkpt lat="42.73459" lon="1.4555">
        <ele>1061</ele>
        <time>2026-06-28T08:52:38.000Z</time>
      </trkpt>
      <trkpt lat="42.73461" lon="1.4555">
        <ele>1062</ele>
        <time>2026-06-28T08:52:39.000Z</time>
      </trkpt>
      <trkpt lat="42.73463" lon="1.45549">
        <ele>1062</ele>
        <time>2026-06-28T08:52:40.000Z</time>
      </trkpt>
      <trkpt lat="42.73465" lon="1.45549">
        <ele>1062</ele>
        <time>2026-06-28T08:52:41.000Z</time>
      </trkpt>
      <trkpt lat="42.73467" lon="1.45549">
        <ele>1062</ele>
        <time>2026-06-28T08:52:42.000Z</time>
      </trkpt>
      <trkpt lat="42.73469" lon="1.45548">
        <ele>1061</ele>
        <time>2026-06-28T08:52:43.000Z</time>
      </trkpt>
      <trkpt lat="42.73471" lon="1.45547">
        <ele>1061</ele>
        <time>2026-06-28T08:52:44.000Z</time>
      </trkpt>
      <trkpt lat="42.73473" lon="1.45547">
        <ele>1061</ele>
        <time>2026-06-28T08:52:45.000Z</time>
      </trkpt>
      <trkpt lat="42.73475" lon="1.45547">
        <ele>1061</ele>
        <time>2026-06-28T08:52:46.000Z</time>
      </trkpt>
      <trkpt lat="42.73477" lon="1.45546">
        <ele>1061</ele>
        <time>2026-06-28T08:52:47.000Z</time>
      </trkpt>
      <trkpt lat="42.73479" lon="1.45546">
        <ele>1061</ele>
        <time>2026-06-28T08:52:48.000Z</time>
      </trkpt>
      <trkpt lat="42.73481" lon="1.45545">
        <ele>1061</ele>
        <time>2026-06-28T08:52:49.000Z</time>
      </trkpt>
      <trkpt lat="42.73482" lon="1.45544">
        <ele>1061</ele>
        <time>2026-06-28T08:52:50.000Z</time>
      </trkpt>
      <trkpt lat="42.73484" lon="1.45542">
        <ele>1061</ele>
        <time>2026-06-28T08:52:51.000Z</time>
      </trkpt>
      <trkpt lat="42.73486" lon="1.45541">
        <ele>1061</ele>
        <time>2026-06-28T08:52:52.000Z</time>
      </trkpt>
      <trkpt lat="42.73488" lon="1.4554">
        <ele>1060</ele>
        <time>2026-06-28T08:52:53.000Z</time>
      </trkpt>
      <trkpt lat="42.7349" lon="1.45539">
        <ele>1060</ele>
        <time>2026-06-28T08:52:54.000Z</time>
      </trkpt>
      <trkpt lat="42.73492" lon="1.45538">
        <ele>1060</ele>
        <time>2026-06-28T08:52:55.000Z</time>
      </trkpt>
      <trkpt lat="42.73494" lon="1.45538">
        <ele>1060</ele>
        <time>2026-06-28T08:52:56.000Z</time>
      </trkpt>
      <trkpt lat="42.73496" lon="1.45536">
        <ele>1061</ele>
        <time>2026-06-28T08:52:57.000Z</time>
      </trkpt>
      <trkpt lat="42.73497" lon="1.45536">
        <ele>1061</ele>
        <time>2026-06-28T08:52:58.000Z</time>
      </trkpt>
      <trkpt lat="42.73499" lon="1.45535">
        <ele>1061</ele>
        <time>2026-06-28T08:52:59.000Z</time>
      </trkpt>
      <trkpt lat="42.73501" lon="1.45535">
        <ele>1062</ele>
        <time>2026-06-28T08:53:00.000Z</time>
      </trkpt>
      <trkpt lat="42.73503" lon="1.45534">
        <ele>1062</ele>
        <time>2026-06-28T08:53:01.000Z</time>
      </trkpt>
      <trkpt lat="42.73504" lon="1.45533">
        <ele>1063</ele>
        <time>2026-06-28T08:53:02.000Z</time>
      </trkpt>
      <trkpt lat="42.73506" lon="1.45533">
        <ele>1064</ele>
        <time>2026-06-28T08:53:03.000Z</time>
      </trkpt>
      <trkpt lat="42.73507" lon="1.45532">
        <ele>1064</ele>
        <time>2026-06-28T08:53:04.000Z</time>
      </trkpt>
      <trkpt lat="42.73509" lon="1.45532">
        <ele>1064</ele>
        <time>2026-06-28T08:53:05.000Z</time>
      </trkpt>
      <trkpt lat="42.7351" lon="1.45532">
        <ele>1064</ele>
        <time>2026-06-28T08:53:06.000Z</time>
      </trkpt>
      <trkpt lat="42.7351" lon="1.45532">
        <ele>1063</ele>
        <time>2026-06-28T08:53:07.000Z</time>
      </trkpt>
      <trkpt lat="42.73511" lon="1.45531">
        <ele>1064</ele>
        <time>2026-06-28T08:53:08.000Z</time>
      </trkpt>
      <trkpt lat="42.73513" lon="1.45531">
        <ele>1064</ele>
        <time>2026-06-28T08:53:09.000Z</time>
      </trkpt>
      <trkpt lat="42.73515" lon="1.4553">
        <ele>1064</ele>
        <time>2026-06-28T08:53:10.000Z</time>
      </trkpt>
      <trkpt lat="42.73518" lon="1.4553">
        <ele>1064</ele>
        <time>2026-06-28T08:53:11.000Z</time>
      </trkpt>
      <trkpt lat="42.73519" lon="1.45529">
        <ele>1064</ele>
        <time>2026-06-28T08:53:12.000Z</time>
      </trkpt>
      <trkpt lat="42.73521" lon="1.45528">
        <ele>1063</ele>
        <time>2026-06-28T08:53:13.000Z</time>
      </trkpt>
      <trkpt lat="42.73523" lon="1.45527">
        <ele>1064</ele>
        <time>2026-06-28T08:53:14.000Z</time>
      </trkpt>
      <trkpt lat="42.73525" lon="1.45526">
        <ele>1064</ele>
        <time>2026-06-28T08:53:15.000Z</time>
      </trkpt>
      <trkpt lat="42.73528" lon="1.45526">
        <ele>1064</ele>
        <time>2026-06-28T08:53:16.000Z</time>
      </trkpt>
      <trkpt lat="42.7353" lon="1.45525">
        <ele>1064</ele>
        <time>2026-06-28T08:53:17.000Z</time>
      </trkpt>
      <trkpt lat="42.73533" lon="1.45524">
        <ele>1065</ele>
        <time>2026-06-28T08:53:18.000Z</time>
      </trkpt>
      <trkpt lat="42.73535" lon="1.45524">
        <ele>1065</ele>
        <time>2026-06-28T08:53:19.000Z</time>
      </trkpt>
      <trkpt lat="42.73537" lon="1.45524">
        <ele>1065</ele>
        <time>2026-06-28T08:53:20.000Z</time>
      </trkpt>
      <trkpt lat="42.73538" lon="1.45522">
        <ele>1066</ele>
        <time>2026-06-28T08:53:21.000Z</time>
      </trkpt>
      <trkpt lat="42.73539" lon="1.45522">
        <ele>1066</ele>
        <time>2026-06-28T08:53:22.000Z</time>
      </trkpt>
      <trkpt lat="42.7354" lon="1.45522">
        <ele>1067</ele>
        <time>2026-06-28T08:53:23.000Z</time>
      </trkpt>
      <trkpt lat="42.73542" lon="1.45522">
        <ele>1067</ele>
        <time>2026-06-28T08:53:24.000Z</time>
      </trkpt>
      <trkpt lat="42.73543" lon="1.45521">
        <ele>1068</ele>
        <time>2026-06-28T08:53:25.000Z</time>
      </trkpt>
      <trkpt lat="42.73545" lon="1.4552">
        <ele>1068</ele>
        <time>2026-06-28T08:53:26.000Z</time>
      </trkpt>
      <trkpt lat="42.73546" lon="1.45519">
        <ele>1068</ele>
        <time>2026-06-28T08:53:27.000Z</time>
      </trkpt>
      <trkpt lat="42.73548" lon="1.45518">
        <ele>1069</ele>
        <time>2026-06-28T08:53:28.000Z</time>
      </trkpt>
      <trkpt lat="42.73549" lon="1.45517">
        <ele>1070</ele>
        <time>2026-06-28T08:53:29.000Z</time>
      </trkpt>
      <trkpt lat="42.73551" lon="1.45517">
        <ele>1070</ele>
        <time>2026-06-28T08:53:30.000Z</time>
      </trkpt>
      <trkpt lat="42.73553" lon="1.45517">
        <ele>1071</ele>
        <time>2026-06-28T08:53:31.000Z</time>
      </trkpt>
      <trkpt lat="42.73555" lon="1.45516">
        <ele>1071</ele>
        <time>2026-06-28T08:53:32.000Z</time>
      </trkpt>
      <trkpt lat="42.73557" lon="1.45515">
        <ele>1071</ele>
        <time>2026-06-28T08:53:33.000Z</time>
      </trkpt>
      <trkpt lat="42.7356" lon="1.45515">
        <ele>1071</ele>
        <time>2026-06-28T08:53:34.000Z</time>
      </trkpt>
      <trkpt lat="42.73563" lon="1.45514">
        <ele>1071</ele>
        <time>2026-06-28T08:53:35.000Z</time>
      </trkpt>
      <trkpt lat="42.73566" lon="1.45514">
        <ele>1071</ele>
        <time>2026-06-28T08:53:36.000Z</time>
      </trkpt>
      <trkpt lat="42.73568" lon="1.45514">
        <ele>1070</ele>
        <time>2026-06-28T08:53:37.000Z</time>
      </trkpt>
      <trkpt lat="42.73571" lon="1.45515">
        <ele>1072</ele>
        <time>2026-06-28T08:53:38.000Z</time>
      </trkpt>
      <trkpt lat="42.73573" lon="1.45516">
        <ele>1072</ele>
        <time>2026-06-28T08:53:39.000Z</time>
      </trkpt>
      <trkpt lat="42.73576" lon="1.45516">
        <ele>1072</ele>
        <time>2026-06-28T08:53:40.000Z</time>
      </trkpt>
      <trkpt lat="42.73579" lon="1.45516">
        <ele>1071</ele>
        <time>2026-06-28T08:53:41.000Z</time>
      </trkpt>
      <trkpt lat="42.73582" lon="1.45516">
        <ele>1071</ele>
        <time>2026-06-28T08:53:42.000Z</time>
      </trkpt>
      <trkpt lat="42.73584" lon="1.45516">
        <ele>1072</ele>
        <time>2026-06-28T08:53:43.000Z</time>
      </trkpt>
      <trkpt lat="42.73586" lon="1.45516">
        <ele>1072</ele>
        <time>2026-06-28T08:53:44.000Z</time>
      </trkpt>
      <trkpt lat="42.73587" lon="1.45516">
        <ele>1072</ele>
        <time>2026-06-28T08:53:45.000Z</time>
      </trkpt>
      <trkpt lat="42.7359" lon="1.45516">
        <ele>1072</ele>
        <time>2026-06-28T08:53:46.000Z</time>
      </trkpt>
      <trkpt lat="42.73592" lon="1.45516">
        <ele>1073</ele>
        <time>2026-06-28T08:53:47.000Z</time>
      </trkpt>
      <trkpt lat="42.73595" lon="1.45515">
        <ele>1073</ele>
        <time>2026-06-28T08:53:48.000Z</time>
      </trkpt>
      <trkpt lat="42.73598" lon="1.45515">
        <ele>1073</ele>
        <time>2026-06-28T08:53:49.000Z</time>
      </trkpt>
      <trkpt lat="42.736" lon="1.45515">
        <ele>1072</ele>
        <time>2026-06-28T08:53:50.000Z</time>
      </trkpt>
      <trkpt lat="42.73603" lon="1.45515">
        <ele>1072</ele>
        <time>2026-06-28T08:53:51.000Z</time>
      </trkpt>
      <trkpt lat="42.73606" lon="1.45513">
        <ele>1072</ele>
        <time>2026-06-28T08:53:52.000Z</time>
      </trkpt>
      <trkpt lat="42.73608" lon="1.45513">
        <ele>1072</ele>
        <time>2026-06-28T08:53:53.000Z</time>
      </trkpt>
      <trkpt lat="42.73611" lon="1.45513">
        <ele>1072</ele>
        <time>2026-06-28T08:53:54.000Z</time>
      </trkpt>
      <trkpt lat="42.73613" lon="1.45512">
        <ele>1072</ele>
        <time>2026-06-28T08:53:55.000Z</time>
      </trkpt>
      <trkpt lat="42.73615" lon="1.45512">
        <ele>1073</ele>
        <time>2026-06-28T08:53:56.000Z</time>
      </trkpt>
      <trkpt lat="42.73618" lon="1.45512">
        <ele>1074</ele>
        <time>2026-06-28T08:53:57.000Z</time>
      </trkpt>
      <trkpt lat="42.73621" lon="1.45511">
        <ele>1074</ele>
        <time>2026-06-28T08:53:58.000Z</time>
      </trkpt>
      <trkpt lat="42.73623" lon="1.45511">
        <ele>1073</ele>
        <time>2026-06-28T08:53:59.000Z</time>
      </trkpt>
      <trkpt lat="42.73626" lon="1.4551">
        <ele>1074</ele>
        <time>2026-06-28T08:54:00.000Z</time>
      </trkpt>
      <trkpt lat="42.73628" lon="1.45509">
        <ele>1074</ele>
        <time>2026-06-28T08:54:01.000Z</time>
      </trkpt>
      <trkpt lat="42.73631" lon="1.45508">
        <ele>1074</ele>
        <time>2026-06-28T08:54:02.000Z</time>
      </trkpt>
      <trkpt lat="42.73633" lon="1.45507">
        <ele>1075</ele>
        <time>2026-06-28T08:54:03.000Z</time>
      </trkpt>
      <trkpt lat="42.73635" lon="1.45505">
        <ele>1075</ele>
        <time>2026-06-28T08:54:04.000Z</time>
      </trkpt>
      <trkpt lat="42.73637" lon="1.45503">
        <ele>1075</ele>
        <time>2026-06-28T08:54:05.000Z</time>
      </trkpt>
      <trkpt lat="42.7364" lon="1.45501">
        <ele>1076</ele>
        <time>2026-06-28T08:54:06.000Z</time>
      </trkpt>
      <trkpt lat="42.73642" lon="1.45499">
        <ele>1076</ele>
        <time>2026-06-28T08:54:07.000Z</time>
      </trkpt>
      <trkpt lat="42.73644" lon="1.45497">
        <ele>1076</ele>
        <time>2026-06-28T08:54:08.000Z</time>
      </trkpt>
      <trkpt lat="42.73646" lon="1.45495">
        <ele>1077</ele>
        <time>2026-06-28T08:54:09.000Z</time>
      </trkpt>
      <trkpt lat="42.73648" lon="1.45493">
        <ele>1077</ele>
        <time>2026-06-28T08:54:10.000Z</time>
      </trkpt>
      <trkpt lat="42.7365" lon="1.45491">
        <ele>1077</ele>
        <time>2026-06-28T08:54:11.000Z</time>
      </trkpt>
      <trkpt lat="42.73652" lon="1.4549">
        <ele>1077</ele>
        <time>2026-06-28T08:54:12.000Z</time>
      </trkpt>
      <trkpt lat="42.73653" lon="1.45488">
        <ele>1076</ele>
        <time>2026-06-28T08:54:13.000Z</time>
      </trkpt>
      <trkpt lat="42.73655" lon="1.45488">
        <ele>1077</ele>
        <time>2026-06-28T08:54:14.000Z</time>
      </trkpt>
      <trkpt lat="42.73657" lon="1.45489">
        <ele>1077</ele>
        <time>2026-06-28T08:54:15.000Z</time>
      </trkpt>
      <trkpt lat="42.73657" lon="1.4549">
        <ele>1077</ele>
        <time>2026-06-28T08:54:16.000Z</time>
      </trkpt>
      <trkpt lat="42.73659" lon="1.4549">
        <ele>1079</ele>
        <time>2026-06-28T08:54:17.000Z</time>
      </trkpt>
      <trkpt lat="42.7366" lon="1.4549">
        <ele>1079</ele>
        <time>2026-06-28T08:54:18.000Z</time>
      </trkpt>
      <trkpt lat="42.73661" lon="1.4549">
        <ele>1078</ele>
        <time>2026-06-28T08:54:19.000Z</time>
      </trkpt>
      <trkpt lat="42.73661" lon="1.4549">
        <ele>1078</ele>
        <time>2026-06-28T08:54:20.000Z</time>
      </trkpt>
      <trkpt lat="42.73661" lon="1.45491">
        <ele>1079</ele>
        <time>2026-06-28T08:54:21.000Z</time>
      </trkpt>
      <trkpt lat="42.73661" lon="1.45492">
        <ele>1080</ele>
        <time>2026-06-28T08:54:22.000Z</time>
      </trkpt>
      <trkpt lat="42.73662" lon="1.45493">
        <ele>1080</ele>
        <time>2026-06-28T08:54:23.000Z</time>
      </trkpt>
      <trkpt lat="42.73662" lon="1.45494">
        <ele>1080</ele>
        <time>2026-06-28T08:54:24.000Z</time>
      </trkpt>
      <trkpt lat="42.73664" lon="1.45494">
        <ele>1079</ele>
        <time>2026-06-28T08:54:25.000Z</time>
      </trkpt>
      <trkpt lat="42.73665" lon="1.45495">
        <ele>1081</ele>
        <time>2026-06-28T08:54:26.000Z</time>
      </trkpt>
      <trkpt lat="42.73666" lon="1.45496">
        <ele>1081</ele>
        <time>2026-06-28T08:54:27.000Z</time>
      </trkpt>
      <trkpt lat="42.73667" lon="1.45497">
        <ele>1082</ele>
        <time>2026-06-28T08:54:28.000Z</time>
      </trkpt>
      <trkpt lat="42.73668" lon="1.45498">
        <ele>1082</ele>
        <time>2026-06-28T08:54:29.000Z</time>
      </trkpt>
      <trkpt lat="42.7367" lon="1.45499">
        <ele>1082</ele>
        <time>2026-06-28T08:54:30.000Z</time>
      </trkpt>
      <trkpt lat="42.73671" lon="1.455">
        <ele>1082</ele>
        <time>2026-06-28T08:54:31.000Z</time>
      </trkpt>
      <trkpt lat="42.73673" lon="1.45501">
        <ele>1082</ele>
        <time>2026-06-28T08:54:32.000Z</time>
      </trkpt>
      <trkpt lat="42.73675" lon="1.45502">
        <ele>1082</ele>
        <time>2026-06-28T08:54:33.000Z</time>
      </trkpt>
      <trkpt lat="42.73677" lon="1.45503">
        <ele>1082</ele>
        <time>2026-06-28T08:54:34.000Z</time>
      </trkpt>
      <trkpt lat="42.73679" lon="1.45503">
        <ele>1081</ele>
        <time>2026-06-28T08:54:35.000Z</time>
      </trkpt>
      <trkpt lat="42.73682" lon="1.45504">
        <ele>1081</ele>
        <time>2026-06-28T08:54:36.000Z</time>
      </trkpt>
      <trkpt lat="42.73685" lon="1.45504">
        <ele>1081</ele>
        <time>2026-06-28T08:54:37.000Z</time>
      </trkpt>
      <trkpt lat="42.73687" lon="1.45505">
        <ele>1080</ele>
        <time>2026-06-28T08:54:38.000Z</time>
      </trkpt>
      <trkpt lat="42.7369" lon="1.45507">
        <ele>1081</ele>
        <time>2026-06-28T08:54:39.000Z</time>
      </trkpt>
      <trkpt lat="42.73693" lon="1.45508">
        <ele>1082</ele>
        <time>2026-06-28T08:54:40.000Z</time>
      </trkpt>
      <trkpt lat="42.73696" lon="1.45509">
        <ele>1083</ele>
        <time>2026-06-28T08:54:41.000Z</time>
      </trkpt>
      <trkpt lat="42.73698" lon="1.45509">
        <ele>1083</ele>
        <time>2026-06-28T08:54:42.000Z</time>
      </trkpt>
      <trkpt lat="42.73701" lon="1.45509">
        <ele>1083</ele>
        <time>2026-06-28T08:54:43.000Z</time>
      </trkpt>
      <trkpt lat="42.73703" lon="1.45508">
        <ele>1083</ele>
        <time>2026-06-28T08:54:44.000Z</time>
      </trkpt>
      <trkpt lat="42.73706" lon="1.45508">
        <ele>1083</ele>
        <time>2026-06-28T08:54:45.000Z</time>
      </trkpt>
      <trkpt lat="42.73708" lon="1.45508">
        <ele>1083</ele>
        <time>2026-06-28T08:54:46.000Z</time>
      </trkpt>
      <trkpt lat="42.73711" lon="1.45508">
        <ele>1082</ele>
        <time>2026-06-28T08:54:47.000Z</time>
      </trkpt>
      <trkpt lat="42.73714" lon="1.45508">
        <ele>1081</ele>
        <time>2026-06-28T08:54:48.000Z</time>
      </trkpt>
      <trkpt lat="42.73718" lon="1.45506">
        <ele>1081</ele>
        <time>2026-06-28T08:54:49.000Z</time>
      </trkpt>
      <trkpt lat="42.73721" lon="1.45505">
        <ele>1081</ele>
        <time>2026-06-28T08:54:50.000Z</time>
      </trkpt>
      <trkpt lat="42.73724" lon="1.45502">
        <ele>1081</ele>
        <time>2026-06-28T08:54:51.000Z</time>
      </trkpt>
      <trkpt lat="42.73727" lon="1.455">
        <ele>1081</ele>
        <time>2026-06-28T08:54:52.000Z</time>
      </trkpt>
      <trkpt lat="42.7373" lon="1.45498">
        <ele>1081</ele>
        <time>2026-06-28T08:54:53.000Z</time>
      </trkpt>
      <trkpt lat="42.73732" lon="1.45496">
        <ele>1082</ele>
        <time>2026-06-28T08:54:54.000Z</time>
      </trkpt>
      <trkpt lat="42.73734" lon="1.45496">
        <ele>1082</ele>
        <time>2026-06-28T08:54:55.000Z</time>
      </trkpt>
      <trkpt lat="42.73736" lon="1.45495">
        <ele>1082</ele>
        <time>2026-06-28T08:54:56.000Z</time>
      </trkpt>
      <trkpt lat="42.73739" lon="1.45494">
        <ele>1082</ele>
        <time>2026-06-28T08:54:57.000Z</time>
      </trkpt>
      <trkpt lat="42.73741" lon="1.45493">
        <ele>1081</ele>
        <time>2026-06-28T08:54:58.000Z</time>
      </trkpt>
      <trkpt lat="42.73742" lon="1.45493">
        <ele>1080</ele>
        <time>2026-06-28T08:54:59.000Z</time>
      </trkpt>
      <trkpt lat="42.73744" lon="1.45493">
        <ele>1080</ele>
        <time>2026-06-28T08:55:00.000Z</time>
      </trkpt>
      <trkpt lat="42.73746" lon="1.45493">
        <ele>1079</ele>
        <time>2026-06-28T08:55:01.000Z</time>
      </trkpt>
      <trkpt lat="42.73747" lon="1.45494">
        <ele>1079</ele>
        <time>2026-06-28T08:55:02.000Z</time>
      </trkpt>
      <trkpt lat="42.73747" lon="1.45497">
        <ele>1080</ele>
        <time>2026-06-28T08:55:03.000Z</time>
      </trkpt>
      <trkpt lat="42.73748" lon="1.45497">
        <ele>1079</ele>
        <time>2026-06-28T08:55:04.000Z</time>
      </trkpt>
      <trkpt lat="42.73749" lon="1.45498">
        <ele>1080</ele>
        <time>2026-06-28T08:55:05.000Z</time>
      </trkpt>
      <trkpt lat="42.7375" lon="1.45499">
        <ele>1080</ele>
        <time>2026-06-28T08:55:06.000Z</time>
      </trkpt>
      <trkpt lat="42.73751" lon="1.45501">
        <ele>1080</ele>
        <time>2026-06-28T08:55:07.000Z</time>
      </trkpt>
      <trkpt lat="42.73753" lon="1.45503">
        <ele>1081</ele>
        <time>2026-06-28T08:55:08.000Z</time>
      </trkpt>
      <trkpt lat="42.73754" lon="1.45504">
        <ele>1081</ele>
        <time>2026-06-28T08:55:09.000Z</time>
      </trkpt>
      <trkpt lat="42.73756" lon="1.45505">
        <ele>1081</ele>
        <time>2026-06-28T08:55:10.000Z</time>
      </trkpt>
      <trkpt lat="42.73758" lon="1.45506">
        <ele>1081</ele>
        <time>2026-06-28T08:55:11.000Z</time>
      </trkpt>
      <trkpt lat="42.73759" lon="1.45508">
        <ele>1081</ele>
        <time>2026-06-28T08:55:12.000Z</time>
      </trkpt>
      <trkpt lat="42.7376" lon="1.45509">
        <ele>1081</ele>
        <time>2026-06-28T08:55:13.000Z</time>
      </trkpt>
      <trkpt lat="42.73761" lon="1.4551">
        <ele>1081</ele>
        <time>2026-06-28T08:55:14.000Z</time>
      </trkpt>
      <trkpt lat="42.73763" lon="1.45511">
        <ele>1082</ele>
        <time>2026-06-28T08:55:15.000Z</time>
      </trkpt>
      <trkpt lat="42.73765" lon="1.45513">
        <ele>1081</ele>
        <time>2026-06-28T08:55:16.000Z</time>
      </trkpt>
      <trkpt lat="42.73767" lon="1.45514">
        <ele>1081</ele>
        <time>2026-06-28T08:55:17.000Z</time>
      </trkpt>
      <trkpt lat="42.73769" lon="1.45516">
        <ele>1081</ele>
        <time>2026-06-28T08:55:18.000Z</time>
      </trkpt>
      <trkpt lat="42.73772" lon="1.45517">
        <ele>1080</ele>
        <time>2026-06-28T08:55:19.000Z</time>
      </trkpt>
      <trkpt lat="42.73773" lon="1.45519">
        <ele>1080</ele>
        <time>2026-06-28T08:55:20.000Z</time>
      </trkpt>
      <trkpt lat="42.73776" lon="1.4552">
        <ele>1080</ele>
        <time>2026-06-28T08:55:21.000Z</time>
      </trkpt>
      <trkpt lat="42.73778" lon="1.45521">
        <ele>1080</ele>
        <time>2026-06-28T08:55:22.000Z</time>
      </trkpt>
      <trkpt lat="42.73781" lon="1.45522">
        <ele>1081</ele>
        <time>2026-06-28T08:55:23.000Z</time>
      </trkpt>
      <trkpt lat="42.73783" lon="1.45522">
        <ele>1081</ele>
        <time>2026-06-28T08:55:24.000Z</time>
      </trkpt>
      <trkpt lat="42.73785" lon="1.45523">
        <ele>1081</ele>
        <time>2026-06-28T08:55:25.000Z</time>
      </trkpt>
      <trkpt lat="42.73788" lon="1.45524">
        <ele>1081</ele>
        <time>2026-06-28T08:55:26.000Z</time>
      </trkpt>
      <trkpt lat="42.73791" lon="1.45524">
        <ele>1081</ele>
        <time>2026-06-28T08:55:27.000Z</time>
      </trkpt>
      <trkpt lat="42.73793" lon="1.45525">
        <ele>1080</ele>
        <time>2026-06-28T08:55:28.000Z</time>
      </trkpt>
      <trkpt lat="42.73795" lon="1.45526">
        <ele>1080</ele>
        <time>2026-06-28T08:55:29.000Z</time>
      </trkpt>
      <trkpt lat="42.73797" lon="1.45526">
        <ele>1081</ele>
        <time>2026-06-28T08:55:30.000Z</time>
      </trkpt>
      <trkpt lat="42.73799" lon="1.45526">
        <ele>1081</ele>
        <time>2026-06-28T08:55:31.000Z</time>
      </trkpt>
      <trkpt lat="42.73802" lon="1.45526">
        <ele>1082</ele>
        <time>2026-06-28T08:55:32.000Z</time>
      </trkpt>
      <trkpt lat="42.73804" lon="1.45526">
        <ele>1082</ele>
        <time>2026-06-28T08:55:33.000Z</time>
      </trkpt>
      <trkpt lat="42.73807" lon="1.45526">
        <ele>1082</ele>
        <time>2026-06-28T08:55:34.000Z</time>
      </trkpt>
      <trkpt lat="42.73809" lon="1.45527">
        <ele>1082</ele>
        <time>2026-06-28T08:55:35.000Z</time>
      </trkpt>
      <trkpt lat="42.73812" lon="1.45527">
        <ele>1083</ele>
        <time>2026-06-28T08:55:36.000Z</time>
      </trkpt>
      <trkpt lat="42.73814" lon="1.45527">
        <ele>1083</ele>
        <time>2026-06-28T08:55:37.000Z</time>
      </trkpt>
      <trkpt lat="42.73816" lon="1.45527">
        <ele>1082</ele>
        <time>2026-06-28T08:55:38.000Z</time>
      </trkpt>
      <trkpt lat="42.73819" lon="1.45527">
        <ele>1082</ele>
        <time>2026-06-28T08:55:39.000Z</time>
      </trkpt>
      <trkpt lat="42.73821" lon="1.45527">
        <ele>1081</ele>
        <time>2026-06-28T08:55:40.000Z</time>
      </trkpt>
      <trkpt lat="42.73823" lon="1.45528">
        <ele>1082</ele>
        <time>2026-06-28T08:55:41.000Z</time>
      </trkpt>
      <trkpt lat="42.73825" lon="1.45529">
        <ele>1082</ele>
        <time>2026-06-28T08:55:42.000Z</time>
      </trkpt>
      <trkpt lat="42.73827" lon="1.45529">
        <ele>1082</ele>
        <time>2026-06-28T08:55:43.000Z</time>
      </trkpt>
      <trkpt lat="42.73829" lon="1.4553">
        <ele>1082</ele>
        <time>2026-06-28T08:55:44.000Z</time>
      </trkpt>
      <trkpt lat="42.7383" lon="1.45531">
        <ele>1083</ele>
        <time>2026-06-28T08:55:45.000Z</time>
      </trkpt>
      <trkpt lat="42.73833" lon="1.45532">
        <ele>1084</ele>
        <time>2026-06-28T08:55:46.000Z</time>
      </trkpt>
      <trkpt lat="42.73834" lon="1.45532">
        <ele>1085</ele>
        <time>2026-06-28T08:55:47.000Z</time>
      </trkpt>
      <trkpt lat="42.73836" lon="1.45533">
        <ele>1085</ele>
        <time>2026-06-28T08:55:48.000Z</time>
      </trkpt>
      <trkpt lat="42.73838" lon="1.45535">
        <ele>1085</ele>
        <time>2026-06-28T08:55:49.000Z</time>
      </trkpt>
      <trkpt lat="42.73839" lon="1.45535">
        <ele>1086</ele>
        <time>2026-06-28T08:55:50.000Z</time>
      </trkpt>
      <trkpt lat="42.7384" lon="1.45536">
        <ele>1086</ele>
        <time>2026-06-28T08:55:51.000Z</time>
      </trkpt>
      <trkpt lat="42.73843" lon="1.45537">
        <ele>1086</ele>
        <time>2026-06-28T08:55:52.000Z</time>
      </trkpt>
      <trkpt lat="42.73845" lon="1.45539">
        <ele>1086</ele>
        <time>2026-06-28T08:55:53.000Z</time>
      </trkpt>
      <trkpt lat="42.73848" lon="1.4554">
        <ele>1087</ele>
        <time>2026-06-28T08:55:54.000Z</time>
      </trkpt>
      <trkpt lat="42.7385" lon="1.4554">
        <ele>1087</ele>
        <time>2026-06-28T08:55:55.000Z</time>
      </trkpt>
      <trkpt lat="42.73852" lon="1.45541">
        <ele>1087</ele>
        <time>2026-06-28T08:55:56.000Z</time>
      </trkpt>
      <trkpt lat="42.73854" lon="1.45543">
        <ele>1088</ele>
        <time>2026-06-28T08:55:57.000Z</time>
      </trkpt>
      <trkpt lat="42.73856" lon="1.45545">
        <ele>1088</ele>
        <time>2026-06-28T08:55:58.000Z</time>
      </trkpt>
      <trkpt lat="42.73858" lon="1.45547">
        <ele>1088</ele>
        <time>2026-06-28T08:55:59.000Z</time>
      </trkpt>
      <trkpt lat="42.7386" lon="1.45549">
        <ele>1088</ele>
        <time>2026-06-28T08:56:00.000Z</time>
      </trkpt>
      <trkpt lat="42.73862" lon="1.4555">
        <ele>1088</ele>
        <time>2026-06-28T08:56:01.000Z</time>
      </trkpt>
      <trkpt lat="42.73864" lon="1.45551">
        <ele>1089</ele>
        <time>2026-06-28T08:56:02.000Z</time>
      </trkpt>
      <trkpt lat="42.73866" lon="1.45551">
        <ele>1090</ele>
        <time>2026-06-28T08:56:03.000Z</time>
      </trkpt>
      <trkpt lat="42.73868" lon="1.45552">
        <ele>1091</ele>
        <time>2026-06-28T08:56:04.000Z</time>
      </trkpt>
      <trkpt lat="42.7387" lon="1.45553">
        <ele>1092</ele>
        <time>2026-06-28T08:56:05.000Z</time>
      </trkpt>
      <trkpt lat="42.73872" lon="1.45554">
        <ele>1092</ele>
        <time>2026-06-28T08:56:06.000Z</time>
      </trkpt>
      <trkpt lat="42.73874" lon="1.45555">
        <ele>1092</ele>
        <time>2026-06-28T08:56:07.000Z</time>
      </trkpt>
      <trkpt lat="42.73877" lon="1.45556">
        <ele>1092</ele>
        <time>2026-06-28T08:56:08.000Z</time>
      </trkpt>
      <trkpt lat="42.73878" lon="1.45557">
        <ele>1092</ele>
        <time>2026-06-28T08:56:09.000Z</time>
      </trkpt>
      <trkpt lat="42.73881" lon="1.45558">
        <ele>1093</ele>
        <time>2026-06-28T08:56:10.000Z</time>
      </trkpt>
      <trkpt lat="42.73883" lon="1.45559">
        <ele>1093</ele>
        <time>2026-06-28T08:56:11.000Z</time>
      </trkpt>
      <trkpt lat="42.73885" lon="1.4556">
        <ele>1093</ele>
        <time>2026-06-28T08:56:12.000Z</time>
      </trkpt>
      <trkpt lat="42.73887" lon="1.4556">
        <ele>1093</ele>
        <time>2026-06-28T08:56:13.000Z</time>
      </trkpt>
      <trkpt lat="42.73889" lon="1.45561">
        <ele>1094</ele>
        <time>2026-06-28T08:56:14.000Z</time>
      </trkpt>
      <trkpt lat="42.73891" lon="1.45561">
        <ele>1094</ele>
        <time>2026-06-28T08:56:15.000Z</time>
      </trkpt>
      <trkpt lat="42.73893" lon="1.45562">
        <ele>1094</ele>
        <time>2026-06-28T08:56:16.000Z</time>
      </trkpt>
      <trkpt lat="42.73896" lon="1.45563">
        <ele>1094</ele>
        <time>2026-06-28T08:56:17.000Z</time>
      </trkpt>
      <trkpt lat="42.73898" lon="1.45563">
        <ele>1094</ele>
        <time>2026-06-28T08:56:18.000Z</time>
      </trkpt>
      <trkpt lat="42.739" lon="1.45564">
        <ele>1094</ele>
        <time>2026-06-28T08:56:19.000Z</time>
      </trkpt>
      <trkpt lat="42.73902" lon="1.45565">
        <ele>1095</ele>
        <time>2026-06-28T08:56:20.000Z</time>
      </trkpt>
      <trkpt lat="42.73904" lon="1.45566">
        <ele>1095</ele>
        <time>2026-06-28T08:56:21.000Z</time>
      </trkpt>
      <trkpt lat="42.73906" lon="1.45566">
        <ele>1096</ele>
        <time>2026-06-28T08:56:22.000Z</time>
      </trkpt>
      <trkpt lat="42.73907" lon="1.45568">
        <ele>1096</ele>
        <time>2026-06-28T08:56:23.000Z</time>
      </trkpt>
      <trkpt lat="42.73909" lon="1.45569">
        <ele>1096</ele>
        <time>2026-06-28T08:56:24.000Z</time>
      </trkpt>
      <trkpt lat="42.73912" lon="1.4557">
        <ele>1096</ele>
        <time>2026-06-28T08:56:25.000Z</time>
      </trkpt>
      <trkpt lat="42.73914" lon="1.45571">
        <ele>1096</ele>
        <time>2026-06-28T08:56:26.000Z</time>
      </trkpt>
      <trkpt lat="42.73916" lon="1.45573">
        <ele>1096</ele>
        <time>2026-06-28T08:56:27.000Z</time>
      </trkpt>
      <trkpt lat="42.73917" lon="1.45574">
        <ele>1096</ele>
        <time>2026-06-28T08:56:28.000Z</time>
      </trkpt>
      <trkpt lat="42.73919" lon="1.45575">
        <ele>1096</ele>
        <time>2026-06-28T08:56:29.000Z</time>
      </trkpt>
      <trkpt lat="42.73921" lon="1.45576">
        <ele>1096</ele>
        <time>2026-06-28T08:56:30.000Z</time>
      </trkpt>
      <trkpt lat="42.73923" lon="1.45577">
        <ele>1097</ele>
        <time>2026-06-28T08:56:31.000Z</time>
      </trkpt>
      <trkpt lat="42.73925" lon="1.45577">
        <ele>1097</ele>
        <time>2026-06-28T08:56:32.000Z</time>
      </trkpt>
      <trkpt lat="42.73926" lon="1.45578">
        <ele>1098</ele>
        <time>2026-06-28T08:56:33.000Z</time>
      </trkpt>
      <trkpt lat="42.73928" lon="1.45579">
        <ele>1099</ele>
        <time>2026-06-28T08:56:34.000Z</time>
      </trkpt>
      <trkpt lat="42.73929" lon="1.4558">
        <ele>1100</ele>
        <time>2026-06-28T08:56:35.000Z</time>
      </trkpt>
      <trkpt lat="42.73931" lon="1.45581">
        <ele>1100</ele>
        <time>2026-06-28T08:56:36.000Z</time>
      </trkpt>
      <trkpt lat="42.73933" lon="1.45582">
        <ele>1100</ele>
        <time>2026-06-28T08:56:37.000Z</time>
      </trkpt>
      <trkpt lat="42.73934" lon="1.45584">
        <ele>1101</ele>
        <time>2026-06-28T08:56:38.000Z</time>
      </trkpt>
      <trkpt lat="42.73937" lon="1.45584">
        <ele>1102</ele>
        <time>2026-06-28T08:56:39.000Z</time>
      </trkpt>
      <trkpt lat="42.73939" lon="1.45585">
        <ele>1102</ele>
        <time>2026-06-28T08:56:40.000Z</time>
      </trkpt>
      <trkpt lat="42.73941" lon="1.45586">
        <ele>1102</ele>
        <time>2026-06-28T08:56:41.000Z</time>
      </trkpt>
      <trkpt lat="42.73943" lon="1.45587">
        <ele>1102</ele>
        <time>2026-06-28T08:56:42.000Z</time>
      </trkpt>
      <trkpt lat="42.73946" lon="1.45587">
        <ele>1103</ele>
        <time>2026-06-28T08:56:43.000Z</time>
      </trkpt>
      <trkpt lat="42.73948" lon="1.45588">
        <ele>1103</ele>
        <time>2026-06-28T08:56:44.000Z</time>
      </trkpt>
      <trkpt lat="42.73951" lon="1.45587">
        <ele>1103</ele>
        <time>2026-06-28T08:56:45.000Z</time>
      </trkpt>
      <trkpt lat="42.73954" lon="1.45587">
        <ele>1102</ele>
        <time>2026-06-28T08:56:46.000Z</time>
      </trkpt>
      <trkpt lat="42.73956" lon="1.45587">
        <ele>1102</ele>
        <time>2026-06-28T08:56:47.000Z</time>
      </trkpt>
      <trkpt lat="42.73958" lon="1.45586">
        <ele>1102</ele>
        <time>2026-06-28T08:56:48.000Z</time>
      </trkpt>
      <trkpt lat="42.73961" lon="1.45586">
        <ele>1102</ele>
        <time>2026-06-28T08:56:49.000Z</time>
      </trkpt>
      <trkpt lat="42.73963" lon="1.45585">
        <ele>1102</ele>
        <time>2026-06-28T08:56:50.000Z</time>
      </trkpt>
      <trkpt lat="42.73965" lon="1.45584">
        <ele>1102</ele>
        <time>2026-06-28T08:56:51.000Z</time>
      </trkpt>
      <trkpt lat="42.73967" lon="1.45584">
        <ele>1101</ele>
        <time>2026-06-28T08:56:52.000Z</time>
      </trkpt>
      <trkpt lat="42.73969" lon="1.45583">
        <ele>1102</ele>
        <time>2026-06-28T08:56:53.000Z</time>
      </trkpt>
      <trkpt lat="42.73972" lon="1.45582">
        <ele>1102</ele>
        <time>2026-06-28T08:56:54.000Z</time>
      </trkpt>
      <trkpt lat="42.73974" lon="1.4558">
        <ele>1102</ele>
        <time>2026-06-28T08:56:55.000Z</time>
      </trkpt>
      <trkpt lat="42.73977" lon="1.45577">
        <ele>1101</ele>
        <time>2026-06-28T08:56:56.000Z</time>
      </trkpt>
      <trkpt lat="42.7398" lon="1.45575">
        <ele>1101</ele>
        <time>2026-06-28T08:56:57.000Z</time>
      </trkpt>
      <trkpt lat="42.73983" lon="1.45573">
        <ele>1101</ele>
        <time>2026-06-28T08:56:58.000Z</time>
      </trkpt>
      <trkpt lat="42.73985" lon="1.45571">
        <ele>1101</ele>
        <time>2026-06-28T08:56:59.000Z</time>
      </trkpt>
      <trkpt lat="42.73988" lon="1.45569">
        <ele>1101</ele>
        <time>2026-06-28T08:57:00.000Z</time>
      </trkpt>
      <trkpt lat="42.7399" lon="1.45567">
        <ele>1101</ele>
        <time>2026-06-28T08:57:01.000Z</time>
      </trkpt>
      <trkpt lat="42.73992" lon="1.45565">
        <ele>1102</ele>
        <time>2026-06-28T08:57:02.000Z</time>
      </trkpt>
      <trkpt lat="42.73994" lon="1.45564">
        <ele>1101</ele>
        <time>2026-06-28T08:57:03.000Z</time>
      </trkpt>
      <trkpt lat="42.73995" lon="1.45563">
        <ele>1102</ele>
        <time>2026-06-28T08:57:04.000Z</time>
      </trkpt>
      <trkpt lat="42.73998" lon="1.45563">
        <ele>1102</ele>
        <time>2026-06-28T08:57:05.000Z</time>
      </trkpt>
      <trkpt lat="42.73999" lon="1.45562">
        <ele>1102</ele>
        <time>2026-06-28T08:57:06.000Z</time>
      </trkpt>
      <trkpt lat="42.74" lon="1.45563">
        <ele>1102</ele>
        <time>2026-06-28T08:57:07.000Z</time>
      </trkpt>
      <trkpt lat="42.74001" lon="1.45564">
        <ele>1102</ele>
        <time>2026-06-28T08:57:08.000Z</time>
      </trkpt>
      <trkpt lat="42.74003" lon="1.45564">
        <ele>1102</ele>
        <time>2026-06-28T08:57:09.000Z</time>
      </trkpt>
      <trkpt lat="42.74004" lon="1.45565">
        <ele>1103</ele>
        <time>2026-06-28T08:57:10.000Z</time>
      </trkpt>
      <trkpt lat="42.74005" lon="1.45568">
        <ele>1104</ele>
        <time>2026-06-28T08:57:11.000Z</time>
      </trkpt>
      <trkpt lat="42.74005" lon="1.45571">
        <ele>1104</ele>
        <time>2026-06-28T08:57:12.000Z</time>
      </trkpt>
      <trkpt lat="42.74006" lon="1.45573">
        <ele>1104</ele>
        <time>2026-06-28T08:57:13.000Z</time>
      </trkpt>
      <trkpt lat="42.74005" lon="1.45575">
        <ele>1103</ele>
        <time>2026-06-28T08:57:14.000Z</time>
      </trkpt>
      <trkpt lat="42.74005" lon="1.45577">
        <ele>1103</ele>
        <time>2026-06-28T08:57:15.000Z</time>
      </trkpt>
      <trkpt lat="42.74004" lon="1.45578">
        <ele>1103</ele>
        <time>2026-06-28T08:57:16.000Z</time>
      </trkpt>
      <trkpt lat="42.74004" lon="1.45579">
        <ele>1103</ele>
        <time>2026-06-28T08:57:17.000Z</time>
      </trkpt>
      <trkpt lat="42.74004" lon="1.45581">
        <ele>1103</ele>
        <time>2026-06-28T08:57:18.000Z</time>
      </trkpt>
      <trkpt lat="42.74004" lon="1.45582">
        <ele>1103</ele>
        <time>2026-06-28T08:57:19.000Z</time>
      </trkpt>
      <trkpt lat="42.74004" lon="1.45584">
        <ele>1103</ele>
        <time>2026-06-28T08:57:20.000Z</time>
      </trkpt>
      <trkpt lat="42.74003" lon="1.45586">
        <ele>1103</ele>
        <time>2026-06-28T08:57:21.000Z</time>
      </trkpt>
      <trkpt lat="42.74003" lon="1.45588">
        <ele>1104</ele>
        <time>2026-06-28T08:57:22.000Z</time>
      </trkpt>
      <trkpt lat="42.74003" lon="1.45589">
        <ele>1104</ele>
        <time>2026-06-28T08:57:23.000Z</time>
      </trkpt>
      <trkpt lat="42.74003" lon="1.45591">
        <ele>1104</ele>
        <time>2026-06-28T08:57:24.000Z</time>
      </trkpt>
      <trkpt lat="42.74003" lon="1.45593">
        <ele>1105</ele>
        <time>2026-06-28T08:57:25.000Z</time>
      </trkpt>
      <trkpt lat="42.74003" lon="1.45596">
        <ele>1106</ele>
        <time>2026-06-28T08:57:26.000Z</time>
      </trkpt>
      <trkpt lat="42.74004" lon="1.45599">
        <ele>1106</ele>
        <time>2026-06-28T08:57:27.000Z</time>
      </trkpt>
      <trkpt lat="42.74005" lon="1.45601">
        <ele>1107</ele>
        <time>2026-06-28T08:57:28.000Z</time>
      </trkpt>
      <trkpt lat="42.74006" lon="1.45604">
        <ele>1106</ele>
        <time>2026-06-28T08:57:29.000Z</time>
      </trkpt>
      <trkpt lat="42.74007" lon="1.45606">
        <ele>1107</ele>
        <time>2026-06-28T08:57:30.000Z</time>
      </trkpt>
      <trkpt lat="42.74008" lon="1.45608">
        <ele>1107</ele>
        <time>2026-06-28T08:57:31.000Z</time>
      </trkpt>
      <trkpt lat="42.74009" lon="1.45611">
        <ele>1107</ele>
        <time>2026-06-28T08:57:32.000Z</time>
      </trkpt>
      <trkpt lat="42.74011" lon="1.45613">
        <ele>1107</ele>
        <time>2026-06-28T08:57:33.000Z</time>
      </trkpt>
      <trkpt lat="42.74012" lon="1.45616">
        <ele>1107</ele>
        <time>2026-06-28T08:57:34.000Z</time>
      </trkpt>
      <trkpt lat="42.74013" lon="1.45618">
        <ele>1108</ele>
        <time>2026-06-28T08:57:35.000Z</time>
      </trkpt>
      <trkpt lat="42.74014" lon="1.45619">
        <ele>1109</ele>
        <time>2026-06-28T08:57:36.000Z</time>
      </trkpt>
      <trkpt lat="42.74016" lon="1.45621">
        <ele>1109</ele>
        <time>2026-06-28T08:57:37.000Z</time>
      </trkpt>
      <trkpt lat="42.74017" lon="1.45623">
        <ele>1109</ele>
        <time>2026-06-28T08:57:38.000Z</time>
      </trkpt>
      <trkpt lat="42.74019" lon="1.45625">
        <ele>1109</ele>
        <time>2026-06-28T08:57:39.000Z</time>
      </trkpt>
      <trkpt lat="42.74021" lon="1.45626">
        <ele>1108</ele>
        <time>2026-06-28T08:57:40.000Z</time>
      </trkpt>
      <trkpt lat="42.74023" lon="1.45626">
        <ele>1108</ele>
        <time>2026-06-28T08:57:41.000Z</time>
      </trkpt>
      <trkpt lat="42.74026" lon="1.45625">
        <ele>1108</ele>
        <time>2026-06-28T08:57:42.000Z</time>
      </trkpt>
      <trkpt lat="42.74028" lon="1.45625">
        <ele>1108</ele>
        <time>2026-06-28T08:57:43.000Z</time>
      </trkpt>
      <trkpt lat="42.7403" lon="1.45625">
        <ele>1108</ele>
        <time>2026-06-28T08:57:44.000Z</time>
      </trkpt>
      <trkpt lat="42.74032" lon="1.45625">
        <ele>1108</ele>
        <time>2026-06-28T08:57:45.000Z</time>
      </trkpt>
      <trkpt lat="42.74034" lon="1.45625">
        <ele>1108</ele>
        <time>2026-06-28T08:57:46.000Z</time>
      </trkpt>
      <trkpt lat="42.74036" lon="1.45625">
        <ele>1108</ele>
        <time>2026-06-28T08:57:47.000Z</time>
      </trkpt>
      <trkpt lat="42.74038" lon="1.45625">
        <ele>1108</ele>
        <time>2026-06-28T08:57:48.000Z</time>
      </trkpt>
      <trkpt lat="42.7404" lon="1.45625">
        <ele>1108</ele>
        <time>2026-06-28T08:57:49.000Z</time>
      </trkpt>
      <trkpt lat="42.74042" lon="1.45625">
        <ele>1108</ele>
        <time>2026-06-28T08:57:50.000Z</time>
      </trkpt>
      <trkpt lat="42.74043" lon="1.45626">
        <ele>1108</ele>
        <time>2026-06-28T08:57:51.000Z</time>
      </trkpt>
      <trkpt lat="42.74044" lon="1.45627">
        <ele>1108</ele>
        <time>2026-06-28T08:57:52.000Z</time>
      </trkpt>
      <trkpt lat="42.74046" lon="1.45629">
        <ele>1108</ele>
        <time>2026-06-28T08:57:53.000Z</time>
      </trkpt>
      <trkpt lat="42.74047" lon="1.45631">
        <ele>1108</ele>
        <time>2026-06-28T08:57:54.000Z</time>
      </trkpt>
      <trkpt lat="42.74048" lon="1.45632">
        <ele>1109</ele>
        <time>2026-06-28T08:57:55.000Z</time>
      </trkpt>
      <trkpt lat="42.74049" lon="1.45634">
        <ele>1110</ele>
        <time>2026-06-28T08:57:56.000Z</time>
      </trkpt>
      <trkpt lat="42.7405" lon="1.45636">
        <ele>1110</ele>
        <time>2026-06-28T08:57:57.000Z</time>
      </trkpt>
      <trkpt lat="42.74051" lon="1.45637">
        <ele>1110</ele>
        <time>2026-06-28T08:57:58.000Z</time>
      </trkpt>
      <trkpt lat="42.74052" lon="1.45638">
        <ele>1110</ele>
        <time>2026-06-28T08:57:59.000Z</time>
      </trkpt>
      <trkpt lat="42.74053" lon="1.4564">
        <ele>1110</ele>
        <time>2026-06-28T08:58:00.000Z</time>
      </trkpt>
      <trkpt lat="42.74054" lon="1.45641">
        <ele>1110</ele>
        <time>2026-06-28T08:58:01.000Z</time>
      </trkpt>
      <trkpt lat="42.74055" lon="1.45642">
        <ele>1110</ele>
        <time>2026-06-28T08:58:02.000Z</time>
      </trkpt>
      <trkpt lat="42.74056" lon="1.45645">
        <ele>1111</ele>
        <time>2026-06-28T08:58:03.000Z</time>
      </trkpt>
      <trkpt lat="42.74057" lon="1.45646">
        <ele>1111</ele>
        <time>2026-06-28T08:58:04.000Z</time>
      </trkpt>
      <trkpt lat="42.74058" lon="1.45648">
        <ele>1111</ele>
        <time>2026-06-28T08:58:05.000Z</time>
      </trkpt>
      <trkpt lat="42.74058" lon="1.4565">
        <ele>1111</ele>
        <time>2026-06-28T08:58:06.000Z</time>
      </trkpt>
      <trkpt lat="42.74059" lon="1.45652">
        <ele>1111</ele>
        <time>2026-06-28T08:58:07.000Z</time>
      </trkpt>
      <trkpt lat="42.74059" lon="1.45654">
        <ele>1112</ele>
        <time>2026-06-28T08:58:08.000Z</time>
      </trkpt>
      <trkpt lat="42.74061" lon="1.45655">
        <ele>1112</ele>
        <time>2026-06-28T08:58:09.000Z</time>
      </trkpt>
      <trkpt lat="42.74062" lon="1.45656">
        <ele>1113</ele>
        <time>2026-06-28T08:58:10.000Z</time>
      </trkpt>
      <trkpt lat="42.74063" lon="1.45658">
        <ele>1113</ele>
        <time>2026-06-28T08:58:11.000Z</time>
      </trkpt>
      <trkpt lat="42.74065" lon="1.4566">
        <ele>1114</ele>
        <time>2026-06-28T08:58:12.000Z</time>
      </trkpt>
      <trkpt lat="42.74067" lon="1.45662">
        <ele>1114</ele>
        <time>2026-06-28T08:58:13.000Z</time>
      </trkpt>
      <trkpt lat="42.74068" lon="1.45664">
        <ele>1115</ele>
        <time>2026-06-28T08:58:14.000Z</time>
      </trkpt>
      <trkpt lat="42.74069" lon="1.45666">
        <ele>1115</ele>
        <time>2026-06-28T08:58:15.000Z</time>
      </trkpt>
      <trkpt lat="42.7407" lon="1.45668">
        <ele>1115</ele>
        <time>2026-06-28T08:58:16.000Z</time>
      </trkpt>
      <trkpt lat="42.74071" lon="1.4567">
        <ele>1115</ele>
        <time>2026-06-28T08:58:17.000Z</time>
      </trkpt>
      <trkpt lat="42.74073" lon="1.45672">
        <ele>1115</ele>
        <time>2026-06-28T08:58:18.000Z</time>
      </trkpt>
      <trkpt lat="42.74074" lon="1.45673">
        <ele>1116</ele>
        <time>2026-06-28T08:58:19.000Z</time>
      </trkpt>
      <trkpt lat="42.74075" lon="1.45674">
        <ele>1116</ele>
        <time>2026-06-28T08:58:20.000Z</time>
      </trkpt>
      <trkpt lat="42.74077" lon="1.45675">
        <ele>1116</ele>
        <time>2026-06-28T08:58:21.000Z</time>
      </trkpt>
      <trkpt lat="42.74079" lon="1.45677">
        <ele>1116</ele>
        <time>2026-06-28T08:58:22.000Z</time>
      </trkpt>
      <trkpt lat="42.7408" lon="1.45679">
        <ele>1117</ele>
        <time>2026-06-28T08:58:23.000Z</time>
      </trkpt>
      <trkpt lat="42.74082" lon="1.4568">
        <ele>1117</ele>
        <time>2026-06-28T08:58:24.000Z</time>
      </trkpt>
      <trkpt lat="42.74084" lon="1.45682">
        <ele>1118</ele>
        <time>2026-06-28T08:58:25.000Z</time>
      </trkpt>
      <trkpt lat="42.74085" lon="1.45683">
        <ele>1118</ele>
        <time>2026-06-28T08:58:26.000Z</time>
      </trkpt>
      <trkpt lat="42.74087" lon="1.45684">
        <ele>1118</ele>
        <time>2026-06-28T08:58:27.000Z</time>
      </trkpt>
      <trkpt lat="42.74089" lon="1.45685">
        <ele>1118</ele>
        <time>2026-06-28T08:58:28.000Z</time>
      </trkpt>
      <trkpt lat="42.74091" lon="1.45686">
        <ele>1119</ele>
        <time>2026-06-28T08:58:29.000Z</time>
      </trkpt>
      <trkpt lat="42.74092" lon="1.45687">
        <ele>1120</ele>
        <time>2026-06-28T08:58:30.000Z</time>
      </trkpt>
      <trkpt lat="42.74094" lon="1.45688">
        <ele>1120</ele>
        <time>2026-06-28T08:58:31.000Z</time>
      </trkpt>
      <trkpt lat="42.74095" lon="1.45689">
        <ele>1120</ele>
        <time>2026-06-28T08:58:32.000Z</time>
      </trkpt>
      <trkpt lat="42.74097" lon="1.4569">
        <ele>1121</ele>
        <time>2026-06-28T08:58:33.000Z</time>
      </trkpt>
      <trkpt lat="42.74099" lon="1.45691">
        <ele>1121</ele>
        <time>2026-06-28T08:58:34.000Z</time>
      </trkpt>
      <trkpt lat="42.74101" lon="1.45692">
        <ele>1121</ele>
        <time>2026-06-28T08:58:35.000Z</time>
      </trkpt>
      <trkpt lat="42.74102" lon="1.45693">
        <ele>1121</ele>
        <time>2026-06-28T08:58:36.000Z</time>
      </trkpt>
      <trkpt lat="42.74104" lon="1.45694">
        <ele>1121</ele>
        <time>2026-06-28T08:58:37.000Z</time>
      </trkpt>
      <trkpt lat="42.74107" lon="1.45694">
        <ele>1121</ele>
        <time>2026-06-28T08:58:38.000Z</time>
      </trkpt>
      <trkpt lat="42.74109" lon="1.45694">
        <ele>1122</ele>
        <time>2026-06-28T08:58:39.000Z</time>
      </trkpt>
      <trkpt lat="42.74111" lon="1.45694">
        <ele>1122</ele>
        <time>2026-06-28T08:58:40.000Z</time>
      </trkpt>
      <trkpt lat="42.74112" lon="1.45695">
        <ele>1122</ele>
        <time>2026-06-28T08:58:41.000Z</time>
      </trkpt>
      <trkpt lat="42.74114" lon="1.45695">
        <ele>1122</ele>
        <time>2026-06-28T08:58:42.000Z</time>
      </trkpt>
      <trkpt lat="42.74115" lon="1.45695">
        <ele>1123</ele>
        <time>2026-06-28T08:58:43.000Z</time>
      </trkpt>
      <trkpt lat="42.74116" lon="1.45696">
        <ele>1123</ele>
        <time>2026-06-28T08:58:44.000Z</time>
      </trkpt>
      <trkpt lat="42.74117" lon="1.45697">
        <ele>1124</ele>
        <time>2026-06-28T08:58:45.000Z</time>
      </trkpt>
      <trkpt lat="42.74118" lon="1.45698">
        <ele>1125</ele>
        <time>2026-06-28T08:58:46.000Z</time>
      </trkpt>
      <trkpt lat="42.74119" lon="1.45699">
        <ele>1125</ele>
        <time>2026-06-28T08:58:47.000Z</time>
      </trkpt>
      <trkpt lat="42.74121" lon="1.457">
        <ele>1125</ele>
        <time>2026-06-28T08:58:48.000Z</time>
      </trkpt>
      <trkpt lat="42.74122" lon="1.45701">
        <ele>1126</ele>
        <time>2026-06-28T08:58:49.000Z</time>
      </trkpt>
      <trkpt lat="42.74124" lon="1.45702">
        <ele>1126</ele>
        <time>2026-06-28T08:58:50.000Z</time>
      </trkpt>
      <trkpt lat="42.74126" lon="1.45702">
        <ele>1126</ele>
        <time>2026-06-28T08:58:51.000Z</time>
      </trkpt>
      <trkpt lat="42.74128" lon="1.45703">
        <ele>1126</ele>
        <time>2026-06-28T08:58:52.000Z</time>
      </trkpt>
      <trkpt lat="42.7413" lon="1.45704">
        <ele>1127</ele>
        <time>2026-06-28T08:58:53.000Z</time>
      </trkpt>
      <trkpt lat="42.74131" lon="1.45705">
        <ele>1127</ele>
        <time>2026-06-28T08:58:54.000Z</time>
      </trkpt>
      <trkpt lat="42.74133" lon="1.45706">
        <ele>1127</ele>
        <time>2026-06-28T08:58:55.000Z</time>
      </trkpt>
      <trkpt lat="42.74135" lon="1.45708">
        <ele>1127</ele>
        <time>2026-06-28T08:58:56.000Z</time>
      </trkpt>
      <trkpt lat="42.74135" lon="1.45708">
        <ele>1127</ele>
        <time>2026-06-28T08:58:57.000Z</time>
      </trkpt>
      <trkpt lat="42.74137" lon="1.45709">
        <ele>1127</ele>
        <time>2026-06-28T08:58:58.000Z</time>
      </trkpt>
      <trkpt lat="42.74138" lon="1.45711">
        <ele>1128</ele>
        <time>2026-06-28T08:58:59.000Z</time>
      </trkpt>
      <trkpt lat="42.74138" lon="1.45712">
        <ele>1128</ele>
        <time>2026-06-28T08:59:00.000Z</time>
      </trkpt>
      <trkpt lat="42.7414" lon="1.45714">
        <ele>1129</ele>
        <time>2026-06-28T08:59:01.000Z</time>
      </trkpt>
      <trkpt lat="42.74141" lon="1.45715">
        <ele>1129</ele>
        <time>2026-06-28T08:59:02.000Z</time>
      </trkpt>
      <trkpt lat="42.74142" lon="1.45716">
        <ele>1130</ele>
        <time>2026-06-28T08:59:03.000Z</time>
      </trkpt>
      <trkpt lat="42.74143" lon="1.45717">
        <ele>1130</ele>
        <time>2026-06-28T08:59:04.000Z</time>
      </trkpt>
      <trkpt lat="42.74145" lon="1.45719">
        <ele>1131</ele>
        <time>2026-06-28T08:59:05.000Z</time>
      </trkpt>
      <trkpt lat="42.74146" lon="1.45721">
        <ele>1131</ele>
        <time>2026-06-28T08:59:06.000Z</time>
      </trkpt>
      <trkpt lat="42.74147" lon="1.45723">
        <ele>1132</ele>
        <time>2026-06-28T08:59:07.000Z</time>
      </trkpt>
      <trkpt lat="42.74148" lon="1.45724">
        <ele>1133</ele>
        <time>2026-06-28T08:59:08.000Z</time>
      </trkpt>
      <trkpt lat="42.7415" lon="1.45725">
        <ele>1134</ele>
        <time>2026-06-28T08:59:09.000Z</time>
      </trkpt>
      <trkpt lat="42.74151" lon="1.45727">
        <ele>1135</ele>
        <time>2026-06-28T08:59:10.000Z</time>
      </trkpt>
      <trkpt lat="42.74153" lon="1.45728">
        <ele>1135</ele>
        <time>2026-06-28T08:59:11.000Z</time>
      </trkpt>
      <trkpt lat="42.74155" lon="1.4573">
        <ele>1136</ele>
        <time>2026-06-28T08:59:12.000Z</time>
      </trkpt>
      <trkpt lat="42.74157" lon="1.45731">
        <ele>1137</ele>
        <time>2026-06-28T08:59:13.000Z</time>
      </trkpt>
      <trkpt lat="42.74159" lon="1.45732">
        <ele>1137</ele>
        <time>2026-06-28T08:59:14.000Z</time>
      </trkpt>
      <trkpt lat="42.74161" lon="1.45734">
        <ele>1137</ele>
        <time>2026-06-28T08:59:15.000Z</time>
      </trkpt>
      <trkpt lat="42.74162" lon="1.45735">
        <ele>1137</ele>
        <time>2026-06-28T08:59:16.000Z</time>
      </trkpt>
      <trkpt lat="42.74163" lon="1.45737">
        <ele>1137</ele>
        <time>2026-06-28T08:59:17.000Z</time>
      </trkpt>
      <trkpt lat="42.74165" lon="1.45739">
        <ele>1137</ele>
        <time>2026-06-28T08:59:18.000Z</time>
      </trkpt>
      <trkpt lat="42.74166" lon="1.4574">
        <ele>1137</ele>
        <time>2026-06-28T08:59:19.000Z</time>
      </trkpt>
      <trkpt lat="42.74169" lon="1.45742">
        <ele>1137</ele>
        <time>2026-06-28T08:59:20.000Z</time>
      </trkpt>
      <trkpt lat="42.74171" lon="1.45743">
        <ele>1137</ele>
        <time>2026-06-28T08:59:21.000Z</time>
      </trkpt>
      <trkpt lat="42.74173" lon="1.45744">
        <ele>1136</ele>
        <time>2026-06-28T08:59:22.000Z</time>
      </trkpt>
      <trkpt lat="42.74175" lon="1.45746">
        <ele>1136</ele>
        <time>2026-06-28T08:59:23.000Z</time>
      </trkpt>
      <trkpt lat="42.74177" lon="1.45747">
        <ele>1136</ele>
        <time>2026-06-28T08:59:24.000Z</time>
      </trkpt>
      <trkpt lat="42.74178" lon="1.45748">
        <ele>1136</ele>
        <time>2026-06-28T08:59:25.000Z</time>
      </trkpt>
      <trkpt lat="42.74181" lon="1.45748">
        <ele>1137</ele>
        <time>2026-06-28T08:59:26.000Z</time>
      </trkpt>
      <trkpt lat="42.74183" lon="1.45749">
        <ele>1137</ele>
        <time>2026-06-28T08:59:27.000Z</time>
      </trkpt>
      <trkpt lat="42.74185" lon="1.4575">
        <ele>1136</ele>
        <time>2026-06-28T08:59:28.000Z</time>
      </trkpt>
      <trkpt lat="42.74187" lon="1.4575">
        <ele>1136</ele>
        <time>2026-06-28T08:59:29.000Z</time>
      </trkpt>
      <trkpt lat="42.74189" lon="1.45751">
        <ele>1136</ele>
        <time>2026-06-28T08:59:30.000Z</time>
      </trkpt>
      <trkpt lat="42.74191" lon="1.45752">
        <ele>1136</ele>
        <time>2026-06-28T08:59:31.000Z</time>
      </trkpt>
      <trkpt lat="42.74193" lon="1.45752">
        <ele>1136</ele>
        <time>2026-06-28T08:59:32.000Z</time>
      </trkpt>
      <trkpt lat="42.74196" lon="1.45752">
        <ele>1136</ele>
        <time>2026-06-28T08:59:33.000Z</time>
      </trkpt>
      <trkpt lat="42.74198" lon="1.45751">
        <ele>1136</ele>
        <time>2026-06-28T08:59:34.000Z</time>
      </trkpt>
      <trkpt lat="42.74199" lon="1.45751">
        <ele>1136</ele>
        <time>2026-06-28T08:59:35.000Z</time>
      </trkpt>
      <trkpt lat="42.74201" lon="1.4575">
        <ele>1137</ele>
        <time>2026-06-28T08:59:36.000Z</time>
      </trkpt>
      <trkpt lat="42.74203" lon="1.4575">
        <ele>1136</ele>
        <time>2026-06-28T08:59:37.000Z</time>
      </trkpt>
      <trkpt lat="42.74204" lon="1.4575">
        <ele>1137</ele>
        <time>2026-06-28T08:59:38.000Z</time>
      </trkpt>
      <trkpt lat="42.74206" lon="1.45749">
        <ele>1136</ele>
        <time>2026-06-28T08:59:39.000Z</time>
      </trkpt>
      <trkpt lat="42.74207" lon="1.45749">
        <ele>1136</ele>
        <time>2026-06-28T08:59:40.000Z</time>
      </trkpt>
      <trkpt lat="42.74209" lon="1.45749">
        <ele>1137</ele>
        <time>2026-06-28T08:59:41.000Z</time>
      </trkpt>
      <trkpt lat="42.7421" lon="1.4575">
        <ele>1137</ele>
        <time>2026-06-28T08:59:42.000Z</time>
      </trkpt>
      <trkpt lat="42.74212" lon="1.4575">
        <ele>1136</ele>
        <time>2026-06-28T08:59:43.000Z</time>
      </trkpt>
      <trkpt lat="42.74214" lon="1.4575">
        <ele>1136</ele>
        <time>2026-06-28T08:59:44.000Z</time>
      </trkpt>
      <trkpt lat="42.74216" lon="1.4575">
        <ele>1136</ele>
        <time>2026-06-28T08:59:45.000Z</time>
      </trkpt>
      <trkpt lat="42.74218" lon="1.45749">
        <ele>1136</ele>
        <time>2026-06-28T08:59:46.000Z</time>
      </trkpt>
      <trkpt lat="42.7422" lon="1.45749">
        <ele>1135</ele>
        <time>2026-06-28T08:59:47.000Z</time>
      </trkpt>
      <trkpt lat="42.74221" lon="1.45749">
        <ele>1135</ele>
        <time>2026-06-28T08:59:48.000Z</time>
      </trkpt>
      <trkpt lat="42.74222" lon="1.45748">
        <ele>1136</ele>
        <time>2026-06-28T08:59:49.000Z</time>
      </trkpt>
      <trkpt lat="42.74223" lon="1.45748">
        <ele>1136</ele>
        <time>2026-06-28T08:59:50.000Z</time>
      </trkpt>
      <trkpt lat="42.74225" lon="1.45748">
        <ele>1137</ele>
        <time>2026-06-28T08:59:51.000Z</time>
      </trkpt>
      <trkpt lat="42.74226" lon="1.45748">
        <ele>1138</ele>
        <time>2026-06-28T08:59:52.000Z</time>
      </trkpt>
      <trkpt lat="42.74228" lon="1.45748">
        <ele>1138</ele>
        <time>2026-06-28T08:59:53.000Z</time>
      </trkpt>
      <trkpt lat="42.7423" lon="1.45746">
        <ele>1138</ele>
        <time>2026-06-28T08:59:54.000Z</time>
      </trkpt>
      <trkpt lat="42.74232" lon="1.45746">
        <ele>1138</ele>
        <time>2026-06-28T08:59:55.000Z</time>
      </trkpt>
      <trkpt lat="42.74234" lon="1.45746">
        <ele>1139</ele>
        <time>2026-06-28T08:59:56.000Z</time>
      </trkpt>
      <trkpt lat="42.74235" lon="1.45746">
        <ele>1139</ele>
        <time>2026-06-28T08:59:57.000Z</time>
      </trkpt>
      <trkpt lat="42.74237" lon="1.45745">
        <ele>1140</ele>
        <time>2026-06-28T08:59:58.000Z</time>
      </trkpt>
      <trkpt lat="42.74239" lon="1.45744">
        <ele>1140</ele>
        <time>2026-06-28T08:59:59.000Z</time>
      </trkpt>
      <trkpt lat="42.74241" lon="1.45743">
        <ele>1141</ele>
        <time>2026-06-28T09:00:00.000Z</time>
      </trkpt>
      <trkpt lat="42.74242" lon="1.45743">
        <ele>1141</ele>
        <time>2026-06-28T09:00:01.000Z</time>
      </trkpt>
      <trkpt lat="42.74244" lon="1.45743">
        <ele>1141</ele>
        <time>2026-06-28T09:00:02.000Z</time>
      </trkpt>
      <trkpt lat="42.74246" lon="1.45743">
        <ele>1141</ele>
        <time>2026-06-28T09:00:03.000Z</time>
      </trkpt>
      <trkpt lat="42.74248" lon="1.45742">
        <ele>1141</ele>
        <time>2026-06-28T09:00:04.000Z</time>
      </trkpt>
      <trkpt lat="42.7425" lon="1.45741">
        <ele>1141</ele>
        <time>2026-06-28T09:00:05.000Z</time>
      </trkpt>
      <trkpt lat="42.74252" lon="1.4574">
        <ele>1142</ele>
        <time>2026-06-28T09:00:06.000Z</time>
      </trkpt>
      <trkpt lat="42.74254" lon="1.4574">
        <ele>1142</ele>
        <time>2026-06-28T09:00:07.000Z</time>
      </trkpt>
      <trkpt lat="42.74255" lon="1.4574">
        <ele>1141</ele>
        <time>2026-06-28T09:00:08.000Z</time>
      </trkpt>
      <trkpt lat="42.74258" lon="1.45739">
        <ele>1141</ele>
        <time>2026-06-28T09:00:09.000Z</time>
      </trkpt>
      <trkpt lat="42.74259" lon="1.45738">
        <ele>1142</ele>
        <time>2026-06-28T09:00:10.000Z</time>
      </trkpt>
      <trkpt lat="42.74261" lon="1.45737">
        <ele>1142</ele>
        <time>2026-06-28T09:00:11.000Z</time>
      </trkpt>
      <trkpt lat="42.74262" lon="1.45737">
        <ele>1142</ele>
        <time>2026-06-28T09:00:12.000Z</time>
      </trkpt>
      <trkpt lat="42.74264" lon="1.45737">
        <ele>1143</ele>
        <time>2026-06-28T09:00:13.000Z</time>
      </trkpt>
      <trkpt lat="42.74265" lon="1.45736">
        <ele>1143</ele>
        <time>2026-06-28T09:00:14.000Z</time>
      </trkpt>
      <trkpt lat="42.74267" lon="1.45734">
        <ele>1144</ele>
        <time>2026-06-28T09:00:15.000Z</time>
      </trkpt>
      <trkpt lat="42.74268" lon="1.45733">
        <ele>1144</ele>
        <time>2026-06-28T09:00:16.000Z</time>
      </trkpt>
      <trkpt lat="42.7427" lon="1.45731">
        <ele>1144</ele>
        <time>2026-06-28T09:00:17.000Z</time>
      </trkpt>
      <trkpt lat="42.74271" lon="1.45729">
        <ele>1145</ele>
        <time>2026-06-28T09:00:18.000Z</time>
      </trkpt>
      <trkpt lat="42.74273" lon="1.45728">
        <ele>1145</ele>
        <time>2026-06-28T09:00:19.000Z</time>
      </trkpt>
      <trkpt lat="42.74275" lon="1.45726">
        <ele>1146</ele>
        <time>2026-06-28T09:00:20.000Z</time>
      </trkpt>
      <trkpt lat="42.74277" lon="1.45725">
        <ele>1145</ele>
        <time>2026-06-28T09:00:21.000Z</time>
      </trkpt>
      <trkpt lat="42.74278" lon="1.45724">
        <ele>1146</ele>
        <time>2026-06-28T09:00:22.000Z</time>
      </trkpt>
      <trkpt lat="42.7428" lon="1.45722">
        <ele>1146</ele>
        <time>2026-06-28T09:00:23.000Z</time>
      </trkpt>
      <trkpt lat="42.74282" lon="1.45719">
        <ele>1146</ele>
        <time>2026-06-28T09:00:24.000Z</time>
      </trkpt>
      <trkpt lat="42.74284" lon="1.45717">
        <ele>1146</ele>
        <time>2026-06-28T09:00:25.000Z</time>
      </trkpt>
      <trkpt lat="42.74285" lon="1.45715">
        <ele>1147</ele>
        <time>2026-06-28T09:00:26.000Z</time>
      </trkpt>
      <trkpt lat="42.74286" lon="1.45713">
        <ele>1148</ele>
        <time>2026-06-28T09:00:27.000Z</time>
      </trkpt>
      <trkpt lat="42.74288" lon="1.45711">
        <ele>1149</ele>
        <time>2026-06-28T09:00:28.000Z</time>
      </trkpt>
      <trkpt lat="42.74289" lon="1.4571">
        <ele>1149</ele>
        <time>2026-06-28T09:00:29.000Z</time>
      </trkpt>
      <trkpt lat="42.7429" lon="1.45708">
        <ele>1150</ele>
        <time>2026-06-28T09:00:30.000Z</time>
      </trkpt>
      <trkpt lat="42.74291" lon="1.45705">
        <ele>1151</ele>
        <time>2026-06-28T09:00:31.000Z</time>
      </trkpt>
      <trkpt lat="42.74292" lon="1.45703">
        <ele>1151</ele>
        <time>2026-06-28T09:00:32.000Z</time>
      </trkpt>
      <trkpt lat="42.74292" lon="1.45701">
        <ele>1152</ele>
        <time>2026-06-28T09:00:33.000Z</time>
      </trkpt>
      <trkpt lat="42.74293" lon="1.45699">
        <ele>1152</ele>
        <time>2026-06-28T09:00:34.000Z</time>
      </trkpt>
      <trkpt lat="42.74294" lon="1.45697">
        <ele>1152</ele>
        <time>2026-06-28T09:00:35.000Z</time>
      </trkpt>
      <trkpt lat="42.74294" lon="1.45695">
        <ele>1153</ele>
        <time>2026-06-28T09:00:36.000Z</time>
      </trkpt>
      <trkpt lat="42.74294" lon="1.45692">
        <ele>1153</ele>
        <time>2026-06-28T09:00:37.000Z</time>
      </trkpt>
      <trkpt lat="42.74295" lon="1.4569">
        <ele>1154</ele>
        <time>2026-06-28T09:00:38.000Z</time>
      </trkpt>
      <trkpt lat="42.74295" lon="1.45687">
        <ele>1154</ele>
        <time>2026-06-28T09:00:39.000Z</time>
      </trkpt>
      <trkpt lat="42.74296" lon="1.45685">
        <ele>1154</ele>
        <time>2026-06-28T09:00:40.000Z</time>
      </trkpt>
      <trkpt lat="42.74297" lon="1.45682">
        <ele>1155</ele>
        <time>2026-06-28T09:00:41.000Z</time>
      </trkpt>
      <trkpt lat="42.74298" lon="1.4568">
        <ele>1155</ele>
        <time>2026-06-28T09:00:42.000Z</time>
      </trkpt>
      <trkpt lat="42.74298" lon="1.45677">
        <ele>1156</ele>
        <time>2026-06-28T09:00:43.000Z</time>
      </trkpt>
      <trkpt lat="42.743" lon="1.45675">
        <ele>1155</ele>
        <time>2026-06-28T09:00:44.000Z</time>
      </trkpt>
      <trkpt lat="42.743" lon="1.45673">
        <ele>1155</ele>
        <time>2026-06-28T09:00:45.000Z</time>
      </trkpt>
      <trkpt lat="42.74302" lon="1.45671">
        <ele>1155</ele>
        <time>2026-06-28T09:00:46.000Z</time>
      </trkpt>
      <trkpt lat="42.74304" lon="1.45669">
        <ele>1156</ele>
        <time>2026-06-28T09:00:47.000Z</time>
      </trkpt>
      <trkpt lat="42.74305" lon="1.45668">
        <ele>1156</ele>
        <time>2026-06-28T09:00:48.000Z</time>
      </trkpt>
      <trkpt lat="42.74306" lon="1.45666">
        <ele>1156</ele>
        <time>2026-06-28T09:00:49.000Z</time>
      </trkpt>
      <trkpt lat="42.74307" lon="1.45665">
        <ele>1156</ele>
        <time>2026-06-28T09:00:50.000Z</time>
      </trkpt>
      <trkpt lat="42.74309" lon="1.45664">
        <ele>1157</ele>
        <time>2026-06-28T09:00:51.000Z</time>
      </trkpt>
      <trkpt lat="42.7431" lon="1.45663">
        <ele>1157</ele>
        <time>2026-06-28T09:00:52.000Z</time>
      </trkpt>
      <trkpt lat="42.74311" lon="1.45662">
        <ele>1157</ele>
        <time>2026-06-28T09:00:53.000Z</time>
      </trkpt>
      <trkpt lat="42.74313" lon="1.4566">
        <ele>1157</ele>
        <time>2026-06-28T09:00:54.000Z</time>
      </trkpt>
      <trkpt lat="42.74315" lon="1.45659">
        <ele>1158</ele>
        <time>2026-06-28T09:00:55.000Z</time>
      </trkpt>
      <trkpt lat="42.74317" lon="1.45658">
        <ele>1158</ele>
        <time>2026-06-28T09:00:56.000Z</time>
      </trkpt>
      <trkpt lat="42.74318" lon="1.45657">
        <ele>1159</ele>
        <time>2026-06-28T09:00:57.000Z</time>
      </trkpt>
      <trkpt lat="42.7432" lon="1.45656">
        <ele>1159</ele>
        <time>2026-06-28T09:00:58.000Z</time>
      </trkpt>
      <trkpt lat="42.74322" lon="1.45655">
        <ele>1159</ele>
        <time>2026-06-28T09:00:59.000Z</time>
      </trkpt>
      <trkpt lat="42.74324" lon="1.45654">
        <ele>1159</ele>
        <time>2026-06-28T09:01:00.000Z</time>
      </trkpt>
      <trkpt lat="42.74326" lon="1.45652">
        <ele>1159</ele>
        <time>2026-06-28T09:01:01.000Z</time>
      </trkpt>
      <trkpt lat="42.74328" lon="1.45651">
        <ele>1160</ele>
        <time>2026-06-28T09:01:02.000Z</time>
      </trkpt>
      <trkpt lat="42.74329" lon="1.45649">
        <ele>1160</ele>
        <time>2026-06-28T09:01:03.000Z</time>
      </trkpt>
      <trkpt lat="42.7433" lon="1.45647">
        <ele>1160</ele>
        <time>2026-06-28T09:01:04.000Z</time>
      </trkpt>
      <trkpt lat="42.74332" lon="1.45646">
        <ele>1161</ele>
        <time>2026-06-28T09:01:05.000Z</time>
      </trkpt>
      <trkpt lat="42.74334" lon="1.45646">
        <ele>1162</ele>
        <time>2026-06-28T09:01:06.000Z</time>
      </trkpt>
      <trkpt lat="42.74336" lon="1.45645">
        <ele>1162</ele>
        <time>2026-06-28T09:01:07.000Z</time>
      </trkpt>
      <trkpt lat="42.74338" lon="1.45644">
        <ele>1163</ele>
        <time>2026-06-28T09:01:08.000Z</time>
      </trkpt>
      <trkpt lat="42.7434" lon="1.45642">
        <ele>1163</ele>
        <time>2026-06-28T09:01:09.000Z</time>
      </trkpt>
      <trkpt lat="42.74342" lon="1.4564">
        <ele>1163</ele>
        <time>2026-06-28T09:01:10.000Z</time>
      </trkpt>
      <trkpt lat="42.74344" lon="1.45638">
        <ele>1163</ele>
        <time>2026-06-28T09:01:11.000Z</time>
      </trkpt>
      <trkpt lat="42.74346" lon="1.45637">
        <ele>1163</ele>
        <time>2026-06-28T09:01:12.000Z</time>
      </trkpt>
      <trkpt lat="42.74348" lon="1.45635">
        <ele>1163</ele>
        <time>2026-06-28T09:01:13.000Z</time>
      </trkpt>
      <trkpt lat="42.7435" lon="1.45634">
        <ele>1164</ele>
        <time>2026-06-28T09:01:14.000Z</time>
      </trkpt>
      <trkpt lat="42.74352" lon="1.45632">
        <ele>1164</ele>
        <time>2026-06-28T09:01:15.000Z</time>
      </trkpt>
      <trkpt lat="42.74353" lon="1.45631">
        <ele>1164</ele>
        <time>2026-06-28T09:01:16.000Z</time>
      </trkpt>
      <trkpt lat="42.74355" lon="1.45628">
        <ele>1164</ele>
        <time>2026-06-28T09:01:17.000Z</time>
      </trkpt>
      <trkpt lat="42.74357" lon="1.45627">
        <ele>1164</ele>
        <time>2026-06-28T09:01:18.000Z</time>
      </trkpt>
      <trkpt lat="42.74359" lon="1.45625">
        <ele>1164</ele>
        <time>2026-06-28T09:01:19.000Z</time>
      </trkpt>
      <trkpt lat="42.74361" lon="1.45622">
        <ele>1165</ele>
        <time>2026-06-28T09:01:20.000Z</time>
      </trkpt>
      <trkpt lat="42.74363" lon="1.4562">
        <ele>1165</ele>
        <time>2026-06-28T09:01:21.000Z</time>
      </trkpt>
      <trkpt lat="42.74366" lon="1.45618">
        <ele>1165</ele>
        <time>2026-06-28T09:01:22.000Z</time>
      </trkpt>
      <trkpt lat="42.74368" lon="1.45616">
        <ele>1165</ele>
        <time>2026-06-28T09:01:23.000Z</time>
      </trkpt>
      <trkpt lat="42.74371" lon="1.45614">
        <ele>1165</ele>
        <time>2026-06-28T09:01:24.000Z</time>
      </trkpt>
      <trkpt lat="42.74374" lon="1.45612">
        <ele>1165</ele>
        <time>2026-06-28T09:01:25.000Z</time>
      </trkpt>
      <trkpt lat="42.74377" lon="1.45611">
        <ele>1165</ele>
        <time>2026-06-28T09:01:26.000Z</time>
      </trkpt>
      <trkpt lat="42.7438" lon="1.45609">
        <ele>1165</ele>
        <time>2026-06-28T09:01:27.000Z</time>
      </trkpt>
      <trkpt lat="42.74383" lon="1.45608">
        <ele>1166</ele>
        <time>2026-06-28T09:01:28.000Z</time>
      </trkpt>
      <trkpt lat="42.74386" lon="1.45607">
        <ele>1165</ele>
        <time>2026-06-28T09:01:29.000Z</time>
      </trkpt>
      <trkpt lat="42.74389" lon="1.45605">
        <ele>1165</ele>
        <time>2026-06-28T09:01:30.000Z</time>
      </trkpt>
      <trkpt lat="42.74392" lon="1.45603">
        <ele>1165</ele>
        <time>2026-06-28T09:01:31.000Z</time>
      </trkpt>
      <trkpt lat="42.74396" lon="1.456">
        <ele>1166</ele>
        <time>2026-06-28T09:01:32.000Z</time>
      </trkpt>
      <trkpt lat="42.74398" lon="1.45598">
        <ele>1166</ele>
        <time>2026-06-28T09:01:33.000Z</time>
      </trkpt>
      <trkpt lat="42.74401" lon="1.45594">
        <ele>1166</ele>
        <time>2026-06-28T09:01:34.000Z</time>
      </trkpt>
      <trkpt lat="42.74403" lon="1.45592">
        <ele>1167</ele>
        <time>2026-06-28T09:01:35.000Z</time>
      </trkpt>
      <trkpt lat="42.74405" lon="1.45589">
        <ele>1166</ele>
        <time>2026-06-28T09:01:36.000Z</time>
      </trkpt>
      <trkpt lat="42.74409" lon="1.45587">
        <ele>1166</ele>
        <time>2026-06-28T09:01:37.000Z</time>
      </trkpt>
      <trkpt lat="42.74412" lon="1.45585">
        <ele>1167</ele>
        <time>2026-06-28T09:01:38.000Z</time>
      </trkpt>
      <trkpt lat="42.74415" lon="1.45582">
        <ele>1167</ele>
        <time>2026-06-28T09:01:39.000Z</time>
      </trkpt>
      <trkpt lat="42.74418" lon="1.4558">
        <ele>1167</ele>
        <time>2026-06-28T09:01:40.000Z</time>
      </trkpt>
      <trkpt lat="42.7442" lon="1.45578">
        <ele>1167</ele>
        <time>2026-06-28T09:01:41.000Z</time>
      </trkpt>
      <trkpt lat="42.74423" lon="1.45577">
        <ele>1168</ele>
        <time>2026-06-28T09:01:42.000Z</time>
      </trkpt>
      <trkpt lat="42.74426" lon="1.45576">
        <ele>1168</ele>
        <time>2026-06-28T09:01:43.000Z</time>
      </trkpt>
      <trkpt lat="42.74429" lon="1.45575">
        <ele>1168</ele>
        <time>2026-06-28T09:01:44.000Z</time>
      </trkpt>
      <trkpt lat="42.74432" lon="1.45575">
        <ele>1168</ele>
        <time>2026-06-28T09:01:45.000Z</time>
      </trkpt>
      <trkpt lat="42.74435" lon="1.45576">
        <ele>1168</ele>
        <time>2026-06-28T09:01:46.000Z</time>
      </trkpt>
      <trkpt lat="42.74439" lon="1.45576">
        <ele>1167</ele>
        <time>2026-06-28T09:01:47.000Z</time>
      </trkpt>
      <trkpt lat="42.74442" lon="1.45577">
        <ele>1167</ele>
        <time>2026-06-28T09:01:48.000Z</time>
      </trkpt>
      <trkpt lat="42.74445" lon="1.45578">
        <ele>1167</ele>
        <time>2026-06-28T09:01:49.000Z</time>
      </trkpt>
      <trkpt lat="42.74448" lon="1.45579">
        <ele>1167</ele>
        <time>2026-06-28T09:01:50.000Z</time>
      </trkpt>
      <trkpt lat="42.74451" lon="1.4558">
        <ele>1167</ele>
        <time>2026-06-28T09:01:51.000Z</time>
      </trkpt>
      <trkpt lat="42.74453" lon="1.4558">
        <ele>1167</ele>
        <time>2026-06-28T09:01:52.000Z</time>
      </trkpt>
      <trkpt lat="42.74456" lon="1.4558">
        <ele>1167</ele>
        <time>2026-06-28T09:01:53.000Z</time>
      </trkpt>
      <trkpt lat="42.74459" lon="1.45579">
        <ele>1167</ele>
        <time>2026-06-28T09:01:54.000Z</time>
      </trkpt>
      <trkpt lat="42.74462" lon="1.45578">
        <ele>1167</ele>
        <time>2026-06-28T09:01:55.000Z</time>
      </trkpt>
      <trkpt lat="42.74465" lon="1.45577">
        <ele>1168</ele>
        <time>2026-06-28T09:01:56.000Z</time>
      </trkpt>
      <trkpt lat="42.74467" lon="1.45575">
        <ele>1168</ele>
        <time>2026-06-28T09:01:57.000Z</time>
      </trkpt>
      <trkpt lat="42.74469" lon="1.45573">
        <ele>1168</ele>
        <time>2026-06-28T09:01:58.000Z</time>
      </trkpt>
      <trkpt lat="42.74472" lon="1.45572">
        <ele>1168</ele>
        <time>2026-06-28T09:01:59.000Z</time>
      </trkpt>
      <trkpt lat="42.74474" lon="1.4557">
        <ele>1168</ele>
        <time>2026-06-28T09:02:00.000Z</time>
      </trkpt>
      <trkpt lat="42.74476" lon="1.45569">
        <ele>1168</ele>
        <time>2026-06-28T09:02:01.000Z</time>
      </trkpt>
      <trkpt lat="42.74478" lon="1.45567">
        <ele>1169</ele>
        <time>2026-06-28T09:02:02.000Z</time>
      </trkpt>
      <trkpt lat="42.7448" lon="1.45565">
        <ele>1170</ele>
        <time>2026-06-28T09:02:03.000Z</time>
      </trkpt>
      <trkpt lat="42.74482" lon="1.45564">
        <ele>1170</ele>
        <time>2026-06-28T09:02:04.000Z</time>
      </trkpt>
      <trkpt lat="42.74484" lon="1.45561">
        <ele>1170</ele>
        <time>2026-06-28T09:02:05.000Z</time>
      </trkpt>
      <trkpt lat="42.74486" lon="1.45559">
        <ele>1171</ele>
        <time>2026-06-28T09:02:06.000Z</time>
      </trkpt>
      <trkpt lat="42.74489" lon="1.45557">
        <ele>1170</ele>
        <time>2026-06-28T09:02:07.000Z</time>
      </trkpt>
      <trkpt lat="42.74491" lon="1.45556">
        <ele>1170</ele>
        <time>2026-06-28T09:02:08.000Z</time>
      </trkpt>
      <trkpt lat="42.74494" lon="1.45555">
        <ele>1170</ele>
        <time>2026-06-28T09:02:09.000Z</time>
      </trkpt>
      <trkpt lat="42.74496" lon="1.45554">
        <ele>1170</ele>
        <time>2026-06-28T09:02:10.000Z</time>
      </trkpt>
      <trkpt lat="42.74498" lon="1.45552">
        <ele>1170</ele>
        <time>2026-06-28T09:02:11.000Z</time>
      </trkpt>
      <trkpt lat="42.74499" lon="1.45551">
        <ele>1170</ele>
        <time>2026-06-28T09:02:12.000Z</time>
      </trkpt>
      <trkpt lat="42.74501" lon="1.45549">
        <ele>1170</ele>
        <time>2026-06-28T09:02:13.000Z</time>
      </trkpt>
      <trkpt lat="42.74503" lon="1.45548">
        <ele>1170</ele>
        <time>2026-06-28T09:02:14.000Z</time>
      </trkpt>
      <trkpt lat="42.74504" lon="1.45547">
        <ele>1170</ele>
        <time>2026-06-28T09:02:15.000Z</time>
      </trkpt>
      <trkpt lat="42.74506" lon="1.45546">
        <ele>1170</ele>
        <time>2026-06-28T09:02:16.000Z</time>
      </trkpt>
      <trkpt lat="42.74507" lon="1.45545">
        <ele>1169</ele>
        <time>2026-06-28T09:02:17.000Z</time>
      </trkpt>
      <trkpt lat="42.74509" lon="1.45544">
        <ele>1168</ele>
        <time>2026-06-28T09:02:18.000Z</time>
      </trkpt>
      <trkpt lat="42.74511" lon="1.45542">
        <ele>1168</ele>
        <time>2026-06-28T09:02:19.000Z</time>
      </trkpt>
      <trkpt lat="42.74512" lon="1.45541">
        <ele>1168</ele>
        <time>2026-06-28T09:02:20.000Z</time>
      </trkpt>
      <trkpt lat="42.74514" lon="1.4554">
        <ele>1168</ele>
        <time>2026-06-28T09:02:21.000Z</time>
      </trkpt>
      <trkpt lat="42.74515" lon="1.4554">
        <ele>1168</ele>
        <time>2026-06-28T09:02:22.000Z</time>
      </trkpt>
      <trkpt lat="42.74517" lon="1.45539">
        <ele>1168</ele>
        <time>2026-06-28T09:02:23.000Z</time>
      </trkpt>
      <trkpt lat="42.74518" lon="1.45538">
        <ele>1169</ele>
        <time>2026-06-28T09:02:24.000Z</time>
      </trkpt>
      <trkpt lat="42.74519" lon="1.45538">
        <ele>1170</ele>
        <time>2026-06-28T09:02:25.000Z</time>
      </trkpt>
      <trkpt lat="42.74521" lon="1.45538">
        <ele>1170</ele>
        <time>2026-06-28T09:02:26.000Z</time>
      </trkpt>
      <trkpt lat="42.74523" lon="1.45537">
        <ele>1170</ele>
        <time>2026-06-28T09:02:27.000Z</time>
      </trkpt>
      <trkpt lat="42.74525" lon="1.45537">
        <ele>1170</ele>
        <time>2026-06-28T09:02:28.000Z</time>
      </trkpt>
      <trkpt lat="42.74527" lon="1.45536">
        <ele>1170</ele>
        <time>2026-06-28T09:02:29.000Z</time>
      </trkpt>
      <trkpt lat="42.74529" lon="1.45536">
        <ele>1170</ele>
        <time>2026-06-28T09:02:30.000Z</time>
      </trkpt>
      <trkpt lat="42.7453" lon="1.45535">
        <ele>1171</ele>
        <time>2026-06-28T09:02:31.000Z</time>
      </trkpt>
      <trkpt lat="42.74532" lon="1.45535">
        <ele>1171</ele>
        <time>2026-06-28T09:02:32.000Z</time>
      </trkpt>
      <trkpt lat="42.74535" lon="1.45534">
        <ele>1172</ele>
        <time>2026-06-28T09:02:33.000Z</time>
      </trkpt>
      <trkpt lat="42.74536" lon="1.45532">
        <ele>1172</ele>
        <time>2026-06-28T09:02:34.000Z</time>
      </trkpt>
      <trkpt lat="42.74538" lon="1.45531">
        <ele>1173</ele>
        <time>2026-06-28T09:02:35.000Z</time>
      </trkpt>
      <trkpt lat="42.74539" lon="1.4553">
        <ele>1174</ele>
        <time>2026-06-28T09:02:36.000Z</time>
      </trkpt>
      <trkpt lat="42.74541" lon="1.45529">
        <ele>1175</ele>
        <time>2026-06-28T09:02:37.000Z</time>
      </trkpt>
      <trkpt lat="42.74542" lon="1.45529">
        <ele>1175</ele>
        <time>2026-06-28T09:02:38.000Z</time>
      </trkpt>
      <trkpt lat="42.74543" lon="1.45528">
        <ele>1176</ele>
        <time>2026-06-28T09:02:39.000Z</time>
      </trkpt>
      <trkpt lat="42.74544" lon="1.45527">
        <ele>1177</ele>
        <time>2026-06-28T09:02:40.000Z</time>
      </trkpt>
      <trkpt lat="42.74546" lon="1.45525">
        <ele>1178</ele>
        <time>2026-06-28T09:02:41.000Z</time>
      </trkpt>
      <trkpt lat="42.74548" lon="1.45524">
        <ele>1179</ele>
        <time>2026-06-28T09:02:42.000Z</time>
      </trkpt>
      <trkpt lat="42.7455" lon="1.45523">
        <ele>1180</ele>
        <time>2026-06-28T09:02:43.000Z</time>
      </trkpt>
      <trkpt lat="42.74551" lon="1.45522">
        <ele>1181</ele>
        <time>2026-06-28T09:02:44.000Z</time>
      </trkpt>
      <trkpt lat="42.74552" lon="1.45519">
        <ele>1181</ele>
        <time>2026-06-28T09:02:45.000Z</time>
      </trkpt>
      <trkpt lat="42.74553" lon="1.45518">
        <ele>1181</ele>
        <time>2026-06-28T09:02:46.000Z</time>
      </trkpt>
      <trkpt lat="42.74555" lon="1.45518">
        <ele>1182</ele>
        <time>2026-06-28T09:02:47.000Z</time>
      </trkpt>
      <trkpt lat="42.74556" lon="1.45516">
        <ele>1183</ele>
        <time>2026-06-28T09:02:48.000Z</time>
      </trkpt>
      <trkpt lat="42.74557" lon="1.45515">
        <ele>1182</ele>
        <time>2026-06-28T09:02:49.000Z</time>
      </trkpt>
      <trkpt lat="42.74559" lon="1.45515">
        <ele>1183</ele>
        <time>2026-06-28T09:02:50.000Z</time>
      </trkpt>
      <trkpt lat="42.74561" lon="1.45514">
        <ele>1183</ele>
        <time>2026-06-28T09:02:51.000Z</time>
      </trkpt>
      <trkpt lat="42.74562" lon="1.45514">
        <ele>1183</ele>
        <time>2026-06-28T09:02:52.000Z</time>
      </trkpt>
      <trkpt lat="42.74564" lon="1.45514">
        <ele>1184</ele>
        <time>2026-06-28T09:02:53.000Z</time>
      </trkpt>
      <trkpt lat="42.74565" lon="1.45515">
        <ele>1183</ele>
        <time>2026-06-28T09:02:54.000Z</time>
      </trkpt>
      <trkpt lat="42.74567" lon="1.45514">
        <ele>1183</ele>
        <time>2026-06-28T09:02:55.000Z</time>
      </trkpt>
      <trkpt lat="42.74568" lon="1.45515">
        <ele>1181</ele>
        <time>2026-06-28T09:02:56.000Z</time>
      </trkpt>
      <trkpt lat="42.7457" lon="1.45517">
        <ele>1180</ele>
        <time>2026-06-28T09:02:57.000Z</time>
      </trkpt>
      <trkpt lat="42.74572" lon="1.45519">
        <ele>1180</ele>
        <time>2026-06-28T09:02:58.000Z</time>
      </trkpt>
      <trkpt lat="42.74574" lon="1.45521">
        <ele>1180</ele>
        <time>2026-06-28T09:02:59.000Z</time>
      </trkpt>
      <trkpt lat="42.74575" lon="1.45523">
        <ele>1179</ele>
        <time>2026-06-28T09:03:00.000Z</time>
      </trkpt>
      <trkpt lat="42.74575" lon="1.45525">
        <ele>1179</ele>
        <time>2026-06-28T09:03:01.000Z</time>
      </trkpt>
      <trkpt lat="42.74575" lon="1.45528">
        <ele>1179</ele>
        <time>2026-06-28T09:03:02.000Z</time>
      </trkpt>
      <trkpt lat="42.74576" lon="1.4553">
        <ele>1179</ele>
        <time>2026-06-28T09:03:03.000Z</time>
      </trkpt>
      <trkpt lat="42.74577" lon="1.45533">
        <ele>1180</ele>
        <time>2026-06-28T09:03:04.000Z</time>
      </trkpt>
      <trkpt lat="42.74577" lon="1.45534">
        <ele>1180</ele>
        <time>2026-06-28T09:03:05.000Z</time>
      </trkpt>
      <trkpt lat="42.74577" lon="1.45537">
        <ele>1180</ele>
        <time>2026-06-28T09:03:06.000Z</time>
      </trkpt>
      <trkpt lat="42.74578" lon="1.45539">
        <ele>1180</ele>
        <time>2026-06-28T09:03:07.000Z</time>
      </trkpt>
      <trkpt lat="42.74578" lon="1.45541">
        <ele>1179</ele>
        <time>2026-06-28T09:03:08.000Z</time>
      </trkpt>
      <trkpt lat="42.74578" lon="1.45543">
        <ele>1179</ele>
        <time>2026-06-28T09:03:09.000Z</time>
      </trkpt>
      <trkpt lat="42.74578" lon="1.45546">
        <ele>1180</ele>
        <time>2026-06-28T09:03:10.000Z</time>
      </trkpt>
      <trkpt lat="42.74578" lon="1.45549">
        <ele>1180</ele>
        <time>2026-06-28T09:03:11.000Z</time>
      </trkpt>
      <trkpt lat="42.74578" lon="1.4555">
        <ele>1179</ele>
        <time>2026-06-28T09:03:12.000Z</time>
      </trkpt>
      <trkpt lat="42.74578" lon="1.45553">
        <ele>1179</ele>
        <time>2026-06-28T09:03:13.000Z</time>
      </trkpt>
      <trkpt lat="42.74578" lon="1.45556">
        <ele>1179</ele>
        <time>2026-06-28T09:03:14.000Z</time>
      </trkpt>
      <trkpt lat="42.74578" lon="1.4556">
        <ele>1179</ele>
        <time>2026-06-28T09:03:15.000Z</time>
      </trkpt>
      <trkpt lat="42.74579" lon="1.45563">
        <ele>1179</ele>
        <time>2026-06-28T09:03:16.000Z</time>
      </trkpt>
      <trkpt lat="42.7458" lon="1.45566">
        <ele>1180</ele>
        <time>2026-06-28T09:03:17.000Z</time>
      </trkpt>
      <trkpt lat="42.74582" lon="1.45569">
        <ele>1181</ele>
        <time>2026-06-28T09:03:18.000Z</time>
      </trkpt>
      <trkpt lat="42.74584" lon="1.45573">
        <ele>1180</ele>
        <time>2026-06-28T09:03:19.000Z</time>
      </trkpt>
      <trkpt lat="42.74586" lon="1.45574">
        <ele>1180</ele>
        <time>2026-06-28T09:03:20.000Z</time>
      </trkpt>
      <trkpt lat="42.74588" lon="1.45576">
        <ele>1181</ele>
        <time>2026-06-28T09:03:21.000Z</time>
      </trkpt>
      <trkpt lat="42.74591" lon="1.45578">
        <ele>1181</ele>
        <time>2026-06-28T09:03:22.000Z</time>
      </trkpt>
      <trkpt lat="42.74593" lon="1.45579">
        <ele>1181</ele>
        <time>2026-06-28T09:03:23.000Z</time>
      </trkpt>
      <trkpt lat="42.74596" lon="1.45581">
        <ele>1182</ele>
        <time>2026-06-28T09:03:24.000Z</time>
      </trkpt>
      <trkpt lat="42.74597" lon="1.45582">
        <ele>1183</ele>
        <time>2026-06-28T09:03:25.000Z</time>
      </trkpt>
      <trkpt lat="42.74599" lon="1.45583">
        <ele>1183</ele>
        <time>2026-06-28T09:03:26.000Z</time>
      </trkpt>
      <trkpt lat="42.74601" lon="1.45585">
        <ele>1183</ele>
        <time>2026-06-28T09:03:27.000Z</time>
      </trkpt>
      <trkpt lat="42.74603" lon="1.45586">
        <ele>1184</ele>
        <time>2026-06-28T09:03:28.000Z</time>
      </trkpt>
      <trkpt lat="42.74604" lon="1.45587">
        <ele>1184</ele>
        <time>2026-06-28T09:03:29.000Z</time>
      </trkpt>
      <trkpt lat="42.74605" lon="1.45589">
        <ele>1184</ele>
        <time>2026-06-28T09:03:30.000Z</time>
      </trkpt>
      <trkpt lat="42.74607" lon="1.4559">
        <ele>1184</ele>
        <time>2026-06-28T09:03:31.000Z</time>
      </trkpt>
      <trkpt lat="42.74608" lon="1.4559">
        <ele>1184</ele>
        <time>2026-06-28T09:03:32.000Z</time>
      </trkpt>
      <trkpt lat="42.7461" lon="1.45591">
        <ele>1184</ele>
        <time>2026-06-28T09:03:33.000Z</time>
      </trkpt>
      <trkpt lat="42.74611" lon="1.45592">
        <ele>1185</ele>
        <time>2026-06-28T09:03:34.000Z</time>
      </trkpt>
      <trkpt lat="42.74613" lon="1.45593">
        <ele>1185</ele>
        <time>2026-06-28T09:03:35.000Z</time>
      </trkpt>
      <trkpt lat="42.74614" lon="1.45594">
        <ele>1185</ele>
        <time>2026-06-28T09:03:36.000Z</time>
      </trkpt>
      <trkpt lat="42.74615" lon="1.45596">
        <ele>1185</ele>
        <time>2026-06-28T09:03:37.000Z</time>
      </trkpt>
      <trkpt lat="42.74617" lon="1.45597">
        <ele>1185</ele>
        <time>2026-06-28T09:03:38.000Z</time>
      </trkpt>
      <trkpt lat="42.74618" lon="1.45598">
        <ele>1186</ele>
        <time>2026-06-28T09:03:39.000Z</time>
      </trkpt>
      <trkpt lat="42.7462" lon="1.45598">
        <ele>1186</ele>
        <time>2026-06-28T09:03:40.000Z</time>
      </trkpt>
      <trkpt lat="42.74621" lon="1.45599">
        <ele>1188</ele>
        <time>2026-06-28T09:03:41.000Z</time>
      </trkpt>
      <trkpt lat="42.74623" lon="1.45601">
        <ele>1188</ele>
        <time>2026-06-28T09:03:42.000Z</time>
      </trkpt>
      <trkpt lat="42.74624" lon="1.45602">
        <ele>1189</ele>
        <time>2026-06-28T09:03:43.000Z</time>
      </trkpt>
      <trkpt lat="42.74625" lon="1.45603">
        <ele>1189</ele>
        <time>2026-06-28T09:03:44.000Z</time>
      </trkpt>
      <trkpt lat="42.74628" lon="1.45604">
        <ele>1190</ele>
        <time>2026-06-28T09:03:45.000Z</time>
      </trkpt>
      <trkpt lat="42.74629" lon="1.45606">
        <ele>1191</ele>
        <time>2026-06-28T09:03:46.000Z</time>
      </trkpt>
      <trkpt lat="42.74631" lon="1.45608">
        <ele>1191</ele>
        <time>2026-06-28T09:03:47.000Z</time>
      </trkpt>
      <trkpt lat="42.74634" lon="1.4561">
        <ele>1191</ele>
        <time>2026-06-28T09:03:48.000Z</time>
      </trkpt>
      <trkpt lat="42.74636" lon="1.45611">
        <ele>1192</ele>
        <time>2026-06-28T09:03:49.000Z</time>
      </trkpt>
      <trkpt lat="42.74638" lon="1.45613">
        <ele>1192</ele>
        <time>2026-06-28T09:03:50.000Z</time>
      </trkpt>
      <trkpt lat="42.74639" lon="1.45615">
        <ele>1192</ele>
        <time>2026-06-28T09:03:51.000Z</time>
      </trkpt>
      <trkpt lat="42.74641" lon="1.45617">
        <ele>1192</ele>
        <time>2026-06-28T09:03:52.000Z</time>
      </trkpt>
      <trkpt lat="42.74643" lon="1.45618">
        <ele>1193</ele>
        <time>2026-06-28T09:03:53.000Z</time>
      </trkpt>
      <trkpt lat="42.74644" lon="1.45619">
        <ele>1194</ele>
        <time>2026-06-28T09:03:54.000Z</time>
      </trkpt>
      <trkpt lat="42.74646" lon="1.45621">
        <ele>1194</ele>
        <time>2026-06-28T09:03:55.000Z</time>
      </trkpt>
      <trkpt lat="42.74648" lon="1.45624">
        <ele>1195</ele>
        <time>2026-06-28T09:03:56.000Z</time>
      </trkpt>
      <trkpt lat="42.74649" lon="1.45626">
        <ele>1196</ele>
        <time>2026-06-28T09:03:57.000Z</time>
      </trkpt>
      <trkpt lat="42.74651" lon="1.45629">
        <ele>1195</ele>
        <time>2026-06-28T09:03:58.000Z</time>
      </trkpt>
      <trkpt lat="42.74653" lon="1.45631">
        <ele>1196</ele>
        <time>2026-06-28T09:03:59.000Z</time>
      </trkpt>
      <trkpt lat="42.74654" lon="1.45633">
        <ele>1195</ele>
        <time>2026-06-28T09:04:00.000Z</time>
      </trkpt>
      <trkpt lat="42.74654" lon="1.45636">
        <ele>1196</ele>
        <time>2026-06-28T09:04:01.000Z</time>
      </trkpt>
      <trkpt lat="42.74655" lon="1.45639">
        <ele>1196</ele>
        <time>2026-06-28T09:04:02.000Z</time>
      </trkpt>
      <trkpt lat="42.74656" lon="1.45642">
        <ele>1196</ele>
        <time>2026-06-28T09:04:03.000Z</time>
      </trkpt>
      <trkpt lat="42.74657" lon="1.45645">
        <ele>1196</ele>
        <time>2026-06-28T09:04:04.000Z</time>
      </trkpt>
      <trkpt lat="42.74658" lon="1.45648">
        <ele>1196</ele>
        <time>2026-06-28T09:04:05.000Z</time>
      </trkpt>
      <trkpt lat="42.7466" lon="1.4565">
        <ele>1197</ele>
        <time>2026-06-28T09:04:06.000Z</time>
      </trkpt>
      <trkpt lat="42.74661" lon="1.45652">
        <ele>1197</ele>
        <time>2026-06-28T09:04:07.000Z</time>
      </trkpt>
      <trkpt lat="42.74663" lon="1.45654">
        <ele>1198</ele>
        <time>2026-06-28T09:04:08.000Z</time>
      </trkpt>
      <trkpt lat="42.74666" lon="1.45653">
        <ele>1198</ele>
        <time>2026-06-28T09:04:09.000Z</time>
      </trkpt>
      <trkpt lat="42.74668" lon="1.45652">
        <ele>1198</ele>
        <time>2026-06-28T09:04:10.000Z</time>
      </trkpt>
      <trkpt lat="42.7467" lon="1.45649">
        <ele>1197</ele>
        <time>2026-06-28T09:04:11.000Z</time>
      </trkpt>
      <trkpt lat="42.74671" lon="1.45647">
        <ele>1197</ele>
        <time>2026-06-28T09:04:12.000Z</time>
      </trkpt>
      <trkpt lat="42.74672" lon="1.45644">
        <ele>1198</ele>
        <time>2026-06-28T09:04:13.000Z</time>
      </trkpt>
      <trkpt lat="42.74672" lon="1.45642">
        <ele>1198</ele>
        <time>2026-06-28T09:04:14.000Z</time>
      </trkpt>
      <trkpt lat="42.74672" lon="1.45639">
        <ele>1198</ele>
        <time>2026-06-28T09:04:15.000Z</time>
      </trkpt>
      <trkpt lat="42.74672" lon="1.45636">
        <ele>1198</ele>
        <time>2026-06-28T09:04:16.000Z</time>
      </trkpt>
      <trkpt lat="42.74672" lon="1.45634">
        <ele>1197</ele>
        <time>2026-06-28T09:04:17.000Z</time>
      </trkpt>
      <trkpt lat="42.74671" lon="1.45632">
        <ele>1198</ele>
        <time>2026-06-28T09:04:18.000Z</time>
      </trkpt>
      <trkpt lat="42.7467" lon="1.45629">
        <ele>1199</ele>
        <time>2026-06-28T09:04:19.000Z</time>
      </trkpt>
      <trkpt lat="42.74669" lon="1.45625">
        <ele>1199</ele>
        <time>2026-06-28T09:04:20.000Z</time>
      </trkpt>
      <trkpt lat="42.74669" lon="1.45622">
        <ele>1199</ele>
        <time>2026-06-28T09:04:21.000Z</time>
      </trkpt>
      <trkpt lat="42.74668" lon="1.45619">
        <ele>1199</ele>
        <time>2026-06-28T09:04:22.000Z</time>
      </trkpt>
      <trkpt lat="42.74668" lon="1.45616">
        <ele>1200</ele>
        <time>2026-06-28T09:04:23.000Z</time>
      </trkpt>
      <trkpt lat="42.74667" lon="1.45614">
        <ele>1199</ele>
        <time>2026-06-28T09:04:24.000Z</time>
      </trkpt>
      <trkpt lat="42.74666" lon="1.45612">
        <ele>1200</ele>
        <time>2026-06-28T09:04:25.000Z</time>
      </trkpt>
      <trkpt lat="42.74665" lon="1.4561">
        <ele>1200</ele>
        <time>2026-06-28T09:04:26.000Z</time>
      </trkpt>
      <trkpt lat="42.74663" lon="1.45607">
        <ele>1200</ele>
        <time>2026-06-28T09:04:27.000Z</time>
      </trkpt>
      <trkpt lat="42.74662" lon="1.45605">
        <ele>1200</ele>
        <time>2026-06-28T09:04:28.000Z</time>
      </trkpt>
      <trkpt lat="42.74661" lon="1.45603">
        <ele>1199</ele>
        <time>2026-06-28T09:04:29.000Z</time>
      </trkpt>
      <trkpt lat="42.74659" lon="1.45601">
        <ele>1198</ele>
        <time>2026-06-28T09:04:30.000Z</time>
      </trkpt>
      <trkpt lat="42.74657" lon="1.45599">
        <ele>1198</ele>
        <time>2026-06-28T09:04:31.000Z</time>
      </trkpt>
      <trkpt lat="42.74655" lon="1.45597">
        <ele>1198</ele>
        <time>2026-06-28T09:04:32.000Z</time>
      </trkpt>
      <trkpt lat="42.74654" lon="1.45595">
        <ele>1199</ele>
        <time>2026-06-28T09:04:33.000Z</time>
      </trkpt>
      <trkpt lat="42.74652" lon="1.45593">
        <ele>1199</ele>
        <time>2026-06-28T09:04:34.000Z</time>
      </trkpt>
      <trkpt lat="42.74651" lon="1.45591">
        <ele>1199</ele>
        <time>2026-06-28T09:04:35.000Z</time>
      </trkpt>
      <trkpt lat="42.74649" lon="1.45588">
        <ele>1198</ele>
        <time>2026-06-28T09:04:36.000Z</time>
      </trkpt>
      <trkpt lat="42.74647" lon="1.45586">
        <ele>1198</ele>
        <time>2026-06-28T09:04:37.000Z</time>
      </trkpt>
      <trkpt lat="42.74646" lon="1.45584">
        <ele>1198</ele>
        <time>2026-06-28T09:04:38.000Z</time>
      </trkpt>
      <trkpt lat="42.74645" lon="1.45581">
        <ele>1198</ele>
        <time>2026-06-28T09:04:39.000Z</time>
      </trkpt>
      <trkpt lat="42.74643" lon="1.45579">
        <ele>1198</ele>
        <time>2026-06-28T09:04:40.000Z</time>
      </trkpt>
      <trkpt lat="42.74641" lon="1.45576">
        <ele>1198</ele>
        <time>2026-06-28T09:04:41.000Z</time>
      </trkpt>
      <trkpt lat="42.7464" lon="1.45574">
        <ele>1199</ele>
        <time>2026-06-28T09:04:42.000Z</time>
      </trkpt>
      <trkpt lat="42.74639" lon="1.45571">
        <ele>1199</ele>
        <time>2026-06-28T09:04:43.000Z</time>
      </trkpt>
      <trkpt lat="42.74637" lon="1.45567">
        <ele>1199</ele>
        <time>2026-06-28T09:04:44.000Z</time>
      </trkpt>
      <trkpt lat="42.74636" lon="1.45565">
        <ele>1199</ele>
        <time>2026-06-28T09:04:45.000Z</time>
      </trkpt>
      <trkpt lat="42.74635" lon="1.45563">
        <ele>1199</ele>
        <time>2026-06-28T09:04:46.000Z</time>
      </trkpt>
      <trkpt lat="42.74634" lon="1.45561">
        <ele>1199</ele>
        <time>2026-06-28T09:04:47.000Z</time>
      </trkpt>
      <trkpt lat="42.74633" lon="1.45559">
        <ele>1199</ele>
        <time>2026-06-28T09:04:48.000Z</time>
      </trkpt>
      <trkpt lat="42.74632" lon="1.45557">
        <ele>1199</ele>
        <time>2026-06-28T09:04:49.000Z</time>
      </trkpt>
      <trkpt lat="42.74632" lon="1.45556">
        <ele>1199</ele>
        <time>2026-06-28T09:04:50.000Z</time>
      </trkpt>
      <trkpt lat="42.74632" lon="1.45554">
        <ele>1199</ele>
        <time>2026-06-28T09:04:51.000Z</time>
      </trkpt>
      <trkpt lat="42.74631" lon="1.45552">
        <ele>1199</ele>
        <time>2026-06-28T09:04:52.000Z</time>
      </trkpt>
      <trkpt lat="42.74631" lon="1.4555">
        <ele>1199</ele>
        <time>2026-06-28T09:04:53.000Z</time>
      </trkpt>
      <trkpt lat="42.74631" lon="1.45548">
        <ele>1199</ele>
        <time>2026-06-28T09:04:54.000Z</time>
      </trkpt>
      <trkpt lat="42.7463" lon="1.45548">
        <ele>1199</ele>
        <time>2026-06-28T09:04:55.000Z</time>
      </trkpt>
      <trkpt lat="42.7463" lon="1.45548">
        <ele>1200</ele>
        <time>2026-06-28T09:04:56.000Z</time>
      </trkpt>
      <trkpt lat="42.74629" lon="1.45549">
        <ele>1201</ele>
        <time>2026-06-28T09:04:57.000Z</time>
      </trkpt>
      <trkpt lat="42.74629" lon="1.45549">
        <ele>1202</ele>
        <time>2026-06-28T09:04:58.000Z</time>
      </trkpt>
      <trkpt lat="42.74629" lon="1.45549">
        <ele>1202</ele>
        <time>2026-06-28T09:04:59.000Z</time>
      </trkpt>
      <trkpt lat="42.74629" lon="1.4555">
        <ele>1202</ele>
        <time>2026-06-28T09:05:00.000Z</time>
      </trkpt>
      <trkpt lat="42.74629" lon="1.4555">
        <ele>1203</ele>
        <time>2026-06-28T09:05:01.000Z</time>
      </trkpt>
      <trkpt lat="42.7463" lon="1.4555">
        <ele>1202</ele>
        <time>2026-06-28T09:05:02.000Z</time>
      </trkpt>
      <trkpt lat="42.7463" lon="1.45551">
        <ele>1204</ele>
        <time>2026-06-28T09:05:03.000Z</time>
      </trkpt>
      <trkpt lat="42.7463" lon="1.45551">
        <ele>1204</ele>
        <time>2026-06-28T09:05:04.000Z</time>
      </trkpt>
      <trkpt lat="42.74631" lon="1.4555">
        <ele>1204</ele>
        <time>2026-06-28T09:05:05.000Z</time>
      </trkpt>
      <trkpt lat="42.74631" lon="1.45549">
        <ele>1204</ele>
        <time>2026-06-28T09:05:06.000Z</time>
      </trkpt>
      <trkpt lat="42.74631" lon="1.4555">
        <ele>1205</ele>
        <time>2026-06-28T09:05:07.000Z</time>
      </trkpt>
      <trkpt lat="42.7463" lon="1.45549">
        <ele>1205</ele>
        <time>2026-06-28T09:05:08.000Z</time>
      </trkpt>
      <trkpt lat="42.74629" lon="1.45548">
        <ele>1205</ele>
        <time>2026-06-28T09:05:09.000Z</time>
      </trkpt>
      <trkpt lat="42.74629" lon="1.45548">
        <ele>1205</ele>
        <time>2026-06-28T09:05:10.000Z</time>
      </trkpt>
      <trkpt lat="42.74629" lon="1.45546">
        <ele>1205</ele>
        <time>2026-06-28T09:05:11.000Z</time>
      </trkpt>
      <trkpt lat="42.74629" lon="1.45545">
        <ele>1204</ele>
        <time>2026-06-28T09:05:12.000Z</time>
      </trkpt>
      <trkpt lat="42.74629" lon="1.45545">
        <ele>1204</ele>
        <time>2026-06-28T09:05:13.000Z</time>
      </trkpt>
      <trkpt lat="42.74629" lon="1.45545">
        <ele>1204</ele>
        <time>2026-06-28T09:05:14.000Z</time>
      </trkpt>
      <trkpt lat="42.74628" lon="1.45546">
        <ele>1204</ele>
        <time>2026-06-28T09:05:15.000Z</time>
      </trkpt>
      <trkpt lat="42.74628" lon="1.45547">
        <ele>1204</ele>
        <time>2026-06-28T09:05:16.000Z</time>
      </trkpt>
      <trkpt lat="42.74627" lon="1.45547">
        <ele>1204</ele>
        <time>2026-06-28T09:05:17.000Z</time>
      </trkpt>
      <trkpt lat="42.74627" lon="1.45548">
        <ele>1205</ele>
        <time>2026-06-28T09:05:18.000Z</time>
      </trkpt>
      <trkpt lat="42.74626" lon="1.45549">
        <ele>1206</ele>
        <time>2026-06-28T09:05:19.000Z</time>
      </trkpt>
      <trkpt lat="42.74626" lon="1.45549">
        <ele>1207</ele>
        <time>2026-06-28T09:05:20.000Z</time>
      </trkpt>
      <trkpt lat="42.74626" lon="1.45549">
        <ele>1206</ele>
        <time>2026-06-28T09:05:21.000Z</time>
      </trkpt>
      <trkpt lat="42.74625" lon="1.45549">
        <ele>1206</ele>
        <time>2026-06-28T09:05:22.000Z</time>
      </trkpt>
      <trkpt lat="42.74625" lon="1.45549">
        <ele>1207</ele>
        <time>2026-06-28T09:05:23.000Z</time>
      </trkpt>
      <trkpt lat="42.74625" lon="1.4555">
        <ele>1208</ele>
        <time>2026-06-28T09:15:23.000Z</time>
      </trkpt>
      <trkpt lat="42.74624" lon="1.45551">
        <ele>1208</ele>
        <time>2026-06-28T09:15:24.000Z</time>
      </trkpt>
      <trkpt lat="42.74625" lon="1.45551">
        <ele>1207</ele>
        <time>2026-06-28T09:15:25.000Z</time>
      </trkpt>
      <trkpt lat="42.74625" lon="1.45552">
        <ele>1207</ele>
        <time>2026-06-28T09:15:26.000Z</time>
      </trkpt>
      <trkpt lat="42.74625" lon="1.45551">
        <ele>1206</ele>
        <time>2026-06-28T09:15:27.000Z</time>
      </trkpt>
      <trkpt lat="42.74626" lon="1.45552">
        <ele>1206</ele>
        <time>2026-06-28T09:15:28.000Z</time>
      </trkpt>
      <trkpt lat="42.74626" lon="1.45553">
        <ele>1206</ele>
        <time>2026-06-28T09:15:29.000Z</time>
      </trkpt>
      <trkpt lat="42.74627" lon="1.45554">
        <ele>1205</ele>
        <time>2026-06-28T09:15:30.000Z</time>
      </trkpt>
      <trkpt lat="42.74627" lon="1.45555">
        <ele>1205</ele>
        <time>2026-06-28T09:15:31.000Z</time>
      </trkpt>
      <trkpt lat="42.74627" lon="1.45557">
        <ele>1205</ele>
        <time>2026-06-28T09:15:32.000Z</time>
      </trkpt>
      <trkpt lat="42.74627" lon="1.45556">
        <ele>1204</ele>
        <time>2026-06-28T09:15:33.000Z</time>
      </trkpt>
      <trkpt lat="42.74626" lon="1.45555">
        <ele>1204</ele>
        <time>2026-06-28T09:15:34.000Z</time>
      </trkpt>
      <trkpt lat="42.74626" lon="1.45552">
        <ele>1203</ele>
        <time>2026-06-28T09:16:22.000Z</time>
      </trkpt>
      <trkpt lat="42.74625" lon="1.45551">
        <ele>1203</ele>
        <time>2026-06-28T09:16:23.000Z</time>
      </trkpt>
      <trkpt lat="42.74625" lon="1.4555">
        <ele>1202</ele>
        <time>2026-06-28T09:16:24.000Z</time>
      </trkpt>
      <trkpt lat="42.74626" lon="1.4555">
        <ele>1202</ele>
        <time>2026-06-28T09:16:25.000Z</time>
      </trkpt>
      <trkpt lat="42.74626" lon="1.4555">
        <ele>1203</ele>
        <time>2026-06-28T09:16:26.000Z</time>
      </trkpt>
      <trkpt lat="42.74625" lon="1.45551">
        <ele>1203</ele>
        <time>2026-06-28T09:16:27.000Z</time>
      </trkpt>
      <trkpt lat="42.74626" lon="1.45551">
        <ele>1203</ele>
        <time>2026-06-28T09:16:28.000Z</time>
      </trkpt>
      <trkpt lat="42.74627" lon="1.45552">
        <ele>1203</ele>
        <time>2026-06-28T09:16:29.000Z</time>
      </trkpt>
      <trkpt lat="42.74627" lon="1.45552">
        <ele>1203</ele>
        <time>2026-06-28T09:16:30.000Z</time>
      </trkpt>
      <trkpt lat="42.74627" lon="1.45553">
        <ele>1203</ele>
        <time>2026-06-28T09:16:31.000Z</time>
      </trkpt>
      <trkpt lat="42.74627" lon="1.45552">
        <ele>1203</ele>
        <time>2026-06-28T09:16:32.000Z</time>
      </trkpt>
      <trkpt lat="42.74627" lon="1.45552">
        <ele>1203</ele>
        <time>2026-06-28T09:16:33.000Z</time>
      </trkpt>
      <trkpt lat="42.74627" lon="1.45553">
        <ele>1206</ele>
        <time>2026-06-28T09:16:57.000Z</time>
      </trkpt>
      <trkpt lat="42.74627" lon="1.45553">
        <ele>1206</ele>
        <time>2026-06-28T09:16:58.000Z</time>
      </trkpt>
      <trkpt lat="42.74627" lon="1.45553">
        <ele>1206</ele>
        <time>2026-06-28T09:16:59.000Z</time>
      </trkpt>
      <trkpt lat="42.74626" lon="1.45553">
        <ele>1206</ele>
        <time>2026-06-28T09:17:00.000Z</time>
      </trkpt>
      <trkpt lat="42.74627" lon="1.45553">
        <ele>1206</ele>
        <time>2026-06-28T09:17:01.000Z</time>
      </trkpt>
      <trkpt lat="42.74627" lon="1.45552">
        <ele>1205</ele>
        <time>2026-06-28T09:17:02.000Z</time>
      </trkpt>
      <trkpt lat="42.74627" lon="1.45552">
        <ele>1205</ele>
        <time>2026-06-28T09:17:03.000Z</time>
      </trkpt>
      <trkpt lat="42.74627" lon="1.45551">
        <ele>1206</ele>
        <time>2026-06-28T09:17:04.000Z</time>
      </trkpt>
      <trkpt lat="42.74626" lon="1.45551">
        <ele>1207</ele>
        <time>2026-06-28T09:17:05.000Z</time>
      </trkpt>
      <trkpt lat="42.74625" lon="1.4555">
        <ele>1207</ele>
        <time>2026-06-28T09:17:21.000Z</time>
      </trkpt>
      <trkpt lat="42.74625" lon="1.45551">
        <ele>1207</ele>
        <time>2026-06-28T09:17:22.000Z</time>
      </trkpt>
      <trkpt lat="42.74625" lon="1.45551">
        <ele>1207</ele>
        <time>2026-06-28T09:17:23.000Z</time>
      </trkpt>
      <trkpt lat="42.74625" lon="1.45551">
        <ele>1207</ele>
        <time>2026-06-28T09:17:24.000Z</time>
      </trkpt>
      <trkpt lat="42.74625" lon="1.45551">
        <ele>1208</ele>
        <time>2026-06-28T09:17:25.000Z</time>
      </trkpt>
      <trkpt lat="42.74626" lon="1.45551">
        <ele>1207</ele>
        <time>2026-06-28T09:17:26.000Z</time>
      </trkpt>
      <trkpt lat="42.74626" lon="1.45551">
        <ele>1207</ele>
        <time>2026-06-28T09:17:27.000Z</time>
      </trkpt>
      <trkpt lat="42.74627" lon="1.45552">
        <ele>1207</ele>
        <time>2026-06-28T09:17:28.000Z</time>
      </trkpt>
      <trkpt lat="42.74626" lon="1.45551">
        <ele>1206</ele>
        <time>2026-06-28T09:17:43.000Z</time>
      </trkpt>
      <trkpt lat="42.74626" lon="1.45552">
        <ele>1205</ele>
        <time>2026-06-28T09:17:44.000Z</time>
      </trkpt>
      <trkpt lat="42.74626" lon="1.45551">
        <ele>1205</ele>
        <time>2026-06-28T09:17:45.000Z</time>
      </trkpt>
      <trkpt lat="42.74625" lon="1.4555">
        <ele>1203</ele>
        <time>2026-06-28T09:18:42.000Z</time>
      </trkpt>
      <trkpt lat="42.74625" lon="1.45551">
        <ele>1202</ele>
        <time>2026-06-28T09:18:43.000Z</time>
      </trkpt>
      <trkpt lat="42.74626" lon="1.4555">
        <ele>1202</ele>
        <time>2026-06-28T09:18:44.000Z</time>
      </trkpt>
      <trkpt lat="42.74626" lon="1.4555">
        <ele>1201</ele>
        <time>2026-06-28T09:18:45.000Z</time>
      </trkpt>
      <trkpt lat="42.74626" lon="1.45549">
        <ele>1202</ele>
        <time>2026-06-28T09:18:46.000Z</time>
      </trkpt>
      <trkpt lat="42.74627" lon="1.45549">
        <ele>1202</ele>
        <time>2026-06-28T09:18:47.000Z</time>
      </trkpt>
      <trkpt lat="42.74627" lon="1.45549">
        <ele>1202</ele>
        <time>2026-06-28T09:18:48.000Z</time>
      </trkpt>
      <trkpt lat="42.74627" lon="1.45546">
        <ele>1201</ele>
        <time>2026-06-28T09:19:04.000Z</time>
      </trkpt>
      <trkpt lat="42.74627" lon="1.45545">
        <ele>1202</ele>
        <time>2026-06-28T09:19:05.000Z</time>
      </trkpt>
      <trkpt lat="42.74627" lon="1.45543">
        <ele>1202</ele>
        <time>2026-06-28T09:19:06.000Z</time>
      </trkpt>
      <trkpt lat="42.74627" lon="1.4554">
        <ele>1202</ele>
        <time>2026-06-28T09:19:07.000Z</time>
      </trkpt>
      <trkpt lat="42.74627" lon="1.45539">
        <ele>1202</ele>
        <time>2026-06-28T09:19:08.000Z</time>
      </trkpt>
      <trkpt lat="42.74627" lon="1.45537">
        <ele>1203</ele>
        <time>2026-06-28T09:19:09.000Z</time>
      </trkpt>
      <trkpt lat="42.74626" lon="1.45534">
        <ele>1203</ele>
        <time>2026-06-28T09:19:10.000Z</time>
      </trkpt>
      <trkpt lat="42.74625" lon="1.45532">
        <ele>1203</ele>
        <time>2026-06-28T09:19:11.000Z</time>
      </trkpt>
      <trkpt lat="42.74624" lon="1.4553">
        <ele>1203</ele>
        <time>2026-06-28T09:19:12.000Z</time>
      </trkpt>
      <trkpt lat="42.74624" lon="1.45527">
        <ele>1203</ele>
        <time>2026-06-28T09:19:13.000Z</time>
      </trkpt>
      <trkpt lat="42.74623" lon="1.45525">
        <ele>1203</ele>
        <time>2026-06-28T09:19:14.000Z</time>
      </trkpt>
      <trkpt lat="42.74622" lon="1.45523">
        <ele>1203</ele>
        <time>2026-06-28T09:19:15.000Z</time>
      </trkpt>
      <trkpt lat="42.74622" lon="1.45521">
        <ele>1203</ele>
        <time>2026-06-28T09:19:16.000Z</time>
      </trkpt>
      <trkpt lat="42.74621" lon="1.45519">
        <ele>1203</ele>
        <time>2026-06-28T09:19:17.000Z</time>
      </trkpt>
      <trkpt lat="42.7462" lon="1.45517">
        <ele>1204</ele>
        <time>2026-06-28T09:19:18.000Z</time>
      </trkpt>
      <trkpt lat="42.7462" lon="1.45515">
        <ele>1203</ele>
        <time>2026-06-28T09:19:19.000Z</time>
      </trkpt>
      <trkpt lat="42.74619" lon="1.45514">
        <ele>1203</ele>
        <time>2026-06-28T09:19:20.000Z</time>
      </trkpt>
      <trkpt lat="42.74619" lon="1.45512">
        <ele>1203</ele>
        <time>2026-06-28T09:19:21.000Z</time>
      </trkpt>
      <trkpt lat="42.74619" lon="1.45511">
        <ele>1202</ele>
        <time>2026-06-28T09:19:22.000Z</time>
      </trkpt>
      <trkpt lat="42.74619" lon="1.45511">
        <ele>1201</ele>
        <time>2026-06-28T09:19:23.000Z</time>
      </trkpt>
      <trkpt lat="42.74619" lon="1.4551">
        <ele>1201</ele>
        <time>2026-06-28T09:19:24.000Z</time>
      </trkpt>
      <trkpt lat="42.74619" lon="1.45509">
        <ele>1202</ele>
        <time>2026-06-28T09:19:25.000Z</time>
      </trkpt>
      <trkpt lat="42.74619" lon="1.45508">
        <ele>1201</ele>
        <time>2026-06-28T09:19:26.000Z</time>
      </trkpt>
      <trkpt lat="42.74619" lon="1.45509">
        <ele>1201</ele>
        <time>2026-06-28T09:19:27.000Z</time>
      </trkpt>
      <trkpt lat="42.74618" lon="1.45509">
        <ele>1201</ele>
        <time>2026-06-28T09:19:28.000Z</time>
      </trkpt>
      <trkpt lat="42.74618" lon="1.45509">
        <ele>1201</ele>
        <time>2026-06-28T09:19:29.000Z</time>
      </trkpt>
      <trkpt lat="42.74618" lon="1.45508">
        <ele>1202</ele>
        <time>2026-06-28T09:19:30.000Z</time>
      </trkpt>
      <trkpt lat="42.74618" lon="1.45507">
        <ele>1202</ele>
        <time>2026-06-28T09:19:31.000Z</time>
      </trkpt>
      <trkpt lat="42.74618" lon="1.45505">
        <ele>1202</ele>
        <time>2026-06-28T09:19:32.000Z</time>
      </trkpt>
      <trkpt lat="42.74618" lon="1.45504">
        <ele>1202</ele>
        <time>2026-06-28T09:19:33.000Z</time>
      </trkpt>
      <trkpt lat="42.74619" lon="1.45503">
        <ele>1202</ele>
        <time>2026-06-28T09:19:34.000Z</time>
      </trkpt>
      <trkpt lat="42.74618" lon="1.45503">
        <ele>1202</ele>
        <time>2026-06-28T09:19:35.000Z</time>
      </trkpt>
      <trkpt lat="42.74618" lon="1.45503">
        <ele>1202</ele>
        <time>2026-06-28T09:19:36.000Z</time>
      </trkpt>
      <trkpt lat="42.74619" lon="1.45502">
        <ele>1202</ele>
        <time>2026-06-28T09:19:37.000Z</time>
      </trkpt>
      <trkpt lat="42.74619" lon="1.45501">
        <ele>1202</ele>
        <time>2026-06-28T09:19:38.000Z</time>
      </trkpt>
      <trkpt lat="42.74619" lon="1.455">
        <ele>1203</ele>
        <time>2026-06-28T09:19:39.000Z</time>
      </trkpt>
      <trkpt lat="42.7462" lon="1.45498">
        <ele>1203</ele>
        <time>2026-06-28T09:19:40.000Z</time>
      </trkpt>
      <trkpt lat="42.7462" lon="1.45497">
        <ele>1204</ele>
        <time>2026-06-28T09:19:41.000Z</time>
      </trkpt>
      <trkpt lat="42.7462" lon="1.45496">
        <ele>1204</ele>
        <time>2026-06-28T09:19:42.000Z</time>
      </trkpt>
      <trkpt lat="42.7462" lon="1.45495">
        <ele>1204</ele>
        <time>2026-06-28T09:19:43.000Z</time>
      </trkpt>
      <trkpt lat="42.7462" lon="1.45495">
        <ele>1204</ele>
        <time>2026-06-28T09:19:44.000Z</time>
      </trkpt>
      <trkpt lat="42.74619" lon="1.45495">
        <ele>1204</ele>
        <time>2026-06-28T09:19:45.000Z</time>
      </trkpt>
      <trkpt lat="42.74619" lon="1.45495">
        <ele>1205</ele>
        <time>2026-06-28T09:19:46.000Z</time>
      </trkpt>
      <trkpt lat="42.7462" lon="1.45495">
        <ele>1204</ele>
        <time>2026-06-28T09:19:47.000Z</time>
      </trkpt>
      <trkpt lat="42.7462" lon="1.45494">
        <ele>1205</ele>
        <time>2026-06-28T09:19:48.000Z</time>
      </trkpt>
      <trkpt lat="42.7462" lon="1.45494">
        <ele>1205</ele>
        <time>2026-06-28T09:19:49.000Z</time>
      </trkpt>
      <trkpt lat="42.7462" lon="1.45494">
        <ele>1205</ele>
        <time>2026-06-28T09:19:50.000Z</time>
      </trkpt>
      <trkpt lat="42.7462" lon="1.45494">
        <ele>1205</ele>
        <time>2026-06-28T09:19:51.000Z</time>
      </trkpt>
      <trkpt lat="42.74621" lon="1.45493">
        <ele>1204</ele>
        <time>2026-06-28T09:19:52.000Z</time>
      </trkpt>
      <trkpt lat="42.74621" lon="1.45492">
        <ele>1203</ele>
        <time>2026-06-28T09:19:53.000Z</time>
      </trkpt>
      <trkpt lat="42.74621" lon="1.45491">
        <ele>1204</ele>
        <time>2026-06-28T09:19:54.000Z</time>
      </trkpt>
      <trkpt lat="42.74621" lon="1.4549">
        <ele>1203</ele>
        <time>2026-06-28T09:19:55.000Z</time>
      </trkpt>
      <trkpt lat="42.74621" lon="1.4549">
        <ele>1202</ele>
        <time>2026-06-28T09:19:56.000Z</time>
      </trkpt>
      <trkpt lat="42.74622" lon="1.45488">
        <ele>1202</ele>
        <time>2026-06-28T09:19:57.000Z</time>
      </trkpt>
      <trkpt lat="42.74623" lon="1.45487">
        <ele>1202</ele>
        <time>2026-06-28T09:19:58.000Z</time>
      </trkpt>
      <trkpt lat="42.74623" lon="1.45486">
        <ele>1202</ele>
        <time>2026-06-28T09:19:59.000Z</time>
      </trkpt>
      <trkpt lat="42.74623" lon="1.45485">
        <ele>1202</ele>
        <time>2026-06-28T09:20:00.000Z</time>
      </trkpt>
      <trkpt lat="42.74623" lon="1.45485">
        <ele>1202</ele>
        <time>2026-06-28T09:20:01.000Z</time>
      </trkpt>
      <trkpt lat="42.74624" lon="1.45487">
        <ele>1202</ele>
        <time>2026-06-28T09:20:02.000Z</time>
      </trkpt>
      <trkpt lat="42.74624" lon="1.45488">
        <ele>1202</ele>
        <time>2026-06-28T09:20:03.000Z</time>
      </trkpt>
      <trkpt lat="42.74624" lon="1.45489">
        <ele>1202</ele>
        <time>2026-06-28T09:20:04.000Z</time>
      </trkpt>
      <trkpt lat="42.74624" lon="1.45489">
        <ele>1202</ele>
        <time>2026-06-28T09:20:05.000Z</time>
      </trkpt>
      <trkpt lat="42.74624" lon="1.45488">
        <ele>1203</ele>
        <time>2026-06-28T09:20:06.000Z</time>
      </trkpt>
      <trkpt lat="42.74625" lon="1.45486">
        <ele>1203</ele>
        <time>2026-06-28T09:20:07.000Z</time>
      </trkpt>
      <trkpt lat="42.74625" lon="1.45484">
        <ele>1204</ele>
        <time>2026-06-28T09:20:08.000Z</time>
      </trkpt>
      <trkpt lat="42.74625" lon="1.45482">
        <ele>1204</ele>
        <time>2026-06-28T09:20:09.000Z</time>
      </trkpt>
      <trkpt lat="42.74625" lon="1.4548">
        <ele>1203</ele>
        <time>2026-06-28T09:20:10.000Z</time>
      </trkpt>
      <trkpt lat="42.74625" lon="1.45477">
        <ele>1203</ele>
        <time>2026-06-28T09:20:11.000Z</time>
      </trkpt>
      <trkpt lat="42.74625" lon="1.45476">
        <ele>1204</ele>
        <time>2026-06-28T09:20:12.000Z</time>
      </trkpt>
      <trkpt lat="42.74625" lon="1.45474">
        <ele>1205</ele>
        <time>2026-06-28T09:20:13.000Z</time>
      </trkpt>
      <trkpt lat="42.74625" lon="1.45473">
        <ele>1205</ele>
        <time>2026-06-28T09:20:14.000Z</time>
      </trkpt>
      <trkpt lat="42.74625" lon="1.45472">
        <ele>1206</ele>
        <time>2026-06-28T09:20:15.000Z</time>
      </trkpt>
      <trkpt lat="42.74625" lon="1.45471">
        <ele>1206</ele>
        <time>2026-06-28T09:20:16.000Z</time>
      </trkpt>
      <trkpt lat="42.74624" lon="1.4547">
        <ele>1205</ele>
        <time>2026-06-28T09:20:17.000Z</time>
      </trkpt>
      <trkpt lat="42.74624" lon="1.45469">
        <ele>1205</ele>
        <time>2026-06-28T09:20:18.000Z</time>
      </trkpt>
      <trkpt lat="42.74624" lon="1.45469">
        <ele>1205</ele>
        <time>2026-06-28T09:20:19.000Z</time>
      </trkpt>
      <trkpt lat="42.74623" lon="1.45469">
        <ele>1204</ele>
        <time>2026-06-28T09:20:20.000Z</time>
      </trkpt>
      <trkpt lat="42.74623" lon="1.45469">
        <ele>1203</ele>
        <time>2026-06-28T09:20:21.000Z</time>
      </trkpt>
      <trkpt lat="42.74623" lon="1.45469">
        <ele>1203</ele>
        <time>2026-06-28T09:20:22.000Z</time>
      </trkpt>
      <trkpt lat="42.74623" lon="1.45469">
        <ele>1203</ele>
        <time>2026-06-28T09:20:23.000Z</time>
      </trkpt>
      <trkpt lat="42.74623" lon="1.45469">
        <ele>1203</ele>
        <time>2026-06-28T09:20:24.000Z</time>
      </trkpt>
      <trkpt lat="42.74623" lon="1.45468">
        <ele>1203</ele>
        <time>2026-06-28T09:20:25.000Z</time>
      </trkpt>
      <trkpt lat="42.74624" lon="1.45468">
        <ele>1203</ele>
        <time>2026-06-28T09:20:26.000Z</time>
      </trkpt>
      <trkpt lat="42.74624" lon="1.45467">
        <ele>1203</ele>
        <time>2026-06-28T09:20:27.000Z</time>
      </trkpt>
      <trkpt lat="42.74624" lon="1.45466">
        <ele>1202</ele>
        <time>2026-06-28T09:20:28.000Z</time>
      </trkpt>
      <trkpt lat="42.74624" lon="1.45465">
        <ele>1203</ele>
        <time>2026-06-28T09:20:29.000Z</time>
      </trkpt>
      <trkpt lat="42.74624" lon="1.45464">
        <ele>1202</ele>
        <time>2026-06-28T09:20:30.000Z</time>
      </trkpt>
      <trkpt lat="42.74624" lon="1.45464">
        <ele>1202</ele>
        <time>2026-06-28T09:20:31.000Z</time>
      </trkpt>
      <trkpt lat="42.74624" lon="1.45464">
        <ele>1202</ele>
        <time>2026-06-28T09:20:32.000Z</time>
      </trkpt>
      <trkpt lat="42.74625" lon="1.45463">
        <ele>1202</ele>
        <time>2026-06-28T09:20:33.000Z</time>
      </trkpt>
      <trkpt lat="42.74624" lon="1.45463">
        <ele>1202</ele>
        <time>2026-06-28T09:20:34.000Z</time>
      </trkpt>
      <trkpt lat="42.74625" lon="1.45463">
        <ele>1202</ele>
        <time>2026-06-28T09:20:35.000Z</time>
      </trkpt>
      <trkpt lat="42.74625" lon="1.45463">
        <ele>1202</ele>
        <time>2026-06-28T09:20:36.000Z</time>
      </trkpt>
      <trkpt lat="42.74625" lon="1.45464">
        <ele>1201</ele>
        <time>2026-06-28T09:20:37.000Z</time>
      </trkpt>
      <trkpt lat="42.74625" lon="1.45464">
        <ele>1201</ele>
        <time>2026-06-28T09:20:38.000Z</time>
      </trkpt>
      <trkpt lat="42.74625" lon="1.45463">
        <ele>1202</ele>
        <time>2026-06-28T09:20:39.000Z</time>
      </trkpt>
      <trkpt lat="42.74625" lon="1.45462">
        <ele>1202</ele>
        <time>2026-06-28T09:20:40.000Z</time>
      </trkpt>
      <trkpt lat="42.74624" lon="1.45462">
        <ele>1202</ele>
        <time>2026-06-28T09:20:41.000Z</time>
      </trkpt>
      <trkpt lat="42.74624" lon="1.45462">
        <ele>1202</ele>
        <time>2026-06-28T09:20:42.000Z</time>
      </trkpt>
      <trkpt lat="42.74624" lon="1.45462">
        <ele>1202</ele>
        <time>2026-06-28T09:20:43.000Z</time>
      </trkpt>
      <trkpt lat="42.74624" lon="1.45462">
        <ele>1202</ele>
        <time>2026-06-28T09:20:44.000Z</time>
      </trkpt>
      <trkpt lat="42.74624" lon="1.45461">
        <ele>1202</ele>
        <time>2026-06-28T09:20:45.000Z</time>
      </trkpt>
      <trkpt lat="42.74625" lon="1.45461">
        <ele>1201</ele>
        <time>2026-06-28T09:20:46.000Z</time>
      </trkpt>
      <trkpt lat="42.74625" lon="1.45461">
        <ele>1201</ele>
        <time>2026-06-28T09:20:47.000Z</time>
      </trkpt>
      <trkpt lat="42.74625" lon="1.4546">
        <ele>1201</ele>
        <time>2026-06-28T09:20:48.000Z</time>
      </trkpt>
      <trkpt lat="42.74625" lon="1.45459">
        <ele>1201</ele>
        <time>2026-06-28T09:20:49.000Z</time>
      </trkpt>
      <trkpt lat="42.74625" lon="1.45459">
        <ele>1201</ele>
        <time>2026-06-28T09:20:50.000Z</time>
      </trkpt>
      <trkpt lat="42.74625" lon="1.4546">
        <ele>1202</ele>
        <time>2026-06-28T09:20:51.000Z</time>
      </trkpt>
      <trkpt lat="42.74625" lon="1.45459">
        <ele>1201</ele>
        <time>2026-06-28T09:20:52.000Z</time>
      </trkpt>
      <trkpt lat="42.74624" lon="1.45459">
        <ele>1201</ele>
        <time>2026-06-28T09:20:53.000Z</time>
      </trkpt>
      <trkpt lat="42.74624" lon="1.45459">
        <ele>1200</ele>
        <time>2026-06-28T09:20:54.000Z</time>
      </trkpt>
      <trkpt lat="42.74623" lon="1.45458">
        <ele>1201</ele>
        <time>2026-06-28T09:20:55.000Z</time>
      </trkpt>
      <trkpt lat="42.74623" lon="1.45458">
        <ele>1201</ele>
        <time>2026-06-28T09:20:56.000Z</time>
      </trkpt>
      <trkpt lat="42.74622" lon="1.45458">
        <ele>1201</ele>
        <time>2026-06-28T09:20:57.000Z</time>
      </trkpt>
      <trkpt lat="42.74622" lon="1.45457">
        <ele>1201</ele>
        <time>2026-06-28T09:20:58.000Z</time>
      </trkpt>
      <trkpt lat="42.74622" lon="1.45458">
        <ele>1200</ele>
        <time>2026-06-28T09:21:15.000Z</time>
      </trkpt>
      <trkpt lat="42.74621" lon="1.45458">
        <ele>1199</ele>
        <time>2026-06-28T09:21:16.000Z</time>
      </trkpt>
      <trkpt lat="42.74621" lon="1.45458">
        <ele>1199</ele>
        <time>2026-06-28T09:21:17.000Z</time>
      </trkpt>
      <trkpt lat="42.7462" lon="1.45458">
        <ele>1199</ele>
        <time>2026-06-28T09:21:18.000Z</time>
      </trkpt>
      <trkpt lat="42.7462" lon="1.45457">
        <ele>1199</ele>
        <time>2026-06-28T09:21:19.000Z</time>
      </trkpt>
      <trkpt lat="42.7462" lon="1.45457">
        <ele>1200</ele>
        <time>2026-06-28T09:21:20.000Z</time>
      </trkpt>
      <trkpt lat="42.7462" lon="1.45456">
        <ele>1201</ele>
        <time>2026-06-28T09:21:41.000Z</time>
      </trkpt>
      <trkpt lat="42.7462" lon="1.45456">
        <ele>1201</ele>
        <time>2026-06-28T09:21:42.000Z</time>
      </trkpt>
      <trkpt lat="42.7462" lon="1.45455">
        <ele>1202</ele>
        <time>2026-06-28T09:21:43.000Z</time>
      </trkpt>
      <trkpt lat="42.7462" lon="1.45454">
        <ele>1202</ele>
        <time>2026-06-28T09:21:44.000Z</time>
      </trkpt>
      <trkpt lat="42.7462" lon="1.45454">
        <ele>1202</ele>
        <time>2026-06-28T09:21:45.000Z</time>
      </trkpt>
      <trkpt lat="42.7462" lon="1.45454">
        <ele>1202</ele>
        <time>2026-06-28T09:21:46.000Z</time>
      </trkpt>
      <trkpt lat="42.7462" lon="1.45453">
        <ele>1202</ele>
        <time>2026-06-28T09:21:47.000Z</time>
      </trkpt>
      <trkpt lat="42.74619" lon="1.45454">
        <ele>1203</ele>
        <time>2026-06-28T09:21:48.000Z</time>
      </trkpt>
      <trkpt lat="42.74618" lon="1.45454">
        <ele>1202</ele>
        <time>2026-06-28T09:21:49.000Z</time>
      </trkpt>
      <trkpt lat="42.74618" lon="1.45453">
        <ele>1202</ele>
        <time>2026-06-28T09:21:50.000Z</time>
      </trkpt>
      <trkpt lat="42.74618" lon="1.45454">
        <ele>1201</ele>
        <time>2026-06-28T09:21:51.000Z</time>
      </trkpt>
      <trkpt lat="42.74617" lon="1.45454">
        <ele>1201</ele>
        <time>2026-06-28T09:21:52.000Z</time>
      </trkpt>
      <trkpt lat="42.74617" lon="1.45453">
        <ele>1201</ele>
        <time>2026-06-28T09:21:53.000Z</time>
      </trkpt>
      <trkpt lat="42.74617" lon="1.45452">
        <ele>1202</ele>
        <time>2026-06-28T09:21:54.000Z</time>
      </trkpt>
      <trkpt lat="42.74617" lon="1.45451">
        <ele>1201</ele>
        <time>2026-06-28T09:21:55.000Z</time>
      </trkpt>
      <trkpt lat="42.74617" lon="1.4545">
        <ele>1202</ele>
        <time>2026-06-28T09:21:56.000Z</time>
      </trkpt>
      <trkpt lat="42.74617" lon="1.45449">
        <ele>1202</ele>
        <time>2026-06-28T09:21:57.000Z</time>
      </trkpt>
      <trkpt lat="42.74617" lon="1.45449">
        <ele>1202</ele>
        <time>2026-06-28T09:21:58.000Z</time>
      </trkpt>
      <trkpt lat="42.74616" lon="1.45449">
        <ele>1202</ele>
        <time>2026-06-28T09:21:59.000Z</time>
      </trkpt>
      <trkpt lat="42.74616" lon="1.45449">
        <ele>1202</ele>
        <time>2026-06-28T09:22:00.000Z</time>
      </trkpt>
      <trkpt lat="42.74615" lon="1.45449">
        <ele>1202</ele>
        <time>2026-06-28T09:22:01.000Z</time>
      </trkpt>
      <trkpt lat="42.74615" lon="1.45449">
        <ele>1202</ele>
        <time>2026-06-28T09:22:02.000Z</time>
      </trkpt>
      <trkpt lat="42.74614" lon="1.45448">
        <ele>1203</ele>
        <time>2026-06-28T09:22:03.000Z</time>
      </trkpt>
      <trkpt lat="42.74613" lon="1.45447">
        <ele>1204</ele>
        <time>2026-06-28T09:22:04.000Z</time>
      </trkpt>
      <trkpt lat="42.74612" lon="1.45446">
        <ele>1204</ele>
        <time>2026-06-28T09:22:05.000Z</time>
      </trkpt>
      <trkpt lat="42.74611" lon="1.45446">
        <ele>1204</ele>
        <time>2026-06-28T09:22:06.000Z</time>
      </trkpt>
      <trkpt lat="42.74611" lon="1.45445">
        <ele>1205</ele>
        <time>2026-06-28T09:22:07.000Z</time>
      </trkpt>
      <trkpt lat="42.7461" lon="1.45445">
        <ele>1205</ele>
        <time>2026-06-28T09:22:08.000Z</time>
      </trkpt>
      <trkpt lat="42.7461" lon="1.45445">
        <ele>1205</ele>
        <time>2026-06-28T09:22:09.000Z</time>
      </trkpt>
      <trkpt lat="42.7461" lon="1.45445">
        <ele>1205</ele>
        <time>2026-06-28T09:22:10.000Z</time>
      </trkpt>
      <trkpt lat="42.7461" lon="1.45445">
        <ele>1204</ele>
        <time>2026-06-28T09:22:11.000Z</time>
      </trkpt>
      <trkpt lat="42.74609" lon="1.45444">
        <ele>1204</ele>
        <time>2026-06-28T09:22:12.000Z</time>
      </trkpt>
      <trkpt lat="42.74609" lon="1.45443">
        <ele>1204</ele>
        <time>2026-06-28T09:22:13.000Z</time>
      </trkpt>
      <trkpt lat="42.74607" lon="1.45442">
        <ele>1203</ele>
        <time>2026-06-28T09:22:14.000Z</time>
      </trkpt>
      <trkpt lat="42.74607" lon="1.45442">
        <ele>1204</ele>
        <time>2026-06-28T09:22:15.000Z</time>
      </trkpt>
      <trkpt lat="42.74607" lon="1.45441">
        <ele>1203</ele>
        <time>2026-06-28T09:22:16.000Z</time>
      </trkpt>
      <trkpt lat="42.74607" lon="1.4544">
        <ele>1203</ele>
        <time>2026-06-28T09:22:17.000Z</time>
      </trkpt>
      <trkpt lat="42.74606" lon="1.4544">
        <ele>1203</ele>
        <time>2026-06-28T09:22:18.000Z</time>
      </trkpt>
      <trkpt lat="42.74606" lon="1.4544">
        <ele>1203</ele>
        <time>2026-06-28T09:22:19.000Z</time>
      </trkpt>
      <trkpt lat="42.74606" lon="1.4544">
        <ele>1203</ele>
        <time>2026-06-28T09:22:20.000Z</time>
      </trkpt>
      <trkpt lat="42.74606" lon="1.4544">
        <ele>1203</ele>
        <time>2026-06-28T09:22:21.000Z</time>
      </trkpt>
      <trkpt lat="42.74605" lon="1.45441">
        <ele>1203</ele>
        <time>2026-06-28T09:22:22.000Z</time>
      </trkpt>
      <trkpt lat="42.74604" lon="1.45441">
        <ele>1204</ele>
        <time>2026-06-28T09:22:23.000Z</time>
      </trkpt>
      <trkpt lat="42.74604" lon="1.45441">
        <ele>1204</ele>
        <time>2026-06-28T09:22:24.000Z</time>
      </trkpt>
      <trkpt lat="42.74603" lon="1.45441">
        <ele>1205</ele>
        <time>2026-06-28T09:22:25.000Z</time>
      </trkpt>
      <trkpt lat="42.74602" lon="1.45441">
        <ele>1206</ele>
        <time>2026-06-28T09:22:26.000Z</time>
      </trkpt>
      <trkpt lat="42.74602" lon="1.4544">
        <ele>1206</ele>
        <time>2026-06-28T09:22:27.000Z</time>
      </trkpt>
      <trkpt lat="42.74601" lon="1.45441">
        <ele>1206</ele>
        <time>2026-06-28T09:22:28.000Z</time>
      </trkpt>
      <trkpt lat="42.74601" lon="1.45441">
        <ele>1207</ele>
        <time>2026-06-28T09:22:29.000Z</time>
      </trkpt>
      <trkpt lat="42.746" lon="1.45441">
        <ele>1207</ele>
        <time>2026-06-28T09:22:30.000Z</time>
      </trkpt>
      <trkpt lat="42.74599" lon="1.45442">
        <ele>1207</ele>
        <time>2026-06-28T09:22:31.000Z</time>
      </trkpt>
      <trkpt lat="42.74599" lon="1.45443">
        <ele>1207</ele>
        <time>2026-06-28T09:22:32.000Z</time>
      </trkpt>
      <trkpt lat="42.746" lon="1.45442">
        <ele>1206</ele>
        <time>2026-06-28T09:22:33.000Z</time>
      </trkpt>
      <trkpt lat="42.74599" lon="1.45443">
        <ele>1206</ele>
        <time>2026-06-28T09:22:34.000Z</time>
      </trkpt>
      <trkpt lat="42.74599" lon="1.45443">
        <ele>1206</ele>
        <time>2026-06-28T09:22:35.000Z</time>
      </trkpt>
      <trkpt lat="42.74599" lon="1.45443">
        <ele>1206</ele>
        <time>2026-06-28T09:22:36.000Z</time>
      </trkpt>
      <trkpt lat="42.74599" lon="1.45443">
        <ele>1205</ele>
        <time>2026-06-28T09:22:37.000Z</time>
      </trkpt>
      <trkpt lat="42.74599" lon="1.45443">
        <ele>1205</ele>
        <time>2026-06-28T09:22:38.000Z</time>
      </trkpt>
      <trkpt lat="42.74598" lon="1.45444">
        <ele>1205</ele>
        <time>2026-06-28T09:22:39.000Z</time>
      </trkpt>
      <trkpt lat="42.74597" lon="1.45445">
        <ele>1205</ele>
        <time>2026-06-28T09:22:40.000Z</time>
      </trkpt>
      <trkpt lat="42.74597" lon="1.45445">
        <ele>1204</ele>
        <time>2026-06-28T09:22:41.000Z</time>
      </trkpt>
      <trkpt lat="42.74596" lon="1.45445">
        <ele>1204</ele>
        <time>2026-06-28T09:22:42.000Z</time>
      </trkpt>
      <trkpt lat="42.74596" lon="1.45446">
        <ele>1205</ele>
        <time>2026-06-28T09:22:43.000Z</time>
      </trkpt>
      <trkpt lat="42.74596" lon="1.45446">
        <ele>1205</ele>
        <time>2026-06-28T09:22:44.000Z</time>
      </trkpt>
      <trkpt lat="42.74596" lon="1.45447">
        <ele>1205</ele>
        <time>2026-06-28T09:22:45.000Z</time>
      </trkpt>
      <trkpt lat="42.74596" lon="1.45447">
        <ele>1206</ele>
        <time>2026-06-28T09:22:46.000Z</time>
      </trkpt>
      <trkpt lat="42.74595" lon="1.45447">
        <ele>1206</ele>
        <time>2026-06-28T09:22:47.000Z</time>
      </trkpt>
      <trkpt lat="42.74595" lon="1.45447">
        <ele>1205</ele>
        <time>2026-06-28T09:22:48.000Z</time>
      </trkpt>
      <trkpt lat="42.74595" lon="1.45447">
        <ele>1205</ele>
        <time>2026-06-28T09:22:49.000Z</time>
      </trkpt>
      <trkpt lat="42.74594" lon="1.45448">
        <ele>1206</ele>
        <time>2026-06-28T09:22:50.000Z</time>
      </trkpt>
      <trkpt lat="42.74594" lon="1.45449">
        <ele>1205</ele>
        <time>2026-06-28T09:22:51.000Z</time>
      </trkpt>
      <trkpt lat="42.74594" lon="1.4545">
        <ele>1205</ele>
        <time>2026-06-28T09:22:52.000Z</time>
      </trkpt>
      <trkpt lat="42.74593" lon="1.4545">
        <ele>1206</ele>
        <time>2026-06-28T09:22:53.000Z</time>
      </trkpt>
      <trkpt lat="42.74592" lon="1.45452">
        <ele>1206</ele>
        <time>2026-06-28T09:22:54.000Z</time>
      </trkpt>
      <trkpt lat="42.74591" lon="1.45454">
        <ele>1205</ele>
        <time>2026-06-28T09:22:55.000Z</time>
      </trkpt>
      <trkpt lat="42.7459" lon="1.45455">
        <ele>1206</ele>
        <time>2026-06-28T09:22:56.000Z</time>
      </trkpt>
      <trkpt lat="42.74589" lon="1.45455">
        <ele>1206</ele>
        <time>2026-06-28T09:22:57.000Z</time>
      </trkpt>
      <trkpt lat="42.74587" lon="1.45456">
        <ele>1207</ele>
        <time>2026-06-28T09:22:58.000Z</time>
      </trkpt>
      <trkpt lat="42.74586" lon="1.45456">
        <ele>1207</ele>
        <time>2026-06-28T09:22:59.000Z</time>
      </trkpt>
      <trkpt lat="42.74584" lon="1.45457">
        <ele>1207</ele>
        <time>2026-06-28T09:23:00.000Z</time>
      </trkpt>
      <trkpt lat="42.74584" lon="1.45457">
        <ele>1207</ele>
        <time>2026-06-28T09:23:01.000Z</time>
      </trkpt>
      <trkpt lat="42.74584" lon="1.45456">
        <ele>1207</ele>
        <time>2026-06-28T09:23:02.000Z</time>
      </trkpt>
      <trkpt lat="42.74583" lon="1.45455">
        <ele>1207</ele>
        <time>2026-06-28T09:23:03.000Z</time>
      </trkpt>
      <trkpt lat="42.74582" lon="1.45455">
        <ele>1206</ele>
        <time>2026-06-28T09:23:04.000Z</time>
      </trkpt>
      <trkpt lat="42.74581" lon="1.45455">
        <ele>1206</ele>
        <time>2026-06-28T09:23:05.000Z</time>
      </trkpt>
      <trkpt lat="42.74581" lon="1.45455">
        <ele>1206</ele>
        <time>2026-06-28T09:23:06.000Z</time>
      </trkpt>
      <trkpt lat="42.7458" lon="1.45457">
        <ele>1206</ele>
        <time>2026-06-28T09:23:07.000Z</time>
      </trkpt>
      <trkpt lat="42.74578" lon="1.45458">
        <ele>1206</ele>
        <time>2026-06-28T09:23:08.000Z</time>
      </trkpt>
      <trkpt lat="42.74576" lon="1.45459">
        <ele>1207</ele>
        <time>2026-06-28T09:23:09.000Z</time>
      </trkpt>
      <trkpt lat="42.74575" lon="1.45459">
        <ele>1207</ele>
        <time>2026-06-28T09:23:10.000Z</time>
      </trkpt>
      <trkpt lat="42.74573" lon="1.4546">
        <ele>1207</ele>
        <time>2026-06-28T09:23:11.000Z</time>
      </trkpt>
      <trkpt lat="42.74571" lon="1.45461">
        <ele>1207</ele>
        <time>2026-06-28T09:23:12.000Z</time>
      </trkpt>
      <trkpt lat="42.74569" lon="1.45462">
        <ele>1207</ele>
        <time>2026-06-28T09:23:13.000Z</time>
      </trkpt>
      <trkpt lat="42.74567" lon="1.45462">
        <ele>1207</ele>
        <time>2026-06-28T09:23:14.000Z</time>
      </trkpt>
      <trkpt lat="42.74566" lon="1.45462">
        <ele>1207</ele>
        <time>2026-06-28T09:23:15.000Z</time>
      </trkpt>
      <trkpt lat="42.74564" lon="1.45462">
        <ele>1206</ele>
        <time>2026-06-28T09:23:16.000Z</time>
      </trkpt>
      <trkpt lat="42.74563" lon="1.45461">
        <ele>1206</ele>
        <time>2026-06-28T09:23:17.000Z</time>
      </trkpt>
      <trkpt lat="42.74561" lon="1.45461">
        <ele>1206</ele>
        <time>2026-06-28T09:23:18.000Z</time>
      </trkpt>
      <trkpt lat="42.7456" lon="1.45461">
        <ele>1206</ele>
        <time>2026-06-28T09:23:19.000Z</time>
      </trkpt>
      <trkpt lat="42.74559" lon="1.45461">
        <ele>1206</ele>
        <time>2026-06-28T09:23:20.000Z</time>
      </trkpt>
      <trkpt lat="42.74558" lon="1.45461">
        <ele>1208</ele>
        <time>2026-06-28T09:23:21.000Z</time>
      </trkpt>
      <trkpt lat="42.74556" lon="1.45461">
        <ele>1209</ele>
        <time>2026-06-28T09:23:22.000Z</time>
      </trkpt>
      <trkpt lat="42.74554" lon="1.45461">
        <ele>1209</ele>
        <time>2026-06-28T09:23:23.000Z</time>
      </trkpt>
      <trkpt lat="42.74552" lon="1.45461">
        <ele>1210</ele>
        <time>2026-06-28T09:23:24.000Z</time>
      </trkpt>
      <trkpt lat="42.74551" lon="1.45461">
        <ele>1211</ele>
        <time>2026-06-28T09:23:25.000Z</time>
      </trkpt>
      <trkpt lat="42.7455" lon="1.45461">
        <ele>1211</ele>
        <time>2026-06-28T09:23:26.000Z</time>
      </trkpt>
      <trkpt lat="42.74549" lon="1.45461">
        <ele>1212</ele>
        <time>2026-06-28T09:23:27.000Z</time>
      </trkpt>
      <trkpt lat="42.74547" lon="1.45461">
        <ele>1211</ele>
        <time>2026-06-28T09:23:28.000Z</time>
      </trkpt>
      <trkpt lat="42.74545" lon="1.4546">
        <ele>1211</ele>
        <time>2026-06-28T09:23:29.000Z</time>
      </trkpt>
      <trkpt lat="42.74543" lon="1.4546">
        <ele>1211</ele>
        <time>2026-06-28T09:23:30.000Z</time>
      </trkpt>
      <trkpt lat="42.7454" lon="1.4546">
        <ele>1211</ele>
        <time>2026-06-28T09:23:31.000Z</time>
      </trkpt>
      <trkpt lat="42.74537" lon="1.4546">
        <ele>1211</ele>
        <time>2026-06-28T09:23:32.000Z</time>
      </trkpt>
      <trkpt lat="42.74534" lon="1.4546">
        <ele>1212</ele>
        <time>2026-06-28T09:23:33.000Z</time>
      </trkpt>
      <trkpt lat="42.74532" lon="1.45461">
        <ele>1211</ele>
        <time>2026-06-28T09:23:34.000Z</time>
      </trkpt>
      <trkpt lat="42.7453" lon="1.45461">
        <ele>1211</ele>
        <time>2026-06-28T09:23:35.000Z</time>
      </trkpt>
      <trkpt lat="42.74529" lon="1.45462">
        <ele>1211</ele>
        <time>2026-06-28T09:23:36.000Z</time>
      </trkpt>
      <trkpt lat="42.74528" lon="1.45463">
        <ele>1211</ele>
        <time>2026-06-28T09:23:37.000Z</time>
      </trkpt>
      <trkpt lat="42.74526" lon="1.45465">
        <ele>1212</ele>
        <time>2026-06-28T09:23:38.000Z</time>
      </trkpt>
      <trkpt lat="42.74526" lon="1.45467">
        <ele>1213</ele>
        <time>2026-06-28T09:23:39.000Z</time>
      </trkpt>
      <trkpt lat="42.74524" lon="1.45469">
        <ele>1213</ele>
        <time>2026-06-28T09:23:40.000Z</time>
      </trkpt>
      <trkpt lat="42.74523" lon="1.45469">
        <ele>1214</ele>
        <time>2026-06-28T09:23:41.000Z</time>
      </trkpt>
      <trkpt lat="42.74522" lon="1.45472">
        <ele>1215</ele>
        <time>2026-06-28T09:23:42.000Z</time>
      </trkpt>
      <trkpt lat="42.7452" lon="1.45474">
        <ele>1216</ele>
        <time>2026-06-28T09:23:43.000Z</time>
      </trkpt>
      <trkpt lat="42.74518" lon="1.45475">
        <ele>1216</ele>
        <time>2026-06-28T09:23:44.000Z</time>
      </trkpt>
      <trkpt lat="42.74515" lon="1.45476">
        <ele>1216</ele>
        <time>2026-06-28T09:23:45.000Z</time>
      </trkpt>
      <trkpt lat="42.74512" lon="1.45476">
        <ele>1216</ele>
        <time>2026-06-28T09:23:46.000Z</time>
      </trkpt>
      <trkpt lat="42.74509" lon="1.45476">
        <ele>1216</ele>
        <time>2026-06-28T09:23:47.000Z</time>
      </trkpt>
      <trkpt lat="42.74507" lon="1.45477">
        <ele>1216</ele>
        <time>2026-06-28T09:23:48.000Z</time>
      </trkpt>
      <trkpt lat="42.74505" lon="1.45477">
        <ele>1215</ele>
        <time>2026-06-28T09:23:49.000Z</time>
      </trkpt>
      <trkpt lat="42.74503" lon="1.45476">
        <ele>1216</ele>
        <time>2026-06-28T09:23:50.000Z</time>
      </trkpt>
      <trkpt lat="42.745" lon="1.45478">
        <ele>1216</ele>
        <time>2026-06-28T09:23:51.000Z</time>
      </trkpt>
      <trkpt lat="42.74498" lon="1.45479">
        <ele>1215</ele>
        <time>2026-06-28T09:23:52.000Z</time>
      </trkpt>
      <trkpt lat="42.74495" lon="1.45479">
        <ele>1215</ele>
        <time>2026-06-28T09:23:53.000Z</time>
      </trkpt>
      <trkpt lat="42.74493" lon="1.4548">
        <ele>1216</ele>
        <time>2026-06-28T09:23:54.000Z</time>
      </trkpt>
      <trkpt lat="42.7449" lon="1.45481">
        <ele>1215</ele>
        <time>2026-06-28T09:23:55.000Z</time>
      </trkpt>
      <trkpt lat="42.74488" lon="1.45481">
        <ele>1216</ele>
        <time>2026-06-28T09:23:56.000Z</time>
      </trkpt>
      <trkpt lat="42.74487" lon="1.45482">
        <ele>1216</ele>
        <time>2026-06-28T09:23:57.000Z</time>
      </trkpt>
      <trkpt lat="42.74485" lon="1.45483">
        <ele>1215</ele>
        <time>2026-06-28T09:23:58.000Z</time>
      </trkpt>
      <trkpt lat="42.74484" lon="1.45483">
        <ele>1215</ele>
        <time>2026-06-28T09:23:59.000Z</time>
      </trkpt>
      <trkpt lat="42.74482" lon="1.45484">
        <ele>1215</ele>
        <time>2026-06-28T09:24:00.000Z</time>
      </trkpt>
      <trkpt lat="42.7448" lon="1.45484">
        <ele>1215</ele>
        <time>2026-06-28T09:24:01.000Z</time>
      </trkpt>
      <trkpt lat="42.74478" lon="1.45485">
        <ele>1215</ele>
        <time>2026-06-28T09:24:02.000Z</time>
      </trkpt>
      <trkpt lat="42.74476" lon="1.45485">
        <ele>1215</ele>
        <time>2026-06-28T09:24:03.000Z</time>
      </trkpt>
      <trkpt lat="42.74474" lon="1.45486">
        <ele>1216</ele>
        <time>2026-06-28T09:24:04.000Z</time>
      </trkpt>
      <trkpt lat="42.74472" lon="1.45487">
        <ele>1217</ele>
        <time>2026-06-28T09:24:05.000Z</time>
      </trkpt>
      <trkpt lat="42.74472" lon="1.45488">
        <ele>1218</ele>
        <time>2026-06-28T09:24:06.000Z</time>
      </trkpt>
      <trkpt lat="42.7447" lon="1.45489">
        <ele>1219</ele>
        <time>2026-06-28T09:24:07.000Z</time>
      </trkpt>
      <trkpt lat="42.74469" lon="1.4549">
        <ele>1220</ele>
        <time>2026-06-28T09:24:08.000Z</time>
      </trkpt>
      <trkpt lat="42.74467" lon="1.45491">
        <ele>1221</ele>
        <time>2026-06-28T09:24:09.000Z</time>
      </trkpt>
      <trkpt lat="42.74465" lon="1.45491">
        <ele>1221</ele>
        <time>2026-06-28T09:24:10.000Z</time>
      </trkpt>
      <trkpt lat="42.74463" lon="1.45491">
        <ele>1221</ele>
        <time>2026-06-28T09:24:11.000Z</time>
      </trkpt>
      <trkpt lat="42.74461" lon="1.45492">
        <ele>1221</ele>
        <time>2026-06-28T09:24:12.000Z</time>
      </trkpt>
      <trkpt lat="42.74459" lon="1.45493">
        <ele>1222</ele>
        <time>2026-06-28T09:24:13.000Z</time>
      </trkpt>
      <trkpt lat="42.74457" lon="1.45493">
        <ele>1221</ele>
        <time>2026-06-28T09:24:14.000Z</time>
      </trkpt>
      <trkpt lat="42.74456" lon="1.45494">
        <ele>1221</ele>
        <time>2026-06-28T09:24:15.000Z</time>
      </trkpt>
      <trkpt lat="42.74455" lon="1.45495">
        <ele>1221</ele>
        <time>2026-06-28T09:24:16.000Z</time>
      </trkpt>
      <trkpt lat="42.74454" lon="1.45497">
        <ele>1221</ele>
        <time>2026-06-28T09:24:17.000Z</time>
      </trkpt>
      <trkpt lat="42.74453" lon="1.45498">
        <ele>1221</ele>
        <time>2026-06-28T09:24:18.000Z</time>
      </trkpt>
      <trkpt lat="42.74451" lon="1.45499">
        <ele>1222</ele>
        <time>2026-06-28T09:24:19.000Z</time>
      </trkpt>
      <trkpt lat="42.74449" lon="1.455">
        <ele>1222</ele>
        <time>2026-06-28T09:24:20.000Z</time>
      </trkpt>
      <trkpt lat="42.74447" lon="1.45502">
        <ele>1224</ele>
        <time>2026-06-28T09:24:21.000Z</time>
      </trkpt>
      <trkpt lat="42.74445" lon="1.45504">
        <ele>1226</ele>
        <time>2026-06-28T09:24:22.000Z</time>
      </trkpt>
      <trkpt lat="42.74442" lon="1.45505">
        <ele>1226</ele>
        <time>2026-06-28T09:24:23.000Z</time>
      </trkpt>
      <trkpt lat="42.74439" lon="1.45507">
        <ele>1227</ele>
        <time>2026-06-28T09:24:24.000Z</time>
      </trkpt>
      <trkpt lat="42.74437" lon="1.45509">
        <ele>1228</ele>
        <time>2026-06-28T09:24:25.000Z</time>
      </trkpt>
      <trkpt lat="42.74435" lon="1.45511">
        <ele>1228</ele>
        <time>2026-06-28T09:24:26.000Z</time>
      </trkpt>
      <trkpt lat="42.74432" lon="1.45514">
        <ele>1229</ele>
        <time>2026-06-28T09:24:27.000Z</time>
      </trkpt>
      <trkpt lat="42.74431" lon="1.45517">
        <ele>1229</ele>
        <time>2026-06-28T09:24:28.000Z</time>
      </trkpt>
      <trkpt lat="42.74429" lon="1.45519">
        <ele>1229</ele>
        <time>2026-06-28T09:24:29.000Z</time>
      </trkpt>
      <trkpt lat="42.74427" lon="1.4552">
        <ele>1230</ele>
        <time>2026-06-28T09:24:30.000Z</time>
      </trkpt>
      <trkpt lat="42.74425" lon="1.45522">
        <ele>1230</ele>
        <time>2026-06-28T09:24:31.000Z</time>
      </trkpt>
      <trkpt lat="42.74422" lon="1.45524">
        <ele>1230</ele>
        <time>2026-06-28T09:24:32.000Z</time>
      </trkpt>
      <trkpt lat="42.74418" lon="1.45525">
        <ele>1230</ele>
        <time>2026-06-28T09:24:33.000Z</time>
      </trkpt>
      <trkpt lat="42.74415" lon="1.45527">
        <ele>1229</ele>
        <time>2026-06-28T09:24:34.000Z</time>
      </trkpt>
      <trkpt lat="42.74412" lon="1.45529">
        <ele>1229</ele>
        <time>2026-06-28T09:24:35.000Z</time>
      </trkpt>
      <trkpt lat="42.74409" lon="1.45531">
        <ele>1228</ele>
        <time>2026-06-28T09:24:36.000Z</time>
      </trkpt>
      <trkpt lat="42.74406" lon="1.45532">
        <ele>1228</ele>
        <time>2026-06-28T09:24:37.000Z</time>
      </trkpt>
      <trkpt lat="42.74403" lon="1.45534">
        <ele>1228</ele>
        <time>2026-06-28T09:24:38.000Z</time>
      </trkpt>
      <trkpt lat="42.74401" lon="1.45535">
        <ele>1229</ele>
        <time>2026-06-28T09:24:39.000Z</time>
      </trkpt>
      <trkpt lat="42.74398" lon="1.45537">
        <ele>1229</ele>
        <time>2026-06-28T09:24:40.000Z</time>
      </trkpt>
      <trkpt lat="42.74394" lon="1.45538">
        <ele>1228</ele>
        <time>2026-06-28T09:24:41.000Z</time>
      </trkpt>
      <trkpt lat="42.7439" lon="1.45539">
        <ele>1228</ele>
        <time>2026-06-28T09:24:42.000Z</time>
      </trkpt>
      <trkpt lat="42.74386" lon="1.4554">
        <ele>1228</ele>
        <time>2026-06-28T09:24:43.000Z</time>
      </trkpt>
      <trkpt lat="42.74383" lon="1.45542">
        <ele>1227</ele>
        <time>2026-06-28T09:24:44.000Z</time>
      </trkpt>
      <trkpt lat="42.7438" lon="1.45544">
        <ele>1227</ele>
        <time>2026-06-28T09:24:45.000Z</time>
      </trkpt>
      <trkpt lat="42.74377" lon="1.45545">
        <ele>1227</ele>
        <time>2026-06-28T09:24:46.000Z</time>
      </trkpt>
      <trkpt lat="42.74375" lon="1.45547">
        <ele>1227</ele>
        <time>2026-06-28T09:24:47.000Z</time>
      </trkpt>
      <trkpt lat="42.74373" lon="1.45548">
        <ele>1227</ele>
        <time>2026-06-28T09:24:48.000Z</time>
      </trkpt>
      <trkpt lat="42.74372" lon="1.4555">
        <ele>1226</ele>
        <time>2026-06-28T09:24:49.000Z</time>
      </trkpt>
      <trkpt lat="42.7437" lon="1.45552">
        <ele>1225</ele>
        <time>2026-06-28T09:24:50.000Z</time>
      </trkpt>
      <trkpt lat="42.74369" lon="1.45553">
        <ele>1226</ele>
        <time>2026-06-28T09:24:51.000Z</time>
      </trkpt>
      <trkpt lat="42.74368" lon="1.45555">
        <ele>1226</ele>
        <time>2026-06-28T09:24:52.000Z</time>
      </trkpt>
      <trkpt lat="42.74367" lon="1.45558">
        <ele>1227</ele>
        <time>2026-06-28T09:24:53.000Z</time>
      </trkpt>
      <trkpt lat="42.74366" lon="1.45561">
        <ele>1226</ele>
        <time>2026-06-28T09:24:54.000Z</time>
      </trkpt>
      <trkpt lat="42.74365" lon="1.45564">
        <ele>1227</ele>
        <time>2026-06-28T09:24:55.000Z</time>
      </trkpt>
      <trkpt lat="42.74363" lon="1.45567">
        <ele>1227</ele>
        <time>2026-06-28T09:24:56.000Z</time>
      </trkpt>
      <trkpt lat="42.74361" lon="1.4557">
        <ele>1227</ele>
        <time>2026-06-28T09:24:57.000Z</time>
      </trkpt>
      <trkpt lat="42.74359" lon="1.45573">
        <ele>1228</ele>
        <time>2026-06-28T09:24:58.000Z</time>
      </trkpt>
      <trkpt lat="42.74358" lon="1.45576">
        <ele>1228</ele>
        <time>2026-06-28T09:24:59.000Z</time>
      </trkpt>
      <trkpt lat="42.74357" lon="1.45578">
        <ele>1228</ele>
        <time>2026-06-28T09:25:00.000Z</time>
      </trkpt>
      <trkpt lat="42.74355" lon="1.45581">
        <ele>1229</ele>
        <time>2026-06-28T09:25:01.000Z</time>
      </trkpt>
      <trkpt lat="42.74353" lon="1.45584">
        <ele>1230</ele>
        <time>2026-06-28T09:25:02.000Z</time>
      </trkpt>
      <trkpt lat="42.7435" lon="1.45587">
        <ele>1231</ele>
        <time>2026-06-28T09:25:03.000Z</time>
      </trkpt>
      <trkpt lat="42.74348" lon="1.45591">
        <ele>1233</ele>
        <time>2026-06-28T09:25:04.000Z</time>
      </trkpt>
      <trkpt lat="42.74345" lon="1.45595">
        <ele>1235</ele>
        <time>2026-06-28T09:25:05.000Z</time>
      </trkpt>
      <trkpt lat="42.74342" lon="1.45598">
        <ele>1237</ele>
        <time>2026-06-28T09:25:06.000Z</time>
      </trkpt>
      <trkpt lat="42.74339" lon="1.456">
        <ele>1238</ele>
        <time>2026-06-28T09:25:07.000Z</time>
      </trkpt>
      <trkpt lat="42.74335" lon="1.45602">
        <ele>1238</ele>
        <time>2026-06-28T09:25:08.000Z</time>
      </trkpt>
      <trkpt lat="42.74332" lon="1.45604">
        <ele>1238</ele>
        <time>2026-06-28T09:25:09.000Z</time>
      </trkpt>
      <trkpt lat="42.7433" lon="1.45606">
        <ele>1237</ele>
        <time>2026-06-28T09:25:10.000Z</time>
      </trkpt>
      <trkpt lat="42.74326" lon="1.45609">
        <ele>1237</ele>
        <time>2026-06-28T09:25:11.000Z</time>
      </trkpt>
      <trkpt lat="42.74322" lon="1.45612">
        <ele>1236</ele>
        <time>2026-06-28T09:25:12.000Z</time>
      </trkpt>
      <trkpt lat="42.74317" lon="1.45615">
        <ele>1236</ele>
        <time>2026-06-28T09:25:13.000Z</time>
      </trkpt>
      <trkpt lat="42.74313" lon="1.45617">
        <ele>1235</ele>
        <time>2026-06-28T09:25:14.000Z</time>
      </trkpt>
      <trkpt lat="42.74309" lon="1.4562">
        <ele>1235</ele>
        <time>2026-06-28T09:25:15.000Z</time>
      </trkpt>
      <trkpt lat="42.74304" lon="1.45622">
        <ele>1235</ele>
        <time>2026-06-28T09:25:16.000Z</time>
      </trkpt>
      <trkpt lat="42.74299" lon="1.45624">
        <ele>1234</ele>
        <time>2026-06-28T09:25:17.000Z</time>
      </trkpt>
      <trkpt lat="42.74295" lon="1.45626">
        <ele>1234</ele>
        <time>2026-06-28T09:25:18.000Z</time>
      </trkpt>
      <trkpt lat="42.74291" lon="1.45629">
        <ele>1233</ele>
        <time>2026-06-28T09:25:19.000Z</time>
      </trkpt>
      <trkpt lat="42.74288" lon="1.45631">
        <ele>1232</ele>
        <time>2026-06-28T09:25:20.000Z</time>
      </trkpt>
      <trkpt lat="42.74284" lon="1.45634">
        <ele>1232</ele>
        <time>2026-06-28T09:25:21.000Z</time>
      </trkpt>
      <trkpt lat="42.7428" lon="1.45636">
        <ele>1231</ele>
        <time>2026-06-28T09:25:22.000Z</time>
      </trkpt>
      <trkpt lat="42.74275" lon="1.45636">
        <ele>1230</ele>
        <time>2026-06-28T09:25:23.000Z</time>
      </trkpt>
      <trkpt lat="42.74271" lon="1.45636">
        <ele>1229</ele>
        <time>2026-06-28T09:25:24.000Z</time>
      </trkpt>
      <trkpt lat="42.74266" lon="1.45635">
        <ele>1229</ele>
        <time>2026-06-28T09:25:25.000Z</time>
      </trkpt>
      <trkpt lat="42.74262" lon="1.45634">
        <ele>1228</ele>
        <time>2026-06-28T09:25:26.000Z</time>
      </trkpt>
      <trkpt lat="42.74258" lon="1.45635">
        <ele>1227</ele>
        <time>2026-06-28T09:25:27.000Z</time>
      </trkpt>
      <trkpt lat="42.74255" lon="1.45637">
        <ele>1226</ele>
        <time>2026-06-28T09:25:28.000Z</time>
      </trkpt>
      <trkpt lat="42.74251" lon="1.45638">
        <ele>1226</ele>
        <time>2026-06-28T09:25:29.000Z</time>
      </trkpt>
      <trkpt lat="42.74247" lon="1.45639">
        <ele>1225</ele>
        <time>2026-06-28T09:25:30.000Z</time>
      </trkpt>
      <trkpt lat="42.7424" lon="1.45637">
        <ele>1224</ele>
        <time>2026-06-28T09:25:31.000Z</time>
      </trkpt>
      <trkpt lat="42.74236" lon="1.45635">
        <ele>1223</ele>
        <time>2026-06-28T09:25:32.000Z</time>
      </trkpt>
      <trkpt lat="42.74233" lon="1.45633">
        <ele>1222</ele>
        <time>2026-06-28T09:25:33.000Z</time>
      </trkpt>
      <trkpt lat="42.74229" lon="1.45631">
        <ele>1222</ele>
        <time>2026-06-28T09:25:34.000Z</time>
      </trkpt>
      <trkpt lat="42.74226" lon="1.45629">
        <ele>1221</ele>
        <time>2026-06-28T09:25:35.000Z</time>
      </trkpt>
      <trkpt lat="42.74222" lon="1.45627">
        <ele>1220</ele>
        <time>2026-06-28T09:25:36.000Z</time>
      </trkpt>
      <trkpt lat="42.74219" lon="1.45624">
        <ele>1219</ele>
        <time>2026-06-28T09:25:37.000Z</time>
      </trkpt>
      <trkpt lat="42.74215" lon="1.45621">
        <ele>1218</ele>
        <time>2026-06-28T09:25:38.000Z</time>
      </trkpt>
      <trkpt lat="42.74211" lon="1.4562">
        <ele>1218</ele>
        <time>2026-06-28T09:25:39.000Z</time>
      </trkpt>
      <trkpt lat="42.74208" lon="1.45618">
        <ele>1218</ele>
        <time>2026-06-28T09:25:40.000Z</time>
      </trkpt>
      <trkpt lat="42.74204" lon="1.45616">
        <ele>1217</ele>
        <time>2026-06-28T09:25:41.000Z</time>
      </trkpt>
      <trkpt lat="42.742" lon="1.45614">
        <ele>1217</ele>
        <time>2026-06-28T09:25:42.000Z</time>
      </trkpt>
      <trkpt lat="42.74197" lon="1.45612">
        <ele>1217</ele>
        <time>2026-06-28T09:25:43.000Z</time>
      </trkpt>
      <trkpt lat="42.74193" lon="1.4561">
        <ele>1216</ele>
        <time>2026-06-28T09:25:44.000Z</time>
      </trkpt>
      <trkpt lat="42.7419" lon="1.45607">
        <ele>1216</ele>
        <time>2026-06-28T09:25:45.000Z</time>
      </trkpt>
      <trkpt lat="42.74187" lon="1.45604">
        <ele>1216</ele>
        <time>2026-06-28T09:25:46.000Z</time>
      </trkpt>
      <trkpt lat="42.74185" lon="1.45602">
        <ele>1216</ele>
        <time>2026-06-28T09:25:47.000Z</time>
      </trkpt>
      <trkpt lat="42.74183" lon="1.45598">
        <ele>1215</ele>
        <time>2026-06-28T09:25:48.000Z</time>
      </trkpt>
      <trkpt lat="42.74181" lon="1.45594">
        <ele>1215</ele>
        <time>2026-06-28T09:25:49.000Z</time>
      </trkpt>
      <trkpt lat="42.74179" lon="1.45591">
        <ele>1214</ele>
        <time>2026-06-28T09:25:50.000Z</time>
      </trkpt>
      <trkpt lat="42.74177" lon="1.45588">
        <ele>1214</ele>
        <time>2026-06-28T09:25:51.000Z</time>
      </trkpt>
      <trkpt lat="42.74175" lon="1.45585">
        <ele>1214</ele>
        <time>2026-06-28T09:25:52.000Z</time>
      </trkpt>
      <trkpt lat="42.74173" lon="1.45582">
        <ele>1213</ele>
        <time>2026-06-28T09:25:53.000Z</time>
      </trkpt>
      <trkpt lat="42.74171" lon="1.45578">
        <ele>1213</ele>
        <time>2026-06-28T09:25:54.000Z</time>
      </trkpt>
      <trkpt lat="42.74169" lon="1.45576">
        <ele>1213</ele>
        <time>2026-06-28T09:25:55.000Z</time>
      </trkpt>
      <trkpt lat="42.74167" lon="1.45573">
        <ele>1213</ele>
        <time>2026-06-28T09:25:56.000Z</time>
      </trkpt>
      <trkpt lat="42.74165" lon="1.4557">
        <ele>1213</ele>
        <time>2026-06-28T09:25:57.000Z</time>
      </trkpt>
      <trkpt lat="42.74162" lon="1.45568">
        <ele>1213</ele>
        <time>2026-06-28T09:25:58.000Z</time>
      </trkpt>
      <trkpt lat="42.74162" lon="1.45566">
        <ele>1213</ele>
        <time>2026-06-28T09:25:59.000Z</time>
      </trkpt>
      <trkpt lat="42.74161" lon="1.45562">
        <ele>1213</ele>
        <time>2026-06-28T09:26:00.000Z</time>
      </trkpt>
      <trkpt lat="42.74161" lon="1.45559">
        <ele>1213</ele>
        <time>2026-06-28T09:26:01.000Z</time>
      </trkpt>
      <trkpt lat="42.74161" lon="1.45555">
        <ele>1213</ele>
        <time>2026-06-28T09:26:02.000Z</time>
      </trkpt>
      <trkpt lat="42.74161" lon="1.45551">
        <ele>1213</ele>
        <time>2026-06-28T09:26:03.000Z</time>
      </trkpt>
      <trkpt lat="42.74161" lon="1.45547">
        <ele>1213</ele>
        <time>2026-06-28T09:26:04.000Z</time>
      </trkpt>
      <trkpt lat="42.7416" lon="1.45544">
        <ele>1214</ele>
        <time>2026-06-28T09:26:05.000Z</time>
      </trkpt>
      <trkpt lat="42.74161" lon="1.4554">
        <ele>1213</ele>
        <time>2026-06-28T09:26:06.000Z</time>
      </trkpt>
      <trkpt lat="42.74162" lon="1.45536">
        <ele>1214</ele>
        <time>2026-06-28T09:26:07.000Z</time>
      </trkpt>
      <trkpt lat="42.74162" lon="1.45532">
        <ele>1214</ele>
        <time>2026-06-28T09:26:08.000Z</time>
      </trkpt>
      <trkpt lat="42.74163" lon="1.45529">
        <ele>1213</ele>
        <time>2026-06-28T09:26:09.000Z</time>
      </trkpt>
      <trkpt lat="42.74163" lon="1.45526">
        <ele>1213</ele>
        <time>2026-06-28T09:26:10.000Z</time>
      </trkpt>
      <trkpt lat="42.74163" lon="1.45523">
        <ele>1213</ele>
        <time>2026-06-28T09:26:11.000Z</time>
      </trkpt>
      <trkpt lat="42.74163" lon="1.45521">
        <ele>1214</ele>
        <time>2026-06-28T09:26:12.000Z</time>
      </trkpt>
      <trkpt lat="42.74164" lon="1.45517">
        <ele>1213</ele>
        <time>2026-06-28T09:26:13.000Z</time>
      </trkpt>
      <trkpt lat="42.74164" lon="1.45515">
        <ele>1214</ele>
        <time>2026-06-28T09:26:14.000Z</time>
      </trkpt>
      <trkpt lat="42.74163" lon="1.45512">
        <ele>1213</ele>
        <time>2026-06-28T09:26:15.000Z</time>
      </trkpt>
      <trkpt lat="42.74162" lon="1.45507">
        <ele>1213</ele>
        <time>2026-06-28T09:26:16.000Z</time>
      </trkpt>
      <trkpt lat="42.74161" lon="1.45503">
        <ele>1214</ele>
        <time>2026-06-28T09:26:17.000Z</time>
      </trkpt>
      <trkpt lat="42.7416" lon="1.455">
        <ele>1214</ele>
        <time>2026-06-28T09:26:18.000Z</time>
      </trkpt>
      <trkpt lat="42.74159" lon="1.45497">
        <ele>1214</ele>
        <time>2026-06-28T09:26:19.000Z</time>
      </trkpt>
      <trkpt lat="42.74159" lon="1.45495">
        <ele>1214</ele>
        <time>2026-06-28T09:26:20.000Z</time>
      </trkpt>
      <trkpt lat="42.74159" lon="1.45494">
        <ele>1214</ele>
        <time>2026-06-28T09:26:21.000Z</time>
      </trkpt>
      <trkpt lat="42.74158" lon="1.45492">
        <ele>1214</ele>
        <time>2026-06-28T09:26:22.000Z</time>
      </trkpt>
      <trkpt lat="42.74158" lon="1.45488">
        <ele>1214</ele>
        <time>2026-06-28T09:26:23.000Z</time>
      </trkpt>
      <trkpt lat="42.74157" lon="1.45486">
        <ele>1214</ele>
        <time>2026-06-28T09:26:24.000Z</time>
      </trkpt>
      <trkpt lat="42.74156" lon="1.45484">
        <ele>1215</ele>
        <time>2026-06-28T09:26:25.000Z</time>
      </trkpt>
      <trkpt lat="42.74155" lon="1.45482">
        <ele>1214</ele>
        <time>2026-06-28T09:26:26.000Z</time>
      </trkpt>
      <trkpt lat="42.74154" lon="1.4548">
        <ele>1214</ele>
        <time>2026-06-28T09:26:27.000Z</time>
      </trkpt>
      <trkpt lat="42.74153" lon="1.45477">
        <ele>1214</ele>
        <time>2026-06-28T09:26:28.000Z</time>
      </trkpt>
      <trkpt lat="42.74152" lon="1.45475">
        <ele>1214</ele>
        <time>2026-06-28T09:26:29.000Z</time>
      </trkpt>
      <trkpt lat="42.74152" lon="1.45472">
        <ele>1214</ele>
        <time>2026-06-28T09:26:30.000Z</time>
      </trkpt>
      <trkpt lat="42.74152" lon="1.4547">
        <ele>1214</ele>
        <time>2026-06-28T09:26:31.000Z</time>
      </trkpt>
      <trkpt lat="42.74153" lon="1.45466">
        <ele>1215</ele>
        <time>2026-06-28T09:26:32.000Z</time>
      </trkpt>
      <trkpt lat="42.74153" lon="1.45463">
        <ele>1215</ele>
        <time>2026-06-28T09:26:33.000Z</time>
      </trkpt>
      <trkpt lat="42.74154" lon="1.45458">
        <ele>1215</ele>
        <time>2026-06-28T09:26:34.000Z</time>
      </trkpt>
      <trkpt lat="42.74154" lon="1.45455">
        <ele>1216</ele>
        <time>2026-06-28T09:26:35.000Z</time>
      </trkpt>
      <trkpt lat="42.74154" lon="1.45452">
        <ele>1215</ele>
        <time>2026-06-28T09:26:36.000Z</time>
      </trkpt>
      <trkpt lat="42.74155" lon="1.45449">
        <ele>1215</ele>
        <time>2026-06-28T09:26:37.000Z</time>
      </trkpt>
      <trkpt lat="42.74155" lon="1.45447">
        <ele>1215</ele>
        <time>2026-06-28T09:26:38.000Z</time>
      </trkpt>
      <trkpt lat="42.74155" lon="1.45444">
        <ele>1215</ele>
        <time>2026-06-28T09:26:39.000Z</time>
      </trkpt>
      <trkpt lat="42.74155" lon="1.45441">
        <ele>1215</ele>
        <time>2026-06-28T09:26:40.000Z</time>
      </trkpt>
      <trkpt lat="42.74155" lon="1.45439">
        <ele>1215</ele>
        <time>2026-06-28T09:26:41.000Z</time>
      </trkpt>
      <trkpt lat="42.74155" lon="1.45438">
        <ele>1215</ele>
        <time>2026-06-28T09:26:42.000Z</time>
      </trkpt>
      <trkpt lat="42.74154" lon="1.45437">
        <ele>1214</ele>
        <time>2026-06-28T09:26:43.000Z</time>
      </trkpt>
      <trkpt lat="42.74155" lon="1.45436">
        <ele>1213</ele>
        <time>2026-06-28T09:26:44.000Z</time>
      </trkpt>
      <trkpt lat="42.74155" lon="1.45434">
        <ele>1212</ele>
        <time>2026-06-28T09:26:45.000Z</time>
      </trkpt>
      <trkpt lat="42.74155" lon="1.45433">
        <ele>1212</ele>
        <time>2026-06-28T09:26:46.000Z</time>
      </trkpt>
      <trkpt lat="42.74155" lon="1.45433">
        <ele>1212</ele>
        <time>2026-06-28T09:26:47.000Z</time>
      </trkpt>
      <trkpt lat="42.74155" lon="1.45432">
        <ele>1212</ele>
        <time>2026-06-28T09:26:48.000Z</time>
      </trkpt>
      <trkpt lat="42.74155" lon="1.4543">
        <ele>1212</ele>
        <time>2026-06-28T09:26:49.000Z</time>
      </trkpt>
      <trkpt lat="42.74155" lon="1.45429">
        <ele>1211</ele>
        <time>2026-06-28T09:26:50.000Z</time>
      </trkpt>
      <trkpt lat="42.74155" lon="1.45429">
        <ele>1211</ele>
        <time>2026-06-28T09:26:51.000Z</time>
      </trkpt>
      <trkpt lat="42.74155" lon="1.45428">
        <ele>1210</ele>
        <time>2026-06-28T09:26:52.000Z</time>
      </trkpt>
      <trkpt lat="42.74155" lon="1.45426">
        <ele>1210</ele>
        <time>2026-06-28T09:26:53.000Z</time>
      </trkpt>
      <trkpt lat="42.74155" lon="1.45426">
        <ele>1210</ele>
        <time>2026-06-28T09:26:54.000Z</time>
      </trkpt>
      <trkpt lat="42.74155" lon="1.45426">
        <ele>1210</ele>
        <time>2026-06-28T09:26:55.000Z</time>
      </trkpt>
      <trkpt lat="42.74155" lon="1.45425">
        <ele>1210</ele>
        <time>2026-06-28T09:26:56.000Z</time>
      </trkpt>
      <trkpt lat="42.74155" lon="1.45423">
        <ele>1210</ele>
        <time>2026-06-28T09:26:57.000Z</time>
      </trkpt>
      <trkpt lat="42.74155" lon="1.45423">
        <ele>1209</ele>
        <time>2026-06-28T09:26:58.000Z</time>
      </trkpt>
      <trkpt lat="42.74154" lon="1.45422">
        <ele>1209</ele>
        <time>2026-06-28T09:26:59.000Z</time>
      </trkpt>
      <trkpt lat="42.74155" lon="1.45422">
        <ele>1209</ele>
        <time>2026-06-28T09:27:00.000Z</time>
      </trkpt>
      <trkpt lat="42.74154" lon="1.45422">
        <ele>1208</ele>
        <time>2026-06-28T09:27:01.000Z</time>
      </trkpt>
      <trkpt lat="42.74154" lon="1.45421">
        <ele>1208</ele>
        <time>2026-06-28T09:27:02.000Z</time>
      </trkpt>
      <trkpt lat="42.74153" lon="1.4542">
        <ele>1208</ele>
        <time>2026-06-28T09:27:03.000Z</time>
      </trkpt>
      <trkpt lat="42.74153" lon="1.45419">
        <ele>1208</ele>
        <time>2026-06-28T09:27:04.000Z</time>
      </trkpt>
      <trkpt lat="42.74153" lon="1.45419">
        <ele>1208</ele>
        <time>2026-06-28T09:27:05.000Z</time>
      </trkpt>
      <trkpt lat="42.74152" lon="1.45418">
        <ele>1208</ele>
        <time>2026-06-28T09:27:06.000Z</time>
      </trkpt>
      <trkpt lat="42.74153" lon="1.45419">
        <ele>1208</ele>
        <time>2026-06-28T09:27:07.000Z</time>
      </trkpt>
      <trkpt lat="42.74152" lon="1.45418">
        <ele>1208</ele>
        <time>2026-06-28T09:27:08.000Z</time>
      </trkpt>
      <trkpt lat="42.74151" lon="1.45418">
        <ele>1207</ele>
        <time>2026-06-28T09:27:09.000Z</time>
      </trkpt>
      <trkpt lat="42.74151" lon="1.45417">
        <ele>1207</ele>
        <time>2026-06-28T09:27:10.000Z</time>
      </trkpt>
      <trkpt lat="42.74151" lon="1.45417">
        <ele>1207</ele>
        <time>2026-06-28T09:27:11.000Z</time>
      </trkpt>
      <trkpt lat="42.74151" lon="1.45417">
        <ele>1207</ele>
        <time>2026-06-28T09:27:12.000Z</time>
      </trkpt>
      <trkpt lat="42.74151" lon="1.45417">
        <ele>1206</ele>
        <time>2026-06-28T09:27:13.000Z</time>
      </trkpt>
      <trkpt lat="42.74151" lon="1.45417">
        <ele>1206</ele>
        <time>2026-06-28T09:27:14.000Z</time>
      </trkpt>
      <trkpt lat="42.74151" lon="1.45416">
        <ele>1206</ele>
        <time>2026-06-28T09:27:15.000Z</time>
      </trkpt>
      <trkpt lat="42.74151" lon="1.45415">
        <ele>1206</ele>
        <time>2026-06-28T09:27:16.000Z</time>
      </trkpt>
      <trkpt lat="42.74152" lon="1.45414">
        <ele>1207</ele>
        <time>2026-06-28T09:27:17.000Z</time>
      </trkpt>
      <trkpt lat="42.74152" lon="1.45413">
        <ele>1207</ele>
        <time>2026-06-28T09:27:18.000Z</time>
      </trkpt>
      <trkpt lat="42.74152" lon="1.45411">
        <ele>1207</ele>
        <time>2026-06-28T09:27:19.000Z</time>
      </trkpt>
      <trkpt lat="42.74152" lon="1.45409">
        <ele>1207</ele>
        <time>2026-06-28T09:27:20.000Z</time>
      </trkpt>
      <trkpt lat="42.74152" lon="1.45408">
        <ele>1207</ele>
        <time>2026-06-28T09:27:21.000Z</time>
      </trkpt>
      <trkpt lat="42.74151" lon="1.45408">
        <ele>1207</ele>
        <time>2026-06-28T09:27:22.000Z</time>
      </trkpt>
      <trkpt lat="42.74151" lon="1.45407">
        <ele>1207</ele>
        <time>2026-06-28T09:27:23.000Z</time>
      </trkpt>
      <trkpt lat="42.74151" lon="1.45406">
        <ele>1207</ele>
        <time>2026-06-28T09:27:24.000Z</time>
      </trkpt>
      <trkpt lat="42.7415" lon="1.45406">
        <ele>1207</ele>
        <time>2026-06-28T09:27:25.000Z</time>
      </trkpt>
      <trkpt lat="42.74149" lon="1.45406">
        <ele>1206</ele>
        <time>2026-06-28T09:27:26.000Z</time>
      </trkpt>
      <trkpt lat="42.74149" lon="1.45406">
        <ele>1206</ele>
        <time>2026-06-28T09:27:27.000Z</time>
      </trkpt>
      <trkpt lat="42.74149" lon="1.45405">
        <ele>1206</ele>
        <time>2026-06-28T09:27:28.000Z</time>
      </trkpt>
      <trkpt lat="42.74148" lon="1.45404">
        <ele>1206</ele>
        <time>2026-06-28T09:27:29.000Z</time>
      </trkpt>
      <trkpt lat="42.74149" lon="1.45403">
        <ele>1206</ele>
        <time>2026-06-28T09:27:30.000Z</time>
      </trkpt>
      <trkpt lat="42.74148" lon="1.45402">
        <ele>1205</ele>
        <time>2026-06-28T09:27:31.000Z</time>
      </trkpt>
      <trkpt lat="42.74147" lon="1.45402">
        <ele>1205</ele>
        <time>2026-06-28T09:27:32.000Z</time>
      </trkpt>
      <trkpt lat="42.74147" lon="1.45401">
        <ele>1205</ele>
        <time>2026-06-28T09:27:33.000Z</time>
      </trkpt>
      <trkpt lat="42.74147" lon="1.45401">
        <ele>1205</ele>
        <time>2026-06-28T09:27:34.000Z</time>
      </trkpt>
      <trkpt lat="42.74146" lon="1.454">
        <ele>1205</ele>
        <time>2026-06-28T09:27:35.000Z</time>
      </trkpt>
      <trkpt lat="42.74146" lon="1.454">
        <ele>1205</ele>
        <time>2026-06-28T09:27:36.000Z</time>
      </trkpt>
      <trkpt lat="42.74146" lon="1.454">
        <ele>1205</ele>
        <time>2026-06-28T09:27:37.000Z</time>
      </trkpt>
      <trkpt lat="42.74146" lon="1.454">
        <ele>1204</ele>
        <time>2026-06-28T09:27:38.000Z</time>
      </trkpt>
      <trkpt lat="42.74145" lon="1.45399">
        <ele>1204</ele>
        <time>2026-06-28T09:27:39.000Z</time>
      </trkpt>
      <trkpt lat="42.74146" lon="1.45399">
        <ele>1204</ele>
        <time>2026-06-28T09:27:40.000Z</time>
      </trkpt>
      <trkpt lat="42.74145" lon="1.454">
        <ele>1204</ele>
        <time>2026-06-28T09:27:41.000Z</time>
      </trkpt>
      <trkpt lat="42.74145" lon="1.45399">
        <ele>1205</ele>
        <time>2026-06-28T09:27:42.000Z</time>
      </trkpt>
      <trkpt lat="42.74145" lon="1.45399">
        <ele>1205</ele>
        <time>2026-06-28T09:27:43.000Z</time>
      </trkpt>
      <trkpt lat="42.74144" lon="1.45399">
        <ele>1206</ele>
        <time>2026-06-28T09:27:44.000Z</time>
      </trkpt>
      <trkpt lat="42.74143" lon="1.45398">
        <ele>1206</ele>
        <time>2026-06-28T09:27:45.000Z</time>
      </trkpt>
      <trkpt lat="42.74141" lon="1.45399">
        <ele>1206</ele>
        <time>2026-06-28T09:27:46.000Z</time>
      </trkpt>
      <trkpt lat="42.7414" lon="1.45399">
        <ele>1207</ele>
        <time>2026-06-28T09:27:47.000Z</time>
      </trkpt>
      <trkpt lat="42.74138" lon="1.454">
        <ele>1207</ele>
        <time>2026-06-28T09:27:48.000Z</time>
      </trkpt>
      <trkpt lat="42.74137" lon="1.454">
        <ele>1207</ele>
        <time>2026-06-28T09:27:49.000Z</time>
      </trkpt>
      <trkpt lat="42.74135" lon="1.454">
        <ele>1208</ele>
        <time>2026-06-28T09:27:50.000Z</time>
      </trkpt>
      <trkpt lat="42.74132" lon="1.45399">
        <ele>1209</ele>
        <time>2026-06-28T09:27:51.000Z</time>
      </trkpt>
      <trkpt lat="42.74129" lon="1.45398">
        <ele>1210</ele>
        <time>2026-06-28T09:27:52.000Z</time>
      </trkpt>
      <trkpt lat="42.74126" lon="1.45397">
        <ele>1210</ele>
        <time>2026-06-28T09:27:53.000Z</time>
      </trkpt>
      <trkpt lat="42.74123" lon="1.45394">
        <ele>1209</ele>
        <time>2026-06-28T09:27:54.000Z</time>
      </trkpt>
      <trkpt lat="42.74122" lon="1.45392">
        <ele>1210</ele>
        <time>2026-06-28T09:27:55.000Z</time>
      </trkpt>
      <trkpt lat="42.7412" lon="1.45389">
        <ele>1209</ele>
        <time>2026-06-28T09:27:56.000Z</time>
      </trkpt>
      <trkpt lat="42.74119" lon="1.45386">
        <ele>1210</ele>
        <time>2026-06-28T09:27:57.000Z</time>
      </trkpt>
      <trkpt lat="42.74118" lon="1.45383">
        <ele>1210</ele>
        <time>2026-06-28T09:27:58.000Z</time>
      </trkpt>
      <trkpt lat="42.74117" lon="1.45381">
        <ele>1210</ele>
        <time>2026-06-28T09:27:59.000Z</time>
      </trkpt>
      <trkpt lat="42.74116" lon="1.45379">
        <ele>1210</ele>
        <time>2026-06-28T09:28:00.000Z</time>
      </trkpt>
      <trkpt lat="42.74115" lon="1.45376">
        <ele>1210</ele>
        <time>2026-06-28T09:28:01.000Z</time>
      </trkpt>
      <trkpt lat="42.74114" lon="1.45373">
        <ele>1211</ele>
        <time>2026-06-28T09:28:02.000Z</time>
      </trkpt>
      <trkpt lat="42.74113" lon="1.45369">
        <ele>1212</ele>
        <time>2026-06-28T09:28:03.000Z</time>
      </trkpt>
      <trkpt lat="42.74111" lon="1.45365">
        <ele>1212</ele>
        <time>2026-06-28T09:28:04.000Z</time>
      </trkpt>
      <trkpt lat="42.74109" lon="1.45361">
        <ele>1212</ele>
        <time>2026-06-28T09:28:05.000Z</time>
      </trkpt>
      <trkpt lat="42.74107" lon="1.45357">
        <ele>1213</ele>
        <time>2026-06-28T09:28:06.000Z</time>
      </trkpt>
      <trkpt lat="42.74105" lon="1.45355">
        <ele>1212</ele>
        <time>2026-06-28T09:28:07.000Z</time>
      </trkpt>
      <trkpt lat="42.74104" lon="1.45354">
        <ele>1211</ele>
        <time>2026-06-28T09:28:08.000Z</time>
      </trkpt>
      <trkpt lat="42.74103" lon="1.45352">
        <ele>1211</ele>
        <time>2026-06-28T09:28:09.000Z</time>
      </trkpt>
      <trkpt lat="42.74102" lon="1.45351">
        <ele>1211</ele>
        <time>2026-06-28T09:28:10.000Z</time>
      </trkpt>
      <trkpt lat="42.741" lon="1.45351">
        <ele>1212</ele>
        <time>2026-06-28T09:28:11.000Z</time>
      </trkpt>
      <trkpt lat="42.74098" lon="1.45351">
        <ele>1213</ele>
        <time>2026-06-28T09:28:12.000Z</time>
      </trkpt>
      <trkpt lat="42.74097" lon="1.4535">
        <ele>1214</ele>
        <time>2026-06-28T09:28:13.000Z</time>
      </trkpt>
      <trkpt lat="42.74095" lon="1.4535">
        <ele>1215</ele>
        <time>2026-06-28T09:28:14.000Z</time>
      </trkpt>
      <trkpt lat="42.74094" lon="1.45349">
        <ele>1216</ele>
        <time>2026-06-28T09:28:15.000Z</time>
      </trkpt>
      <trkpt lat="42.74093" lon="1.45347">
        <ele>1216</ele>
        <time>2026-06-28T09:28:16.000Z</time>
      </trkpt>
      <trkpt lat="42.74092" lon="1.45345">
        <ele>1216</ele>
        <time>2026-06-28T09:28:17.000Z</time>
      </trkpt>
      <trkpt lat="42.7409" lon="1.45345">
        <ele>1217</ele>
        <time>2026-06-28T09:28:18.000Z</time>
      </trkpt>
      <trkpt lat="42.74088" lon="1.45345">
        <ele>1217</ele>
        <time>2026-06-28T09:28:19.000Z</time>
      </trkpt>
      <trkpt lat="42.74087" lon="1.45346">
        <ele>1218</ele>
        <time>2026-06-28T09:28:20.000Z</time>
      </trkpt>
      <trkpt lat="42.74085" lon="1.45347">
        <ele>1219</ele>
        <time>2026-06-28T09:28:21.000Z</time>
      </trkpt>
      <trkpt lat="42.74083" lon="1.45349">
        <ele>1220</ele>
        <time>2026-06-28T09:28:22.000Z</time>
      </trkpt>
      <trkpt lat="42.74081" lon="1.4535">
        <ele>1220</ele>
        <time>2026-06-28T09:28:23.000Z</time>
      </trkpt>
      <trkpt lat="42.7408" lon="1.45352">
        <ele>1221</ele>
        <time>2026-06-28T09:28:24.000Z</time>
      </trkpt>
      <trkpt lat="42.74078" lon="1.45354">
        <ele>1221</ele>
        <time>2026-06-28T09:28:25.000Z</time>
      </trkpt>
      <trkpt lat="42.74076" lon="1.45356">
        <ele>1220</ele>
        <time>2026-06-28T09:28:26.000Z</time>
      </trkpt>
      <trkpt lat="42.74075" lon="1.45358">
        <ele>1220</ele>
        <time>2026-06-28T09:28:27.000Z</time>
      </trkpt>
      <trkpt lat="42.74074" lon="1.45359">
        <ele>1221</ele>
        <time>2026-06-28T09:28:28.000Z</time>
      </trkpt>
      <trkpt lat="42.74073" lon="1.45361">
        <ele>1222</ele>
        <time>2026-06-28T09:28:29.000Z</time>
      </trkpt>
      <trkpt lat="42.74071" lon="1.45362">
        <ele>1222</ele>
        <time>2026-06-28T09:28:30.000Z</time>
      </trkpt>
      <trkpt lat="42.74071" lon="1.45363">
        <ele>1221</ele>
        <time>2026-06-28T09:28:31.000Z</time>
      </trkpt>
      <trkpt lat="42.7407" lon="1.45364">
        <ele>1221</ele>
        <time>2026-06-28T09:28:32.000Z</time>
      </trkpt>
      <trkpt lat="42.74068" lon="1.45364">
        <ele>1222</ele>
        <time>2026-06-28T09:28:33.000Z</time>
      </trkpt>
      <trkpt lat="42.74067" lon="1.45366">
        <ele>1222</ele>
        <time>2026-06-28T09:28:34.000Z</time>
      </trkpt>
      <trkpt lat="42.74065" lon="1.45366">
        <ele>1221</ele>
        <time>2026-06-28T09:28:35.000Z</time>
      </trkpt>
      <trkpt lat="42.74063" lon="1.45367">
        <ele>1221</ele>
        <time>2026-06-28T09:28:36.000Z</time>
      </trkpt>
      <trkpt lat="42.74062" lon="1.45368">
        <ele>1221</ele>
        <time>2026-06-28T09:28:37.000Z</time>
      </trkpt>
      <trkpt lat="42.74062" lon="1.45369">
        <ele>1220</ele>
        <time>2026-06-28T09:28:38.000Z</time>
      </trkpt>
      <trkpt lat="42.7406" lon="1.45369">
        <ele>1220</ele>
        <time>2026-06-28T09:28:39.000Z</time>
      </trkpt>
      <trkpt lat="42.74059" lon="1.45371">
        <ele>1220</ele>
        <time>2026-06-28T09:28:40.000Z</time>
      </trkpt>
      <trkpt lat="42.74056" lon="1.45372">
        <ele>1220</ele>
        <time>2026-06-28T09:28:41.000Z</time>
      </trkpt>
      <trkpt lat="42.74054" lon="1.45373">
        <ele>1220</ele>
        <time>2026-06-28T09:28:42.000Z</time>
      </trkpt>
      <trkpt lat="42.74052" lon="1.45374">
        <ele>1222</ele>
        <time>2026-06-28T09:28:43.000Z</time>
      </trkpt>
      <trkpt lat="42.74049" lon="1.45374">
        <ele>1222</ele>
        <time>2026-06-28T09:28:44.000Z</time>
      </trkpt>
      <trkpt lat="42.74048" lon="1.45374">
        <ele>1222</ele>
        <time>2026-06-28T09:28:45.000Z</time>
      </trkpt>
      <trkpt lat="42.74046" lon="1.45373">
        <ele>1222</ele>
        <time>2026-06-28T09:28:46.000Z</time>
      </trkpt>
      <trkpt lat="42.74045" lon="1.45372">
        <ele>1222</ele>
        <time>2026-06-28T09:28:47.000Z</time>
      </trkpt>
      <trkpt lat="42.74044" lon="1.45371">
        <ele>1221</ele>
        <time>2026-06-28T09:28:48.000Z</time>
      </trkpt>
      <trkpt lat="42.74041" lon="1.4537">
        <ele>1220</ele>
        <time>2026-06-28T09:28:49.000Z</time>
      </trkpt>
      <trkpt lat="42.74039" lon="1.4537">
        <ele>1219</ele>
        <time>2026-06-28T09:28:50.000Z</time>
      </trkpt>
      <trkpt lat="42.74037" lon="1.4537">
        <ele>1218</ele>
        <time>2026-06-28T09:28:51.000Z</time>
      </trkpt>
      <trkpt lat="42.74034" lon="1.4537">
        <ele>1217</ele>
        <time>2026-06-28T09:28:52.000Z</time>
      </trkpt>
      <trkpt lat="42.74031" lon="1.45369">
        <ele>1217</ele>
        <time>2026-06-28T09:28:53.000Z</time>
      </trkpt>
      <trkpt lat="42.74029" lon="1.45367">
        <ele>1216</ele>
        <time>2026-06-28T09:28:54.000Z</time>
      </trkpt>
      <trkpt lat="42.74026" lon="1.45365">
        <ele>1217</ele>
        <time>2026-06-28T09:28:55.000Z</time>
      </trkpt>
      <trkpt lat="42.74022" lon="1.45364">
        <ele>1216</ele>
        <time>2026-06-28T09:28:56.000Z</time>
      </trkpt>
      <trkpt lat="42.74019" lon="1.45362">
        <ele>1216</ele>
        <time>2026-06-28T09:28:57.000Z</time>
      </trkpt>
      <trkpt lat="42.74015" lon="1.4536">
        <ele>1216</ele>
        <time>2026-06-28T09:28:58.000Z</time>
      </trkpt>
      <trkpt lat="42.74011" lon="1.45358">
        <ele>1216</ele>
        <time>2026-06-28T09:28:59.000Z</time>
      </trkpt>
      <trkpt lat="42.74006" lon="1.45357">
        <ele>1215</ele>
        <time>2026-06-28T09:29:00.000Z</time>
      </trkpt>
      <trkpt lat="42.74002" lon="1.45355">
        <ele>1215</ele>
        <time>2026-06-28T09:29:01.000Z</time>
      </trkpt>
      <trkpt lat="42.73998" lon="1.45353">
        <ele>1214</ele>
        <time>2026-06-28T09:29:02.000Z</time>
      </trkpt>
      <trkpt lat="42.73993" lon="1.45351">
        <ele>1214</ele>
        <time>2026-06-28T09:29:03.000Z</time>
      </trkpt>
      <trkpt lat="42.73984" lon="1.45348">
        <ele>1216</ele>
        <time>2026-06-28T09:29:04.000Z</time>
      </trkpt>
      <trkpt lat="42.73978" lon="1.45344">
        <ele>1215</ele>
        <time>2026-06-28T09:29:05.000Z</time>
      </trkpt>
      <trkpt lat="42.73974" lon="1.45343">
        <ele>1215</ele>
        <time>2026-06-28T09:29:06.000Z</time>
      </trkpt>
      <trkpt lat="42.73969" lon="1.45341">
        <ele>1216</ele>
        <time>2026-06-28T09:29:07.000Z</time>
      </trkpt>
      <trkpt lat="42.73965" lon="1.45339">
        <ele>1217</ele>
        <time>2026-06-28T09:29:08.000Z</time>
      </trkpt>
      <trkpt lat="42.73961" lon="1.45336">
        <ele>1217</ele>
        <time>2026-06-28T09:29:09.000Z</time>
      </trkpt>
      <trkpt lat="42.73957" lon="1.45335">
        <ele>1217</ele>
        <time>2026-06-28T09:29:10.000Z</time>
      </trkpt>
      <trkpt lat="42.73953" lon="1.45334">
        <ele>1217</ele>
        <time>2026-06-28T09:29:11.000Z</time>
      </trkpt>
      <trkpt lat="42.73948" lon="1.45332">
        <ele>1218</ele>
        <time>2026-06-28T09:29:12.000Z</time>
      </trkpt>
      <trkpt lat="42.73945" lon="1.45331">
        <ele>1219</ele>
        <time>2026-06-28T09:29:13.000Z</time>
      </trkpt>
      <trkpt lat="42.73941" lon="1.4533">
        <ele>1219</ele>
        <time>2026-06-28T09:29:14.000Z</time>
      </trkpt>
      <trkpt lat="42.73936" lon="1.45329">
        <ele>1219</ele>
        <time>2026-06-28T09:29:15.000Z</time>
      </trkpt>
      <trkpt lat="42.73932" lon="1.45327">
        <ele>1219</ele>
        <time>2026-06-28T09:29:16.000Z</time>
      </trkpt>
      <trkpt lat="42.73927" lon="1.45325">
        <ele>1218</ele>
        <time>2026-06-28T09:29:17.000Z</time>
      </trkpt>
      <trkpt lat="42.73923" lon="1.45323">
        <ele>1218</ele>
        <time>2026-06-28T09:29:18.000Z</time>
      </trkpt>
      <trkpt lat="42.73919" lon="1.45322">
        <ele>1218</ele>
        <time>2026-06-28T09:29:19.000Z</time>
      </trkpt>
      <trkpt lat="42.73915" lon="1.4532">
        <ele>1218</ele>
        <time>2026-06-28T09:29:20.000Z</time>
      </trkpt>
      <trkpt lat="42.73911" lon="1.45319">
        <ele>1218</ele>
        <time>2026-06-28T09:29:21.000Z</time>
      </trkpt>
      <trkpt lat="42.73908" lon="1.45317">
        <ele>1218</ele>
        <time>2026-06-28T09:29:22.000Z</time>
      </trkpt>
      <trkpt lat="42.73905" lon="1.45315">
        <ele>1218</ele>
        <time>2026-06-28T09:29:23.000Z</time>
      </trkpt>
      <trkpt lat="42.73901" lon="1.45315">
        <ele>1218</ele>
        <time>2026-06-28T09:29:24.000Z</time>
      </trkpt>
      <trkpt lat="42.73898" lon="1.45313">
        <ele>1218</ele>
        <time>2026-06-28T09:29:25.000Z</time>
      </trkpt>
      <trkpt lat="42.73894" lon="1.45312">
        <ele>1218</ele>
        <time>2026-06-28T09:29:26.000Z</time>
      </trkpt>
      <trkpt lat="42.7389" lon="1.4531">
        <ele>1217</ele>
        <time>2026-06-28T09:29:27.000Z</time>
      </trkpt>
      <trkpt lat="42.73886" lon="1.45308">
        <ele>1217</ele>
        <time>2026-06-28T09:29:28.000Z</time>
      </trkpt>
      <trkpt lat="42.73882" lon="1.45306">
        <ele>1217</ele>
        <time>2026-06-28T09:29:29.000Z</time>
      </trkpt>
      <trkpt lat="42.73878" lon="1.45303">
        <ele>1218</ele>
        <time>2026-06-28T09:29:30.000Z</time>
      </trkpt>
      <trkpt lat="42.73873" lon="1.453">
        <ele>1219</ele>
        <time>2026-06-28T09:29:31.000Z</time>
      </trkpt>
      <trkpt lat="42.7387" lon="1.45298">
        <ele>1219</ele>
        <time>2026-06-28T09:29:32.000Z</time>
      </trkpt>
      <trkpt lat="42.73865" lon="1.45295">
        <ele>1219</ele>
        <time>2026-06-28T09:29:33.000Z</time>
      </trkpt>
      <trkpt lat="42.73859" lon="1.45291">
        <ele>1220</ele>
        <time>2026-06-28T09:29:34.000Z</time>
      </trkpt>
      <trkpt lat="42.73854" lon="1.45288">
        <ele>1220</ele>
        <time>2026-06-28T09:29:35.000Z</time>
      </trkpt>
      <trkpt lat="42.73851" lon="1.45285">
        <ele>1220</ele>
        <time>2026-06-28T09:29:36.000Z</time>
      </trkpt>
      <trkpt lat="42.73849" lon="1.45283">
        <ele>1220</ele>
        <time>2026-06-28T09:29:37.000Z</time>
      </trkpt>
      <trkpt lat="42.73846" lon="1.4528">
        <ele>1220</ele>
        <time>2026-06-28T09:29:38.000Z</time>
      </trkpt>
      <trkpt lat="42.73844" lon="1.45276">
        <ele>1220</ele>
        <time>2026-06-28T09:29:39.000Z</time>
      </trkpt>
      <trkpt lat="42.73841" lon="1.45272">
        <ele>1219</ele>
        <time>2026-06-28T09:29:40.000Z</time>
      </trkpt>
      <trkpt lat="42.73838" lon="1.45267">
        <ele>1219</ele>
        <time>2026-06-28T09:29:41.000Z</time>
      </trkpt>
      <trkpt lat="42.73835" lon="1.45263">
        <ele>1218</ele>
        <time>2026-06-28T09:29:42.000Z</time>
      </trkpt>
      <trkpt lat="42.73833" lon="1.4526">
        <ele>1218</ele>
        <time>2026-06-28T09:29:43.000Z</time>
      </trkpt>
      <trkpt lat="42.73832" lon="1.45258">
        <ele>1218</ele>
        <time>2026-06-28T09:29:44.000Z</time>
      </trkpt>
      <trkpt lat="42.73831" lon="1.45255">
        <ele>1218</ele>
        <time>2026-06-28T09:29:45.000Z</time>
      </trkpt>
      <trkpt lat="42.73829" lon="1.45253">
        <ele>1218</ele>
        <time>2026-06-28T09:29:46.000Z</time>
      </trkpt>
      <trkpt lat="42.73827" lon="1.45252">
        <ele>1219</ele>
        <time>2026-06-28T09:29:47.000Z</time>
      </trkpt>
      <trkpt lat="42.73825" lon="1.45249">
        <ele>1219</ele>
        <time>2026-06-28T09:29:48.000Z</time>
      </trkpt>
      <trkpt lat="42.73823" lon="1.45246">
        <ele>1219</ele>
        <time>2026-06-28T09:29:49.000Z</time>
      </trkpt>
      <trkpt lat="42.73821" lon="1.45242">
        <ele>1219</ele>
        <time>2026-06-28T09:29:50.000Z</time>
      </trkpt>
      <trkpt lat="42.73819" lon="1.45239">
        <ele>1219</ele>
        <time>2026-06-28T09:29:51.000Z</time>
      </trkpt>
      <trkpt lat="42.73817" lon="1.45234">
        <ele>1219</ele>
        <time>2026-06-28T09:29:52.000Z</time>
      </trkpt>
      <trkpt lat="42.73814" lon="1.45231">
        <ele>1219</ele>
        <time>2026-06-28T09:29:53.000Z</time>
      </trkpt>
      <trkpt lat="42.73812" lon="1.45226">
        <ele>1219</ele>
        <time>2026-06-28T09:29:54.000Z</time>
      </trkpt>
      <trkpt lat="42.73809" lon="1.45221">
        <ele>1219</ele>
        <time>2026-06-28T09:29:55.000Z</time>
      </trkpt>
      <trkpt lat="42.73807" lon="1.45216">
        <ele>1219</ele>
        <time>2026-06-28T09:29:56.000Z</time>
      </trkpt>
      <trkpt lat="42.73806" lon="1.45211">
        <ele>1219</ele>
        <time>2026-06-28T09:29:57.000Z</time>
      </trkpt>
      <trkpt lat="42.73805" lon="1.45207">
        <ele>1219</ele>
        <time>2026-06-28T09:29:58.000Z</time>
      </trkpt>
      <trkpt lat="42.73805" lon="1.45204">
        <ele>1219</ele>
        <time>2026-06-28T09:29:59.000Z</time>
      </trkpt>
      <trkpt lat="42.73805" lon="1.452">
        <ele>1218</ele>
        <time>2026-06-28T09:30:00.000Z</time>
      </trkpt>
      <trkpt lat="42.73805" lon="1.45195">
        <ele>1218</ele>
        <time>2026-06-28T09:30:01.000Z</time>
      </trkpt>
      <trkpt lat="42.73806" lon="1.45191">
        <ele>1218</ele>
        <time>2026-06-28T09:30:02.000Z</time>
      </trkpt>
      <trkpt lat="42.73807" lon="1.45187">
        <ele>1218</ele>
        <time>2026-06-28T09:30:03.000Z</time>
      </trkpt>
      <trkpt lat="42.73807" lon="1.45183">
        <ele>1217</ele>
        <time>2026-06-28T09:30:04.000Z</time>
      </trkpt>
      <trkpt lat="42.73808" lon="1.4518">
        <ele>1217</ele>
        <time>2026-06-28T09:30:05.000Z</time>
      </trkpt>
      <trkpt lat="42.73809" lon="1.45176">
        <ele>1217</ele>
        <time>2026-06-28T09:30:06.000Z</time>
      </trkpt>
      <trkpt lat="42.7381" lon="1.45173">
        <ele>1216</ele>
        <time>2026-06-28T09:30:07.000Z</time>
      </trkpt>
      <trkpt lat="42.73811" lon="1.45168">
        <ele>1216</ele>
        <time>2026-06-28T09:30:08.000Z</time>
      </trkpt>
      <trkpt lat="42.73811" lon="1.45166">
        <ele>1216</ele>
        <time>2026-06-28T09:30:09.000Z</time>
      </trkpt>
      <trkpt lat="42.73812" lon="1.45165">
        <ele>1216</ele>
        <time>2026-06-28T09:30:10.000Z</time>
      </trkpt>
      <trkpt lat="42.73811" lon="1.45165">
        <ele>1216</ele>
        <time>2026-06-28T09:30:11.000Z</time>
      </trkpt>
      <trkpt lat="42.73811" lon="1.45164">
        <ele>1215</ele>
        <time>2026-06-28T09:30:12.000Z</time>
      </trkpt>
      <trkpt lat="42.73811" lon="1.45162">
        <ele>1215</ele>
        <time>2026-06-28T09:30:13.000Z</time>
      </trkpt>
      <trkpt lat="42.73811" lon="1.4516">
        <ele>1214</ele>
        <time>2026-06-28T09:30:14.000Z</time>
      </trkpt>
      <trkpt lat="42.7381" lon="1.4516">
        <ele>1214</ele>
        <time>2026-06-28T09:30:15.000Z</time>
      </trkpt>
      <trkpt lat="42.7381" lon="1.45159">
        <ele>1213</ele>
        <time>2026-06-28T09:30:16.000Z</time>
      </trkpt>
      <trkpt lat="42.73809" lon="1.45159">
        <ele>1213</ele>
        <time>2026-06-28T09:30:17.000Z</time>
      </trkpt>
      <trkpt lat="42.73808" lon="1.45159">
        <ele>1213</ele>
        <time>2026-06-28T09:30:18.000Z</time>
      </trkpt>
      <trkpt lat="42.73806" lon="1.45158">
        <ele>1213</ele>
        <time>2026-06-28T09:30:19.000Z</time>
      </trkpt>
      <trkpt lat="42.73804" lon="1.45158">
        <ele>1213</ele>
        <time>2026-06-28T09:30:20.000Z</time>
      </trkpt>
      <trkpt lat="42.73801" lon="1.45159">
        <ele>1213</ele>
        <time>2026-06-28T09:30:21.000Z</time>
      </trkpt>
      <trkpt lat="42.738" lon="1.45159">
        <ele>1213</ele>
        <time>2026-06-28T09:30:22.000Z</time>
      </trkpt>
      <trkpt lat="42.73799" lon="1.4516">
        <ele>1213</ele>
        <time>2026-06-28T09:30:23.000Z</time>
      </trkpt>
      <trkpt lat="42.73798" lon="1.45161">
        <ele>1214</ele>
        <time>2026-06-28T09:30:24.000Z</time>
      </trkpt>
      <trkpt lat="42.73798" lon="1.45161">
        <ele>1213</ele>
        <time>2026-06-28T09:30:25.000Z</time>
      </trkpt>
      <trkpt lat="42.73797" lon="1.45163">
        <ele>1214</ele>
        <time>2026-06-28T09:30:26.000Z</time>
      </trkpt>
      <trkpt lat="42.73795" lon="1.45164">
        <ele>1214</ele>
        <time>2026-06-28T09:30:27.000Z</time>
      </trkpt>
      <trkpt lat="42.73792" lon="1.45166">
        <ele>1215</ele>
        <time>2026-06-28T09:30:28.000Z</time>
      </trkpt>
      <trkpt lat="42.73788" lon="1.45168">
        <ele>1215</ele>
        <time>2026-06-28T09:30:29.000Z</time>
      </trkpt>
      <trkpt lat="42.73785" lon="1.4517">
        <ele>1215</ele>
        <time>2026-06-28T09:30:30.000Z</time>
      </trkpt>
      <trkpt lat="42.73783" lon="1.45171">
        <ele>1215</ele>
        <time>2026-06-28T09:30:31.000Z</time>
      </trkpt>
      <trkpt lat="42.73779" lon="1.45172">
        <ele>1215</ele>
        <time>2026-06-28T09:30:32.000Z</time>
      </trkpt>
      <trkpt lat="42.73775" lon="1.45172">
        <ele>1215</ele>
        <time>2026-06-28T09:30:33.000Z</time>
      </trkpt>
      <trkpt lat="42.73771" lon="1.45174">
        <ele>1215</ele>
        <time>2026-06-28T09:30:34.000Z</time>
      </trkpt>
      <trkpt lat="42.73768" lon="1.45175">
        <ele>1215</ele>
        <time>2026-06-28T09:30:35.000Z</time>
      </trkpt>
      <trkpt lat="42.73764" lon="1.45177">
        <ele>1215</ele>
        <time>2026-06-28T09:30:36.000Z</time>
      </trkpt>
      <trkpt lat="42.73762" lon="1.45178">
        <ele>1215</ele>
        <time>2026-06-28T09:30:37.000Z</time>
      </trkpt>
      <trkpt lat="42.73759" lon="1.45178">
        <ele>1215</ele>
        <time>2026-06-28T09:30:38.000Z</time>
      </trkpt>
      <trkpt lat="42.73757" lon="1.45179">
        <ele>1216</ele>
        <time>2026-06-28T09:30:39.000Z</time>
      </trkpt>
      <trkpt lat="42.73754" lon="1.4518">
        <ele>1216</ele>
        <time>2026-06-28T09:30:40.000Z</time>
      </trkpt>
      <trkpt lat="42.73753" lon="1.45181">
        <ele>1216</ele>
        <time>2026-06-28T09:30:41.000Z</time>
      </trkpt>
      <trkpt lat="42.73751" lon="1.45183">
        <ele>1216</ele>
        <time>2026-06-28T09:30:42.000Z</time>
      </trkpt>
      <trkpt lat="42.73749" lon="1.45185">
        <ele>1217</ele>
        <time>2026-06-28T09:30:43.000Z</time>
      </trkpt>
      <trkpt lat="42.73747" lon="1.45186">
        <ele>1217</ele>
        <time>2026-06-28T09:30:44.000Z</time>
      </trkpt>
      <trkpt lat="42.73744" lon="1.45187">
        <ele>1216</ele>
        <time>2026-06-28T09:30:45.000Z</time>
      </trkpt>
      <trkpt lat="42.73742" lon="1.45189">
        <ele>1217</ele>
        <time>2026-06-28T09:30:46.000Z</time>
      </trkpt>
      <trkpt lat="42.7374" lon="1.4519">
        <ele>1217</ele>
        <time>2026-06-28T09:30:47.000Z</time>
      </trkpt>
      <trkpt lat="42.73738" lon="1.45193">
        <ele>1217</ele>
        <time>2026-06-28T09:30:48.000Z</time>
      </trkpt>
      <trkpt lat="42.73735" lon="1.45197">
        <ele>1217</ele>
        <time>2026-06-28T09:30:49.000Z</time>
      </trkpt>
      <trkpt lat="42.73732" lon="1.452">
        <ele>1217</ele>
        <time>2026-06-28T09:30:50.000Z</time>
      </trkpt>
      <trkpt lat="42.73729" lon="1.45201">
        <ele>1217</ele>
        <time>2026-06-28T09:30:51.000Z</time>
      </trkpt>
      <trkpt lat="42.73726" lon="1.45203">
        <ele>1217</ele>
        <time>2026-06-28T09:30:52.000Z</time>
      </trkpt>
      <trkpt lat="42.73723" lon="1.45203">
        <ele>1217</ele>
        <time>2026-06-28T09:30:53.000Z</time>
      </trkpt>
      <trkpt lat="42.73719" lon="1.45204">
        <ele>1218</ele>
        <time>2026-06-28T09:30:54.000Z</time>
      </trkpt>
      <trkpt lat="42.73715" lon="1.45204">
        <ele>1218</ele>
        <time>2026-06-28T09:30:55.000Z</time>
      </trkpt>
      <trkpt lat="42.7371" lon="1.45204">
        <ele>1218</ele>
        <time>2026-06-28T09:30:56.000Z</time>
      </trkpt>
      <trkpt lat="42.73706" lon="1.45202">
        <ele>1217</ele>
        <time>2026-06-28T09:30:57.000Z</time>
      </trkpt>
      <trkpt lat="42.737" lon="1.45201">
        <ele>1217</ele>
        <time>2026-06-28T09:30:58.000Z</time>
      </trkpt>
      <trkpt lat="42.73696" lon="1.45197">
        <ele>1217</ele>
        <time>2026-06-28T09:30:59.000Z</time>
      </trkpt>
      <trkpt lat="42.73691" lon="1.45193">
        <ele>1217</ele>
        <time>2026-06-28T09:31:00.000Z</time>
      </trkpt>
      <trkpt lat="42.73687" lon="1.4519">
        <ele>1216</ele>
        <time>2026-06-28T09:31:01.000Z</time>
      </trkpt>
      <trkpt lat="42.73685" lon="1.45188">
        <ele>1215</ele>
        <time>2026-06-28T09:31:02.000Z</time>
      </trkpt>
      <trkpt lat="42.73683" lon="1.45188">
        <ele>1214</ele>
        <time>2026-06-28T09:31:03.000Z</time>
      </trkpt>
      <trkpt lat="42.73682" lon="1.45189">
        <ele>1213</ele>
        <time>2026-06-28T09:31:04.000Z</time>
      </trkpt>
      <trkpt lat="42.73681" lon="1.45188">
        <ele>1213</ele>
        <time>2026-06-28T09:31:05.000Z</time>
      </trkpt>
      <trkpt lat="42.7368" lon="1.45187">
        <ele>1211</ele>
        <time>2026-06-28T09:31:06.000Z</time>
      </trkpt>
      <trkpt lat="42.7368" lon="1.45187">
        <ele>1211</ele>
        <time>2026-06-28T09:31:07.000Z</time>
      </trkpt>
      <trkpt lat="42.73679" lon="1.45186">
        <ele>1210</ele>
        <time>2026-06-28T09:31:08.000Z</time>
      </trkpt>
      <trkpt lat="42.73679" lon="1.45185">
        <ele>1210</ele>
        <time>2026-06-28T09:31:09.000Z</time>
      </trkpt>
      <trkpt lat="42.73678" lon="1.45185">
        <ele>1210</ele>
        <time>2026-06-28T09:31:10.000Z</time>
      </trkpt>
      <trkpt lat="42.73678" lon="1.45184">
        <ele>1209</ele>
        <time>2026-06-28T09:31:11.000Z</time>
      </trkpt>
      <trkpt lat="42.73677" lon="1.45184">
        <ele>1209</ele>
        <time>2026-06-28T09:31:12.000Z</time>
      </trkpt>
      <trkpt lat="42.73677" lon="1.45183">
        <ele>1209</ele>
        <time>2026-06-28T09:31:13.000Z</time>
      </trkpt>
      <trkpt lat="42.73676" lon="1.45184">
        <ele>1209</ele>
        <time>2026-06-28T09:31:14.000Z</time>
      </trkpt>
      <trkpt lat="42.73675" lon="1.45185">
        <ele>1209</ele>
        <time>2026-06-28T09:31:15.000Z</time>
      </trkpt>
      <trkpt lat="42.73675" lon="1.45186">
        <ele>1209</ele>
        <time>2026-06-28T09:31:16.000Z</time>
      </trkpt>
      <trkpt lat="42.73675" lon="1.45186">
        <ele>1209</ele>
        <time>2026-06-28T09:31:17.000Z</time>
      </trkpt>
      <trkpt lat="42.73674" lon="1.45186">
        <ele>1209</ele>
        <time>2026-06-28T09:31:18.000Z</time>
      </trkpt>
      <trkpt lat="42.73674" lon="1.45186">
        <ele>1209</ele>
        <time>2026-06-28T09:31:19.000Z</time>
      </trkpt>
      <trkpt lat="42.73674" lon="1.45186">
        <ele>1209</ele>
        <time>2026-06-28T09:31:20.000Z</time>
      </trkpt>
      <trkpt lat="42.73673" lon="1.45186">
        <ele>1209</ele>
        <time>2026-06-28T09:31:21.000Z</time>
      </trkpt>
      <trkpt lat="42.73673" lon="1.45185">
        <ele>1209</ele>
        <time>2026-06-28T09:31:22.000Z</time>
      </trkpt>
      <trkpt lat="42.73672" lon="1.45185">
        <ele>1209</ele>
        <time>2026-06-28T09:31:23.000Z</time>
      </trkpt>
      <trkpt lat="42.73672" lon="1.45184">
        <ele>1208</ele>
        <time>2026-06-28T09:31:24.000Z</time>
      </trkpt>
      <trkpt lat="42.73671" lon="1.45184">
        <ele>1208</ele>
        <time>2026-06-28T09:31:25.000Z</time>
      </trkpt>
      <trkpt lat="42.73671" lon="1.45183">
        <ele>1207</ele>
        <time>2026-06-28T09:31:26.000Z</time>
      </trkpt>
      <trkpt lat="42.7367" lon="1.45183">
        <ele>1207</ele>
        <time>2026-06-28T09:31:27.000Z</time>
      </trkpt>
      <trkpt lat="42.7367" lon="1.45183">
        <ele>1207</ele>
        <time>2026-06-28T09:31:28.000Z</time>
      </trkpt>
      <trkpt lat="42.7367" lon="1.45183">
        <ele>1206</ele>
        <time>2026-06-28T09:31:29.000Z</time>
      </trkpt>
      <trkpt lat="42.73668" lon="1.45181">
        <ele>1206</ele>
        <time>2026-06-28T09:31:30.000Z</time>
      </trkpt>
      <trkpt lat="42.73667" lon="1.4518">
        <ele>1206</ele>
        <time>2026-06-28T09:31:31.000Z</time>
      </trkpt>
      <trkpt lat="42.73666" lon="1.4518">
        <ele>1207</ele>
        <time>2026-06-28T09:31:32.000Z</time>
      </trkpt>
      <trkpt lat="42.73665" lon="1.4518">
        <ele>1207</ele>
        <time>2026-06-28T09:31:33.000Z</time>
      </trkpt>
      <trkpt lat="42.73665" lon="1.45182">
        <ele>1208</ele>
        <time>2026-06-28T09:31:34.000Z</time>
      </trkpt>
      <trkpt lat="42.73664" lon="1.45183">
        <ele>1208</ele>
        <time>2026-06-28T09:31:35.000Z</time>
      </trkpt>
      <trkpt lat="42.73665" lon="1.45182">
        <ele>1207</ele>
        <time>2026-06-28T09:31:36.000Z</time>
      </trkpt>
      <trkpt lat="42.73666" lon="1.45181">
        <ele>1207</ele>
        <time>2026-06-28T09:31:37.000Z</time>
      </trkpt>
      <trkpt lat="42.73666" lon="1.45182">
        <ele>1208</ele>
        <time>2026-06-28T09:31:38.000Z</time>
      </trkpt>
      <trkpt lat="42.73667" lon="1.45183">
        <ele>1208</ele>
        <time>2026-06-28T09:31:39.000Z</time>
      </trkpt>
      <trkpt lat="42.73667" lon="1.45183">
        <ele>1208</ele>
        <time>2026-06-28T09:31:40.000Z</time>
      </trkpt>
      <trkpt lat="42.73667" lon="1.45184">
        <ele>1209</ele>
        <time>2026-06-28T09:31:41.000Z</time>
      </trkpt>
      <trkpt lat="42.73667" lon="1.45185">
        <ele>1209</ele>
        <time>2026-06-28T09:31:42.000Z</time>
      </trkpt>
      <trkpt lat="42.73667" lon="1.45186">
        <ele>1210</ele>
        <time>2026-06-28T09:31:43.000Z</time>
      </trkpt>
      <trkpt lat="42.73665" lon="1.45186">
        <ele>1211</ele>
        <time>2026-06-28T09:31:44.000Z</time>
      </trkpt>
      <trkpt lat="42.73663" lon="1.45186">
        <ele>1211</ele>
        <time>2026-06-28T09:31:45.000Z</time>
      </trkpt>
      <trkpt lat="42.73663" lon="1.45187">
        <ele>1210</ele>
        <time>2026-06-28T09:31:46.000Z</time>
      </trkpt>
      <trkpt lat="42.73662" lon="1.45187">
        <ele>1211</ele>
        <time>2026-06-28T09:31:47.000Z</time>
      </trkpt>
      <trkpt lat="42.73664" lon="1.45185">
        <ele>1214</ele>
        <time>2026-06-28T09:32:04.000Z</time>
      </trkpt>
      <trkpt lat="42.73664" lon="1.45185">
        <ele>1216</ele>
        <time>2026-06-28T09:32:05.000Z</time>
      </trkpt>
      <trkpt lat="42.73664" lon="1.45186">
        <ele>1216</ele>
        <time>2026-06-28T09:32:06.000Z</time>
      </trkpt>
      <trkpt lat="42.73663" lon="1.45186">
        <ele>1216</ele>
        <time>2026-06-28T09:32:07.000Z</time>
      </trkpt>
      <trkpt lat="42.73661" lon="1.45187">
        <ele>1216</ele>
        <time>2026-06-28T09:32:08.000Z</time>
      </trkpt>
      <trkpt lat="42.7366" lon="1.45188">
        <ele>1218</ele>
        <time>2026-06-28T09:32:09.000Z</time>
      </trkpt>
      <trkpt lat="42.73658" lon="1.4519">
        <ele>1218</ele>
        <time>2026-06-28T09:32:10.000Z</time>
      </trkpt>
      <trkpt lat="42.73657" lon="1.45191">
        <ele>1219</ele>
        <time>2026-06-28T09:32:11.000Z</time>
      </trkpt>
      <trkpt lat="42.73655" lon="1.45193">
        <ele>1219</ele>
        <time>2026-06-28T09:32:12.000Z</time>
      </trkpt>
      <trkpt lat="42.73654" lon="1.45195">
        <ele>1219</ele>
        <time>2026-06-28T09:32:13.000Z</time>
      </trkpt>
      <trkpt lat="42.73652" lon="1.45197">
        <ele>1220</ele>
        <time>2026-06-28T09:32:14.000Z</time>
      </trkpt>
      <trkpt lat="42.7365" lon="1.45197">
        <ele>1220</ele>
        <time>2026-06-28T09:32:15.000Z</time>
      </trkpt>
      <trkpt lat="42.73648" lon="1.45198">
        <ele>1220</ele>
        <time>2026-06-28T09:32:16.000Z</time>
      </trkpt>
      <trkpt lat="42.73647" lon="1.45198">
        <ele>1220</ele>
        <time>2026-06-28T09:32:17.000Z</time>
      </trkpt>
      <trkpt lat="42.73645" lon="1.452">
        <ele>1220</ele>
        <time>2026-06-28T09:32:18.000Z</time>
      </trkpt>
      <trkpt lat="42.73644" lon="1.452">
        <ele>1221</ele>
        <time>2026-06-28T09:32:19.000Z</time>
      </trkpt>
      <trkpt lat="42.73642" lon="1.45201">
        <ele>1221</ele>
        <time>2026-06-28T09:32:20.000Z</time>
      </trkpt>
      <trkpt lat="42.7364" lon="1.45202">
        <ele>1221</ele>
        <time>2026-06-28T09:32:21.000Z</time>
      </trkpt>
      <trkpt lat="42.73637" lon="1.45204">
        <ele>1221</ele>
        <time>2026-06-28T09:32:22.000Z</time>
      </trkpt>
      <trkpt lat="42.73635" lon="1.45204">
        <ele>1220</ele>
        <time>2026-06-28T09:32:23.000Z</time>
      </trkpt>
      <trkpt lat="42.73633" lon="1.45205">
        <ele>1219</ele>
        <time>2026-06-28T09:32:24.000Z</time>
      </trkpt>
      <trkpt lat="42.73631" lon="1.45206">
        <ele>1219</ele>
        <time>2026-06-28T09:32:25.000Z</time>
      </trkpt>
      <trkpt lat="42.73629" lon="1.45206">
        <ele>1219</ele>
        <time>2026-06-28T09:32:26.000Z</time>
      </trkpt>
      <trkpt lat="42.73627" lon="1.45207">
        <ele>1218</ele>
        <time>2026-06-28T09:32:27.000Z</time>
      </trkpt>
      <trkpt lat="42.73625" lon="1.45208">
        <ele>1218</ele>
        <time>2026-06-28T09:32:28.000Z</time>
      </trkpt>
      <trkpt lat="42.73622" lon="1.45209">
        <ele>1217</ele>
        <time>2026-06-28T09:32:29.000Z</time>
      </trkpt>
      <trkpt lat="42.73619" lon="1.45209">
        <ele>1217</ele>
        <time>2026-06-28T09:32:30.000Z</time>
      </trkpt>
      <trkpt lat="42.73616" lon="1.45209">
        <ele>1217</ele>
        <time>2026-06-28T09:32:31.000Z</time>
      </trkpt>
      <trkpt lat="42.73613" lon="1.4521">
        <ele>1216</ele>
        <time>2026-06-28T09:32:32.000Z</time>
      </trkpt>
      <trkpt lat="42.7361" lon="1.4521">
        <ele>1216</ele>
        <time>2026-06-28T09:32:33.000Z</time>
      </trkpt>
      <trkpt lat="42.73606" lon="1.45211">
        <ele>1215</ele>
        <time>2026-06-28T09:32:34.000Z</time>
      </trkpt>
      <trkpt lat="42.73603" lon="1.45212">
        <ele>1215</ele>
        <time>2026-06-28T09:32:35.000Z</time>
      </trkpt>
      <trkpt lat="42.736" lon="1.45213">
        <ele>1214</ele>
        <time>2026-06-28T09:32:36.000Z</time>
      </trkpt>
      <trkpt lat="42.73597" lon="1.45214">
        <ele>1213</ele>
        <time>2026-06-28T09:32:37.000Z</time>
      </trkpt>
      <trkpt lat="42.73595" lon="1.45215">
        <ele>1213</ele>
        <time>2026-06-28T09:32:38.000Z</time>
      </trkpt>
      <trkpt lat="42.73593" lon="1.45215">
        <ele>1213</ele>
        <time>2026-06-28T09:32:39.000Z</time>
      </trkpt>
      <trkpt lat="42.73591" lon="1.45216">
        <ele>1213</ele>
        <time>2026-06-28T09:32:40.000Z</time>
      </trkpt>
      <trkpt lat="42.73588" lon="1.45216">
        <ele>1212</ele>
        <time>2026-06-28T09:32:41.000Z</time>
      </trkpt>
      <trkpt lat="42.73584" lon="1.45216">
        <ele>1212</ele>
        <time>2026-06-28T09:32:42.000Z</time>
      </trkpt>
      <trkpt lat="42.73581" lon="1.45216">
        <ele>1211</ele>
        <time>2026-06-28T09:32:43.000Z</time>
      </trkpt>
      <trkpt lat="42.73579" lon="1.45215">
        <ele>1211</ele>
        <time>2026-06-28T09:32:44.000Z</time>
      </trkpt>
      <trkpt lat="42.73576" lon="1.45215">
        <ele>1211</ele>
        <time>2026-06-28T09:32:45.000Z</time>
      </trkpt>
      <trkpt lat="42.73573" lon="1.45216">
        <ele>1211</ele>
        <time>2026-06-28T09:32:46.000Z</time>
      </trkpt>
      <trkpt lat="42.73571" lon="1.45216">
        <ele>1210</ele>
        <time>2026-06-28T09:32:47.000Z</time>
      </trkpt>
      <trkpt lat="42.73569" lon="1.45216">
        <ele>1210</ele>
        <time>2026-06-28T09:32:48.000Z</time>
      </trkpt>
      <trkpt lat="42.73569" lon="1.45216">
        <ele>1210</ele>
        <time>2026-06-28T09:32:49.000Z</time>
      </trkpt>
      <trkpt lat="42.73567" lon="1.45216">
        <ele>1210</ele>
        <time>2026-06-28T09:32:50.000Z</time>
      </trkpt>
      <trkpt lat="42.73566" lon="1.45217">
        <ele>1210</ele>
        <time>2026-06-28T09:32:51.000Z</time>
      </trkpt>
      <trkpt lat="42.73564" lon="1.45218">
        <ele>1210</ele>
        <time>2026-06-28T09:32:52.000Z</time>
      </trkpt>
      <trkpt lat="42.73563" lon="1.45219">
        <ele>1210</ele>
        <time>2026-06-28T09:32:53.000Z</time>
      </trkpt>
      <trkpt lat="42.73561" lon="1.4522">
        <ele>1210</ele>
        <time>2026-06-28T09:32:54.000Z</time>
      </trkpt>
      <trkpt lat="42.73559" lon="1.45222">
        <ele>1210</ele>
        <time>2026-06-28T09:32:55.000Z</time>
      </trkpt>
      <trkpt lat="42.73557" lon="1.45223">
        <ele>1210</ele>
        <time>2026-06-28T09:32:56.000Z</time>
      </trkpt>
      <trkpt lat="42.73555" lon="1.45225">
        <ele>1210</ele>
        <time>2026-06-28T09:32:57.000Z</time>
      </trkpt>
      <trkpt lat="42.73552" lon="1.45226">
        <ele>1209</ele>
        <time>2026-06-28T09:32:58.000Z</time>
      </trkpt>
      <trkpt lat="42.73549" lon="1.45227">
        <ele>1209</ele>
        <time>2026-06-28T09:32:59.000Z</time>
      </trkpt>
      <trkpt lat="42.73546" lon="1.45228">
        <ele>1208</ele>
        <time>2026-06-28T09:33:00.000Z</time>
      </trkpt>
      <trkpt lat="42.73542" lon="1.45229">
        <ele>1208</ele>
        <time>2026-06-28T09:33:01.000Z</time>
      </trkpt>
      <trkpt lat="42.73538" lon="1.45229">
        <ele>1207</ele>
        <time>2026-06-28T09:33:02.000Z</time>
      </trkpt>
      <trkpt lat="42.73533" lon="1.45228">
        <ele>1206</ele>
        <time>2026-06-28T09:33:03.000Z</time>
      </trkpt>
      <trkpt lat="42.73528" lon="1.45227">
        <ele>1205</ele>
        <time>2026-06-28T09:33:04.000Z</time>
      </trkpt>
      <trkpt lat="42.73523" lon="1.45226">
        <ele>1204</ele>
        <time>2026-06-28T09:33:05.000Z</time>
      </trkpt>
      <trkpt lat="42.73518" lon="1.45224">
        <ele>1203</ele>
        <time>2026-06-28T09:33:06.000Z</time>
      </trkpt>
      <trkpt lat="42.73513" lon="1.45222">
        <ele>1202</ele>
        <time>2026-06-28T09:33:07.000Z</time>
      </trkpt>
      <trkpt lat="42.73508" lon="1.4522">
        <ele>1202</ele>
        <time>2026-06-28T09:33:08.000Z</time>
      </trkpt>
      <trkpt lat="42.73503" lon="1.45219">
        <ele>1201</ele>
        <time>2026-06-28T09:33:09.000Z</time>
      </trkpt>
      <trkpt lat="42.73497" lon="1.45218">
        <ele>1200</ele>
        <time>2026-06-28T09:33:10.000Z</time>
      </trkpt>
      <trkpt lat="42.73492" lon="1.45216">
        <ele>1200</ele>
        <time>2026-06-28T09:33:11.000Z</time>
      </trkpt>
      <trkpt lat="42.73487" lon="1.45214">
        <ele>1199</ele>
        <time>2026-06-28T09:33:12.000Z</time>
      </trkpt>
      <trkpt lat="42.73479" lon="1.45212">
        <ele>1198</ele>
        <time>2026-06-28T09:33:13.000Z</time>
      </trkpt>
      <trkpt lat="42.73473" lon="1.45212">
        <ele>1197</ele>
        <time>2026-06-28T09:33:14.000Z</time>
      </trkpt>
      <trkpt lat="42.73466" lon="1.45212">
        <ele>1198</ele>
        <time>2026-06-28T09:33:15.000Z</time>
      </trkpt>
      <trkpt lat="42.73459" lon="1.45211">
        <ele>1198</ele>
        <time>2026-06-28T09:33:16.000Z</time>
      </trkpt>
      <trkpt lat="42.73454" lon="1.4521">
        <ele>1199</ele>
        <time>2026-06-28T09:33:17.000Z</time>
      </trkpt>
      <trkpt lat="42.73448" lon="1.4521">
        <ele>1199</ele>
        <time>2026-06-28T09:33:18.000Z</time>
      </trkpt>
      <trkpt lat="42.73441" lon="1.4521">
        <ele>1200</ele>
        <time>2026-06-28T09:33:19.000Z</time>
      </trkpt>
      <trkpt lat="42.73436" lon="1.4521">
        <ele>1200</ele>
        <time>2026-06-28T09:33:20.000Z</time>
      </trkpt>
      <trkpt lat="42.73431" lon="1.45209">
        <ele>1201</ele>
        <time>2026-06-28T09:33:21.000Z</time>
      </trkpt>
      <trkpt lat="42.73427" lon="1.45209">
        <ele>1201</ele>
        <time>2026-06-28T09:33:22.000Z</time>
      </trkpt>
      <trkpt lat="42.73423" lon="1.45208">
        <ele>1202</ele>
        <time>2026-06-28T09:33:23.000Z</time>
      </trkpt>
      <trkpt lat="42.73419" lon="1.45208">
        <ele>1202</ele>
        <time>2026-06-28T09:33:24.000Z</time>
      </trkpt>
      <trkpt lat="42.73416" lon="1.45206">
        <ele>1203</ele>
        <time>2026-06-28T09:33:25.000Z</time>
      </trkpt>
      <trkpt lat="42.73413" lon="1.45205">
        <ele>1204</ele>
        <time>2026-06-28T09:33:26.000Z</time>
      </trkpt>
      <trkpt lat="42.7341" lon="1.45205">
        <ele>1204</ele>
        <time>2026-06-28T09:33:27.000Z</time>
      </trkpt>
      <trkpt lat="42.73407" lon="1.45205">
        <ele>1204</ele>
        <time>2026-06-28T09:33:28.000Z</time>
      </trkpt>
      <trkpt lat="42.73404" lon="1.45206">
        <ele>1204</ele>
        <time>2026-06-28T09:33:29.000Z</time>
      </trkpt>
      <trkpt lat="42.734" lon="1.45205">
        <ele>1205</ele>
        <time>2026-06-28T09:33:30.000Z</time>
      </trkpt>
      <trkpt lat="42.73396" lon="1.45205">
        <ele>1205</ele>
        <time>2026-06-28T09:33:31.000Z</time>
      </trkpt>
      <trkpt lat="42.73392" lon="1.45203">
        <ele>1205</ele>
        <time>2026-06-28T09:33:32.000Z</time>
      </trkpt>
      <trkpt lat="42.73388" lon="1.45202">
        <ele>1205</ele>
        <time>2026-06-28T09:33:33.000Z</time>
      </trkpt>
      <trkpt lat="42.73385" lon="1.452">
        <ele>1206</ele>
        <time>2026-06-28T09:33:34.000Z</time>
      </trkpt>
      <trkpt lat="42.73381" lon="1.45198">
        <ele>1206</ele>
        <time>2026-06-28T09:33:35.000Z</time>
      </trkpt>
      <trkpt lat="42.73378" lon="1.45196">
        <ele>1207</ele>
        <time>2026-06-28T09:33:36.000Z</time>
      </trkpt>
      <trkpt lat="42.73374" lon="1.45194">
        <ele>1207</ele>
        <time>2026-06-28T09:33:37.000Z</time>
      </trkpt>
      <trkpt lat="42.73371" lon="1.45191">
        <ele>1208</ele>
        <time>2026-06-28T09:33:38.000Z</time>
      </trkpt>
      <trkpt lat="42.73368" lon="1.45188">
        <ele>1208</ele>
        <time>2026-06-28T09:33:39.000Z</time>
      </trkpt>
      <trkpt lat="42.73366" lon="1.45185">
        <ele>1208</ele>
        <time>2026-06-28T09:33:40.000Z</time>
      </trkpt>
      <trkpt lat="42.73363" lon="1.45183">
        <ele>1208</ele>
        <time>2026-06-28T09:33:41.000Z</time>
      </trkpt>
      <trkpt lat="42.73362" lon="1.45181">
        <ele>1209</ele>
        <time>2026-06-28T09:33:42.000Z</time>
      </trkpt>
      <trkpt lat="42.7336" lon="1.4518">
        <ele>1209</ele>
        <time>2026-06-28T09:33:43.000Z</time>
      </trkpt>
      <trkpt lat="42.73358" lon="1.45179">
        <ele>1209</ele>
        <time>2026-06-28T09:33:44.000Z</time>
      </trkpt>
      <trkpt lat="42.73356" lon="1.45177">
        <ele>1209</ele>
        <time>2026-06-28T09:33:45.000Z</time>
      </trkpt>
      <trkpt lat="42.73355" lon="1.45175">
        <ele>1210</ele>
        <time>2026-06-28T09:33:46.000Z</time>
      </trkpt>
      <trkpt lat="42.73353" lon="1.45174">
        <ele>1210</ele>
        <time>2026-06-28T09:33:47.000Z</time>
      </trkpt>
      <trkpt lat="42.7335" lon="1.45173">
        <ele>1210</ele>
        <time>2026-06-28T09:33:48.000Z</time>
      </trkpt>
      <trkpt lat="42.73347" lon="1.45172">
        <ele>1210</ele>
        <time>2026-06-28T09:33:49.000Z</time>
      </trkpt>
      <trkpt lat="42.73346" lon="1.45171">
        <ele>1210</ele>
        <time>2026-06-28T09:33:50.000Z</time>
      </trkpt>
      <trkpt lat="42.73344" lon="1.4517">
        <ele>1210</ele>
        <time>2026-06-28T09:33:51.000Z</time>
      </trkpt>
      <trkpt lat="42.73344" lon="1.4517">
        <ele>1210</ele>
        <time>2026-06-28T09:33:52.000Z</time>
      </trkpt>
      <trkpt lat="42.73344" lon="1.45169">
        <ele>1210</ele>
        <time>2026-06-28T09:33:53.000Z</time>
      </trkpt>
      <trkpt lat="42.73344" lon="1.45169">
        <ele>1210</ele>
        <time>2026-06-28T09:33:54.000Z</time>
      </trkpt>
      <trkpt lat="42.73344" lon="1.45169">
        <ele>1211</ele>
        <time>2026-06-28T09:33:55.000Z</time>
      </trkpt>
      <trkpt lat="42.73343" lon="1.4517">
        <ele>1211</ele>
        <time>2026-06-28T09:33:56.000Z</time>
      </trkpt>
      <trkpt lat="42.73344" lon="1.4517">
        <ele>1211</ele>
        <time>2026-06-28T09:33:57.000Z</time>
      </trkpt>
      <trkpt lat="42.73343" lon="1.45171">
        <ele>1211</ele>
        <time>2026-06-28T09:33:58.000Z</time>
      </trkpt>
      <trkpt lat="42.73343" lon="1.45172">
        <ele>1212</ele>
        <time>2026-06-28T09:33:59.000Z</time>
      </trkpt>
      <trkpt lat="42.73342" lon="1.45173">
        <ele>1212</ele>
        <time>2026-06-28T09:34:00.000Z</time>
      </trkpt>
      <trkpt lat="42.73342" lon="1.45173">
        <ele>1212</ele>
        <time>2026-06-28T09:34:01.000Z</time>
      </trkpt>
      <trkpt lat="42.73342" lon="1.45174">
        <ele>1212</ele>
        <time>2026-06-28T09:34:02.000Z</time>
      </trkpt>
      <trkpt lat="42.73341" lon="1.45175">
        <ele>1212</ele>
        <time>2026-06-28T09:34:03.000Z</time>
      </trkpt>
      <trkpt lat="42.7334" lon="1.45176">
        <ele>1213</ele>
        <time>2026-06-28T09:34:04.000Z</time>
      </trkpt>
      <trkpt lat="42.7334" lon="1.45176">
        <ele>1213</ele>
        <time>2026-06-28T09:34:05.000Z</time>
      </trkpt>
      <trkpt lat="42.73339" lon="1.45178">
        <ele>1213</ele>
        <time>2026-06-28T09:34:06.000Z</time>
      </trkpt>
      <trkpt lat="42.73339" lon="1.45178">
        <ele>1213</ele>
        <time>2026-06-28T09:34:07.000Z</time>
      </trkpt>
      <trkpt lat="42.73339" lon="1.45178">
        <ele>1213</ele>
        <time>2026-06-28T09:34:08.000Z</time>
      </trkpt>
      <trkpt lat="42.73339" lon="1.45179">
        <ele>1214</ele>
        <time>2026-06-28T09:34:09.000Z</time>
      </trkpt>
      <trkpt lat="42.7334" lon="1.45179">
        <ele>1213</ele>
        <time>2026-06-28T09:34:10.000Z</time>
      </trkpt>
      <trkpt lat="42.7334" lon="1.45178">
        <ele>1213</ele>
        <time>2026-06-28T09:34:11.000Z</time>
      </trkpt>
      <trkpt lat="42.7334" lon="1.45178">
        <ele>1213</ele>
        <time>2026-06-28T09:34:12.000Z</time>
      </trkpt>
      <trkpt lat="42.7334" lon="1.45179">
        <ele>1213</ele>
        <time>2026-06-28T09:34:13.000Z</time>
      </trkpt>
      <trkpt lat="42.73339" lon="1.4518">
        <ele>1213</ele>
        <time>2026-06-28T09:34:14.000Z</time>
      </trkpt>
      <trkpt lat="42.73338" lon="1.45181">
        <ele>1213</ele>
        <time>2026-06-28T09:34:15.000Z</time>
      </trkpt>
      <trkpt lat="42.73338" lon="1.45181">
        <ele>1214</ele>
        <time>2026-06-28T09:34:16.000Z</time>
      </trkpt>
      <trkpt lat="42.73337" lon="1.45182">
        <ele>1214</ele>
        <time>2026-06-28T09:34:17.000Z</time>
      </trkpt>
      <trkpt lat="42.73338" lon="1.45182">
        <ele>1214</ele>
        <time>2026-06-28T09:34:18.000Z</time>
      </trkpt>
      <trkpt lat="42.73338" lon="1.45182">
        <ele>1214</ele>
        <time>2026-06-28T09:34:19.000Z</time>
      </trkpt>
      <trkpt lat="42.73338" lon="1.45182">
        <ele>1214</ele>
        <time>2026-06-28T09:34:20.000Z</time>
      </trkpt>
      <trkpt lat="42.73337" lon="1.45183">
        <ele>1214</ele>
        <time>2026-06-28T09:34:21.000Z</time>
      </trkpt>
      <trkpt lat="42.73336" lon="1.45183">
        <ele>1214</ele>
        <time>2026-06-28T09:34:22.000Z</time>
      </trkpt>
      <trkpt lat="42.73337" lon="1.45183">
        <ele>1214</ele>
        <time>2026-06-28T09:34:23.000Z</time>
      </trkpt>
      <trkpt lat="42.73338" lon="1.45184">
        <ele>1214</ele>
        <time>2026-06-28T09:34:24.000Z</time>
      </trkpt>
      <trkpt lat="42.73337" lon="1.45185">
        <ele>1214</ele>
        <time>2026-06-28T09:34:25.000Z</time>
      </trkpt>
      <trkpt lat="42.73338" lon="1.45186">
        <ele>1215</ele>
        <time>2026-06-28T09:34:26.000Z</time>
      </trkpt>
      <trkpt lat="42.73338" lon="1.45187">
        <ele>1214</ele>
        <time>2026-06-28T09:34:27.000Z</time>
      </trkpt>
      <trkpt lat="42.73337" lon="1.45187">
        <ele>1215</ele>
        <time>2026-06-28T09:34:28.000Z</time>
      </trkpt>
      <trkpt lat="42.73337" lon="1.45189">
        <ele>1215</ele>
        <time>2026-06-28T09:34:29.000Z</time>
      </trkpt>
      <trkpt lat="42.73337" lon="1.45189">
        <ele>1215</ele>
        <time>2026-06-28T09:34:30.000Z</time>
      </trkpt>
      <trkpt lat="42.73337" lon="1.45187">
        <ele>1215</ele>
        <time>2026-06-28T09:34:31.000Z</time>
      </trkpt>
      <trkpt lat="42.73337" lon="1.45187">
        <ele>1215</ele>
        <time>2026-06-28T09:34:32.000Z</time>
      </trkpt>
      <trkpt lat="42.73337" lon="1.45187">
        <ele>1215</ele>
        <time>2026-06-28T09:34:33.000Z</time>
      </trkpt>
      <trkpt lat="42.73337" lon="1.45185">
        <ele>1215</ele>
        <time>2026-06-28T09:34:34.000Z</time>
      </trkpt>
      <trkpt lat="42.73336" lon="1.45185">
        <ele>1216</ele>
        <time>2026-06-28T09:34:35.000Z</time>
      </trkpt>
      <trkpt lat="42.73337" lon="1.45183">
        <ele>1216</ele>
        <time>2026-06-28T09:34:36.000Z</time>
      </trkpt>
      <trkpt lat="42.73336" lon="1.45183">
        <ele>1216</ele>
        <time>2026-06-28T09:34:37.000Z</time>
      </trkpt>
      <trkpt lat="42.73336" lon="1.45183">
        <ele>1214</ele>
        <time>2026-06-28T09:34:38.000Z</time>
      </trkpt>
      <trkpt lat="42.73335" lon="1.45184">
        <ele>1214</ele>
        <time>2026-06-28T09:34:39.000Z</time>
      </trkpt>
      <trkpt lat="42.73334" lon="1.45184">
        <ele>1213</ele>
        <time>2026-06-28T09:34:40.000Z</time>
      </trkpt>
      <trkpt lat="42.73333" lon="1.45186">
        <ele>1213</ele>
        <time>2026-06-28T09:34:41.000Z</time>
      </trkpt>
      <trkpt lat="42.73332" lon="1.45187">
        <ele>1214</ele>
        <time>2026-06-28T09:34:42.000Z</time>
      </trkpt>
      <trkpt lat="42.7333" lon="1.45188">
        <ele>1214</ele>
        <time>2026-06-28T09:34:43.000Z</time>
      </trkpt>
      <trkpt lat="42.73328" lon="1.4519">
        <ele>1214</ele>
        <time>2026-06-28T09:34:44.000Z</time>
      </trkpt>
      <trkpt lat="42.73327" lon="1.45191">
        <ele>1214</ele>
        <time>2026-06-28T09:34:45.000Z</time>
      </trkpt>
      <trkpt lat="42.73326" lon="1.45192">
        <ele>1215</ele>
        <time>2026-06-28T09:34:46.000Z</time>
      </trkpt>
      <trkpt lat="42.73325" lon="1.45193">
        <ele>1216</ele>
        <time>2026-06-28T09:34:47.000Z</time>
      </trkpt>
      <trkpt lat="42.73325" lon="1.45193">
        <ele>1216</ele>
        <time>2026-06-28T09:34:48.000Z</time>
      </trkpt>
      <trkpt lat="42.73324" lon="1.45194">
        <ele>1216</ele>
        <time>2026-06-28T09:34:49.000Z</time>
      </trkpt>
      <trkpt lat="42.73322" lon="1.45195">
        <ele>1217</ele>
        <time>2026-06-28T09:34:50.000Z</time>
      </trkpt>
      <trkpt lat="42.73321" lon="1.45197">
        <ele>1217</ele>
        <time>2026-06-28T09:34:51.000Z</time>
      </trkpt>
      <trkpt lat="42.7332" lon="1.45199">
        <ele>1218</ele>
        <time>2026-06-28T09:34:52.000Z</time>
      </trkpt>
      <trkpt lat="42.7332" lon="1.45201">
        <ele>1219</ele>
        <time>2026-06-28T09:34:53.000Z</time>
      </trkpt>
      <trkpt lat="42.7332" lon="1.45203">
        <ele>1220</ele>
        <time>2026-06-28T09:34:54.000Z</time>
      </trkpt>
      <trkpt lat="42.73319" lon="1.45204">
        <ele>1220</ele>
        <time>2026-06-28T09:34:55.000Z</time>
      </trkpt>
      <trkpt lat="42.73318" lon="1.45206">
        <ele>1221</ele>
        <time>2026-06-28T09:34:56.000Z</time>
      </trkpt>
      <trkpt lat="42.73318" lon="1.45209">
        <ele>1223</ele>
        <time>2026-06-28T09:34:57.000Z</time>
      </trkpt>
      <trkpt lat="42.73317" lon="1.45211">
        <ele>1224</ele>
        <time>2026-06-28T09:34:58.000Z</time>
      </trkpt>
      <trkpt lat="42.73317" lon="1.45213">
        <ele>1225</ele>
        <time>2026-06-28T09:34:59.000Z</time>
      </trkpt>
      <trkpt lat="42.73317" lon="1.45215">
        <ele>1226</ele>
        <time>2026-06-28T09:35:00.000Z</time>
      </trkpt>
      <trkpt lat="42.73317" lon="1.45217">
        <ele>1227</ele>
        <time>2026-06-28T09:35:01.000Z</time>
      </trkpt>
      <trkpt lat="42.73318" lon="1.4522">
        <ele>1228</ele>
        <time>2026-06-28T09:35:02.000Z</time>
      </trkpt>
      <trkpt lat="42.73319" lon="1.45224">
        <ele>1228</ele>
        <time>2026-06-28T09:35:03.000Z</time>
      </trkpt>
      <trkpt lat="42.73318" lon="1.45229">
        <ele>1228</ele>
        <time>2026-06-28T09:35:04.000Z</time>
      </trkpt>
      <trkpt lat="42.73318" lon="1.45233">
        <ele>1229</ele>
        <time>2026-06-28T09:35:05.000Z</time>
      </trkpt>
      <trkpt lat="42.73319" lon="1.45237">
        <ele>1230</ele>
        <time>2026-06-28T09:35:06.000Z</time>
      </trkpt>
      <trkpt lat="42.73318" lon="1.45241">
        <ele>1230</ele>
        <time>2026-06-28T09:35:07.000Z</time>
      </trkpt>
      <trkpt lat="42.73319" lon="1.45244">
        <ele>1229</ele>
        <time>2026-06-28T09:35:08.000Z</time>
      </trkpt>
      <trkpt lat="42.73319" lon="1.45248">
        <ele>1231</ele>
        <time>2026-06-28T09:35:09.000Z</time>
      </trkpt>
      <trkpt lat="42.7332" lon="1.4525">
        <ele>1231</ele>
        <time>2026-06-28T09:35:10.000Z</time>
      </trkpt>
      <trkpt lat="42.73321" lon="1.45252">
        <ele>1232</ele>
        <time>2026-06-28T09:35:11.000Z</time>
      </trkpt>
      <trkpt lat="42.73321" lon="1.45256">
        <ele>1233</ele>
        <time>2026-06-28T09:35:12.000Z</time>
      </trkpt>
      <trkpt lat="42.7332" lon="1.4526">
        <ele>1234</ele>
        <time>2026-06-28T09:35:13.000Z</time>
      </trkpt>
      <trkpt lat="42.73321" lon="1.45262">
        <ele>1234</ele>
        <time>2026-06-28T09:35:14.000Z</time>
      </trkpt>
      <trkpt lat="42.7332" lon="1.45266">
        <ele>1235</ele>
        <time>2026-06-28T09:35:15.000Z</time>
      </trkpt>
      <trkpt lat="42.73318" lon="1.45269">
        <ele>1235</ele>
        <time>2026-06-28T09:35:16.000Z</time>
      </trkpt>
      <trkpt lat="42.73317" lon="1.45273">
        <ele>1236</ele>
        <time>2026-06-28T09:35:17.000Z</time>
      </trkpt>
      <trkpt lat="42.73315" lon="1.45276">
        <ele>1236</ele>
        <time>2026-06-28T09:35:18.000Z</time>
      </trkpt>
      <trkpt lat="42.73314" lon="1.45279">
        <ele>1236</ele>
        <time>2026-06-28T09:35:19.000Z</time>
      </trkpt>
      <trkpt lat="42.73314" lon="1.45283">
        <ele>1235</ele>
        <time>2026-06-28T09:35:20.000Z</time>
      </trkpt>
      <trkpt lat="42.73312" lon="1.45288">
        <ele>1235</ele>
        <time>2026-06-28T09:35:21.000Z</time>
      </trkpt>
      <trkpt lat="42.7331" lon="1.45294">
        <ele>1235</ele>
        <time>2026-06-28T09:35:22.000Z</time>
      </trkpt>
      <trkpt lat="42.73309" lon="1.45298">
        <ele>1234</ele>
        <time>2026-06-28T09:35:23.000Z</time>
      </trkpt>
      <trkpt lat="42.73308" lon="1.45303">
        <ele>1233</ele>
        <time>2026-06-28T09:35:24.000Z</time>
      </trkpt>
      <trkpt lat="42.73306" lon="1.45307">
        <ele>1233</ele>
        <time>2026-06-28T09:35:25.000Z</time>
      </trkpt>
      <trkpt lat="42.73304" lon="1.45312">
        <ele>1232</ele>
        <time>2026-06-28T09:35:26.000Z</time>
      </trkpt>
      <trkpt lat="42.73302" lon="1.45315">
        <ele>1231</ele>
        <time>2026-06-28T09:35:27.000Z</time>
      </trkpt>
      <trkpt lat="42.73301" lon="1.45319">
        <ele>1229</ele>
        <time>2026-06-28T09:35:28.000Z</time>
      </trkpt>
      <trkpt lat="42.733" lon="1.45322">
        <ele>1228</ele>
        <time>2026-06-28T09:35:29.000Z</time>
      </trkpt>
      <trkpt lat="42.73298" lon="1.45326">
        <ele>1228</ele>
        <time>2026-06-28T09:35:30.000Z</time>
      </trkpt>
      <trkpt lat="42.73296" lon="1.45328">
        <ele>1227</ele>
        <time>2026-06-28T09:35:31.000Z</time>
      </trkpt>
      <trkpt lat="42.73295" lon="1.45331">
        <ele>1225</ele>
        <time>2026-06-28T09:35:32.000Z</time>
      </trkpt>
      <trkpt lat="42.73293" lon="1.45333">
        <ele>1225</ele>
        <time>2026-06-28T09:35:33.000Z</time>
      </trkpt>
      <trkpt lat="42.73292" lon="1.45335">
        <ele>1224</ele>
        <time>2026-06-28T09:35:34.000Z</time>
      </trkpt>
      <trkpt lat="42.7329" lon="1.45337">
        <ele>1224</ele>
        <time>2026-06-28T09:35:35.000Z</time>
      </trkpt>
      <trkpt lat="42.73289" lon="1.4534">
        <ele>1223</ele>
        <time>2026-06-28T09:35:36.000Z</time>
      </trkpt>
      <trkpt lat="42.73288" lon="1.45341">
        <ele>1222</ele>
        <time>2026-06-28T09:35:37.000Z</time>
      </trkpt>
      <trkpt lat="42.73285" lon="1.45343">
        <ele>1221</ele>
        <time>2026-06-28T09:35:38.000Z</time>
      </trkpt>
      <trkpt lat="42.73283" lon="1.45345">
        <ele>1220</ele>
        <time>2026-06-28T09:35:39.000Z</time>
      </trkpt>
      <trkpt lat="42.7328" lon="1.45346">
        <ele>1219</ele>
        <time>2026-06-28T09:35:40.000Z</time>
      </trkpt>
      <trkpt lat="42.73277" lon="1.45346">
        <ele>1218</ele>
        <time>2026-06-28T09:35:41.000Z</time>
      </trkpt>
      <trkpt lat="42.73273" lon="1.45347">
        <ele>1217</ele>
        <time>2026-06-28T09:35:42.000Z</time>
      </trkpt>
      <trkpt lat="42.73271" lon="1.45347">
        <ele>1216</ele>
        <time>2026-06-28T09:35:43.000Z</time>
      </trkpt>
      <trkpt lat="42.73269" lon="1.45348">
        <ele>1215</ele>
        <time>2026-06-28T09:35:44.000Z</time>
      </trkpt>
      <trkpt lat="42.73267" lon="1.45349">
        <ele>1216</ele>
        <time>2026-06-28T09:35:45.000Z</time>
      </trkpt>
      <trkpt lat="42.73265" lon="1.4535">
        <ele>1216</ele>
        <time>2026-06-28T09:35:46.000Z</time>
      </trkpt>
      <trkpt lat="42.73263" lon="1.45351">
        <ele>1216</ele>
        <time>2026-06-28T09:35:47.000Z</time>
      </trkpt>
      <trkpt lat="42.7326" lon="1.45352">
        <ele>1216</ele>
        <time>2026-06-28T09:35:48.000Z</time>
      </trkpt>
      <trkpt lat="42.73256" lon="1.45353">
        <ele>1215</ele>
        <time>2026-06-28T09:35:49.000Z</time>
      </trkpt>
      <trkpt lat="42.73252" lon="1.45353">
        <ele>1216</ele>
        <time>2026-06-28T09:35:50.000Z</time>
      </trkpt>
      <trkpt lat="42.73248" lon="1.45354">
        <ele>1215</ele>
        <time>2026-06-28T09:35:51.000Z</time>
      </trkpt>
      <trkpt lat="42.73244" lon="1.45353">
        <ele>1214</ele>
        <time>2026-06-28T09:35:52.000Z</time>
      </trkpt>
      <trkpt lat="42.73238" lon="1.45351">
        <ele>1213</ele>
        <time>2026-06-28T09:35:53.000Z</time>
      </trkpt>
      <trkpt lat="42.73233" lon="1.45349">
        <ele>1212</ele>
        <time>2026-06-28T09:35:54.000Z</time>
      </trkpt>
      <trkpt lat="42.73229" lon="1.45346">
        <ele>1211</ele>
        <time>2026-06-28T09:35:55.000Z</time>
      </trkpt>
      <trkpt lat="42.73225" lon="1.45343">
        <ele>1210</ele>
        <time>2026-06-28T09:35:56.000Z</time>
      </trkpt>
      <trkpt lat="42.7322" lon="1.4534">
        <ele>1210</ele>
        <time>2026-06-28T09:35:57.000Z</time>
      </trkpt>
      <trkpt lat="42.73216" lon="1.45338">
        <ele>1211</ele>
        <time>2026-06-28T09:35:58.000Z</time>
      </trkpt>
      <trkpt lat="42.73208" lon="1.45335">
        <ele>1214</ele>
        <time>2026-06-28T09:35:59.000Z</time>
      </trkpt>
      <trkpt lat="42.73201" lon="1.45335">
        <ele>1219</ele>
        <time>2026-06-28T09:36:00.000Z</time>
      </trkpt>
      <trkpt lat="42.73196" lon="1.45333">
        <ele>1220</ele>
        <time>2026-06-28T09:36:01.000Z</time>
      </trkpt>
      <trkpt lat="42.73191" lon="1.45331">
        <ele>1221</ele>
        <time>2026-06-28T09:36:02.000Z</time>
      </trkpt>
      <trkpt lat="42.73188" lon="1.45328">
        <ele>1222</ele>
        <time>2026-06-28T09:36:03.000Z</time>
      </trkpt>
      <trkpt lat="42.73184" lon="1.45326">
        <ele>1221</ele>
        <time>2026-06-28T09:36:04.000Z</time>
      </trkpt>
      <trkpt lat="42.7318" lon="1.45323">
        <ele>1222</ele>
        <time>2026-06-28T09:36:05.000Z</time>
      </trkpt>
      <trkpt lat="42.73177" lon="1.45321">
        <ele>1222</ele>
        <time>2026-06-28T09:36:06.000Z</time>
      </trkpt>
      <trkpt lat="42.73174" lon="1.45319">
        <ele>1221</ele>
        <time>2026-06-28T09:36:07.000Z</time>
      </trkpt>
      <trkpt lat="42.73171" lon="1.45318">
        <ele>1221</ele>
        <time>2026-06-28T09:36:08.000Z</time>
      </trkpt>
      <trkpt lat="42.73168" lon="1.45316">
        <ele>1221</ele>
        <time>2026-06-28T09:36:09.000Z</time>
      </trkpt>
      <trkpt lat="42.73166" lon="1.45315">
        <ele>1222</ele>
        <time>2026-06-28T09:36:10.000Z</time>
      </trkpt>
      <trkpt lat="42.73163" lon="1.45314">
        <ele>1222</ele>
        <time>2026-06-28T09:36:11.000Z</time>
      </trkpt>
      <trkpt lat="42.7316" lon="1.45312">
        <ele>1222</ele>
        <time>2026-06-28T09:36:12.000Z</time>
      </trkpt>
      <trkpt lat="42.73156" lon="1.4531">
        <ele>1222</ele>
        <time>2026-06-28T09:36:13.000Z</time>
      </trkpt>
      <trkpt lat="42.73154" lon="1.45307">
        <ele>1222</ele>
        <time>2026-06-28T09:36:14.000Z</time>
      </trkpt>
      <trkpt lat="42.73151" lon="1.45303">
        <ele>1222</ele>
        <time>2026-06-28T09:36:15.000Z</time>
      </trkpt>
      <trkpt lat="42.73148" lon="1.45301">
        <ele>1222</ele>
        <time>2026-06-28T09:36:16.000Z</time>
      </trkpt>
      <trkpt lat="42.73144" lon="1.45299">
        <ele>1222</ele>
        <time>2026-06-28T09:36:17.000Z</time>
      </trkpt>
      <trkpt lat="42.73142" lon="1.45296">
        <ele>1222</ele>
        <time>2026-06-28T09:36:18.000Z</time>
      </trkpt>
      <trkpt lat="42.73139" lon="1.45293">
        <ele>1222</ele>
        <time>2026-06-28T09:36:19.000Z</time>
      </trkpt>
      <trkpt lat="42.73137" lon="1.4529">
        <ele>1222</ele>
        <time>2026-06-28T09:36:20.000Z</time>
      </trkpt>
      <trkpt lat="42.73135" lon="1.45287">
        <ele>1222</ele>
        <time>2026-06-28T09:36:21.000Z</time>
      </trkpt>
      <trkpt lat="42.73133" lon="1.45284">
        <ele>1222</ele>
        <time>2026-06-28T09:36:22.000Z</time>
      </trkpt>
      <trkpt lat="42.73129" lon="1.45282">
        <ele>1222</ele>
        <time>2026-06-28T09:36:23.000Z</time>
      </trkpt>
      <trkpt lat="42.73126" lon="1.4528">
        <ele>1222</ele>
        <time>2026-06-28T09:36:24.000Z</time>
      </trkpt>
      <trkpt lat="42.73123" lon="1.45277">
        <ele>1221</ele>
        <time>2026-06-28T09:36:25.000Z</time>
      </trkpt>
      <trkpt lat="42.7312" lon="1.45275">
        <ele>1221</ele>
        <time>2026-06-28T09:36:26.000Z</time>
      </trkpt>
      <trkpt lat="42.73118" lon="1.45272">
        <ele>1221</ele>
        <time>2026-06-28T09:36:27.000Z</time>
      </trkpt>
      <trkpt lat="42.73115" lon="1.45268">
        <ele>1221</ele>
        <time>2026-06-28T09:36:28.000Z</time>
      </trkpt>
      <trkpt lat="42.73113" lon="1.45264">
        <ele>1222</ele>
        <time>2026-06-28T09:36:29.000Z</time>
      </trkpt>
      <trkpt lat="42.73111" lon="1.45259">
        <ele>1222</ele>
        <time>2026-06-28T09:36:30.000Z</time>
      </trkpt>
      <trkpt lat="42.73108" lon="1.45255">
        <ele>1223</ele>
        <time>2026-06-28T09:36:31.000Z</time>
      </trkpt>
      <trkpt lat="42.73106" lon="1.4525">
        <ele>1223</ele>
        <time>2026-06-28T09:36:32.000Z</time>
      </trkpt>
      <trkpt lat="42.73104" lon="1.45247">
        <ele>1222</ele>
        <time>2026-06-28T09:36:33.000Z</time>
      </trkpt>
      <trkpt lat="42.73102" lon="1.45244">
        <ele>1222</ele>
        <time>2026-06-28T09:36:34.000Z</time>
      </trkpt>
      <trkpt lat="42.731" lon="1.45242">
        <ele>1222</ele>
        <time>2026-06-28T09:36:35.000Z</time>
      </trkpt>
      <trkpt lat="42.73098" lon="1.4524">
        <ele>1222</ele>
        <time>2026-06-28T09:36:36.000Z</time>
      </trkpt>
      <trkpt lat="42.73096" lon="1.45238">
        <ele>1222</ele>
        <time>2026-06-28T09:36:37.000Z</time>
      </trkpt>
      <trkpt lat="42.73093" lon="1.45236">
        <ele>1222</ele>
        <time>2026-06-28T09:36:38.000Z</time>
      </trkpt>
      <trkpt lat="42.73091" lon="1.45234">
        <ele>1222</ele>
        <time>2026-06-28T09:36:39.000Z</time>
      </trkpt>
      <trkpt lat="42.73088" lon="1.45232">
        <ele>1221</ele>
        <time>2026-06-28T09:36:40.000Z</time>
      </trkpt>
      <trkpt lat="42.73086" lon="1.45229">
        <ele>1222</ele>
        <time>2026-06-28T09:36:41.000Z</time>
      </trkpt>
      <trkpt lat="42.73084" lon="1.45226">
        <ele>1222</ele>
        <time>2026-06-28T09:36:42.000Z</time>
      </trkpt>
      <trkpt lat="42.73081" lon="1.45224">
        <ele>1222</ele>
        <time>2026-06-28T09:36:43.000Z</time>
      </trkpt>
      <trkpt lat="42.73079" lon="1.45221">
        <ele>1221</ele>
        <time>2026-06-28T09:36:44.000Z</time>
      </trkpt>
      <trkpt lat="42.73077" lon="1.45218">
        <ele>1221</ele>
        <time>2026-06-28T09:36:45.000Z</time>
      </trkpt>
      <trkpt lat="42.73074" lon="1.45216">
        <ele>1221</ele>
        <time>2026-06-28T09:36:46.000Z</time>
      </trkpt>
      <trkpt lat="42.73071" lon="1.45214">
        <ele>1221</ele>
        <time>2026-06-28T09:36:47.000Z</time>
      </trkpt>
      <trkpt lat="42.73068" lon="1.45212">
        <ele>1220</ele>
        <time>2026-06-28T09:36:48.000Z</time>
      </trkpt>
      <trkpt lat="42.73065" lon="1.4521">
        <ele>1220</ele>
        <time>2026-06-28T09:36:49.000Z</time>
      </trkpt>
      <trkpt lat="42.73062" lon="1.45208">
        <ele>1220</ele>
        <time>2026-06-28T09:36:50.000Z</time>
      </trkpt>
      <trkpt lat="42.73059" lon="1.45206">
        <ele>1220</ele>
        <time>2026-06-28T09:36:51.000Z</time>
      </trkpt>
      <trkpt lat="42.73057" lon="1.45204">
        <ele>1221</ele>
        <time>2026-06-28T09:36:52.000Z</time>
      </trkpt>
      <trkpt lat="42.73055" lon="1.45201">
        <ele>1221</ele>
        <time>2026-06-28T09:36:53.000Z</time>
      </trkpt>
      <trkpt lat="42.73052" lon="1.45198">
        <ele>1221</ele>
        <time>2026-06-28T09:36:54.000Z</time>
      </trkpt>
      <trkpt lat="42.73049" lon="1.45194">
        <ele>1221</ele>
        <time>2026-06-28T09:36:55.000Z</time>
      </trkpt>
      <trkpt lat="42.73045" lon="1.45191">
        <ele>1221</ele>
        <time>2026-06-28T09:36:56.000Z</time>
      </trkpt>
      <trkpt lat="42.73042" lon="1.45188">
        <ele>1221</ele>
        <time>2026-06-28T09:36:57.000Z</time>
      </trkpt>
      <trkpt lat="42.73039" lon="1.45184">
        <ele>1221</ele>
        <time>2026-06-28T09:36:58.000Z</time>
      </trkpt>
      <trkpt lat="42.73037" lon="1.45181">
        <ele>1220</ele>
        <time>2026-06-28T09:36:59.000Z</time>
      </trkpt>
      <trkpt lat="42.73034" lon="1.45178">
        <ele>1220</ele>
        <time>2026-06-28T09:37:00.000Z</time>
      </trkpt>
      <trkpt lat="42.73032" lon="1.45175">
        <ele>1221</ele>
        <time>2026-06-28T09:37:01.000Z</time>
      </trkpt>
      <trkpt lat="42.73029" lon="1.45172">
        <ele>1221</ele>
        <time>2026-06-28T09:37:02.000Z</time>
      </trkpt>
      <trkpt lat="42.73027" lon="1.45169">
        <ele>1221</ele>
        <time>2026-06-28T09:37:03.000Z</time>
      </trkpt>
      <trkpt lat="42.73024" lon="1.45166">
        <ele>1221</ele>
        <time>2026-06-28T09:37:04.000Z</time>
      </trkpt>
      <trkpt lat="42.73021" lon="1.45163">
        <ele>1221</ele>
        <time>2026-06-28T09:37:05.000Z</time>
      </trkpt>
      <trkpt lat="42.73018" lon="1.4516">
        <ele>1221</ele>
        <time>2026-06-28T09:37:06.000Z</time>
      </trkpt>
      <trkpt lat="42.73016" lon="1.45157">
        <ele>1222</ele>
        <time>2026-06-28T09:37:07.000Z</time>
      </trkpt>
      <trkpt lat="42.73012" lon="1.45154">
        <ele>1222</ele>
        <time>2026-06-28T09:37:08.000Z</time>
      </trkpt>
      <trkpt lat="42.7301" lon="1.4515">
        <ele>1223</ele>
        <time>2026-06-28T09:37:09.000Z</time>
      </trkpt>
      <trkpt lat="42.73006" lon="1.45148">
        <ele>1224</ele>
        <time>2026-06-28T09:37:10.000Z</time>
      </trkpt>
      <trkpt lat="42.73002" lon="1.45146">
        <ele>1224</ele>
        <time>2026-06-28T09:37:11.000Z</time>
      </trkpt>
      <trkpt lat="42.72998" lon="1.45143">
        <ele>1226</ele>
        <time>2026-06-28T09:37:12.000Z</time>
      </trkpt>
      <trkpt lat="42.72995" lon="1.4514">
        <ele>1227</ele>
        <time>2026-06-28T09:37:13.000Z</time>
      </trkpt>
      <trkpt lat="42.72992" lon="1.45136">
        <ele>1229</ele>
        <time>2026-06-28T09:37:14.000Z</time>
      </trkpt>
      <trkpt lat="42.72989" lon="1.45133">
        <ele>1230</ele>
        <time>2026-06-28T09:37:15.000Z</time>
      </trkpt>
      <trkpt lat="42.72985" lon="1.45131">
        <ele>1231</ele>
        <time>2026-06-28T09:37:16.000Z</time>
      </trkpt>
      <trkpt lat="42.72982" lon="1.45126">
        <ele>1231</ele>
        <time>2026-06-28T09:37:17.000Z</time>
      </trkpt>
      <trkpt lat="42.72979" lon="1.45123">
        <ele>1232</ele>
        <time>2026-06-28T09:37:18.000Z</time>
      </trkpt>
      <trkpt lat="42.72976" lon="1.45119">
        <ele>1232</ele>
        <time>2026-06-28T09:37:19.000Z</time>
      </trkpt>
      <trkpt lat="42.72973" lon="1.45116">
        <ele>1233</ele>
        <time>2026-06-28T09:37:20.000Z</time>
      </trkpt>
      <trkpt lat="42.7297" lon="1.45114">
        <ele>1235</ele>
        <time>2026-06-28T09:37:21.000Z</time>
      </trkpt>
      <trkpt lat="42.72967" lon="1.45111">
        <ele>1235</ele>
        <time>2026-06-28T09:37:22.000Z</time>
      </trkpt>
      <trkpt lat="42.72964" lon="1.45109">
        <ele>1236</ele>
        <time>2026-06-28T09:37:23.000Z</time>
      </trkpt>
      <trkpt lat="42.72962" lon="1.45107">
        <ele>1235</ele>
        <time>2026-06-28T09:37:24.000Z</time>
      </trkpt>
      <trkpt lat="42.72959" lon="1.45105">
        <ele>1235</ele>
        <time>2026-06-28T09:37:25.000Z</time>
      </trkpt>
      <trkpt lat="42.72957" lon="1.45103">
        <ele>1236</ele>
        <time>2026-06-28T09:37:26.000Z</time>
      </trkpt>
      <trkpt lat="42.72954" lon="1.45102">
        <ele>1237</ele>
        <time>2026-06-28T09:37:27.000Z</time>
      </trkpt>
      <trkpt lat="42.72952" lon="1.451">
        <ele>1238</ele>
        <time>2026-06-28T09:37:28.000Z</time>
      </trkpt>
      <trkpt lat="42.72949" lon="1.45098">
        <ele>1239</ele>
        <time>2026-06-28T09:37:29.000Z</time>
      </trkpt>
      <trkpt lat="42.72946" lon="1.45096">
        <ele>1239</ele>
        <time>2026-06-28T09:37:30.000Z</time>
      </trkpt>
      <trkpt lat="42.72945" lon="1.45095">
        <ele>1239</ele>
        <time>2026-06-28T09:37:31.000Z</time>
      </trkpt>
      <trkpt lat="42.72944" lon="1.45093">
        <ele>1240</ele>
        <time>2026-06-28T09:37:32.000Z</time>
      </trkpt>
      <trkpt lat="42.72942" lon="1.45093">
        <ele>1239</ele>
        <time>2026-06-28T09:37:33.000Z</time>
      </trkpt>
      <trkpt lat="42.72941" lon="1.45093">
        <ele>1239</ele>
        <time>2026-06-28T09:37:34.000Z</time>
      </trkpt>
      <trkpt lat="42.72939" lon="1.45092">
        <ele>1239</ele>
        <time>2026-06-28T09:37:35.000Z</time>
      </trkpt>
      <trkpt lat="42.72936" lon="1.4509">
        <ele>1238</ele>
        <time>2026-06-28T09:37:36.000Z</time>
      </trkpt>
      <trkpt lat="42.72933" lon="1.45089">
        <ele>1239</ele>
        <time>2026-06-28T09:37:37.000Z</time>
      </trkpt>
      <trkpt lat="42.72932" lon="1.45086">
        <ele>1239</ele>
        <time>2026-06-28T09:37:38.000Z</time>
      </trkpt>
      <trkpt lat="42.7293" lon="1.45085">
        <ele>1239</ele>
        <time>2026-06-28T09:37:39.000Z</time>
      </trkpt>
      <trkpt lat="42.72928" lon="1.45085">
        <ele>1241</ele>
        <time>2026-06-28T09:37:40.000Z</time>
      </trkpt>
      <trkpt lat="42.72925" lon="1.45083">
        <ele>1242</ele>
        <time>2026-06-28T09:37:41.000Z</time>
      </trkpt>
      <trkpt lat="42.72922" lon="1.45082">
        <ele>1243</ele>
        <time>2026-06-28T09:37:42.000Z</time>
      </trkpt>
      <trkpt lat="42.7292" lon="1.45079">
        <ele>1243</ele>
        <time>2026-06-28T09:37:43.000Z</time>
      </trkpt>
      <trkpt lat="42.72919" lon="1.45077">
        <ele>1244</ele>
        <time>2026-06-28T09:37:44.000Z</time>
      </trkpt>
      <trkpt lat="42.72918" lon="1.45075">
        <ele>1245</ele>
        <time>2026-06-28T09:37:45.000Z</time>
      </trkpt>
      <trkpt lat="42.72915" lon="1.45075">
        <ele>1246</ele>
        <time>2026-06-28T09:37:46.000Z</time>
      </trkpt>
      <trkpt lat="42.72912" lon="1.45074">
        <ele>1247</ele>
        <time>2026-06-28T09:37:47.000Z</time>
      </trkpt>
      <trkpt lat="42.72909" lon="1.45072">
        <ele>1246</ele>
        <time>2026-06-28T09:37:48.000Z</time>
      </trkpt>
      <trkpt lat="42.72905" lon="1.45071">
        <ele>1245</ele>
        <time>2026-06-28T09:37:49.000Z</time>
      </trkpt>
      <trkpt lat="42.72901" lon="1.45069">
        <ele>1244</ele>
        <time>2026-06-28T09:37:50.000Z</time>
      </trkpt>
      <trkpt lat="42.72897" lon="1.45066">
        <ele>1243</ele>
        <time>2026-06-28T09:37:51.000Z</time>
      </trkpt>
      <trkpt lat="42.72894" lon="1.45064">
        <ele>1242</ele>
        <time>2026-06-28T09:37:52.000Z</time>
      </trkpt>
      <trkpt lat="42.7289" lon="1.45061">
        <ele>1241</ele>
        <time>2026-06-28T09:37:53.000Z</time>
      </trkpt>
      <trkpt lat="42.72887" lon="1.45059">
        <ele>1241</ele>
        <time>2026-06-28T09:37:54.000Z</time>
      </trkpt>
      <trkpt lat="42.72883" lon="1.45056">
        <ele>1240</ele>
        <time>2026-06-28T09:37:55.000Z</time>
      </trkpt>
      <trkpt lat="42.7288" lon="1.45053">
        <ele>1241</ele>
        <time>2026-06-28T09:37:56.000Z</time>
      </trkpt>
      <trkpt lat="42.72877" lon="1.4505">
        <ele>1240</ele>
        <time>2026-06-28T09:37:57.000Z</time>
      </trkpt>
      <trkpt lat="42.72873" lon="1.45048">
        <ele>1241</ele>
        <time>2026-06-28T09:37:58.000Z</time>
      </trkpt>
      <trkpt lat="42.72869" lon="1.45045">
        <ele>1241</ele>
        <time>2026-06-28T09:37:59.000Z</time>
      </trkpt>
      <trkpt lat="42.72865" lon="1.45043">
        <ele>1242</ele>
        <time>2026-06-28T09:38:00.000Z</time>
      </trkpt>
      <trkpt lat="42.72861" lon="1.4504">
        <ele>1241</ele>
        <time>2026-06-28T09:38:01.000Z</time>
      </trkpt>
      <trkpt lat="42.72858" lon="1.45037">
        <ele>1240</ele>
        <time>2026-06-28T09:38:02.000Z</time>
      </trkpt>
      <trkpt lat="42.72854" lon="1.45034">
        <ele>1240</ele>
        <time>2026-06-28T09:38:03.000Z</time>
      </trkpt>
      <trkpt lat="42.7285" lon="1.45031">
        <ele>1240</ele>
        <time>2026-06-28T09:38:04.000Z</time>
      </trkpt>
      <trkpt lat="42.72846" lon="1.45028">
        <ele>1240</ele>
        <time>2026-06-28T09:38:05.000Z</time>
      </trkpt>
      <trkpt lat="42.72842" lon="1.45024">
        <ele>1240</ele>
        <time>2026-06-28T09:38:06.000Z</time>
      </trkpt>
      <trkpt lat="42.7284" lon="1.4502">
        <ele>1239</ele>
        <time>2026-06-28T09:38:07.000Z</time>
      </trkpt>
      <trkpt lat="42.72838" lon="1.45017">
        <ele>1238</ele>
        <time>2026-06-28T09:38:08.000Z</time>
      </trkpt>
      <trkpt lat="42.72836" lon="1.45013">
        <ele>1237</ele>
        <time>2026-06-28T09:38:09.000Z</time>
      </trkpt>
      <trkpt lat="42.72835" lon="1.45008">
        <ele>1235</ele>
        <time>2026-06-28T09:38:10.000Z</time>
      </trkpt>
      <trkpt lat="42.72833" lon="1.45004">
        <ele>1234</ele>
        <time>2026-06-28T09:38:11.000Z</time>
      </trkpt>
      <trkpt lat="42.72831" lon="1.45001">
        <ele>1233</ele>
        <time>2026-06-28T09:38:12.000Z</time>
      </trkpt>
      <trkpt lat="42.72829" lon="1.44997">
        <ele>1231</ele>
        <time>2026-06-28T09:38:13.000Z</time>
      </trkpt>
      <trkpt lat="42.72827" lon="1.44993">
        <ele>1230</ele>
        <time>2026-06-28T09:38:14.000Z</time>
      </trkpt>
      <trkpt lat="42.72825" lon="1.44988">
        <ele>1230</ele>
        <time>2026-06-28T09:38:15.000Z</time>
      </trkpt>
      <trkpt lat="42.72822" lon="1.44983">
        <ele>1230</ele>
        <time>2026-06-28T09:38:16.000Z</time>
      </trkpt>
      <trkpt lat="42.72821" lon="1.44978">
        <ele>1229</ele>
        <time>2026-06-28T09:38:17.000Z</time>
      </trkpt>
      <trkpt lat="42.72819" lon="1.44971">
        <ele>1228</ele>
        <time>2026-06-28T09:38:18.000Z</time>
      </trkpt>
      <trkpt lat="42.72817" lon="1.44965">
        <ele>1227</ele>
        <time>2026-06-28T09:38:19.000Z</time>
      </trkpt>
      <trkpt lat="42.72815" lon="1.44959">
        <ele>1226</ele>
        <time>2026-06-28T09:38:20.000Z</time>
      </trkpt>
      <trkpt lat="42.72814" lon="1.44952">
        <ele>1225</ele>
        <time>2026-06-28T09:38:21.000Z</time>
      </trkpt>
      <trkpt lat="42.72813" lon="1.44944">
        <ele>1225</ele>
        <time>2026-06-28T09:38:22.000Z</time>
      </trkpt>
      <trkpt lat="42.72808" lon="1.44933">
        <ele>1227</ele>
        <time>2026-06-28T09:38:23.000Z</time>
      </trkpt>
      <trkpt lat="42.72806" lon="1.44925">
        <ele>1227</ele>
        <time>2026-06-28T09:38:24.000Z</time>
      </trkpt>
      <trkpt lat="42.72803" lon="1.44917">
        <ele>1228</ele>
        <time>2026-06-28T09:38:25.000Z</time>
      </trkpt>
      <trkpt lat="42.72802" lon="1.4491">
        <ele>1228</ele>
        <time>2026-06-28T09:38:26.000Z</time>
      </trkpt>
      <trkpt lat="42.728" lon="1.44903">
        <ele>1228</ele>
        <time>2026-06-28T09:38:27.000Z</time>
      </trkpt>
      <trkpt lat="42.72799" lon="1.44898">
        <ele>1227</ele>
        <time>2026-06-28T09:38:28.000Z</time>
      </trkpt>
      <trkpt lat="42.72798" lon="1.44892">
        <ele>1227</ele>
        <time>2026-06-28T09:38:29.000Z</time>
      </trkpt>
      <trkpt lat="42.72797" lon="1.44887">
        <ele>1227</ele>
        <time>2026-06-28T09:38:30.000Z</time>
      </trkpt>
      <trkpt lat="42.72796" lon="1.44881">
        <ele>1227</ele>
        <time>2026-06-28T09:38:31.000Z</time>
      </trkpt>
      <trkpt lat="42.72796" lon="1.44877">
        <ele>1227</ele>
        <time>2026-06-28T09:38:32.000Z</time>
      </trkpt>
      <trkpt lat="42.72794" lon="1.44872">
        <ele>1227</ele>
        <time>2026-06-28T09:38:33.000Z</time>
      </trkpt>
      <trkpt lat="42.72793" lon="1.44867">
        <ele>1226</ele>
        <time>2026-06-28T09:38:34.000Z</time>
      </trkpt>
      <trkpt lat="42.72792" lon="1.44863">
        <ele>1226</ele>
        <time>2026-06-28T09:38:35.000Z</time>
      </trkpt>
      <trkpt lat="42.7279" lon="1.44859">
        <ele>1225</ele>
        <time>2026-06-28T09:38:36.000Z</time>
      </trkpt>
      <trkpt lat="42.72789" lon="1.44854">
        <ele>1225</ele>
        <time>2026-06-28T09:38:37.000Z</time>
      </trkpt>
      <trkpt lat="42.72788" lon="1.44851">
        <ele>1225</ele>
        <time>2026-06-28T09:38:38.000Z</time>
      </trkpt>
      <trkpt lat="42.72786" lon="1.44848">
        <ele>1225</ele>
        <time>2026-06-28T09:38:39.000Z</time>
      </trkpt>
      <trkpt lat="42.72785" lon="1.44844">
        <ele>1224</ele>
        <time>2026-06-28T09:38:40.000Z</time>
      </trkpt>
      <trkpt lat="42.72783" lon="1.4484">
        <ele>1224</ele>
        <time>2026-06-28T09:38:41.000Z</time>
      </trkpt>
      <trkpt lat="42.72782" lon="1.44836">
        <ele>1224</ele>
        <time>2026-06-28T09:38:42.000Z</time>
      </trkpt>
      <trkpt lat="42.72781" lon="1.44832">
        <ele>1225</ele>
        <time>2026-06-28T09:38:43.000Z</time>
      </trkpt>
      <trkpt lat="42.72779" lon="1.44828">
        <ele>1225</ele>
        <time>2026-06-28T09:38:44.000Z</time>
      </trkpt>
      <trkpt lat="42.72779" lon="1.44823">
        <ele>1225</ele>
        <time>2026-06-28T09:38:45.000Z</time>
      </trkpt>
      <trkpt lat="42.72778" lon="1.44818">
        <ele>1224</ele>
        <time>2026-06-28T09:38:46.000Z</time>
      </trkpt>
      <trkpt lat="42.72778" lon="1.44812">
        <ele>1224</ele>
        <time>2026-06-28T09:38:47.000Z</time>
      </trkpt>
      <trkpt lat="42.72778" lon="1.44806">
        <ele>1224</ele>
        <time>2026-06-28T09:38:48.000Z</time>
      </trkpt>
      <trkpt lat="42.72778" lon="1.448">
        <ele>1223</ele>
        <time>2026-06-28T09:38:49.000Z</time>
      </trkpt>
      <trkpt lat="42.72779" lon="1.44794">
        <ele>1223</ele>
        <time>2026-06-28T09:38:50.000Z</time>
      </trkpt>
      <trkpt lat="42.72779" lon="1.44788">
        <ele>1223</ele>
        <time>2026-06-28T09:38:51.000Z</time>
      </trkpt>
      <trkpt lat="42.72779" lon="1.44783">
        <ele>1223</ele>
        <time>2026-06-28T09:38:52.000Z</time>
      </trkpt>
      <trkpt lat="42.72779" lon="1.44777">
        <ele>1222</ele>
        <time>2026-06-28T09:38:53.000Z</time>
      </trkpt>
      <trkpt lat="42.7278" lon="1.44771">
        <ele>1222</ele>
        <time>2026-06-28T09:38:54.000Z</time>
      </trkpt>
      <trkpt lat="42.7278" lon="1.44765">
        <ele>1222</ele>
        <time>2026-06-28T09:38:55.000Z</time>
      </trkpt>
      <trkpt lat="42.72781" lon="1.4476">
        <ele>1222</ele>
        <time>2026-06-28T09:38:56.000Z</time>
      </trkpt>
      <trkpt lat="42.72782" lon="1.44754">
        <ele>1221</ele>
        <time>2026-06-28T09:38:57.000Z</time>
      </trkpt>
      <trkpt lat="42.72783" lon="1.44748">
        <ele>1221</ele>
        <time>2026-06-28T09:38:58.000Z</time>
      </trkpt>
      <trkpt lat="42.72784" lon="1.44743">
        <ele>1221</ele>
        <time>2026-06-28T09:38:59.000Z</time>
      </trkpt>
      <trkpt lat="42.72785" lon="1.44738">
        <ele>1221</ele>
        <time>2026-06-28T09:39:00.000Z</time>
      </trkpt>
      <trkpt lat="42.72785" lon="1.44732">
        <ele>1221</ele>
        <time>2026-06-28T09:39:01.000Z</time>
      </trkpt>
      <trkpt lat="42.72785" lon="1.44727">
        <ele>1220</ele>
        <time>2026-06-28T09:39:02.000Z</time>
      </trkpt>
      <trkpt lat="42.72786" lon="1.44721">
        <ele>1220</ele>
        <time>2026-06-28T09:39:03.000Z</time>
      </trkpt>
      <trkpt lat="42.72787" lon="1.44715">
        <ele>1220</ele>
        <time>2026-06-28T09:39:04.000Z</time>
      </trkpt>
      <trkpt lat="42.72788" lon="1.4471">
        <ele>1220</ele>
        <time>2026-06-28T09:39:05.000Z</time>
      </trkpt>
      <trkpt lat="42.72789" lon="1.44706">
        <ele>1220</ele>
        <time>2026-06-28T09:39:06.000Z</time>
      </trkpt>
      <trkpt lat="42.7279" lon="1.44703">
        <ele>1220</ele>
        <time>2026-06-28T09:39:07.000Z</time>
      </trkpt>
      <trkpt lat="42.72791" lon="1.44701">
        <ele>1220</ele>
        <time>2026-06-28T09:39:08.000Z</time>
      </trkpt>
      <trkpt lat="42.72791" lon="1.447">
        <ele>1220</ele>
        <time>2026-06-28T09:39:09.000Z</time>
      </trkpt>
      <trkpt lat="42.72793" lon="1.447">
        <ele>1220</ele>
        <time>2026-06-28T09:39:10.000Z</time>
      </trkpt>
      <trkpt lat="42.72794" lon="1.447">
        <ele>1219</ele>
        <time>2026-06-28T09:39:11.000Z</time>
      </trkpt>
      <trkpt lat="42.72795" lon="1.447">
        <ele>1219</ele>
        <time>2026-06-28T09:39:12.000Z</time>
      </trkpt>
      <trkpt lat="42.72796" lon="1.44699">
        <ele>1219</ele>
        <time>2026-06-28T09:39:13.000Z</time>
      </trkpt>
      <trkpt lat="42.72796" lon="1.44698">
        <ele>1219</ele>
        <time>2026-06-28T09:39:14.000Z</time>
      </trkpt>
      <trkpt lat="42.72797" lon="1.44698">
        <ele>1219</ele>
        <time>2026-06-28T09:39:15.000Z</time>
      </trkpt>
      <trkpt lat="42.72797" lon="1.44697">
        <ele>1219</ele>
        <time>2026-06-28T09:39:16.000Z</time>
      </trkpt>
      <trkpt lat="42.72798" lon="1.44696">
        <ele>1219</ele>
        <time>2026-06-28T09:39:17.000Z</time>
      </trkpt>
      <trkpt lat="42.72798" lon="1.44696">
        <ele>1219</ele>
        <time>2026-06-28T09:39:18.000Z</time>
      </trkpt>
      <trkpt lat="42.72798" lon="1.44696">
        <ele>1219</ele>
        <time>2026-06-28T09:39:19.000Z</time>
      </trkpt>
      <trkpt lat="42.72798" lon="1.44696">
        <ele>1219</ele>
        <time>2026-06-28T09:39:20.000Z</time>
      </trkpt>
      <trkpt lat="42.72798" lon="1.44696">
        <ele>1219</ele>
        <time>2026-06-28T09:39:21.000Z</time>
      </trkpt>
      <trkpt lat="42.72798" lon="1.44696">
        <ele>1219</ele>
        <time>2026-06-28T09:39:22.000Z</time>
      </trkpt>
      <trkpt lat="42.72799" lon="1.44697">
        <ele>1219</ele>
        <time>2026-06-28T09:39:23.000Z</time>
      </trkpt>
      <trkpt lat="42.72798" lon="1.44696">
        <ele>1219</ele>
        <time>2026-06-28T09:39:24.000Z</time>
      </trkpt>
      <trkpt lat="42.72799" lon="1.44695">
        <ele>1218</ele>
        <time>2026-06-28T09:39:25.000Z</time>
      </trkpt>
      <trkpt lat="42.72799" lon="1.44694">
        <ele>1218</ele>
        <time>2026-06-28T09:39:26.000Z</time>
      </trkpt>
      <trkpt lat="42.72801" lon="1.44693">
        <ele>1218</ele>
        <time>2026-06-28T09:39:27.000Z</time>
      </trkpt>
      <trkpt lat="42.72802" lon="1.44691">
        <ele>1218</ele>
        <time>2026-06-28T09:39:28.000Z</time>
      </trkpt>
      <trkpt lat="42.72803" lon="1.44689">
        <ele>1218</ele>
        <time>2026-06-28T09:39:29.000Z</time>
      </trkpt>
      <trkpt lat="42.72804" lon="1.44688">
        <ele>1218</ele>
        <time>2026-06-28T09:39:30.000Z</time>
      </trkpt>
      <trkpt lat="42.72804" lon="1.44687">
        <ele>1218</ele>
        <time>2026-06-28T09:39:31.000Z</time>
      </trkpt>
      <trkpt lat="42.72803" lon="1.44686">
        <ele>1219</ele>
        <time>2026-06-28T09:39:32.000Z</time>
      </trkpt>
      <trkpt lat="42.72803" lon="1.44685">
        <ele>1219</ele>
        <time>2026-06-28T09:39:33.000Z</time>
      </trkpt>
      <trkpt lat="42.72803" lon="1.44684">
        <ele>1220</ele>
        <time>2026-06-28T09:39:34.000Z</time>
      </trkpt>
      <trkpt lat="42.72802" lon="1.44683">
        <ele>1221</ele>
        <time>2026-06-28T09:39:35.000Z</time>
      </trkpt>
      <trkpt lat="42.728" lon="1.44681">
        <ele>1221</ele>
        <time>2026-06-28T09:39:36.000Z</time>
      </trkpt>
      <trkpt lat="42.728" lon="1.4468">
        <ele>1221</ele>
        <time>2026-06-28T09:39:37.000Z</time>
      </trkpt>
      <trkpt lat="42.72799" lon="1.44681">
        <ele>1221</ele>
        <time>2026-06-28T09:39:38.000Z</time>
      </trkpt>
      <trkpt lat="42.72799" lon="1.4468">
        <ele>1221</ele>
        <time>2026-06-28T09:39:39.000Z</time>
      </trkpt>
      <trkpt lat="42.72798" lon="1.4468">
        <ele>1221</ele>
        <time>2026-06-28T09:39:40.000Z</time>
      </trkpt>
      <trkpt lat="42.72796" lon="1.44682">
        <ele>1221</ele>
        <time>2026-06-28T09:39:41.000Z</time>
      </trkpt>
      <trkpt lat="42.72795" lon="1.44683">
        <ele>1222</ele>
        <time>2026-06-28T09:39:42.000Z</time>
      </trkpt>
      <trkpt lat="42.72794" lon="1.44685">
        <ele>1222</ele>
        <time>2026-06-28T09:39:43.000Z</time>
      </trkpt>
      <trkpt lat="42.72793" lon="1.44685">
        <ele>1222</ele>
        <time>2026-06-28T09:39:44.000Z</time>
      </trkpt>
      <trkpt lat="42.72793" lon="1.44687">
        <ele>1223</ele>
        <time>2026-06-28T09:39:45.000Z</time>
      </trkpt>
      <trkpt lat="42.72791" lon="1.44689">
        <ele>1224</ele>
        <time>2026-06-28T09:39:46.000Z</time>
      </trkpt>
      <trkpt lat="42.72788" lon="1.44691">
        <ele>1225</ele>
        <time>2026-06-28T09:39:47.000Z</time>
      </trkpt>
      <trkpt lat="42.72786" lon="1.44694">
        <ele>1226</ele>
        <time>2026-06-28T09:39:48.000Z</time>
      </trkpt>
      <trkpt lat="42.72785" lon="1.44697">
        <ele>1227</ele>
        <time>2026-06-28T09:39:49.000Z</time>
      </trkpt>
      <trkpt lat="42.72781" lon="1.447">
        <ele>1228</ele>
        <time>2026-06-28T09:39:50.000Z</time>
      </trkpt>
      <trkpt lat="42.72778" lon="1.44703">
        <ele>1227</ele>
        <time>2026-06-28T09:39:51.000Z</time>
      </trkpt>
      <trkpt lat="42.72775" lon="1.44705">
        <ele>1228</ele>
        <time>2026-06-28T09:39:52.000Z</time>
      </trkpt>
      <trkpt lat="42.72771" lon="1.44706">
        <ele>1228</ele>
        <time>2026-06-28T09:39:53.000Z</time>
      </trkpt>
      <trkpt lat="42.72767" lon="1.44707">
        <ele>1228</ele>
        <time>2026-06-28T09:39:54.000Z</time>
      </trkpt>
      <trkpt lat="42.72763" lon="1.44709">
        <ele>1228</ele>
        <time>2026-06-28T09:39:55.000Z</time>
      </trkpt>
      <trkpt lat="42.72759" lon="1.4471">
        <ele>1228</ele>
        <time>2026-06-28T09:39:56.000Z</time>
      </trkpt>
      <trkpt lat="42.72756" lon="1.44711">
        <ele>1228</ele>
        <time>2026-06-28T09:39:57.000Z</time>
      </trkpt>
      <trkpt lat="42.72752" lon="1.44712">
        <ele>1229</ele>
        <time>2026-06-28T09:39:58.000Z</time>
      </trkpt>
      <trkpt lat="42.72748" lon="1.44713">
        <ele>1229</ele>
        <time>2026-06-28T09:39:59.000Z</time>
      </trkpt>
      <trkpt lat="42.72744" lon="1.44714">
        <ele>1229</ele>
        <time>2026-06-28T09:40:00.000Z</time>
      </trkpt>
      <trkpt lat="42.72741" lon="1.44716">
        <ele>1229</ele>
        <time>2026-06-28T09:40:01.000Z</time>
      </trkpt>
      <trkpt lat="42.72737" lon="1.44717">
        <ele>1230</ele>
        <time>2026-06-28T09:40:02.000Z</time>
      </trkpt>
      <trkpt lat="42.72735" lon="1.44718">
        <ele>1230</ele>
        <time>2026-06-28T09:40:03.000Z</time>
      </trkpt>
      <trkpt lat="42.72731" lon="1.44719">
        <ele>1230</ele>
        <time>2026-06-28T09:40:04.000Z</time>
      </trkpt>
      <trkpt lat="42.72728" lon="1.44722">
        <ele>1230</ele>
        <time>2026-06-28T09:40:05.000Z</time>
      </trkpt>
      <trkpt lat="42.72725" lon="1.44724">
        <ele>1230</ele>
        <time>2026-06-28T09:40:06.000Z</time>
      </trkpt>
      <trkpt lat="42.72724" lon="1.44727">
        <ele>1230</ele>
        <time>2026-06-28T09:40:07.000Z</time>
      </trkpt>
      <trkpt lat="42.72722" lon="1.44729">
        <ele>1230</ele>
        <time>2026-06-28T09:40:08.000Z</time>
      </trkpt>
      <trkpt lat="42.72719" lon="1.44733">
        <ele>1232</ele>
        <time>2026-06-28T09:40:09.000Z</time>
      </trkpt>
      <trkpt lat="42.72716" lon="1.44736">
        <ele>1232</ele>
        <time>2026-06-28T09:40:10.000Z</time>
      </trkpt>
      <trkpt lat="42.72714" lon="1.44741">
        <ele>1233</ele>
        <time>2026-06-28T09:40:11.000Z</time>
      </trkpt>
      <trkpt lat="42.72712" lon="1.44744">
        <ele>1233</ele>
        <time>2026-06-28T09:40:12.000Z</time>
      </trkpt>
      <trkpt lat="42.72711" lon="1.44747">
        <ele>1234</ele>
        <time>2026-06-28T09:40:13.000Z</time>
      </trkpt>
      <trkpt lat="42.7271" lon="1.4475">
        <ele>1235</ele>
        <time>2026-06-28T09:40:14.000Z</time>
      </trkpt>
      <trkpt lat="42.72708" lon="1.44753">
        <ele>1236</ele>
        <time>2026-06-28T09:40:15.000Z</time>
      </trkpt>
      <trkpt lat="42.72707" lon="1.44756">
        <ele>1237</ele>
        <time>2026-06-28T09:40:16.000Z</time>
      </trkpt>
      <trkpt lat="42.72707" lon="1.44759">
        <ele>1238</ele>
        <time>2026-06-28T09:40:17.000Z</time>
      </trkpt>
      <trkpt lat="42.72705" lon="1.44763">
        <ele>1239</ele>
        <time>2026-06-28T09:40:18.000Z</time>
      </trkpt>
      <trkpt lat="42.72703" lon="1.44767">
        <ele>1241</ele>
        <time>2026-06-28T09:40:19.000Z</time>
      </trkpt>
      <trkpt lat="42.72702" lon="1.44772">
        <ele>1243</ele>
        <time>2026-06-28T09:40:20.000Z</time>
      </trkpt>
      <trkpt lat="42.727" lon="1.44776">
        <ele>1245</ele>
        <time>2026-06-28T09:40:21.000Z</time>
      </trkpt>
      <trkpt lat="42.72698" lon="1.4478">
        <ele>1246</ele>
        <time>2026-06-28T09:40:22.000Z</time>
      </trkpt>
      <trkpt lat="42.72697" lon="1.44783">
        <ele>1249</ele>
        <time>2026-06-28T09:40:23.000Z</time>
      </trkpt>
      <trkpt lat="42.72696" lon="1.44786">
        <ele>1249</ele>
        <time>2026-06-28T09:40:24.000Z</time>
      </trkpt>
      <trkpt lat="42.72694" lon="1.44789">
        <ele>1250</ele>
        <time>2026-06-28T09:40:25.000Z</time>
      </trkpt>
      <trkpt lat="42.72693" lon="1.44792">
        <ele>1251</ele>
        <time>2026-06-28T09:40:26.000Z</time>
      </trkpt>
      <trkpt lat="42.72692" lon="1.44794">
        <ele>1251</ele>
        <time>2026-06-28T09:40:27.000Z</time>
      </trkpt>
      <trkpt lat="42.72691" lon="1.44797">
        <ele>1252</ele>
        <time>2026-06-28T09:40:28.000Z</time>
      </trkpt>
      <trkpt lat="42.72689" lon="1.44799">
        <ele>1252</ele>
        <time>2026-06-28T09:40:29.000Z</time>
      </trkpt>
      <trkpt lat="42.72687" lon="1.44802">
        <ele>1252</ele>
        <time>2026-06-28T09:40:30.000Z</time>
      </trkpt>
      <trkpt lat="42.72685" lon="1.44807">
        <ele>1253</ele>
        <time>2026-06-28T09:40:31.000Z</time>
      </trkpt>
      <trkpt lat="42.72683" lon="1.44811">
        <ele>1254</ele>
        <time>2026-06-28T09:40:32.000Z</time>
      </trkpt>
      <trkpt lat="42.72681" lon="1.44813">
        <ele>1253</ele>
        <time>2026-06-28T09:40:33.000Z</time>
      </trkpt>
      <trkpt lat="42.72679" lon="1.44815">
        <ele>1253</ele>
        <time>2026-06-28T09:40:34.000Z</time>
      </trkpt>
      <trkpt lat="42.72677" lon="1.44817">
        <ele>1253</ele>
        <time>2026-06-28T09:40:35.000Z</time>
      </trkpt>
      <trkpt lat="42.72675" lon="1.44818">
        <ele>1252</ele>
        <time>2026-06-28T09:40:36.000Z</time>
      </trkpt>
      <trkpt lat="42.72673" lon="1.4482">
        <ele>1250</ele>
        <time>2026-06-28T09:40:37.000Z</time>
      </trkpt>
      <trkpt lat="42.7267" lon="1.44822">
        <ele>1249</ele>
        <time>2026-06-28T09:40:38.000Z</time>
      </trkpt>
      <trkpt lat="42.72667" lon="1.44824">
        <ele>1248</ele>
        <time>2026-06-28T09:40:39.000Z</time>
      </trkpt>
      <trkpt lat="42.72664" lon="1.44825">
        <ele>1246</ele>
        <time>2026-06-28T09:40:40.000Z</time>
      </trkpt>
      <trkpt lat="42.72661" lon="1.44827">
        <ele>1244</ele>
        <time>2026-06-28T09:40:41.000Z</time>
      </trkpt>
      <trkpt lat="42.72657" lon="1.44829">
        <ele>1242</ele>
        <time>2026-06-28T09:40:42.000Z</time>
      </trkpt>
      <trkpt lat="42.72654" lon="1.44831">
        <ele>1241</ele>
        <time>2026-06-28T09:40:43.000Z</time>
      </trkpt>
      <trkpt lat="42.72651" lon="1.44832">
        <ele>1240</ele>
        <time>2026-06-28T09:40:44.000Z</time>
      </trkpt>
      <trkpt lat="42.72648" lon="1.44834">
        <ele>1239</ele>
        <time>2026-06-28T09:40:45.000Z</time>
      </trkpt>
      <trkpt lat="42.72645" lon="1.44833">
        <ele>1239</ele>
        <time>2026-06-28T09:40:46.000Z</time>
      </trkpt>
      <trkpt lat="42.72641" lon="1.44833">
        <ele>1239</ele>
        <time>2026-06-28T09:40:47.000Z</time>
      </trkpt>
      <trkpt lat="42.72637" lon="1.44834">
        <ele>1238</ele>
        <time>2026-06-28T09:40:48.000Z</time>
      </trkpt>
      <trkpt lat="42.72633" lon="1.44835">
        <ele>1239</ele>
        <time>2026-06-28T09:40:49.000Z</time>
      </trkpt>
      <trkpt lat="42.72629" lon="1.44835">
        <ele>1239</ele>
        <time>2026-06-28T09:40:50.000Z</time>
      </trkpt>
      <trkpt lat="42.72625" lon="1.44835">
        <ele>1237</ele>
        <time>2026-06-28T09:40:51.000Z</time>
      </trkpt>
      <trkpt lat="42.7262" lon="1.44835">
        <ele>1236</ele>
        <time>2026-06-28T09:40:52.000Z</time>
      </trkpt>
      <trkpt lat="42.72615" lon="1.44835">
        <ele>1236</ele>
        <time>2026-06-28T09:40:53.000Z</time>
      </trkpt>
      <trkpt lat="42.7261" lon="1.44834">
        <ele>1236</ele>
        <time>2026-06-28T09:40:54.000Z</time>
      </trkpt>
      <trkpt lat="42.72605" lon="1.44832">
        <ele>1236</ele>
        <time>2026-06-28T09:40:55.000Z</time>
      </trkpt>
      <trkpt lat="42.72601" lon="1.4483">
        <ele>1235</ele>
        <time>2026-06-28T09:40:56.000Z</time>
      </trkpt>
      <trkpt lat="42.72597" lon="1.44828">
        <ele>1235</ele>
        <time>2026-06-28T09:40:57.000Z</time>
      </trkpt>
      <trkpt lat="42.72593" lon="1.44827">
        <ele>1235</ele>
        <time>2026-06-28T09:40:58.000Z</time>
      </trkpt>
      <trkpt lat="42.7259" lon="1.44825">
        <ele>1234</ele>
        <time>2026-06-28T09:40:59.000Z</time>
      </trkpt>
      <trkpt lat="42.72587" lon="1.44824">
        <ele>1233</ele>
        <time>2026-06-28T09:41:00.000Z</time>
      </trkpt>
      <trkpt lat="42.72584" lon="1.44824">
        <ele>1233</ele>
        <time>2026-06-28T09:41:01.000Z</time>
      </trkpt>
      <trkpt lat="42.72582" lon="1.44823">
        <ele>1233</ele>
        <time>2026-06-28T09:41:02.000Z</time>
      </trkpt>
      <trkpt lat="42.7258" lon="1.44823">
        <ele>1232</ele>
        <time>2026-06-28T09:41:03.000Z</time>
      </trkpt>
      <trkpt lat="42.72578" lon="1.44824">
        <ele>1232</ele>
        <time>2026-06-28T09:41:04.000Z</time>
      </trkpt>
      <trkpt lat="42.72577" lon="1.44825">
        <ele>1231</ele>
        <time>2026-06-28T09:41:05.000Z</time>
      </trkpt>
      <trkpt lat="42.72575" lon="1.44824">
        <ele>1231</ele>
        <time>2026-06-28T09:41:06.000Z</time>
      </trkpt>
      <trkpt lat="42.72573" lon="1.44824">
        <ele>1230</ele>
        <time>2026-06-28T09:41:07.000Z</time>
      </trkpt>
      <trkpt lat="42.72571" lon="1.44823">
        <ele>1230</ele>
        <time>2026-06-28T09:41:08.000Z</time>
      </trkpt>
      <trkpt lat="42.72568" lon="1.44822">
        <ele>1231</ele>
        <time>2026-06-28T09:41:09.000Z</time>
      </trkpt>
      <trkpt lat="42.72565" lon="1.44822">
        <ele>1232</ele>
        <time>2026-06-28T09:41:10.000Z</time>
      </trkpt>
      <trkpt lat="42.72562" lon="1.4482">
        <ele>1233</ele>
        <time>2026-06-28T09:41:11.000Z</time>
      </trkpt>
      <trkpt lat="42.7256" lon="1.4482">
        <ele>1234</ele>
        <time>2026-06-28T09:41:12.000Z</time>
      </trkpt>
      <trkpt lat="42.72558" lon="1.44818">
        <ele>1233</ele>
        <time>2026-06-28T09:41:13.000Z</time>
      </trkpt>
      <trkpt lat="42.72556" lon="1.44818">
        <ele>1233</ele>
        <time>2026-06-28T09:41:14.000Z</time>
      </trkpt>
      <trkpt lat="42.72554" lon="1.44817">
        <ele>1232</ele>
        <time>2026-06-28T09:41:15.000Z</time>
      </trkpt>
      <trkpt lat="42.72552" lon="1.44815">
        <ele>1232</ele>
        <time>2026-06-28T09:41:16.000Z</time>
      </trkpt>
      <trkpt lat="42.72549" lon="1.44814">
        <ele>1231</ele>
        <time>2026-06-28T09:41:17.000Z</time>
      </trkpt>
      <trkpt lat="42.72547" lon="1.44814">
        <ele>1231</ele>
        <time>2026-06-28T09:41:18.000Z</time>
      </trkpt>
      <trkpt lat="42.72544" lon="1.44813">
        <ele>1231</ele>
        <time>2026-06-28T09:41:19.000Z</time>
      </trkpt>
      <trkpt lat="42.72542" lon="1.44812">
        <ele>1231</ele>
        <time>2026-06-28T09:41:20.000Z</time>
      </trkpt>
      <trkpt lat="42.72541" lon="1.44811">
        <ele>1230</ele>
        <time>2026-06-28T09:41:21.000Z</time>
      </trkpt>
      <trkpt lat="42.72539" lon="1.4481">
        <ele>1229</ele>
        <time>2026-06-28T09:41:22.000Z</time>
      </trkpt>
      <trkpt lat="42.72537" lon="1.44809">
        <ele>1229</ele>
        <time>2026-06-28T09:41:23.000Z</time>
      </trkpt>
      <trkpt lat="42.72535" lon="1.44808">
        <ele>1228</ele>
        <time>2026-06-28T09:41:24.000Z</time>
      </trkpt>
      <trkpt lat="42.72533" lon="1.44807">
        <ele>1228</ele>
        <time>2026-06-28T09:41:25.000Z</time>
      </trkpt>
      <trkpt lat="42.72531" lon="1.44807">
        <ele>1227</ele>
        <time>2026-06-28T09:41:26.000Z</time>
      </trkpt>
      <trkpt lat="42.72529" lon="1.44807">
        <ele>1226</ele>
        <time>2026-06-28T09:41:27.000Z</time>
      </trkpt>
      <trkpt lat="42.72527" lon="1.44807">
        <ele>1226</ele>
        <time>2026-06-28T09:41:28.000Z</time>
      </trkpt>
      <trkpt lat="42.72526" lon="1.44806">
        <ele>1225</ele>
        <time>2026-06-28T09:41:29.000Z</time>
      </trkpt>
      <trkpt lat="42.72523" lon="1.44807">
        <ele>1224</ele>
        <time>2026-06-28T09:41:30.000Z</time>
      </trkpt>
      <trkpt lat="42.72522" lon="1.44806">
        <ele>1224</ele>
        <time>2026-06-28T09:41:31.000Z</time>
      </trkpt>
      <trkpt lat="42.7252" lon="1.44806">
        <ele>1222</ele>
        <time>2026-06-28T09:41:32.000Z</time>
      </trkpt>
      <trkpt lat="42.72518" lon="1.44806">
        <ele>1222</ele>
        <time>2026-06-28T09:41:33.000Z</time>
      </trkpt>
      <trkpt lat="42.72516" lon="1.44805">
        <ele>1221</ele>
        <time>2026-06-28T09:41:34.000Z</time>
      </trkpt>
      <trkpt lat="42.72514" lon="1.44805">
        <ele>1220</ele>
        <time>2026-06-28T09:41:35.000Z</time>
      </trkpt>
      <trkpt lat="42.72513" lon="1.44804">
        <ele>1220</ele>
        <time>2026-06-28T09:41:36.000Z</time>
      </trkpt>
      <trkpt lat="42.72512" lon="1.44802">
        <ele>1219</ele>
        <time>2026-06-28T09:41:37.000Z</time>
      </trkpt>
      <trkpt lat="42.72509" lon="1.448">
        <ele>1219</ele>
        <time>2026-06-28T09:41:38.000Z</time>
      </trkpt>
      <trkpt lat="42.72507" lon="1.44799">
        <ele>1217</ele>
        <time>2026-06-28T09:41:39.000Z</time>
      </trkpt>
      <trkpt lat="42.72504" lon="1.44798">
        <ele>1217</ele>
        <time>2026-06-28T09:41:40.000Z</time>
      </trkpt>
      <trkpt lat="42.72501" lon="1.44797">
        <ele>1215</ele>
        <time>2026-06-28T09:41:41.000Z</time>
      </trkpt>
      <trkpt lat="42.72498" lon="1.44796">
        <ele>1214</ele>
        <time>2026-06-28T09:41:42.000Z</time>
      </trkpt>
      <trkpt lat="42.72495" lon="1.44795">
        <ele>1213</ele>
        <time>2026-06-28T09:41:43.000Z</time>
      </trkpt>
      <trkpt lat="42.72491" lon="1.44795">
        <ele>1213</ele>
        <time>2026-06-28T09:41:44.000Z</time>
      </trkpt>
      <trkpt lat="42.72489" lon="1.44794">
        <ele>1212</ele>
        <time>2026-06-28T09:41:45.000Z</time>
      </trkpt>
      <trkpt lat="42.72486" lon="1.44794">
        <ele>1212</ele>
        <time>2026-06-28T09:41:46.000Z</time>
      </trkpt>
      <trkpt lat="42.72484" lon="1.44793">
        <ele>1211</ele>
        <time>2026-06-28T09:41:47.000Z</time>
      </trkpt>
      <trkpt lat="42.72481" lon="1.44792">
        <ele>1211</ele>
        <time>2026-06-28T09:41:48.000Z</time>
      </trkpt>
      <trkpt lat="42.72478" lon="1.44792">
        <ele>1210</ele>
        <time>2026-06-28T09:41:49.000Z</time>
      </trkpt>
      <trkpt lat="42.72476" lon="1.44791">
        <ele>1209</ele>
        <time>2026-06-28T09:41:50.000Z</time>
      </trkpt>
      <trkpt lat="42.72473" lon="1.44791">
        <ele>1208</ele>
        <time>2026-06-28T09:41:51.000Z</time>
      </trkpt>
      <trkpt lat="42.72469" lon="1.44791">
        <ele>1207</ele>
        <time>2026-06-28T09:41:52.000Z</time>
      </trkpt>
      <trkpt lat="42.72465" lon="1.44789">
        <ele>1207</ele>
        <time>2026-06-28T09:41:53.000Z</time>
      </trkpt>
      <trkpt lat="42.72462" lon="1.44788">
        <ele>1208</ele>
        <time>2026-06-28T09:41:54.000Z</time>
      </trkpt>
      <trkpt lat="42.72458" lon="1.44785">
        <ele>1208</ele>
        <time>2026-06-28T09:41:55.000Z</time>
      </trkpt>
      <trkpt lat="42.72453" lon="1.44782">
        <ele>1209</ele>
        <time>2026-06-28T09:41:56.000Z</time>
      </trkpt>
      <trkpt lat="42.72448" lon="1.44779">
        <ele>1208</ele>
        <time>2026-06-28T09:41:57.000Z</time>
      </trkpt>
      <trkpt lat="42.72443" lon="1.44776">
        <ele>1207</ele>
        <time>2026-06-28T09:41:58.000Z</time>
      </trkpt>
      <trkpt lat="42.72432" lon="1.44772">
        <ele>1206</ele>
        <time>2026-06-28T09:41:59.000Z</time>
      </trkpt>
      <trkpt lat="42.72425" lon="1.4477">
        <ele>1206</ele>
        <time>2026-06-28T09:42:00.000Z</time>
      </trkpt>
      <trkpt lat="42.72419" lon="1.44769">
        <ele>1206</ele>
        <time>2026-06-28T09:42:01.000Z</time>
      </trkpt>
      <trkpt lat="42.72413" lon="1.44767">
        <ele>1206</ele>
        <time>2026-06-28T09:42:02.000Z</time>
      </trkpt>
      <trkpt lat="42.72406" lon="1.44765">
        <ele>1206</ele>
        <time>2026-06-28T09:42:03.000Z</time>
      </trkpt>
      <trkpt lat="42.724" lon="1.44764">
        <ele>1206</ele>
        <time>2026-06-28T09:42:04.000Z</time>
      </trkpt>
      <trkpt lat="42.72394" lon="1.44762">
        <ele>1207</ele>
        <time>2026-06-28T09:42:05.000Z</time>
      </trkpt>
      <trkpt lat="42.72388" lon="1.44762">
        <ele>1209</ele>
        <time>2026-06-28T09:42:06.000Z</time>
      </trkpt>
      <trkpt lat="42.72381" lon="1.4476">
        <ele>1210</ele>
        <time>2026-06-28T09:42:07.000Z</time>
      </trkpt>
      <trkpt lat="42.72375" lon="1.44758">
        <ele>1211</ele>
        <time>2026-06-28T09:42:08.000Z</time>
      </trkpt>
      <trkpt lat="42.72368" lon="1.44755">
        <ele>1212</ele>
        <time>2026-06-28T09:42:09.000Z</time>
      </trkpt>
      <trkpt lat="42.72361" lon="1.44752">
        <ele>1213</ele>
        <time>2026-06-28T09:42:10.000Z</time>
      </trkpt>
      <trkpt lat="42.72354" lon="1.44748">
        <ele>1213</ele>
        <time>2026-06-28T09:42:11.000Z</time>
      </trkpt>
      <trkpt lat="42.72347" lon="1.44744">
        <ele>1215</ele>
        <time>2026-06-28T09:42:12.000Z</time>
      </trkpt>
      <trkpt lat="42.72341" lon="1.44739">
        <ele>1216</ele>
        <time>2026-06-28T09:42:13.000Z</time>
      </trkpt>
      <trkpt lat="42.72336" lon="1.44735">
        <ele>1218</ele>
        <time>2026-06-28T09:42:14.000Z</time>
      </trkpt>
      <trkpt lat="42.7233" lon="1.44731">
        <ele>1219</ele>
        <time>2026-06-28T09:42:15.000Z</time>
      </trkpt>
      <trkpt lat="42.72325" lon="1.44728">
        <ele>1220</ele>
        <time>2026-06-28T09:42:16.000Z</time>
      </trkpt>
      <trkpt lat="42.7232" lon="1.44724">
        <ele>1220</ele>
        <time>2026-06-28T09:42:17.000Z</time>
      </trkpt>
      <trkpt lat="42.72316" lon="1.4472">
        <ele>1220</ele>
        <time>2026-06-28T09:42:18.000Z</time>
      </trkpt>
      <trkpt lat="42.72311" lon="1.44718">
        <ele>1221</ele>
        <time>2026-06-28T09:42:19.000Z</time>
      </trkpt>
      <trkpt lat="42.72306" lon="1.44716">
        <ele>1221</ele>
        <time>2026-06-28T09:42:20.000Z</time>
      </trkpt>
      <trkpt lat="42.72301" lon="1.44712">
        <ele>1221</ele>
        <time>2026-06-28T09:42:21.000Z</time>
      </trkpt>
      <trkpt lat="42.72297" lon="1.4471">
        <ele>1221</ele>
        <time>2026-06-28T09:42:22.000Z</time>
      </trkpt>
      <trkpt lat="42.72292" lon="1.44708">
        <ele>1221</ele>
        <time>2026-06-28T09:42:23.000Z</time>
      </trkpt>
      <trkpt lat="42.72288" lon="1.44706">
        <ele>1221</ele>
        <time>2026-06-28T09:42:24.000Z</time>
      </trkpt>
      <trkpt lat="42.72284" lon="1.44704">
        <ele>1221</ele>
        <time>2026-06-28T09:42:25.000Z</time>
      </trkpt>
      <trkpt lat="42.7228" lon="1.44703">
        <ele>1221</ele>
        <time>2026-06-28T09:42:26.000Z</time>
      </trkpt>
      <trkpt lat="42.72276" lon="1.44702">
        <ele>1221</ele>
        <time>2026-06-28T09:42:27.000Z</time>
      </trkpt>
      <trkpt lat="42.72273" lon="1.44702">
        <ele>1221</ele>
        <time>2026-06-28T09:42:28.000Z</time>
      </trkpt>
      <trkpt lat="42.7227" lon="1.44701">
        <ele>1221</ele>
        <time>2026-06-28T09:42:29.000Z</time>
      </trkpt>
      <trkpt lat="42.72267" lon="1.447">
        <ele>1222</ele>
        <time>2026-06-28T09:42:30.000Z</time>
      </trkpt>
      <trkpt lat="42.72263" lon="1.447">
        <ele>1223</ele>
        <time>2026-06-28T09:42:31.000Z</time>
      </trkpt>
      <trkpt lat="42.72259" lon="1.447">
        <ele>1224</ele>
        <time>2026-06-28T09:42:32.000Z</time>
      </trkpt>
      <trkpt lat="42.72254" lon="1.44699">
        <ele>1225</ele>
        <time>2026-06-28T09:42:33.000Z</time>
      </trkpt>
      <trkpt lat="42.7225" lon="1.44697">
        <ele>1225</ele>
        <time>2026-06-28T09:42:34.000Z</time>
      </trkpt>
      <trkpt lat="42.72245" lon="1.44694">
        <ele>1225</ele>
        <time>2026-06-28T09:42:35.000Z</time>
      </trkpt>
      <trkpt lat="42.7224" lon="1.44692">
        <ele>1226</ele>
        <time>2026-06-28T09:42:36.000Z</time>
      </trkpt>
      <trkpt lat="42.72236" lon="1.44688">
        <ele>1225</ele>
        <time>2026-06-28T09:42:37.000Z</time>
      </trkpt>
      <trkpt lat="42.72232" lon="1.44684">
        <ele>1226</ele>
        <time>2026-06-28T09:42:38.000Z</time>
      </trkpt>
      <trkpt lat="42.72228" lon="1.4468">
        <ele>1225</ele>
        <time>2026-06-28T09:42:39.000Z</time>
      </trkpt>
      <trkpt lat="42.72225" lon="1.44676">
        <ele>1225</ele>
        <time>2026-06-28T09:42:40.000Z</time>
      </trkpt>
      <trkpt lat="42.72221" lon="1.44672">
        <ele>1225</ele>
        <time>2026-06-28T09:42:41.000Z</time>
      </trkpt>
      <trkpt lat="42.72218" lon="1.44669">
        <ele>1225</ele>
        <time>2026-06-28T09:42:42.000Z</time>
      </trkpt>
      <trkpt lat="42.72215" lon="1.44666">
        <ele>1225</ele>
        <time>2026-06-28T09:42:43.000Z</time>
      </trkpt>
      <trkpt lat="42.72212" lon="1.44664">
        <ele>1226</ele>
        <time>2026-06-28T09:42:44.000Z</time>
      </trkpt>
      <trkpt lat="42.72209" lon="1.44663">
        <ele>1226</ele>
        <time>2026-06-28T09:42:45.000Z</time>
      </trkpt>
      <trkpt lat="42.72206" lon="1.4466">
        <ele>1226</ele>
        <time>2026-06-28T09:42:46.000Z</time>
      </trkpt>
      <trkpt lat="42.72204" lon="1.44659">
        <ele>1226</ele>
        <time>2026-06-28T09:42:47.000Z</time>
      </trkpt>
      <trkpt lat="42.72201" lon="1.44658">
        <ele>1227</ele>
        <time>2026-06-28T09:42:48.000Z</time>
      </trkpt>
      <trkpt lat="42.72198" lon="1.44658">
        <ele>1227</ele>
        <time>2026-06-28T09:42:49.000Z</time>
      </trkpt>
      <trkpt lat="42.72195" lon="1.44657">
        <ele>1226</ele>
        <time>2026-06-28T09:42:50.000Z</time>
      </trkpt>
      <trkpt lat="42.72192" lon="1.44655">
        <ele>1227</ele>
        <time>2026-06-28T09:42:51.000Z</time>
      </trkpt>
      <trkpt lat="42.72188" lon="1.44655">
        <ele>1227</ele>
        <time>2026-06-28T09:42:52.000Z</time>
      </trkpt>
      <trkpt lat="42.72184" lon="1.44653">
        <ele>1228</ele>
        <time>2026-06-28T09:42:53.000Z</time>
      </trkpt>
      <trkpt lat="42.7218" lon="1.44652">
        <ele>1229</ele>
        <time>2026-06-28T09:42:54.000Z</time>
      </trkpt>
      <trkpt lat="42.72176" lon="1.4465">
        <ele>1229</ele>
        <time>2026-06-28T09:42:55.000Z</time>
      </trkpt>
      <trkpt lat="42.72172" lon="1.44648">
        <ele>1229</ele>
        <time>2026-06-28T09:42:56.000Z</time>
      </trkpt>
      <trkpt lat="42.72169" lon="1.44647">
        <ele>1229</ele>
        <time>2026-06-28T09:42:57.000Z</time>
      </trkpt>
      <trkpt lat="42.72165" lon="1.44645">
        <ele>1229</ele>
        <time>2026-06-28T09:42:58.000Z</time>
      </trkpt>
      <trkpt lat="42.72161" lon="1.44644">
        <ele>1228</ele>
        <time>2026-06-28T09:42:59.000Z</time>
      </trkpt>
      <trkpt lat="42.72157" lon="1.44643">
        <ele>1228</ele>
        <time>2026-06-28T09:43:00.000Z</time>
      </trkpt>
      <trkpt lat="42.72154" lon="1.44642">
        <ele>1229</ele>
        <time>2026-06-28T09:43:01.000Z</time>
      </trkpt>
      <trkpt lat="42.7215" lon="1.4464">
        <ele>1228</ele>
        <time>2026-06-28T09:43:02.000Z</time>
      </trkpt>
      <trkpt lat="42.72147" lon="1.44638">
        <ele>1228</ele>
        <time>2026-06-28T09:43:03.000Z</time>
      </trkpt>
      <trkpt lat="42.72144" lon="1.44637">
        <ele>1228</ele>
        <time>2026-06-28T09:43:04.000Z</time>
      </trkpt>
      <trkpt lat="42.72141" lon="1.44636">
        <ele>1230</ele>
        <time>2026-06-28T09:43:05.000Z</time>
      </trkpt>
      <trkpt lat="42.72138" lon="1.44635">
        <ele>1232</ele>
        <time>2026-06-28T09:43:06.000Z</time>
      </trkpt>
      <trkpt lat="42.72136" lon="1.44634">
        <ele>1233</ele>
        <time>2026-06-28T09:43:07.000Z</time>
      </trkpt>
      <trkpt lat="42.72133" lon="1.44634">
        <ele>1235</ele>
        <time>2026-06-28T09:43:08.000Z</time>
      </trkpt>
      <trkpt lat="42.72131" lon="1.44634">
        <ele>1236</ele>
        <time>2026-06-28T09:43:09.000Z</time>
      </trkpt>
      <trkpt lat="42.72129" lon="1.44635">
        <ele>1237</ele>
        <time>2026-06-28T09:43:10.000Z</time>
      </trkpt>
      <trkpt lat="42.72127" lon="1.44635">
        <ele>1238</ele>
        <time>2026-06-28T09:43:11.000Z</time>
      </trkpt>
      <trkpt lat="42.72125" lon="1.44634">
        <ele>1239</ele>
        <time>2026-06-28T09:43:12.000Z</time>
      </trkpt>
      <trkpt lat="42.72124" lon="1.44633">
        <ele>1240</ele>
        <time>2026-06-28T09:43:13.000Z</time>
      </trkpt>
      <trkpt lat="42.72122" lon="1.44634">
        <ele>1240</ele>
        <time>2026-06-28T09:43:14.000Z</time>
      </trkpt>
      <trkpt lat="42.7212" lon="1.44634">
        <ele>1240</ele>
        <time>2026-06-28T09:43:15.000Z</time>
      </trkpt>
      <trkpt lat="42.72117" lon="1.44634">
        <ele>1241</ele>
        <time>2026-06-28T09:43:16.000Z</time>
      </trkpt>
      <trkpt lat="42.72113" lon="1.44631">
        <ele>1242</ele>
        <time>2026-06-28T09:43:17.000Z</time>
      </trkpt>
      <trkpt lat="42.72109" lon="1.4463">
        <ele>1243</ele>
        <time>2026-06-28T09:43:18.000Z</time>
      </trkpt>
      <trkpt lat="42.72105" lon="1.44629">
        <ele>1244</ele>
        <time>2026-06-28T09:43:19.000Z</time>
      </trkpt>
      <trkpt lat="42.72101" lon="1.44628">
        <ele>1247</ele>
        <time>2026-06-28T09:43:20.000Z</time>
      </trkpt>
      <trkpt lat="42.72097" lon="1.44627">
        <ele>1248</ele>
        <time>2026-06-28T09:43:21.000Z</time>
      </trkpt>
      <trkpt lat="42.72093" lon="1.44627">
        <ele>1249</ele>
        <time>2026-06-28T09:43:22.000Z</time>
      </trkpt>
      <trkpt lat="42.7209" lon="1.44626">
        <ele>1248</ele>
        <time>2026-06-28T09:43:23.000Z</time>
      </trkpt>
      <trkpt lat="42.72088" lon="1.44625">
        <ele>1248</ele>
        <time>2026-06-28T09:43:24.000Z</time>
      </trkpt>
      <trkpt lat="42.72087" lon="1.44625">
        <ele>1247</ele>
        <time>2026-06-28T09:43:25.000Z</time>
      </trkpt>
      <trkpt lat="42.72086" lon="1.44624">
        <ele>1247</ele>
        <time>2026-06-28T09:43:26.000Z</time>
      </trkpt>
      <trkpt lat="42.72085" lon="1.44625">
        <ele>1247</ele>
        <time>2026-06-28T09:43:27.000Z</time>
      </trkpt>
      <trkpt lat="42.72084" lon="1.44627">
        <ele>1247</ele>
        <time>2026-06-28T09:43:28.000Z</time>
      </trkpt>
      <trkpt lat="42.72083" lon="1.4463">
        <ele>1247</ele>
        <time>2026-06-28T09:43:29.000Z</time>
      </trkpt>
      <trkpt lat="42.72082" lon="1.44634">
        <ele>1247</ele>
        <time>2026-06-28T09:43:30.000Z</time>
      </trkpt>
      <trkpt lat="42.7208" lon="1.44637">
        <ele>1248</ele>
        <time>2026-06-28T09:43:31.000Z</time>
      </trkpt>
      <trkpt lat="42.72078" lon="1.44639">
        <ele>1248</ele>
        <time>2026-06-28T09:43:32.000Z</time>
      </trkpt>
      <trkpt lat="42.72075" lon="1.44642">
        <ele>1248</ele>
        <time>2026-06-28T09:43:33.000Z</time>
      </trkpt>
      <trkpt lat="42.72071" lon="1.44643">
        <ele>1248</ele>
        <time>2026-06-28T09:43:34.000Z</time>
      </trkpt>
      <trkpt lat="42.72069" lon="1.44646">
        <ele>1248</ele>
        <time>2026-06-28T09:43:35.000Z</time>
      </trkpt>
      <trkpt lat="42.72067" lon="1.44649">
        <ele>1248</ele>
        <time>2026-06-28T09:43:36.000Z</time>
      </trkpt>
      <trkpt lat="42.72065" lon="1.4465">
        <ele>1248</ele>
        <time>2026-06-28T09:43:37.000Z</time>
      </trkpt>
      <trkpt lat="42.72064" lon="1.44651">
        <ele>1248</ele>
        <time>2026-06-28T09:43:38.000Z</time>
      </trkpt>
      <trkpt lat="42.72062" lon="1.44653">
        <ele>1248</ele>
        <time>2026-06-28T09:43:39.000Z</time>
      </trkpt>
      <trkpt lat="42.72059" lon="1.44656">
        <ele>1247</ele>
        <time>2026-06-28T09:43:40.000Z</time>
      </trkpt>
      <trkpt lat="42.72056" lon="1.44658">
        <ele>1247</ele>
        <time>2026-06-28T09:43:41.000Z</time>
      </trkpt>
      <trkpt lat="42.72054" lon="1.4466">
        <ele>1246</ele>
        <time>2026-06-28T09:43:42.000Z</time>
      </trkpt>
      <trkpt lat="42.72051" lon="1.44662">
        <ele>1246</ele>
        <time>2026-06-28T09:43:43.000Z</time>
      </trkpt>
      <trkpt lat="42.72048" lon="1.44663">
        <ele>1246</ele>
        <time>2026-06-28T09:43:44.000Z</time>
      </trkpt>
      <trkpt lat="42.72046" lon="1.44664">
        <ele>1247</ele>
        <time>2026-06-28T09:43:45.000Z</time>
      </trkpt>
      <trkpt lat="42.72043" lon="1.44666">
        <ele>1247</ele>
        <time>2026-06-28T09:43:46.000Z</time>
      </trkpt>
      <trkpt lat="42.7204" lon="1.44666">
        <ele>1247</ele>
        <time>2026-06-28T09:43:47.000Z</time>
      </trkpt>
      <trkpt lat="42.72036" lon="1.44667">
        <ele>1246</ele>
        <time>2026-06-28T09:43:48.000Z</time>
      </trkpt>
      <trkpt lat="42.72031" lon="1.44668">
        <ele>1245</ele>
        <time>2026-06-28T09:43:49.000Z</time>
      </trkpt>
      <trkpt lat="42.72027" lon="1.4467">
        <ele>1244</ele>
        <time>2026-06-28T09:43:50.000Z</time>
      </trkpt>
      <trkpt lat="42.72022" lon="1.44671">
        <ele>1243</ele>
        <time>2026-06-28T09:43:51.000Z</time>
      </trkpt>
      <trkpt lat="42.72018" lon="1.44672">
        <ele>1242</ele>
        <time>2026-06-28T09:43:52.000Z</time>
      </trkpt>
      <trkpt lat="42.72015" lon="1.44672">
        <ele>1242</ele>
        <time>2026-06-28T09:43:53.000Z</time>
      </trkpt>
      <trkpt lat="42.72012" lon="1.44672">
        <ele>1241</ele>
        <time>2026-06-28T09:43:54.000Z</time>
      </trkpt>
      <trkpt lat="42.72009" lon="1.44674">
        <ele>1241</ele>
        <time>2026-06-28T09:43:55.000Z</time>
      </trkpt>
      <trkpt lat="42.72006" lon="1.44675">
        <ele>1241</ele>
        <time>2026-06-28T09:43:56.000Z</time>
      </trkpt>
      <trkpt lat="42.72003" lon="1.44675">
        <ele>1240</ele>
        <time>2026-06-28T09:43:57.000Z</time>
      </trkpt>
      <trkpt lat="42.72" lon="1.44676">
        <ele>1239</ele>
        <time>2026-06-28T09:43:58.000Z</time>
      </trkpt>
      <trkpt lat="42.71998" lon="1.44675">
        <ele>1239</ele>
        <time>2026-06-28T09:43:59.000Z</time>
      </trkpt>
      <trkpt lat="42.71995" lon="1.44674">
        <ele>1239</ele>
        <time>2026-06-28T09:44:00.000Z</time>
      </trkpt>
      <trkpt lat="42.71992" lon="1.44674">
        <ele>1238</ele>
        <time>2026-06-28T09:44:01.000Z</time>
      </trkpt>
      <trkpt lat="42.71989" lon="1.44674">
        <ele>1238</ele>
        <time>2026-06-28T09:44:02.000Z</time>
      </trkpt>
      <trkpt lat="42.71987" lon="1.44674">
        <ele>1238</ele>
        <time>2026-06-28T09:44:03.000Z</time>
      </trkpt>
      <trkpt lat="42.71984" lon="1.44676">
        <ele>1238</ele>
        <time>2026-06-28T09:44:04.000Z</time>
      </trkpt>
      <trkpt lat="42.71981" lon="1.44676">
        <ele>1237</ele>
        <time>2026-06-28T09:44:05.000Z</time>
      </trkpt>
      <trkpt lat="42.71979" lon="1.44677">
        <ele>1237</ele>
        <time>2026-06-28T09:44:06.000Z</time>
      </trkpt>
      <trkpt lat="42.71978" lon="1.44678">
        <ele>1236</ele>
        <time>2026-06-28T09:44:07.000Z</time>
      </trkpt>
      <trkpt lat="42.71976" lon="1.44679">
        <ele>1236</ele>
        <time>2026-06-28T09:44:08.000Z</time>
      </trkpt>
      <trkpt lat="42.71975" lon="1.44681">
        <ele>1236</ele>
        <time>2026-06-28T09:44:09.000Z</time>
      </trkpt>
      <trkpt lat="42.71973" lon="1.44682">
        <ele>1236</ele>
        <time>2026-06-28T09:44:10.000Z</time>
      </trkpt>
      <trkpt lat="42.71971" lon="1.44682">
        <ele>1235</ele>
        <time>2026-06-28T09:44:11.000Z</time>
      </trkpt>
      <trkpt lat="42.7197" lon="1.44683">
        <ele>1235</ele>
        <time>2026-06-28T09:44:12.000Z</time>
      </trkpt>
      <trkpt lat="42.71968" lon="1.44684">
        <ele>1233</ele>
        <time>2026-06-28T09:44:13.000Z</time>
      </trkpt>
      <trkpt lat="42.71966" lon="1.44685">
        <ele>1233</ele>
        <time>2026-06-28T09:44:14.000Z</time>
      </trkpt>
      <trkpt lat="42.71965" lon="1.44686">
        <ele>1233</ele>
        <time>2026-06-28T09:44:15.000Z</time>
      </trkpt>
      <trkpt lat="42.71964" lon="1.44688">
        <ele>1234</ele>
        <time>2026-06-28T09:44:16.000Z</time>
      </trkpt>
      <trkpt lat="42.71962" lon="1.44689">
        <ele>1234</ele>
        <time>2026-06-28T09:44:17.000Z</time>
      </trkpt>
      <trkpt lat="42.71961" lon="1.44691">
        <ele>1234</ele>
        <time>2026-06-28T09:44:18.000Z</time>
      </trkpt>
      <trkpt lat="42.71959" lon="1.44692">
        <ele>1234</ele>
        <time>2026-06-28T09:44:19.000Z</time>
      </trkpt>
      <trkpt lat="42.71957" lon="1.44692">
        <ele>1234</ele>
        <time>2026-06-28T09:44:20.000Z</time>
      </trkpt>
      <trkpt lat="42.71955" lon="1.44693">
        <ele>1233</ele>
        <time>2026-06-28T09:44:21.000Z</time>
      </trkpt>
      <trkpt lat="42.71953" lon="1.44694">
        <ele>1233</ele>
        <time>2026-06-28T09:44:22.000Z</time>
      </trkpt>
      <trkpt lat="42.71953" lon="1.44694">
        <ele>1233</ele>
        <time>2026-06-28T09:44:23.000Z</time>
      </trkpt>
      <trkpt lat="42.71952" lon="1.44695">
        <ele>1233</ele>
        <time>2026-06-28T09:44:24.000Z</time>
      </trkpt>
      <trkpt lat="42.71952" lon="1.44694">
        <ele>1233</ele>
        <time>2026-06-28T09:44:25.000Z</time>
      </trkpt>
      <trkpt lat="42.71951" lon="1.44695">
        <ele>1233</ele>
        <time>2026-06-28T09:44:26.000Z</time>
      </trkpt>
      <trkpt lat="42.71949" lon="1.44696">
        <ele>1232</ele>
        <time>2026-06-28T09:44:27.000Z</time>
      </trkpt>
      <trkpt lat="42.71948" lon="1.44696">
        <ele>1232</ele>
        <time>2026-06-28T09:44:28.000Z</time>
      </trkpt>
      <trkpt lat="42.71947" lon="1.44697">
        <ele>1232</ele>
        <time>2026-06-28T09:44:29.000Z</time>
      </trkpt>
      <trkpt lat="42.71945" lon="1.44696">
        <ele>1232</ele>
        <time>2026-06-28T09:44:30.000Z</time>
      </trkpt>
      <trkpt lat="42.71943" lon="1.44695">
        <ele>1231</ele>
        <time>2026-06-28T09:44:31.000Z</time>
      </trkpt>
      <trkpt lat="42.71942" lon="1.44693">
        <ele>1231</ele>
        <time>2026-06-28T09:44:32.000Z</time>
      </trkpt>
      <trkpt lat="42.71941" lon="1.44691">
        <ele>1231</ele>
        <time>2026-06-28T09:44:33.000Z</time>
      </trkpt>
      <trkpt lat="42.71941" lon="1.44689">
        <ele>1230</ele>
        <time>2026-06-28T09:44:34.000Z</time>
      </trkpt>
      <trkpt lat="42.7194" lon="1.44686">
        <ele>1230</ele>
        <time>2026-06-28T09:44:35.000Z</time>
      </trkpt>
      <trkpt lat="42.7194" lon="1.44683">
        <ele>1230</ele>
        <time>2026-06-28T09:44:36.000Z</time>
      </trkpt>
      <trkpt lat="42.71939" lon="1.4468">
        <ele>1229</ele>
        <time>2026-06-28T09:44:37.000Z</time>
      </trkpt>
      <trkpt lat="42.71939" lon="1.44677">
        <ele>1229</ele>
        <time>2026-06-28T09:44:38.000Z</time>
      </trkpt>
      <trkpt lat="42.71938" lon="1.44675">
        <ele>1229</ele>
        <time>2026-06-28T09:44:39.000Z</time>
      </trkpt>
      <trkpt lat="42.71938" lon="1.44673">
        <ele>1229</ele>
        <time>2026-06-28T09:44:40.000Z</time>
      </trkpt>
      <trkpt lat="42.71937" lon="1.44671">
        <ele>1229</ele>
        <time>2026-06-28T09:44:41.000Z</time>
      </trkpt>
      <trkpt lat="42.71937" lon="1.44668">
        <ele>1230</ele>
        <time>2026-06-28T09:44:42.000Z</time>
      </trkpt>
      <trkpt lat="42.71937" lon="1.44666">
        <ele>1230</ele>
        <time>2026-06-28T09:44:43.000Z</time>
      </trkpt>
      <trkpt lat="42.71937" lon="1.44664">
        <ele>1230</ele>
        <time>2026-06-28T09:44:44.000Z</time>
      </trkpt>
      <trkpt lat="42.71937" lon="1.44662">
        <ele>1231</ele>
        <time>2026-06-28T09:44:45.000Z</time>
      </trkpt>
      <trkpt lat="42.71937" lon="1.4466">
        <ele>1231</ele>
        <time>2026-06-28T09:44:46.000Z</time>
      </trkpt>
      <trkpt lat="42.71937" lon="1.44657">
        <ele>1231</ele>
        <time>2026-06-28T09:44:47.000Z</time>
      </trkpt>
      <trkpt lat="42.71937" lon="1.44654">
        <ele>1231</ele>
        <time>2026-06-28T09:44:48.000Z</time>
      </trkpt>
      <trkpt lat="42.71938" lon="1.4465">
        <ele>1230</ele>
        <time>2026-06-28T09:44:49.000Z</time>
      </trkpt>
      <trkpt lat="42.71937" lon="1.44647">
        <ele>1230</ele>
        <time>2026-06-28T09:44:50.000Z</time>
      </trkpt>
      <trkpt lat="42.71937" lon="1.44644">
        <ele>1229</ele>
        <time>2026-06-28T09:44:51.000Z</time>
      </trkpt>
      <trkpt lat="42.71937" lon="1.4464">
        <ele>1229</ele>
        <time>2026-06-28T09:44:52.000Z</time>
      </trkpt>
      <trkpt lat="42.71937" lon="1.44635">
        <ele>1229</ele>
        <time>2026-06-28T09:44:53.000Z</time>
      </trkpt>
      <trkpt lat="42.71936" lon="1.44629">
        <ele>1228</ele>
        <time>2026-06-28T09:44:54.000Z</time>
      </trkpt>
      <trkpt lat="42.71935" lon="1.44622">
        <ele>1228</ele>
        <time>2026-06-28T09:44:55.000Z</time>
      </trkpt>
      <trkpt lat="42.71934" lon="1.44614">
        <ele>1227</ele>
        <time>2026-06-28T09:44:56.000Z</time>
      </trkpt>
      <trkpt lat="42.71933" lon="1.44605">
        <ele>1226</ele>
        <time>2026-06-28T09:44:57.000Z</time>
      </trkpt>
      <trkpt lat="42.71932" lon="1.44596">
        <ele>1226</ele>
        <time>2026-06-28T09:44:58.000Z</time>
      </trkpt>
      <trkpt lat="42.7193" lon="1.44586">
        <ele>1226</ele>
        <time>2026-06-28T09:44:59.000Z</time>
      </trkpt>
      <trkpt lat="42.71927" lon="1.44576">
        <ele>1226</ele>
        <time>2026-06-28T09:45:00.000Z</time>
      </trkpt>
      <trkpt lat="42.71924" lon="1.44565">
        <ele>1226</ele>
        <time>2026-06-28T09:45:01.000Z</time>
      </trkpt>
      <trkpt lat="42.71921" lon="1.44554">
        <ele>1226</ele>
        <time>2026-06-28T09:45:02.000Z</time>
      </trkpt>
      <trkpt lat="42.71917" lon="1.44543">
        <ele>1226</ele>
        <time>2026-06-28T09:45:03.000Z</time>
      </trkpt>
      <trkpt lat="42.71912" lon="1.44533">
        <ele>1225</ele>
        <time>2026-06-28T09:45:04.000Z</time>
      </trkpt>
      <trkpt lat="42.71907" lon="1.44522">
        <ele>1223</ele>
        <time>2026-06-28T09:45:05.000Z</time>
      </trkpt>
      <trkpt lat="42.71902" lon="1.4451">
        <ele>1222</ele>
        <time>2026-06-28T09:45:06.000Z</time>
      </trkpt>
      <trkpt lat="42.71898" lon="1.445">
        <ele>1220</ele>
        <time>2026-06-28T09:45:07.000Z</time>
      </trkpt>
      <trkpt lat="42.71895" lon="1.4449">
        <ele>1219</ele>
        <time>2026-06-28T09:45:08.000Z</time>
      </trkpt>
      <trkpt lat="42.71892" lon="1.4448">
        <ele>1219</ele>
        <time>2026-06-28T09:45:09.000Z</time>
      </trkpt>
      <trkpt lat="42.7189" lon="1.44469">
        <ele>1220</ele>
        <time>2026-06-28T09:45:10.000Z</time>
      </trkpt>
      <trkpt lat="42.71888" lon="1.44458">
        <ele>1220</ele>
        <time>2026-06-28T09:45:11.000Z</time>
      </trkpt>
      <trkpt lat="42.71886" lon="1.44446">
        <ele>1220</ele>
        <time>2026-06-28T09:45:12.000Z</time>
      </trkpt>
      <trkpt lat="42.71884" lon="1.44433">
        <ele>1219</ele>
        <time>2026-06-28T09:45:13.000Z</time>
      </trkpt>
      <trkpt lat="42.71882" lon="1.4442">
        <ele>1219</ele>
        <time>2026-06-28T09:45:14.000Z</time>
      </trkpt>
      <trkpt lat="42.71881" lon="1.44407">
        <ele>1219</ele>
        <time>2026-06-28T09:45:15.000Z</time>
      </trkpt>
      <trkpt lat="42.71879" lon="1.44394">
        <ele>1219</ele>
        <time>2026-06-28T09:45:16.000Z</time>
      </trkpt>
      <trkpt lat="42.71875" lon="1.44381">
        <ele>1218</ele>
        <time>2026-06-28T09:45:17.000Z</time>
      </trkpt>
      <trkpt lat="42.71872" lon="1.44369">
        <ele>1218</ele>
        <time>2026-06-28T09:45:18.000Z</time>
      </trkpt>
      <trkpt lat="42.71869" lon="1.44357">
        <ele>1217</ele>
        <time>2026-06-28T09:45:19.000Z</time>
      </trkpt>
      <trkpt lat="42.71867" lon="1.44346">
        <ele>1217</ele>
        <time>2026-06-28T09:45:20.000Z</time>
      </trkpt>
      <trkpt lat="42.71865" lon="1.44335">
        <ele>1217</ele>
        <time>2026-06-28T09:45:21.000Z</time>
      </trkpt>
      <trkpt lat="42.71863" lon="1.44324">
        <ele>1216</ele>
        <time>2026-06-28T09:45:22.000Z</time>
      </trkpt>
      <trkpt lat="42.71861" lon="1.44313">
        <ele>1216</ele>
        <time>2026-06-28T09:45:23.000Z</time>
      </trkpt>
      <trkpt lat="42.71859" lon="1.44303">
        <ele>1216</ele>
        <time>2026-06-28T09:45:24.000Z</time>
      </trkpt>
      <trkpt lat="42.71856" lon="1.44291">
        <ele>1215</ele>
        <time>2026-06-28T09:45:25.000Z</time>
      </trkpt>
      <trkpt lat="42.71853" lon="1.44281">
        <ele>1215</ele>
        <time>2026-06-28T09:45:26.000Z</time>
      </trkpt>
      <trkpt lat="42.71849" lon="1.4427">
        <ele>1215</ele>
        <time>2026-06-28T09:45:27.000Z</time>
      </trkpt>
      <trkpt lat="42.71847" lon="1.44258">
        <ele>1214</ele>
        <time>2026-06-28T09:45:28.000Z</time>
      </trkpt>
      <trkpt lat="42.71843" lon="1.44248">
        <ele>1214</ele>
        <time>2026-06-28T09:45:29.000Z</time>
      </trkpt>
      <trkpt lat="42.7184" lon="1.44236">
        <ele>1214</ele>
        <time>2026-06-28T09:45:30.000Z</time>
      </trkpt>
      <trkpt lat="42.71836" lon="1.44225">
        <ele>1214</ele>
        <time>2026-06-28T09:45:31.000Z</time>
      </trkpt>
      <trkpt lat="42.71834" lon="1.44213">
        <ele>1214</ele>
        <time>2026-06-28T09:45:32.000Z</time>
      </trkpt>
      <trkpt lat="42.71831" lon="1.44199">
        <ele>1213</ele>
        <time>2026-06-28T09:45:33.000Z</time>
      </trkpt>
      <trkpt lat="42.7183" lon="1.44185">
        <ele>1212</ele>
        <time>2026-06-28T09:45:34.000Z</time>
      </trkpt>
      <trkpt lat="42.71828" lon="1.44171">
        <ele>1211</ele>
        <time>2026-06-28T09:45:35.000Z</time>
      </trkpt>
      <trkpt lat="42.71827" lon="1.44157">
        <ele>1211</ele>
        <time>2026-06-28T09:45:36.000Z</time>
      </trkpt>
      <trkpt lat="42.71827" lon="1.44143">
        <ele>1210</ele>
        <time>2026-06-28T09:45:37.000Z</time>
      </trkpt>
      <trkpt lat="42.71828" lon="1.4413">
        <ele>1209</ele>
        <time>2026-06-28T09:45:38.000Z</time>
      </trkpt>
      <trkpt lat="42.71829" lon="1.44117">
        <ele>1208</ele>
        <time>2026-06-28T09:45:39.000Z</time>
      </trkpt>
      <trkpt lat="42.71832" lon="1.44105">
        <ele>1208</ele>
        <time>2026-06-28T09:45:40.000Z</time>
      </trkpt>
      <trkpt lat="42.71833" lon="1.44094">
        <ele>1207</ele>
        <time>2026-06-28T09:45:41.000Z</time>
      </trkpt>
      <trkpt lat="42.71834" lon="1.44082">
        <ele>1207</ele>
        <time>2026-06-28T09:45:42.000Z</time>
      </trkpt>
      <trkpt lat="42.71833" lon="1.44071">
        <ele>1206</ele>
        <time>2026-06-28T09:45:43.000Z</time>
      </trkpt>
      <trkpt lat="42.71833" lon="1.4406">
        <ele>1206</ele>
        <time>2026-06-28T09:45:44.000Z</time>
      </trkpt>
      <trkpt lat="42.71832" lon="1.44049">
        <ele>1206</ele>
        <time>2026-06-28T09:45:45.000Z</time>
      </trkpt>
      <trkpt lat="42.71832" lon="1.44038">
        <ele>1206</ele>
        <time>2026-06-28T09:45:46.000Z</time>
      </trkpt>
      <trkpt lat="42.71832" lon="1.44027">
        <ele>1205</ele>
        <time>2026-06-28T09:45:47.000Z</time>
      </trkpt>
      <trkpt lat="42.71831" lon="1.44016">
        <ele>1205</ele>
        <time>2026-06-28T09:45:48.000Z</time>
      </trkpt>
      <trkpt lat="42.71829" lon="1.44006">
        <ele>1204</ele>
        <time>2026-06-28T09:45:49.000Z</time>
      </trkpt>
      <trkpt lat="42.71828" lon="1.44">
        <ele>1204</ele>
        <time>2026-06-28T09:45:50.000Z</time>
      </trkpt>
      <trkpt lat="42.71826" lon="1.43995">
        <ele>1204</ele>
        <time>2026-06-28T09:45:51.000Z</time>
      </trkpt>
      <trkpt lat="42.71824" lon="1.43994">
        <ele>1204</ele>
        <time>2026-06-28T09:45:52.000Z</time>
      </trkpt>
      <trkpt lat="42.71819" lon="1.43997">
        <ele>1203</ele>
        <time>2026-06-28T09:45:53.000Z</time>
      </trkpt>
      <trkpt lat="42.71814" lon="1.44003">
        <ele>1203</ele>
        <time>2026-06-28T09:45:54.000Z</time>
      </trkpt>
      <trkpt lat="42.71812" lon="1.44013">
        <ele>1203</ele>
        <time>2026-06-28T09:45:55.000Z</time>
      </trkpt>
      <trkpt lat="42.71812" lon="1.44021">
        <ele>1202</ele>
        <time>2026-06-28T09:45:56.000Z</time>
      </trkpt>
      <trkpt lat="42.71811" lon="1.44029">
        <ele>1202</ele>
        <time>2026-06-28T09:45:57.000Z</time>
      </trkpt>
      <trkpt lat="42.71811" lon="1.44039">
        <ele>1202</ele>
        <time>2026-06-28T09:45:58.000Z</time>
      </trkpt>
      <trkpt lat="42.71811" lon="1.44047">
        <ele>1202</ele>
        <time>2026-06-28T09:45:59.000Z</time>
      </trkpt>
      <trkpt lat="42.7181" lon="1.44057">
        <ele>1202</ele>
        <time>2026-06-28T09:46:00.000Z</time>
      </trkpt>
      <trkpt lat="42.71809" lon="1.44067">
        <ele>1203</ele>
        <time>2026-06-28T09:46:01.000Z</time>
      </trkpt>
      <trkpt lat="42.71808" lon="1.44077">
        <ele>1202</ele>
        <time>2026-06-28T09:46:02.000Z</time>
      </trkpt>
      <trkpt lat="42.71807" lon="1.44087">
        <ele>1203</ele>
        <time>2026-06-28T09:46:03.000Z</time>
      </trkpt>
      <trkpt lat="42.71805" lon="1.44097">
        <ele>1203</ele>
        <time>2026-06-28T09:46:04.000Z</time>
      </trkpt>
      <trkpt lat="42.71803" lon="1.44105">
        <ele>1203</ele>
        <time>2026-06-28T09:46:05.000Z</time>
      </trkpt>
      <trkpt lat="42.71801" lon="1.44113">
        <ele>1203</ele>
        <time>2026-06-28T09:46:06.000Z</time>
      </trkpt>
      <trkpt lat="42.71798" lon="1.4412">
        <ele>1203</ele>
        <time>2026-06-28T09:46:07.000Z</time>
      </trkpt>
      <trkpt lat="42.71795" lon="1.44127">
        <ele>1202</ele>
        <time>2026-06-28T09:46:08.000Z</time>
      </trkpt>
      <trkpt lat="42.71791" lon="1.44134">
        <ele>1201</ele>
        <time>2026-06-28T09:46:09.000Z</time>
      </trkpt>
      <trkpt lat="42.71789" lon="1.44141">
        <ele>1201</ele>
        <time>2026-06-28T09:46:10.000Z</time>
      </trkpt>
      <trkpt lat="42.71787" lon="1.44148">
        <ele>1200</ele>
        <time>2026-06-28T09:46:11.000Z</time>
      </trkpt>
      <trkpt lat="42.71785" lon="1.44154">
        <ele>1199</ele>
        <time>2026-06-28T09:46:12.000Z</time>
      </trkpt>
      <trkpt lat="42.71784" lon="1.44162">
        <ele>1199</ele>
        <time>2026-06-28T09:46:13.000Z</time>
      </trkpt>
      <trkpt lat="42.71784" lon="1.44168">
        <ele>1198</ele>
        <time>2026-06-28T09:46:14.000Z</time>
      </trkpt>
      <trkpt lat="42.71783" lon="1.44174">
        <ele>1198</ele>
        <time>2026-06-28T09:46:15.000Z</time>
      </trkpt>
      <trkpt lat="42.71783" lon="1.44181">
        <ele>1198</ele>
        <time>2026-06-28T09:46:16.000Z</time>
      </trkpt>
      <trkpt lat="42.71783" lon="1.44187">
        <ele>1198</ele>
        <time>2026-06-28T09:46:17.000Z</time>
      </trkpt>
      <trkpt lat="42.71783" lon="1.44195">
        <ele>1197</ele>
        <time>2026-06-28T09:46:18.000Z</time>
      </trkpt>
      <trkpt lat="42.71783" lon="1.44202">
        <ele>1197</ele>
        <time>2026-06-28T09:46:19.000Z</time>
      </trkpt>
      <trkpt lat="42.71782" lon="1.44209">
        <ele>1198</ele>
        <time>2026-06-28T09:46:20.000Z</time>
      </trkpt>
      <trkpt lat="42.71782" lon="1.44217">
        <ele>1198</ele>
        <time>2026-06-28T09:46:21.000Z</time>
      </trkpt>
      <trkpt lat="42.71782" lon="1.44226">
        <ele>1198</ele>
        <time>2026-06-28T09:46:22.000Z</time>
      </trkpt>
      <trkpt lat="42.71782" lon="1.44234">
        <ele>1198</ele>
        <time>2026-06-28T09:46:23.000Z</time>
      </trkpt>
      <trkpt lat="42.71781" lon="1.44244">
        <ele>1197</ele>
        <time>2026-06-28T09:46:24.000Z</time>
      </trkpt>
      <trkpt lat="42.7178" lon="1.44254">
        <ele>1196</ele>
        <time>2026-06-28T09:46:25.000Z</time>
      </trkpt>
      <trkpt lat="42.71778" lon="1.44263">
        <ele>1195</ele>
        <time>2026-06-28T09:46:26.000Z</time>
      </trkpt>
      <trkpt lat="42.71776" lon="1.44272">
        <ele>1194</ele>
        <time>2026-06-28T09:46:27.000Z</time>
      </trkpt>
      <trkpt lat="42.71774" lon="1.44281">
        <ele>1193</ele>
        <time>2026-06-28T09:46:28.000Z</time>
      </trkpt>
      <trkpt lat="42.71772" lon="1.44289">
        <ele>1192</ele>
        <time>2026-06-28T09:46:29.000Z</time>
      </trkpt>
      <trkpt lat="42.71769" lon="1.44297">
        <ele>1191</ele>
        <time>2026-06-28T09:46:30.000Z</time>
      </trkpt>
      <trkpt lat="42.71767" lon="1.44304">
        <ele>1190</ele>
        <time>2026-06-28T09:46:31.000Z</time>
      </trkpt>
      <trkpt lat="42.71764" lon="1.44312">
        <ele>1188</ele>
        <time>2026-06-28T09:46:32.000Z</time>
      </trkpt>
      <trkpt lat="42.71762" lon="1.4432">
        <ele>1188</ele>
        <time>2026-06-28T09:46:33.000Z</time>
      </trkpt>
      <trkpt lat="42.71759" lon="1.44328">
        <ele>1187</ele>
        <time>2026-06-28T09:46:34.000Z</time>
      </trkpt>
      <trkpt lat="42.71757" lon="1.44336">
        <ele>1186</ele>
        <time>2026-06-28T09:46:35.000Z</time>
      </trkpt>
      <trkpt lat="42.71755" lon="1.44345">
        <ele>1184</ele>
        <time>2026-06-28T09:46:36.000Z</time>
      </trkpt>
      <trkpt lat="42.71753" lon="1.44356">
        <ele>1183</ele>
        <time>2026-06-28T09:46:37.000Z</time>
      </trkpt>
      <trkpt lat="42.71753" lon="1.44367">
        <ele>1182</ele>
        <time>2026-06-28T09:46:38.000Z</time>
      </trkpt>
      <trkpt lat="42.71753" lon="1.44378">
        <ele>1181</ele>
        <time>2026-06-28T09:46:39.000Z</time>
      </trkpt>
      <trkpt lat="42.71753" lon="1.44391">
        <ele>1180</ele>
        <time>2026-06-28T09:46:40.000Z</time>
      </trkpt>
      <trkpt lat="42.71754" lon="1.44404">
        <ele>1179</ele>
        <time>2026-06-28T09:46:41.000Z</time>
      </trkpt>
      <trkpt lat="42.71755" lon="1.44417">
        <ele>1178</ele>
        <time>2026-06-28T09:46:42.000Z</time>
      </trkpt>
      <trkpt lat="42.71757" lon="1.44429">
        <ele>1177</ele>
        <time>2026-06-28T09:46:43.000Z</time>
      </trkpt>
      <trkpt lat="42.71758" lon="1.44441">
        <ele>1176</ele>
        <time>2026-06-28T09:46:44.000Z</time>
      </trkpt>
      <trkpt lat="42.71759" lon="1.44454">
        <ele>1175</ele>
        <time>2026-06-28T09:46:45.000Z</time>
      </trkpt>
      <trkpt lat="42.7176" lon="1.44466">
        <ele>1174</ele>
        <time>2026-06-28T09:46:46.000Z</time>
      </trkpt>
      <trkpt lat="42.71761" lon="1.44477">
        <ele>1174</ele>
        <time>2026-06-28T09:46:47.000Z</time>
      </trkpt>
      <trkpt lat="42.71762" lon="1.44488">
        <ele>1173</ele>
        <time>2026-06-28T09:46:48.000Z</time>
      </trkpt>
      <trkpt lat="42.71764" lon="1.44498">
        <ele>1172</ele>
        <time>2026-06-28T09:46:49.000Z</time>
      </trkpt>
      <trkpt lat="42.71765" lon="1.44507">
        <ele>1172</ele>
        <time>2026-06-28T09:46:50.000Z</time>
      </trkpt>
      <trkpt lat="42.71767" lon="1.44516">
        <ele>1171</ele>
        <time>2026-06-28T09:46:51.000Z</time>
      </trkpt>
      <trkpt lat="42.71769" lon="1.44525">
        <ele>1170</ele>
        <time>2026-06-28T09:46:52.000Z</time>
      </trkpt>
      <trkpt lat="42.71771" lon="1.44532">
        <ele>1170</ele>
        <time>2026-06-28T09:46:53.000Z</time>
      </trkpt>
      <trkpt lat="42.71774" lon="1.4454">
        <ele>1169</ele>
        <time>2026-06-28T09:46:54.000Z</time>
      </trkpt>
      <trkpt lat="42.71776" lon="1.44548">
        <ele>1167</ele>
        <time>2026-06-28T09:46:55.000Z</time>
      </trkpt>
      <trkpt lat="42.71779" lon="1.44554">
        <ele>1167</ele>
        <time>2026-06-28T09:46:56.000Z</time>
      </trkpt>
      <trkpt lat="42.7178" lon="1.44561">
        <ele>1166</ele>
        <time>2026-06-28T09:46:57.000Z</time>
      </trkpt>
      <trkpt lat="42.71783" lon="1.44566">
        <ele>1165</ele>
        <time>2026-06-28T09:46:58.000Z</time>
      </trkpt>
      <trkpt lat="42.71786" lon="1.44572">
        <ele>1164</ele>
        <time>2026-06-28T09:46:59.000Z</time>
      </trkpt>
      <trkpt lat="42.71788" lon="1.44578">
        <ele>1163</ele>
        <time>2026-06-28T09:47:00.000Z</time>
      </trkpt>
      <trkpt lat="42.71791" lon="1.44582">
        <ele>1163</ele>
        <time>2026-06-28T09:47:01.000Z</time>
      </trkpt>
      <trkpt lat="42.71793" lon="1.44587">
        <ele>1163</ele>
        <time>2026-06-28T09:47:02.000Z</time>
      </trkpt>
      <trkpt lat="42.71795" lon="1.44591">
        <ele>1163</ele>
        <time>2026-06-28T09:47:03.000Z</time>
      </trkpt>
      <trkpt lat="42.71797" lon="1.44596">
        <ele>1163</ele>
        <time>2026-06-28T09:47:04.000Z</time>
      </trkpt>
      <trkpt lat="42.718" lon="1.44601">
        <ele>1162</ele>
        <time>2026-06-28T09:47:05.000Z</time>
      </trkpt>
      <trkpt lat="42.71801" lon="1.44604">
        <ele>1162</ele>
        <time>2026-06-28T09:47:06.000Z</time>
      </trkpt>
      <trkpt lat="42.71804" lon="1.44608">
        <ele>1162</ele>
        <time>2026-06-28T09:47:07.000Z</time>
      </trkpt>
      <trkpt lat="42.71805" lon="1.44611">
        <ele>1162</ele>
        <time>2026-06-28T09:47:08.000Z</time>
      </trkpt>
      <trkpt lat="42.71807" lon="1.44614">
        <ele>1162</ele>
        <time>2026-06-28T09:47:09.000Z</time>
      </trkpt>
      <trkpt lat="42.71808" lon="1.44617">
        <ele>1162</ele>
        <time>2026-06-28T09:47:10.000Z</time>
      </trkpt>
      <trkpt lat="42.71809" lon="1.44618">
        <ele>1162</ele>
        <time>2026-06-28T09:47:11.000Z</time>
      </trkpt>
      <trkpt lat="42.7181" lon="1.44621">
        <ele>1162</ele>
        <time>2026-06-28T09:47:12.000Z</time>
      </trkpt>
      <trkpt lat="42.71811" lon="1.44622">
        <ele>1162</ele>
        <time>2026-06-28T09:47:13.000Z</time>
      </trkpt>
      <trkpt lat="42.71811" lon="1.44623">
        <ele>1162</ele>
        <time>2026-06-28T09:47:14.000Z</time>
      </trkpt>
      <trkpt lat="42.71812" lon="1.44624">
        <ele>1162</ele>
        <time>2026-06-28T09:47:15.000Z</time>
      </trkpt>
      <trkpt lat="42.71813" lon="1.44625">
        <ele>1162</ele>
        <time>2026-06-28T09:47:16.000Z</time>
      </trkpt>
      <trkpt lat="42.71813" lon="1.44625">
        <ele>1162</ele>
        <time>2026-06-28T09:47:17.000Z</time>
      </trkpt>
      <trkpt lat="42.71814" lon="1.44626">
        <ele>1161</ele>
        <time>2026-06-28T09:47:18.000Z</time>
      </trkpt>
      <trkpt lat="42.71815" lon="1.44626">
        <ele>1161</ele>
        <time>2026-06-28T09:47:19.000Z</time>
      </trkpt>
      <trkpt lat="42.71815" lon="1.44627">
        <ele>1161</ele>
        <time>2026-06-28T09:47:20.000Z</time>
      </trkpt>
      <trkpt lat="42.71815" lon="1.44627">
        <ele>1161</ele>
        <time>2026-06-28T09:47:21.000Z</time>
      </trkpt>
      <trkpt lat="42.71815" lon="1.44627">
        <ele>1161</ele>
        <time>2026-06-28T09:47:22.000Z</time>
      </trkpt>
      <trkpt lat="42.71817" lon="1.44632">
        <ele>1159</ele>
        <time>2026-06-28T09:47:36.000Z</time>
      </trkpt>
      <trkpt lat="42.71817" lon="1.44633">
        <ele>1159</ele>
        <time>2026-06-28T09:47:37.000Z</time>
      </trkpt>
      <trkpt lat="42.71817" lon="1.44635">
        <ele>1159</ele>
        <time>2026-06-28T09:47:38.000Z</time>
      </trkpt>
      <trkpt lat="42.71816" lon="1.44636">
        <ele>1158</ele>
        <time>2026-06-28T09:47:39.000Z</time>
      </trkpt>
      <trkpt lat="42.71816" lon="1.44637">
        <ele>1158</ele>
        <time>2026-06-28T09:47:40.000Z</time>
      </trkpt>
      <trkpt lat="42.71816" lon="1.44638">
        <ele>1158</ele>
        <time>2026-06-28T09:47:41.000Z</time>
      </trkpt>
      <trkpt lat="42.71815" lon="1.44639">
        <ele>1158</ele>
        <time>2026-06-28T09:47:42.000Z</time>
      </trkpt>
      <trkpt lat="42.71814" lon="1.44639">
        <ele>1158</ele>
        <time>2026-06-28T09:47:43.000Z</time>
      </trkpt>
      <trkpt lat="42.71814" lon="1.44639">
        <ele>1158</ele>
        <time>2026-06-28T09:47:44.000Z</time>
      </trkpt>
      <trkpt lat="42.71814" lon="1.4464">
        <ele>1158</ele>
        <time>2026-06-28T09:47:45.000Z</time>
      </trkpt>
      <trkpt lat="42.71813" lon="1.4464">
        <ele>1158</ele>
        <time>2026-06-28T09:47:46.000Z</time>
      </trkpt>
      <trkpt lat="42.71813" lon="1.4464">
        <ele>1157</ele>
        <time>2026-06-28T09:47:47.000Z</time>
      </trkpt>
      <trkpt lat="42.71812" lon="1.44641">
        <ele>1157</ele>
        <time>2026-06-28T09:47:48.000Z</time>
      </trkpt>
      <trkpt lat="42.71811" lon="1.44642">
        <ele>1157</ele>
        <time>2026-06-28T09:47:49.000Z</time>
      </trkpt>
      <trkpt lat="42.7181" lon="1.44642">
        <ele>1157</ele>
        <time>2026-06-28T09:47:50.000Z</time>
      </trkpt>
      <trkpt lat="42.71809" lon="1.44643">
        <ele>1158</ele>
        <time>2026-06-28T09:47:51.000Z</time>
      </trkpt>
      <trkpt lat="42.71808" lon="1.44643">
        <ele>1157</ele>
        <time>2026-06-28T09:47:52.000Z</time>
      </trkpt>
      <trkpt lat="42.71807" lon="1.44644">
        <ele>1157</ele>
        <time>2026-06-28T09:47:53.000Z</time>
      </trkpt>
      <trkpt lat="42.71807" lon="1.44646">
        <ele>1157</ele>
        <time>2026-06-28T09:47:54.000Z</time>
      </trkpt>
      <trkpt lat="42.71806" lon="1.44647">
        <ele>1157</ele>
        <time>2026-06-28T09:47:55.000Z</time>
      </trkpt>
      <trkpt lat="42.71806" lon="1.44648">
        <ele>1157</ele>
        <time>2026-06-28T09:47:56.000Z</time>
      </trkpt>
      <trkpt lat="42.71805" lon="1.44649">
        <ele>1157</ele>
        <time>2026-06-28T09:47:57.000Z</time>
      </trkpt>
      <trkpt lat="42.71805" lon="1.44649">
        <ele>1157</ele>
        <time>2026-06-28T09:47:58.000Z</time>
      </trkpt>
      <trkpt lat="42.71804" lon="1.4465">
        <ele>1157</ele>
        <time>2026-06-28T09:47:59.000Z</time>
      </trkpt>
      <trkpt lat="42.71804" lon="1.4465">
        <ele>1156</ele>
        <time>2026-06-28T09:48:00.000Z</time>
      </trkpt>
      <trkpt lat="42.71803" lon="1.44651">
        <ele>1156</ele>
        <time>2026-06-28T09:48:01.000Z</time>
      </trkpt>
      <trkpt lat="42.71803" lon="1.44652">
        <ele>1156</ele>
        <time>2026-06-28T09:48:02.000Z</time>
      </trkpt>
      <trkpt lat="42.71803" lon="1.44652">
        <ele>1156</ele>
        <time>2026-06-28T09:48:03.000Z</time>
      </trkpt>
      <trkpt lat="42.71803" lon="1.44653">
        <ele>1156</ele>
        <time>2026-06-28T09:48:04.000Z</time>
      </trkpt>
      <trkpt lat="42.71802" lon="1.44653">
        <ele>1156</ele>
        <time>2026-06-28T09:48:05.000Z</time>
      </trkpt>
      <trkpt lat="42.71802" lon="1.44653">
        <ele>1156</ele>
        <time>2026-06-28T09:48:06.000Z</time>
      </trkpt>
      <trkpt lat="42.71802" lon="1.44654">
        <ele>1156</ele>
        <time>2026-06-28T09:48:07.000Z</time>
      </trkpt>
      <trkpt lat="42.71802" lon="1.44655">
        <ele>1156</ele>
        <time>2026-06-28T09:48:08.000Z</time>
      </trkpt>
      <trkpt lat="42.71802" lon="1.44656">
        <ele>1156</ele>
        <time>2026-06-28T09:48:09.000Z</time>
      </trkpt>
      <trkpt lat="42.71802" lon="1.44657">
        <ele>1156</ele>
        <time>2026-06-28T09:48:10.000Z</time>
      </trkpt>
      <trkpt lat="42.71801" lon="1.44658">
        <ele>1156</ele>
        <time>2026-06-28T09:48:11.000Z</time>
      </trkpt>
      <trkpt lat="42.71801" lon="1.44658">
        <ele>1155</ele>
        <time>2026-06-28T09:48:12.000Z</time>
      </trkpt>
      <trkpt lat="42.71801" lon="1.44659">
        <ele>1155</ele>
        <time>2026-06-28T09:48:13.000Z</time>
      </trkpt>
      <trkpt lat="42.718" lon="1.4466">
        <ele>1155</ele>
        <time>2026-06-28T09:48:14.000Z</time>
      </trkpt>
      <trkpt lat="42.718" lon="1.44661">
        <ele>1155</ele>
        <time>2026-06-28T09:48:15.000Z</time>
      </trkpt>
      <trkpt lat="42.71799" lon="1.44661">
        <ele>1154</ele>
        <time>2026-06-28T09:48:16.000Z</time>
      </trkpt>
      <trkpt lat="42.71799" lon="1.44662">
        <ele>1153</ele>
        <time>2026-06-28T09:48:17.000Z</time>
      </trkpt>
      <trkpt lat="42.71799" lon="1.44662">
        <ele>1154</ele>
        <time>2026-06-28T09:48:18.000Z</time>
      </trkpt>
      <trkpt lat="42.71798" lon="1.44662">
        <ele>1154</ele>
        <time>2026-06-28T09:48:19.000Z</time>
      </trkpt>
      <trkpt lat="42.71798" lon="1.44662">
        <ele>1153</ele>
        <time>2026-06-28T09:48:20.000Z</time>
      </trkpt>
      <trkpt lat="42.71797" lon="1.44662">
        <ele>1153</ele>
        <time>2026-06-28T09:48:21.000Z</time>
      </trkpt>
      <trkpt lat="42.71796" lon="1.44663">
        <ele>1153</ele>
        <time>2026-06-28T09:48:22.000Z</time>
      </trkpt>
      <trkpt lat="42.71796" lon="1.44664">
        <ele>1153</ele>
        <time>2026-06-28T09:48:23.000Z</time>
      </trkpt>
      <trkpt lat="42.71797" lon="1.44664">
        <ele>1153</ele>
        <time>2026-06-28T09:48:24.000Z</time>
      </trkpt>
      <trkpt lat="42.71796" lon="1.44664">
        <ele>1153</ele>
        <time>2026-06-28T09:48:25.000Z</time>
      </trkpt>
      <trkpt lat="42.71796" lon="1.44666">
        <ele>1152</ele>
        <time>2026-06-28T09:48:26.000Z</time>
      </trkpt>
      <trkpt lat="42.71795" lon="1.44667">
        <ele>1151</ele>
        <time>2026-06-28T09:48:27.000Z</time>
      </trkpt>
      <trkpt lat="42.71794" lon="1.44669">
        <ele>1151</ele>
        <time>2026-06-28T09:48:28.000Z</time>
      </trkpt>
      <trkpt lat="42.71794" lon="1.4467">
        <ele>1151</ele>
        <time>2026-06-28T09:48:29.000Z</time>
      </trkpt>
      <trkpt lat="42.71793" lon="1.44673">
        <ele>1151</ele>
        <time>2026-06-28T09:48:30.000Z</time>
      </trkpt>
      <trkpt lat="42.71793" lon="1.44676">
        <ele>1151</ele>
        <time>2026-06-28T09:48:31.000Z</time>
      </trkpt>
      <trkpt lat="42.71793" lon="1.44679">
        <ele>1151</ele>
        <time>2026-06-28T09:48:32.000Z</time>
      </trkpt>
      <trkpt lat="42.71793" lon="1.44684">
        <ele>1151</ele>
        <time>2026-06-28T09:48:33.000Z</time>
      </trkpt>
      <trkpt lat="42.71794" lon="1.44691">
        <ele>1151</ele>
        <time>2026-06-28T09:48:34.000Z</time>
      </trkpt>
      <trkpt lat="42.71794" lon="1.44697">
        <ele>1150</ele>
        <time>2026-06-28T09:48:35.000Z</time>
      </trkpt>
      <trkpt lat="42.71794" lon="1.44703">
        <ele>1152</ele>
        <time>2026-06-28T09:48:36.000Z</time>
      </trkpt>
      <trkpt lat="42.71793" lon="1.44707">
        <ele>1152</ele>
        <time>2026-06-28T09:48:37.000Z</time>
      </trkpt>
      <trkpt lat="42.71792" lon="1.44712">
        <ele>1154</ele>
        <time>2026-06-28T09:48:38.000Z</time>
      </trkpt>
      <trkpt lat="42.71792" lon="1.44716">
        <ele>1154</ele>
        <time>2026-06-28T09:48:39.000Z</time>
      </trkpt>
      <trkpt lat="42.71791" lon="1.44717">
        <ele>1154</ele>
        <time>2026-06-28T09:48:40.000Z</time>
      </trkpt>
      <trkpt lat="42.71791" lon="1.4472">
        <ele>1154</ele>
        <time>2026-06-28T09:48:41.000Z</time>
      </trkpt>
      <trkpt lat="42.7179" lon="1.4472">
        <ele>1154</ele>
        <time>2026-06-28T09:48:42.000Z</time>
      </trkpt>
      <trkpt lat="42.7179" lon="1.44721">
        <ele>1153</ele>
        <time>2026-06-28T09:48:43.000Z</time>
      </trkpt>
      <trkpt lat="42.71791" lon="1.44722">
        <ele>1151</ele>
        <time>2026-06-28T09:48:44.000Z</time>
      </trkpt>
      <trkpt lat="42.71792" lon="1.44723">
        <ele>1150</ele>
        <time>2026-06-28T09:48:45.000Z</time>
      </trkpt>
      <trkpt lat="42.71794" lon="1.44724">
        <ele>1147</ele>
        <time>2026-06-28T09:48:46.000Z</time>
      </trkpt>
      <trkpt lat="42.71795" lon="1.44724">
        <ele>1146</ele>
        <time>2026-06-28T09:48:47.000Z</time>
      </trkpt>
      <trkpt lat="42.71796" lon="1.44723">
        <ele>1145</ele>
        <time>2026-06-28T09:48:48.000Z</time>
      </trkpt>
      <trkpt lat="42.71796" lon="1.44723">
        <ele>1145</ele>
        <time>2026-06-28T09:48:49.000Z</time>
      </trkpt>
      <trkpt lat="42.71796" lon="1.44724">
        <ele>1144</ele>
        <time>2026-06-28T09:48:50.000Z</time>
      </trkpt>
      <trkpt lat="42.71796" lon="1.44727">
        <ele>1144</ele>
        <time>2026-06-28T09:48:51.000Z</time>
      </trkpt>
      <trkpt lat="42.71795" lon="1.44732">
        <ele>1144</ele>
        <time>2026-06-28T09:48:52.000Z</time>
      </trkpt>
      <trkpt lat="42.71794" lon="1.44739">
        <ele>1143</ele>
        <time>2026-06-28T09:48:53.000Z</time>
      </trkpt>
      <trkpt lat="42.71793" lon="1.44747">
        <ele>1142</ele>
        <time>2026-06-28T09:48:54.000Z</time>
      </trkpt>
      <trkpt lat="42.7179" lon="1.44754">
        <ele>1142</ele>
        <time>2026-06-28T09:48:55.000Z</time>
      </trkpt>
      <trkpt lat="42.71788" lon="1.4476">
        <ele>1141</ele>
        <time>2026-06-28T09:48:56.000Z</time>
      </trkpt>
      <trkpt lat="42.71785" lon="1.44767">
        <ele>1140</ele>
        <time>2026-06-28T09:48:57.000Z</time>
      </trkpt>
      <trkpt lat="42.71782" lon="1.44772">
        <ele>1140</ele>
        <time>2026-06-28T09:48:58.000Z</time>
      </trkpt>
      <trkpt lat="42.71779" lon="1.44777">
        <ele>1138</ele>
        <time>2026-06-28T09:48:59.000Z</time>
      </trkpt>
      <trkpt lat="42.71776" lon="1.44783">
        <ele>1135</ele>
        <time>2026-06-28T09:49:00.000Z</time>
      </trkpt>
      <trkpt lat="42.71774" lon="1.44786">
        <ele>1134</ele>
        <time>2026-06-28T09:49:01.000Z</time>
      </trkpt>
      <trkpt lat="42.71772" lon="1.4479">
        <ele>1134</ele>
        <time>2026-06-28T09:49:02.000Z</time>
      </trkpt>
      <trkpt lat="42.71771" lon="1.44794">
        <ele>1134</ele>
        <time>2026-06-28T09:49:03.000Z</time>
      </trkpt>
      <trkpt lat="42.7177" lon="1.44799">
        <ele>1133</ele>
        <time>2026-06-28T09:49:04.000Z</time>
      </trkpt>
      <trkpt lat="42.7177" lon="1.44804">
        <ele>1132</ele>
        <time>2026-06-28T09:49:05.000Z</time>
      </trkpt>
      <trkpt lat="42.71769" lon="1.44809">
        <ele>1132</ele>
        <time>2026-06-28T09:49:06.000Z</time>
      </trkpt>
      <trkpt lat="42.71769" lon="1.44813">
        <ele>1130</ele>
        <time>2026-06-28T09:49:07.000Z</time>
      </trkpt>
      <trkpt lat="42.71769" lon="1.44818">
        <ele>1129</ele>
        <time>2026-06-28T09:49:08.000Z</time>
      </trkpt>
      <trkpt lat="42.71769" lon="1.44821">
        <ele>1128</ele>
        <time>2026-06-28T09:49:09.000Z</time>
      </trkpt>
      <trkpt lat="42.71767" lon="1.44824">
        <ele>1128</ele>
        <time>2026-06-28T09:49:10.000Z</time>
      </trkpt>
      <trkpt lat="42.71766" lon="1.44825">
        <ele>1125</ele>
        <time>2026-06-28T09:49:11.000Z</time>
      </trkpt>
      <trkpt lat="42.71763" lon="1.44824">
        <ele>1124</ele>
        <time>2026-06-28T09:49:12.000Z</time>
      </trkpt>
      <trkpt lat="42.7176" lon="1.44823">
        <ele>1121</ele>
        <time>2026-06-28T09:49:13.000Z</time>
      </trkpt>
      <trkpt lat="42.71756" lon="1.44818">
        <ele>1119</ele>
        <time>2026-06-28T09:49:14.000Z</time>
      </trkpt>
      <trkpt lat="42.71754" lon="1.44814">
        <ele>1118</ele>
        <time>2026-06-28T09:49:15.000Z</time>
      </trkpt>
      <trkpt lat="42.71751" lon="1.44811">
        <ele>1117</ele>
        <time>2026-06-28T09:49:16.000Z</time>
      </trkpt>
      <trkpt lat="42.71751" lon="1.44809">
        <ele>1116</ele>
        <time>2026-06-28T09:49:17.000Z</time>
      </trkpt>
      <trkpt lat="42.7175" lon="1.44808">
        <ele>1115</ele>
        <time>2026-06-28T09:49:18.000Z</time>
      </trkpt>
      <trkpt lat="42.71749" lon="1.44807">
        <ele>1115</ele>
        <time>2026-06-28T09:49:19.000Z</time>
      </trkpt>
      <trkpt lat="42.71748" lon="1.44806">
        <ele>1114</ele>
        <time>2026-06-28T09:49:20.000Z</time>
      </trkpt>
      <trkpt lat="42.71747" lon="1.44805">
        <ele>1113</ele>
        <time>2026-06-28T09:49:21.000Z</time>
      </trkpt>
      <trkpt lat="42.71747" lon="1.44805">
        <ele>1112</ele>
        <time>2026-06-28T09:49:22.000Z</time>
      </trkpt>
      <trkpt lat="42.71746" lon="1.44805">
        <ele>1112</ele>
        <time>2026-06-28T09:49:23.000Z</time>
      </trkpt>
      <trkpt lat="42.71746" lon="1.44805">
        <ele>1111</ele>
        <time>2026-06-28T09:49:24.000Z</time>
      </trkpt>
      <trkpt lat="42.71746" lon="1.44807">
        <ele>1111</ele>
        <time>2026-06-28T09:49:25.000Z</time>
      </trkpt>
      <trkpt lat="42.71746" lon="1.44809">
        <ele>1111</ele>
        <time>2026-06-28T09:49:26.000Z</time>
      </trkpt>
      <trkpt lat="42.71746" lon="1.44809">
        <ele>1111</ele>
        <time>2026-06-28T09:49:27.000Z</time>
      </trkpt>
      <trkpt lat="42.71746" lon="1.4481">
        <ele>1111</ele>
        <time>2026-06-28T09:49:28.000Z</time>
      </trkpt>
      <trkpt lat="42.71745" lon="1.4481">
        <ele>1110</ele>
        <time>2026-06-28T09:49:29.000Z</time>
      </trkpt>
      <trkpt lat="42.71745" lon="1.4481">
        <ele>1110</ele>
        <time>2026-06-28T09:49:30.000Z</time>
      </trkpt>
      <trkpt lat="42.71746" lon="1.44809">
        <ele>1110</ele>
        <time>2026-06-28T09:49:31.000Z</time>
      </trkpt>
      <trkpt lat="42.71745" lon="1.44806">
        <ele>1108</ele>
        <time>2026-06-28T09:49:32.000Z</time>
      </trkpt>
      <trkpt lat="42.71744" lon="1.44802">
        <ele>1108</ele>
        <time>2026-06-28T09:49:33.000Z</time>
      </trkpt>
      <trkpt lat="42.71742" lon="1.44799">
        <ele>1107</ele>
        <time>2026-06-28T09:49:34.000Z</time>
      </trkpt>
      <trkpt lat="42.71739" lon="1.44797">
        <ele>1106</ele>
        <time>2026-06-28T09:49:35.000Z</time>
      </trkpt>
      <trkpt lat="42.71736" lon="1.44797">
        <ele>1106</ele>
        <time>2026-06-28T09:49:36.000Z</time>
      </trkpt>
      <trkpt lat="42.7173" lon="1.448">
        <ele>1106</ele>
        <time>2026-06-28T09:49:37.000Z</time>
      </trkpt>
      <trkpt lat="42.71724" lon="1.44802">
        <ele>1106</ele>
        <time>2026-06-28T09:49:38.000Z</time>
      </trkpt>
      <trkpt lat="42.71719" lon="1.44802">
        <ele>1105</ele>
        <time>2026-06-28T09:49:39.000Z</time>
      </trkpt>
      <trkpt lat="42.71716" lon="1.44802">
        <ele>1105</ele>
        <time>2026-06-28T09:49:40.000Z</time>
      </trkpt>
      <trkpt lat="42.71714" lon="1.44801">
        <ele>1105</ele>
        <time>2026-06-28T09:49:41.000Z</time>
      </trkpt>
      <trkpt lat="42.71712" lon="1.448">
        <ele>1106</ele>
        <time>2026-06-28T09:49:42.000Z</time>
      </trkpt>
      <trkpt lat="42.71712" lon="1.448">
        <ele>1105</ele>
        <time>2026-06-28T09:49:43.000Z</time>
      </trkpt>
      <trkpt lat="42.71713" lon="1.44801">
        <ele>1105</ele>
        <time>2026-06-28T09:49:44.000Z</time>
      </trkpt>
      <trkpt lat="42.71712" lon="1.44802">
        <ele>1104</ele>
        <time>2026-06-28T09:49:45.000Z</time>
      </trkpt>
      <trkpt lat="42.71711" lon="1.44802">
        <ele>1104</ele>
        <time>2026-06-28T09:49:46.000Z</time>
      </trkpt>
      <trkpt lat="42.7171" lon="1.44801">
        <ele>1103</ele>
        <time>2026-06-28T09:49:47.000Z</time>
      </trkpt>
      <trkpt lat="42.71708" lon="1.44803">
        <ele>1103</ele>
        <time>2026-06-28T09:49:48.000Z</time>
      </trkpt>
      <trkpt lat="42.71707" lon="1.44805">
        <ele>1103</ele>
        <time>2026-06-28T09:49:49.000Z</time>
      </trkpt>
      <trkpt lat="42.71708" lon="1.44808">
        <ele>1102</ele>
        <time>2026-06-28T09:49:50.000Z</time>
      </trkpt>
      <trkpt lat="42.71709" lon="1.44812">
        <ele>1101</ele>
        <time>2026-06-28T09:49:51.000Z</time>
      </trkpt>
      <trkpt lat="42.71711" lon="1.44815">
        <ele>1101</ele>
        <time>2026-06-28T09:49:52.000Z</time>
      </trkpt>
      <trkpt lat="42.71713" lon="1.44818">
        <ele>1101</ele>
        <time>2026-06-28T09:49:53.000Z</time>
      </trkpt>
      <trkpt lat="42.71714" lon="1.4482">
        <ele>1101</ele>
        <time>2026-06-28T09:49:54.000Z</time>
      </trkpt>
      <trkpt lat="42.71714" lon="1.44823">
        <ele>1101</ele>
        <time>2026-06-28T09:49:55.000Z</time>
      </trkpt>
      <trkpt lat="42.71715" lon="1.44827">
        <ele>1100</ele>
        <time>2026-06-28T09:49:56.000Z</time>
      </trkpt>
      <trkpt lat="42.71716" lon="1.4483">
        <ele>1100</ele>
        <time>2026-06-28T09:49:57.000Z</time>
      </trkpt>
      <trkpt lat="42.71716" lon="1.44833">
        <ele>1100</ele>
        <time>2026-06-28T09:49:58.000Z</time>
      </trkpt>
      <trkpt lat="42.71717" lon="1.44837">
        <ele>1100</ele>
        <time>2026-06-28T09:49:59.000Z</time>
      </trkpt>
      <trkpt lat="42.71718" lon="1.4484">
        <ele>1099</ele>
        <time>2026-06-28T09:50:00.000Z</time>
      </trkpt>
      <trkpt lat="42.71719" lon="1.44844">
        <ele>1099</ele>
        <time>2026-06-28T09:50:01.000Z</time>
      </trkpt>
      <trkpt lat="42.71721" lon="1.44848">
        <ele>1099</ele>
        <time>2026-06-28T09:50:02.000Z</time>
      </trkpt>
      <trkpt lat="42.71722" lon="1.44851">
        <ele>1099</ele>
        <time>2026-06-28T09:50:03.000Z</time>
      </trkpt>
      <trkpt lat="42.71723" lon="1.44855">
        <ele>1099</ele>
        <time>2026-06-28T09:50:04.000Z</time>
      </trkpt>
      <trkpt lat="42.71724" lon="1.44859">
        <ele>1099</ele>
        <time>2026-06-28T09:50:05.000Z</time>
      </trkpt>
      <trkpt lat="42.71726" lon="1.44862">
        <ele>1099</ele>
        <time>2026-06-28T09:50:06.000Z</time>
      </trkpt>
      <trkpt lat="42.71727" lon="1.44865">
        <ele>1098</ele>
        <time>2026-06-28T09:50:07.000Z</time>
      </trkpt>
      <trkpt lat="42.71727" lon="1.44869">
        <ele>1098</ele>
        <time>2026-06-28T09:50:08.000Z</time>
      </trkpt>
      <trkpt lat="42.71727" lon="1.44873">
        <ele>1098</ele>
        <time>2026-06-28T09:50:09.000Z</time>
      </trkpt>
      <trkpt lat="42.71727" lon="1.44875">
        <ele>1097</ele>
        <time>2026-06-28T09:50:10.000Z</time>
      </trkpt>
      <trkpt lat="42.71727" lon="1.44879">
        <ele>1097</ele>
        <time>2026-06-28T09:50:11.000Z</time>
      </trkpt>
      <trkpt lat="42.71728" lon="1.44883">
        <ele>1097</ele>
        <time>2026-06-28T09:50:12.000Z</time>
      </trkpt>
      <trkpt lat="42.71727" lon="1.44887">
        <ele>1097</ele>
        <time>2026-06-28T09:50:13.000Z</time>
      </trkpt>
      <trkpt lat="42.71725" lon="1.4489">
        <ele>1096</ele>
        <time>2026-06-28T09:50:14.000Z</time>
      </trkpt>
      <trkpt lat="42.71723" lon="1.44894">
        <ele>1095</ele>
        <time>2026-06-28T09:50:15.000Z</time>
      </trkpt>
      <trkpt lat="42.7172" lon="1.44896">
        <ele>1095</ele>
        <time>2026-06-28T09:50:16.000Z</time>
      </trkpt>
      <trkpt lat="42.71717" lon="1.44896">
        <ele>1093</ele>
        <time>2026-06-28T09:50:17.000Z</time>
      </trkpt>
      <trkpt lat="42.71715" lon="1.44895">
        <ele>1092</ele>
        <time>2026-06-28T09:50:18.000Z</time>
      </trkpt>
      <trkpt lat="42.71713" lon="1.44892">
        <ele>1092</ele>
        <time>2026-06-28T09:50:19.000Z</time>
      </trkpt>
      <trkpt lat="42.71711" lon="1.44888">
        <ele>1091</ele>
        <time>2026-06-28T09:50:20.000Z</time>
      </trkpt>
      <trkpt lat="42.71709" lon="1.44884">
        <ele>1090</ele>
        <time>2026-06-28T09:50:21.000Z</time>
      </trkpt>
      <trkpt lat="42.71706" lon="1.4488">
        <ele>1090</ele>
        <time>2026-06-28T09:50:22.000Z</time>
      </trkpt>
      <trkpt lat="42.71704" lon="1.44876">
        <ele>1090</ele>
        <time>2026-06-28T09:50:23.000Z</time>
      </trkpt>
      <trkpt lat="42.71702" lon="1.44871">
        <ele>1090</ele>
        <time>2026-06-28T09:50:24.000Z</time>
      </trkpt>
      <trkpt lat="42.717" lon="1.44866">
        <ele>1089</ele>
        <time>2026-06-28T09:50:25.000Z</time>
      </trkpt>
      <trkpt lat="42.71697" lon="1.44861">
        <ele>1088</ele>
        <time>2026-06-28T09:50:26.000Z</time>
      </trkpt>
      <trkpt lat="42.71695" lon="1.44855">
        <ele>1087</ele>
        <time>2026-06-28T09:50:27.000Z</time>
      </trkpt>
      <trkpt lat="42.71693" lon="1.44849">
        <ele>1087</ele>
        <time>2026-06-28T09:50:28.000Z</time>
      </trkpt>
      <trkpt lat="42.71691" lon="1.44844">
        <ele>1086</ele>
        <time>2026-06-28T09:50:29.000Z</time>
      </trkpt>
      <trkpt lat="42.71688" lon="1.44838">
        <ele>1085</ele>
        <time>2026-06-28T09:50:30.000Z</time>
      </trkpt>
      <trkpt lat="42.71686" lon="1.44833">
        <ele>1085</ele>
        <time>2026-06-28T09:50:31.000Z</time>
      </trkpt>
      <trkpt lat="42.71683" lon="1.44829">
        <ele>1084</ele>
        <time>2026-06-28T09:50:32.000Z</time>
      </trkpt>
      <trkpt lat="42.71679" lon="1.44825">
        <ele>1084</ele>
        <time>2026-06-28T09:50:33.000Z</time>
      </trkpt>
      <trkpt lat="42.71676" lon="1.44821">
        <ele>1084</ele>
        <time>2026-06-28T09:50:34.000Z</time>
      </trkpt>
      <trkpt lat="42.71671" lon="1.44819">
        <ele>1083</ele>
        <time>2026-06-28T09:50:35.000Z</time>
      </trkpt>
      <trkpt lat="42.71665" lon="1.4482">
        <ele>1082</ele>
        <time>2026-06-28T09:50:36.000Z</time>
      </trkpt>
      <trkpt lat="42.71659" lon="1.44823">
        <ele>1082</ele>
        <time>2026-06-28T09:50:37.000Z</time>
      </trkpt>
      <trkpt lat="42.71654" lon="1.44828">
        <ele>1081</ele>
        <time>2026-06-28T09:50:38.000Z</time>
      </trkpt>
      <trkpt lat="42.71652" lon="1.44834">
        <ele>1080</ele>
        <time>2026-06-28T09:50:39.000Z</time>
      </trkpt>
      <trkpt lat="42.7165" lon="1.4484">
        <ele>1080</ele>
        <time>2026-06-28T09:50:40.000Z</time>
      </trkpt>
      <trkpt lat="42.71647" lon="1.44846">
        <ele>1080</ele>
        <time>2026-06-28T09:50:41.000Z</time>
      </trkpt>
      <trkpt lat="42.71644" lon="1.44854">
        <ele>1079</ele>
        <time>2026-06-28T09:50:42.000Z</time>
      </trkpt>
      <trkpt lat="42.71642" lon="1.44861">
        <ele>1079</ele>
        <time>2026-06-28T09:50:43.000Z</time>
      </trkpt>
      <trkpt lat="42.71639" lon="1.44868">
        <ele>1078</ele>
        <time>2026-06-28T09:50:44.000Z</time>
      </trkpt>
      <trkpt lat="42.71637" lon="1.44875">
        <ele>1077</ele>
        <time>2026-06-28T09:50:45.000Z</time>
      </trkpt>
      <trkpt lat="42.71635" lon="1.44881">
        <ele>1076</ele>
        <time>2026-06-28T09:50:46.000Z</time>
      </trkpt>
      <trkpt lat="42.71635" lon="1.44887">
        <ele>1076</ele>
        <time>2026-06-28T09:50:47.000Z</time>
      </trkpt>
      <trkpt lat="42.71635" lon="1.44893">
        <ele>1076</ele>
        <time>2026-06-28T09:50:48.000Z</time>
      </trkpt>
      <trkpt lat="42.71635" lon="1.44899">
        <ele>1076</ele>
        <time>2026-06-28T09:50:49.000Z</time>
      </trkpt>
      <trkpt lat="42.71637" lon="1.44907">
        <ele>1076</ele>
        <time>2026-06-28T09:50:50.000Z</time>
      </trkpt>
      <trkpt lat="42.7164" lon="1.44914">
        <ele>1075</ele>
        <time>2026-06-28T09:50:51.000Z</time>
      </trkpt>
      <trkpt lat="42.71644" lon="1.44923">
        <ele>1075</ele>
        <time>2026-06-28T09:50:52.000Z</time>
      </trkpt>
      <trkpt lat="42.71647" lon="1.44932">
        <ele>1075</ele>
        <time>2026-06-28T09:50:53.000Z</time>
      </trkpt>
      <trkpt lat="42.71649" lon="1.44941">
        <ele>1075</ele>
        <time>2026-06-28T09:50:54.000Z</time>
      </trkpt>
      <trkpt lat="42.7165" lon="1.44951">
        <ele>1075</ele>
        <time>2026-06-28T09:50:55.000Z</time>
      </trkpt>
      <trkpt lat="42.71651" lon="1.4496">
        <ele>1075</ele>
        <time>2026-06-28T09:50:56.000Z</time>
      </trkpt>
      <trkpt lat="42.71652" lon="1.44969">
        <ele>1075</ele>
        <time>2026-06-28T09:50:57.000Z</time>
      </trkpt>
      <trkpt lat="42.71654" lon="1.44977">
        <ele>1075</ele>
        <time>2026-06-28T09:50:58.000Z</time>
      </trkpt>
      <trkpt lat="42.71657" lon="1.44982">
        <ele>1075</ele>
        <time>2026-06-28T09:50:59.000Z</time>
      </trkpt>
      <trkpt lat="42.7166" lon="1.44986">
        <ele>1075</ele>
        <time>2026-06-28T09:51:00.000Z</time>
      </trkpt>
      <trkpt lat="42.71663" lon="1.4499">
        <ele>1075</ele>
        <time>2026-06-28T09:51:01.000Z</time>
      </trkpt>
      <trkpt lat="42.71667" lon="1.44992">
        <ele>1075</ele>
        <time>2026-06-28T09:51:02.000Z</time>
      </trkpt>
      <trkpt lat="42.7167" lon="1.44993">
        <ele>1076</ele>
        <time>2026-06-28T09:51:03.000Z</time>
      </trkpt>
      <trkpt lat="42.71672" lon="1.44994">
        <ele>1076</ele>
        <time>2026-06-28T09:51:04.000Z</time>
      </trkpt>
      <trkpt lat="42.71675" lon="1.44996">
        <ele>1076</ele>
        <time>2026-06-28T09:51:05.000Z</time>
      </trkpt>
      <trkpt lat="42.71679" lon="1.44999">
        <ele>1076</ele>
        <time>2026-06-28T09:51:06.000Z</time>
      </trkpt>
      <trkpt lat="42.71682" lon="1.45001">
        <ele>1076</ele>
        <time>2026-06-28T09:51:07.000Z</time>
      </trkpt>
      <trkpt lat="42.71685" lon="1.45003">
        <ele>1076</ele>
        <time>2026-06-28T09:51:08.000Z</time>
      </trkpt>
      <trkpt lat="42.71689" lon="1.45006">
        <ele>1076</ele>
        <time>2026-06-28T09:51:09.000Z</time>
      </trkpt>
      <trkpt lat="42.71693" lon="1.45007">
        <ele>1076</ele>
        <time>2026-06-28T09:51:10.000Z</time>
      </trkpt>
      <trkpt lat="42.71698" lon="1.45007">
        <ele>1076</ele>
        <time>2026-06-28T09:51:11.000Z</time>
      </trkpt>
      <trkpt lat="42.71703" lon="1.45008">
        <ele>1076</ele>
        <time>2026-06-28T09:51:12.000Z</time>
      </trkpt>
      <trkpt lat="42.71707" lon="1.4501">
        <ele>1077</ele>
        <time>2026-06-28T09:51:13.000Z</time>
      </trkpt>
      <trkpt lat="42.71711" lon="1.4501">
        <ele>1076</ele>
        <time>2026-06-28T09:51:14.000Z</time>
      </trkpt>
      <trkpt lat="42.71715" lon="1.45011">
        <ele>1076</ele>
        <time>2026-06-28T09:51:15.000Z</time>
      </trkpt>
      <trkpt lat="42.71719" lon="1.45011">
        <ele>1076</ele>
        <time>2026-06-28T09:51:16.000Z</time>
      </trkpt>
      <trkpt lat="42.71723" lon="1.45011">
        <ele>1076</ele>
        <time>2026-06-28T09:51:17.000Z</time>
      </trkpt>
      <trkpt lat="42.71727" lon="1.45012">
        <ele>1076</ele>
        <time>2026-06-28T09:51:18.000Z</time>
      </trkpt>
      <trkpt lat="42.71731" lon="1.45013">
        <ele>1077</ele>
        <time>2026-06-28T09:51:19.000Z</time>
      </trkpt>
      <trkpt lat="42.71735" lon="1.45014">
        <ele>1077</ele>
        <time>2026-06-28T09:51:20.000Z</time>
      </trkpt>
      <trkpt lat="42.71738" lon="1.45015">
        <ele>1077</ele>
        <time>2026-06-28T09:51:21.000Z</time>
      </trkpt>
      <trkpt lat="42.71742" lon="1.45017">
        <ele>1077</ele>
        <time>2026-06-28T09:51:22.000Z</time>
      </trkpt>
      <trkpt lat="42.71746" lon="1.45018">
        <ele>1078</ele>
        <time>2026-06-28T09:51:23.000Z</time>
      </trkpt>
      <trkpt lat="42.71749" lon="1.45019">
        <ele>1078</ele>
        <time>2026-06-28T09:51:24.000Z</time>
      </trkpt>
      <trkpt lat="42.71753" lon="1.45021">
        <ele>1078</ele>
        <time>2026-06-28T09:51:25.000Z</time>
      </trkpt>
      <trkpt lat="42.71756" lon="1.45024">
        <ele>1078</ele>
        <time>2026-06-28T09:51:26.000Z</time>
      </trkpt>
      <trkpt lat="42.7176" lon="1.45026">
        <ele>1078</ele>
        <time>2026-06-28T09:51:27.000Z</time>
      </trkpt>
      <trkpt lat="42.71763" lon="1.45028">
        <ele>1078</ele>
        <time>2026-06-28T09:51:28.000Z</time>
      </trkpt>
      <trkpt lat="42.71765" lon="1.4503">
        <ele>1078</ele>
        <time>2026-06-28T09:51:29.000Z</time>
      </trkpt>
      <trkpt lat="42.71769" lon="1.45032">
        <ele>1078</ele>
        <time>2026-06-28T09:51:30.000Z</time>
      </trkpt>
      <trkpt lat="42.71771" lon="1.45033">
        <ele>1078</ele>
        <time>2026-06-28T09:51:31.000Z</time>
      </trkpt>
      <trkpt lat="42.71772" lon="1.45034">
        <ele>1079</ele>
        <time>2026-06-28T09:51:32.000Z</time>
      </trkpt>
      <trkpt lat="42.71774" lon="1.45036">
        <ele>1079</ele>
        <time>2026-06-28T09:51:33.000Z</time>
      </trkpt>
      <trkpt lat="42.71777" lon="1.45037">
        <ele>1079</ele>
        <time>2026-06-28T09:51:34.000Z</time>
      </trkpt>
      <trkpt lat="42.7178" lon="1.45037">
        <ele>1079</ele>
        <time>2026-06-28T09:51:35.000Z</time>
      </trkpt>
      <trkpt lat="42.71784" lon="1.45037">
        <ele>1079</ele>
        <time>2026-06-28T09:51:36.000Z</time>
      </trkpt>
      <trkpt lat="42.71787" lon="1.45036">
        <ele>1080</ele>
        <time>2026-06-28T09:51:37.000Z</time>
      </trkpt>
      <trkpt lat="42.7179" lon="1.45037">
        <ele>1080</ele>
        <time>2026-06-28T09:51:38.000Z</time>
      </trkpt>
      <trkpt lat="42.71794" lon="1.45037">
        <ele>1080</ele>
        <time>2026-06-28T09:51:39.000Z</time>
      </trkpt>
      <trkpt lat="42.71799" lon="1.45037">
        <ele>1080</ele>
        <time>2026-06-28T09:51:40.000Z</time>
      </trkpt>
      <trkpt lat="42.71803" lon="1.45036">
        <ele>1080</ele>
        <time>2026-06-28T09:51:41.000Z</time>
      </trkpt>
      <trkpt lat="42.71808" lon="1.45035">
        <ele>1079</ele>
        <time>2026-06-28T09:51:42.000Z</time>
      </trkpt>
      <trkpt lat="42.71814" lon="1.45035">
        <ele>1080</ele>
        <time>2026-06-28T09:51:43.000Z</time>
      </trkpt>
      <trkpt lat="42.71819" lon="1.45033">
        <ele>1079</ele>
        <time>2026-06-28T09:51:44.000Z</time>
      </trkpt>
      <trkpt lat="42.71825" lon="1.45032">
        <ele>1078</ele>
        <time>2026-06-28T09:51:45.000Z</time>
      </trkpt>
      <trkpt lat="42.71831" lon="1.45032">
        <ele>1078</ele>
        <time>2026-06-28T09:51:46.000Z</time>
      </trkpt>
      <trkpt lat="42.71837" lon="1.45031">
        <ele>1078</ele>
        <time>2026-06-28T09:51:47.000Z</time>
      </trkpt>
      <trkpt lat="42.71843" lon="1.45029">
        <ele>1077</ele>
        <time>2026-06-28T09:51:48.000Z</time>
      </trkpt>
      <trkpt lat="42.71849" lon="1.45027">
        <ele>1076</ele>
        <time>2026-06-28T09:51:49.000Z</time>
      </trkpt>
      <trkpt lat="42.71857" lon="1.45025">
        <ele>1076</ele>
        <time>2026-06-28T09:51:50.000Z</time>
      </trkpt>
      <trkpt lat="42.71865" lon="1.45022">
        <ele>1076</ele>
        <time>2026-06-28T09:51:51.000Z</time>
      </trkpt>
      <trkpt lat="42.71873" lon="1.4502">
        <ele>1076</ele>
        <time>2026-06-28T09:51:52.000Z</time>
      </trkpt>
      <trkpt lat="42.71882" lon="1.45019">
        <ele>1075</ele>
        <time>2026-06-28T09:51:53.000Z</time>
      </trkpt>
      <trkpt lat="42.71891" lon="1.4502">
        <ele>1075</ele>
        <time>2026-06-28T09:51:54.000Z</time>
      </trkpt>
      <trkpt lat="42.719" lon="1.45022">
        <ele>1074</ele>
        <time>2026-06-28T09:51:55.000Z</time>
      </trkpt>
      <trkpt lat="42.71911" lon="1.45024">
        <ele>1072</ele>
        <time>2026-06-28T09:51:56.000Z</time>
      </trkpt>
      <trkpt lat="42.71921" lon="1.45024">
        <ele>1071</ele>
        <time>2026-06-28T09:51:57.000Z</time>
      </trkpt>
      <trkpt lat="42.7193" lon="1.45024">
        <ele>1070</ele>
        <time>2026-06-28T09:51:58.000Z</time>
      </trkpt>
      <trkpt lat="42.71941" lon="1.45022">
        <ele>1070</ele>
        <time>2026-06-28T09:51:59.000Z</time>
      </trkpt>
      <trkpt lat="42.71953" lon="1.45019">
        <ele>1069</ele>
        <time>2026-06-28T09:52:00.000Z</time>
      </trkpt>
      <trkpt lat="42.71964" lon="1.45018">
        <ele>1069</ele>
        <time>2026-06-28T09:52:01.000Z</time>
      </trkpt>
      <trkpt lat="42.71976" lon="1.45018">
        <ele>1068</ele>
        <time>2026-06-28T09:52:02.000Z</time>
      </trkpt>
      <trkpt lat="42.71986" lon="1.45018">
        <ele>1066</ele>
        <time>2026-06-28T09:52:03.000Z</time>
      </trkpt>
      <trkpt lat="42.71996" lon="1.45018">
        <ele>1065</ele>
        <time>2026-06-28T09:52:04.000Z</time>
      </trkpt>
      <trkpt lat="42.72005" lon="1.4502">
        <ele>1064</ele>
        <time>2026-06-28T09:52:05.000Z</time>
      </trkpt>
      <trkpt lat="42.72012" lon="1.45023">
        <ele>1063</ele>
        <time>2026-06-28T09:52:06.000Z</time>
      </trkpt>
      <trkpt lat="42.72019" lon="1.45025">
        <ele>1063</ele>
        <time>2026-06-28T09:52:07.000Z</time>
      </trkpt>
      <trkpt lat="42.72024" lon="1.45028">
        <ele>1062</ele>
        <time>2026-06-28T09:52:08.000Z</time>
      </trkpt>
      <trkpt lat="42.7203" lon="1.45031">
        <ele>1061</ele>
        <time>2026-06-28T09:52:09.000Z</time>
      </trkpt>
      <trkpt lat="42.72034" lon="1.45034">
        <ele>1060</ele>
        <time>2026-06-28T09:52:10.000Z</time>
      </trkpt>
      <trkpt lat="42.72037" lon="1.45035">
        <ele>1060</ele>
        <time>2026-06-28T09:52:11.000Z</time>
      </trkpt>
      <trkpt lat="42.72039" lon="1.45035">
        <ele>1059</ele>
        <time>2026-06-28T09:52:12.000Z</time>
      </trkpt>
      <trkpt lat="42.72042" lon="1.45034">
        <ele>1059</ele>
        <time>2026-06-28T09:52:13.000Z</time>
      </trkpt>
      <trkpt lat="42.72045" lon="1.45033">
        <ele>1059</ele>
        <time>2026-06-28T09:52:14.000Z</time>
      </trkpt>
      <trkpt lat="42.72049" lon="1.45032">
        <ele>1058</ele>
        <time>2026-06-28T09:52:15.000Z</time>
      </trkpt>
      <trkpt lat="42.72055" lon="1.45029">
        <ele>1056</ele>
        <time>2026-06-28T09:52:16.000Z</time>
      </trkpt>
      <trkpt lat="42.72057" lon="1.45025">
        <ele>1056</ele>
        <time>2026-06-28T09:52:17.000Z</time>
      </trkpt>
      <trkpt lat="42.72059" lon="1.45021">
        <ele>1055</ele>
        <time>2026-06-28T09:52:18.000Z</time>
      </trkpt>
      <trkpt lat="42.7206" lon="1.45017">
        <ele>1056</ele>
        <time>2026-06-28T09:52:19.000Z</time>
      </trkpt>
      <trkpt lat="42.72061" lon="1.45015">
        <ele>1056</ele>
        <time>2026-06-28T09:52:20.000Z</time>
      </trkpt>
      <trkpt lat="42.72063" lon="1.45014">
        <ele>1055</ele>
        <time>2026-06-28T09:52:21.000Z</time>
      </trkpt>
      <trkpt lat="42.72065" lon="1.45014">
        <ele>1055</ele>
        <time>2026-06-28T09:52:22.000Z</time>
      </trkpt>
      <trkpt lat="42.7207" lon="1.45015">
        <ele>1055</ele>
        <time>2026-06-28T09:52:23.000Z</time>
      </trkpt>
      <trkpt lat="42.72075" lon="1.45016">
        <ele>1054</ele>
        <time>2026-06-28T09:52:24.000Z</time>
      </trkpt>
      <trkpt lat="42.72081" lon="1.45016">
        <ele>1054</ele>
        <time>2026-06-28T09:52:25.000Z</time>
      </trkpt>
      <trkpt lat="42.72087" lon="1.45014">
        <ele>1053</ele>
        <time>2026-06-28T09:52:26.000Z</time>
      </trkpt>
      <trkpt lat="42.72093" lon="1.45012">
        <ele>1053</ele>
        <time>2026-06-28T09:52:27.000Z</time>
      </trkpt>
      <trkpt lat="42.72098" lon="1.45011">
        <ele>1052</ele>
        <time>2026-06-28T09:52:28.000Z</time>
      </trkpt>
      <trkpt lat="42.72104" lon="1.4501">
        <ele>1052</ele>
        <time>2026-06-28T09:52:29.000Z</time>
      </trkpt>
      <trkpt lat="42.72109" lon="1.45009">
        <ele>1051</ele>
        <time>2026-06-28T09:52:30.000Z</time>
      </trkpt>
      <trkpt lat="42.72115" lon="1.45007">
        <ele>1050</ele>
        <time>2026-06-28T09:52:31.000Z</time>
      </trkpt>
      <trkpt lat="42.72121" lon="1.45006">
        <ele>1049</ele>
        <time>2026-06-28T09:52:32.000Z</time>
      </trkpt>
      <trkpt lat="42.72126" lon="1.45006">
        <ele>1048</ele>
        <time>2026-06-28T09:52:33.000Z</time>
      </trkpt>
      <trkpt lat="42.72131" lon="1.45005">
        <ele>1048</ele>
        <time>2026-06-28T09:52:34.000Z</time>
      </trkpt>
      <trkpt lat="42.72137" lon="1.45004">
        <ele>1047</ele>
        <time>2026-06-28T09:52:35.000Z</time>
      </trkpt>
      <trkpt lat="42.72142" lon="1.45002">
        <ele>1046</ele>
        <time>2026-06-28T09:52:36.000Z</time>
      </trkpt>
      <trkpt lat="42.72147" lon="1.45001">
        <ele>1047</ele>
        <time>2026-06-28T09:52:37.000Z</time>
      </trkpt>
      <trkpt lat="42.72153" lon="1.45001">
        <ele>1046</ele>
        <time>2026-06-28T09:52:38.000Z</time>
      </trkpt>
      <trkpt lat="42.72158" lon="1.45002">
        <ele>1045</ele>
        <time>2026-06-28T09:52:39.000Z</time>
      </trkpt>
      <trkpt lat="42.72162" lon="1.45002">
        <ele>1044</ele>
        <time>2026-06-28T09:52:40.000Z</time>
      </trkpt>
      <trkpt lat="42.72166" lon="1.45003">
        <ele>1044</ele>
        <time>2026-06-28T09:52:41.000Z</time>
      </trkpt>
      <trkpt lat="42.7217" lon="1.45003">
        <ele>1044</ele>
        <time>2026-06-28T09:52:42.000Z</time>
      </trkpt>
      <trkpt lat="42.72174" lon="1.45004">
        <ele>1044</ele>
        <time>2026-06-28T09:52:43.000Z</time>
      </trkpt>
      <trkpt lat="42.72178" lon="1.45005">
        <ele>1044</ele>
        <time>2026-06-28T09:52:44.000Z</time>
      </trkpt>
      <trkpt lat="42.72182" lon="1.45005">
        <ele>1043</ele>
        <time>2026-06-28T09:52:45.000Z</time>
      </trkpt>
      <trkpt lat="42.72186" lon="1.45005">
        <ele>1044</ele>
        <time>2026-06-28T09:52:46.000Z</time>
      </trkpt>
      <trkpt lat="42.7219" lon="1.45005">
        <ele>1044</ele>
        <time>2026-06-28T09:52:47.000Z</time>
      </trkpt>
      <trkpt lat="42.72194" lon="1.45006">
        <ele>1044</ele>
        <time>2026-06-28T09:52:48.000Z</time>
      </trkpt>
      <trkpt lat="42.72198" lon="1.45007">
        <ele>1044</ele>
        <time>2026-06-28T09:52:49.000Z</time>
      </trkpt>
      <trkpt lat="42.72202" lon="1.45009">
        <ele>1043</ele>
        <time>2026-06-28T09:52:50.000Z</time>
      </trkpt>
      <trkpt lat="42.72206" lon="1.45011">
        <ele>1043</ele>
        <time>2026-06-28T09:52:51.000Z</time>
      </trkpt>
      <trkpt lat="42.72208" lon="1.45014">
        <ele>1043</ele>
        <time>2026-06-28T09:52:52.000Z</time>
      </trkpt>
      <trkpt lat="42.72212" lon="1.45016">
        <ele>1043</ele>
        <time>2026-06-28T09:52:53.000Z</time>
      </trkpt>
      <trkpt lat="42.72215" lon="1.45018">
        <ele>1042</ele>
        <time>2026-06-28T09:52:54.000Z</time>
      </trkpt>
      <trkpt lat="42.72219" lon="1.4502">
        <ele>1042</ele>
        <time>2026-06-28T09:52:55.000Z</time>
      </trkpt>
      <trkpt lat="42.72224" lon="1.45023">
        <ele>1041</ele>
        <time>2026-06-28T09:52:56.000Z</time>
      </trkpt>
      <trkpt lat="42.72226" lon="1.45026">
        <ele>1041</ele>
        <time>2026-06-28T09:52:57.000Z</time>
      </trkpt>
      <trkpt lat="42.72228" lon="1.45029">
        <ele>1040</ele>
        <time>2026-06-28T09:52:58.000Z</time>
      </trkpt>
      <trkpt lat="42.7223" lon="1.45031">
        <ele>1040</ele>
        <time>2026-06-28T09:52:59.000Z</time>
      </trkpt>
      <trkpt lat="42.72232" lon="1.45032">
        <ele>1041</ele>
        <time>2026-06-28T09:53:00.000Z</time>
      </trkpt>
      <trkpt lat="42.72235" lon="1.45033">
        <ele>1041</ele>
        <time>2026-06-28T09:53:01.000Z</time>
      </trkpt>
      <trkpt lat="42.72236" lon="1.45034">
        <ele>1041</ele>
        <time>2026-06-28T09:53:02.000Z</time>
      </trkpt>
      <trkpt lat="42.72237" lon="1.45037">
        <ele>1041</ele>
        <time>2026-06-28T09:53:03.000Z</time>
      </trkpt>
      <trkpt lat="42.72239" lon="1.45039">
        <ele>1041</ele>
        <time>2026-06-28T09:53:04.000Z</time>
      </trkpt>
      <trkpt lat="42.7224" lon="1.45043">
        <ele>1041</ele>
        <time>2026-06-28T09:53:05.000Z</time>
      </trkpt>
      <trkpt lat="42.72241" lon="1.45046">
        <ele>1041</ele>
        <time>2026-06-28T09:53:06.000Z</time>
      </trkpt>
      <trkpt lat="42.72242" lon="1.45049">
        <ele>1042</ele>
        <time>2026-06-28T09:53:07.000Z</time>
      </trkpt>
      <trkpt lat="42.72244" lon="1.45053">
        <ele>1043</ele>
        <time>2026-06-28T09:53:08.000Z</time>
      </trkpt>
      <trkpt lat="42.72246" lon="1.45057">
        <ele>1044</ele>
        <time>2026-06-28T09:53:09.000Z</time>
      </trkpt>
      <trkpt lat="42.72248" lon="1.45062">
        <ele>1044</ele>
        <time>2026-06-28T09:53:10.000Z</time>
      </trkpt>
      <trkpt lat="42.7225" lon="1.45066">
        <ele>1045</ele>
        <time>2026-06-28T09:53:11.000Z</time>
      </trkpt>
      <trkpt lat="42.72252" lon="1.45071">
        <ele>1045</ele>
        <time>2026-06-28T09:53:12.000Z</time>
      </trkpt>
      <trkpt lat="42.72254" lon="1.45075">
        <ele>1046</ele>
        <time>2026-06-28T09:53:13.000Z</time>
      </trkpt>
      <trkpt lat="42.72255" lon="1.45079">
        <ele>1047</ele>
        <time>2026-06-28T09:53:14.000Z</time>
      </trkpt>
      <trkpt lat="42.72256" lon="1.45083">
        <ele>1048</ele>
        <time>2026-06-28T09:53:15.000Z</time>
      </trkpt>
      <trkpt lat="42.72257" lon="1.45086">
        <ele>1049</ele>
        <time>2026-06-28T09:53:16.000Z</time>
      </trkpt>
      <trkpt lat="42.72259" lon="1.4509">
        <ele>1049</ele>
        <time>2026-06-28T09:53:17.000Z</time>
      </trkpt>
      <trkpt lat="42.72261" lon="1.45094">
        <ele>1050</ele>
        <time>2026-06-28T09:53:18.000Z</time>
      </trkpt>
      <trkpt lat="42.72264" lon="1.45098">
        <ele>1050</ele>
        <time>2026-06-28T09:53:19.000Z</time>
      </trkpt>
      <trkpt lat="42.72266" lon="1.45102">
        <ele>1050</ele>
        <time>2026-06-28T09:53:20.000Z</time>
      </trkpt>
      <trkpt lat="42.72269" lon="1.45105">
        <ele>1050</ele>
        <time>2026-06-28T09:53:21.000Z</time>
      </trkpt>
      <trkpt lat="42.72271" lon="1.45108">
        <ele>1050</ele>
        <time>2026-06-28T09:53:22.000Z</time>
      </trkpt>
      <trkpt lat="42.72272" lon="1.45111">
        <ele>1050</ele>
        <time>2026-06-28T09:53:23.000Z</time>
      </trkpt>
      <trkpt lat="42.72274" lon="1.45114">
        <ele>1050</ele>
        <time>2026-06-28T09:53:24.000Z</time>
      </trkpt>
      <trkpt lat="42.72276" lon="1.45117">
        <ele>1050</ele>
        <time>2026-06-28T09:53:25.000Z</time>
      </trkpt>
      <trkpt lat="42.72278" lon="1.4512">
        <ele>1050</ele>
        <time>2026-06-28T09:53:26.000Z</time>
      </trkpt>
      <trkpt lat="42.72279" lon="1.45123">
        <ele>1050</ele>
        <time>2026-06-28T09:53:27.000Z</time>
      </trkpt>
      <trkpt lat="42.72281" lon="1.45126">
        <ele>1050</ele>
        <time>2026-06-28T09:53:28.000Z</time>
      </trkpt>
      <trkpt lat="42.72283" lon="1.45129">
        <ele>1050</ele>
        <time>2026-06-28T09:53:29.000Z</time>
      </trkpt>
      <trkpt lat="42.72284" lon="1.45134">
        <ele>1051</ele>
        <time>2026-06-28T09:53:30.000Z</time>
      </trkpt>
      <trkpt lat="42.72286" lon="1.45137">
        <ele>1051</ele>
        <time>2026-06-28T09:53:31.000Z</time>
      </trkpt>
      <trkpt lat="42.72287" lon="1.45141">
        <ele>1051</ele>
        <time>2026-06-28T09:53:32.000Z</time>
      </trkpt>
      <trkpt lat="42.72289" lon="1.45145">
        <ele>1051</ele>
        <time>2026-06-28T09:53:33.000Z</time>
      </trkpt>
      <trkpt lat="42.72291" lon="1.45148">
        <ele>1050</ele>
        <time>2026-06-28T09:53:34.000Z</time>
      </trkpt>
      <trkpt lat="42.72293" lon="1.45152">
        <ele>1050</ele>
        <time>2026-06-28T09:53:35.000Z</time>
      </trkpt>
      <trkpt lat="42.72296" lon="1.45154">
        <ele>1050</ele>
        <time>2026-06-28T09:53:36.000Z</time>
      </trkpt>
      <trkpt lat="42.72297" lon="1.45157">
        <ele>1050</ele>
        <time>2026-06-28T09:53:37.000Z</time>
      </trkpt>
      <trkpt lat="42.72298" lon="1.4516">
        <ele>1049</ele>
        <time>2026-06-28T09:53:38.000Z</time>
      </trkpt>
      <trkpt lat="42.72299" lon="1.45161">
        <ele>1049</ele>
        <time>2026-06-28T09:53:39.000Z</time>
      </trkpt>
      <trkpt lat="42.72301" lon="1.45164">
        <ele>1049</ele>
        <time>2026-06-28T09:53:40.000Z</time>
      </trkpt>
      <trkpt lat="42.72305" lon="1.45166">
        <ele>1048</ele>
        <time>2026-06-28T09:53:41.000Z</time>
      </trkpt>
      <trkpt lat="42.72308" lon="1.4517">
        <ele>1048</ele>
        <time>2026-06-28T09:53:42.000Z</time>
      </trkpt>
      <trkpt lat="42.7231" lon="1.45176">
        <ele>1048</ele>
        <time>2026-06-28T09:53:43.000Z</time>
      </trkpt>
      <trkpt lat="42.72313" lon="1.45181">
        <ele>1048</ele>
        <time>2026-06-28T09:53:44.000Z</time>
      </trkpt>
      <trkpt lat="42.72315" lon="1.45187">
        <ele>1048</ele>
        <time>2026-06-28T09:53:45.000Z</time>
      </trkpt>
      <trkpt lat="42.72318" lon="1.45191">
        <ele>1047</ele>
        <time>2026-06-28T09:53:46.000Z</time>
      </trkpt>
      <trkpt lat="42.72322" lon="1.45194">
        <ele>1046</ele>
        <time>2026-06-28T09:53:47.000Z</time>
      </trkpt>
      <trkpt lat="42.72326" lon="1.45195">
        <ele>1046</ele>
        <time>2026-06-28T09:53:48.000Z</time>
      </trkpt>
      <trkpt lat="42.7233" lon="1.45197">
        <ele>1046</ele>
        <time>2026-06-28T09:53:49.000Z</time>
      </trkpt>
      <trkpt lat="42.72335" lon="1.45199">
        <ele>1045</ele>
        <time>2026-06-28T09:53:50.000Z</time>
      </trkpt>
      <trkpt lat="42.72339" lon="1.452">
        <ele>1044</ele>
        <time>2026-06-28T09:53:51.000Z</time>
      </trkpt>
      <trkpt lat="42.72343" lon="1.45202">
        <ele>1044</ele>
        <time>2026-06-28T09:53:52.000Z</time>
      </trkpt>
      <trkpt lat="42.72347" lon="1.45203">
        <ele>1044</ele>
        <time>2026-06-28T09:53:53.000Z</time>
      </trkpt>
      <trkpt lat="42.7235" lon="1.45204">
        <ele>1044</ele>
        <time>2026-06-28T09:53:54.000Z</time>
      </trkpt>
      <trkpt lat="42.72353" lon="1.45206">
        <ele>1043</ele>
        <time>2026-06-28T09:53:55.000Z</time>
      </trkpt>
      <trkpt lat="42.72356" lon="1.45206">
        <ele>1043</ele>
        <time>2026-06-28T09:53:56.000Z</time>
      </trkpt>
      <trkpt lat="42.72359" lon="1.45207">
        <ele>1043</ele>
        <time>2026-06-28T09:53:57.000Z</time>
      </trkpt>
      <trkpt lat="42.72362" lon="1.45208">
        <ele>1043</ele>
        <time>2026-06-28T09:53:58.000Z</time>
      </trkpt>
      <trkpt lat="42.72366" lon="1.45208">
        <ele>1043</ele>
        <time>2026-06-28T09:53:59.000Z</time>
      </trkpt>
      <trkpt lat="42.7237" lon="1.4521">
        <ele>1042</ele>
        <time>2026-06-28T09:54:00.000Z</time>
      </trkpt>
      <trkpt lat="42.72376" lon="1.45213">
        <ele>1042</ele>
        <time>2026-06-28T09:54:01.000Z</time>
      </trkpt>
      <trkpt lat="42.72381" lon="1.45215">
        <ele>1042</ele>
        <time>2026-06-28T09:54:02.000Z</time>
      </trkpt>
      <trkpt lat="42.72387" lon="1.45218">
        <ele>1041</ele>
        <time>2026-06-28T09:54:03.000Z</time>
      </trkpt>
      <trkpt lat="42.72391" lon="1.4522">
        <ele>1041</ele>
        <time>2026-06-28T09:54:04.000Z</time>
      </trkpt>
      <trkpt lat="42.72394" lon="1.45223">
        <ele>1040</ele>
        <time>2026-06-28T09:54:05.000Z</time>
      </trkpt>
      <trkpt lat="42.72398" lon="1.45226">
        <ele>1041</ele>
        <time>2026-06-28T09:54:06.000Z</time>
      </trkpt>
      <trkpt lat="42.72403" lon="1.45231">
        <ele>1041</ele>
        <time>2026-06-28T09:54:07.000Z</time>
      </trkpt>
      <trkpt lat="42.72407" lon="1.45236">
        <ele>1040</ele>
        <time>2026-06-28T09:54:08.000Z</time>
      </trkpt>
      <trkpt lat="42.72411" lon="1.45239">
        <ele>1040</ele>
        <time>2026-06-28T09:54:09.000Z</time>
      </trkpt>
      <trkpt lat="42.72416" lon="1.45241">
        <ele>1040</ele>
        <time>2026-06-28T09:54:10.000Z</time>
      </trkpt>
      <trkpt lat="42.72423" lon="1.45244">
        <ele>1041</ele>
        <time>2026-06-28T09:54:11.000Z</time>
      </trkpt>
      <trkpt lat="42.7243" lon="1.45248">
        <ele>1041</ele>
        <time>2026-06-28T09:54:12.000Z</time>
      </trkpt>
      <trkpt lat="42.72437" lon="1.45255">
        <ele>1041</ele>
        <time>2026-06-28T09:54:13.000Z</time>
      </trkpt>
      <trkpt lat="42.72442" lon="1.45259">
        <ele>1041</ele>
        <time>2026-06-28T09:54:14.000Z</time>
      </trkpt>
      <trkpt lat="42.72445" lon="1.45261">
        <ele>1041</ele>
        <time>2026-06-28T09:54:15.000Z</time>
      </trkpt>
      <trkpt lat="42.72448" lon="1.45263">
        <ele>1041</ele>
        <time>2026-06-28T09:54:16.000Z</time>
      </trkpt>
      <trkpt lat="42.72452" lon="1.45265">
        <ele>1041</ele>
        <time>2026-06-28T09:54:17.000Z</time>
      </trkpt>
      <trkpt lat="42.72455" lon="1.45266">
        <ele>1041</ele>
        <time>2026-06-28T09:54:18.000Z</time>
      </trkpt>
      <trkpt lat="42.72459" lon="1.45267">
        <ele>1041</ele>
        <time>2026-06-28T09:54:19.000Z</time>
      </trkpt>
      <trkpt lat="42.72463" lon="1.45267">
        <ele>1041</ele>
        <time>2026-06-28T09:54:20.000Z</time>
      </trkpt>
      <trkpt lat="42.72468" lon="1.45268">
        <ele>1041</ele>
        <time>2026-06-28T09:54:21.000Z</time>
      </trkpt>
      <trkpt lat="42.72472" lon="1.45268">
        <ele>1040</ele>
        <time>2026-06-28T09:54:22.000Z</time>
      </trkpt>
      <trkpt lat="42.72476" lon="1.45268">
        <ele>1040</ele>
        <time>2026-06-28T09:54:23.000Z</time>
      </trkpt>
      <trkpt lat="42.72479" lon="1.45268">
        <ele>1040</ele>
        <time>2026-06-28T09:54:24.000Z</time>
      </trkpt>
      <trkpt lat="42.72481" lon="1.4527">
        <ele>1040</ele>
        <time>2026-06-28T09:54:25.000Z</time>
      </trkpt>
      <trkpt lat="42.72482" lon="1.45272">
        <ele>1040</ele>
        <time>2026-06-28T09:54:26.000Z</time>
      </trkpt>
      <trkpt lat="42.72484" lon="1.45274">
        <ele>1041</ele>
        <time>2026-06-28T09:54:27.000Z</time>
      </trkpt>
      <trkpt lat="42.72488" lon="1.45275">
        <ele>1041</ele>
        <time>2026-06-28T09:54:28.000Z</time>
      </trkpt>
      <trkpt lat="42.72492" lon="1.45276">
        <ele>1040</ele>
        <time>2026-06-28T09:54:29.000Z</time>
      </trkpt>
      <trkpt lat="42.72496" lon="1.45277">
        <ele>1040</ele>
        <time>2026-06-28T09:54:30.000Z</time>
      </trkpt>
      <trkpt lat="42.72501" lon="1.45278">
        <ele>1040</ele>
        <time>2026-06-28T09:54:31.000Z</time>
      </trkpt>
      <trkpt lat="42.72507" lon="1.45279">
        <ele>1039</ele>
        <time>2026-06-28T09:54:32.000Z</time>
      </trkpt>
      <trkpt lat="42.72513" lon="1.4528">
        <ele>1039</ele>
        <time>2026-06-28T09:54:33.000Z</time>
      </trkpt>
      <trkpt lat="42.7252" lon="1.4528">
        <ele>1036</ele>
        <time>2026-06-28T09:54:34.000Z</time>
      </trkpt>
      <trkpt lat="42.72526" lon="1.45283">
        <ele>1035</ele>
        <time>2026-06-28T09:54:35.000Z</time>
      </trkpt>
      <trkpt lat="42.72532" lon="1.45287">
        <ele>1034</ele>
        <time>2026-06-28T09:54:36.000Z</time>
      </trkpt>
      <trkpt lat="42.72537" lon="1.45293">
        <ele>1033</ele>
        <time>2026-06-28T09:54:37.000Z</time>
      </trkpt>
      <trkpt lat="42.72542" lon="1.45297">
        <ele>1032</ele>
        <time>2026-06-28T09:54:38.000Z</time>
      </trkpt>
      <trkpt lat="42.72548" lon="1.45299">
        <ele>1031</ele>
        <time>2026-06-28T09:54:39.000Z</time>
      </trkpt>
      <trkpt lat="42.72553" lon="1.45301">
        <ele>1031</ele>
        <time>2026-06-28T09:54:40.000Z</time>
      </trkpt>
      <trkpt lat="42.72556" lon="1.45302">
        <ele>1030</ele>
        <time>2026-06-28T09:54:41.000Z</time>
      </trkpt>
      <trkpt lat="42.72557" lon="1.45305">
        <ele>1030</ele>
        <time>2026-06-28T09:54:42.000Z</time>
      </trkpt>
      <trkpt lat="42.72559" lon="1.45308">
        <ele>1029</ele>
        <time>2026-06-28T09:54:43.000Z</time>
      </trkpt>
      <trkpt lat="42.7256" lon="1.45311">
        <ele>1029</ele>
        <time>2026-06-28T09:54:44.000Z</time>
      </trkpt>
      <trkpt lat="42.72561" lon="1.45313">
        <ele>1028</ele>
        <time>2026-06-28T09:54:45.000Z</time>
      </trkpt>
      <trkpt lat="42.72562" lon="1.45317">
        <ele>1028</ele>
        <time>2026-06-28T09:54:46.000Z</time>
      </trkpt>
      <trkpt lat="42.72564" lon="1.4532">
        <ele>1028</ele>
        <time>2026-06-28T09:54:47.000Z</time>
      </trkpt>
      <trkpt lat="42.72566" lon="1.45322">
        <ele>1028</ele>
        <time>2026-06-28T09:54:48.000Z</time>
      </trkpt>
      <trkpt lat="42.72569" lon="1.45323">
        <ele>1027</ele>
        <time>2026-06-28T09:54:49.000Z</time>
      </trkpt>
      <trkpt lat="42.72571" lon="1.45324">
        <ele>1027</ele>
        <time>2026-06-28T09:54:50.000Z</time>
      </trkpt>
      <trkpt lat="42.72572" lon="1.45325">
        <ele>1027</ele>
        <time>2026-06-28T09:54:51.000Z</time>
      </trkpt>
      <trkpt lat="42.72573" lon="1.45326">
        <ele>1026</ele>
        <time>2026-06-28T09:54:52.000Z</time>
      </trkpt>
      <trkpt lat="42.72575" lon="1.45328">
        <ele>1026</ele>
        <time>2026-06-28T09:54:53.000Z</time>
      </trkpt>
      <trkpt lat="42.72577" lon="1.45329">
        <ele>1027</ele>
        <time>2026-06-28T09:54:54.000Z</time>
      </trkpt>
      <trkpt lat="42.72578" lon="1.45331">
        <ele>1027</ele>
        <time>2026-06-28T09:54:55.000Z</time>
      </trkpt>
      <trkpt lat="42.72579" lon="1.45332">
        <ele>1028</ele>
        <time>2026-06-28T09:54:56.000Z</time>
      </trkpt>
      <trkpt lat="42.72581" lon="1.45333">
        <ele>1027</ele>
        <time>2026-06-28T09:54:57.000Z</time>
      </trkpt>
      <trkpt lat="42.72583" lon="1.45334">
        <ele>1027</ele>
        <time>2026-06-28T09:54:58.000Z</time>
      </trkpt>
      <trkpt lat="42.72585" lon="1.45336">
        <ele>1027</ele>
        <time>2026-06-28T09:54:59.000Z</time>
      </trkpt>
      <trkpt lat="42.72587" lon="1.45338">
        <ele>1027</ele>
        <time>2026-06-28T09:55:00.000Z</time>
      </trkpt>
      <trkpt lat="42.72589" lon="1.4534">
        <ele>1027</ele>
        <time>2026-06-28T09:55:01.000Z</time>
      </trkpt>
      <trkpt lat="42.72591" lon="1.45341">
        <ele>1027</ele>
        <time>2026-06-28T09:55:02.000Z</time>
      </trkpt>
      <trkpt lat="42.72592" lon="1.45343">
        <ele>1026</ele>
        <time>2026-06-28T09:55:03.000Z</time>
      </trkpt>
      <trkpt lat="42.72594" lon="1.45344">
        <ele>1026</ele>
        <time>2026-06-28T09:55:04.000Z</time>
      </trkpt>
      <trkpt lat="42.72597" lon="1.45346">
        <ele>1026</ele>
        <time>2026-06-28T09:55:05.000Z</time>
      </trkpt>
      <trkpt lat="42.726" lon="1.45347">
        <ele>1026</ele>
        <time>2026-06-28T09:55:06.000Z</time>
      </trkpt>
      <trkpt lat="42.72604" lon="1.45348">
        <ele>1026</ele>
        <time>2026-06-28T09:55:07.000Z</time>
      </trkpt>
      <trkpt lat="42.72607" lon="1.45351">
        <ele>1026</ele>
        <time>2026-06-28T09:55:08.000Z</time>
      </trkpt>
      <trkpt lat="42.72611" lon="1.45354">
        <ele>1027</ele>
        <time>2026-06-28T09:55:09.000Z</time>
      </trkpt>
      <trkpt lat="42.72613" lon="1.45357">
        <ele>1027</ele>
        <time>2026-06-28T09:55:10.000Z</time>
      </trkpt>
      <trkpt lat="42.72616" lon="1.45361">
        <ele>1027</ele>
        <time>2026-06-28T09:55:11.000Z</time>
      </trkpt>
      <trkpt lat="42.72619" lon="1.45365">
        <ele>1027</ele>
        <time>2026-06-28T09:55:12.000Z</time>
      </trkpt>
      <trkpt lat="42.72623" lon="1.4537">
        <ele>1027</ele>
        <time>2026-06-28T09:55:13.000Z</time>
      </trkpt>
      <trkpt lat="42.72628" lon="1.45373">
        <ele>1026</ele>
        <time>2026-06-28T09:55:14.000Z</time>
      </trkpt>
      <trkpt lat="42.72635" lon="1.45376">
        <ele>1024</ele>
        <time>2026-06-28T09:55:15.000Z</time>
      </trkpt>
      <trkpt lat="42.72642" lon="1.45379">
        <ele>1023</ele>
        <time>2026-06-28T09:55:16.000Z</time>
      </trkpt>
      <trkpt lat="42.72648" lon="1.45382">
        <ele>1022</ele>
        <time>2026-06-28T09:55:17.000Z</time>
      </trkpt>
      <trkpt lat="42.72653" lon="1.45387">
        <ele>1021</ele>
        <time>2026-06-28T09:55:18.000Z</time>
      </trkpt>
      <trkpt lat="42.72659" lon="1.45392">
        <ele>1021</ele>
        <time>2026-06-28T09:55:19.000Z</time>
      </trkpt>
      <trkpt lat="42.72664" lon="1.45394">
        <ele>1020</ele>
        <time>2026-06-28T09:55:20.000Z</time>
      </trkpt>
      <trkpt lat="42.72668" lon="1.45396">
        <ele>1020</ele>
        <time>2026-06-28T09:55:21.000Z</time>
      </trkpt>
      <trkpt lat="42.72671" lon="1.45399">
        <ele>1019</ele>
        <time>2026-06-28T09:55:22.000Z</time>
      </trkpt>
      <trkpt lat="42.72674" lon="1.45403">
        <ele>1019</ele>
        <time>2026-06-28T09:55:23.000Z</time>
      </trkpt>
      <trkpt lat="42.72678" lon="1.45408">
        <ele>1019</ele>
        <time>2026-06-28T09:55:24.000Z</time>
      </trkpt>
      <trkpt lat="42.7268" lon="1.45414">
        <ele>1019</ele>
        <time>2026-06-28T09:55:25.000Z</time>
      </trkpt>
      <trkpt lat="42.72685" lon="1.45418">
        <ele>1018</ele>
        <time>2026-06-28T09:55:26.000Z</time>
      </trkpt>
      <trkpt lat="42.72689" lon="1.4542">
        <ele>1018</ele>
        <time>2026-06-28T09:55:27.000Z</time>
      </trkpt>
      <trkpt lat="42.72694" lon="1.45424">
        <ele>1017</ele>
        <time>2026-06-28T09:55:28.000Z</time>
      </trkpt>
      <trkpt lat="42.72698" lon="1.45426">
        <ele>1017</ele>
        <time>2026-06-28T09:55:29.000Z</time>
      </trkpt>
      <trkpt lat="42.72701" lon="1.45428">
        <ele>1016</ele>
        <time>2026-06-28T09:55:30.000Z</time>
      </trkpt>
      <trkpt lat="42.72704" lon="1.4543">
        <ele>1015</ele>
        <time>2026-06-28T09:55:31.000Z</time>
      </trkpt>
      <trkpt lat="42.72709" lon="1.45432">
        <ele>1014</ele>
        <time>2026-06-28T09:55:32.000Z</time>
      </trkpt>
      <trkpt lat="42.72713" lon="1.45435">
        <ele>1013</ele>
        <time>2026-06-28T09:55:33.000Z</time>
      </trkpt>
      <trkpt lat="42.72717" lon="1.45436">
        <ele>1012</ele>
        <time>2026-06-28T09:55:34.000Z</time>
      </trkpt>
      <trkpt lat="42.72721" lon="1.45437">
        <ele>1012</ele>
        <time>2026-06-28T09:55:35.000Z</time>
      </trkpt>
      <trkpt lat="42.72724" lon="1.45441">
        <ele>1013</ele>
        <time>2026-06-28T09:55:36.000Z</time>
      </trkpt>
      <trkpt lat="42.72728" lon="1.45445">
        <ele>1014</ele>
        <time>2026-06-28T09:55:37.000Z</time>
      </trkpt>
      <trkpt lat="42.72731" lon="1.45449">
        <ele>1013</ele>
        <time>2026-06-28T09:55:38.000Z</time>
      </trkpt>
      <trkpt lat="42.72734" lon="1.45453">
        <ele>1013</ele>
        <time>2026-06-28T09:55:39.000Z</time>
      </trkpt>
      <trkpt lat="42.72738" lon="1.45456">
        <ele>1014</ele>
        <time>2026-06-28T09:55:40.000Z</time>
      </trkpt>
      <trkpt lat="42.7274" lon="1.4546">
        <ele>1014</ele>
        <time>2026-06-28T09:55:41.000Z</time>
      </trkpt>
      <trkpt lat="42.72743" lon="1.45464">
        <ele>1013</ele>
        <time>2026-06-28T09:55:42.000Z</time>
      </trkpt>
      <trkpt lat="42.72746" lon="1.45469">
        <ele>1013</ele>
        <time>2026-06-28T09:55:43.000Z</time>
      </trkpt>
      <trkpt lat="42.72748" lon="1.45475">
        <ele>1013</ele>
        <time>2026-06-28T09:55:44.000Z</time>
      </trkpt>
      <trkpt lat="42.72751" lon="1.4548">
        <ele>1012</ele>
        <time>2026-06-28T09:55:45.000Z</time>
      </trkpt>
      <trkpt lat="42.72754" lon="1.45485">
        <ele>1012</ele>
        <time>2026-06-28T09:55:46.000Z</time>
      </trkpt>
      <trkpt lat="42.72757" lon="1.4549">
        <ele>1011</ele>
        <time>2026-06-28T09:55:47.000Z</time>
      </trkpt>
      <trkpt lat="42.7276" lon="1.45493">
        <ele>1010</ele>
        <time>2026-06-28T09:55:48.000Z</time>
      </trkpt>
      <trkpt lat="42.72765" lon="1.45496">
        <ele>1009</ele>
        <time>2026-06-28T09:55:49.000Z</time>
      </trkpt>
      <trkpt lat="42.72769" lon="1.45499">
        <ele>1009</ele>
        <time>2026-06-28T09:55:50.000Z</time>
      </trkpt>
      <trkpt lat="42.72773" lon="1.45502">
        <ele>1008</ele>
        <time>2026-06-28T09:55:51.000Z</time>
      </trkpt>
      <trkpt lat="42.72776" lon="1.45506">
        <ele>1007</ele>
        <time>2026-06-28T09:55:52.000Z</time>
      </trkpt>
      <trkpt lat="42.7278" lon="1.4551">
        <ele>1006</ele>
        <time>2026-06-28T09:55:53.000Z</time>
      </trkpt>
      <trkpt lat="42.72784" lon="1.45514">
        <ele>1006</ele>
        <time>2026-06-28T09:55:54.000Z</time>
      </trkpt>
      <trkpt lat="42.72789" lon="1.45517">
        <ele>1006</ele>
        <time>2026-06-28T09:55:55.000Z</time>
      </trkpt>
      <trkpt lat="42.72794" lon="1.4552">
        <ele>1006</ele>
        <time>2026-06-28T09:55:56.000Z</time>
      </trkpt>
      <trkpt lat="42.72799" lon="1.45523">
        <ele>1006</ele>
        <time>2026-06-28T09:55:57.000Z</time>
      </trkpt>
      <trkpt lat="42.72803" lon="1.45526">
        <ele>1005</ele>
        <time>2026-06-28T09:55:58.000Z</time>
      </trkpt>
      <trkpt lat="42.72808" lon="1.45529">
        <ele>1005</ele>
        <time>2026-06-28T09:55:59.000Z</time>
      </trkpt>
      <trkpt lat="42.72813" lon="1.45532">
        <ele>1004</ele>
        <time>2026-06-28T09:56:00.000Z</time>
      </trkpt>
      <trkpt lat="42.72818" lon="1.45536">
        <ele>1004</ele>
        <time>2026-06-28T09:56:01.000Z</time>
      </trkpt>
      <trkpt lat="42.72823" lon="1.45541">
        <ele>1003</ele>
        <time>2026-06-28T09:56:02.000Z</time>
      </trkpt>
      <trkpt lat="42.72829" lon="1.45544">
        <ele>1002</ele>
        <time>2026-06-28T09:56:03.000Z</time>
      </trkpt>
      <trkpt lat="42.72836" lon="1.45547">
        <ele>1001</ele>
        <time>2026-06-28T09:56:04.000Z</time>
      </trkpt>
      <trkpt lat="42.72842" lon="1.45549">
        <ele>1000</ele>
        <time>2026-06-28T09:56:05.000Z</time>
      </trkpt>
      <trkpt lat="42.72846" lon="1.45551">
        <ele>1000</ele>
        <time>2026-06-28T09:56:06.000Z</time>
      </trkpt>
      <trkpt lat="42.72851" lon="1.45553">
        <ele>999</ele>
        <time>2026-06-28T09:56:07.000Z</time>
      </trkpt>
      <trkpt lat="42.72855" lon="1.45557">
        <ele>998</ele>
        <time>2026-06-28T09:56:08.000Z</time>
      </trkpt>
      <trkpt lat="42.72861" lon="1.45559">
        <ele>998</ele>
        <time>2026-06-28T09:56:09.000Z</time>
      </trkpt>
      <trkpt lat="42.72867" lon="1.45561">
        <ele>997</ele>
        <time>2026-06-28T09:56:10.000Z</time>
      </trkpt>
      <trkpt lat="42.72872" lon="1.45562">
        <ele>997</ele>
        <time>2026-06-28T09:56:11.000Z</time>
      </trkpt>
      <trkpt lat="42.72877" lon="1.45564">
        <ele>997</ele>
        <time>2026-06-28T09:56:12.000Z</time>
      </trkpt>
      <trkpt lat="42.72882" lon="1.45565">
        <ele>997</ele>
        <time>2026-06-28T09:56:13.000Z</time>
      </trkpt>
      <trkpt lat="42.72887" lon="1.45566">
        <ele>997</ele>
        <time>2026-06-28T09:56:14.000Z</time>
      </trkpt>
      <trkpt lat="42.72893" lon="1.45567">
        <ele>996</ele>
        <time>2026-06-28T09:56:15.000Z</time>
      </trkpt>
      <trkpt lat="42.72898" lon="1.45569">
        <ele>996</ele>
        <time>2026-06-28T09:56:16.000Z</time>
      </trkpt>
      <trkpt lat="42.72904" lon="1.45571">
        <ele>996</ele>
        <time>2026-06-28T09:56:17.000Z</time>
      </trkpt>
      <trkpt lat="42.7291" lon="1.45573">
        <ele>996</ele>
        <time>2026-06-28T09:56:18.000Z</time>
      </trkpt>
      <trkpt lat="42.72915" lon="1.45576">
        <ele>996</ele>
        <time>2026-06-28T09:56:19.000Z</time>
      </trkpt>
      <trkpt lat="42.72921" lon="1.45578">
        <ele>996</ele>
        <time>2026-06-28T09:56:20.000Z</time>
      </trkpt>
      <trkpt lat="42.72927" lon="1.45581">
        <ele>996</ele>
        <time>2026-06-28T09:56:21.000Z</time>
      </trkpt>
      <trkpt lat="42.72933" lon="1.45585">
        <ele>996</ele>
        <time>2026-06-28T09:56:22.000Z</time>
      </trkpt>
      <trkpt lat="42.72938" lon="1.45589">
        <ele>995</ele>
        <time>2026-06-28T09:56:23.000Z</time>
      </trkpt>
      <trkpt lat="42.72943" lon="1.45594">
        <ele>995</ele>
        <time>2026-06-28T09:56:24.000Z</time>
      </trkpt>
      <trkpt lat="42.72949" lon="1.45598">
        <ele>995</ele>
        <time>2026-06-28T09:56:25.000Z</time>
      </trkpt>
      <trkpt lat="42.72954" lon="1.45601">
        <ele>995</ele>
        <time>2026-06-28T09:56:26.000Z</time>
      </trkpt>
      <trkpt lat="42.72961" lon="1.45605">
        <ele>995</ele>
        <time>2026-06-28T09:56:27.000Z</time>
      </trkpt>
      <trkpt lat="42.72966" lon="1.45606">
        <ele>994</ele>
        <time>2026-06-28T09:56:28.000Z</time>
      </trkpt>
      <trkpt lat="42.72971" lon="1.45607">
        <ele>994</ele>
        <time>2026-06-28T09:56:29.000Z</time>
      </trkpt>
      <trkpt lat="42.72975" lon="1.4561">
        <ele>994</ele>
        <time>2026-06-28T09:56:30.000Z</time>
      </trkpt>
      <trkpt lat="42.7298" lon="1.45613">
        <ele>994</ele>
        <time>2026-06-28T09:56:31.000Z</time>
      </trkpt>
      <trkpt lat="42.72985" lon="1.45617">
        <ele>994</ele>
        <time>2026-06-28T09:56:32.000Z</time>
      </trkpt>
      <trkpt lat="42.72989" lon="1.45622">
        <ele>994</ele>
        <time>2026-06-28T09:56:33.000Z</time>
      </trkpt>
      <trkpt lat="42.72995" lon="1.45628">
        <ele>994</ele>
        <time>2026-06-28T09:56:34.000Z</time>
      </trkpt>
      <trkpt lat="42.72999" lon="1.45633">
        <ele>994</ele>
        <time>2026-06-28T09:56:35.000Z</time>
      </trkpt>
      <trkpt lat="42.73004" lon="1.45639">
        <ele>994</ele>
        <time>2026-06-28T09:56:36.000Z</time>
      </trkpt>
      <trkpt lat="42.73009" lon="1.45645">
        <ele>994</ele>
        <time>2026-06-28T09:56:37.000Z</time>
      </trkpt>
      <trkpt lat="42.73014" lon="1.4565">
        <ele>993</ele>
        <time>2026-06-28T09:56:38.000Z</time>
      </trkpt>
      <trkpt lat="42.73018" lon="1.45656">
        <ele>993</ele>
        <time>2026-06-28T09:56:39.000Z</time>
      </trkpt>
      <trkpt lat="42.73023" lon="1.45661">
        <ele>994</ele>
        <time>2026-06-28T09:56:40.000Z</time>
      </trkpt>
      <trkpt lat="42.73028" lon="1.45668">
        <ele>994</ele>
        <time>2026-06-28T09:56:41.000Z</time>
      </trkpt>
      <trkpt lat="42.73033" lon="1.45676">
        <ele>994</ele>
        <time>2026-06-28T09:56:42.000Z</time>
      </trkpt>
      <trkpt lat="42.73038" lon="1.45683">
        <ele>994</ele>
        <time>2026-06-28T09:56:43.000Z</time>
      </trkpt>
      <trkpt lat="42.73043" lon="1.4569">
        <ele>994</ele>
        <time>2026-06-28T09:56:44.000Z</time>
      </trkpt>
      <trkpt lat="42.73047" lon="1.45697">
        <ele>994</ele>
        <time>2026-06-28T09:56:45.000Z</time>
      </trkpt>
      <trkpt lat="42.7305" lon="1.45704">
        <ele>994</ele>
        <time>2026-06-28T09:56:46.000Z</time>
      </trkpt>
      <trkpt lat="42.73053" lon="1.4571">
        <ele>994</ele>
        <time>2026-06-28T09:56:47.000Z</time>
      </trkpt>
      <trkpt lat="42.73056" lon="1.45716">
        <ele>994</ele>
        <time>2026-06-28T09:56:48.000Z</time>
      </trkpt>
      <trkpt lat="42.73059" lon="1.4572">
        <ele>994</ele>
        <time>2026-06-28T09:56:49.000Z</time>
      </trkpt>
      <trkpt lat="42.73062" lon="1.45725">
        <ele>994</ele>
        <time>2026-06-28T09:56:50.000Z</time>
      </trkpt>
      <trkpt lat="42.73068" lon="1.45729">
        <ele>994</ele>
        <time>2026-06-28T09:56:51.000Z</time>
      </trkpt>
      <trkpt lat="42.73071" lon="1.45732">
        <ele>994</ele>
        <time>2026-06-28T09:56:52.000Z</time>
      </trkpt>
      <trkpt lat="42.73075" lon="1.45735">
        <ele>993</ele>
        <time>2026-06-28T09:56:53.000Z</time>
      </trkpt>
      <trkpt lat="42.73079" lon="1.45738">
        <ele>993</ele>
        <time>2026-06-28T09:56:54.000Z</time>
      </trkpt>
      <trkpt lat="42.73082" lon="1.45741">
        <ele>993</ele>
        <time>2026-06-28T09:56:55.000Z</time>
      </trkpt>
      <trkpt lat="42.73086" lon="1.45742">
        <ele>993</ele>
        <time>2026-06-28T09:56:56.000Z</time>
      </trkpt>
      <trkpt lat="42.7309" lon="1.45744">
        <ele>993</ele>
        <time>2026-06-28T09:56:57.000Z</time>
      </trkpt>
      <trkpt lat="42.73094" lon="1.45746">
        <ele>993</ele>
        <time>2026-06-28T09:56:58.000Z</time>
      </trkpt>
      <trkpt lat="42.73097" lon="1.45747">
        <ele>993</ele>
        <time>2026-06-28T09:56:59.000Z</time>
      </trkpt>
      <trkpt lat="42.731" lon="1.45749">
        <ele>992</ele>
        <time>2026-06-28T09:57:00.000Z</time>
      </trkpt>
      <trkpt lat="42.73102" lon="1.4575">
        <ele>992</ele>
        <time>2026-06-28T09:57:01.000Z</time>
      </trkpt>
      <trkpt lat="42.73104" lon="1.45751">
        <ele>991</ele>
        <time>2026-06-28T09:57:02.000Z</time>
      </trkpt>
      <trkpt lat="42.73107" lon="1.45751">
        <ele>990</ele>
        <time>2026-06-28T09:57:03.000Z</time>
      </trkpt>
      <trkpt lat="42.7311" lon="1.45751">
        <ele>990</ele>
        <time>2026-06-28T09:57:04.000Z</time>
      </trkpt>
      <trkpt lat="42.73111" lon="1.45752">
        <ele>989</ele>
        <time>2026-06-28T09:57:05.000Z</time>
      </trkpt>
      <trkpt lat="42.73113" lon="1.45753">
        <ele>989</ele>
        <time>2026-06-28T09:57:06.000Z</time>
      </trkpt>
      <trkpt lat="42.73114" lon="1.45754">
        <ele>988</ele>
        <time>2026-06-28T09:57:07.000Z</time>
      </trkpt>
      <trkpt lat="42.73117" lon="1.45754">
        <ele>988</ele>
        <time>2026-06-28T09:57:08.000Z</time>
      </trkpt>
      <trkpt lat="42.7312" lon="1.45755">
        <ele>988</ele>
        <time>2026-06-28T09:57:09.000Z</time>
      </trkpt>
      <trkpt lat="42.73122" lon="1.45755">
        <ele>987</ele>
        <time>2026-06-28T09:57:10.000Z</time>
      </trkpt>
      <trkpt lat="42.73126" lon="1.45755">
        <ele>987</ele>
        <time>2026-06-28T09:57:11.000Z</time>
      </trkpt>
      <trkpt lat="42.73129" lon="1.45754">
        <ele>987</ele>
        <time>2026-06-28T09:57:12.000Z</time>
      </trkpt>
      <trkpt lat="42.73132" lon="1.45754">
        <ele>987</ele>
        <time>2026-06-28T09:57:13.000Z</time>
      </trkpt>
      <trkpt lat="42.73134" lon="1.45753">
        <ele>987</ele>
        <time>2026-06-28T09:57:14.000Z</time>
      </trkpt>
      <trkpt lat="42.73136" lon="1.45754">
        <ele>987</ele>
        <time>2026-06-28T09:57:15.000Z</time>
      </trkpt>
      <trkpt lat="42.73138" lon="1.45755">
        <ele>987</ele>
        <time>2026-06-28T09:57:16.000Z</time>
      </trkpt>
      <trkpt lat="42.73139" lon="1.45754">
        <ele>987</ele>
        <time>2026-06-28T09:57:17.000Z</time>
      </trkpt>
      <trkpt lat="42.7314" lon="1.45754">
        <ele>987</ele>
        <time>2026-06-28T09:57:18.000Z</time>
      </trkpt>
      <trkpt lat="42.73141" lon="1.45754">
        <ele>986</ele>
        <time>2026-06-28T09:57:19.000Z</time>
      </trkpt>
      <trkpt lat="42.73143" lon="1.45755">
        <ele>986</ele>
        <time>2026-06-28T09:57:20.000Z</time>
      </trkpt>
      <trkpt lat="42.73144" lon="1.45755">
        <ele>986</ele>
        <time>2026-06-28T09:57:21.000Z</time>
      </trkpt>
      <trkpt lat="42.73145" lon="1.45755">
        <ele>985</ele>
        <time>2026-06-28T09:57:22.000Z</time>
      </trkpt>
      <trkpt lat="42.73146" lon="1.45755">
        <ele>985</ele>
        <time>2026-06-28T09:57:23.000Z</time>
      </trkpt>
      <trkpt lat="42.73146" lon="1.45755">
        <ele>985</ele>
        <time>2026-06-28T09:57:24.000Z</time>
      </trkpt>
      <trkpt lat="42.73146" lon="1.45756">
        <ele>984</ele>
        <time>2026-06-28T09:57:25.000Z</time>
      </trkpt>
      <trkpt lat="42.73147" lon="1.45756">
        <ele>985</ele>
        <time>2026-06-28T09:57:26.000Z</time>
      </trkpt>
      <trkpt lat="42.73149" lon="1.45757">
        <ele>985</ele>
        <time>2026-06-28T09:57:27.000Z</time>
      </trkpt>
      <trkpt lat="42.7315" lon="1.45758">
        <ele>985</ele>
        <time>2026-06-28T09:57:28.000Z</time>
      </trkpt>
      <trkpt lat="42.73151" lon="1.45758">
        <ele>985</ele>
        <time>2026-06-28T09:57:29.000Z</time>
      </trkpt>
      <trkpt lat="42.73152" lon="1.45758">
        <ele>986</ele>
        <time>2026-06-28T09:57:30.000Z</time>
      </trkpt>
      <trkpt lat="42.73154" lon="1.45757">
        <ele>986</ele>
        <time>2026-06-28T09:57:31.000Z</time>
      </trkpt>
      <trkpt lat="42.73155" lon="1.45757">
        <ele>986</ele>
        <time>2026-06-28T09:57:32.000Z</time>
      </trkpt>
      <trkpt lat="42.73157" lon="1.45756">
        <ele>985</ele>
        <time>2026-06-28T09:57:33.000Z</time>
      </trkpt>
      <trkpt lat="42.73158" lon="1.45756">
        <ele>985</ele>
        <time>2026-06-28T09:57:34.000Z</time>
      </trkpt>
      <trkpt lat="42.7316" lon="1.45755">
        <ele>985</ele>
        <time>2026-06-28T09:57:35.000Z</time>
      </trkpt>
      <trkpt lat="42.73161" lon="1.45756">
        <ele>985</ele>
        <time>2026-06-28T09:57:36.000Z</time>
      </trkpt>
      <trkpt lat="42.73163" lon="1.45757">
        <ele>985</ele>
        <time>2026-06-28T09:57:37.000Z</time>
      </trkpt>
      <trkpt lat="42.73164" lon="1.45756">
        <ele>985</ele>
        <time>2026-06-28T09:57:38.000Z</time>
      </trkpt>
      <trkpt lat="42.73166" lon="1.45756">
        <ele>985</ele>
        <time>2026-06-28T09:57:39.000Z</time>
      </trkpt>
      <trkpt lat="42.73167" lon="1.45755">
        <ele>986</ele>
        <time>2026-06-28T09:57:40.000Z</time>
      </trkpt>
      <trkpt lat="42.73168" lon="1.45756">
        <ele>986</ele>
        <time>2026-06-28T09:57:41.000Z</time>
      </trkpt>
      <trkpt lat="42.7317" lon="1.45758">
        <ele>985</ele>
        <time>2026-06-28T09:57:42.000Z</time>
      </trkpt>
      <trkpt lat="42.73172" lon="1.45758">
        <ele>986</ele>
        <time>2026-06-28T09:57:43.000Z</time>
      </trkpt>
      <trkpt lat="42.73175" lon="1.45758">
        <ele>986</ele>
        <time>2026-06-28T09:57:44.000Z</time>
      </trkpt>
      <trkpt lat="42.73179" lon="1.45759">
        <ele>986</ele>
        <time>2026-06-28T09:57:45.000Z</time>
      </trkpt>
      <trkpt lat="42.73182" lon="1.45758">
        <ele>987</ele>
        <time>2026-06-28T09:57:46.000Z</time>
      </trkpt>
      <trkpt lat="42.73186" lon="1.45758">
        <ele>987</ele>
        <time>2026-06-28T09:57:47.000Z</time>
      </trkpt>
      <trkpt lat="42.73191" lon="1.45758">
        <ele>988</ele>
        <time>2026-06-28T09:57:48.000Z</time>
      </trkpt>
      <trkpt lat="42.73197" lon="1.45758">
        <ele>988</ele>
        <time>2026-06-28T09:57:49.000Z</time>
      </trkpt>
      <trkpt lat="42.73205" lon="1.45757">
        <ele>988</ele>
        <time>2026-06-28T09:57:50.000Z</time>
      </trkpt>
      <trkpt lat="42.73212" lon="1.45754">
        <ele>989</ele>
        <time>2026-06-28T09:57:51.000Z</time>
      </trkpt>
      <trkpt lat="42.73218" lon="1.4575">
        <ele>988</ele>
        <time>2026-06-28T09:57:52.000Z</time>
      </trkpt>
      <trkpt lat="42.73227" lon="1.45747">
        <ele>989</ele>
        <time>2026-06-28T09:57:53.000Z</time>
      </trkpt>
      <trkpt lat="42.73234" lon="1.45744">
        <ele>989</ele>
        <time>2026-06-28T09:57:54.000Z</time>
      </trkpt>
      <trkpt lat="42.73241" lon="1.45742">
        <ele>989</ele>
        <time>2026-06-28T09:57:55.000Z</time>
      </trkpt>
      <trkpt lat="42.73249" lon="1.45741">
        <ele>988</ele>
        <time>2026-06-28T09:57:56.000Z</time>
      </trkpt>
      <trkpt lat="42.73256" lon="1.4574">
        <ele>988</ele>
        <time>2026-06-28T09:57:57.000Z</time>
      </trkpt>
      <trkpt lat="42.73261" lon="1.45739">
        <ele>987</ele>
        <time>2026-06-28T09:57:58.000Z</time>
      </trkpt>
      <trkpt lat="42.73265" lon="1.4574">
        <ele>987</ele>
        <time>2026-06-28T09:57:59.000Z</time>
      </trkpt>
      <trkpt lat="42.7327" lon="1.45739">
        <ele>986</ele>
        <time>2026-06-28T09:58:00.000Z</time>
      </trkpt>
      <trkpt lat="42.73274" lon="1.45737">
        <ele>986</ele>
        <time>2026-06-28T09:58:01.000Z</time>
      </trkpt>
      <trkpt lat="42.73279" lon="1.45736">
        <ele>987</ele>
        <time>2026-06-28T09:58:02.000Z</time>
      </trkpt>
      <trkpt lat="42.73283" lon="1.45736">
        <ele>986</ele>
        <time>2026-06-28T09:58:03.000Z</time>
      </trkpt>
      <trkpt lat="42.73287" lon="1.45738">
        <ele>986</ele>
        <time>2026-06-28T09:58:04.000Z</time>
      </trkpt>
      <trkpt lat="42.73291" lon="1.45739">
        <ele>987</ele>
        <time>2026-06-28T09:58:05.000Z</time>
      </trkpt>
      <trkpt lat="42.73293" lon="1.45741">
        <ele>987</ele>
        <time>2026-06-28T09:58:06.000Z</time>
      </trkpt>
      <trkpt lat="42.73295" lon="1.45742">
        <ele>987</ele>
        <time>2026-06-28T09:58:07.000Z</time>
      </trkpt>
      <trkpt lat="42.73296" lon="1.45741">
        <ele>987</ele>
        <time>2026-06-28T09:58:08.000Z</time>
      </trkpt>
      <trkpt lat="42.73299" lon="1.4574">
        <ele>987</ele>
        <time>2026-06-28T09:58:09.000Z</time>
      </trkpt>
      <trkpt lat="42.73301" lon="1.45741">
        <ele>987</ele>
        <time>2026-06-28T09:58:10.000Z</time>
      </trkpt>
      <trkpt lat="42.73303" lon="1.45742">
        <ele>988</ele>
        <time>2026-06-28T09:58:11.000Z</time>
      </trkpt>
      <trkpt lat="42.73305" lon="1.45742">
        <ele>988</ele>
        <time>2026-06-28T09:58:12.000Z</time>
      </trkpt>
      <trkpt lat="42.73306" lon="1.45743">
        <ele>988</ele>
        <time>2026-06-28T09:58:13.000Z</time>
      </trkpt>
      <trkpt lat="42.73308" lon="1.45745">
        <ele>988</ele>
        <time>2026-06-28T09:58:14.000Z</time>
      </trkpt>
      <trkpt lat="42.7331" lon="1.45746">
        <ele>989</ele>
        <time>2026-06-28T09:58:15.000Z</time>
      </trkpt>
      <trkpt lat="42.73312" lon="1.45747">
        <ele>989</ele>
        <time>2026-06-28T09:58:16.000Z</time>
      </trkpt>
      <trkpt lat="42.73314" lon="1.45747">
        <ele>989</ele>
        <time>2026-06-28T09:58:17.000Z</time>
      </trkpt>
      <trkpt lat="42.73316" lon="1.45748">
        <ele>990</ele>
        <time>2026-06-28T09:58:18.000Z</time>
      </trkpt>
      <trkpt lat="42.73318" lon="1.45748">
        <ele>990</ele>
        <time>2026-06-28T09:58:19.000Z</time>
      </trkpt>
      <trkpt lat="42.73321" lon="1.45749">
        <ele>990</ele>
        <time>2026-06-28T09:58:20.000Z</time>
      </trkpt>
      <trkpt lat="42.73323" lon="1.45751">
        <ele>990</ele>
        <time>2026-06-28T09:58:21.000Z</time>
      </trkpt>
      <trkpt lat="42.73325" lon="1.45752">
        <ele>990</ele>
        <time>2026-06-28T09:58:22.000Z</time>
      </trkpt>
      <trkpt lat="42.73327" lon="1.45753">
        <ele>990</ele>
        <time>2026-06-28T09:58:23.000Z</time>
      </trkpt>
      <trkpt lat="42.73329" lon="1.45754">
        <ele>990</ele>
        <time>2026-06-28T09:58:24.000Z</time>
      </trkpt>
      <trkpt lat="42.73331" lon="1.45756">
        <ele>990</ele>
        <time>2026-06-28T09:58:25.000Z</time>
      </trkpt>
      <trkpt lat="42.73333" lon="1.45757">
        <ele>990</ele>
        <time>2026-06-28T09:58:26.000Z</time>
      </trkpt>
      <trkpt lat="42.73336" lon="1.45759">
        <ele>991</ele>
        <time>2026-06-28T09:58:27.000Z</time>
      </trkpt>
      <trkpt lat="42.73338" lon="1.45761">
        <ele>991</ele>
        <time>2026-06-28T09:58:28.000Z</time>
      </trkpt>
      <trkpt lat="42.7334" lon="1.45763">
        <ele>991</ele>
        <time>2026-06-28T09:58:29.000Z</time>
      </trkpt>
      <trkpt lat="42.73342" lon="1.45764">
        <ele>991</ele>
        <time>2026-06-28T09:58:30.000Z</time>
      </trkpt>
      <trkpt lat="42.73344" lon="1.45766">
        <ele>992</ele>
        <time>2026-06-28T09:58:31.000Z</time>
      </trkpt>
      <trkpt lat="42.73346" lon="1.45768">
        <ele>992</ele>
        <time>2026-06-28T09:58:32.000Z</time>
      </trkpt>
      <trkpt lat="42.73347" lon="1.4577">
        <ele>991</ele>
        <time>2026-06-28T09:58:33.000Z</time>
      </trkpt>
      <trkpt lat="42.73349" lon="1.4577">
        <ele>992</ele>
        <time>2026-06-28T09:58:34.000Z</time>
      </trkpt>
      <trkpt lat="42.7335" lon="1.45771">
        <ele>992</ele>
        <time>2026-06-28T09:58:35.000Z</time>
      </trkpt>
      <trkpt lat="42.73352" lon="1.45773">
        <ele>992</ele>
        <time>2026-06-28T09:58:36.000Z</time>
      </trkpt>
      <trkpt lat="42.73355" lon="1.45774">
        <ele>992</ele>
        <time>2026-06-28T09:58:37.000Z</time>
      </trkpt>
      <trkpt lat="42.73357" lon="1.45775">
        <ele>992</ele>
        <time>2026-06-28T09:58:38.000Z</time>
      </trkpt>
      <trkpt lat="42.73359" lon="1.45777">
        <ele>992</ele>
        <time>2026-06-28T09:58:39.000Z</time>
      </trkpt>
      <trkpt lat="42.73361" lon="1.45777">
        <ele>992</ele>
        <time>2026-06-28T09:58:40.000Z</time>
      </trkpt>
      <trkpt lat="42.73364" lon="1.45778">
        <ele>992</ele>
        <time>2026-06-28T09:58:41.000Z</time>
      </trkpt>
      <trkpt lat="42.73367" lon="1.45779">
        <ele>992</ele>
        <time>2026-06-28T09:58:42.000Z</time>
      </trkpt>
      <trkpt lat="42.7337" lon="1.4578">
        <ele>992</ele>
        <time>2026-06-28T09:58:43.000Z</time>
      </trkpt>
      <trkpt lat="42.73372" lon="1.45782">
        <ele>993</ele>
        <time>2026-06-28T09:58:44.000Z</time>
      </trkpt>
      <trkpt lat="42.73374" lon="1.45784">
        <ele>992</ele>
        <time>2026-06-28T09:58:45.000Z</time>
      </trkpt>
      <trkpt lat="42.73376" lon="1.45785">
        <ele>992</ele>
        <time>2026-06-28T09:58:46.000Z</time>
      </trkpt>
      <trkpt lat="42.73378" lon="1.45786">
        <ele>992</ele>
        <time>2026-06-28T09:58:47.000Z</time>
      </trkpt>
      <trkpt lat="42.7338" lon="1.45787">
        <ele>991</ele>
        <time>2026-06-28T09:58:48.000Z</time>
      </trkpt>
      <trkpt lat="42.73383" lon="1.45787">
        <ele>992</ele>
        <time>2026-06-28T09:58:49.000Z</time>
      </trkpt>
      <trkpt lat="42.73385" lon="1.45788">
        <ele>992</ele>
        <time>2026-06-28T09:58:50.000Z</time>
      </trkpt>
      <trkpt lat="42.73388" lon="1.45788">
        <ele>991</ele>
        <time>2026-06-28T09:58:51.000Z</time>
      </trkpt>
      <trkpt lat="42.7339" lon="1.45788">
        <ele>991</ele>
        <time>2026-06-28T09:58:52.000Z</time>
      </trkpt>
      <trkpt lat="42.73393" lon="1.45789">
        <ele>990</ele>
        <time>2026-06-28T09:58:53.000Z</time>
      </trkpt>
      <trkpt lat="42.73395" lon="1.45789">
        <ele>990</ele>
        <time>2026-06-28T09:58:54.000Z</time>
      </trkpt>
      <trkpt lat="42.73398" lon="1.45789">
        <ele>990</ele>
        <time>2026-06-28T09:58:55.000Z</time>
      </trkpt>
      <trkpt lat="42.73401" lon="1.4579">
        <ele>990</ele>
        <time>2026-06-28T09:58:56.000Z</time>
      </trkpt>
      <trkpt lat="42.73402" lon="1.45791">
        <ele>990</ele>
        <time>2026-06-28T09:58:57.000Z</time>
      </trkpt>
      <trkpt lat="42.73405" lon="1.45792">
        <ele>990</ele>
        <time>2026-06-28T09:58:58.000Z</time>
      </trkpt>
      <trkpt lat="42.73407" lon="1.45792">
        <ele>990</ele>
        <time>2026-06-28T09:58:59.000Z</time>
      </trkpt>
      <trkpt lat="42.7341" lon="1.45791">
        <ele>991</ele>
        <time>2026-06-28T09:59:00.000Z</time>
      </trkpt>
      <trkpt lat="42.73413" lon="1.45789">
        <ele>991</ele>
        <time>2026-06-28T09:59:01.000Z</time>
      </trkpt>
      <trkpt lat="42.73416" lon="1.45788">
        <ele>992</ele>
        <time>2026-06-28T09:59:02.000Z</time>
      </trkpt>
      <trkpt lat="42.73418" lon="1.45785">
        <ele>992</ele>
        <time>2026-06-28T09:59:03.000Z</time>
      </trkpt>
      <trkpt lat="42.73421" lon="1.45781">
        <ele>992</ele>
        <time>2026-06-28T09:59:04.000Z</time>
      </trkpt>
      <trkpt lat="42.73424" lon="1.45779">
        <ele>992</ele>
        <time>2026-06-28T09:59:05.000Z</time>
      </trkpt>
      <trkpt lat="42.73426" lon="1.45777">
        <ele>992</ele>
        <time>2026-06-28T09:59:06.000Z</time>
      </trkpt>
      <trkpt lat="42.73428" lon="1.45777">
        <ele>992</ele>
        <time>2026-06-28T09:59:07.000Z</time>
      </trkpt>
      <trkpt lat="42.7343" lon="1.45776">
        <ele>991</ele>
        <time>2026-06-28T09:59:08.000Z</time>
      </trkpt>
      <trkpt lat="42.73433" lon="1.45775">
        <ele>991</ele>
        <time>2026-06-28T09:59:09.000Z</time>
      </trkpt>
      <trkpt lat="42.73436" lon="1.45773">
        <ele>991</ele>
        <time>2026-06-28T09:59:10.000Z</time>
      </trkpt>
      <trkpt lat="42.7344" lon="1.4577">
        <ele>991</ele>
        <time>2026-06-28T09:59:11.000Z</time>
      </trkpt>
      <trkpt lat="42.73445" lon="1.45768">
        <ele>992</ele>
        <time>2026-06-28T09:59:12.000Z</time>
      </trkpt>
      <trkpt lat="42.73449" lon="1.45766">
        <ele>992</ele>
        <time>2026-06-28T09:59:13.000Z</time>
      </trkpt>
      <trkpt lat="42.73452" lon="1.45763">
        <ele>992</ele>
        <time>2026-06-28T09:59:14.000Z</time>
      </trkpt>
      <trkpt lat="42.73455" lon="1.45763">
        <ele>991</ele>
        <time>2026-06-28T09:59:15.000Z</time>
      </trkpt>
      <trkpt lat="42.73458" lon="1.45762">
        <ele>991</ele>
        <time>2026-06-28T09:59:16.000Z</time>
      </trkpt>
      <trkpt lat="42.7346" lon="1.45763">
        <ele>991</ele>
        <time>2026-06-28T09:59:17.000Z</time>
      </trkpt>
      <trkpt lat="42.73462" lon="1.45763">
        <ele>992</ele>
        <time>2026-06-28T09:59:18.000Z</time>
      </trkpt>
      <trkpt lat="42.73465" lon="1.45763">
        <ele>992</ele>
        <time>2026-06-28T09:59:19.000Z</time>
      </trkpt>
      <trkpt lat="42.73467" lon="1.45763">
        <ele>992</ele>
        <time>2026-06-28T09:59:20.000Z</time>
      </trkpt>
      <trkpt lat="42.7347" lon="1.45762">
        <ele>993</ele>
        <time>2026-06-28T09:59:21.000Z</time>
      </trkpt>
      <trkpt lat="42.73474" lon="1.45759">
        <ele>993</ele>
        <time>2026-06-28T09:59:22.000Z</time>
      </trkpt>
      <trkpt lat="42.73477" lon="1.45756">
        <ele>993</ele>
        <time>2026-06-28T09:59:23.000Z</time>
      </trkpt>
      <trkpt lat="42.7348" lon="1.45753">
        <ele>993</ele>
        <time>2026-06-28T09:59:24.000Z</time>
      </trkpt>
      <trkpt lat="42.73482" lon="1.4575">
        <ele>993</ele>
        <time>2026-06-28T09:59:25.000Z</time>
      </trkpt>
      <trkpt lat="42.73484" lon="1.45747">
        <ele>993</ele>
        <time>2026-06-28T09:59:26.000Z</time>
      </trkpt>
      <trkpt lat="42.73485" lon="1.45745">
        <ele>993</ele>
        <time>2026-06-28T09:59:27.000Z</time>
      </trkpt>
      <trkpt lat="42.73487" lon="1.45742">
        <ele>994</ele>
        <time>2026-06-28T09:59:28.000Z</time>
      </trkpt>
      <trkpt lat="42.73489" lon="1.45741">
        <ele>994</ele>
        <time>2026-06-28T09:59:29.000Z</time>
      </trkpt>
      <trkpt lat="42.7349" lon="1.45739">
        <ele>995</ele>
        <time>2026-06-28T09:59:30.000Z</time>
      </trkpt>
      <trkpt lat="42.73492" lon="1.45739">
        <ele>995</ele>
        <time>2026-06-28T09:59:31.000Z</time>
      </trkpt>
      <trkpt lat="42.73494" lon="1.45739">
        <ele>995</ele>
        <time>2026-06-28T09:59:32.000Z</time>
      </trkpt>
      <trkpt lat="42.73496" lon="1.45739">
        <ele>996</ele>
        <time>2026-06-28T09:59:33.000Z</time>
      </trkpt>
      <trkpt lat="42.73499" lon="1.45737">
        <ele>995</ele>
        <time>2026-06-28T09:59:34.000Z</time>
      </trkpt>
      <trkpt lat="42.73501" lon="1.45735">
        <ele>995</ele>
        <time>2026-06-28T09:59:35.000Z</time>
      </trkpt>
      <trkpt lat="42.73504" lon="1.4573">
        <ele>995</ele>
        <time>2026-06-28T09:59:36.000Z</time>
      </trkpt>
      <trkpt lat="42.73507" lon="1.45723">
        <ele>995</ele>
        <time>2026-06-28T09:59:37.000Z</time>
      </trkpt>
      <trkpt lat="42.7351" lon="1.45717">
        <ele>995</ele>
        <time>2026-06-28T09:59:38.000Z</time>
      </trkpt>
      <trkpt lat="42.73511" lon="1.45713">
        <ele>995</ele>
        <time>2026-06-28T09:59:39.000Z</time>
      </trkpt>
      <trkpt lat="42.73512" lon="1.45709">
        <ele>996</ele>
        <time>2026-06-28T09:59:40.000Z</time>
      </trkpt>
      <trkpt lat="42.73513" lon="1.45706">
        <ele>995</ele>
        <time>2026-06-28T09:59:41.000Z</time>
      </trkpt>
      <trkpt lat="42.73514" lon="1.45704">
        <ele>995</ele>
        <time>2026-06-28T09:59:42.000Z</time>
      </trkpt>
      <trkpt lat="42.73516" lon="1.45702">
        <ele>994</ele>
        <time>2026-06-28T09:59:43.000Z</time>
      </trkpt>
      <trkpt lat="42.73519" lon="1.45701">
        <ele>994</ele>
        <time>2026-06-28T09:59:44.000Z</time>
      </trkpt>
      <trkpt lat="42.73521" lon="1.457">
        <ele>994</ele>
        <time>2026-06-28T09:59:45.000Z</time>
      </trkpt>
      <trkpt lat="42.73524" lon="1.45699">
        <ele>994</ele>
        <time>2026-06-28T09:59:46.000Z</time>
      </trkpt>
      <trkpt lat="42.73525" lon="1.45699">
        <ele>993</ele>
        <time>2026-06-28T09:59:47.000Z</time>
      </trkpt>
      <trkpt lat="42.73526" lon="1.45699">
        <ele>993</ele>
        <time>2026-06-28T09:59:48.000Z</time>
      </trkpt>
      <trkpt lat="42.73528" lon="1.45698">
        <ele>993</ele>
        <time>2026-06-28T09:59:49.000Z</time>
      </trkpt>
      <trkpt lat="42.73529" lon="1.45697">
        <ele>993</ele>
        <time>2026-06-28T09:59:50.000Z</time>
      </trkpt>
      <trkpt lat="42.7353" lon="1.45697">
        <ele>993</ele>
        <time>2026-06-28T09:59:51.000Z</time>
      </trkpt>
      <trkpt lat="42.73531" lon="1.45696">
        <ele>993</ele>
        <time>2026-06-28T09:59:52.000Z</time>
      </trkpt>
      <trkpt lat="42.73532" lon="1.45695">
        <ele>993</ele>
        <time>2026-06-28T09:59:53.000Z</time>
      </trkpt>
      <trkpt lat="42.73533" lon="1.45694">
        <ele>992</ele>
        <time>2026-06-28T09:59:54.000Z</time>
      </trkpt>
      <trkpt lat="42.73533" lon="1.45693">
        <ele>992</ele>
        <time>2026-06-28T09:59:55.000Z</time>
      </trkpt>
      <trkpt lat="42.73535" lon="1.45693">
        <ele>992</ele>
        <time>2026-06-28T09:59:56.000Z</time>
      </trkpt>
      <trkpt lat="42.73537" lon="1.45692">
        <ele>992</ele>
        <time>2026-06-28T09:59:57.000Z</time>
      </trkpt>
      <trkpt lat="42.73539" lon="1.45692">
        <ele>992</ele>
        <time>2026-06-28T09:59:58.000Z</time>
      </trkpt>
      <trkpt lat="42.73539" lon="1.45692">
        <ele>992</ele>
        <time>2026-06-28T09:59:59.000Z</time>
      </trkpt>
      <trkpt lat="42.7354" lon="1.45691">
        <ele>992</ele>
        <time>2026-06-28T10:00:00.000Z</time>
      </trkpt>
      <trkpt lat="42.7354" lon="1.4569">
        <ele>992</ele>
        <time>2026-06-28T10:00:01.000Z</time>
      </trkpt>
      <trkpt lat="42.73541" lon="1.45688">
        <ele>992</ele>
        <time>2026-06-28T10:00:02.000Z</time>
      </trkpt>
      <trkpt lat="42.73541" lon="1.45687">
        <ele>992</ele>
        <time>2026-06-28T10:00:03.000Z</time>
      </trkpt>
      <trkpt lat="42.73541" lon="1.45686">
        <ele>991</ele>
        <time>2026-06-28T10:00:04.000Z</time>
      </trkpt>
      <trkpt lat="42.73541" lon="1.45686">
        <ele>991</ele>
        <time>2026-06-28T10:00:05.000Z</time>
      </trkpt>
      <trkpt lat="42.73542" lon="1.45686">
        <ele>991</ele>
        <time>2026-06-28T10:00:06.000Z</time>
      </trkpt>
      <trkpt lat="42.73543" lon="1.45686">
        <ele>991</ele>
        <time>2026-06-28T10:00:07.000Z</time>
      </trkpt>
      <trkpt lat="42.73545" lon="1.45685">
        <ele>991</ele>
        <time>2026-06-28T10:00:08.000Z</time>
      </trkpt>
      <trkpt lat="42.73547" lon="1.45686">
        <ele>991</ele>
        <time>2026-06-28T10:00:09.000Z</time>
      </trkpt>
      <trkpt lat="42.73549" lon="1.45687">
        <ele>991</ele>
        <time>2026-06-28T10:00:10.000Z</time>
      </trkpt>
      <trkpt lat="42.73551" lon="1.45687">
        <ele>991</ele>
        <time>2026-06-28T10:00:11.000Z</time>
      </trkpt>
      <trkpt lat="42.73552" lon="1.45688">
        <ele>991</ele>
        <time>2026-06-28T10:00:12.000Z</time>
      </trkpt>
      <trkpt lat="42.73552" lon="1.4569">
        <ele>991</ele>
        <time>2026-06-28T10:00:13.000Z</time>
      </trkpt>
      <trkpt lat="42.73553" lon="1.45691">
        <ele>991</ele>
        <time>2026-06-28T10:00:14.000Z</time>
      </trkpt>
      <trkpt lat="42.73553" lon="1.45694">
        <ele>992</ele>
        <time>2026-06-28T10:00:15.000Z</time>
      </trkpt>
      <trkpt lat="42.73554" lon="1.45696">
        <ele>992</ele>
        <time>2026-06-28T10:00:16.000Z</time>
      </trkpt>
      <trkpt lat="42.73555" lon="1.45698">
        <ele>993</ele>
        <time>2026-06-28T10:00:17.000Z</time>
      </trkpt>
      <trkpt lat="42.73558" lon="1.45701">
        <ele>993</ele>
        <time>2026-06-28T10:00:18.000Z</time>
      </trkpt>
      <trkpt lat="42.73561" lon="1.45704">
        <ele>993</ele>
        <time>2026-06-28T10:00:19.000Z</time>
      </trkpt>
      <trkpt lat="42.73564" lon="1.45705">
        <ele>993</ele>
        <time>2026-06-28T10:00:20.000Z</time>
      </trkpt>
      <trkpt lat="42.73567" lon="1.45706">
        <ele>993</ele>
        <time>2026-06-28T10:00:21.000Z</time>
      </trkpt>
      <trkpt lat="42.7357" lon="1.45707">
        <ele>994</ele>
        <time>2026-06-28T10:00:22.000Z</time>
      </trkpt>
      <trkpt lat="42.73571" lon="1.45709">
        <ele>993</ele>
        <time>2026-06-28T10:00:23.000Z</time>
      </trkpt>
      <trkpt lat="42.73573" lon="1.45711">
        <ele>993</ele>
        <time>2026-06-28T10:00:24.000Z</time>
      </trkpt>
      <trkpt lat="42.73576" lon="1.45713">
        <ele>993</ele>
        <time>2026-06-28T10:00:25.000Z</time>
      </trkpt>
      <trkpt lat="42.73578" lon="1.45715">
        <ele>993</ele>
        <time>2026-06-28T10:00:26.000Z</time>
      </trkpt>
      <trkpt lat="42.7358" lon="1.45716">
        <ele>993</ele>
        <time>2026-06-28T10:00:27.000Z</time>
      </trkpt>
      <trkpt lat="42.73581" lon="1.45717">
        <ele>993</ele>
        <time>2026-06-28T10:00:28.000Z</time>
      </trkpt>
      <trkpt lat="42.73582" lon="1.45718">
        <ele>993</ele>
        <time>2026-06-28T10:00:29.000Z</time>
      </trkpt>
      <trkpt lat="42.73584" lon="1.45719">
        <ele>993</ele>
        <time>2026-06-28T10:00:30.000Z</time>
      </trkpt>
      <trkpt lat="42.73586" lon="1.45721">
        <ele>993</ele>
        <time>2026-06-28T10:00:31.000Z</time>
      </trkpt>
      <trkpt lat="42.73588" lon="1.45722">
        <ele>994</ele>
        <time>2026-06-28T10:00:32.000Z</time>
      </trkpt>
      <trkpt lat="42.7359" lon="1.45723">
        <ele>994</ele>
        <time>2026-06-28T10:00:33.000Z</time>
      </trkpt>
      <trkpt lat="42.73592" lon="1.45724">
        <ele>994</ele>
        <time>2026-06-28T10:00:34.000Z</time>
      </trkpt>
      <trkpt lat="42.73594" lon="1.45726">
        <ele>994</ele>
        <time>2026-06-28T10:00:35.000Z</time>
      </trkpt>
      <trkpt lat="42.73596" lon="1.45727">
        <ele>994</ele>
        <time>2026-06-28T10:00:36.000Z</time>
      </trkpt>
      <trkpt lat="42.73598" lon="1.45727">
        <ele>994</ele>
        <time>2026-06-28T10:00:37.000Z</time>
      </trkpt>
      <trkpt lat="42.736" lon="1.45729">
        <ele>994</ele>
        <time>2026-06-28T10:00:38.000Z</time>
      </trkpt>
      <trkpt lat="42.73602" lon="1.4573">
        <ele>993</ele>
        <time>2026-06-28T10:00:39.000Z</time>
      </trkpt>
      <trkpt lat="42.73604" lon="1.45732">
        <ele>994</ele>
        <time>2026-06-28T10:00:40.000Z</time>
      </trkpt>
      <trkpt lat="42.73606" lon="1.45733">
        <ele>995</ele>
        <time>2026-06-28T10:00:41.000Z</time>
      </trkpt>
      <trkpt lat="42.73608" lon="1.45733">
        <ele>994</ele>
        <time>2026-06-28T10:00:42.000Z</time>
      </trkpt>
      <trkpt lat="42.73609" lon="1.45733">
        <ele>994</ele>
        <time>2026-06-28T10:00:43.000Z</time>
      </trkpt>
      <trkpt lat="42.7361" lon="1.45734">
        <ele>995</ele>
        <time>2026-06-28T10:00:44.000Z</time>
      </trkpt>
      <trkpt lat="42.73612" lon="1.45734">
        <ele>995</ele>
        <time>2026-06-28T10:00:45.000Z</time>
      </trkpt>
      <trkpt lat="42.73614" lon="1.45733">
        <ele>996</ele>
        <time>2026-06-28T10:00:46.000Z</time>
      </trkpt>
      <trkpt lat="42.73615" lon="1.45734">
        <ele>996</ele>
        <time>2026-06-28T10:00:47.000Z</time>
      </trkpt>
      <trkpt lat="42.73616" lon="1.45734">
        <ele>995</ele>
        <time>2026-06-28T10:00:48.000Z</time>
      </trkpt>
      <trkpt lat="42.73618" lon="1.45734">
        <ele>995</ele>
        <time>2026-06-28T10:00:49.000Z</time>
      </trkpt>
      <trkpt lat="42.73619" lon="1.45734">
        <ele>995</ele>
        <time>2026-06-28T10:00:50.000Z</time>
      </trkpt>
      <trkpt lat="42.73621" lon="1.45734">
        <ele>994</ele>
        <time>2026-06-28T10:00:51.000Z</time>
      </trkpt>
      <trkpt lat="42.73623" lon="1.45735">
        <ele>994</ele>
        <time>2026-06-28T10:00:52.000Z</time>
      </trkpt>
      <trkpt lat="42.73624" lon="1.45736">
        <ele>994</ele>
        <time>2026-06-28T10:00:53.000Z</time>
      </trkpt>
      <trkpt lat="42.73625" lon="1.45737">
        <ele>994</ele>
        <time>2026-06-28T10:00:54.000Z</time>
      </trkpt>
      <trkpt lat="42.73627" lon="1.45738">
        <ele>993</ele>
        <time>2026-06-28T10:00:55.000Z</time>
      </trkpt>
      <trkpt lat="42.73628" lon="1.45738">
        <ele>993</ele>
        <time>2026-06-28T10:00:56.000Z</time>
      </trkpt>
      <trkpt lat="42.7363" lon="1.45739">
        <ele>994</ele>
        <time>2026-06-28T10:00:57.000Z</time>
      </trkpt>
      <trkpt lat="42.73632" lon="1.4574">
        <ele>995</ele>
        <time>2026-06-28T10:00:58.000Z</time>
      </trkpt>
      <trkpt lat="42.73635" lon="1.45742">
        <ele>996</ele>
        <time>2026-06-28T10:00:59.000Z</time>
      </trkpt>
      <trkpt lat="42.73638" lon="1.45744">
        <ele>997</ele>
        <time>2026-06-28T10:01:00.000Z</time>
      </trkpt>
      <trkpt lat="42.73642" lon="1.45744">
        <ele>998</ele>
        <time>2026-06-28T10:01:01.000Z</time>
      </trkpt>
      <trkpt lat="42.73647" lon="1.45744">
        <ele>1000</ele>
        <time>2026-06-28T10:01:02.000Z</time>
      </trkpt>
      <trkpt lat="42.73651" lon="1.45742">
        <ele>1002</ele>
        <time>2026-06-28T10:01:03.000Z</time>
      </trkpt>
      <trkpt lat="42.73656" lon="1.45738">
        <ele>1003</ele>
        <time>2026-06-28T10:01:04.000Z</time>
      </trkpt>
      <trkpt lat="42.7366" lon="1.45733">
        <ele>1003</ele>
        <time>2026-06-28T10:01:05.000Z</time>
      </trkpt>
      <trkpt lat="42.73667" lon="1.4573">
        <ele>1002</ele>
        <time>2026-06-28T10:01:06.000Z</time>
      </trkpt>
      <trkpt lat="42.73671" lon="1.45727">
        <ele>1002</ele>
        <time>2026-06-28T10:01:07.000Z</time>
      </trkpt>
      <trkpt lat="42.73672" lon="1.45727">
        <ele>1002</ele>
        <time>2026-06-28T10:01:08.000Z</time>
      </trkpt>
      <trkpt lat="42.73673" lon="1.45726">
        <ele>1002</ele>
        <time>2026-06-28T10:01:09.000Z</time>
      </trkpt>
      <trkpt lat="42.73675" lon="1.45727">
        <ele>1003</ele>
        <time>2026-06-28T10:01:10.000Z</time>
      </trkpt>
      <trkpt lat="42.73677" lon="1.45728">
        <ele>1003</ele>
        <time>2026-06-28T10:01:11.000Z</time>
      </trkpt>
      <trkpt lat="42.7368" lon="1.45729">
        <ele>1003</ele>
        <time>2026-06-28T10:01:12.000Z</time>
      </trkpt>
      <trkpt lat="42.73684" lon="1.45731">
        <ele>1003</ele>
        <time>2026-06-28T10:01:13.000Z</time>
      </trkpt>
      <trkpt lat="42.73686" lon="1.45733">
        <ele>1003</ele>
        <time>2026-06-28T10:01:14.000Z</time>
      </trkpt>
      <trkpt lat="42.73687" lon="1.45735">
        <ele>1003</ele>
        <time>2026-06-28T10:01:15.000Z</time>
      </trkpt>
      <trkpt lat="42.73687" lon="1.45736">
        <ele>1003</ele>
        <time>2026-06-28T10:01:16.000Z</time>
      </trkpt>
      <trkpt lat="42.73686" lon="1.45737">
        <ele>1004</ele>
        <time>2026-06-28T10:01:17.000Z</time>
      </trkpt>
      <trkpt lat="42.73686" lon="1.45739">
        <ele>1004</ele>
        <time>2026-06-28T10:01:18.000Z</time>
      </trkpt>
      <trkpt lat="42.73686" lon="1.45741">
        <ele>1005</ele>
        <time>2026-06-28T10:01:19.000Z</time>
      </trkpt>
      <trkpt lat="42.73687" lon="1.45742">
        <ele>1005</ele>
        <time>2026-06-28T10:01:20.000Z</time>
      </trkpt>
      <trkpt lat="42.73688" lon="1.45744">
        <ele>1005</ele>
        <time>2026-06-28T10:01:21.000Z</time>
      </trkpt>
      <trkpt lat="42.73688" lon="1.45746">
        <ele>1005</ele>
        <time>2026-06-28T10:01:22.000Z</time>
      </trkpt>
      <trkpt lat="42.73689" lon="1.45748">
        <ele>1006</ele>
        <time>2026-06-28T10:01:23.000Z</time>
      </trkpt>
      <trkpt lat="42.73691" lon="1.4575">
        <ele>1007</ele>
        <time>2026-06-28T10:01:24.000Z</time>
      </trkpt>
      <trkpt lat="42.73695" lon="1.45751">
        <ele>1009</ele>
        <time>2026-06-28T10:01:25.000Z</time>
      </trkpt>
      <trkpt lat="42.73699" lon="1.45752">
        <ele>1009</ele>
        <time>2026-06-28T10:01:26.000Z</time>
      </trkpt>
      <trkpt lat="42.73702" lon="1.45754">
        <ele>1009</ele>
        <time>2026-06-28T10:01:27.000Z</time>
      </trkpt>
      <trkpt lat="42.73704" lon="1.45755">
        <ele>1009</ele>
        <time>2026-06-28T10:01:28.000Z</time>
      </trkpt>
      <trkpt lat="42.73707" lon="1.45755">
        <ele>1009</ele>
        <time>2026-06-28T10:01:29.000Z</time>
      </trkpt>
      <trkpt lat="42.7371" lon="1.45755">
        <ele>1010</ele>
        <time>2026-06-28T10:01:30.000Z</time>
      </trkpt>
      <trkpt lat="42.73714" lon="1.45756">
        <ele>1010</ele>
        <time>2026-06-28T10:01:31.000Z</time>
      </trkpt>
      <trkpt lat="42.73718" lon="1.45757">
        <ele>1010</ele>
        <time>2026-06-28T10:01:32.000Z</time>
      </trkpt>
      <trkpt lat="42.7372" lon="1.45758">
        <ele>1009</ele>
        <time>2026-06-28T10:01:33.000Z</time>
      </trkpt>
      <trkpt lat="42.73723" lon="1.4576">
        <ele>1009</ele>
        <time>2026-06-28T10:01:34.000Z</time>
      </trkpt>
      <trkpt lat="42.73728" lon="1.4576">
        <ele>1009</ele>
        <time>2026-06-28T10:01:35.000Z</time>
      </trkpt>
      <trkpt lat="42.73732" lon="1.45761">
        <ele>1009</ele>
        <time>2026-06-28T10:01:36.000Z</time>
      </trkpt>
      <trkpt lat="42.73737" lon="1.45761">
        <ele>1009</ele>
        <time>2026-06-28T10:01:37.000Z</time>
      </trkpt>
      <trkpt lat="42.73742" lon="1.45762">
        <ele>1009</ele>
        <time>2026-06-28T10:01:38.000Z</time>
      </trkpt>
      <trkpt lat="42.73746" lon="1.45763">
        <ele>1009</ele>
        <time>2026-06-28T10:01:39.000Z</time>
      </trkpt>
      <trkpt lat="42.73749" lon="1.45764">
        <ele>1009</ele>
        <time>2026-06-28T10:01:40.000Z</time>
      </trkpt>
      <trkpt lat="42.73753" lon="1.45764">
        <ele>1008</ele>
        <time>2026-06-28T10:01:41.000Z</time>
      </trkpt>
      <trkpt lat="42.73756" lon="1.45765">
        <ele>1008</ele>
        <time>2026-06-28T10:01:42.000Z</time>
      </trkpt>
      <trkpt lat="42.73759" lon="1.45765">
        <ele>1007</ele>
        <time>2026-06-28T10:01:43.000Z</time>
      </trkpt>
      <trkpt lat="42.73761" lon="1.45765">
        <ele>1007</ele>
        <time>2026-06-28T10:01:44.000Z</time>
      </trkpt>
      <trkpt lat="42.73764" lon="1.45765">
        <ele>1007</ele>
        <time>2026-06-28T10:01:45.000Z</time>
      </trkpt>
      <trkpt lat="42.73766" lon="1.45765">
        <ele>1006</ele>
        <time>2026-06-28T10:01:46.000Z</time>
      </trkpt>
      <trkpt lat="42.73769" lon="1.45765">
        <ele>1006</ele>
        <time>2026-06-28T10:01:47.000Z</time>
      </trkpt>
      <trkpt lat="42.73771" lon="1.45765">
        <ele>1006</ele>
        <time>2026-06-28T10:01:48.000Z</time>
      </trkpt>
      <trkpt lat="42.73774" lon="1.45764">
        <ele>1005</ele>
        <time>2026-06-28T10:01:49.000Z</time>
      </trkpt>
      <trkpt lat="42.73777" lon="1.45764">
        <ele>1005</ele>
        <time>2026-06-28T10:01:50.000Z</time>
      </trkpt>
      <trkpt lat="42.73779" lon="1.45763">
        <ele>1005</ele>
        <time>2026-06-28T10:01:51.000Z</time>
      </trkpt>
      <trkpt lat="42.73782" lon="1.45762">
        <ele>1005</ele>
        <time>2026-06-28T10:01:52.000Z</time>
      </trkpt>
      <trkpt lat="42.73784" lon="1.4576">
        <ele>1005</ele>
        <time>2026-06-28T10:01:53.000Z</time>
      </trkpt>
      <trkpt lat="42.73786" lon="1.4576">
        <ele>1005</ele>
        <time>2026-06-28T10:01:54.000Z</time>
      </trkpt>
      <trkpt lat="42.73787" lon="1.45759">
        <ele>1005</ele>
        <time>2026-06-28T10:01:55.000Z</time>
      </trkpt>
      <trkpt lat="42.73788" lon="1.45758">
        <ele>1005</ele>
        <time>2026-06-28T10:01:56.000Z</time>
      </trkpt>
      <trkpt lat="42.7379" lon="1.45757">
        <ele>1005</ele>
        <time>2026-06-28T10:01:57.000Z</time>
      </trkpt>
      <trkpt lat="42.73793" lon="1.45755">
        <ele>1006</ele>
        <time>2026-06-28T10:01:58.000Z</time>
      </trkpt>
      <trkpt lat="42.73796" lon="1.45753">
        <ele>1006</ele>
        <time>2026-06-28T10:01:59.000Z</time>
      </trkpt>
      <trkpt lat="42.73799" lon="1.45752">
        <ele>1005</ele>
        <time>2026-06-28T10:02:00.000Z</time>
      </trkpt>
      <trkpt lat="42.73802" lon="1.45752">
        <ele>1005</ele>
        <time>2026-06-28T10:02:01.000Z</time>
      </trkpt>
      <trkpt lat="42.73804" lon="1.45753">
        <ele>1005</ele>
        <time>2026-06-28T10:02:02.000Z</time>
      </trkpt>
      <trkpt lat="42.73805" lon="1.45753">
        <ele>1005</ele>
        <time>2026-06-28T10:02:03.000Z</time>
      </trkpt>
      <trkpt lat="42.73808" lon="1.45755">
        <ele>1006</ele>
        <time>2026-06-28T10:02:04.000Z</time>
      </trkpt>
      <trkpt lat="42.7381" lon="1.45757">
        <ele>1006</ele>
        <time>2026-06-28T10:02:05.000Z</time>
      </trkpt>
      <trkpt lat="42.73813" lon="1.45759">
        <ele>1006</ele>
        <time>2026-06-28T10:02:06.000Z</time>
      </trkpt>
      <trkpt lat="42.73815" lon="1.45763">
        <ele>1007</ele>
        <time>2026-06-28T10:02:07.000Z</time>
      </trkpt>
      <trkpt lat="42.73817" lon="1.45764">
        <ele>1006</ele>
        <time>2026-06-28T10:02:08.000Z</time>
      </trkpt>
      <trkpt lat="42.73819" lon="1.45767">
        <ele>1006</ele>
        <time>2026-06-28T10:02:09.000Z</time>
      </trkpt>
      <trkpt lat="42.73823" lon="1.45769">
        <ele>1006</ele>
        <time>2026-06-28T10:02:10.000Z</time>
      </trkpt>
      <trkpt lat="42.73827" lon="1.4577">
        <ele>1006</ele>
        <time>2026-06-28T10:02:11.000Z</time>
      </trkpt>
      <trkpt lat="42.7383" lon="1.45771">
        <ele>1006</ele>
        <time>2026-06-28T10:02:12.000Z</time>
      </trkpt>
      <trkpt lat="42.73831" lon="1.45773">
        <ele>1005</ele>
        <time>2026-06-28T10:02:13.000Z</time>
      </trkpt>
      <trkpt lat="42.73832" lon="1.45773">
        <ele>1005</ele>
        <time>2026-06-28T10:02:14.000Z</time>
      </trkpt>
      <trkpt lat="42.73833" lon="1.45772">
        <ele>1005</ele>
        <time>2026-06-28T10:02:15.000Z</time>
      </trkpt>
      <trkpt lat="42.73833" lon="1.45771">
        <ele>1005</ele>
        <time>2026-06-28T10:02:16.000Z</time>
      </trkpt>
      <trkpt lat="42.73832" lon="1.45772">
        <ele>1005</ele>
        <time>2026-06-28T10:02:17.000Z</time>
      </trkpt>
      <trkpt lat="42.73832" lon="1.45773">
        <ele>1005</ele>
        <time>2026-06-28T10:02:18.000Z</time>
      </trkpt>
      <trkpt lat="42.73832" lon="1.45773">
        <ele>1005</ele>
        <time>2026-06-28T10:02:19.000Z</time>
      </trkpt>
      <trkpt lat="42.73832" lon="1.45773">
        <ele>1005</ele>
        <time>2026-06-28T10:02:20.000Z</time>
      </trkpt>
      <trkpt lat="42.73832" lon="1.45774">
        <ele>1005</ele>
        <time>2026-06-28T10:02:21.000Z</time>
      </trkpt>
      <trkpt lat="42.73832" lon="1.45775">
        <ele>1005</ele>
        <time>2026-06-28T10:02:22.000Z</time>
      </trkpt>
      <trkpt lat="42.73833" lon="1.45775">
        <ele>1005</ele>
        <time>2026-06-28T10:02:23.000Z</time>
      </trkpt>
      <trkpt lat="42.73833" lon="1.45774">
        <ele>1004</ele>
        <time>2026-06-28T10:02:24.000Z</time>
      </trkpt>
      <trkpt lat="42.73834" lon="1.45773">
        <ele>1004</ele>
        <time>2026-06-28T10:02:25.000Z</time>
      </trkpt>
      <trkpt lat="42.73834" lon="1.45774">
        <ele>1003</ele>
        <time>2026-06-28T10:02:26.000Z</time>
      </trkpt>
      <trkpt lat="42.73834" lon="1.45774">
        <ele>1003</ele>
        <time>2026-06-28T10:02:27.000Z</time>
      </trkpt>
      <trkpt lat="42.73834" lon="1.45774">
        <ele>1003</ele>
        <time>2026-06-28T10:02:28.000Z</time>
      </trkpt>
      <trkpt lat="42.73834" lon="1.45775">
        <ele>1002</ele>
        <time>2026-06-28T10:02:29.000Z</time>
      </trkpt>
      <trkpt lat="42.73834" lon="1.45776">
        <ele>1002</ele>
        <time>2026-06-28T10:02:30.000Z</time>
      </trkpt>
      <trkpt lat="42.73835" lon="1.45776">
        <ele>1002</ele>
        <time>2026-06-28T10:02:31.000Z</time>
      </trkpt>
      <trkpt lat="42.73835" lon="1.45776">
        <ele>1002</ele>
        <time>2026-06-28T10:02:32.000Z</time>
      </trkpt>
      <trkpt lat="42.73836" lon="1.45776">
        <ele>1002</ele>
        <time>2026-06-28T10:02:33.000Z</time>
      </trkpt>
      <trkpt lat="42.73836" lon="1.45776">
        <ele>1002</ele>
        <time>2026-06-28T10:02:34.000Z</time>
      </trkpt>
      <trkpt lat="42.73837" lon="1.45776">
        <ele>1001</ele>
        <time>2026-06-28T10:02:35.000Z</time>
      </trkpt>
      <trkpt lat="42.73837" lon="1.45777">
        <ele>1001</ele>
        <time>2026-06-28T10:02:36.000Z</time>
      </trkpt>
      <trkpt lat="42.73837" lon="1.45778">
        <ele>1001</ele>
        <time>2026-06-28T10:02:37.000Z</time>
      </trkpt>
      <trkpt lat="42.73839" lon="1.45778">
        <ele>1001</ele>
        <time>2026-06-28T10:02:38.000Z</time>
      </trkpt>
      <trkpt lat="42.73839" lon="1.45778">
        <ele>1001</ele>
        <time>2026-06-28T10:02:39.000Z</time>
      </trkpt>
      <trkpt lat="42.7384" lon="1.45778">
        <ele>1001</ele>
        <time>2026-06-28T10:02:40.000Z</time>
      </trkpt>
      <trkpt lat="42.7384" lon="1.45778">
        <ele>1001</ele>
        <time>2026-06-28T10:02:41.000Z</time>
      </trkpt>
      <trkpt lat="42.7384" lon="1.45779">
        <ele>1001</ele>
        <time>2026-06-28T10:02:42.000Z</time>
      </trkpt>
      <trkpt lat="42.7384" lon="1.45779">
        <ele>1001</ele>
        <time>2026-06-28T10:02:43.000Z</time>
      </trkpt>
      <trkpt lat="42.73841" lon="1.45778">
        <ele>1001</ele>
        <time>2026-06-28T10:02:44.000Z</time>
      </trkpt>
      <trkpt lat="42.73842" lon="1.45778">
        <ele>1000</ele>
        <time>2026-06-28T10:02:45.000Z</time>
      </trkpt>
      <trkpt lat="42.73843" lon="1.45778">
        <ele>1000</ele>
        <time>2026-06-28T10:02:46.000Z</time>
      </trkpt>
      <trkpt lat="42.73843" lon="1.45779">
        <ele>1001</ele>
        <time>2026-06-28T10:02:47.000Z</time>
      </trkpt>
      <trkpt lat="42.73843" lon="1.4578">
        <ele>1001</ele>
        <time>2026-06-28T10:02:48.000Z</time>
      </trkpt>
      <trkpt lat="42.73843" lon="1.45781">
        <ele>1001</ele>
        <time>2026-06-28T10:02:49.000Z</time>
      </trkpt>
      <trkpt lat="42.73843" lon="1.45782">
        <ele>1001</ele>
        <time>2026-06-28T10:02:50.000Z</time>
      </trkpt>
      <trkpt lat="42.73843" lon="1.45781">
        <ele>1001</ele>
        <time>2026-06-28T10:02:51.000Z</time>
      </trkpt>
      <trkpt lat="42.73844" lon="1.45781">
        <ele>1000</ele>
        <time>2026-06-28T10:02:52.000Z</time>
      </trkpt>
      <trkpt lat="42.73843" lon="1.45782">
        <ele>1000</ele>
        <time>2026-06-28T10:02:53.000Z</time>
      </trkpt>
      <trkpt lat="42.73843" lon="1.45784">
        <ele>1000</ele>
        <time>2026-06-28T10:02:54.000Z</time>
      </trkpt>
      <trkpt lat="42.73843" lon="1.45785">
        <ele>1000</ele>
        <time>2026-06-28T10:02:55.000Z</time>
      </trkpt>
      <trkpt lat="42.73842" lon="1.45787">
        <ele>1000</ele>
        <time>2026-06-28T10:02:56.000Z</time>
      </trkpt>
      <trkpt lat="42.73842" lon="1.45789">
        <ele>1000</ele>
        <time>2026-06-28T10:02:57.000Z</time>
      </trkpt>
      <trkpt lat="42.73842" lon="1.45791">
        <ele>1000</ele>
        <time>2026-06-28T10:02:58.000Z</time>
      </trkpt>
      <trkpt lat="42.73841" lon="1.45791">
        <ele>1000</ele>
        <time>2026-06-28T10:02:59.000Z</time>
      </trkpt>
      <trkpt lat="42.73841" lon="1.45792">
        <ele>1000</ele>
        <time>2026-06-28T10:03:00.000Z</time>
      </trkpt>
      <trkpt lat="42.73841" lon="1.45792">
        <ele>999</ele>
        <time>2026-06-28T10:03:01.000Z</time>
      </trkpt>
      <trkpt lat="42.7384" lon="1.45794">
        <ele>999</ele>
        <time>2026-06-28T10:03:02.000Z</time>
      </trkpt>
      <trkpt lat="42.73839" lon="1.45796">
        <ele>999</ele>
        <time>2026-06-28T10:03:03.000Z</time>
      </trkpt>
      <trkpt lat="42.73838" lon="1.45799">
        <ele>999</ele>
        <time>2026-06-28T10:03:04.000Z</time>
      </trkpt>
      <trkpt lat="42.73838" lon="1.45802">
        <ele>999</ele>
        <time>2026-06-28T10:03:05.000Z</time>
      </trkpt>
      <trkpt lat="42.73837" lon="1.45804">
        <ele>999</ele>
        <time>2026-06-28T10:03:06.000Z</time>
      </trkpt>
      <trkpt lat="42.73836" lon="1.45807">
        <ele>999</ele>
        <time>2026-06-28T10:03:07.000Z</time>
      </trkpt>
      <trkpt lat="42.73836" lon="1.45811">
        <ele>999</ele>
        <time>2026-06-28T10:03:08.000Z</time>
      </trkpt>
      <trkpt lat="42.73836" lon="1.45814">
        <ele>999</ele>
        <time>2026-06-28T10:03:09.000Z</time>
      </trkpt>
      <trkpt lat="42.73835" lon="1.45817">
        <ele>999</ele>
        <time>2026-06-28T10:03:10.000Z</time>
      </trkpt>
      <trkpt lat="42.73834" lon="1.45819">
        <ele>999</ele>
        <time>2026-06-28T10:03:11.000Z</time>
      </trkpt>
      <trkpt lat="42.73833" lon="1.4582">
        <ele>999</ele>
        <time>2026-06-28T10:03:12.000Z</time>
      </trkpt>
      <trkpt lat="42.73834" lon="1.45823">
        <ele>1000</ele>
        <time>2026-06-28T10:03:13.000Z</time>
      </trkpt>
      <trkpt lat="42.73835" lon="1.45825">
        <ele>1001</ele>
        <time>2026-06-28T10:03:14.000Z</time>
      </trkpt>
      <trkpt lat="42.73836" lon="1.45827">
        <ele>1000</ele>
        <time>2026-06-28T10:03:15.000Z</time>
      </trkpt>
      <trkpt lat="42.73836" lon="1.4583">
        <ele>1001</ele>
        <time>2026-06-28T10:03:16.000Z</time>
      </trkpt>
      <trkpt lat="42.73838" lon="1.45831">
        <ele>1000</ele>
        <time>2026-06-28T10:03:17.000Z</time>
      </trkpt>
      <trkpt lat="42.73841" lon="1.45832">
        <ele>1000</ele>
        <time>2026-06-28T10:03:18.000Z</time>
      </trkpt>
      <trkpt lat="42.73845" lon="1.45833">
        <ele>999</ele>
        <time>2026-06-28T10:03:19.000Z</time>
      </trkpt>
      <trkpt lat="42.73847" lon="1.45835">
        <ele>998</ele>
        <time>2026-06-28T10:03:20.000Z</time>
      </trkpt>
      <trkpt lat="42.73848" lon="1.45838">
        <ele>997</ele>
        <time>2026-06-28T10:03:21.000Z</time>
      </trkpt>
      <trkpt lat="42.73848" lon="1.45839">
        <ele>996</ele>
        <time>2026-06-28T10:03:22.000Z</time>
      </trkpt>
      <trkpt lat="42.73848" lon="1.45839">
        <ele>996</ele>
        <time>2026-06-28T10:03:23.000Z</time>
      </trkpt>
      <trkpt lat="42.73849" lon="1.45841">
        <ele>996</ele>
        <time>2026-06-28T10:03:24.000Z</time>
      </trkpt>
      <trkpt lat="42.73848" lon="1.45842">
        <ele>996</ele>
        <time>2026-06-28T10:03:25.000Z</time>
      </trkpt>
      <trkpt lat="42.73848" lon="1.45842">
        <ele>996</ele>
        <time>2026-06-28T10:03:26.000Z</time>
      </trkpt>
      <trkpt lat="42.73848" lon="1.45842">
        <ele>996</ele>
        <time>2026-06-28T10:03:27.000Z</time>
      </trkpt>
      <trkpt lat="42.73848" lon="1.45842">
        <ele>996</ele>
        <time>2026-06-28T10:03:28.000Z</time>
      </trkpt>
      <trkpt lat="42.73849" lon="1.45843">
        <ele>996</ele>
        <time>2026-06-28T10:03:29.000Z</time>
      </trkpt>
      <trkpt lat="42.73849" lon="1.45843">
        <ele>996</ele>
        <time>2026-06-28T10:03:30.000Z</time>
      </trkpt>
      <trkpt lat="42.73849" lon="1.45843">
        <ele>996</ele>
        <time>2026-06-28T10:03:31.000Z</time>
      </trkpt>
      <trkpt lat="42.73849" lon="1.45844">
        <ele>995</ele>
        <time>2026-06-28T10:03:32.000Z</time>
      </trkpt>
      <trkpt lat="42.73849" lon="1.45845">
        <ele>995</ele>
        <time>2026-06-28T10:03:33.000Z</time>
      </trkpt>
      <trkpt lat="42.7385" lon="1.45846">
        <ele>995</ele>
        <time>2026-06-28T10:03:34.000Z</time>
      </trkpt>
      <trkpt lat="42.7385" lon="1.45848">
        <ele>995</ele>
        <time>2026-06-28T10:03:35.000Z</time>
      </trkpt>
      <trkpt lat="42.7385" lon="1.45851">
        <ele>995</ele>
        <time>2026-06-28T10:03:36.000Z</time>
      </trkpt>
      <trkpt lat="42.7385" lon="1.45854">
        <ele>994</ele>
        <time>2026-06-28T10:03:37.000Z</time>
      </trkpt>
      <trkpt lat="42.73851" lon="1.45858">
        <ele>994</ele>
        <time>2026-06-28T10:03:38.000Z</time>
      </trkpt>
      <trkpt lat="42.73852" lon="1.4586">
        <ele>995</ele>
        <time>2026-06-28T10:03:39.000Z</time>
      </trkpt>
      <trkpt lat="42.73854" lon="1.45862">
        <ele>994</ele>
        <time>2026-06-28T10:03:40.000Z</time>
      </trkpt>
      <trkpt lat="42.73855" lon="1.45864">
        <ele>994</ele>
        <time>2026-06-28T10:03:41.000Z</time>
      </trkpt>
      <trkpt lat="42.73857" lon="1.45865">
        <ele>993</ele>
        <time>2026-06-28T10:03:42.000Z</time>
      </trkpt>
      <trkpt lat="42.73859" lon="1.45867">
        <ele>993</ele>
        <time>2026-06-28T10:03:43.000Z</time>
      </trkpt>
      <trkpt lat="42.7386" lon="1.4587">
        <ele>993</ele>
        <time>2026-06-28T10:03:44.000Z</time>
      </trkpt>
      <trkpt lat="42.73861" lon="1.45871">
        <ele>993</ele>
        <time>2026-06-28T10:03:45.000Z</time>
      </trkpt>
      <trkpt lat="42.73863" lon="1.45873">
        <ele>992</ele>
        <time>2026-06-28T10:03:46.000Z</time>
      </trkpt>
      <trkpt lat="42.73865" lon="1.45874">
        <ele>992</ele>
        <time>2026-06-28T10:03:47.000Z</time>
      </trkpt>
      <trkpt lat="42.73866" lon="1.45874">
        <ele>991</ele>
        <time>2026-06-28T10:03:48.000Z</time>
      </trkpt>
      <trkpt lat="42.73867" lon="1.45876">
        <ele>991</ele>
        <time>2026-06-28T10:03:49.000Z</time>
      </trkpt>
      <trkpt lat="42.73868" lon="1.45877">
        <ele>991</ele>
        <time>2026-06-28T10:03:50.000Z</time>
      </trkpt>
      <trkpt lat="42.73868" lon="1.45879">
        <ele>992</ele>
        <time>2026-06-28T10:03:51.000Z</time>
      </trkpt>
      <trkpt lat="42.73868" lon="1.45882">
        <ele>992</ele>
        <time>2026-06-28T10:03:52.000Z</time>
      </trkpt>
      <trkpt lat="42.73868" lon="1.45885">
        <ele>991</ele>
        <time>2026-06-28T10:03:53.000Z</time>
      </trkpt>
      <trkpt lat="42.73868" lon="1.45888">
        <ele>991</ele>
        <time>2026-06-28T10:03:54.000Z</time>
      </trkpt>
      <trkpt lat="42.73868" lon="1.45891">
        <ele>990</ele>
        <time>2026-06-28T10:03:55.000Z</time>
      </trkpt>
      <trkpt lat="42.73868" lon="1.45895">
        <ele>990</ele>
        <time>2026-06-28T10:03:56.000Z</time>
      </trkpt>
      <trkpt lat="42.73869" lon="1.45898">
        <ele>990</ele>
        <time>2026-06-28T10:03:57.000Z</time>
      </trkpt>
      <trkpt lat="42.73869" lon="1.45901">
        <ele>990</ele>
        <time>2026-06-28T10:03:58.000Z</time>
      </trkpt>
      <trkpt lat="42.7387" lon="1.45904">
        <ele>989</ele>
        <time>2026-06-28T10:03:59.000Z</time>
      </trkpt>
      <trkpt lat="42.7387" lon="1.45906">
        <ele>989</ele>
        <time>2026-06-28T10:04:00.000Z</time>
      </trkpt>
      <trkpt lat="42.7387" lon="1.45911">
        <ele>989</ele>
        <time>2026-06-28T10:04:01.000Z</time>
      </trkpt>
      <trkpt lat="42.73871" lon="1.45914">
        <ele>989</ele>
        <time>2026-06-28T10:04:02.000Z</time>
      </trkpt>
      <trkpt lat="42.73873" lon="1.45917">
        <ele>988</ele>
        <time>2026-06-28T10:04:03.000Z</time>
      </trkpt>
      <trkpt lat="42.73876" lon="1.45919">
        <ele>988</ele>
        <time>2026-06-28T10:04:04.000Z</time>
      </trkpt>
      <trkpt lat="42.73878" lon="1.45921">
        <ele>986</ele>
        <time>2026-06-28T10:04:05.000Z</time>
      </trkpt>
      <trkpt lat="42.73881" lon="1.45923">
        <ele>985</ele>
        <time>2026-06-28T10:04:06.000Z</time>
      </trkpt>
      <trkpt lat="42.73884" lon="1.45926">
        <ele>985</ele>
        <time>2026-06-28T10:04:07.000Z</time>
      </trkpt>
      <trkpt lat="42.73886" lon="1.45927">
        <ele>984</ele>
        <time>2026-06-28T10:04:08.000Z</time>
      </trkpt>
      <trkpt lat="42.73888" lon="1.4593">
        <ele>983</ele>
        <time>2026-06-28T10:04:09.000Z</time>
      </trkpt>
      <trkpt lat="42.73889" lon="1.45932">
        <ele>983</ele>
        <time>2026-06-28T10:04:10.000Z</time>
      </trkpt>
      <trkpt lat="42.73891" lon="1.45935">
        <ele>982</ele>
        <time>2026-06-28T10:04:11.000Z</time>
      </trkpt>
      <trkpt lat="42.73893" lon="1.45938">
        <ele>981</ele>
        <time>2026-06-28T10:04:12.000Z</time>
      </trkpt>
      <trkpt lat="42.73896" lon="1.45941">
        <ele>981</ele>
        <time>2026-06-28T10:04:13.000Z</time>
      </trkpt>
      <trkpt lat="42.73898" lon="1.45944">
        <ele>981</ele>
        <time>2026-06-28T10:04:14.000Z</time>
      </trkpt>
      <trkpt lat="42.73901" lon="1.45947">
        <ele>980</ele>
        <time>2026-06-28T10:04:15.000Z</time>
      </trkpt>
      <trkpt lat="42.73904" lon="1.45949">
        <ele>980</ele>
        <time>2026-06-28T10:04:16.000Z</time>
      </trkpt>
      <trkpt lat="42.73907" lon="1.4595">
        <ele>979</ele>
        <time>2026-06-28T10:04:17.000Z</time>
      </trkpt>
      <trkpt lat="42.73911" lon="1.45951">
        <ele>979</ele>
        <time>2026-06-28T10:04:18.000Z</time>
      </trkpt>
      <trkpt lat="42.73914" lon="1.45951">
        <ele>978</ele>
        <time>2026-06-28T10:04:19.000Z</time>
      </trkpt>
      <trkpt lat="42.73916" lon="1.45953">
        <ele>978</ele>
        <time>2026-06-28T10:04:20.000Z</time>
      </trkpt>
      <trkpt lat="42.73917" lon="1.45954">
        <ele>978</ele>
        <time>2026-06-28T10:04:21.000Z</time>
      </trkpt>
      <trkpt lat="42.73921" lon="1.45956">
        <ele>978</ele>
        <time>2026-06-28T10:04:22.000Z</time>
      </trkpt>
      <trkpt lat="42.73924" lon="1.45957">
        <ele>977</ele>
        <time>2026-06-28T10:04:23.000Z</time>
      </trkpt>
      <trkpt lat="42.73927" lon="1.45958">
        <ele>977</ele>
        <time>2026-06-28T10:04:24.000Z</time>
      </trkpt>
      <trkpt lat="42.7393" lon="1.45958">
        <ele>976</ele>
        <time>2026-06-28T10:04:25.000Z</time>
      </trkpt>
      <trkpt lat="42.73933" lon="1.45958">
        <ele>975</ele>
        <time>2026-06-28T10:04:26.000Z</time>
      </trkpt>
      <trkpt lat="42.73936" lon="1.4596">
        <ele>975</ele>
        <time>2026-06-28T10:04:27.000Z</time>
      </trkpt>
      <trkpt lat="42.73939" lon="1.45962">
        <ele>974</ele>
        <time>2026-06-28T10:04:28.000Z</time>
      </trkpt>
      <trkpt lat="42.7394" lon="1.45964">
        <ele>974</ele>
        <time>2026-06-28T10:04:29.000Z</time>
      </trkpt>
      <trkpt lat="42.73943" lon="1.45965">
        <ele>974</ele>
        <time>2026-06-28T10:04:30.000Z</time>
      </trkpt>
      <trkpt lat="42.73946" lon="1.45965">
        <ele>973</ele>
        <time>2026-06-28T10:04:31.000Z</time>
      </trkpt>
      <trkpt lat="42.7395" lon="1.45965">
        <ele>973</ele>
        <time>2026-06-28T10:04:32.000Z</time>
      </trkpt>
      <trkpt lat="42.73954" lon="1.45964">
        <ele>973</ele>
        <time>2026-06-28T10:04:33.000Z</time>
      </trkpt>
      <trkpt lat="42.73958" lon="1.45963">
        <ele>972</ele>
        <time>2026-06-28T10:04:34.000Z</time>
      </trkpt>
      <trkpt lat="42.73961" lon="1.45963">
        <ele>972</ele>
        <time>2026-06-28T10:04:35.000Z</time>
      </trkpt>
      <trkpt lat="42.73963" lon="1.45963">
        <ele>971</ele>
        <time>2026-06-28T10:04:36.000Z</time>
      </trkpt>
      <trkpt lat="42.73965" lon="1.45965">
        <ele>971</ele>
        <time>2026-06-28T10:04:37.000Z</time>
      </trkpt>
      <trkpt lat="42.73966" lon="1.45966">
        <ele>971</ele>
        <time>2026-06-28T10:04:38.000Z</time>
      </trkpt>
      <trkpt lat="42.73967" lon="1.45967">
        <ele>971</ele>
        <time>2026-06-28T10:04:39.000Z</time>
      </trkpt>
      <trkpt lat="42.73967" lon="1.45969">
        <ele>971</ele>
        <time>2026-06-28T10:04:40.000Z</time>
      </trkpt>
      <trkpt lat="42.73969" lon="1.45973">
        <ele>971</ele>
        <time>2026-06-28T10:04:41.000Z</time>
      </trkpt>
      <trkpt lat="42.73971" lon="1.45974">
        <ele>971</ele>
        <time>2026-06-28T10:04:42.000Z</time>
      </trkpt>
      <trkpt lat="42.73973" lon="1.45976">
        <ele>971</ele>
        <time>2026-06-28T10:04:43.000Z</time>
      </trkpt>
      <trkpt lat="42.73976" lon="1.45977">
        <ele>970</ele>
        <time>2026-06-28T10:04:44.000Z</time>
      </trkpt>
      <trkpt lat="42.73978" lon="1.45979">
        <ele>970</ele>
        <time>2026-06-28T10:04:45.000Z</time>
      </trkpt>
      <trkpt lat="42.7398" lon="1.45981">
        <ele>970</ele>
        <time>2026-06-28T10:04:46.000Z</time>
      </trkpt>
      <trkpt lat="42.73982" lon="1.45983">
        <ele>970</ele>
        <time>2026-06-28T10:04:47.000Z</time>
      </trkpt>
      <trkpt lat="42.73984" lon="1.45985">
        <ele>970</ele>
        <time>2026-06-28T10:04:48.000Z</time>
      </trkpt>
      <trkpt lat="42.73986" lon="1.45987">
        <ele>970</ele>
        <time>2026-06-28T10:04:49.000Z</time>
      </trkpt>
      <trkpt lat="42.73988" lon="1.45989">
        <ele>969</ele>
        <time>2026-06-28T10:04:50.000Z</time>
      </trkpt>
      <trkpt lat="42.73989" lon="1.45991">
        <ele>968</ele>
        <time>2026-06-28T10:04:51.000Z</time>
      </trkpt>
      <trkpt lat="42.73991" lon="1.45993">
        <ele>968</ele>
        <time>2026-06-28T10:04:52.000Z</time>
      </trkpt>
      <trkpt lat="42.73992" lon="1.45993">
        <ele>967</ele>
        <time>2026-06-28T10:04:53.000Z</time>
      </trkpt>
      <trkpt lat="42.73994" lon="1.45994">
        <ele>966</ele>
        <time>2026-06-28T10:04:54.000Z</time>
      </trkpt>
      <trkpt lat="42.73995" lon="1.45995">
        <ele>965</ele>
        <time>2026-06-28T10:04:55.000Z</time>
      </trkpt>
      <trkpt lat="42.73997" lon="1.45996">
        <ele>965</ele>
        <time>2026-06-28T10:04:56.000Z</time>
      </trkpt>
      <trkpt lat="42.73999" lon="1.45999">
        <ele>964</ele>
        <time>2026-06-28T10:04:57.000Z</time>
      </trkpt>
      <trkpt lat="42.74001" lon="1.46004">
        <ele>964</ele>
        <time>2026-06-28T10:04:58.000Z</time>
      </trkpt>
      <trkpt lat="42.74003" lon="1.46008">
        <ele>964</ele>
        <time>2026-06-28T10:04:59.000Z</time>
      </trkpt>
      <trkpt lat="42.74005" lon="1.4601">
        <ele>963</ele>
        <time>2026-06-28T10:05:00.000Z</time>
      </trkpt>
      <trkpt lat="42.74008" lon="1.46014">
        <ele>963</ele>
        <time>2026-06-28T10:05:01.000Z</time>
      </trkpt>
      <trkpt lat="42.74011" lon="1.46017">
        <ele>962</ele>
        <time>2026-06-28T10:05:02.000Z</time>
      </trkpt>
      <trkpt lat="42.74013" lon="1.46019">
        <ele>962</ele>
        <time>2026-06-28T10:05:03.000Z</time>
      </trkpt>
      <trkpt lat="42.74016" lon="1.46022">
        <ele>962</ele>
        <time>2026-06-28T10:05:04.000Z</time>
      </trkpt>
      <trkpt lat="42.74018" lon="1.46024">
        <ele>961</ele>
        <time>2026-06-28T10:05:05.000Z</time>
      </trkpt>
      <trkpt lat="42.7402" lon="1.46027">
        <ele>961</ele>
        <time>2026-06-28T10:05:06.000Z</time>
      </trkpt>
      <trkpt lat="42.74021" lon="1.46029">
        <ele>960</ele>
        <time>2026-06-28T10:05:07.000Z</time>
      </trkpt>
      <trkpt lat="42.74023" lon="1.4603">
        <ele>960</ele>
        <time>2026-06-28T10:05:08.000Z</time>
      </trkpt>
      <trkpt lat="42.74025" lon="1.4603">
        <ele>959</ele>
        <time>2026-06-28T10:05:09.000Z</time>
      </trkpt>
      <trkpt lat="42.74027" lon="1.46031">
        <ele>958</ele>
        <time>2026-06-28T10:05:10.000Z</time>
      </trkpt>
      <trkpt lat="42.74029" lon="1.46031">
        <ele>958</ele>
        <time>2026-06-28T10:05:11.000Z</time>
      </trkpt>
      <trkpt lat="42.7403" lon="1.46034">
        <ele>957</ele>
        <time>2026-06-28T10:05:12.000Z</time>
      </trkpt>
      <trkpt lat="42.74032" lon="1.46036">
        <ele>957</ele>
        <time>2026-06-28T10:05:13.000Z</time>
      </trkpt>
      <trkpt lat="42.74033" lon="1.46037">
        <ele>957</ele>
        <time>2026-06-28T10:05:14.000Z</time>
      </trkpt>
      <trkpt lat="42.74034" lon="1.46039">
        <ele>957</ele>
        <time>2026-06-28T10:05:15.000Z</time>
      </trkpt>
      <trkpt lat="42.74035" lon="1.4604">
        <ele>956</ele>
        <time>2026-06-28T10:05:16.000Z</time>
      </trkpt>
      <trkpt lat="42.74036" lon="1.46042">
        <ele>956</ele>
        <time>2026-06-28T10:05:17.000Z</time>
      </trkpt>
      <trkpt lat="42.74038" lon="1.46044">
        <ele>955</ele>
        <time>2026-06-28T10:05:18.000Z</time>
      </trkpt>
      <trkpt lat="42.7404" lon="1.46045">
        <ele>955</ele>
        <time>2026-06-28T10:05:19.000Z</time>
      </trkpt>
      <trkpt lat="42.74042" lon="1.46046">
        <ele>954</ele>
        <time>2026-06-28T10:05:20.000Z</time>
      </trkpt>
      <trkpt lat="42.74043" lon="1.46047">
        <ele>954</ele>
        <time>2026-06-28T10:05:21.000Z</time>
      </trkpt>
      <trkpt lat="42.74045" lon="1.46047">
        <ele>952</ele>
        <time>2026-06-28T10:05:22.000Z</time>
      </trkpt>
      <trkpt lat="42.74048" lon="1.46047">
        <ele>951</ele>
        <time>2026-06-28T10:05:23.000Z</time>
      </trkpt>
      <trkpt lat="42.74051" lon="1.46047">
        <ele>951</ele>
        <time>2026-06-28T10:05:24.000Z</time>
      </trkpt>
      <trkpt lat="42.74053" lon="1.46047">
        <ele>950</ele>
        <time>2026-06-28T10:05:25.000Z</time>
      </trkpt>
      <trkpt lat="42.74056" lon="1.46048">
        <ele>949</ele>
        <time>2026-06-28T10:05:26.000Z</time>
      </trkpt>
      <trkpt lat="42.74058" lon="1.46048">
        <ele>949</ele>
        <time>2026-06-28T10:05:27.000Z</time>
      </trkpt>
      <trkpt lat="42.74059" lon="1.4605">
        <ele>949</ele>
        <time>2026-06-28T10:05:28.000Z</time>
      </trkpt>
      <trkpt lat="42.7406" lon="1.46051">
        <ele>948</ele>
        <time>2026-06-28T10:05:29.000Z</time>
      </trkpt>
      <trkpt lat="42.74061" lon="1.46053">
        <ele>946</ele>
        <time>2026-06-28T10:05:30.000Z</time>
      </trkpt>
      <trkpt lat="42.74063" lon="1.46055">
        <ele>945</ele>
        <time>2026-06-28T10:05:31.000Z</time>
      </trkpt>
      <trkpt lat="42.74065" lon="1.46056">
        <ele>945</ele>
        <time>2026-06-28T10:05:32.000Z</time>
      </trkpt>
      <trkpt lat="42.74068" lon="1.46058">
        <ele>945</ele>
        <time>2026-06-28T10:05:33.000Z</time>
      </trkpt>
      <trkpt lat="42.7407" lon="1.4606">
        <ele>944</ele>
        <time>2026-06-28T10:05:34.000Z</time>
      </trkpt>
      <trkpt lat="42.74072" lon="1.46061">
        <ele>943</ele>
        <time>2026-06-28T10:05:35.000Z</time>
      </trkpt>
      <trkpt lat="42.74075" lon="1.46063">
        <ele>942</ele>
        <time>2026-06-28T10:05:36.000Z</time>
      </trkpt>
      <trkpt lat="42.74078" lon="1.46064">
        <ele>941</ele>
        <time>2026-06-28T10:05:37.000Z</time>
      </trkpt>
      <trkpt lat="42.7408" lon="1.46066">
        <ele>940</ele>
        <time>2026-06-28T10:05:38.000Z</time>
      </trkpt>
      <trkpt lat="42.74083" lon="1.46069">
        <ele>940</ele>
        <time>2026-06-28T10:05:39.000Z</time>
      </trkpt>
      <trkpt lat="42.74086" lon="1.46072">
        <ele>941</ele>
        <time>2026-06-28T10:05:40.000Z</time>
      </trkpt>
      <trkpt lat="42.74088" lon="1.46074">
        <ele>941</ele>
        <time>2026-06-28T10:05:41.000Z</time>
      </trkpt>
      <trkpt lat="42.7409" lon="1.46077">
        <ele>941</ele>
        <time>2026-06-28T10:05:42.000Z</time>
      </trkpt>
      <trkpt lat="42.74092" lon="1.4608">
        <ele>941</ele>
        <time>2026-06-28T10:05:43.000Z</time>
      </trkpt>
      <trkpt lat="42.74095" lon="1.46083">
        <ele>941</ele>
        <time>2026-06-28T10:05:44.000Z</time>
      </trkpt>
      <trkpt lat="42.74097" lon="1.46086">
        <ele>940</ele>
        <time>2026-06-28T10:05:45.000Z</time>
      </trkpt>
      <trkpt lat="42.74101" lon="1.46091">
        <ele>940</ele>
        <time>2026-06-28T10:05:46.000Z</time>
      </trkpt>
      <trkpt lat="42.74106" lon="1.46096">
        <ele>939</ele>
        <time>2026-06-28T10:05:47.000Z</time>
      </trkpt>
      <trkpt lat="42.7411" lon="1.461">
        <ele>939</ele>
        <time>2026-06-28T10:05:48.000Z</time>
      </trkpt>
      <trkpt lat="42.74112" lon="1.46104">
        <ele>938</ele>
        <time>2026-06-28T10:05:49.000Z</time>
      </trkpt>
      <trkpt lat="42.74114" lon="1.46108">
        <ele>938</ele>
        <time>2026-06-28T10:05:50.000Z</time>
      </trkpt>
      <trkpt lat="42.74116" lon="1.46112">
        <ele>938</ele>
        <time>2026-06-28T10:05:51.000Z</time>
      </trkpt>
      <trkpt lat="42.74119" lon="1.46116">
        <ele>939</ele>
        <time>2026-06-28T10:05:52.000Z</time>
      </trkpt>
      <trkpt lat="42.74122" lon="1.46119">
        <ele>939</ele>
        <time>2026-06-28T10:05:53.000Z</time>
      </trkpt>
      <trkpt lat="42.74125" lon="1.46123">
        <ele>939</ele>
        <time>2026-06-28T10:05:54.000Z</time>
      </trkpt>
      <trkpt lat="42.74128" lon="1.46126">
        <ele>938</ele>
        <time>2026-06-28T10:05:55.000Z</time>
      </trkpt>
      <trkpt lat="42.74131" lon="1.46129">
        <ele>938</ele>
        <time>2026-06-28T10:05:56.000Z</time>
      </trkpt>
      <trkpt lat="42.74134" lon="1.46133">
        <ele>939</ele>
        <time>2026-06-28T10:05:57.000Z</time>
      </trkpt>
      <trkpt lat="42.74136" lon="1.46136">
        <ele>938</ele>
        <time>2026-06-28T10:05:58.000Z</time>
      </trkpt>
      <trkpt lat="42.74137" lon="1.46139">
        <ele>938</ele>
        <time>2026-06-28T10:05:59.000Z</time>
      </trkpt>
      <trkpt lat="42.74139" lon="1.4614">
        <ele>937</ele>
        <time>2026-06-28T10:06:00.000Z</time>
      </trkpt>
      <trkpt lat="42.7414" lon="1.46142">
        <ele>937</ele>
        <time>2026-06-28T10:06:01.000Z</time>
      </trkpt>
      <trkpt lat="42.7414" lon="1.46145">
        <ele>937</ele>
        <time>2026-06-28T10:06:02.000Z</time>
      </trkpt>
      <trkpt lat="42.74141" lon="1.46148">
        <ele>937</ele>
        <time>2026-06-28T10:06:03.000Z</time>
      </trkpt>
      <trkpt lat="42.74143" lon="1.46151">
        <ele>937</ele>
        <time>2026-06-28T10:06:04.000Z</time>
      </trkpt>
      <trkpt lat="42.74145" lon="1.46151">
        <ele>936</ele>
        <time>2026-06-28T10:06:05.000Z</time>
      </trkpt>
      <trkpt lat="42.74147" lon="1.46152">
        <ele>936</ele>
        <time>2026-06-28T10:06:06.000Z</time>
      </trkpt>
      <trkpt lat="42.74148" lon="1.46153">
        <ele>935</ele>
        <time>2026-06-28T10:06:07.000Z</time>
      </trkpt>
      <trkpt lat="42.74151" lon="1.46154">
        <ele>933</ele>
        <time>2026-06-28T10:06:08.000Z</time>
      </trkpt>
      <trkpt lat="42.74153" lon="1.46156">
        <ele>932</ele>
        <time>2026-06-28T10:06:09.000Z</time>
      </trkpt>
      <trkpt lat="42.74155" lon="1.46157">
        <ele>932</ele>
        <time>2026-06-28T10:06:10.000Z</time>
      </trkpt>
      <trkpt lat="42.74157" lon="1.46159">
        <ele>931</ele>
        <time>2026-06-28T10:06:11.000Z</time>
      </trkpt>
      <trkpt lat="42.74159" lon="1.4616">
        <ele>930</ele>
        <time>2026-06-28T10:06:12.000Z</time>
      </trkpt>
      <trkpt lat="42.74161" lon="1.46162">
        <ele>928</ele>
        <time>2026-06-28T10:06:13.000Z</time>
      </trkpt>
      <trkpt lat="42.74164" lon="1.46163">
        <ele>927</ele>
        <time>2026-06-28T10:06:14.000Z</time>
      </trkpt>
      <trkpt lat="42.74166" lon="1.46163">
        <ele>926</ele>
        <time>2026-06-28T10:06:15.000Z</time>
      </trkpt>
      <trkpt lat="42.74168" lon="1.46163">
        <ele>925</ele>
        <time>2026-06-28T10:06:16.000Z</time>
      </trkpt>
      <trkpt lat="42.7417" lon="1.46164">
        <ele>924</ele>
        <time>2026-06-28T10:06:17.000Z</time>
      </trkpt>
      <trkpt lat="42.74172" lon="1.46164">
        <ele>923</ele>
        <time>2026-06-28T10:06:18.000Z</time>
      </trkpt>
      <trkpt lat="42.74174" lon="1.46166">
        <ele>923</ele>
        <time>2026-06-28T10:06:19.000Z</time>
      </trkpt>
      <trkpt lat="42.74176" lon="1.46167">
        <ele>923</ele>
        <time>2026-06-28T10:06:20.000Z</time>
      </trkpt>
      <trkpt lat="42.74178" lon="1.46168">
        <ele>923</ele>
        <time>2026-06-28T10:06:21.000Z</time>
      </trkpt>
      <trkpt lat="42.74179" lon="1.46169">
        <ele>922</ele>
        <time>2026-06-28T10:06:22.000Z</time>
      </trkpt>
      <trkpt lat="42.74181" lon="1.4617">
        <ele>922</ele>
        <time>2026-06-28T10:06:23.000Z</time>
      </trkpt>
      <trkpt lat="42.74184" lon="1.4617">
        <ele>920</ele>
        <time>2026-06-28T10:06:24.000Z</time>
      </trkpt>
      <trkpt lat="42.74185" lon="1.4617">
        <ele>920</ele>
        <time>2026-06-28T10:06:25.000Z</time>
      </trkpt>
      <trkpt lat="42.74187" lon="1.4617">
        <ele>919</ele>
        <time>2026-06-28T10:06:26.000Z</time>
      </trkpt>
      <trkpt lat="42.74189" lon="1.46171">
        <ele>919</ele>
        <time>2026-06-28T10:06:27.000Z</time>
      </trkpt>
      <trkpt lat="42.74191" lon="1.46172">
        <ele>919</ele>
        <time>2026-06-28T10:06:28.000Z</time>
      </trkpt>
      <trkpt lat="42.74193" lon="1.46173">
        <ele>918</ele>
        <time>2026-06-28T10:06:29.000Z</time>
      </trkpt>
      <trkpt lat="42.74196" lon="1.46174">
        <ele>918</ele>
        <time>2026-06-28T10:06:30.000Z</time>
      </trkpt>
      <trkpt lat="42.74199" lon="1.46176">
        <ele>917</ele>
        <time>2026-06-28T10:06:31.000Z</time>
      </trkpt>
      <trkpt lat="42.74202" lon="1.46178">
        <ele>917</ele>
        <time>2026-06-28T10:06:32.000Z</time>
      </trkpt>
      <trkpt lat="42.74205" lon="1.46179">
        <ele>916</ele>
        <time>2026-06-28T10:06:33.000Z</time>
      </trkpt>
      <trkpt lat="42.74208" lon="1.4618">
        <ele>916</ele>
        <time>2026-06-28T10:06:34.000Z</time>
      </trkpt>
      <trkpt lat="42.74211" lon="1.46182">
        <ele>916</ele>
        <time>2026-06-28T10:06:35.000Z</time>
      </trkpt>
      <trkpt lat="42.74214" lon="1.46184">
        <ele>916</ele>
        <time>2026-06-28T10:06:36.000Z</time>
      </trkpt>
      <trkpt lat="42.74216" lon="1.46186">
        <ele>916</ele>
        <time>2026-06-28T10:06:37.000Z</time>
      </trkpt>
      <trkpt lat="42.74218" lon="1.46188">
        <ele>915</ele>
        <time>2026-06-28T10:06:38.000Z</time>
      </trkpt>
      <trkpt lat="42.74221" lon="1.4619">
        <ele>915</ele>
        <time>2026-06-28T10:06:39.000Z</time>
      </trkpt>
      <trkpt lat="42.74223" lon="1.46193">
        <ele>915</ele>
        <time>2026-06-28T10:06:40.000Z</time>
      </trkpt>
      <trkpt lat="42.74225" lon="1.46194">
        <ele>915</ele>
        <time>2026-06-28T10:06:41.000Z</time>
      </trkpt>
      <trkpt lat="42.74228" lon="1.46196">
        <ele>914</ele>
        <time>2026-06-28T10:06:42.000Z</time>
      </trkpt>
      <trkpt lat="42.74231" lon="1.46198">
        <ele>914</ele>
        <time>2026-06-28T10:06:43.000Z</time>
      </trkpt>
      <trkpt lat="42.74232" lon="1.46199">
        <ele>914</ele>
        <time>2026-06-28T10:06:44.000Z</time>
      </trkpt>
      <trkpt lat="42.74233" lon="1.462">
        <ele>914</ele>
        <time>2026-06-28T10:06:45.000Z</time>
      </trkpt>
      <trkpt lat="42.74235" lon="1.46202">
        <ele>913</ele>
        <time>2026-06-28T10:06:46.000Z</time>
      </trkpt>
      <trkpt lat="42.74236" lon="1.46202">
        <ele>913</ele>
        <time>2026-06-28T10:06:47.000Z</time>
      </trkpt>
      <trkpt lat="42.74237" lon="1.46203">
        <ele>912</ele>
        <time>2026-06-28T10:06:48.000Z</time>
      </trkpt>
      <trkpt lat="42.74238" lon="1.46204">
        <ele>912</ele>
        <time>2026-06-28T10:06:49.000Z</time>
      </trkpt>
      <trkpt lat="42.7424" lon="1.46204">
        <ele>912</ele>
        <time>2026-06-28T10:06:50.000Z</time>
      </trkpt>
      <trkpt lat="42.74242" lon="1.46205">
        <ele>912</ele>
        <time>2026-06-28T10:06:51.000Z</time>
      </trkpt>
      <trkpt lat="42.74243" lon="1.46205">
        <ele>911</ele>
        <time>2026-06-28T10:06:52.000Z</time>
      </trkpt>
      <trkpt lat="42.74244" lon="1.46204">
        <ele>910</ele>
        <time>2026-06-28T10:06:53.000Z</time>
      </trkpt>
      <trkpt lat="42.74244" lon="1.46205">
        <ele>910</ele>
        <time>2026-06-28T10:06:54.000Z</time>
      </trkpt>
      <trkpt lat="42.74245" lon="1.46206">
        <ele>909</ele>
        <time>2026-06-28T10:06:55.000Z</time>
      </trkpt>
      <trkpt lat="42.74245" lon="1.46206">
        <ele>909</ele>
        <time>2026-06-28T10:06:56.000Z</time>
      </trkpt>
      <trkpt lat="42.74246" lon="1.46205">
        <ele>908</ele>
        <time>2026-06-28T10:06:57.000Z</time>
      </trkpt>
      <trkpt lat="42.74247" lon="1.46205">
        <ele>908</ele>
        <time>2026-06-28T10:06:58.000Z</time>
      </trkpt>
      <trkpt lat="42.74248" lon="1.46204">
        <ele>906</ele>
        <time>2026-06-28T10:06:59.000Z</time>
      </trkpt>
      <trkpt lat="42.74248" lon="1.46203">
        <ele>906</ele>
        <time>2026-06-28T10:07:00.000Z</time>
      </trkpt>
      <trkpt lat="42.74248" lon="1.46204">
        <ele>906</ele>
        <time>2026-06-28T10:07:01.000Z</time>
      </trkpt>
      <trkpt lat="42.74249" lon="1.46204">
        <ele>906</ele>
        <time>2026-06-28T10:07:02.000Z</time>
      </trkpt>
      <trkpt lat="42.7425" lon="1.46204">
        <ele>905</ele>
        <time>2026-06-28T10:07:03.000Z</time>
      </trkpt>
      <trkpt lat="42.7425" lon="1.46204">
        <ele>905</ele>
        <time>2026-06-28T10:07:04.000Z</time>
      </trkpt>
      <trkpt lat="42.7425" lon="1.46205">
        <ele>904</ele>
        <time>2026-06-28T10:07:05.000Z</time>
      </trkpt>
      <trkpt lat="42.7425" lon="1.46204">
        <ele>904</ele>
        <time>2026-06-28T10:07:06.000Z</time>
      </trkpt>
      <trkpt lat="42.7425" lon="1.46204">
        <ele>903</ele>
        <time>2026-06-28T10:07:07.000Z</time>
      </trkpt>
      <trkpt lat="42.74251" lon="1.46203">
        <ele>903</ele>
        <time>2026-06-28T10:07:08.000Z</time>
      </trkpt>
      <trkpt lat="42.74251" lon="1.46203">
        <ele>903</ele>
        <time>2026-06-28T10:07:09.000Z</time>
      </trkpt>
      <trkpt lat="42.74252" lon="1.46203">
        <ele>902</ele>
        <time>2026-06-28T10:07:10.000Z</time>
      </trkpt>
      <trkpt lat="42.74252" lon="1.46203">
        <ele>902</ele>
        <time>2026-06-28T10:07:11.000Z</time>
      </trkpt>
      <trkpt lat="42.74253" lon="1.46203">
        <ele>902</ele>
        <time>2026-06-28T10:07:12.000Z</time>
      </trkpt>
      <trkpt lat="42.74254" lon="1.46203">
        <ele>902</ele>
        <time>2026-06-28T10:07:13.000Z</time>
      </trkpt>
      <trkpt lat="42.74255" lon="1.46203">
        <ele>901</ele>
        <time>2026-06-28T10:07:14.000Z</time>
      </trkpt>
      <trkpt lat="42.74255" lon="1.46202">
        <ele>901</ele>
        <time>2026-06-28T10:07:15.000Z</time>
      </trkpt>
      <trkpt lat="42.74256" lon="1.46201">
        <ele>902</ele>
        <time>2026-06-28T10:07:16.000Z</time>
      </trkpt>
      <trkpt lat="42.74256" lon="1.462">
        <ele>902</ele>
        <time>2026-06-28T10:07:17.000Z</time>
      </trkpt>
      <trkpt lat="42.74257" lon="1.462">
        <ele>902</ele>
        <time>2026-06-28T10:07:18.000Z</time>
      </trkpt>
      <trkpt lat="42.74257" lon="1.462">
        <ele>901</ele>
        <time>2026-06-28T10:07:19.000Z</time>
      </trkpt>
      <trkpt lat="42.74258" lon="1.462">
        <ele>901</ele>
        <time>2026-06-28T10:07:20.000Z</time>
      </trkpt>
      <trkpt lat="42.74258" lon="1.462">
        <ele>901</ele>
        <time>2026-06-28T10:07:21.000Z</time>
      </trkpt>
      <trkpt lat="42.74259" lon="1.46201">
        <ele>900</ele>
        <time>2026-06-28T10:07:22.000Z</time>
      </trkpt>
      <trkpt lat="42.7426" lon="1.46202">
        <ele>900</ele>
        <time>2026-06-28T10:07:23.000Z</time>
      </trkpt>
      <trkpt lat="42.74261" lon="1.46203">
        <ele>900</ele>
        <time>2026-06-28T10:07:24.000Z</time>
      </trkpt>
      <trkpt lat="42.74263" lon="1.46204">
        <ele>901</ele>
        <time>2026-06-28T10:07:25.000Z</time>
      </trkpt>
      <trkpt lat="42.74265" lon="1.46206">
        <ele>901</ele>
        <time>2026-06-28T10:07:26.000Z</time>
      </trkpt>
      <trkpt lat="42.74267" lon="1.46207">
        <ele>900</ele>
        <time>2026-06-28T10:07:27.000Z</time>
      </trkpt>
      <trkpt lat="42.74269" lon="1.46209">
        <ele>901</ele>
        <time>2026-06-28T10:07:28.000Z</time>
      </trkpt>
      <trkpt lat="42.74271" lon="1.46209">
        <ele>900</ele>
        <time>2026-06-28T10:07:29.000Z</time>
      </trkpt>
      <trkpt lat="42.74273" lon="1.4621">
        <ele>899</ele>
        <time>2026-06-28T10:07:30.000Z</time>
      </trkpt>
      <trkpt lat="42.74275" lon="1.46211">
        <ele>898</ele>
        <time>2026-06-28T10:07:31.000Z</time>
      </trkpt>
      <trkpt lat="42.74277" lon="1.46212">
        <ele>897</ele>
        <time>2026-06-28T10:07:32.000Z</time>
      </trkpt>
      <trkpt lat="42.74278" lon="1.46213">
        <ele>898</ele>
        <time>2026-06-28T10:07:33.000Z</time>
      </trkpt>
      <trkpt lat="42.74279" lon="1.46214">
        <ele>898</ele>
        <time>2026-06-28T10:07:34.000Z</time>
      </trkpt>
      <trkpt lat="42.7428" lon="1.46214">
        <ele>896</ele>
        <time>2026-06-28T10:07:35.000Z</time>
      </trkpt>
      <trkpt lat="42.7428" lon="1.46214">
        <ele>896</ele>
        <time>2026-06-28T10:07:36.000Z</time>
      </trkpt>
      <trkpt lat="42.74281" lon="1.46215">
        <ele>895</ele>
        <time>2026-06-28T10:07:37.000Z</time>
      </trkpt>
      <trkpt lat="42.74283" lon="1.46216">
        <ele>895</ele>
        <time>2026-06-28T10:07:38.000Z</time>
      </trkpt>
      <trkpt lat="42.74284" lon="1.46217">
        <ele>894</ele>
        <time>2026-06-28T10:07:39.000Z</time>
      </trkpt>
      <trkpt lat="42.74284" lon="1.46217">
        <ele>893</ele>
        <time>2026-06-28T10:07:40.000Z</time>
      </trkpt>
      <trkpt lat="42.74285" lon="1.46217">
        <ele>892</ele>
        <time>2026-06-28T10:07:41.000Z</time>
      </trkpt>
      <trkpt lat="42.74286" lon="1.46217">
        <ele>892</ele>
        <time>2026-06-28T10:07:42.000Z</time>
      </trkpt>
      <trkpt lat="42.74286" lon="1.46217">
        <ele>892</ele>
        <time>2026-06-28T10:07:43.000Z</time>
      </trkpt>
      <trkpt lat="42.74287" lon="1.46218">
        <ele>892</ele>
        <time>2026-06-28T10:07:44.000Z</time>
      </trkpt>
      <trkpt lat="42.74286" lon="1.46217">
        <ele>892</ele>
        <time>2026-06-28T10:07:45.000Z</time>
      </trkpt>
      <trkpt lat="42.74286" lon="1.46217">
        <ele>892</ele>
        <time>2026-06-28T10:07:46.000Z</time>
      </trkpt>
      <trkpt lat="42.74286" lon="1.46216">
        <ele>891</ele>
        <time>2026-06-28T10:07:47.000Z</time>
      </trkpt>
      <trkpt lat="42.74287" lon="1.46215">
        <ele>891</ele>
        <time>2026-06-28T10:07:48.000Z</time>
      </trkpt>
      <trkpt lat="42.74287" lon="1.46214">
        <ele>891</ele>
        <time>2026-06-28T10:07:49.000Z</time>
      </trkpt>
      <trkpt lat="42.74289" lon="1.46214">
        <ele>892</ele>
        <time>2026-06-28T10:07:50.000Z</time>
      </trkpt>
      <trkpt lat="42.74289" lon="1.46213">
        <ele>892</ele>
        <time>2026-06-28T10:07:51.000Z</time>
      </trkpt>
      <trkpt lat="42.74289" lon="1.46214">
        <ele>891</ele>
        <time>2026-06-28T10:07:52.000Z</time>
      </trkpt>
      <trkpt lat="42.74289" lon="1.46215">
        <ele>892</ele>
        <time>2026-06-28T10:07:53.000Z</time>
      </trkpt>
      <trkpt lat="42.74287" lon="1.46215">
        <ele>892</ele>
        <time>2026-06-28T10:07:54.000Z</time>
      </trkpt>
      <trkpt lat="42.74286" lon="1.46217">
        <ele>891</ele>
        <time>2026-06-28T10:07:55.000Z</time>
      </trkpt>
      <trkpt lat="42.74283" lon="1.4622">
        <ele>891</ele>
        <time>2026-06-28T10:07:56.000Z</time>
      </trkpt>
      <trkpt lat="42.74282" lon="1.46222">
        <ele>890</ele>
        <time>2026-06-28T10:07:57.000Z</time>
      </trkpt>
      <trkpt lat="42.74279" lon="1.46224">
        <ele>890</ele>
        <time>2026-06-28T10:07:58.000Z</time>
      </trkpt>
      <trkpt lat="42.74277" lon="1.46225">
        <ele>890</ele>
        <time>2026-06-28T10:07:59.000Z</time>
      </trkpt>
      <trkpt lat="42.74276" lon="1.46226">
        <ele>890</ele>
        <time>2026-06-28T10:08:00.000Z</time>
      </trkpt>
      <trkpt lat="42.74275" lon="1.46226">
        <ele>891</ele>
        <time>2026-06-28T10:08:01.000Z</time>
      </trkpt>
      <trkpt lat="42.74274" lon="1.46228">
        <ele>891</ele>
        <time>2026-06-28T10:08:02.000Z</time>
      </trkpt>
      <trkpt lat="42.74273" lon="1.4623">
        <ele>891</ele>
        <time>2026-06-28T10:08:03.000Z</time>
      </trkpt>
      <trkpt lat="42.74272" lon="1.46234">
        <ele>891</ele>
        <time>2026-06-28T10:08:04.000Z</time>
      </trkpt>
      <trkpt lat="42.74271" lon="1.46237">
        <ele>892</ele>
        <time>2026-06-28T10:08:05.000Z</time>
      </trkpt>
      <trkpt lat="42.74269" lon="1.46239">
        <ele>893</ele>
        <time>2026-06-28T10:08:06.000Z</time>
      </trkpt>
      <trkpt lat="42.7427" lon="1.46241">
        <ele>893</ele>
        <time>2026-06-28T10:08:07.000Z</time>
      </trkpt>
      <trkpt lat="42.74271" lon="1.46243">
        <ele>894</ele>
        <time>2026-06-28T10:08:08.000Z</time>
      </trkpt>
      <trkpt lat="42.74271" lon="1.46245">
        <ele>893</ele>
        <time>2026-06-28T10:08:09.000Z</time>
      </trkpt>
      <trkpt lat="42.74273" lon="1.46247">
        <ele>893</ele>
        <time>2026-06-28T10:08:10.000Z</time>
      </trkpt>
      <trkpt lat="42.74274" lon="1.46248">
        <ele>894</ele>
        <time>2026-06-28T10:08:11.000Z</time>
      </trkpt>
      <trkpt lat="42.74275" lon="1.46249">
        <ele>894</ele>
        <time>2026-06-28T10:08:12.000Z</time>
      </trkpt>
      <trkpt lat="42.74277" lon="1.46251">
        <ele>894</ele>
        <time>2026-06-28T10:08:13.000Z</time>
      </trkpt>
      <trkpt lat="42.74278" lon="1.46252">
        <ele>894</ele>
        <time>2026-06-28T10:08:14.000Z</time>
      </trkpt>
      <trkpt lat="42.74278" lon="1.46254">
        <ele>894</ele>
        <time>2026-06-28T10:08:15.000Z</time>
      </trkpt>
      <trkpt lat="42.74279" lon="1.46256">
        <ele>894</ele>
        <time>2026-06-28T10:08:16.000Z</time>
      </trkpt>
      <trkpt lat="42.7428" lon="1.46258">
        <ele>894</ele>
        <time>2026-06-28T10:08:17.000Z</time>
      </trkpt>
      <trkpt lat="42.74281" lon="1.4626">
        <ele>894</ele>
        <time>2026-06-28T10:08:18.000Z</time>
      </trkpt>
      <trkpt lat="42.74283" lon="1.46265">
        <ele>896</ele>
        <time>2026-06-28T10:08:19.000Z</time>
      </trkpt>
      <trkpt lat="42.74286" lon="1.46269">
        <ele>897</ele>
        <time>2026-06-28T10:08:20.000Z</time>
      </trkpt>
      <trkpt lat="42.74289" lon="1.46272">
        <ele>897</ele>
        <time>2026-06-28T10:08:21.000Z</time>
      </trkpt>
      <trkpt lat="42.74292" lon="1.46273">
        <ele>896</ele>
        <time>2026-06-28T10:08:22.000Z</time>
      </trkpt>
      <trkpt lat="42.74296" lon="1.46274">
        <ele>895</ele>
        <time>2026-06-28T10:08:23.000Z</time>
      </trkpt>
      <trkpt lat="42.74299" lon="1.46276">
        <ele>894</ele>
        <time>2026-06-28T10:08:24.000Z</time>
      </trkpt>
      <trkpt lat="42.74301" lon="1.46276">
        <ele>893</ele>
        <time>2026-06-28T10:08:25.000Z</time>
      </trkpt>
      <trkpt lat="42.74303" lon="1.46278">
        <ele>893</ele>
        <time>2026-06-28T10:08:26.000Z</time>
      </trkpt>
      <trkpt lat="42.74306" lon="1.46279">
        <ele>893</ele>
        <time>2026-06-28T10:08:27.000Z</time>
      </trkpt>
      <trkpt lat="42.74307" lon="1.46282">
        <ele>893</ele>
        <time>2026-06-28T10:08:28.000Z</time>
      </trkpt>
      <trkpt lat="42.74309" lon="1.46285">
        <ele>894</ele>
        <time>2026-06-28T10:08:29.000Z</time>
      </trkpt>
      <trkpt lat="42.74311" lon="1.46288">
        <ele>893</ele>
        <time>2026-06-28T10:08:30.000Z</time>
      </trkpt>
      <trkpt lat="42.74314" lon="1.46293">
        <ele>892</ele>
        <time>2026-06-28T10:08:31.000Z</time>
      </trkpt>
      <trkpt lat="42.74317" lon="1.46298">
        <ele>892</ele>
        <time>2026-06-28T10:08:32.000Z</time>
      </trkpt>
      <trkpt lat="42.74321" lon="1.46304">
        <ele>893</ele>
        <time>2026-06-28T10:08:33.000Z</time>
      </trkpt>
      <trkpt lat="42.74325" lon="1.4631">
        <ele>893</ele>
        <time>2026-06-28T10:08:34.000Z</time>
      </trkpt>
      <trkpt lat="42.74328" lon="1.46317">
        <ele>893</ele>
        <time>2026-06-28T10:08:35.000Z</time>
      </trkpt>
      <trkpt lat="42.74332" lon="1.46325">
        <ele>894</ele>
        <time>2026-06-28T10:08:36.000Z</time>
      </trkpt>
      <trkpt lat="42.74337" lon="1.46334">
        <ele>894</ele>
        <time>2026-06-28T10:08:37.000Z</time>
      </trkpt>
      <trkpt lat="42.74342" lon="1.46342">
        <ele>894</ele>
        <time>2026-06-28T10:08:38.000Z</time>
      </trkpt>
      <trkpt lat="42.74345" lon="1.46352">
        <ele>895</ele>
        <time>2026-06-28T10:08:39.000Z</time>
      </trkpt>
      <trkpt lat="42.74349" lon="1.4636">
        <ele>895</ele>
        <time>2026-06-28T10:08:40.000Z</time>
      </trkpt>
      <trkpt lat="42.74352" lon="1.46368">
        <ele>895</ele>
        <time>2026-06-28T10:08:41.000Z</time>
      </trkpt>
      <trkpt lat="42.74355" lon="1.46378">
        <ele>895</ele>
        <time>2026-06-28T10:08:42.000Z</time>
      </trkpt>
      <trkpt lat="42.74359" lon="1.46388">
        <ele>895</ele>
        <time>2026-06-28T10:08:43.000Z</time>
      </trkpt>
      <trkpt lat="42.74364" lon="1.46397">
        <ele>895</ele>
        <time>2026-06-28T10:08:44.000Z</time>
      </trkpt>
      <trkpt lat="42.74369" lon="1.46407">
        <ele>894</ele>
        <time>2026-06-28T10:08:45.000Z</time>
      </trkpt>
      <trkpt lat="42.74375" lon="1.46417">
        <ele>893</ele>
        <time>2026-06-28T10:08:46.000Z</time>
      </trkpt>
      <trkpt lat="42.74381" lon="1.46427">
        <ele>893</ele>
        <time>2026-06-28T10:08:47.000Z</time>
      </trkpt>
      <trkpt lat="42.74387" lon="1.46437">
        <ele>893</ele>
        <time>2026-06-28T10:08:48.000Z</time>
      </trkpt>
      <trkpt lat="42.74393" lon="1.46448">
        <ele>893</ele>
        <time>2026-06-28T10:08:49.000Z</time>
      </trkpt>
      <trkpt lat="42.74398" lon="1.4646">
        <ele>893</ele>
        <time>2026-06-28T10:08:50.000Z</time>
      </trkpt>
      <trkpt lat="42.74402" lon="1.46472">
        <ele>893</ele>
        <time>2026-06-28T10:08:51.000Z</time>
      </trkpt>
      <trkpt lat="42.74407" lon="1.46483">
        <ele>892</ele>
        <time>2026-06-28T10:08:52.000Z</time>
      </trkpt>
      <trkpt lat="42.74412" lon="1.46495">
        <ele>892</ele>
        <time>2026-06-28T10:08:53.000Z</time>
      </trkpt>
      <trkpt lat="42.74416" lon="1.46507">
        <ele>892</ele>
        <time>2026-06-28T10:08:54.000Z</time>
      </trkpt>
      <trkpt lat="42.74421" lon="1.46519">
        <ele>891</ele>
        <time>2026-06-28T10:08:55.000Z</time>
      </trkpt>
      <trkpt lat="42.74425" lon="1.4653">
        <ele>891</ele>
        <time>2026-06-28T10:08:56.000Z</time>
      </trkpt>
      <trkpt lat="42.74431" lon="1.46541">
        <ele>891</ele>
        <time>2026-06-28T10:08:57.000Z</time>
      </trkpt>
      <trkpt lat="42.74436" lon="1.46552">
        <ele>891</ele>
        <time>2026-06-28T10:08:58.000Z</time>
      </trkpt>
      <trkpt lat="42.74441" lon="1.46562">
        <ele>891</ele>
        <time>2026-06-28T10:08:59.000Z</time>
      </trkpt>
      <trkpt lat="42.74446" lon="1.46572">
        <ele>891</ele>
        <time>2026-06-28T10:09:00.000Z</time>
      </trkpt>
      <trkpt lat="42.74449" lon="1.46581">
        <ele>891</ele>
        <time>2026-06-28T10:09:01.000Z</time>
      </trkpt>
      <trkpt lat="42.74454" lon="1.4659">
        <ele>891</ele>
        <time>2026-06-28T10:09:02.000Z</time>
      </trkpt>
      <trkpt lat="42.74458" lon="1.46599">
        <ele>891</ele>
        <time>2026-06-28T10:09:03.000Z</time>
      </trkpt>
      <trkpt lat="42.74462" lon="1.46608">
        <ele>891</ele>
        <time>2026-06-28T10:09:04.000Z</time>
      </trkpt>
      <trkpt lat="42.74465" lon="1.46616">
        <ele>890</ele>
        <time>2026-06-28T10:09:05.000Z</time>
      </trkpt>
      <trkpt lat="42.74469" lon="1.46623">
        <ele>890</ele>
        <time>2026-06-28T10:09:06.000Z</time>
      </trkpt>
      <trkpt lat="42.74473" lon="1.46631">
        <ele>890</ele>
        <time>2026-06-28T10:09:07.000Z</time>
      </trkpt>
      <trkpt lat="42.74474" lon="1.46637">
        <ele>890</ele>
        <time>2026-06-28T10:09:08.000Z</time>
      </trkpt>
      <trkpt lat="42.74477" lon="1.46644">
        <ele>890</ele>
        <time>2026-06-28T10:09:09.000Z</time>
      </trkpt>
      <trkpt lat="42.7448" lon="1.46652">
        <ele>890</ele>
        <time>2026-06-28T10:09:10.000Z</time>
      </trkpt>
      <trkpt lat="42.74484" lon="1.4666">
        <ele>888</ele>
        <time>2026-06-28T10:09:11.000Z</time>
      </trkpt>
      <trkpt lat="42.74486" lon="1.46669">
        <ele>887</ele>
        <time>2026-06-28T10:09:12.000Z</time>
      </trkpt>
      <trkpt lat="42.74489" lon="1.46677">
        <ele>886</ele>
        <time>2026-06-28T10:09:13.000Z</time>
      </trkpt>
      <trkpt lat="42.74491" lon="1.46684">
        <ele>885</ele>
        <time>2026-06-28T10:09:14.000Z</time>
      </trkpt>
      <trkpt lat="42.74495" lon="1.46691">
        <ele>884</ele>
        <time>2026-06-28T10:09:15.000Z</time>
      </trkpt>
      <trkpt lat="42.74498" lon="1.46699">
        <ele>883</ele>
        <time>2026-06-28T10:09:16.000Z</time>
      </trkpt>
      <trkpt lat="42.74501" lon="1.46706">
        <ele>883</ele>
        <time>2026-06-28T10:09:17.000Z</time>
      </trkpt>
      <trkpt lat="42.74504" lon="1.46712">
        <ele>883</ele>
        <time>2026-06-28T10:09:18.000Z</time>
      </trkpt>
      <trkpt lat="42.74506" lon="1.46716">
        <ele>883</ele>
        <time>2026-06-28T10:09:19.000Z</time>
      </trkpt>
      <trkpt lat="42.74509" lon="1.46719">
        <ele>883</ele>
        <time>2026-06-28T10:09:20.000Z</time>
      </trkpt>
      <trkpt lat="42.74512" lon="1.46723">
        <ele>883</ele>
        <time>2026-06-28T10:09:21.000Z</time>
      </trkpt>
      <trkpt lat="42.74516" lon="1.46727">
        <ele>882</ele>
        <time>2026-06-28T10:09:22.000Z</time>
      </trkpt>
      <trkpt lat="42.7452" lon="1.46729">
        <ele>882</ele>
        <time>2026-06-28T10:09:23.000Z</time>
      </trkpt>
      <trkpt lat="42.74523" lon="1.46726">
        <ele>881</ele>
        <time>2026-06-28T10:09:24.000Z</time>
      </trkpt>
      <trkpt lat="42.74526" lon="1.46724">
        <ele>879</ele>
        <time>2026-06-28T10:09:25.000Z</time>
      </trkpt>
      <trkpt lat="42.74528" lon="1.4672">
        <ele>877</ele>
        <time>2026-06-28T10:09:26.000Z</time>
      </trkpt>
      <trkpt lat="42.7453" lon="1.46717">
        <ele>877</ele>
        <time>2026-06-28T10:09:27.000Z</time>
      </trkpt>
      <trkpt lat="42.74534" lon="1.46713">
        <ele>875</ele>
        <time>2026-06-28T10:09:28.000Z</time>
      </trkpt>
      <trkpt lat="42.74538" lon="1.46713">
        <ele>875</ele>
        <time>2026-06-28T10:09:29.000Z</time>
      </trkpt>
      <trkpt lat="42.7454" lon="1.46714">
        <ele>873</ele>
        <time>2026-06-28T10:09:30.000Z</time>
      </trkpt>
      <trkpt lat="42.74542" lon="1.4672">
        <ele>872</ele>
        <time>2026-06-28T10:09:31.000Z</time>
      </trkpt>
      <trkpt lat="42.74543" lon="1.46727">
        <ele>871</ele>
        <time>2026-06-28T10:09:32.000Z</time>
      </trkpt>
      <trkpt lat="42.74546" lon="1.46733">
        <ele>871</ele>
        <time>2026-06-28T10:09:33.000Z</time>
      </trkpt>
      <trkpt lat="42.74549" lon="1.46739">
        <ele>871</ele>
        <time>2026-06-28T10:09:34.000Z</time>
      </trkpt>
      <trkpt lat="42.74552" lon="1.46745">
        <ele>870</ele>
        <time>2026-06-28T10:09:35.000Z</time>
      </trkpt>
      <trkpt lat="42.74556" lon="1.4675">
        <ele>870</ele>
        <time>2026-06-28T10:09:36.000Z</time>
      </trkpt>
      <trkpt lat="42.7456" lon="1.46756">
        <ele>870</ele>
        <time>2026-06-28T10:09:37.000Z</time>
      </trkpt>
      <trkpt lat="42.74564" lon="1.46762">
        <ele>869</ele>
        <time>2026-06-28T10:09:38.000Z</time>
      </trkpt>
      <trkpt lat="42.74568" lon="1.46767">
        <ele>869</ele>
        <time>2026-06-28T10:09:39.000Z</time>
      </trkpt>
      <trkpt lat="42.74572" lon="1.46771">
        <ele>870</ele>
        <time>2026-06-28T10:09:40.000Z</time>
      </trkpt>
      <trkpt lat="42.74575" lon="1.46776">
        <ele>870</ele>
        <time>2026-06-28T10:09:41.000Z</time>
      </trkpt>
      <trkpt lat="42.74579" lon="1.46779">
        <ele>869</ele>
        <time>2026-06-28T10:09:42.000Z</time>
      </trkpt>
      <trkpt lat="42.74582" lon="1.46781">
        <ele>868</ele>
        <time>2026-06-28T10:09:43.000Z</time>
      </trkpt>
      <trkpt lat="42.74586" lon="1.46784">
        <ele>868</ele>
        <time>2026-06-28T10:09:44.000Z</time>
      </trkpt>
      <trkpt lat="42.74589" lon="1.46786">
        <ele>868</ele>
        <time>2026-06-28T10:09:45.000Z</time>
      </trkpt>
      <trkpt lat="42.74593" lon="1.46789">
        <ele>869</ele>
        <time>2026-06-28T10:09:46.000Z</time>
      </trkpt>
      <trkpt lat="42.74596" lon="1.46791">
        <ele>869</ele>
        <time>2026-06-28T10:09:47.000Z</time>
      </trkpt>
      <trkpt lat="42.74599" lon="1.46793">
        <ele>869</ele>
        <time>2026-06-28T10:09:48.000Z</time>
      </trkpt>
      <trkpt lat="42.74602" lon="1.46795">
        <ele>869</ele>
        <time>2026-06-28T10:09:49.000Z</time>
      </trkpt>
      <trkpt lat="42.74605" lon="1.46798">
        <ele>869</ele>
        <time>2026-06-28T10:09:50.000Z</time>
      </trkpt>
      <trkpt lat="42.74608" lon="1.46801">
        <ele>869</ele>
        <time>2026-06-28T10:09:51.000Z</time>
      </trkpt>
      <trkpt lat="42.74612" lon="1.46803">
        <ele>869</ele>
        <time>2026-06-28T10:09:52.000Z</time>
      </trkpt>
      <trkpt lat="42.74615" lon="1.46805">
        <ele>868</ele>
        <time>2026-06-28T10:09:53.000Z</time>
      </trkpt>
      <trkpt lat="42.74619" lon="1.46807">
        <ele>868</ele>
        <time>2026-06-28T10:09:54.000Z</time>
      </trkpt>
      <trkpt lat="42.74623" lon="1.4681">
        <ele>868</ele>
        <time>2026-06-28T10:09:55.000Z</time>
      </trkpt>
      <trkpt lat="42.74626" lon="1.46813">
        <ele>868</ele>
        <time>2026-06-28T10:09:56.000Z</time>
      </trkpt>
      <trkpt lat="42.7463" lon="1.46817">
        <ele>867</ele>
        <time>2026-06-28T10:09:57.000Z</time>
      </trkpt>
      <trkpt lat="42.74634" lon="1.46821">
        <ele>867</ele>
        <time>2026-06-28T10:09:58.000Z</time>
      </trkpt>
      <trkpt lat="42.74638" lon="1.46825">
        <ele>867</ele>
        <time>2026-06-28T10:09:59.000Z</time>
      </trkpt>
      <trkpt lat="42.74642" lon="1.4683">
        <ele>867</ele>
        <time>2026-06-28T10:10:00.000Z</time>
      </trkpt>
      <trkpt lat="42.74645" lon="1.46833">
        <ele>866</ele>
        <time>2026-06-28T10:10:01.000Z</time>
      </trkpt>
      <trkpt lat="42.74648" lon="1.46837">
        <ele>866</ele>
        <time>2026-06-28T10:10:02.000Z</time>
      </trkpt>
      <trkpt lat="42.74652" lon="1.46841">
        <ele>865</ele>
        <time>2026-06-28T10:10:03.000Z</time>
      </trkpt>
      <trkpt lat="42.74655" lon="1.46845">
        <ele>865</ele>
        <time>2026-06-28T10:10:04.000Z</time>
      </trkpt>
      <trkpt lat="42.74658" lon="1.46848">
        <ele>865</ele>
        <time>2026-06-28T10:10:05.000Z</time>
      </trkpt>
      <trkpt lat="42.74662" lon="1.46853">
        <ele>865</ele>
        <time>2026-06-28T10:10:06.000Z</time>
      </trkpt>
      <trkpt lat="42.74665" lon="1.46858">
        <ele>864</ele>
        <time>2026-06-28T10:10:07.000Z</time>
      </trkpt>
      <trkpt lat="42.74668" lon="1.46862">
        <ele>864</ele>
        <time>2026-06-28T10:10:08.000Z</time>
      </trkpt>
      <trkpt lat="42.74672" lon="1.46865">
        <ele>864</ele>
        <time>2026-06-28T10:10:09.000Z</time>
      </trkpt>
      <trkpt lat="42.74674" lon="1.46867">
        <ele>864</ele>
        <time>2026-06-28T10:10:10.000Z</time>
      </trkpt>
      <trkpt lat="42.74677" lon="1.4687">
        <ele>864</ele>
        <time>2026-06-28T10:10:11.000Z</time>
      </trkpt>
      <trkpt lat="42.7468" lon="1.46873">
        <ele>864</ele>
        <time>2026-06-28T10:10:12.000Z</time>
      </trkpt>
      <trkpt lat="42.74684" lon="1.46876">
        <ele>865</ele>
        <time>2026-06-28T10:10:13.000Z</time>
      </trkpt>
      <trkpt lat="42.74688" lon="1.4688">
        <ele>865</ele>
        <time>2026-06-28T10:10:14.000Z</time>
      </trkpt>
      <trkpt lat="42.74693" lon="1.46884">
        <ele>864</ele>
        <time>2026-06-28T10:10:15.000Z</time>
      </trkpt>
      <trkpt lat="42.74697" lon="1.46889">
        <ele>864</ele>
        <time>2026-06-28T10:10:16.000Z</time>
      </trkpt>
      <trkpt lat="42.747" lon="1.46894">
        <ele>864</ele>
        <time>2026-06-28T10:10:17.000Z</time>
      </trkpt>
      <trkpt lat="42.74703" lon="1.469">
        <ele>864</ele>
        <time>2026-06-28T10:10:18.000Z</time>
      </trkpt>
      <trkpt lat="42.74706" lon="1.46905">
        <ele>864</ele>
        <time>2026-06-28T10:10:19.000Z</time>
      </trkpt>
      <trkpt lat="42.74708" lon="1.4691">
        <ele>864</ele>
        <time>2026-06-28T10:10:20.000Z</time>
      </trkpt>
      <trkpt lat="42.7471" lon="1.46914">
        <ele>863</ele>
        <time>2026-06-28T10:10:21.000Z</time>
      </trkpt>
      <trkpt lat="42.74712" lon="1.46917">
        <ele>863</ele>
        <time>2026-06-28T10:10:22.000Z</time>
      </trkpt>
      <trkpt lat="42.74715" lon="1.4692">
        <ele>863</ele>
        <time>2026-06-28T10:10:23.000Z</time>
      </trkpt>
      <trkpt lat="42.74717" lon="1.46922">
        <ele>863</ele>
        <time>2026-06-28T10:10:24.000Z</time>
      </trkpt>
      <trkpt lat="42.74721" lon="1.46924">
        <ele>863</ele>
        <time>2026-06-28T10:10:25.000Z</time>
      </trkpt>
      <trkpt lat="42.74723" lon="1.46926">
        <ele>863</ele>
        <time>2026-06-28T10:10:26.000Z</time>
      </trkpt>
      <trkpt lat="42.74727" lon="1.46927">
        <ele>863</ele>
        <time>2026-06-28T10:10:27.000Z</time>
      </trkpt>
      <trkpt lat="42.74731" lon="1.46929">
        <ele>863</ele>
        <time>2026-06-28T10:10:28.000Z</time>
      </trkpt>
      <trkpt lat="42.74735" lon="1.46931">
        <ele>863</ele>
        <time>2026-06-28T10:10:29.000Z</time>
      </trkpt>
      <trkpt lat="42.74739" lon="1.46933">
        <ele>863</ele>
        <time>2026-06-28T10:10:30.000Z</time>
      </trkpt>
      <trkpt lat="42.74742" lon="1.46936">
        <ele>863</ele>
        <time>2026-06-28T10:10:31.000Z</time>
      </trkpt>
      <trkpt lat="42.74745" lon="1.46938">
        <ele>863</ele>
        <time>2026-06-28T10:10:32.000Z</time>
      </trkpt>
      <trkpt lat="42.7475" lon="1.46939">
        <ele>863</ele>
        <time>2026-06-28T10:10:33.000Z</time>
      </trkpt>
      <trkpt lat="42.74754" lon="1.46941">
        <ele>863</ele>
        <time>2026-06-28T10:10:34.000Z</time>
      </trkpt>
      <trkpt lat="42.74759" lon="1.46941">
        <ele>863</ele>
        <time>2026-06-28T10:10:35.000Z</time>
      </trkpt>
      <trkpt lat="42.74763" lon="1.46942">
        <ele>863</ele>
        <time>2026-06-28T10:10:36.000Z</time>
      </trkpt>
      <trkpt lat="42.74768" lon="1.46943">
        <ele>863</ele>
        <time>2026-06-28T10:10:37.000Z</time>
      </trkpt>
      <trkpt lat="42.74772" lon="1.46945">
        <ele>863</ele>
        <time>2026-06-28T10:10:38.000Z</time>
      </trkpt>
      <trkpt lat="42.74778" lon="1.46947">
        <ele>862</ele>
        <time>2026-06-28T10:10:39.000Z</time>
      </trkpt>
      <trkpt lat="42.74783" lon="1.46948">
        <ele>862</ele>
        <time>2026-06-28T10:10:40.000Z</time>
      </trkpt>
      <trkpt lat="42.74788" lon="1.46949">
        <ele>863</ele>
        <time>2026-06-28T10:10:41.000Z</time>
      </trkpt>
      <trkpt lat="42.74792" lon="1.46952">
        <ele>863</ele>
        <time>2026-06-28T10:10:42.000Z</time>
      </trkpt>
      <trkpt lat="42.74796" lon="1.46956">
        <ele>863</ele>
        <time>2026-06-28T10:10:43.000Z</time>
      </trkpt>
      <trkpt lat="42.74799" lon="1.46961">
        <ele>863</ele>
        <time>2026-06-28T10:10:44.000Z</time>
      </trkpt>
      <trkpt lat="42.74802" lon="1.46965">
        <ele>863</ele>
        <time>2026-06-28T10:10:45.000Z</time>
      </trkpt>
      <trkpt lat="42.74805" lon="1.46971">
        <ele>863</ele>
        <time>2026-06-28T10:10:46.000Z</time>
      </trkpt>
      <trkpt lat="42.74807" lon="1.46977">
        <ele>863</ele>
        <time>2026-06-28T10:10:47.000Z</time>
      </trkpt>
      <trkpt lat="42.7481" lon="1.46983">
        <ele>864</ele>
        <time>2026-06-28T10:10:48.000Z</time>
      </trkpt>
      <trkpt lat="42.74813" lon="1.46989">
        <ele>864</ele>
        <time>2026-06-28T10:10:49.000Z</time>
      </trkpt>
      <trkpt lat="42.74816" lon="1.46993">
        <ele>864</ele>
        <time>2026-06-28T10:10:50.000Z</time>
      </trkpt>
      <trkpt lat="42.74818" lon="1.46999">
        <ele>864</ele>
        <time>2026-06-28T10:10:51.000Z</time>
      </trkpt>
      <trkpt lat="42.74819" lon="1.47004">
        <ele>864</ele>
        <time>2026-06-28T10:10:52.000Z</time>
      </trkpt>
      <trkpt lat="42.7482" lon="1.47008">
        <ele>864</ele>
        <time>2026-06-28T10:10:53.000Z</time>
      </trkpt>
      <trkpt lat="42.74821" lon="1.47013">
        <ele>863</ele>
        <time>2026-06-28T10:10:54.000Z</time>
      </trkpt>
      <trkpt lat="42.74822" lon="1.47018">
        <ele>863</ele>
        <time>2026-06-28T10:10:55.000Z</time>
      </trkpt>
      <trkpt lat="42.74822" lon="1.47023">
        <ele>863</ele>
        <time>2026-06-28T10:10:56.000Z</time>
      </trkpt>
      <trkpt lat="42.74823" lon="1.47028">
        <ele>863</ele>
        <time>2026-06-28T10:10:57.000Z</time>
      </trkpt>
      <trkpt lat="42.74824" lon="1.47033">
        <ele>863</ele>
        <time>2026-06-28T10:10:58.000Z</time>
      </trkpt>
      <trkpt lat="42.74825" lon="1.47038">
        <ele>863</ele>
        <time>2026-06-28T10:10:59.000Z</time>
      </trkpt>
      <trkpt lat="42.74824" lon="1.47042">
        <ele>863</ele>
        <time>2026-06-28T10:11:00.000Z</time>
      </trkpt>
      <trkpt lat="42.74825" lon="1.47048">
        <ele>863</ele>
        <time>2026-06-28T10:11:01.000Z</time>
      </trkpt>
      <trkpt lat="42.74825" lon="1.47052">
        <ele>863</ele>
        <time>2026-06-28T10:11:02.000Z</time>
      </trkpt>
      <trkpt lat="42.74827" lon="1.47057">
        <ele>864</ele>
        <time>2026-06-28T10:11:03.000Z</time>
      </trkpt>
      <trkpt lat="42.74829" lon="1.47061">
        <ele>864</ele>
        <time>2026-06-28T10:11:04.000Z</time>
      </trkpt>
      <trkpt lat="42.7483" lon="1.47065">
        <ele>864</ele>
        <time>2026-06-28T10:11:05.000Z</time>
      </trkpt>
      <trkpt lat="42.74831" lon="1.47069">
        <ele>864</ele>
        <time>2026-06-28T10:11:06.000Z</time>
      </trkpt>
      <trkpt lat="42.74833" lon="1.47072">
        <ele>865</ele>
        <time>2026-06-28T10:11:07.000Z</time>
      </trkpt>
      <trkpt lat="42.74834" lon="1.47076">
        <ele>865</ele>
        <time>2026-06-28T10:11:08.000Z</time>
      </trkpt>
      <trkpt lat="42.74835" lon="1.47079">
        <ele>865</ele>
        <time>2026-06-28T10:11:09.000Z</time>
      </trkpt>
      <trkpt lat="42.74836" lon="1.47082">
        <ele>865</ele>
        <time>2026-06-28T10:11:10.000Z</time>
      </trkpt>
      <trkpt lat="42.74837" lon="1.47086">
        <ele>865</ele>
        <time>2026-06-28T10:11:11.000Z</time>
      </trkpt>
      <trkpt lat="42.7484" lon="1.47091">
        <ele>865</ele>
        <time>2026-06-28T10:11:12.000Z</time>
      </trkpt>
      <trkpt lat="42.74841" lon="1.47094">
        <ele>865</ele>
        <time>2026-06-28T10:11:13.000Z</time>
      </trkpt>
      <trkpt lat="42.74843" lon="1.47098">
        <ele>865</ele>
        <time>2026-06-28T10:11:14.000Z</time>
      </trkpt>
      <trkpt lat="42.74845" lon="1.47102">
        <ele>865</ele>
        <time>2026-06-28T10:11:15.000Z</time>
      </trkpt>
      <trkpt lat="42.74847" lon="1.47105">
        <ele>865</ele>
        <time>2026-06-28T10:11:16.000Z</time>
      </trkpt>
      <trkpt lat="42.74848" lon="1.47108">
        <ele>865</ele>
        <time>2026-06-28T10:11:17.000Z</time>
      </trkpt>
      <trkpt lat="42.74851" lon="1.47112">
        <ele>865</ele>
        <time>2026-06-28T10:11:18.000Z</time>
      </trkpt>
      <trkpt lat="42.74855" lon="1.47117">
        <ele>864</ele>
        <time>2026-06-28T10:11:19.000Z</time>
      </trkpt>
      <trkpt lat="42.74858" lon="1.47121">
        <ele>864</ele>
        <time>2026-06-28T10:11:20.000Z</time>
      </trkpt>
      <trkpt lat="42.74861" lon="1.47126">
        <ele>864</ele>
        <time>2026-06-28T10:11:21.000Z</time>
      </trkpt>
      <trkpt lat="42.74864" lon="1.47131">
        <ele>863</ele>
        <time>2026-06-28T10:11:22.000Z</time>
      </trkpt>
      <trkpt lat="42.74869" lon="1.47137">
        <ele>863</ele>
        <time>2026-06-28T10:11:23.000Z</time>
      </trkpt>
      <trkpt lat="42.74873" lon="1.47144">
        <ele>862</ele>
        <time>2026-06-28T10:11:24.000Z</time>
      </trkpt>
      <trkpt lat="42.74877" lon="1.47152">
        <ele>862</ele>
        <time>2026-06-28T10:11:25.000Z</time>
      </trkpt>
      <trkpt lat="42.74881" lon="1.4716">
        <ele>861</ele>
        <time>2026-06-28T10:11:26.000Z</time>
      </trkpt>
      <trkpt lat="42.74886" lon="1.47169">
        <ele>861</ele>
        <time>2026-06-28T10:11:27.000Z</time>
      </trkpt>
      <trkpt lat="42.74891" lon="1.47176">
        <ele>861</ele>
        <time>2026-06-28T10:11:28.000Z</time>
      </trkpt>
      <trkpt lat="42.74896" lon="1.47183">
        <ele>861</ele>
        <time>2026-06-28T10:11:29.000Z</time>
      </trkpt>
      <trkpt lat="42.749" lon="1.4719">
        <ele>861</ele>
        <time>2026-06-28T10:11:30.000Z</time>
      </trkpt>
      <trkpt lat="42.74904" lon="1.47198">
        <ele>860</ele>
        <time>2026-06-28T10:11:31.000Z</time>
      </trkpt>
      <trkpt lat="42.74909" lon="1.47206">
        <ele>860</ele>
        <time>2026-06-28T10:11:32.000Z</time>
      </trkpt>
      <trkpt lat="42.74913" lon="1.47214">
        <ele>860</ele>
        <time>2026-06-28T10:11:33.000Z</time>
      </trkpt>
      <trkpt lat="42.74919" lon="1.47221">
        <ele>859</ele>
        <time>2026-06-28T10:11:34.000Z</time>
      </trkpt>
      <trkpt lat="42.74923" lon="1.47227">
        <ele>859</ele>
        <time>2026-06-28T10:11:35.000Z</time>
      </trkpt>
      <trkpt lat="42.74929" lon="1.47234">
        <ele>858</ele>
        <time>2026-06-28T10:11:36.000Z</time>
      </trkpt>
      <trkpt lat="42.74934" lon="1.47241">
        <ele>857</ele>
        <time>2026-06-28T10:11:37.000Z</time>
      </trkpt>
      <trkpt lat="42.74938" lon="1.47248">
        <ele>857</ele>
        <time>2026-06-28T10:11:38.000Z</time>
      </trkpt>
      <trkpt lat="42.74942" lon="1.47254">
        <ele>856</ele>
        <time>2026-06-28T10:11:39.000Z</time>
      </trkpt>
      <trkpt lat="42.74945" lon="1.47259">
        <ele>856</ele>
        <time>2026-06-28T10:11:40.000Z</time>
      </trkpt>
      <trkpt lat="42.7495" lon="1.47265">
        <ele>855</ele>
        <time>2026-06-28T10:11:41.000Z</time>
      </trkpt>
      <trkpt lat="42.74955" lon="1.47269">
        <ele>854</ele>
        <time>2026-06-28T10:11:42.000Z</time>
      </trkpt>
      <trkpt lat="42.7496" lon="1.47274">
        <ele>854</ele>
        <time>2026-06-28T10:11:43.000Z</time>
      </trkpt>
      <trkpt lat="42.74965" lon="1.47278">
        <ele>853</ele>
        <time>2026-06-28T10:11:44.000Z</time>
      </trkpt>
      <trkpt lat="42.7497" lon="1.47281">
        <ele>853</ele>
        <time>2026-06-28T10:11:45.000Z</time>
      </trkpt>
      <trkpt lat="42.74975" lon="1.47285">
        <ele>852</ele>
        <time>2026-06-28T10:11:46.000Z</time>
      </trkpt>
      <trkpt lat="42.7498" lon="1.47288">
        <ele>852</ele>
        <time>2026-06-28T10:11:47.000Z</time>
      </trkpt>
      <trkpt lat="42.74985" lon="1.47293">
        <ele>853</ele>
        <time>2026-06-28T10:11:48.000Z</time>
      </trkpt>
      <trkpt lat="42.74991" lon="1.47298">
        <ele>853</ele>
        <time>2026-06-28T10:11:49.000Z</time>
      </trkpt>
      <trkpt lat="42.74997" lon="1.47303">
        <ele>853</ele>
        <time>2026-06-28T10:11:50.000Z</time>
      </trkpt>
      <trkpt lat="42.75003" lon="1.47307">
        <ele>853</ele>
        <time>2026-06-28T10:11:51.000Z</time>
      </trkpt>
      <trkpt lat="42.75009" lon="1.47311">
        <ele>853</ele>
        <time>2026-06-28T10:11:52.000Z</time>
      </trkpt>
      <trkpt lat="42.75016" lon="1.47313">
        <ele>852</ele>
        <time>2026-06-28T10:11:53.000Z</time>
      </trkpt>
      <trkpt lat="42.75021" lon="1.47315">
        <ele>852</ele>
        <time>2026-06-28T10:11:54.000Z</time>
      </trkpt>
      <trkpt lat="42.75027" lon="1.47317">
        <ele>851</ele>
        <time>2026-06-28T10:11:55.000Z</time>
      </trkpt>
      <trkpt lat="42.75034" lon="1.47319">
        <ele>850</ele>
        <time>2026-06-28T10:11:56.000Z</time>
      </trkpt>
      <trkpt lat="42.75039" lon="1.4732">
        <ele>850</ele>
        <time>2026-06-28T10:11:57.000Z</time>
      </trkpt>
      <trkpt lat="42.75042" lon="1.47319">
        <ele>849</ele>
        <time>2026-06-28T10:11:58.000Z</time>
      </trkpt>
      <trkpt lat="42.75045" lon="1.47319">
        <ele>849</ele>
        <time>2026-06-28T10:11:59.000Z</time>
      </trkpt>
      <trkpt lat="42.75049" lon="1.47318">
        <ele>848</ele>
        <time>2026-06-28T10:12:00.000Z</time>
      </trkpt>
      <trkpt lat="42.75051" lon="1.47317">
        <ele>848</ele>
        <time>2026-06-28T10:12:01.000Z</time>
      </trkpt>
      <trkpt lat="42.75055" lon="1.47317">
        <ele>849</ele>
        <time>2026-06-28T10:12:02.000Z</time>
      </trkpt>
      <trkpt lat="42.75059" lon="1.47316">
        <ele>848</ele>
        <time>2026-06-28T10:12:03.000Z</time>
      </trkpt>
      <trkpt lat="42.75063" lon="1.47315">
        <ele>848</ele>
        <time>2026-06-28T10:12:04.000Z</time>
      </trkpt>
      <trkpt lat="42.75068" lon="1.47314">
        <ele>847</ele>
        <time>2026-06-28T10:12:05.000Z</time>
      </trkpt>
      <trkpt lat="42.75073" lon="1.47314">
        <ele>846</ele>
        <time>2026-06-28T10:12:06.000Z</time>
      </trkpt>
      <trkpt lat="42.75079" lon="1.47315">
        <ele>846</ele>
        <time>2026-06-28T10:12:07.000Z</time>
      </trkpt>
      <trkpt lat="42.75085" lon="1.47318">
        <ele>846</ele>
        <time>2026-06-28T10:12:08.000Z</time>
      </trkpt>
      <trkpt lat="42.75091" lon="1.4732">
        <ele>845</ele>
        <time>2026-06-28T10:12:09.000Z</time>
      </trkpt>
      <trkpt lat="42.75097" lon="1.47322">
        <ele>845</ele>
        <time>2026-06-28T10:12:10.000Z</time>
      </trkpt>
      <trkpt lat="42.75104" lon="1.47323">
        <ele>845</ele>
        <time>2026-06-28T10:12:11.000Z</time>
      </trkpt>
      <trkpt lat="42.7511" lon="1.47326">
        <ele>845</ele>
        <time>2026-06-28T10:12:12.000Z</time>
      </trkpt>
      <trkpt lat="42.75116" lon="1.47329">
        <ele>845</ele>
        <time>2026-06-28T10:12:13.000Z</time>
      </trkpt>
      <trkpt lat="42.75122" lon="1.47332">
        <ele>844</ele>
        <time>2026-06-28T10:12:14.000Z</time>
      </trkpt>
      <trkpt lat="42.75127" lon="1.47336">
        <ele>844</ele>
        <time>2026-06-28T10:12:15.000Z</time>
      </trkpt>
      <trkpt lat="42.75132" lon="1.47341">
        <ele>843</ele>
        <time>2026-06-28T10:12:16.000Z</time>
      </trkpt>
      <trkpt lat="42.75138" lon="1.47345">
        <ele>843</ele>
        <time>2026-06-28T10:12:17.000Z</time>
      </trkpt>
      <trkpt lat="42.75144" lon="1.47349">
        <ele>843</ele>
        <time>2026-06-28T10:12:18.000Z</time>
      </trkpt>
      <trkpt lat="42.7515" lon="1.47352">
        <ele>842</ele>
        <time>2026-06-28T10:12:19.000Z</time>
      </trkpt>
      <trkpt lat="42.75155" lon="1.47355">
        <ele>842</ele>
        <time>2026-06-28T10:12:20.000Z</time>
      </trkpt>
      <trkpt lat="42.75161" lon="1.47359">
        <ele>842</ele>
        <time>2026-06-28T10:12:21.000Z</time>
      </trkpt>
      <trkpt lat="42.75167" lon="1.47362">
        <ele>841</ele>
        <time>2026-06-28T10:12:22.000Z</time>
      </trkpt>
      <trkpt lat="42.75173" lon="1.47364">
        <ele>840</ele>
        <time>2026-06-28T10:12:23.000Z</time>
      </trkpt>
      <trkpt lat="42.75178" lon="1.47364">
        <ele>840</ele>
        <time>2026-06-28T10:12:24.000Z</time>
      </trkpt>
      <trkpt lat="42.75183" lon="1.47365">
        <ele>839</ele>
        <time>2026-06-28T10:12:25.000Z</time>
      </trkpt>
      <trkpt lat="42.75188" lon="1.47368">
        <ele>838</ele>
        <time>2026-06-28T10:12:26.000Z</time>
      </trkpt>
      <trkpt lat="42.75192" lon="1.4737">
        <ele>838</ele>
        <time>2026-06-28T10:12:27.000Z</time>
      </trkpt>
      <trkpt lat="42.75197" lon="1.47372">
        <ele>839</ele>
        <time>2026-06-28T10:12:28.000Z</time>
      </trkpt>
      <trkpt lat="42.75201" lon="1.47372">
        <ele>838</ele>
        <time>2026-06-28T10:12:29.000Z</time>
      </trkpt>
      <trkpt lat="42.75206" lon="1.47374">
        <ele>838</ele>
        <time>2026-06-28T10:12:30.000Z</time>
      </trkpt>
      <trkpt lat="42.7521" lon="1.47375">
        <ele>838</ele>
        <time>2026-06-28T10:12:31.000Z</time>
      </trkpt>
      <trkpt lat="42.75214" lon="1.47376">
        <ele>838</ele>
        <time>2026-06-28T10:12:32.000Z</time>
      </trkpt>
      <trkpt lat="42.75217" lon="1.47376">
        <ele>837</ele>
        <time>2026-06-28T10:12:33.000Z</time>
      </trkpt>
      <trkpt lat="42.75222" lon="1.47377">
        <ele>837</ele>
        <time>2026-06-28T10:12:34.000Z</time>
      </trkpt>
      <trkpt lat="42.75226" lon="1.47378">
        <ele>836</ele>
        <time>2026-06-28T10:12:35.000Z</time>
      </trkpt>
      <trkpt lat="42.7523" lon="1.47381">
        <ele>836</ele>
        <time>2026-06-28T10:12:36.000Z</time>
      </trkpt>
      <trkpt lat="42.75233" lon="1.47383">
        <ele>836</ele>
        <time>2026-06-28T10:12:37.000Z</time>
      </trkpt>
      <trkpt lat="42.75236" lon="1.47387">
        <ele>835</ele>
        <time>2026-06-28T10:12:38.000Z</time>
      </trkpt>
      <trkpt lat="42.75239" lon="1.47391">
        <ele>835</ele>
        <time>2026-06-28T10:12:39.000Z</time>
      </trkpt>
      <trkpt lat="42.75241" lon="1.47394">
        <ele>835</ele>
        <time>2026-06-28T10:12:40.000Z</time>
      </trkpt>
      <trkpt lat="42.75243" lon="1.47398">
        <ele>835</ele>
        <time>2026-06-28T10:12:41.000Z</time>
      </trkpt>
      <trkpt lat="42.75244" lon="1.47401">
        <ele>835</ele>
        <time>2026-06-28T10:12:42.000Z</time>
      </trkpt>
      <trkpt lat="42.75244" lon="1.47406">
        <ele>836</ele>
        <time>2026-06-28T10:12:43.000Z</time>
      </trkpt>
      <trkpt lat="42.75245" lon="1.47409">
        <ele>836</ele>
        <time>2026-06-28T10:12:44.000Z</time>
      </trkpt>
      <trkpt lat="42.75246" lon="1.47412">
        <ele>836</ele>
        <time>2026-06-28T10:12:45.000Z</time>
      </trkpt>
      <trkpt lat="42.75251" lon="1.47414">
        <ele>837</ele>
        <time>2026-06-28T10:12:46.000Z</time>
      </trkpt>
      <trkpt lat="42.75257" lon="1.47415">
        <ele>837</ele>
        <time>2026-06-28T10:12:47.000Z</time>
      </trkpt>
      <trkpt lat="42.75264" lon="1.47415">
        <ele>837</ele>
        <time>2026-06-28T10:12:48.000Z</time>
      </trkpt>
      <trkpt lat="42.7527" lon="1.47415">
        <ele>836</ele>
        <time>2026-06-28T10:12:49.000Z</time>
      </trkpt>
      <trkpt lat="42.75272" lon="1.47414">
        <ele>836</ele>
        <time>2026-06-28T10:12:50.000Z</time>
      </trkpt>
      <trkpt lat="42.75275" lon="1.47413">
        <ele>837</ele>
        <time>2026-06-28T10:12:51.000Z</time>
      </trkpt>
      <trkpt lat="42.75278" lon="1.47413">
        <ele>836</ele>
        <time>2026-06-28T10:12:52.000Z</time>
      </trkpt>
      <trkpt lat="42.75281" lon="1.47413">
        <ele>837</ele>
        <time>2026-06-28T10:12:53.000Z</time>
      </trkpt>
      <trkpt lat="42.75284" lon="1.47413">
        <ele>836</ele>
        <time>2026-06-28T10:12:54.000Z</time>
      </trkpt>
      <trkpt lat="42.75287" lon="1.47412">
        <ele>836</ele>
        <time>2026-06-28T10:12:55.000Z</time>
      </trkpt>
      <trkpt lat="42.75291" lon="1.47412">
        <ele>836</ele>
        <time>2026-06-28T10:12:56.000Z</time>
      </trkpt>
      <trkpt lat="42.75294" lon="1.47412">
        <ele>836</ele>
        <time>2026-06-28T10:12:57.000Z</time>
      </trkpt>
      <trkpt lat="42.75298" lon="1.47413">
        <ele>836</ele>
        <time>2026-06-28T10:12:58.000Z</time>
      </trkpt>
      <trkpt lat="42.75302" lon="1.47413">
        <ele>837</ele>
        <time>2026-06-28T10:12:59.000Z</time>
      </trkpt>
      <trkpt lat="42.75306" lon="1.47413">
        <ele>837</ele>
        <time>2026-06-28T10:13:00.000Z</time>
      </trkpt>
      <trkpt lat="42.75312" lon="1.47414">
        <ele>838</ele>
        <time>2026-06-28T10:13:01.000Z</time>
      </trkpt>
      <trkpt lat="42.75318" lon="1.47413">
        <ele>838</ele>
        <time>2026-06-28T10:13:02.000Z</time>
      </trkpt>
      <trkpt lat="42.75323" lon="1.47412">
        <ele>838</ele>
        <time>2026-06-28T10:13:03.000Z</time>
      </trkpt>
      <trkpt lat="42.75327" lon="1.47409">
        <ele>839</ele>
        <time>2026-06-28T10:13:04.000Z</time>
      </trkpt>
      <trkpt lat="42.7533" lon="1.47406">
        <ele>839</ele>
        <time>2026-06-28T10:13:05.000Z</time>
      </trkpt>
      <trkpt lat="42.75333" lon="1.47404">
        <ele>839</ele>
        <time>2026-06-28T10:13:06.000Z</time>
      </trkpt>
      <trkpt lat="42.75336" lon="1.47402">
        <ele>839</ele>
        <time>2026-06-28T10:13:07.000Z</time>
      </trkpt>
      <trkpt lat="42.75338" lon="1.474">
        <ele>839</ele>
        <time>2026-06-28T10:13:08.000Z</time>
      </trkpt>
      <trkpt lat="42.7534" lon="1.47399">
        <ele>839</ele>
        <time>2026-06-28T10:13:09.000Z</time>
      </trkpt>
      <trkpt lat="42.75342" lon="1.47399">
        <ele>839</ele>
        <time>2026-06-28T10:13:10.000Z</time>
      </trkpt>
      <trkpt lat="42.75345" lon="1.47399">
        <ele>839</ele>
        <time>2026-06-28T10:13:11.000Z</time>
      </trkpt>
      <trkpt lat="42.75348" lon="1.474">
        <ele>840</ele>
        <time>2026-06-28T10:13:12.000Z</time>
      </trkpt>
      <trkpt lat="42.75352" lon="1.474">
        <ele>839</ele>
        <time>2026-06-28T10:13:13.000Z</time>
      </trkpt>
      <trkpt lat="42.75356" lon="1.474">
        <ele>839</ele>
        <time>2026-06-28T10:13:14.000Z</time>
      </trkpt>
      <trkpt lat="42.7536" lon="1.474">
        <ele>839</ele>
        <time>2026-06-28T10:13:15.000Z</time>
      </trkpt>
      <trkpt lat="42.75365" lon="1.474">
        <ele>840</ele>
        <time>2026-06-28T10:13:16.000Z</time>
      </trkpt>
      <trkpt lat="42.75369" lon="1.47401">
        <ele>840</ele>
        <time>2026-06-28T10:13:17.000Z</time>
      </trkpt>
      <trkpt lat="42.75373" lon="1.47402">
        <ele>839</ele>
        <time>2026-06-28T10:13:18.000Z</time>
      </trkpt>
      <trkpt lat="42.75379" lon="1.47403">
        <ele>839</ele>
        <time>2026-06-28T10:13:19.000Z</time>
      </trkpt>
      <trkpt lat="42.75384" lon="1.47402">
        <ele>839</ele>
        <time>2026-06-28T10:13:20.000Z</time>
      </trkpt>
      <trkpt lat="42.75391" lon="1.47403">
        <ele>839</ele>
        <time>2026-06-28T10:13:21.000Z</time>
      </trkpt>
      <trkpt lat="42.75396" lon="1.47404">
        <ele>839</ele>
        <time>2026-06-28T10:13:22.000Z</time>
      </trkpt>
      <trkpt lat="42.75402" lon="1.47405">
        <ele>840</ele>
        <time>2026-06-28T10:13:23.000Z</time>
      </trkpt>
      <trkpt lat="42.75407" lon="1.47406">
        <ele>840</ele>
        <time>2026-06-28T10:13:24.000Z</time>
      </trkpt>
      <trkpt lat="42.75412" lon="1.47407">
        <ele>839</ele>
        <time>2026-06-28T10:13:25.000Z</time>
      </trkpt>
      <trkpt lat="42.75416" lon="1.47407">
        <ele>840</ele>
        <time>2026-06-28T10:13:26.000Z</time>
      </trkpt>
      <trkpt lat="42.7542" lon="1.47405">
        <ele>839</ele>
        <time>2026-06-28T10:13:27.000Z</time>
      </trkpt>
      <trkpt lat="42.75424" lon="1.47406">
        <ele>839</ele>
        <time>2026-06-28T10:13:28.000Z</time>
      </trkpt>
      <trkpt lat="42.75429" lon="1.47408">
        <ele>839</ele>
        <time>2026-06-28T10:13:29.000Z</time>
      </trkpt>
      <trkpt lat="42.75431" lon="1.47411">
        <ele>839</ele>
        <time>2026-06-28T10:13:30.000Z</time>
      </trkpt>
      <trkpt lat="42.75434" lon="1.47414">
        <ele>838</ele>
        <time>2026-06-28T10:13:31.000Z</time>
      </trkpt>
      <trkpt lat="42.75438" lon="1.47418">
        <ele>838</ele>
        <time>2026-06-28T10:13:32.000Z</time>
      </trkpt>
      <trkpt lat="42.75441" lon="1.47421">
        <ele>838</ele>
        <time>2026-06-28T10:13:33.000Z</time>
      </trkpt>
      <trkpt lat="42.75445" lon="1.47424">
        <ele>838</ele>
        <time>2026-06-28T10:13:34.000Z</time>
      </trkpt>
      <trkpt lat="42.75448" lon="1.47428">
        <ele>838</ele>
        <time>2026-06-28T10:13:35.000Z</time>
      </trkpt>
      <trkpt lat="42.75451" lon="1.47431">
        <ele>838</ele>
        <time>2026-06-28T10:13:36.000Z</time>
      </trkpt>
      <trkpt lat="42.75455" lon="1.47434">
        <ele>838</ele>
        <time>2026-06-28T10:13:37.000Z</time>
      </trkpt>
      <trkpt lat="42.75459" lon="1.47436">
        <ele>838</ele>
        <time>2026-06-28T10:13:38.000Z</time>
      </trkpt>
      <trkpt lat="42.75464" lon="1.47437">
        <ele>838</ele>
        <time>2026-06-28T10:13:39.000Z</time>
      </trkpt>
      <trkpt lat="42.75469" lon="1.47439">
        <ele>838</ele>
        <time>2026-06-28T10:13:40.000Z</time>
      </trkpt>
      <trkpt lat="42.75476" lon="1.47439">
        <ele>838</ele>
        <time>2026-06-28T10:13:41.000Z</time>
      </trkpt>
      <trkpt lat="42.75481" lon="1.47439">
        <ele>838</ele>
        <time>2026-06-28T10:13:42.000Z</time>
      </trkpt>
      <trkpt lat="42.75488" lon="1.47439">
        <ele>838</ele>
        <time>2026-06-28T10:13:43.000Z</time>
      </trkpt>
      <trkpt lat="42.75492" lon="1.47441">
        <ele>838</ele>
        <time>2026-06-28T10:13:44.000Z</time>
      </trkpt>
      <trkpt lat="42.75494" lon="1.47444">
        <ele>838</ele>
        <time>2026-06-28T10:13:45.000Z</time>
      </trkpt>
      <trkpt lat="42.75496" lon="1.47446">
        <ele>838</ele>
        <time>2026-06-28T10:13:46.000Z</time>
      </trkpt>
      <trkpt lat="42.75499" lon="1.47448">
        <ele>838</ele>
        <time>2026-06-28T10:13:47.000Z</time>
      </trkpt>
      <trkpt lat="42.75501" lon="1.47451">
        <ele>839</ele>
        <time>2026-06-28T10:13:48.000Z</time>
      </trkpt>
      <trkpt lat="42.75504" lon="1.47454">
        <ele>839</ele>
        <time>2026-06-28T10:13:49.000Z</time>
      </trkpt>
      <trkpt lat="42.75506" lon="1.47458">
        <ele>839</ele>
        <time>2026-06-28T10:13:50.000Z</time>
      </trkpt>
      <trkpt lat="42.75507" lon="1.4746">
        <ele>839</ele>
        <time>2026-06-28T10:13:51.000Z</time>
      </trkpt>
      <trkpt lat="42.75508" lon="1.47462">
        <ele>839</ele>
        <time>2026-06-28T10:13:52.000Z</time>
      </trkpt>
      <trkpt lat="42.75508" lon="1.47465">
        <ele>839</ele>
        <time>2026-06-28T10:13:53.000Z</time>
      </trkpt>
      <trkpt lat="42.75508" lon="1.47469">
        <ele>840</ele>
        <time>2026-06-28T10:13:54.000Z</time>
      </trkpt>
      <trkpt lat="42.75509" lon="1.47472">
        <ele>840</ele>
        <time>2026-06-28T10:13:55.000Z</time>
      </trkpt>
      <trkpt lat="42.75509" lon="1.47477">
        <ele>840</ele>
        <time>2026-06-28T10:13:56.000Z</time>
      </trkpt>
      <trkpt lat="42.7551" lon="1.47481">
        <ele>840</ele>
        <time>2026-06-28T10:13:57.000Z</time>
      </trkpt>
      <trkpt lat="42.7551" lon="1.47485">
        <ele>840</ele>
        <time>2026-06-28T10:13:58.000Z</time>
      </trkpt>
      <trkpt lat="42.7551" lon="1.47491">
        <ele>840</ele>
        <time>2026-06-28T10:13:59.000Z</time>
      </trkpt>
      <trkpt lat="42.75509" lon="1.47496">
        <ele>840</ele>
        <time>2026-06-28T10:14:00.000Z</time>
      </trkpt>
      <trkpt lat="42.75511" lon="1.47505">
        <ele>840</ele>
        <time>2026-06-28T10:14:01.000Z</time>
      </trkpt>
      <trkpt lat="42.75515" lon="1.47511">
        <ele>840</ele>
        <time>2026-06-28T10:14:02.000Z</time>
      </trkpt>
      <trkpt lat="42.75518" lon="1.47516">
        <ele>840</ele>
        <time>2026-06-28T10:14:03.000Z</time>
      </trkpt>
      <trkpt lat="42.75521" lon="1.47518">
        <ele>840</ele>
        <time>2026-06-28T10:14:04.000Z</time>
      </trkpt>
      <trkpt lat="42.75523" lon="1.4752">
        <ele>841</ele>
        <time>2026-06-28T10:14:05.000Z</time>
      </trkpt>
      <trkpt lat="42.75526" lon="1.47524">
        <ele>840</ele>
        <time>2026-06-28T10:14:06.000Z</time>
      </trkpt>
      <trkpt lat="42.75527" lon="1.47526">
        <ele>841</ele>
        <time>2026-06-28T10:14:07.000Z</time>
      </trkpt>
      <trkpt lat="42.7553" lon="1.47529">
        <ele>841</ele>
        <time>2026-06-28T10:14:08.000Z</time>
      </trkpt>
      <trkpt lat="42.75534" lon="1.47532">
        <ele>840</ele>
        <time>2026-06-28T10:14:09.000Z</time>
      </trkpt>
      <trkpt lat="42.75538" lon="1.47536">
        <ele>840</ele>
        <time>2026-06-28T10:14:10.000Z</time>
      </trkpt>
      <trkpt lat="42.75542" lon="1.4754">
        <ele>840</ele>
        <time>2026-06-28T10:14:11.000Z</time>
      </trkpt>
      <trkpt lat="42.75546" lon="1.47543">
        <ele>839</ele>
        <time>2026-06-28T10:14:12.000Z</time>
      </trkpt>
      <trkpt lat="42.75551" lon="1.47544">
        <ele>839</ele>
        <time>2026-06-28T10:14:13.000Z</time>
      </trkpt>
      <trkpt lat="42.75556" lon="1.47545">
        <ele>839</ele>
        <time>2026-06-28T10:14:14.000Z</time>
      </trkpt>
      <trkpt lat="42.7556" lon="1.47546">
        <ele>839</ele>
        <time>2026-06-28T10:14:15.000Z</time>
      </trkpt>
      <trkpt lat="42.75563" lon="1.47547">
        <ele>839</ele>
        <time>2026-06-28T10:14:16.000Z</time>
      </trkpt>
      <trkpt lat="42.75566" lon="1.47547">
        <ele>838</ele>
        <time>2026-06-28T10:14:17.000Z</time>
      </trkpt>
      <trkpt lat="42.75571" lon="1.47547">
        <ele>838</ele>
        <time>2026-06-28T10:14:18.000Z</time>
      </trkpt>
      <trkpt lat="42.75576" lon="1.47548">
        <ele>838</ele>
        <time>2026-06-28T10:14:19.000Z</time>
      </trkpt>
      <trkpt lat="42.7558" lon="1.4755">
        <ele>837</ele>
        <time>2026-06-28T10:14:20.000Z</time>
      </trkpt>
      <trkpt lat="42.75585" lon="1.47551">
        <ele>836</ele>
        <time>2026-06-28T10:14:21.000Z</time>
      </trkpt>
      <trkpt lat="42.7559" lon="1.47553">
        <ele>836</ele>
        <time>2026-06-28T10:14:22.000Z</time>
      </trkpt>
      <trkpt lat="42.75596" lon="1.47555">
        <ele>836</ele>
        <time>2026-06-28T10:14:23.000Z</time>
      </trkpt>
      <trkpt lat="42.75602" lon="1.47555">
        <ele>835</ele>
        <time>2026-06-28T10:14:24.000Z</time>
      </trkpt>
      <trkpt lat="42.75608" lon="1.47551">
        <ele>835</ele>
        <time>2026-06-28T10:14:25.000Z</time>
      </trkpt>
      <trkpt lat="42.75614" lon="1.47547">
        <ele>834</ele>
        <time>2026-06-28T10:14:26.000Z</time>
      </trkpt>
      <trkpt lat="42.75619" lon="1.47543">
        <ele>834</ele>
        <time>2026-06-28T10:14:27.000Z</time>
      </trkpt>
      <trkpt lat="42.75623" lon="1.4754">
        <ele>834</ele>
        <time>2026-06-28T10:14:28.000Z</time>
      </trkpt>
      <trkpt lat="42.75627" lon="1.47535">
        <ele>834</ele>
        <time>2026-06-28T10:14:29.000Z</time>
      </trkpt>
      <trkpt lat="42.75631" lon="1.47531">
        <ele>835</ele>
        <time>2026-06-28T10:14:30.000Z</time>
      </trkpt>
      <trkpt lat="42.75635" lon="1.47528">
        <ele>835</ele>
        <time>2026-06-28T10:14:31.000Z</time>
      </trkpt>
      <trkpt lat="42.75638" lon="1.47526">
        <ele>834</ele>
        <time>2026-06-28T10:14:32.000Z</time>
      </trkpt>
      <trkpt lat="42.7564" lon="1.47525">
        <ele>834</ele>
        <time>2026-06-28T10:14:33.000Z</time>
      </trkpt>
      <trkpt lat="42.75642" lon="1.47524">
        <ele>833</ele>
        <time>2026-06-28T10:14:34.000Z</time>
      </trkpt>
      <trkpt lat="42.75645" lon="1.47524">
        <ele>833</ele>
        <time>2026-06-28T10:14:35.000Z</time>
      </trkpt>
      <trkpt lat="42.75648" lon="1.47523">
        <ele>832</ele>
        <time>2026-06-28T10:14:36.000Z</time>
      </trkpt>
      <trkpt lat="42.75651" lon="1.47522">
        <ele>833</ele>
        <time>2026-06-28T10:14:37.000Z</time>
      </trkpt>
      <trkpt lat="42.75654" lon="1.47522">
        <ele>833</ele>
        <time>2026-06-28T10:14:38.000Z</time>
      </trkpt>
      <trkpt lat="42.75657" lon="1.47521">
        <ele>833</ele>
        <time>2026-06-28T10:14:39.000Z</time>
      </trkpt>
      <trkpt lat="42.75659" lon="1.47521">
        <ele>832</ele>
        <time>2026-06-28T10:14:40.000Z</time>
      </trkpt>
      <trkpt lat="42.75661" lon="1.47522">
        <ele>832</ele>
        <time>2026-06-28T10:14:41.000Z</time>
      </trkpt>
      <trkpt lat="42.75663" lon="1.47523">
        <ele>833</ele>
        <time>2026-06-28T10:14:42.000Z</time>
      </trkpt>
      <trkpt lat="42.75665" lon="1.47525">
        <ele>833</ele>
        <time>2026-06-28T10:14:43.000Z</time>
      </trkpt>
      <trkpt lat="42.75667" lon="1.47526">
        <ele>833</ele>
        <time>2026-06-28T10:14:44.000Z</time>
      </trkpt>
      <trkpt lat="42.7567" lon="1.47527">
        <ele>833</ele>
        <time>2026-06-28T10:14:45.000Z</time>
      </trkpt>
      <trkpt lat="42.75673" lon="1.4753">
        <ele>833</ele>
        <time>2026-06-28T10:14:46.000Z</time>
      </trkpt>
      <trkpt lat="42.75675" lon="1.47532">
        <ele>833</ele>
        <time>2026-06-28T10:14:47.000Z</time>
      </trkpt>
      <trkpt lat="42.75678" lon="1.47534">
        <ele>833</ele>
        <time>2026-06-28T10:14:48.000Z</time>
      </trkpt>
      <trkpt lat="42.75681" lon="1.47536">
        <ele>833</ele>
        <time>2026-06-28T10:14:49.000Z</time>
      </trkpt>
      <trkpt lat="42.75684" lon="1.47539">
        <ele>833</ele>
        <time>2026-06-28T10:14:50.000Z</time>
      </trkpt>
      <trkpt lat="42.75686" lon="1.47541">
        <ele>833</ele>
        <time>2026-06-28T10:14:51.000Z</time>
      </trkpt>
      <trkpt lat="42.75688" lon="1.47543">
        <ele>833</ele>
        <time>2026-06-28T10:14:52.000Z</time>
      </trkpt>
      <trkpt lat="42.7569" lon="1.47546">
        <ele>833</ele>
        <time>2026-06-28T10:14:53.000Z</time>
      </trkpt>
      <trkpt lat="42.75692" lon="1.47549">
        <ele>833</ele>
        <time>2026-06-28T10:14:54.000Z</time>
      </trkpt>
      <trkpt lat="42.75693" lon="1.4755">
        <ele>833</ele>
        <time>2026-06-28T10:14:55.000Z</time>
      </trkpt>
      <trkpt lat="42.75695" lon="1.47552">
        <ele>833</ele>
        <time>2026-06-28T10:14:56.000Z</time>
      </trkpt>
      <trkpt lat="42.75697" lon="1.47554">
        <ele>833</ele>
        <time>2026-06-28T10:14:57.000Z</time>
      </trkpt>
      <trkpt lat="42.75699" lon="1.47556">
        <ele>833</ele>
        <time>2026-06-28T10:14:58.000Z</time>
      </trkpt>
      <trkpt lat="42.75701" lon="1.4756">
        <ele>832</ele>
        <time>2026-06-28T10:14:59.000Z</time>
      </trkpt>
      <trkpt lat="42.75704" lon="1.47563">
        <ele>832</ele>
        <time>2026-06-28T10:15:00.000Z</time>
      </trkpt>
      <trkpt lat="42.75708" lon="1.47566">
        <ele>833</ele>
        <time>2026-06-28T10:15:01.000Z</time>
      </trkpt>
      <trkpt lat="42.75712" lon="1.47568">
        <ele>833</ele>
        <time>2026-06-28T10:15:02.000Z</time>
      </trkpt>
      <trkpt lat="42.75716" lon="1.47571">
        <ele>833</ele>
        <time>2026-06-28T10:15:03.000Z</time>
      </trkpt>
      <trkpt lat="42.7572" lon="1.47573">
        <ele>833</ele>
        <time>2026-06-28T10:15:04.000Z</time>
      </trkpt>
      <trkpt lat="42.75724" lon="1.47576">
        <ele>833</ele>
        <time>2026-06-28T10:15:05.000Z</time>
      </trkpt>
      <trkpt lat="42.75727" lon="1.47578">
        <ele>834</ele>
        <time>2026-06-28T10:15:06.000Z</time>
      </trkpt>
      <trkpt lat="42.7573" lon="1.4758">
        <ele>833</ele>
        <time>2026-06-28T10:15:07.000Z</time>
      </trkpt>
      <trkpt lat="42.75733" lon="1.47582">
        <ele>832</ele>
        <time>2026-06-28T10:15:08.000Z</time>
      </trkpt>
      <trkpt lat="42.75736" lon="1.47584">
        <ele>832</ele>
        <time>2026-06-28T10:15:09.000Z</time>
      </trkpt>
      <trkpt lat="42.7574" lon="1.47587">
        <ele>831</ele>
        <time>2026-06-28T10:15:10.000Z</time>
      </trkpt>
      <trkpt lat="42.75744" lon="1.4759">
        <ele>831</ele>
        <time>2026-06-28T10:15:11.000Z</time>
      </trkpt>
      <trkpt lat="42.75747" lon="1.47594">
        <ele>831</ele>
        <time>2026-06-28T10:15:12.000Z</time>
      </trkpt>
      <trkpt lat="42.75751" lon="1.47596">
        <ele>831</ele>
        <time>2026-06-28T10:15:13.000Z</time>
      </trkpt>
      <trkpt lat="42.75754" lon="1.47599">
        <ele>831</ele>
        <time>2026-06-28T10:15:14.000Z</time>
      </trkpt>
      <trkpt lat="42.75757" lon="1.47601">
        <ele>831</ele>
        <time>2026-06-28T10:15:15.000Z</time>
      </trkpt>
      <trkpt lat="42.75761" lon="1.47602">
        <ele>831</ele>
        <time>2026-06-28T10:15:16.000Z</time>
      </trkpt>
      <trkpt lat="42.75765" lon="1.47602">
        <ele>830</ele>
        <time>2026-06-28T10:15:17.000Z</time>
      </trkpt>
      <trkpt lat="42.75768" lon="1.47603">
        <ele>830</ele>
        <time>2026-06-28T10:15:18.000Z</time>
      </trkpt>
      <trkpt lat="42.75772" lon="1.47604">
        <ele>830</ele>
        <time>2026-06-28T10:15:19.000Z</time>
      </trkpt>
      <trkpt lat="42.75775" lon="1.47605">
        <ele>830</ele>
        <time>2026-06-28T10:15:20.000Z</time>
      </trkpt>
      <trkpt lat="42.75778" lon="1.47605">
        <ele>830</ele>
        <time>2026-06-28T10:15:21.000Z</time>
      </trkpt>
      <trkpt lat="42.75782" lon="1.47605">
        <ele>830</ele>
        <time>2026-06-28T10:15:22.000Z</time>
      </trkpt>
      <trkpt lat="42.75785" lon="1.47605">
        <ele>829</ele>
        <time>2026-06-28T10:15:23.000Z</time>
      </trkpt>
      <trkpt lat="42.75789" lon="1.47606">
        <ele>830</ele>
        <time>2026-06-28T10:15:24.000Z</time>
      </trkpt>
      <trkpt lat="42.75792" lon="1.47606">
        <ele>829</ele>
        <time>2026-06-28T10:15:25.000Z</time>
      </trkpt>
      <trkpt lat="42.75795" lon="1.47606">
        <ele>829</ele>
        <time>2026-06-28T10:15:26.000Z</time>
      </trkpt>
      <trkpt lat="42.75799" lon="1.47606">
        <ele>829</ele>
        <time>2026-06-28T10:15:27.000Z</time>
      </trkpt>
      <trkpt lat="42.75804" lon="1.47606">
        <ele>829</ele>
        <time>2026-06-28T10:15:28.000Z</time>
      </trkpt>
      <trkpt lat="42.75807" lon="1.47607">
        <ele>829</ele>
        <time>2026-06-28T10:15:29.000Z</time>
      </trkpt>
      <trkpt lat="42.75811" lon="1.47608">
        <ele>829</ele>
        <time>2026-06-28T10:15:30.000Z</time>
      </trkpt>
      <trkpt lat="42.75815" lon="1.47611">
        <ele>829</ele>
        <time>2026-06-28T10:15:31.000Z</time>
      </trkpt>
      <trkpt lat="42.7582" lon="1.47613">
        <ele>830</ele>
        <time>2026-06-28T10:15:32.000Z</time>
      </trkpt>
      <trkpt lat="42.75824" lon="1.47615">
        <ele>830</ele>
        <time>2026-06-28T10:15:33.000Z</time>
      </trkpt>
      <trkpt lat="42.75829" lon="1.47617">
        <ele>830</ele>
        <time>2026-06-28T10:15:34.000Z</time>
      </trkpt>
      <trkpt lat="42.75834" lon="1.4762">
        <ele>830</ele>
        <time>2026-06-28T10:15:35.000Z</time>
      </trkpt>
      <trkpt lat="42.7584" lon="1.47624">
        <ele>829</ele>
        <time>2026-06-28T10:15:36.000Z</time>
      </trkpt>
      <trkpt lat="42.75846" lon="1.47628">
        <ele>829</ele>
        <time>2026-06-28T10:15:37.000Z</time>
      </trkpt>
      <trkpt lat="42.75852" lon="1.47634">
        <ele>829</ele>
        <time>2026-06-28T10:15:38.000Z</time>
      </trkpt>
      <trkpt lat="42.75859" lon="1.47639">
        <ele>828</ele>
        <time>2026-06-28T10:15:39.000Z</time>
      </trkpt>
      <trkpt lat="42.75866" lon="1.47642">
        <ele>828</ele>
        <time>2026-06-28T10:15:40.000Z</time>
      </trkpt>
      <trkpt lat="42.75872" lon="1.47644">
        <ele>828</ele>
        <time>2026-06-28T10:15:41.000Z</time>
      </trkpt>
      <trkpt lat="42.75877" lon="1.47647">
        <ele>828</ele>
        <time>2026-06-28T10:15:42.000Z</time>
      </trkpt>
      <trkpt lat="42.75883" lon="1.4765">
        <ele>827</ele>
        <time>2026-06-28T10:15:43.000Z</time>
      </trkpt>
      <trkpt lat="42.75888" lon="1.47654">
        <ele>827</ele>
        <time>2026-06-28T10:15:44.000Z</time>
      </trkpt>
      <trkpt lat="42.75893" lon="1.47657">
        <ele>826</ele>
        <time>2026-06-28T10:15:45.000Z</time>
      </trkpt>
      <trkpt lat="42.75897" lon="1.4766">
        <ele>824</ele>
        <time>2026-06-28T10:15:46.000Z</time>
      </trkpt>
      <trkpt lat="42.75901" lon="1.47665">
        <ele>824</ele>
        <time>2026-06-28T10:15:47.000Z</time>
      </trkpt>
      <trkpt lat="42.75904" lon="1.47669">
        <ele>823</ele>
        <time>2026-06-28T10:15:48.000Z</time>
      </trkpt>
      <trkpt lat="42.75907" lon="1.47673">
        <ele>823</ele>
        <time>2026-06-28T10:15:49.000Z</time>
      </trkpt>
      <trkpt lat="42.75911" lon="1.47678">
        <ele>823</ele>
        <time>2026-06-28T10:15:50.000Z</time>
      </trkpt>
      <trkpt lat="42.75914" lon="1.47682">
        <ele>822</ele>
        <time>2026-06-28T10:15:51.000Z</time>
      </trkpt>
      <trkpt lat="42.75917" lon="1.47688">
        <ele>822</ele>
        <time>2026-06-28T10:15:52.000Z</time>
      </trkpt>
      <trkpt lat="42.7592" lon="1.47694">
        <ele>822</ele>
        <time>2026-06-28T10:15:53.000Z</time>
      </trkpt>
      <trkpt lat="42.75924" lon="1.477">
        <ele>821</ele>
        <time>2026-06-28T10:15:54.000Z</time>
      </trkpt>
      <trkpt lat="42.75927" lon="1.47705">
        <ele>820</ele>
        <time>2026-06-28T10:15:55.000Z</time>
      </trkpt>
      <trkpt lat="42.75928" lon="1.47708">
        <ele>819</ele>
        <time>2026-06-28T10:15:56.000Z</time>
      </trkpt>
      <trkpt lat="42.75927" lon="1.47713">
        <ele>819</ele>
        <time>2026-06-28T10:15:57.000Z</time>
      </trkpt>
      <trkpt lat="42.75926" lon="1.47717">
        <ele>819</ele>
        <time>2026-06-28T10:15:58.000Z</time>
      </trkpt>
      <trkpt lat="42.75924" lon="1.47722">
        <ele>818</ele>
        <time>2026-06-28T10:15:59.000Z</time>
      </trkpt>
      <trkpt lat="42.75922" lon="1.47727">
        <ele>817</ele>
        <time>2026-06-28T10:16:00.000Z</time>
      </trkpt>
      <trkpt lat="42.75918" lon="1.47732">
        <ele>816</ele>
        <time>2026-06-28T10:16:01.000Z</time>
      </trkpt>
      <trkpt lat="42.75914" lon="1.47734">
        <ele>817</ele>
        <time>2026-06-28T10:16:02.000Z</time>
      </trkpt>
      <trkpt lat="42.75909" lon="1.47737">
        <ele>817</ele>
        <time>2026-06-28T10:16:03.000Z</time>
      </trkpt>
      <trkpt lat="42.75905" lon="1.47738">
        <ele>817</ele>
        <time>2026-06-28T10:16:04.000Z</time>
      </trkpt>
      <trkpt lat="42.759" lon="1.47739">
        <ele>817</ele>
        <time>2026-06-28T10:16:05.000Z</time>
      </trkpt>
      <trkpt lat="42.75895" lon="1.47741">
        <ele>818</ele>
        <time>2026-06-28T10:16:06.000Z</time>
      </trkpt>
      <trkpt lat="42.7589" lon="1.47741">
        <ele>818</ele>
        <time>2026-06-28T10:16:07.000Z</time>
      </trkpt>
      <trkpt lat="42.75886" lon="1.47743">
        <ele>817</ele>
        <time>2026-06-28T10:16:08.000Z</time>
      </trkpt>
      <trkpt lat="42.75881" lon="1.47745">
        <ele>818</ele>
        <time>2026-06-28T10:16:09.000Z</time>
      </trkpt>
      <trkpt lat="42.75876" lon="1.47746">
        <ele>820</ele>
        <time>2026-06-28T10:16:10.000Z</time>
      </trkpt>
      <trkpt lat="42.75871" lon="1.47747">
        <ele>821</ele>
        <time>2026-06-28T10:16:11.000Z</time>
      </trkpt>
      <trkpt lat="42.75869" lon="1.47749">
        <ele>821</ele>
        <time>2026-06-28T10:16:12.000Z</time>
      </trkpt>
      <trkpt lat="42.75869" lon="1.47751">
        <ele>821</ele>
        <time>2026-06-28T10:16:13.000Z</time>
      </trkpt>
      <trkpt lat="42.75869" lon="1.47754">
        <ele>822</ele>
        <time>2026-06-28T10:16:14.000Z</time>
      </trkpt>
      <trkpt lat="42.7587" lon="1.47757">
        <ele>822</ele>
        <time>2026-06-28T10:16:15.000Z</time>
      </trkpt>
      <trkpt lat="42.75871" lon="1.47762">
        <ele>824</ele>
        <time>2026-06-28T10:16:16.000Z</time>
      </trkpt>
      <trkpt lat="42.75873" lon="1.47765">
        <ele>825</ele>
        <time>2026-06-28T10:16:17.000Z</time>
      </trkpt>
      <trkpt lat="42.75876" lon="1.4777">
        <ele>825</ele>
        <time>2026-06-28T10:16:18.000Z</time>
      </trkpt>
      <trkpt lat="42.7588" lon="1.47775">
        <ele>826</ele>
        <time>2026-06-28T10:16:19.000Z</time>
      </trkpt>
      <trkpt lat="42.75887" lon="1.47782">
        <ele>826</ele>
        <time>2026-06-28T10:16:20.000Z</time>
      </trkpt>
      <trkpt lat="42.75893" lon="1.47789">
        <ele>826</ele>
        <time>2026-06-28T10:16:21.000Z</time>
      </trkpt>
      <trkpt lat="42.75898" lon="1.47795">
        <ele>826</ele>
        <time>2026-06-28T10:16:22.000Z</time>
      </trkpt>
      <trkpt lat="42.75905" lon="1.47801">
        <ele>826</ele>
        <time>2026-06-28T10:16:23.000Z</time>
      </trkpt>
      <trkpt lat="42.75912" lon="1.47805">
        <ele>826</ele>
        <time>2026-06-28T10:16:24.000Z</time>
      </trkpt>
      <trkpt lat="42.75918" lon="1.47809">
        <ele>826</ele>
        <time>2026-06-28T10:16:25.000Z</time>
      </trkpt>
      <trkpt lat="42.75922" lon="1.47814">
        <ele>826</ele>
        <time>2026-06-28T10:16:26.000Z</time>
      </trkpt>
      <trkpt lat="42.75925" lon="1.47821">
        <ele>825</ele>
        <time>2026-06-28T10:16:27.000Z</time>
      </trkpt>
      <trkpt lat="42.75932" lon="1.47826">
        <ele>824</ele>
        <time>2026-06-28T10:16:28.000Z</time>
      </trkpt>
      <trkpt lat="42.75935" lon="1.4783">
        <ele>823</ele>
        <time>2026-06-28T10:16:29.000Z</time>
      </trkpt>
      <trkpt lat="42.75939" lon="1.47831">
        <ele>823</ele>
        <time>2026-06-28T10:16:30.000Z</time>
      </trkpt>
      <trkpt lat="42.75941" lon="1.47832">
        <ele>822</ele>
        <time>2026-06-28T10:16:31.000Z</time>
      </trkpt>
      <trkpt lat="42.75942" lon="1.47832">
        <ele>823</ele>
        <time>2026-06-28T10:16:32.000Z</time>
      </trkpt>
      <trkpt lat="42.75943" lon="1.47833">
        <ele>823</ele>
        <time>2026-06-28T10:16:33.000Z</time>
      </trkpt>
      <trkpt lat="42.75946" lon="1.47834">
        <ele>823</ele>
        <time>2026-06-28T10:16:34.000Z</time>
      </trkpt>
      <trkpt lat="42.75947" lon="1.47836">
        <ele>823</ele>
        <time>2026-06-28T10:16:35.000Z</time>
      </trkpt>
      <trkpt lat="42.75947" lon="1.47838">
        <ele>822</ele>
        <time>2026-06-28T10:16:36.000Z</time>
      </trkpt>
      <trkpt lat="42.75948" lon="1.47841">
        <ele>822</ele>
        <time>2026-06-28T10:16:37.000Z</time>
      </trkpt>
      <trkpt lat="42.75949" lon="1.47845">
        <ele>822</ele>
        <time>2026-06-28T10:16:38.000Z</time>
      </trkpt>
      <trkpt lat="42.7595" lon="1.47851">
        <ele>822</ele>
        <time>2026-06-28T10:16:39.000Z</time>
      </trkpt>
      <trkpt lat="42.75953" lon="1.47856">
        <ele>822</ele>
        <time>2026-06-28T10:16:40.000Z</time>
      </trkpt>
      <trkpt lat="42.75956" lon="1.47862">
        <ele>822</ele>
        <time>2026-06-28T10:16:41.000Z</time>
      </trkpt>
      <trkpt lat="42.7596" lon="1.4787">
        <ele>822</ele>
        <time>2026-06-28T10:16:42.000Z</time>
      </trkpt>
      <trkpt lat="42.75963" lon="1.47877">
        <ele>821</ele>
        <time>2026-06-28T10:16:43.000Z</time>
      </trkpt>
      <trkpt lat="42.75966" lon="1.47884">
        <ele>821</ele>
        <time>2026-06-28T10:16:44.000Z</time>
      </trkpt>
      <trkpt lat="42.75968" lon="1.4789">
        <ele>820</ele>
        <time>2026-06-28T10:16:45.000Z</time>
      </trkpt>
      <trkpt lat="42.75972" lon="1.47897">
        <ele>820</ele>
        <time>2026-06-28T10:16:46.000Z</time>
      </trkpt>
      <trkpt lat="42.75975" lon="1.47904">
        <ele>820</ele>
        <time>2026-06-28T10:16:47.000Z</time>
      </trkpt>
      <trkpt lat="42.75979" lon="1.47911">
        <ele>820</ele>
        <time>2026-06-28T10:16:48.000Z</time>
      </trkpt>
      <trkpt lat="42.75982" lon="1.47917">
        <ele>819</ele>
        <time>2026-06-28T10:16:49.000Z</time>
      </trkpt>
      <trkpt lat="42.75983" lon="1.47921">
        <ele>819</ele>
        <time>2026-06-28T10:16:50.000Z</time>
      </trkpt>
      <trkpt lat="42.75985" lon="1.47924">
        <ele>819</ele>
        <time>2026-06-28T10:16:51.000Z</time>
      </trkpt>
      <trkpt lat="42.75987" lon="1.47927">
        <ele>819</ele>
        <time>2026-06-28T10:16:52.000Z</time>
      </trkpt>
      <trkpt lat="42.75989" lon="1.4793">
        <ele>819</ele>
        <time>2026-06-28T10:16:53.000Z</time>
      </trkpt>
      <trkpt lat="42.75991" lon="1.47934">
        <ele>819</ele>
        <time>2026-06-28T10:16:54.000Z</time>
      </trkpt>
      <trkpt lat="42.75994" lon="1.47939">
        <ele>819</ele>
        <time>2026-06-28T10:16:55.000Z</time>
      </trkpt>
      <trkpt lat="42.75997" lon="1.47944">
        <ele>818</ele>
        <time>2026-06-28T10:16:56.000Z</time>
      </trkpt>
      <trkpt lat="42.76001" lon="1.47949">
        <ele>818</ele>
        <time>2026-06-28T10:16:57.000Z</time>
      </trkpt>
      <trkpt lat="42.76005" lon="1.47953">
        <ele>817</ele>
        <time>2026-06-28T10:16:58.000Z</time>
      </trkpt>
      <trkpt lat="42.76008" lon="1.47959">
        <ele>817</ele>
        <time>2026-06-28T10:16:59.000Z</time>
      </trkpt>
      <trkpt lat="42.76011" lon="1.47963">
        <ele>817</ele>
        <time>2026-06-28T10:17:00.000Z</time>
      </trkpt>
      <trkpt lat="42.76013" lon="1.47968">
        <ele>816</ele>
        <time>2026-06-28T10:17:01.000Z</time>
      </trkpt>
      <trkpt lat="42.76015" lon="1.47972">
        <ele>816</ele>
        <time>2026-06-28T10:17:02.000Z</time>
      </trkpt>
      <trkpt lat="42.76017" lon="1.47976">
        <ele>815</ele>
        <time>2026-06-28T10:17:03.000Z</time>
      </trkpt>
      <trkpt lat="42.76018" lon="1.47981">
        <ele>815</ele>
        <time>2026-06-28T10:17:04.000Z</time>
      </trkpt>
      <trkpt lat="42.76019" lon="1.47985">
        <ele>815</ele>
        <time>2026-06-28T10:17:05.000Z</time>
      </trkpt>
      <trkpt lat="42.76021" lon="1.47989">
        <ele>815</ele>
        <time>2026-06-28T10:17:06.000Z</time>
      </trkpt>
      <trkpt lat="42.76024" lon="1.47992">
        <ele>814</ele>
        <time>2026-06-28T10:17:07.000Z</time>
      </trkpt>
      <trkpt lat="42.76024" lon="1.47994">
        <ele>813</ele>
        <time>2026-06-28T10:17:08.000Z</time>
      </trkpt>
      <trkpt lat="42.76026" lon="1.47995">
        <ele>812</ele>
        <time>2026-06-28T10:17:09.000Z</time>
      </trkpt>
      <trkpt lat="42.76026" lon="1.47997">
        <ele>811</ele>
        <time>2026-06-28T10:17:10.000Z</time>
      </trkpt>
      <trkpt lat="42.76027" lon="1.47997">
        <ele>810</ele>
        <time>2026-06-28T10:17:11.000Z</time>
      </trkpt>
      <trkpt lat="42.76028" lon="1.47998">
        <ele>810</ele>
        <time>2026-06-28T10:17:12.000Z</time>
      </trkpt>
      <trkpt lat="42.76029" lon="1.47998">
        <ele>810</ele>
        <time>2026-06-28T10:17:13.000Z</time>
      </trkpt>
      <trkpt lat="42.7603" lon="1.47997">
        <ele>810</ele>
        <time>2026-06-28T10:17:14.000Z</time>
      </trkpt>
      <trkpt lat="42.76032" lon="1.47998">
        <ele>810</ele>
        <time>2026-06-28T10:17:15.000Z</time>
      </trkpt>
      <trkpt lat="42.76032" lon="1.48">
        <ele>810</ele>
        <time>2026-06-28T10:17:16.000Z</time>
      </trkpt>
      <trkpt lat="42.76032" lon="1.48004">
        <ele>810</ele>
        <time>2026-06-28T10:17:17.000Z</time>
      </trkpt>
      <trkpt lat="42.76034" lon="1.4801">
        <ele>810</ele>
        <time>2026-06-28T10:17:18.000Z</time>
      </trkpt>
      <trkpt lat="42.76039" lon="1.48018">
        <ele>809</ele>
        <time>2026-06-28T10:17:19.000Z</time>
      </trkpt>
      <trkpt lat="42.76042" lon="1.48024">
        <ele>808</ele>
        <time>2026-06-28T10:17:20.000Z</time>
      </trkpt>
      <trkpt lat="42.76044" lon="1.48033">
        <ele>808</ele>
        <time>2026-06-28T10:17:21.000Z</time>
      </trkpt>
      <trkpt lat="42.76048" lon="1.48041">
        <ele>807</ele>
        <time>2026-06-28T10:17:22.000Z</time>
      </trkpt>
      <trkpt lat="42.76051" lon="1.48047">
        <ele>806</ele>
        <time>2026-06-28T10:17:23.000Z</time>
      </trkpt>
      <trkpt lat="42.76054" lon="1.48054">
        <ele>806</ele>
        <time>2026-06-28T10:17:24.000Z</time>
      </trkpt>
      <trkpt lat="42.76057" lon="1.48062">
        <ele>805</ele>
        <time>2026-06-28T10:17:25.000Z</time>
      </trkpt>
      <trkpt lat="42.76059" lon="1.48069">
        <ele>805</ele>
        <time>2026-06-28T10:17:26.000Z</time>
      </trkpt>
      <trkpt lat="42.76061" lon="1.48076">
        <ele>805</ele>
        <time>2026-06-28T10:17:27.000Z</time>
      </trkpt>
      <trkpt lat="42.76062" lon="1.48083">
        <ele>805</ele>
        <time>2026-06-28T10:17:28.000Z</time>
      </trkpt>
      <trkpt lat="42.76065" lon="1.4809">
        <ele>805</ele>
        <time>2026-06-28T10:17:29.000Z</time>
      </trkpt>
      <trkpt lat="42.76067" lon="1.48097">
        <ele>805</ele>
        <time>2026-06-28T10:17:30.000Z</time>
      </trkpt>
      <trkpt lat="42.7607" lon="1.48104">
        <ele>805</ele>
        <time>2026-06-28T10:17:31.000Z</time>
      </trkpt>
      <trkpt lat="42.76073" lon="1.48111">
        <ele>805</ele>
        <time>2026-06-28T10:17:32.000Z</time>
      </trkpt>
      <trkpt lat="42.76076" lon="1.48119">
        <ele>805</ele>
        <time>2026-06-28T10:17:33.000Z</time>
      </trkpt>
      <trkpt lat="42.76078" lon="1.48126">
        <ele>805</ele>
        <time>2026-06-28T10:17:34.000Z</time>
      </trkpt>
      <trkpt lat="42.7608" lon="1.48134">
        <ele>805</ele>
        <time>2026-06-28T10:17:35.000Z</time>
      </trkpt>
      <trkpt lat="42.76083" lon="1.48142">
        <ele>805</ele>
        <time>2026-06-28T10:17:36.000Z</time>
      </trkpt>
      <trkpt lat="42.76087" lon="1.48147">
        <ele>806</ele>
        <time>2026-06-28T10:17:37.000Z</time>
      </trkpt>
      <trkpt lat="42.76095" lon="1.4815">
        <ele>806</ele>
        <time>2026-06-28T10:17:38.000Z</time>
      </trkpt>
      <trkpt lat="42.76103" lon="1.48154">
        <ele>806</ele>
        <time>2026-06-28T10:17:39.000Z</time>
      </trkpt>
      <trkpt lat="42.7611" lon="1.48157">
        <ele>805</ele>
        <time>2026-06-28T10:17:40.000Z</time>
      </trkpt>
      <trkpt lat="42.76116" lon="1.48162">
        <ele>805</ele>
        <time>2026-06-28T10:17:41.000Z</time>
      </trkpt>
      <trkpt lat="42.76123" lon="1.48166">
        <ele>805</ele>
        <time>2026-06-28T10:17:42.000Z</time>
      </trkpt>
      <trkpt lat="42.7613" lon="1.48171">
        <ele>804</ele>
        <time>2026-06-28T10:17:43.000Z</time>
      </trkpt>
      <trkpt lat="42.76137" lon="1.48176">
        <ele>804</ele>
        <time>2026-06-28T10:17:44.000Z</time>
      </trkpt>
      <trkpt lat="42.76144" lon="1.48181">
        <ele>803</ele>
        <time>2026-06-28T10:17:45.000Z</time>
      </trkpt>
      <trkpt lat="42.76151" lon="1.48187">
        <ele>803</ele>
        <time>2026-06-28T10:17:46.000Z</time>
      </trkpt>
      <trkpt lat="42.76157" lon="1.48192">
        <ele>803</ele>
        <time>2026-06-28T10:17:47.000Z</time>
      </trkpt>
      <trkpt lat="42.76164" lon="1.48196">
        <ele>803</ele>
        <time>2026-06-28T10:17:48.000Z</time>
      </trkpt>
      <trkpt lat="42.76172" lon="1.48202">
        <ele>804</ele>
        <time>2026-06-28T10:17:49.000Z</time>
      </trkpt>
      <trkpt lat="42.76179" lon="1.48208">
        <ele>804</ele>
        <time>2026-06-28T10:17:50.000Z</time>
      </trkpt>
      <trkpt lat="42.76185" lon="1.48213">
        <ele>803</ele>
        <time>2026-06-28T10:17:51.000Z</time>
      </trkpt>
      <trkpt lat="42.76191" lon="1.48219">
        <ele>803</ele>
        <time>2026-06-28T10:17:52.000Z</time>
      </trkpt>
      <trkpt lat="42.76196" lon="1.48226">
        <ele>803</ele>
        <time>2026-06-28T10:17:53.000Z</time>
      </trkpt>
      <trkpt lat="42.76203" lon="1.4823">
        <ele>803</ele>
        <time>2026-06-28T10:17:54.000Z</time>
      </trkpt>
      <trkpt lat="42.7621" lon="1.48235">
        <ele>803</ele>
        <time>2026-06-28T10:17:55.000Z</time>
      </trkpt>
      <trkpt lat="42.76217" lon="1.48238">
        <ele>802</ele>
        <time>2026-06-28T10:17:56.000Z</time>
      </trkpt>
      <trkpt lat="42.76224" lon="1.48237">
        <ele>802</ele>
        <time>2026-06-28T10:17:57.000Z</time>
      </trkpt>
      <trkpt lat="42.76229" lon="1.48237">
        <ele>801</ele>
        <time>2026-06-28T10:17:58.000Z</time>
      </trkpt>
      <trkpt lat="42.76235" lon="1.48237">
        <ele>800</ele>
        <time>2026-06-28T10:17:59.000Z</time>
      </trkpt>
      <trkpt lat="42.76242" lon="1.48237">
        <ele>800</ele>
        <time>2026-06-28T10:18:00.000Z</time>
      </trkpt>
      <trkpt lat="42.76248" lon="1.48238">
        <ele>800</ele>
        <time>2026-06-28T10:18:01.000Z</time>
      </trkpt>
      <trkpt lat="42.76253" lon="1.48241">
        <ele>799</ele>
        <time>2026-06-28T10:18:02.000Z</time>
      </trkpt>
      <trkpt lat="42.76259" lon="1.48244">
        <ele>799</ele>
        <time>2026-06-28T10:18:03.000Z</time>
      </trkpt>
      <trkpt lat="42.76265" lon="1.48251">
        <ele>798</ele>
        <time>2026-06-28T10:18:04.000Z</time>
      </trkpt>
      <trkpt lat="42.7627" lon="1.48256">
        <ele>798</ele>
        <time>2026-06-28T10:18:05.000Z</time>
      </trkpt>
      <trkpt lat="42.76274" lon="1.48259">
        <ele>798</ele>
        <time>2026-06-28T10:18:06.000Z</time>
      </trkpt>
      <trkpt lat="42.76279" lon="1.48263">
        <ele>798</ele>
        <time>2026-06-28T10:18:07.000Z</time>
      </trkpt>
      <trkpt lat="42.76286" lon="1.48268">
        <ele>798</ele>
        <time>2026-06-28T10:18:08.000Z</time>
      </trkpt>
      <trkpt lat="42.76292" lon="1.48273">
        <ele>798</ele>
        <time>2026-06-28T10:18:09.000Z</time>
      </trkpt>
      <trkpt lat="42.76298" lon="1.48279">
        <ele>798</ele>
        <time>2026-06-28T10:18:10.000Z</time>
      </trkpt>
      <trkpt lat="42.76304" lon="1.48284">
        <ele>799</ele>
        <time>2026-06-28T10:18:11.000Z</time>
      </trkpt>
      <trkpt lat="42.7631" lon="1.48289">
        <ele>799</ele>
        <time>2026-06-28T10:18:12.000Z</time>
      </trkpt>
      <trkpt lat="42.76316" lon="1.48292">
        <ele>799</ele>
        <time>2026-06-28T10:18:13.000Z</time>
      </trkpt>
      <trkpt lat="42.76322" lon="1.48296">
        <ele>799</ele>
        <time>2026-06-28T10:18:14.000Z</time>
      </trkpt>
      <trkpt lat="42.76328" lon="1.48298">
        <ele>798</ele>
        <time>2026-06-28T10:18:15.000Z</time>
      </trkpt>
      <trkpt lat="42.76334" lon="1.48299">
        <ele>798</ele>
        <time>2026-06-28T10:18:16.000Z</time>
      </trkpt>
      <trkpt lat="42.76338" lon="1.48296">
        <ele>797</ele>
        <time>2026-06-28T10:18:17.000Z</time>
      </trkpt>
      <trkpt lat="42.76343" lon="1.48291">
        <ele>798</ele>
        <time>2026-06-28T10:18:18.000Z</time>
      </trkpt>
      <trkpt lat="42.76347" lon="1.48285">
        <ele>798</ele>
        <time>2026-06-28T10:18:19.000Z</time>
      </trkpt>
      <trkpt lat="42.76352" lon="1.48279">
        <ele>798</ele>
        <time>2026-06-28T10:18:20.000Z</time>
      </trkpt>
      <trkpt lat="42.76356" lon="1.48273">
        <ele>798</ele>
        <time>2026-06-28T10:18:21.000Z</time>
      </trkpt>
      <trkpt lat="42.76361" lon="1.48268">
        <ele>797</ele>
        <time>2026-06-28T10:18:22.000Z</time>
      </trkpt>
      <trkpt lat="42.76365" lon="1.48263">
        <ele>796</ele>
        <time>2026-06-28T10:18:23.000Z</time>
      </trkpt>
      <trkpt lat="42.7637" lon="1.48258">
        <ele>796</ele>
        <time>2026-06-28T10:18:24.000Z</time>
      </trkpt>
      <trkpt lat="42.76375" lon="1.48253">
        <ele>795</ele>
        <time>2026-06-28T10:18:25.000Z</time>
      </trkpt>
      <trkpt lat="42.7638" lon="1.48248">
        <ele>795</ele>
        <time>2026-06-28T10:18:26.000Z</time>
      </trkpt>
      <trkpt lat="42.76385" lon="1.48244">
        <ele>795</ele>
        <time>2026-06-28T10:18:27.000Z</time>
      </trkpt>
      <trkpt lat="42.7639" lon="1.48238">
        <ele>794</ele>
        <time>2026-06-28T10:18:28.000Z</time>
      </trkpt>
      <trkpt lat="42.76395" lon="1.48232">
        <ele>794</ele>
        <time>2026-06-28T10:18:29.000Z</time>
      </trkpt>
      <trkpt lat="42.76398" lon="1.48226">
        <ele>793</ele>
        <time>2026-06-28T10:18:30.000Z</time>
      </trkpt>
      <trkpt lat="42.76399" lon="1.48217">
        <ele>793</ele>
        <time>2026-06-28T10:18:31.000Z</time>
      </trkpt>
      <trkpt lat="42.76397" lon="1.4821">
        <ele>793</ele>
        <time>2026-06-28T10:18:32.000Z</time>
      </trkpt>
      <trkpt lat="42.76394" lon="1.48205">
        <ele>793</ele>
        <time>2026-06-28T10:18:33.000Z</time>
      </trkpt>
      <trkpt lat="42.76392" lon="1.48198">
        <ele>792</ele>
        <time>2026-06-28T10:18:34.000Z</time>
      </trkpt>
      <trkpt lat="42.76389" lon="1.48192">
        <ele>792</ele>
        <time>2026-06-28T10:18:35.000Z</time>
      </trkpt>
      <trkpt lat="42.76388" lon="1.48186">
        <ele>792</ele>
        <time>2026-06-28T10:18:36.000Z</time>
      </trkpt>
      <trkpt lat="42.76387" lon="1.48179">
        <ele>792</ele>
        <time>2026-06-28T10:18:37.000Z</time>
      </trkpt>
      <trkpt lat="42.76387" lon="1.48172">
        <ele>792</ele>
        <time>2026-06-28T10:18:38.000Z</time>
      </trkpt>
      <trkpt lat="42.76387" lon="1.48164">
        <ele>792</ele>
        <time>2026-06-28T10:18:39.000Z</time>
      </trkpt>
      <trkpt lat="42.76386" lon="1.48157">
        <ele>792</ele>
        <time>2026-06-28T10:18:40.000Z</time>
      </trkpt>
      <trkpt lat="42.76384" lon="1.48149">
        <ele>792</ele>
        <time>2026-06-28T10:18:41.000Z</time>
      </trkpt>
      <trkpt lat="42.76382" lon="1.48142">
        <ele>792</ele>
        <time>2026-06-28T10:18:42.000Z</time>
      </trkpt>
      <trkpt lat="42.76378" lon="1.48137">
        <ele>792</ele>
        <time>2026-06-28T10:18:43.000Z</time>
      </trkpt>
      <trkpt lat="42.76375" lon="1.48132">
        <ele>793</ele>
        <time>2026-06-28T10:18:44.000Z</time>
      </trkpt>
      <trkpt lat="42.7637" lon="1.4813">
        <ele>794</ele>
        <time>2026-06-28T10:18:45.000Z</time>
      </trkpt>
      <trkpt lat="42.76366" lon="1.48129">
        <ele>795</ele>
        <time>2026-06-28T10:18:46.000Z</time>
      </trkpt>
      <trkpt lat="42.76361" lon="1.48127">
        <ele>795</ele>
        <time>2026-06-28T10:18:47.000Z</time>
      </trkpt>
      <trkpt lat="42.76358" lon="1.48124">
        <ele>795</ele>
        <time>2026-06-28T10:18:48.000Z</time>
      </trkpt>
      <trkpt lat="42.76355" lon="1.48118">
        <ele>794</ele>
        <time>2026-06-28T10:18:49.000Z</time>
      </trkpt>
      <trkpt lat="42.76352" lon="1.48112">
        <ele>794</ele>
        <time>2026-06-28T10:18:50.000Z</time>
      </trkpt>
      <trkpt lat="42.76351" lon="1.48105">
        <ele>794</ele>
        <time>2026-06-28T10:18:51.000Z</time>
      </trkpt>
      <trkpt lat="42.7635" lon="1.48098">
        <ele>794</ele>
        <time>2026-06-28T10:18:52.000Z</time>
      </trkpt>
      <trkpt lat="42.7635" lon="1.4809">
        <ele>794</ele>
        <time>2026-06-28T10:18:53.000Z</time>
      </trkpt>
      <trkpt lat="42.76351" lon="1.48082">
        <ele>794</ele>
        <time>2026-06-28T10:18:54.000Z</time>
      </trkpt>
      <trkpt lat="42.76352" lon="1.48073">
        <ele>795</ele>
        <time>2026-06-28T10:18:55.000Z</time>
      </trkpt>
      <trkpt lat="42.76354" lon="1.48065">
        <ele>795</ele>
        <time>2026-06-28T10:18:56.000Z</time>
      </trkpt>
      <trkpt lat="42.76355" lon="1.48058">
        <ele>796</ele>
        <time>2026-06-28T10:18:57.000Z</time>
      </trkpt>
      <trkpt lat="42.76357" lon="1.48051">
        <ele>796</ele>
        <time>2026-06-28T10:18:58.000Z</time>
      </trkpt>
      <trkpt lat="42.76358" lon="1.48044">
        <ele>795</ele>
        <time>2026-06-28T10:18:59.000Z</time>
      </trkpt>
      <trkpt lat="42.76359" lon="1.48036">
        <ele>795</ele>
        <time>2026-06-28T10:19:00.000Z</time>
      </trkpt>
      <trkpt lat="42.76359" lon="1.48028">
        <ele>795</ele>
        <time>2026-06-28T10:19:01.000Z</time>
      </trkpt>
      <trkpt lat="42.76359" lon="1.48021">
        <ele>795</ele>
        <time>2026-06-28T10:19:02.000Z</time>
      </trkpt>
      <trkpt lat="42.7636" lon="1.48014">
        <ele>795</ele>
        <time>2026-06-28T10:19:03.000Z</time>
      </trkpt>
      <trkpt lat="42.76361" lon="1.48007">
        <ele>795</ele>
        <time>2026-06-28T10:19:04.000Z</time>
      </trkpt>
      <trkpt lat="42.76363" lon="1.48001">
        <ele>795</ele>
        <time>2026-06-28T10:19:05.000Z</time>
      </trkpt>
      <trkpt lat="42.76365" lon="1.47999">
        <ele>794</ele>
        <time>2026-06-28T10:19:06.000Z</time>
      </trkpt>
      <trkpt lat="42.76367" lon="1.47998">
        <ele>794</ele>
        <time>2026-06-28T10:19:07.000Z</time>
      </trkpt>
      <trkpt lat="42.76369" lon="1.48">
        <ele>794</ele>
        <time>2026-06-28T10:19:08.000Z</time>
      </trkpt>
      <trkpt lat="42.76371" lon="1.48002">
        <ele>793</ele>
        <time>2026-06-28T10:19:09.000Z</time>
      </trkpt>
      <trkpt lat="42.76372" lon="1.48004">
        <ele>793</ele>
        <time>2026-06-28T10:19:10.000Z</time>
      </trkpt>
      <trkpt lat="42.76372" lon="1.48005">
        <ele>793</ele>
        <time>2026-06-28T10:19:11.000Z</time>
      </trkpt>
      <trkpt lat="42.76373" lon="1.48002">
        <ele>793</ele>
        <time>2026-06-28T10:19:25.000Z</time>
      </trkpt>
      <trkpt lat="42.76373" lon="1.48001">
        <ele>793</ele>
        <time>2026-06-28T10:19:26.000Z</time>
      </trkpt>
      <trkpt lat="42.76373" lon="1.48002">
        <ele>794</ele>
        <time>2026-06-28T10:19:27.000Z</time>
      </trkpt>
      <trkpt lat="42.76373" lon="1.48003">
        <ele>794</ele>
        <time>2026-06-28T10:19:28.000Z</time>
      </trkpt>
      <trkpt lat="42.76372" lon="1.48004">
        <ele>792</ele>
        <time>2026-06-28T10:20:24.000Z</time>
      </trkpt>
      <trkpt lat="42.76372" lon="1.48004">
        <ele>791</ele>
        <time>2026-06-28T10:20:25.000Z</time>
      </trkpt>
      <trkpt lat="42.76371" lon="1.48004">
        <ele>791</ele>
        <time>2026-06-28T10:20:26.000Z</time>
      </trkpt>
      <trkpt lat="42.76372" lon="1.48003">
        <ele>791</ele>
        <time>2026-06-28T10:20:27.000Z</time>
      </trkpt>
      <trkpt lat="42.76374" lon="1.48005">
        <ele>792</ele>
        <time>2026-06-28T10:20:49.000Z</time>
      </trkpt>
      <trkpt lat="42.76373" lon="1.48005">
        <ele>790</ele>
        <time>2026-06-28T10:20:50.000Z</time>
      </trkpt>
      <trkpt lat="42.76373" lon="1.48004">
        <ele>788</ele>
        <time>2026-06-28T10:20:51.000Z</time>
      </trkpt>
      <trkpt lat="42.76372" lon="1.48007">
        <ele>790</ele>
        <time>2026-06-28T10:21:09.000Z</time>
      </trkpt>
      <trkpt lat="42.76372" lon="1.48006">
        <ele>790</ele>
        <time>2026-06-28T10:21:10.000Z</time>
      </trkpt>
      <trkpt lat="42.76371" lon="1.48006">
        <ele>790</ele>
        <time>2026-06-28T10:21:11.000Z</time>
      </trkpt>
      <trkpt lat="42.7637" lon="1.48007">
        <ele>790</ele>
        <time>2026-06-28T10:21:12.000Z</time>
      </trkpt>
      <trkpt lat="42.7637" lon="1.48007">
        <ele>790</ele>
        <time>2026-06-28T10:21:13.000Z</time>
      </trkpt>
      <trkpt lat="42.76368" lon="1.48008">
        <ele>790</ele>
        <time>2026-06-28T10:21:14.000Z</time>
      </trkpt>
      <trkpt lat="42.76368" lon="1.48008">
        <ele>791</ele>
        <time>2026-06-28T10:21:15.000Z</time>
      </trkpt>
      <trkpt lat="42.76367" lon="1.48008">
        <ele>790</ele>
        <time>2026-06-28T10:21:16.000Z</time>
      </trkpt>
    </trkseg>
  </trk>
</gpx>